<?xml version="1.0" encoding="UTF-8" standalone="no" ?>
<gpx xmlns="http://www.topografix.com/GPX/1/1" xmlns:xsi="http://www.w3.org/2001/XMLSchema-instance" xsi:schemaLocation="http://www.topografix.com/GPX/1/1 http://www.topografix.com/GPX/1/1/gpx.xsd" version="1.1" creator="VisuGPX - https://www.visugpx.com">
  <metadata>
    <name>OLIANA ULTRA</name>
    <desc><![CDATA[OLIANA ULTRA 120 KM 6200+-----------]]></desc>
  </metadata>
  <trk>
    <name><![CDATA[4a-circular-panta-doliana_unified]]></name>
    <trkseg>
      <trkpt lat="42.06638" lon="1.31379">
        <ele>449.7</ele>
        <time>2019-02-11T23:35:22Z</time>
      </trkpt>
      <trkpt lat="42.06646" lon="1.31385">
        <ele>453.9</ele>
        <time>2019-02-11T23:35:27Z</time>
      </trkpt>
      <trkpt lat="42.06653" lon="1.31379">
        <ele>454.8</ele>
        <time>2019-02-11T23:35:32Z</time>
      </trkpt>
      <trkpt lat="42.06668" lon="1.3138">
        <ele>455.4</ele>
        <time>2019-02-11T23:35:40Z</time>
      </trkpt>
      <trkpt lat="42.06682" lon="1.31386">
        <ele>456.3</ele>
        <time>2019-02-11T23:35:49Z</time>
      </trkpt>
      <trkpt lat="42.06697" lon="1.31395">
        <ele>457.3</ele>
        <time>2019-02-11T23:35:58Z</time>
      </trkpt>
      <trkpt lat="42.06705" lon="1.31401">
        <ele>458.2</ele>
        <time>2019-02-11T23:36:03Z</time>
      </trkpt>
      <trkpt lat="42.06712" lon="1.31401">
        <ele>458.7</ele>
        <time>2019-02-11T23:36:08Z</time>
      </trkpt>
      <trkpt lat="42.06723" lon="1.31399">
        <ele>459.7</ele>
        <time>2019-02-11T23:36:14Z</time>
      </trkpt>
      <trkpt lat="42.06734" lon="1.31397">
        <ele>460.7</ele>
        <time>2019-02-11T23:36:20Z</time>
      </trkpt>
      <trkpt lat="42.06747" lon="1.31392">
        <ele>459.2</ele>
        <time>2019-02-11T23:36:28Z</time>
      </trkpt>
      <trkpt lat="42.06767" lon="1.3141">
        <ele>460.7</ele>
        <time>2019-02-11T23:36:42Z</time>
      </trkpt>
      <trkpt lat="42.06785" lon="1.31417">
        <ele>463</ele>
        <time>2019-02-11T23:36:52Z</time>
      </trkpt>
      <trkpt lat="42.06798" lon="1.31412">
        <ele>457.2</ele>
        <time>2019-02-11T23:37:00Z</time>
      </trkpt>
      <trkpt lat="42.06806" lon="1.31407">
        <ele>453.4</ele>
        <time>2019-02-11T23:37:05Z</time>
      </trkpt>
      <trkpt lat="42.06816" lon="1.31401">
        <ele>452</ele>
        <time>2019-02-11T23:37:11Z</time>
      </trkpt>
      <trkpt lat="42.06826" lon="1.31406">
        <ele>453.1</ele>
        <time>2019-02-11T23:37:17Z</time>
      </trkpt>
      <trkpt lat="42.06838" lon="1.31423">
        <ele>453</ele>
        <time>2019-02-11T23:37:27Z</time>
      </trkpt>
      <trkpt lat="42.06846" lon="1.31433">
        <ele>456.2</ele>
        <time>2019-02-11T23:37:33Z</time>
      </trkpt>
      <trkpt lat="42.06856" lon="1.31437">
        <ele>458.6</ele>
        <time>2019-02-11T23:37:39Z</time>
      </trkpt>
      <trkpt lat="42.06864" lon="1.31432">
        <ele>461.1</ele>
        <time>2019-02-11T23:37:45Z</time>
      </trkpt>
      <trkpt lat="42.06877" lon="1.31431">
        <ele>461.7</ele>
        <time>2019-02-11T23:37:52Z</time>
      </trkpt>
      <trkpt lat="42.06888" lon="1.31423">
        <ele>463.4</ele>
        <time>2019-02-11T23:37:59Z</time>
      </trkpt>
      <trkpt lat="42.06902" lon="1.31424">
        <ele>462.7</ele>
        <time>2019-02-11T23:38:07Z</time>
      </trkpt>
      <trkpt lat="42.06911" lon="1.31436">
        <ele>464.4</ele>
        <time>2019-02-11T23:38:14Z</time>
      </trkpt>
      <trkpt lat="42.06917" lon="1.31446">
        <ele>466.8</ele>
        <time>2019-02-11T23:38:20Z</time>
      </trkpt>
      <trkpt lat="42.06921" lon="1.31455">
        <ele>467.8</ele>
        <time>2019-02-11T23:38:24Z</time>
      </trkpt>
      <trkpt lat="42.06929" lon="1.31456">
        <ele>466.5</ele>
        <time>2019-02-11T23:38:29Z</time>
      </trkpt>
      <trkpt lat="42.06939" lon="1.31447">
        <ele>463.5</ele>
        <time>2019-02-11T23:38:36Z</time>
      </trkpt>
      <trkpt lat="42.06948" lon="1.31437">
        <ele>462.7</ele>
        <time>2019-02-11T23:38:42Z</time>
      </trkpt>
      <trkpt lat="42.06958" lon="1.3143">
        <ele>461.7</ele>
        <time>2019-02-11T23:38:49Z</time>
      </trkpt>
      <trkpt lat="42.06962" lon="1.31423">
        <ele>458.7</ele>
        <time>2019-02-11T23:38:52Z</time>
      </trkpt>
      <trkpt lat="42.0697" lon="1.31416">
        <ele>455.8</ele>
        <time>2019-02-11T23:38:58Z</time>
      </trkpt>
      <trkpt lat="42.06978" lon="1.31409">
        <ele>455.5</ele>
        <time>2019-02-11T23:39:03Z</time>
      </trkpt>
      <trkpt lat="42.06985" lon="1.314">
        <ele>455.8</ele>
        <time>2019-02-11T23:39:09Z</time>
      </trkpt>
      <trkpt lat="42.06995" lon="1.31391">
        <ele>454.8</ele>
        <time>2019-02-11T23:39:15Z</time>
      </trkpt>
      <trkpt lat="42.07002" lon="1.31385">
        <ele>456.2</ele>
        <time>2019-02-11T23:39:21Z</time>
      </trkpt>
      <trkpt lat="42.07009" lon="1.31378">
        <ele>456.2</ele>
        <time>2019-02-11T23:39:25Z</time>
      </trkpt>
      <trkpt lat="42.07018" lon="1.31372">
        <ele>458.3</ele>
        <time>2019-02-11T23:39:31Z</time>
      </trkpt>
      <trkpt lat="42.07028" lon="1.31369">
        <ele>460.2</ele>
        <time>2019-02-11T23:39:37Z</time>
      </trkpt>
      <trkpt lat="42.07036" lon="1.31375">
        <ele>461.7</ele>
        <time>2019-02-11T23:39:43Z</time>
      </trkpt>
      <trkpt lat="42.07044" lon="1.31385">
        <ele>463.4</ele>
        <time>2019-02-11T23:39:49Z</time>
      </trkpt>
      <trkpt lat="42.07052" lon="1.31396">
        <ele>465.9</ele>
        <time>2019-02-11T23:39:55Z</time>
      </trkpt>
      <trkpt lat="42.0706" lon="1.31396">
        <ele>467.9</ele>
        <time>2019-02-11T23:40:00Z</time>
      </trkpt>
      <trkpt lat="42.0707" lon="1.3139">
        <ele>468.3</ele>
        <time>2019-02-11T23:40:06Z</time>
      </trkpt>
      <trkpt lat="42.0708" lon="1.3138">
        <ele>472.2</ele>
        <time>2019-02-11T23:40:13Z</time>
      </trkpt>
      <trkpt lat="42.07089" lon="1.31375">
        <ele>475</ele>
        <time>2019-02-11T23:40:19Z</time>
      </trkpt>
      <trkpt lat="42.071" lon="1.3137">
        <ele>477.4</ele>
        <time>2019-02-11T23:40:25Z</time>
      </trkpt>
      <trkpt lat="42.07111" lon="1.31366">
        <ele>478.1</ele>
        <time>2019-02-11T23:40:32Z</time>
      </trkpt>
      <trkpt lat="42.0712" lon="1.31363">
        <ele>479.9</ele>
        <time>2019-02-11T23:40:38Z</time>
      </trkpt>
      <trkpt lat="42.07131" lon="1.31357">
        <ele>477.4</ele>
        <time>2019-02-11T23:40:44Z</time>
      </trkpt>
      <trkpt lat="42.07137" lon="1.31352">
        <ele>476</ele>
        <time>2019-02-11T23:40:48Z</time>
      </trkpt>
      <trkpt lat="42.07146" lon="1.31349">
        <ele>475.7</ele>
        <time>2019-02-11T23:40:53Z</time>
      </trkpt>
      <trkpt lat="42.07155" lon="1.3135">
        <ele>474.6</ele>
        <time>2019-02-11T23:40:59Z</time>
      </trkpt>
      <trkpt lat="42.07166" lon="1.31352">
        <ele>476.4</ele>
        <time>2019-02-11T23:41:05Z</time>
      </trkpt>
      <trkpt lat="42.07176" lon="1.31356">
        <ele>478.8</ele>
        <time>2019-02-11T23:41:11Z</time>
      </trkpt>
      <trkpt lat="42.07188" lon="1.31357">
        <ele>478.5</ele>
        <time>2019-02-11T23:41:18Z</time>
      </trkpt>
      <trkpt lat="42.07196" lon="1.31364">
        <ele>476.4</ele>
        <time>2019-02-11T23:41:23Z</time>
      </trkpt>
      <trkpt lat="42.07207" lon="1.31367">
        <ele>475.6</ele>
        <time>2019-02-11T23:41:30Z</time>
      </trkpt>
      <trkpt lat="42.07217" lon="1.31366">
        <ele>470.9</ele>
        <time>2019-02-11T23:41:35Z</time>
      </trkpt>
      <trkpt lat="42.07227" lon="1.31366">
        <ele>471.3</ele>
        <time>2019-02-11T23:41:41Z</time>
      </trkpt>
      <trkpt lat="42.07236" lon="1.31363">
        <ele>471.3</ele>
        <time>2019-02-11T23:41:46Z</time>
      </trkpt>
      <trkpt lat="42.07245" lon="1.31361">
        <ele>469.8</ele>
        <time>2019-02-11T23:41:51Z</time>
      </trkpt>
      <trkpt lat="42.07253" lon="1.31358">
        <ele>469.9</ele>
        <time>2019-02-11T23:41:56Z</time>
      </trkpt>
      <trkpt lat="42.07263" lon="1.31353">
        <ele>470.3</ele>
        <time>2019-02-11T23:42:02Z</time>
      </trkpt>
      <trkpt lat="42.07272" lon="1.3135">
        <ele>469.9</ele>
        <time>2019-02-11T23:42:07Z</time>
      </trkpt>
      <trkpt lat="42.07281" lon="1.31347">
        <ele>467.9</ele>
        <time>2019-02-11T23:42:13Z</time>
      </trkpt>
      <trkpt lat="42.0729" lon="1.31345">
        <ele>468.3</ele>
        <time>2019-02-11T23:42:18Z</time>
      </trkpt>
      <trkpt lat="42.073" lon="1.31341">
        <ele>469.8</ele>
        <time>2019-02-11T23:42:24Z</time>
      </trkpt>
      <trkpt lat="42.07309" lon="1.31338">
        <ele>471.2</ele>
        <time>2019-02-11T23:42:29Z</time>
      </trkpt>
      <trkpt lat="42.07319" lon="1.31335">
        <ele>472.2</ele>
        <time>2019-02-11T23:42:35Z</time>
      </trkpt>
      <trkpt lat="42.07329" lon="1.31332">
        <ele>471.2</ele>
        <time>2019-02-11T23:42:41Z</time>
      </trkpt>
      <trkpt lat="42.07338" lon="1.31333">
        <ele>473.2</ele>
        <time>2019-02-11T23:42:46Z</time>
      </trkpt>
      <trkpt lat="42.07343" lon="1.31338">
        <ele>470.2</ele>
        <time>2019-02-11T23:42:50Z</time>
      </trkpt>
      <trkpt lat="42.07346" lon="1.31351">
        <ele>470.3</ele>
        <time>2019-02-11T23:42:56Z</time>
      </trkpt>
      <trkpt lat="42.07349" lon="1.31365">
        <ele>470.9</ele>
        <time>2019-02-11T23:43:02Z</time>
      </trkpt>
      <trkpt lat="42.07353" lon="1.31376">
        <ele>470.9</ele>
        <time>2019-02-11T23:43:07Z</time>
      </trkpt>
      <trkpt lat="42.0736" lon="1.31386">
        <ele>470.3</ele>
        <time>2019-02-11T23:43:13Z</time>
      </trkpt>
      <trkpt lat="42.0737" lon="1.31389">
        <ele>469.2</ele>
        <time>2019-02-11T23:43:19Z</time>
      </trkpt>
      <trkpt lat="42.0738" lon="1.31387">
        <ele>465.8</ele>
        <time>2019-02-11T23:43:24Z</time>
      </trkpt>
      <trkpt lat="42.07391" lon="1.31386">
        <ele>465.4</ele>
        <time>2019-02-11T23:43:31Z</time>
      </trkpt>
      <trkpt lat="42.07402" lon="1.31383">
        <ele>465.8</ele>
        <time>2019-02-11T23:43:37Z</time>
      </trkpt>
      <trkpt lat="42.07411" lon="1.31377">
        <ele>465.8</ele>
        <time>2019-02-11T23:43:43Z</time>
      </trkpt>
      <trkpt lat="42.07418" lon="1.31374">
        <ele>464.1</ele>
        <time>2019-02-11T23:43:47Z</time>
      </trkpt>
      <trkpt lat="42.07427" lon="1.31378">
        <ele>464.1</ele>
        <time>2019-02-11T23:43:52Z</time>
      </trkpt>
      <trkpt lat="42.07435" lon="1.31385">
        <ele>465.5</ele>
        <time>2019-02-11T23:43:58Z</time>
      </trkpt>
      <trkpt lat="42.07442" lon="1.31396">
        <ele>467.5</ele>
        <time>2019-02-11T23:44:04Z</time>
      </trkpt>
      <trkpt lat="42.07451" lon="1.31403">
        <ele>468.2</ele>
        <time>2019-02-11T23:44:10Z</time>
      </trkpt>
      <trkpt lat="42.07458" lon="1.31411">
        <ele>468.8</ele>
        <time>2019-02-11T23:44:15Z</time>
      </trkpt>
      <trkpt lat="42.07461" lon="1.31421">
        <ele>469.2</ele>
        <time>2019-02-11T23:44:20Z</time>
      </trkpt>
      <trkpt lat="42.07462" lon="1.31438">
        <ele>473.2</ele>
        <time>2019-02-11T23:44:27Z</time>
      </trkpt>
      <trkpt lat="42.07459" lon="1.31448">
        <ele>474</ele>
        <time>2019-02-11T23:44:32Z</time>
      </trkpt>
      <trkpt lat="42.07459" lon="1.3146">
        <ele>475.6</ele>
        <time>2019-02-11T23:44:37Z</time>
      </trkpt>
      <trkpt lat="42.07459" lon="1.31472">
        <ele>477.5</ele>
        <time>2019-02-11T23:44:42Z</time>
      </trkpt>
      <trkpt lat="42.07464" lon="1.31486">
        <ele>478.5</ele>
        <time>2019-02-11T23:44:48Z</time>
      </trkpt>
      <trkpt lat="42.07469" lon="1.31498">
        <ele>479.9</ele>
        <time>2019-02-11T23:44:55Z</time>
      </trkpt>
      <trkpt lat="42.07473" lon="1.3151">
        <ele>481.8</ele>
        <time>2019-02-11T23:45:00Z</time>
      </trkpt>
      <trkpt lat="42.07479" lon="1.3152">
        <ele>482.8</ele>
        <time>2019-02-11T23:45:06Z</time>
      </trkpt>
      <trkpt lat="42.07485" lon="1.31531">
        <ele>483.2</ele>
        <time>2019-02-11T23:45:11Z</time>
      </trkpt>
      <trkpt lat="42.07492" lon="1.31541">
        <ele>482.9</ele>
        <time>2019-02-11T23:45:17Z</time>
      </trkpt>
      <trkpt lat="42.07498" lon="1.31552">
        <ele>483.2</ele>
        <time>2019-02-11T23:45:23Z</time>
      </trkpt>
      <trkpt lat="42.07505" lon="1.31562">
        <ele>484.2</ele>
        <time>2019-02-11T23:45:29Z</time>
      </trkpt>
      <trkpt lat="42.07511" lon="1.31571">
        <ele>484.6</ele>
        <time>2019-02-11T23:45:34Z</time>
      </trkpt>
      <trkpt lat="42.07518" lon="1.31579">
        <ele>486</ele>
        <time>2019-02-11T23:45:39Z</time>
      </trkpt>
      <trkpt lat="42.07525" lon="1.31591">
        <ele>486</ele>
        <time>2019-02-11T23:45:46Z</time>
      </trkpt>
      <trkpt lat="42.07531" lon="1.31602">
        <ele>485.6</ele>
        <time>2019-02-11T23:45:52Z</time>
      </trkpt>
      <trkpt lat="42.07539" lon="1.31612">
        <ele>484.6</ele>
        <time>2019-02-11T23:45:58Z</time>
      </trkpt>
      <trkpt lat="42.07546" lon="1.31621">
        <ele>484.3</ele>
        <time>2019-02-11T23:46:03Z</time>
      </trkpt>
      <trkpt lat="42.07552" lon="1.31629">
        <ele>484.7</ele>
        <time>2019-02-11T23:46:08Z</time>
      </trkpt>
      <trkpt lat="42.0756" lon="1.31637">
        <ele>484.3</ele>
        <time>2019-02-11T23:46:14Z</time>
      </trkpt>
      <trkpt lat="42.07567" lon="1.31645">
        <ele>485.7</ele>
        <time>2019-02-11T23:46:19Z</time>
      </trkpt>
      <trkpt lat="42.07576" lon="1.31651">
        <ele>486.6</ele>
        <time>2019-02-11T23:46:25Z</time>
      </trkpt>
      <trkpt lat="42.07584" lon="1.31659">
        <ele>487.6</ele>
        <time>2019-02-11T23:46:30Z</time>
      </trkpt>
      <trkpt lat="42.07592" lon="1.3167">
        <ele>488</ele>
        <time>2019-02-11T23:46:37Z</time>
      </trkpt>
      <trkpt lat="42.07598" lon="1.31684">
        <ele>488.5</ele>
        <time>2019-02-11T23:46:44Z</time>
      </trkpt>
      <trkpt lat="42.07605" lon="1.31694">
        <ele>489</ele>
        <time>2019-02-11T23:46:49Z</time>
      </trkpt>
      <trkpt lat="42.0761" lon="1.31705">
        <ele>490.1</ele>
        <time>2019-02-11T23:46:55Z</time>
      </trkpt>
      <trkpt lat="42.07618" lon="1.31711">
        <ele>489.5</ele>
        <time>2019-02-11T23:47:00Z</time>
      </trkpt>
      <trkpt lat="42.07627" lon="1.31708">
        <ele>490.1</ele>
        <time>2019-02-11T23:47:06Z</time>
      </trkpt>
      <trkpt lat="42.07637" lon="1.31701">
        <ele>491.9</ele>
        <time>2019-02-11T23:47:12Z</time>
      </trkpt>
      <trkpt lat="42.07645" lon="1.31691">
        <ele>493.3</ele>
        <time>2019-02-11T23:47:18Z</time>
      </trkpt>
      <trkpt lat="42.07655" lon="1.31685">
        <ele>492.9</ele>
        <time>2019-02-11T23:47:24Z</time>
      </trkpt>
      <trkpt lat="42.07664" lon="1.31679">
        <ele>491.8</ele>
        <time>2019-02-11T23:47:30Z</time>
      </trkpt>
      <trkpt lat="42.07674" lon="1.31674">
        <ele>492.8</ele>
        <time>2019-02-11T23:47:36Z</time>
      </trkpt>
      <trkpt lat="42.07685" lon="1.31668">
        <ele>493.2</ele>
        <time>2019-02-11T23:47:43Z</time>
      </trkpt>
      <trkpt lat="42.07695" lon="1.31673">
        <ele>495.2</ele>
        <time>2019-02-11T23:47:49Z</time>
      </trkpt>
      <trkpt lat="42.07696" lon="1.31687">
        <ele>496.7</ele>
        <time>2019-02-11T23:47:55Z</time>
      </trkpt>
      <trkpt lat="42.07698" lon="1.31701">
        <ele>496.7</ele>
        <time>2019-02-11T23:48:01Z</time>
      </trkpt>
      <trkpt lat="42.07701" lon="1.31714">
        <ele>498.2</ele>
        <time>2019-02-11T23:48:07Z</time>
      </trkpt>
      <trkpt lat="42.07703" lon="1.31727">
        <ele>499.6</ele>
        <time>2019-02-11T23:48:12Z</time>
      </trkpt>
      <trkpt lat="42.07707" lon="1.31739">
        <ele>500.7</ele>
        <time>2019-02-11T23:48:18Z</time>
      </trkpt>
      <trkpt lat="42.0771" lon="1.31753">
        <ele>500.1</ele>
        <time>2019-02-11T23:48:24Z</time>
      </trkpt>
      <trkpt lat="42.07713" lon="1.31766">
        <ele>500</ele>
        <time>2019-02-11T23:48:30Z</time>
      </trkpt>
      <trkpt lat="42.07717" lon="1.31778">
        <ele>500.6</ele>
        <time>2019-02-11T23:48:36Z</time>
      </trkpt>
      <trkpt lat="42.0772" lon="1.31791">
        <ele>501.4</ele>
        <time>2019-02-11T23:48:42Z</time>
      </trkpt>
      <trkpt lat="42.07725" lon="1.31801">
        <ele>503</ele>
        <time>2019-02-11T23:48:47Z</time>
      </trkpt>
      <trkpt lat="42.07731" lon="1.31813">
        <ele>503.8</ele>
        <time>2019-02-11T23:48:53Z</time>
      </trkpt>
      <trkpt lat="42.07738" lon="1.31823">
        <ele>503.4</ele>
        <time>2019-02-11T23:48:59Z</time>
      </trkpt>
      <trkpt lat="42.07747" lon="1.31834">
        <ele>503</ele>
        <time>2019-02-11T23:49:05Z</time>
      </trkpt>
      <trkpt lat="42.07754" lon="1.31843">
        <ele>502</ele>
        <time>2019-02-11T23:49:11Z</time>
      </trkpt>
      <trkpt lat="42.07761" lon="1.31853">
        <ele>500.7</ele>
        <time>2019-02-11T23:49:17Z</time>
      </trkpt>
      <trkpt lat="42.07768" lon="1.31861">
        <ele>501.1</ele>
        <time>2019-02-11T23:49:22Z</time>
      </trkpt>
      <trkpt lat="42.07775" lon="1.3187">
        <ele>501.1</ele>
        <time>2019-02-11T23:49:27Z</time>
      </trkpt>
      <trkpt lat="42.07785" lon="1.31871">
        <ele>500.7</ele>
        <time>2019-02-11T23:49:33Z</time>
      </trkpt>
      <trkpt lat="42.07795" lon="1.31864">
        <ele>499.7</ele>
        <time>2019-02-11T23:49:39Z</time>
      </trkpt>
      <trkpt lat="42.07805" lon="1.31857">
        <ele>498.6</ele>
        <time>2019-02-11T23:49:46Z</time>
      </trkpt>
      <trkpt lat="42.07814" lon="1.31849">
        <ele>497.2</ele>
        <time>2019-02-11T23:49:52Z</time>
      </trkpt>
      <trkpt lat="42.07823" lon="1.31847">
        <ele>497.6</ele>
        <time>2019-02-11T23:49:57Z</time>
      </trkpt>
      <trkpt lat="42.07831" lon="1.31852">
        <ele>497.7</ele>
        <time>2019-02-11T23:50:02Z</time>
      </trkpt>
      <trkpt lat="42.07838" lon="1.31862">
        <ele>497.6</ele>
        <time>2019-02-11T23:50:08Z</time>
      </trkpt>
      <trkpt lat="42.07846" lon="1.31871">
        <ele>498.2</ele>
        <time>2019-02-11T23:50:14Z</time>
      </trkpt>
      <trkpt lat="42.07856" lon="1.31879">
        <ele>497.3</ele>
        <time>2019-02-11T23:50:21Z</time>
      </trkpt>
      <trkpt lat="42.07865" lon="1.31893">
        <ele>496.6</ele>
        <time>2019-02-11T23:50:28Z</time>
      </trkpt>
      <trkpt lat="42.07872" lon="1.31906">
        <ele>497.7</ele>
        <time>2019-02-11T23:50:35Z</time>
      </trkpt>
      <trkpt lat="42.07881" lon="1.31915">
        <ele>495.3</ele>
        <time>2019-02-11T23:50:42Z</time>
      </trkpt>
      <trkpt lat="42.07886" lon="1.31925">
        <ele>493.2</ele>
        <time>2019-02-11T23:50:47Z</time>
      </trkpt>
      <trkpt lat="42.07891" lon="1.31937">
        <ele>494.2</ele>
        <time>2019-02-11T23:50:53Z</time>
      </trkpt>
      <trkpt lat="42.07895" lon="1.31951">
        <ele>494.2</ele>
        <time>2019-02-11T23:50:59Z</time>
      </trkpt>
      <trkpt lat="42.07901" lon="1.31959">
        <ele>493.8</ele>
        <time>2019-02-11T23:51:04Z</time>
      </trkpt>
      <trkpt lat="42.0791" lon="1.31964">
        <ele>494.2</ele>
        <time>2019-02-11T23:51:10Z</time>
      </trkpt>
      <trkpt lat="42.07916" lon="1.31976">
        <ele>493.9</ele>
        <time>2019-02-11T23:51:16Z</time>
      </trkpt>
      <trkpt lat="42.07927" lon="1.31987">
        <ele>490.1</ele>
        <time>2019-02-11T23:51:24Z</time>
      </trkpt>
      <trkpt lat="42.07936" lon="1.31999">
        <ele>490.5</ele>
        <time>2019-02-11T23:51:31Z</time>
      </trkpt>
      <trkpt lat="42.07941" lon="1.32009">
        <ele>490.4</ele>
        <time>2019-02-11T23:51:36Z</time>
      </trkpt>
      <trkpt lat="42.07948" lon="1.32019">
        <ele>490.1</ele>
        <time>2019-02-11T23:51:42Z</time>
      </trkpt>
      <trkpt lat="42.07955" lon="1.3203">
        <ele>489.5</ele>
        <time>2019-02-11T23:51:48Z</time>
      </trkpt>
      <trkpt lat="42.07963" lon="1.32035">
        <ele>490.8</ele>
        <time>2019-02-11T23:51:53Z</time>
      </trkpt>
      <trkpt lat="42.07967" lon="1.32049">
        <ele>491.8</ele>
        <time>2019-02-11T23:52:00Z</time>
      </trkpt>
      <trkpt lat="42.07973" lon="1.32063">
        <ele>493.8</ele>
        <time>2019-02-11T23:52:06Z</time>
      </trkpt>
      <trkpt lat="42.07977" lon="1.32076">
        <ele>495.7</ele>
        <time>2019-02-11T23:52:12Z</time>
      </trkpt>
      <trkpt lat="42.07982" lon="1.32091">
        <ele>498.2</ele>
        <time>2019-02-11T23:52:19Z</time>
      </trkpt>
      <trkpt lat="42.07987" lon="1.32108">
        <ele>501.1</ele>
        <time>2019-02-11T23:52:27Z</time>
      </trkpt>
      <trkpt lat="42.07992" lon="1.32121">
        <ele>503.5</ele>
        <time>2019-02-11T23:52:33Z</time>
      </trkpt>
      <trkpt lat="42.07997" lon="1.32139">
        <ele>505.9</ele>
        <time>2019-02-11T23:52:41Z</time>
      </trkpt>
      <trkpt lat="42.08003" lon="1.32151">
        <ele>508.2</ele>
        <time>2019-02-11T23:52:48Z</time>
      </trkpt>
      <trkpt lat="42.08006" lon="1.32163">
        <ele>509.6</ele>
        <time>2019-02-11T23:52:53Z</time>
      </trkpt>
      <trkpt lat="42.08007" lon="1.32177">
        <ele>511.7</ele>
        <time>2019-02-11T23:52:59Z</time>
      </trkpt>
      <trkpt lat="42.08008" lon="1.3219">
        <ele>513</ele>
        <time>2019-02-11T23:53:04Z</time>
      </trkpt>
      <trkpt lat="42.08009" lon="1.32206">
        <ele>513.4</ele>
        <time>2019-02-11T23:53:11Z</time>
      </trkpt>
      <trkpt lat="42.08011" lon="1.32217">
        <ele>515</ele>
        <time>2019-02-11T23:53:16Z</time>
      </trkpt>
      <trkpt lat="42.08014" lon="1.32228">
        <ele>515.9</ele>
        <time>2019-02-11T23:53:21Z</time>
      </trkpt>
      <trkpt lat="42.08017" lon="1.32241">
        <ele>517.9</ele>
        <time>2019-02-11T23:53:27Z</time>
      </trkpt>
      <trkpt lat="42.08023" lon="1.32254">
        <ele>519.8</ele>
        <time>2019-02-11T23:53:33Z</time>
      </trkpt>
      <trkpt lat="42.08026" lon="1.32267">
        <ele>520.7</ele>
        <time>2019-02-11T23:53:39Z</time>
      </trkpt>
      <trkpt lat="42.08033" lon="1.32277">
        <ele>522.7</ele>
        <time>2019-02-11T23:53:45Z</time>
      </trkpt>
      <trkpt lat="42.08039" lon="1.32288">
        <ele>522.3</ele>
        <time>2019-02-11T23:53:50Z</time>
      </trkpt>
      <trkpt lat="42.08044" lon="1.32299">
        <ele>522.6</ele>
        <time>2019-02-11T23:53:56Z</time>
      </trkpt>
      <trkpt lat="42.08051" lon="1.32306">
        <ele>523.7</ele>
        <time>2019-02-11T23:54:01Z</time>
      </trkpt>
      <trkpt lat="42.08059" lon="1.32311">
        <ele>525.5</ele>
        <time>2019-02-11T23:54:06Z</time>
      </trkpt>
      <trkpt lat="42.08068" lon="1.32318">
        <ele>526</ele>
        <time>2019-02-11T23:54:12Z</time>
      </trkpt>
      <trkpt lat="42.08073" lon="1.32329">
        <ele>526.4</ele>
        <time>2019-02-11T23:54:17Z</time>
      </trkpt>
      <trkpt lat="42.08078" lon="1.32339">
        <ele>528.9</ele>
        <time>2019-02-11T23:54:23Z</time>
      </trkpt>
      <trkpt lat="42.08081" lon="1.32352">
        <ele>531.2</ele>
        <time>2019-02-11T23:54:28Z</time>
      </trkpt>
      <trkpt lat="42.08083" lon="1.32363">
        <ele>533.7</ele>
        <time>2019-02-11T23:54:33Z</time>
      </trkpt>
      <trkpt lat="42.08084" lon="1.32375">
        <ele>536.1</ele>
        <time>2019-02-11T23:54:38Z</time>
      </trkpt>
      <trkpt lat="42.08087" lon="1.32388">
        <ele>539.1</ele>
        <time>2019-02-11T23:54:44Z</time>
      </trkpt>
      <trkpt lat="42.0809" lon="1.32399">
        <ele>541.5</ele>
        <time>2019-02-11T23:54:49Z</time>
      </trkpt>
      <trkpt lat="42.0809" lon="1.32413">
        <ele>543.3</ele>
        <time>2019-02-11T23:54:55Z</time>
      </trkpt>
      <trkpt lat="42.08092" lon="1.32426">
        <ele>545.3</ele>
        <time>2019-02-11T23:55:01Z</time>
      </trkpt>
      <trkpt lat="42.08094" lon="1.32442">
        <ele>547.2</ele>
        <time>2019-02-11T23:55:07Z</time>
      </trkpt>
      <trkpt lat="42.08093" lon="1.32454">
        <ele>548.6</ele>
        <time>2019-02-11T23:55:12Z</time>
      </trkpt>
      <trkpt lat="42.08094" lon="1.32466">
        <ele>551</ele>
        <time>2019-02-11T23:55:18Z</time>
      </trkpt>
      <trkpt lat="42.08097" lon="1.32479">
        <ele>553.5</ele>
        <time>2019-02-11T23:55:23Z</time>
      </trkpt>
      <trkpt lat="42.081" lon="1.32493">
        <ele>555.2</ele>
        <time>2019-02-11T23:55:30Z</time>
      </trkpt>
      <trkpt lat="42.08102" lon="1.32507">
        <ele>557.3</ele>
        <time>2019-02-11T23:55:36Z</time>
      </trkpt>
      <trkpt lat="42.081" lon="1.32522">
        <ele>558.3</ele>
        <time>2019-02-11T23:55:42Z</time>
      </trkpt>
      <trkpt lat="42.08099" lon="1.32539">
        <ele>560.6</ele>
        <time>2019-02-11T23:55:49Z</time>
      </trkpt>
      <trkpt lat="42.08104" lon="1.32553">
        <ele>563</ele>
        <time>2019-02-11T23:55:56Z</time>
      </trkpt>
      <trkpt lat="42.0811" lon="1.32566">
        <ele>563</ele>
        <time>2019-02-11T23:56:03Z</time>
      </trkpt>
      <trkpt lat="42.08114" lon="1.3258">
        <ele>563.4</ele>
        <time>2019-02-11T23:56:09Z</time>
      </trkpt>
      <trkpt lat="42.08117" lon="1.32595">
        <ele>564.5</ele>
        <time>2019-02-11T23:56:15Z</time>
      </trkpt>
      <trkpt lat="42.08121" lon="1.32607">
        <ele>562.6</ele>
        <time>2019-02-11T23:56:21Z</time>
      </trkpt>
      <trkpt lat="42.08124" lon="1.32621">
        <ele>561</ele>
        <time>2019-02-11T23:56:27Z</time>
      </trkpt>
      <trkpt lat="42.08129" lon="1.32633">
        <ele>561</ele>
        <time>2019-02-11T23:56:33Z</time>
      </trkpt>
      <trkpt lat="42.08134" lon="1.32645">
        <ele>561.6</ele>
        <time>2019-02-11T23:56:39Z</time>
      </trkpt>
      <trkpt lat="42.08138" lon="1.32658">
        <ele>561.1</ele>
        <time>2019-02-11T23:56:45Z</time>
      </trkpt>
      <trkpt lat="42.08141" lon="1.32671">
        <ele>561.6</ele>
        <time>2019-02-11T23:56:50Z</time>
      </trkpt>
      <trkpt lat="42.08142" lon="1.32683">
        <ele>561.7</ele>
        <time>2019-02-11T23:56:56Z</time>
      </trkpt>
      <trkpt lat="42.08143" lon="1.32697">
        <ele>562.6</ele>
        <time>2019-02-11T23:57:02Z</time>
      </trkpt>
      <trkpt lat="42.08144" lon="1.32709">
        <ele>564.1</ele>
        <time>2019-02-11T23:57:07Z</time>
      </trkpt>
      <trkpt lat="42.08145" lon="1.32722">
        <ele>563.4</ele>
        <time>2019-02-11T23:57:13Z</time>
      </trkpt>
      <trkpt lat="42.08145" lon="1.32736">
        <ele>566.4</ele>
        <time>2019-02-11T23:57:18Z</time>
      </trkpt>
      <trkpt lat="42.08147" lon="1.3275">
        <ele>567.4</ele>
        <time>2019-02-11T23:57:24Z</time>
      </trkpt>
      <trkpt lat="42.08151" lon="1.32763">
        <ele>570.6</ele>
        <time>2019-02-11T23:57:30Z</time>
      </trkpt>
      <trkpt lat="42.08153" lon="1.3278">
        <ele>572.7</ele>
        <time>2019-02-11T23:57:38Z</time>
      </trkpt>
      <trkpt lat="42.08157" lon="1.32794">
        <ele>575</ele>
        <time>2019-02-11T23:57:44Z</time>
      </trkpt>
      <trkpt lat="42.08157" lon="1.32809">
        <ele>577.5</ele>
        <time>2019-02-11T23:57:50Z</time>
      </trkpt>
      <trkpt lat="42.0816" lon="1.32822">
        <ele>578.5</ele>
        <time>2019-02-11T23:57:56Z</time>
      </trkpt>
      <trkpt lat="42.08162" lon="1.32833">
        <ele>579.5</ele>
        <time>2019-02-11T23:58:01Z</time>
      </trkpt>
      <trkpt lat="42.08164" lon="1.3285">
        <ele>580.9</ele>
        <time>2019-02-11T23:58:08Z</time>
      </trkpt>
      <trkpt lat="42.08166" lon="1.32865">
        <ele>580.9</ele>
        <time>2019-02-11T23:58:15Z</time>
      </trkpt>
      <trkpt lat="42.0817" lon="1.32877">
        <ele>581.3</ele>
        <time>2019-02-11T23:58:20Z</time>
      </trkpt>
      <trkpt lat="42.08173" lon="1.3289">
        <ele>582.7</ele>
        <time>2019-02-11T23:58:26Z</time>
      </trkpt>
      <trkpt lat="42.08175" lon="1.32903">
        <ele>583.2</ele>
        <time>2019-02-11T23:58:31Z</time>
      </trkpt>
      <trkpt lat="42.08178" lon="1.32917">
        <ele>583.6</ele>
        <time>2019-02-11T23:58:38Z</time>
      </trkpt>
      <trkpt lat="42.08178" lon="1.3293">
        <ele>583.6</ele>
        <time>2019-02-11T23:58:43Z</time>
      </trkpt>
      <trkpt lat="42.08181" lon="1.32943">
        <ele>584.2</ele>
        <time>2019-02-11T23:58:49Z</time>
      </trkpt>
      <trkpt lat="42.08184" lon="1.32959">
        <ele>585.1</ele>
        <time>2019-02-11T23:58:56Z</time>
      </trkpt>
      <trkpt lat="42.08185" lon="1.32972">
        <ele>585.6</ele>
        <time>2019-02-11T23:59:02Z</time>
      </trkpt>
      <trkpt lat="42.08185" lon="1.32984">
        <ele>584.6</ele>
        <time>2019-02-11T23:59:07Z</time>
      </trkpt>
      <trkpt lat="42.08186" lon="1.32995">
        <ele>585.1</ele>
        <time>2019-02-11T23:59:12Z</time>
      </trkpt>
      <trkpt lat="42.08185" lon="1.33006">
        <ele>583.7</ele>
        <time>2019-02-11T23:59:16Z</time>
      </trkpt>
      <trkpt lat="42.08186" lon="1.33019">
        <ele>583.2</ele>
        <time>2019-02-11T23:59:21Z</time>
      </trkpt>
      <trkpt lat="42.08187" lon="1.33032">
        <ele>583.3</ele>
        <time>2019-02-11T23:59:27Z</time>
      </trkpt>
      <trkpt lat="42.08187" lon="1.33045">
        <ele>583.2</ele>
        <time>2019-02-11T23:59:33Z</time>
      </trkpt>
      <trkpt lat="42.08187" lon="1.33059">
        <ele>584.2</ele>
        <time>2019-02-11T23:59:38Z</time>
      </trkpt>
      <trkpt lat="42.08187" lon="1.33071">
        <ele>585.1</ele>
        <time>2019-02-11T23:59:44Z</time>
      </trkpt>
      <trkpt lat="42.08186" lon="1.33084">
        <ele>585.7</ele>
        <time>2019-02-11T23:59:49Z</time>
      </trkpt>
      <trkpt lat="42.08186" lon="1.33096">
        <ele>585</ele>
        <time>2019-02-11T23:59:55Z</time>
      </trkpt>
      <trkpt lat="42.08186" lon="1.33109">
        <ele>584.2</ele>
        <time>2019-02-12T00:00:00Z</time>
      </trkpt>
      <trkpt lat="42.08187" lon="1.33122">
        <ele>582.7</ele>
        <time>2019-02-12T00:00:06Z</time>
      </trkpt>
      <trkpt lat="42.0819" lon="1.33135">
        <ele>583.6</ele>
        <time>2019-02-12T00:00:11Z</time>
      </trkpt>
      <trkpt lat="42.08192" lon="1.33147">
        <ele>584.3</ele>
        <time>2019-02-12T00:00:16Z</time>
      </trkpt>
      <trkpt lat="42.08194" lon="1.33158">
        <ele>585.1</ele>
        <time>2019-02-12T00:00:21Z</time>
      </trkpt>
      <trkpt lat="42.08196" lon="1.33171">
        <ele>587.1</ele>
        <time>2019-02-12T00:00:27Z</time>
      </trkpt>
      <trkpt lat="42.08197" lon="1.33182">
        <ele>586.6</ele>
        <time>2019-02-12T00:00:32Z</time>
      </trkpt>
      <trkpt lat="42.08199" lon="1.33195">
        <ele>587</ele>
        <time>2019-02-12T00:00:37Z</time>
      </trkpt>
      <trkpt lat="42.08199" lon="1.3321">
        <ele>587.7</ele>
        <time>2019-02-12T00:00:43Z</time>
      </trkpt>
      <trkpt lat="42.082" lon="1.33222">
        <ele>588</ele>
        <time>2019-02-12T00:00:49Z</time>
      </trkpt>
      <trkpt lat="42.08201" lon="1.33236">
        <ele>588.4</ele>
        <time>2019-02-12T00:00:55Z</time>
      </trkpt>
      <trkpt lat="42.08201" lon="1.33249">
        <ele>588.5</ele>
        <time>2019-02-12T00:01:00Z</time>
      </trkpt>
      <trkpt lat="42.08203" lon="1.33261">
        <ele>590.4</ele>
        <time>2019-02-12T00:01:05Z</time>
      </trkpt>
      <trkpt lat="42.08205" lon="1.33271">
        <ele>591.4</ele>
        <time>2019-02-12T00:01:10Z</time>
      </trkpt>
      <trkpt lat="42.08208" lon="1.33284">
        <ele>592.8</ele>
        <time>2019-02-12T00:01:16Z</time>
      </trkpt>
      <trkpt lat="42.0821" lon="1.33297">
        <ele>594.3</ele>
        <time>2019-02-12T00:01:21Z</time>
      </trkpt>
      <trkpt lat="42.08211" lon="1.33311">
        <ele>595.3</ele>
        <time>2019-02-12T00:01:27Z</time>
      </trkpt>
      <trkpt lat="42.08213" lon="1.33324">
        <ele>596.2</ele>
        <time>2019-02-12T00:01:33Z</time>
      </trkpt>
      <trkpt lat="42.08216" lon="1.33338">
        <ele>598.6</ele>
        <time>2019-02-12T00:01:39Z</time>
      </trkpt>
      <trkpt lat="42.08216" lon="1.33351">
        <ele>599</ele>
        <time>2019-02-12T00:01:44Z</time>
      </trkpt>
      <trkpt lat="42.08217" lon="1.33363">
        <ele>599.7</ele>
        <time>2019-02-12T00:01:49Z</time>
      </trkpt>
      <trkpt lat="42.08217" lon="1.33375">
        <ele>599</ele>
        <time>2019-02-12T00:01:55Z</time>
      </trkpt>
      <trkpt lat="42.08219" lon="1.33389">
        <ele>598.7</ele>
        <time>2019-02-12T00:02:01Z</time>
      </trkpt>
      <trkpt lat="42.0822" lon="1.33401">
        <ele>600</ele>
        <time>2019-02-12T00:02:06Z</time>
      </trkpt>
      <trkpt lat="42.08224" lon="1.33416">
        <ele>600.1</ele>
        <time>2019-02-12T00:02:12Z</time>
      </trkpt>
      <trkpt lat="42.08227" lon="1.33426">
        <ele>599</ele>
        <time>2019-02-12T00:02:17Z</time>
      </trkpt>
      <trkpt lat="42.0823" lon="1.33439">
        <ele>600</ele>
        <time>2019-02-12T00:02:23Z</time>
      </trkpt>
      <trkpt lat="42.08234" lon="1.3345">
        <ele>601</ele>
        <time>2019-02-12T00:02:28Z</time>
      </trkpt>
      <trkpt lat="42.08238" lon="1.3346">
        <ele>602.8</ele>
        <time>2019-02-12T00:02:33Z</time>
      </trkpt>
      <trkpt lat="42.08242" lon="1.3347">
        <ele>604.4</ele>
        <time>2019-02-12T00:02:38Z</time>
      </trkpt>
      <trkpt lat="42.08248" lon="1.33483">
        <ele>604.9</ele>
        <time>2019-02-12T00:02:44Z</time>
      </trkpt>
      <trkpt lat="42.08252" lon="1.33495">
        <ele>605.9</ele>
        <time>2019-02-12T00:02:50Z</time>
      </trkpt>
      <trkpt lat="42.08257" lon="1.33507">
        <ele>604.9</ele>
        <time>2019-02-12T00:02:56Z</time>
      </trkpt>
      <trkpt lat="42.08262" lon="1.3352">
        <ele>604.9</ele>
        <time>2019-02-12T00:03:02Z</time>
      </trkpt>
      <trkpt lat="42.08268" lon="1.33532">
        <ele>606.3</ele>
        <time>2019-02-12T00:03:08Z</time>
      </trkpt>
      <trkpt lat="42.08272" lon="1.33542">
        <ele>605.8</ele>
        <time>2019-02-12T00:03:13Z</time>
      </trkpt>
      <trkpt lat="42.08275" lon="1.33553">
        <ele>605.8</ele>
        <time>2019-02-12T00:03:18Z</time>
      </trkpt>
      <trkpt lat="42.08281" lon="1.33564">
        <ele>605.8</ele>
        <time>2019-02-12T00:03:24Z</time>
      </trkpt>
      <trkpt lat="42.08283" lon="1.33577">
        <ele>605.3</ele>
        <time>2019-02-12T00:03:29Z</time>
      </trkpt>
      <trkpt lat="42.08286" lon="1.3359">
        <ele>605.2</ele>
        <time>2019-02-12T00:03:35Z</time>
      </trkpt>
      <trkpt lat="42.08288" lon="1.33602">
        <ele>606.2</ele>
        <time>2019-02-12T00:03:40Z</time>
      </trkpt>
      <trkpt lat="42.0829" lon="1.33615">
        <ele>606.8</ele>
        <time>2019-02-12T00:03:46Z</time>
      </trkpt>
      <trkpt lat="42.08293" lon="1.33627">
        <ele>606.9</ele>
        <time>2019-02-12T00:03:51Z</time>
      </trkpt>
      <trkpt lat="42.08297" lon="1.33638">
        <ele>607.7</ele>
        <time>2019-02-12T00:03:57Z</time>
      </trkpt>
      <trkpt lat="42.08301" lon="1.3365">
        <ele>609.6</ele>
        <time>2019-02-12T00:04:02Z</time>
      </trkpt>
      <trkpt lat="42.08306" lon="1.33662">
        <ele>611.1</ele>
        <time>2019-02-12T00:04:08Z</time>
      </trkpt>
      <trkpt lat="42.08311" lon="1.33674">
        <ele>612.5</ele>
        <time>2019-02-12T00:04:14Z</time>
      </trkpt>
      <trkpt lat="42.08318" lon="1.33684">
        <ele>613</ele>
        <time>2019-02-12T00:04:20Z</time>
      </trkpt>
      <trkpt lat="42.08325" lon="1.33695">
        <ele>614.4</ele>
        <time>2019-02-12T00:04:26Z</time>
      </trkpt>
      <trkpt lat="42.08331" lon="1.33707">
        <ele>616.4</ele>
        <time>2019-02-12T00:04:32Z</time>
      </trkpt>
      <trkpt lat="42.08336" lon="1.33714">
        <ele>616.4</ele>
        <time>2019-02-12T00:04:36Z</time>
      </trkpt>
      <trkpt lat="42.08341" lon="1.33724">
        <ele>616.8</ele>
        <time>2019-02-12T00:04:41Z</time>
      </trkpt>
      <trkpt lat="42.08347" lon="1.33735">
        <ele>615.4</ele>
        <time>2019-02-12T00:04:47Z</time>
      </trkpt>
      <trkpt lat="42.08352" lon="1.33746">
        <ele>615</ele>
        <time>2019-02-12T00:04:52Z</time>
      </trkpt>
      <trkpt lat="42.08357" lon="1.33754">
        <ele>615.4</ele>
        <time>2019-02-12T00:04:57Z</time>
      </trkpt>
      <trkpt lat="42.08362" lon="1.33766">
        <ele>615.4</ele>
        <time>2019-02-12T00:05:03Z</time>
      </trkpt>
      <trkpt lat="42.08365" lon="1.33781">
        <ele>615.4</ele>
        <time>2019-02-12T00:05:09Z</time>
      </trkpt>
      <trkpt lat="42.08365" lon="1.33794">
        <ele>615.4</ele>
        <time>2019-02-12T00:05:15Z</time>
      </trkpt>
      <trkpt lat="42.08364" lon="1.33806">
        <ele>615.8</ele>
        <time>2019-02-12T00:05:20Z</time>
      </trkpt>
      <trkpt lat="42.08361" lon="1.33817">
        <ele>615.8</ele>
        <time>2019-02-12T00:05:25Z</time>
      </trkpt>
      <trkpt lat="42.08356" lon="1.33827">
        <ele>616.4</ele>
        <time>2019-02-12T00:05:30Z</time>
      </trkpt>
      <trkpt lat="42.08354" lon="1.33839">
        <ele>616.4</ele>
        <time>2019-02-12T00:05:35Z</time>
      </trkpt>
      <trkpt lat="42.08353" lon="1.33851">
        <ele>617.4</ele>
        <time>2019-02-12T00:05:40Z</time>
      </trkpt>
      <trkpt lat="42.08351" lon="1.33867">
        <ele>617.5</ele>
        <time>2019-02-12T00:05:47Z</time>
      </trkpt>
      <trkpt lat="42.08353" lon="1.33878">
        <ele>616.4</ele>
        <time>2019-02-12T00:05:52Z</time>
      </trkpt>
      <trkpt lat="42.08353" lon="1.33893">
        <ele>617.5</ele>
        <time>2019-02-12T00:05:58Z</time>
      </trkpt>
      <trkpt lat="42.08354" lon="1.33905">
        <ele>618.2</ele>
        <time>2019-02-12T00:06:03Z</time>
      </trkpt>
      <trkpt lat="42.08356" lon="1.33921">
        <ele>619.8</ele>
        <time>2019-02-12T00:06:10Z</time>
      </trkpt>
      <trkpt lat="42.08359" lon="1.33934">
        <ele>620.7</ele>
        <time>2019-02-12T00:06:16Z</time>
      </trkpt>
      <trkpt lat="42.08363" lon="1.33946">
        <ele>621.3</ele>
        <time>2019-02-12T00:06:22Z</time>
      </trkpt>
      <trkpt lat="42.08365" lon="1.33958">
        <ele>620.6</ele>
        <time>2019-02-12T00:06:27Z</time>
      </trkpt>
      <trkpt lat="42.08368" lon="1.33971">
        <ele>620.3</ele>
        <time>2019-02-12T00:06:33Z</time>
      </trkpt>
      <trkpt lat="42.0837" lon="1.33984">
        <ele>621.2</ele>
        <time>2019-02-12T00:06:38Z</time>
      </trkpt>
      <trkpt lat="42.08371" lon="1.33997">
        <ele>622.6</ele>
        <time>2019-02-12T00:06:44Z</time>
      </trkpt>
      <trkpt lat="42.08372" lon="1.34012">
        <ele>625</ele>
        <time>2019-02-12T00:06:50Z</time>
      </trkpt>
      <trkpt lat="42.08374" lon="1.34023">
        <ele>626.5</ele>
        <time>2019-02-12T00:06:55Z</time>
      </trkpt>
      <trkpt lat="42.08375" lon="1.34036">
        <ele>627.1</ele>
        <time>2019-02-12T00:07:00Z</time>
      </trkpt>
      <trkpt lat="42.08377" lon="1.34047">
        <ele>627.5</ele>
        <time>2019-02-12T00:07:05Z</time>
      </trkpt>
      <trkpt lat="42.0838" lon="1.34061">
        <ele>629.9</ele>
        <time>2019-02-12T00:07:12Z</time>
      </trkpt>
      <trkpt lat="42.08382" lon="1.34076">
        <ele>630.3</ele>
        <time>2019-02-12T00:07:18Z</time>
      </trkpt>
      <trkpt lat="42.08386" lon="1.34087">
        <ele>630.8</ele>
        <time>2019-02-12T00:07:23Z</time>
      </trkpt>
      <trkpt lat="42.08388" lon="1.341">
        <ele>632.7</ele>
        <time>2019-02-12T00:07:29Z</time>
      </trkpt>
      <trkpt lat="42.08392" lon="1.34113">
        <ele>634.2</ele>
        <time>2019-02-12T00:07:35Z</time>
      </trkpt>
      <trkpt lat="42.08394" lon="1.34126">
        <ele>638</ele>
        <time>2019-02-12T00:07:40Z</time>
      </trkpt>
      <trkpt lat="42.08397" lon="1.34137">
        <ele>638.4</ele>
        <time>2019-02-12T00:07:45Z</time>
      </trkpt>
      <trkpt lat="42.08399" lon="1.3415">
        <ele>639.4</ele>
        <time>2019-02-12T00:07:51Z</time>
      </trkpt>
      <trkpt lat="42.08402" lon="1.34161">
        <ele>639.9</ele>
        <time>2019-02-12T00:07:56Z</time>
      </trkpt>
      <trkpt lat="42.08406" lon="1.34174">
        <ele>639.8</ele>
        <time>2019-02-12T00:08:02Z</time>
      </trkpt>
      <trkpt lat="42.08409" lon="1.34189">
        <ele>639</ele>
        <time>2019-02-12T00:08:08Z</time>
      </trkpt>
      <trkpt lat="42.08413" lon="1.34202">
        <ele>638.5</ele>
        <time>2019-02-12T00:08:14Z</time>
      </trkpt>
      <trkpt lat="42.08416" lon="1.34212">
        <ele>638</ele>
        <time>2019-02-12T00:08:19Z</time>
      </trkpt>
      <trkpt lat="42.0842" lon="1.34224">
        <ele>638.4</ele>
        <time>2019-02-12T00:08:25Z</time>
      </trkpt>
      <trkpt lat="42.08424" lon="1.34236">
        <ele>639.1</ele>
        <time>2019-02-12T00:08:30Z</time>
      </trkpt>
      <trkpt lat="42.0843" lon="1.34247">
        <ele>640.8</ele>
        <time>2019-02-12T00:08:36Z</time>
      </trkpt>
      <trkpt lat="42.08434" lon="1.34258">
        <ele>640.4</ele>
        <time>2019-02-12T00:08:41Z</time>
      </trkpt>
      <trkpt lat="42.0844" lon="1.34269">
        <ele>640.8</ele>
        <time>2019-02-12T00:08:47Z</time>
      </trkpt>
      <trkpt lat="42.08446" lon="1.3428">
        <ele>640.9</ele>
        <time>2019-02-12T00:08:52Z</time>
      </trkpt>
      <trkpt lat="42.08453" lon="1.34289">
        <ele>640.5</ele>
        <time>2019-02-12T00:08:58Z</time>
      </trkpt>
      <trkpt lat="42.08458" lon="1.34297">
        <ele>639.9</ele>
        <time>2019-02-12T00:09:03Z</time>
      </trkpt>
      <trkpt lat="42.08465" lon="1.34306">
        <ele>639.1</ele>
        <time>2019-02-12T00:09:09Z</time>
      </trkpt>
      <trkpt lat="42.08473" lon="1.34317">
        <ele>637.4</ele>
        <time>2019-02-12T00:09:15Z</time>
      </trkpt>
      <trkpt lat="42.08477" lon="1.34328">
        <ele>636.6</ele>
        <time>2019-02-12T00:09:20Z</time>
      </trkpt>
      <trkpt lat="42.08476" lon="1.34341">
        <ele>635.7</ele>
        <time>2019-02-12T00:09:26Z</time>
      </trkpt>
      <trkpt lat="42.08471" lon="1.34354">
        <ele>635.1</ele>
        <time>2019-02-12T00:09:32Z</time>
      </trkpt>
      <trkpt lat="42.08463" lon="1.34364">
        <ele>636.6</ele>
        <time>2019-02-12T00:09:38Z</time>
      </trkpt>
      <trkpt lat="42.08454" lon="1.34367">
        <ele>638</ele>
        <time>2019-02-12T00:09:43Z</time>
      </trkpt>
      <trkpt lat="42.08446" lon="1.34374">
        <ele>639</ele>
        <time>2019-02-12T00:09:49Z</time>
      </trkpt>
      <trkpt lat="42.08441" lon="1.34386">
        <ele>640.8</ele>
        <time>2019-02-12T00:09:55Z</time>
      </trkpt>
      <trkpt lat="42.08438" lon="1.34399">
        <ele>643.9</ele>
        <time>2019-02-12T00:10:00Z</time>
      </trkpt>
      <trkpt lat="42.08433" lon="1.34412">
        <ele>644.8</ele>
        <time>2019-02-12T00:10:07Z</time>
      </trkpt>
      <trkpt lat="42.08427" lon="1.34423">
        <ele>648.1</ele>
        <time>2019-02-12T00:10:12Z</time>
      </trkpt>
      <trkpt lat="42.0842" lon="1.34431">
        <ele>650.5</ele>
        <time>2019-02-12T00:10:18Z</time>
      </trkpt>
      <trkpt lat="42.08412" lon="1.34438">
        <ele>653.4</ele>
        <time>2019-02-12T00:10:23Z</time>
      </trkpt>
      <trkpt lat="42.084" lon="1.34443">
        <ele>657.3</ele>
        <time>2019-02-12T00:10:30Z</time>
      </trkpt>
      <trkpt lat="42.08392" lon="1.34449">
        <ele>662</ele>
        <time>2019-02-12T00:10:36Z</time>
      </trkpt>
      <trkpt lat="42.0838" lon="1.34449">
        <ele>664</ele>
        <time>2019-02-12T00:10:43Z</time>
      </trkpt>
      <trkpt lat="42.08371" lon="1.34453">
        <ele>666.8</ele>
        <time>2019-02-12T00:10:48Z</time>
      </trkpt>
      <trkpt lat="42.08359" lon="1.34456">
        <ele>670.2</ele>
        <time>2019-02-12T00:10:55Z</time>
      </trkpt>
      <trkpt lat="42.08353" lon="1.34464">
        <ele>671.3</ele>
        <time>2019-02-12T00:11:00Z</time>
      </trkpt>
      <trkpt lat="42.08354" lon="1.34475">
        <ele>671.2</ele>
        <time>2019-02-12T00:11:05Z</time>
      </trkpt>
      <trkpt lat="42.08357" lon="1.34487">
        <ele>671.7</ele>
        <time>2019-02-12T00:11:10Z</time>
      </trkpt>
      <trkpt lat="42.08361" lon="1.34499">
        <ele>669.7</ele>
        <time>2019-02-12T00:11:16Z</time>
      </trkpt>
      <trkpt lat="42.08363" lon="1.34513">
        <ele>669.2</ele>
        <time>2019-02-12T00:11:21Z</time>
      </trkpt>
      <trkpt lat="42.08369" lon="1.34502">
        <ele>670.7</ele>
        <time>2019-02-12T00:11:27Z</time>
      </trkpt>
      <trkpt lat="42.08377" lon="1.34491">
        <ele>674</ele>
        <time>2019-02-12T00:11:34Z</time>
      </trkpt>
      <trkpt lat="42.08384" lon="1.34486">
        <ele>676.4</ele>
        <time>2019-02-12T00:11:39Z</time>
      </trkpt>
      <trkpt lat="42.08392" lon="1.34492">
        <ele>678.8</ele>
        <time>2019-02-12T00:11:44Z</time>
      </trkpt>
      <trkpt lat="42.08404" lon="1.34501">
        <ele>682.2</ele>
        <time>2019-02-12T00:11:51Z</time>
      </trkpt>
      <trkpt lat="42.08411" lon="1.34512">
        <ele>682.6</ele>
        <time>2019-02-12T00:11:58Z</time>
      </trkpt>
      <trkpt lat="42.08421" lon="1.34519">
        <ele>685.1</ele>
        <time>2019-02-12T00:12:04Z</time>
      </trkpt>
      <trkpt lat="42.08426" lon="1.3453">
        <ele>688.1</ele>
        <time>2019-02-12T00:12:09Z</time>
      </trkpt>
      <trkpt lat="42.08433" lon="1.34537">
        <ele>690.4</ele>
        <time>2019-02-12T00:12:15Z</time>
      </trkpt>
      <trkpt lat="42.08442" lon="1.34545">
        <ele>693.2</ele>
        <time>2019-02-12T00:12:21Z</time>
      </trkpt>
      <trkpt lat="42.0845" lon="1.34549">
        <ele>696.3</ele>
        <time>2019-02-12T00:12:26Z</time>
      </trkpt>
      <trkpt lat="42.08459" lon="1.34549">
        <ele>698.1</ele>
        <time>2019-02-12T00:12:31Z</time>
      </trkpt>
      <trkpt lat="42.0847" lon="1.34554">
        <ele>698.7</ele>
        <time>2019-02-12T00:12:37Z</time>
      </trkpt>
      <trkpt lat="42.08477" lon="1.34563">
        <ele>701</ele>
        <time>2019-02-12T00:12:43Z</time>
      </trkpt>
      <trkpt lat="42.08488" lon="1.34568">
        <ele>704.4</ele>
        <time>2019-02-12T00:12:50Z</time>
      </trkpt>
      <trkpt lat="42.08498" lon="1.34574">
        <ele>707.6</ele>
        <time>2019-02-12T00:12:56Z</time>
      </trkpt>
      <trkpt lat="42.08505" lon="1.34586">
        <ele>710.6</ele>
        <time>2019-02-12T00:13:03Z</time>
      </trkpt>
      <trkpt lat="42.08514" lon="1.34591">
        <ele>713.4</ele>
        <time>2019-02-12T00:13:08Z</time>
      </trkpt>
      <trkpt lat="42.08521" lon="1.34599">
        <ele>716.8</ele>
        <time>2019-02-12T00:13:14Z</time>
      </trkpt>
      <trkpt lat="42.08529" lon="1.34609">
        <ele>719.2</ele>
        <time>2019-02-12T00:13:19Z</time>
      </trkpt>
      <trkpt lat="42.0854" lon="1.34611">
        <ele>720.7</ele>
        <time>2019-02-12T00:13:26Z</time>
      </trkpt>
      <trkpt lat="42.0855" lon="1.34613">
        <ele>722</ele>
        <time>2019-02-12T00:13:32Z</time>
      </trkpt>
      <trkpt lat="42.08558" lon="1.3462">
        <ele>724.5</ele>
        <time>2019-02-12T00:13:37Z</time>
      </trkpt>
      <trkpt lat="42.08567" lon="1.34626">
        <ele>726</ele>
        <time>2019-02-12T00:13:43Z</time>
      </trkpt>
      <trkpt lat="42.08573" lon="1.34635">
        <ele>726.5</ele>
        <time>2019-02-12T00:13:48Z</time>
      </trkpt>
      <trkpt lat="42.08581" lon="1.34638">
        <ele>727.8</ele>
        <time>2019-02-12T00:13:53Z</time>
      </trkpt>
      <trkpt lat="42.08591" lon="1.34648">
        <ele>728.4</ele>
        <time>2019-02-12T00:14:00Z</time>
      </trkpt>
      <trkpt lat="42.08598" lon="1.34657">
        <ele>728.8</ele>
        <time>2019-02-12T00:14:05Z</time>
      </trkpt>
      <trkpt lat="42.08608" lon="1.34664">
        <ele>732.2</ele>
        <time>2019-02-12T00:14:12Z</time>
      </trkpt>
      <trkpt lat="42.0862" lon="1.34667">
        <ele>735</ele>
        <time>2019-02-12T00:14:19Z</time>
      </trkpt>
      <trkpt lat="42.08628" lon="1.34675">
        <ele>737</ele>
        <time>2019-02-12T00:14:25Z</time>
      </trkpt>
      <trkpt lat="42.08637" lon="1.34682">
        <ele>738</ele>
        <time>2019-02-12T00:14:31Z</time>
      </trkpt>
      <trkpt lat="42.08647" lon="1.34688">
        <ele>739.5</ele>
        <time>2019-02-12T00:14:37Z</time>
      </trkpt>
      <trkpt lat="42.08656" lon="1.34693">
        <ele>739.9</ele>
        <time>2019-02-12T00:14:42Z</time>
      </trkpt>
      <trkpt lat="42.08667" lon="1.34691">
        <ele>742.9</ele>
        <time>2019-02-12T00:14:49Z</time>
      </trkpt>
      <trkpt lat="42.08678" lon="1.34691">
        <ele>745.6</ele>
        <time>2019-02-12T00:14:55Z</time>
      </trkpt>
      <trkpt lat="42.08682" lon="1.34705">
        <ele>747.1</ele>
        <time>2019-02-12T00:15:01Z</time>
      </trkpt>
      <trkpt lat="42.0869" lon="1.34706">
        <ele>747</ele>
        <time>2019-02-12T00:15:06Z</time>
      </trkpt>
      <trkpt lat="42.08698" lon="1.3471">
        <ele>746.2</ele>
        <time>2019-02-12T00:15:11Z</time>
      </trkpt>
      <trkpt lat="42.08706" lon="1.34718">
        <ele>744.2</ele>
        <time>2019-02-12T00:15:16Z</time>
      </trkpt>
      <trkpt lat="42.0871" lon="1.34732">
        <ele>743.9</ele>
        <time>2019-02-12T00:15:23Z</time>
      </trkpt>
      <trkpt lat="42.08714" lon="1.34746">
        <ele>744.6</ele>
        <time>2019-02-12T00:15:29Z</time>
      </trkpt>
      <trkpt lat="42.08718" lon="1.34758">
        <ele>743.3</ele>
        <time>2019-02-12T00:15:35Z</time>
      </trkpt>
      <trkpt lat="42.08725" lon="1.34766">
        <ele>743.9</ele>
        <time>2019-02-12T00:15:40Z</time>
      </trkpt>
      <trkpt lat="42.08733" lon="1.34774">
        <ele>745.6</ele>
        <time>2019-02-12T00:15:46Z</time>
      </trkpt>
      <trkpt lat="42.0874" lon="1.34784">
        <ele>748</ele>
        <time>2019-02-12T00:15:52Z</time>
      </trkpt>
      <trkpt lat="42.08747" lon="1.34793">
        <ele>751.5</ele>
        <time>2019-02-12T00:15:57Z</time>
      </trkpt>
      <trkpt lat="42.08755" lon="1.34803">
        <ele>751.9</ele>
        <time>2019-02-12T00:16:04Z</time>
      </trkpt>
      <trkpt lat="42.08762" lon="1.34811">
        <ele>753.4</ele>
        <time>2019-02-12T00:16:09Z</time>
      </trkpt>
      <trkpt lat="42.0877" lon="1.34819">
        <ele>756.2</ele>
        <time>2019-02-12T00:16:15Z</time>
      </trkpt>
      <trkpt lat="42.08776" lon="1.34829">
        <ele>757.3</ele>
        <time>2019-02-12T00:16:20Z</time>
      </trkpt>
      <trkpt lat="42.08785" lon="1.34831">
        <ele>757.7</ele>
        <time>2019-02-12T00:16:25Z</time>
      </trkpt>
      <trkpt lat="42.08793" lon="1.3484">
        <ele>759.6</ele>
        <time>2019-02-12T00:16:31Z</time>
      </trkpt>
      <trkpt lat="42.08805" lon="1.34844">
        <ele>761.7</ele>
        <time>2019-02-12T00:16:38Z</time>
      </trkpt>
      <trkpt lat="42.08811" lon="1.34851">
        <ele>763</ele>
        <time>2019-02-12T00:16:43Z</time>
      </trkpt>
      <trkpt lat="42.08818" lon="1.34858">
        <ele>764.1</ele>
        <time>2019-02-12T00:16:48Z</time>
      </trkpt>
      <trkpt lat="42.08828" lon="1.34865">
        <ele>764.4</ele>
        <time>2019-02-12T00:16:54Z</time>
      </trkpt>
      <trkpt lat="42.08834" lon="1.34875">
        <ele>767.3</ele>
        <time>2019-02-12T00:17:00Z</time>
      </trkpt>
      <trkpt lat="42.08841" lon="1.34884">
        <ele>770.2</ele>
        <time>2019-02-12T00:17:05Z</time>
      </trkpt>
      <trkpt lat="42.08848" lon="1.34895">
        <ele>773</ele>
        <time>2019-02-12T00:17:11Z</time>
      </trkpt>
      <trkpt lat="42.08852" lon="1.34905">
        <ele>776</ele>
        <time>2019-02-12T00:17:16Z</time>
      </trkpt>
      <trkpt lat="42.08863" lon="1.34912">
        <ele>778.4</ele>
        <time>2019-02-12T00:17:23Z</time>
      </trkpt>
      <trkpt lat="42.08866" lon="1.34925">
        <ele>781.6</ele>
        <time>2019-02-12T00:17:29Z</time>
      </trkpt>
      <trkpt lat="42.08866" lon="1.34934">
        <ele>784.1</ele>
        <time>2019-02-12T00:17:33Z</time>
      </trkpt>
      <trkpt lat="42.08873" lon="1.34943">
        <ele>786</ele>
        <time>2019-02-12T00:17:38Z</time>
      </trkpt>
      <trkpt lat="42.0888" lon="1.34955">
        <ele>788</ele>
        <time>2019-02-12T00:17:45Z</time>
      </trkpt>
      <trkpt lat="42.08882" lon="1.34967">
        <ele>789.9</ele>
        <time>2019-02-12T00:17:50Z</time>
      </trkpt>
      <trkpt lat="42.08881" lon="1.34981">
        <ele>792.9</ele>
        <time>2019-02-12T00:17:56Z</time>
      </trkpt>
      <trkpt lat="42.08883" lon="1.34993">
        <ele>792.8</ele>
        <time>2019-02-12T00:18:01Z</time>
      </trkpt>
      <trkpt lat="42.08889" lon="1.35003">
        <ele>791.9</ele>
        <time>2019-02-12T00:18:07Z</time>
      </trkpt>
      <trkpt lat="42.08895" lon="1.3501">
        <ele>792.8</ele>
        <time>2019-02-12T00:18:12Z</time>
      </trkpt>
      <trkpt lat="42.08901" lon="1.3502">
        <ele>793.2</ele>
        <time>2019-02-12T00:18:17Z</time>
      </trkpt>
      <trkpt lat="42.08904" lon="1.35032">
        <ele>795.7</ele>
        <time>2019-02-12T00:18:22Z</time>
      </trkpt>
      <trkpt lat="42.0891" lon="1.35043">
        <ele>799.1</ele>
        <time>2019-02-12T00:18:28Z</time>
      </trkpt>
      <trkpt lat="42.08918" lon="1.35053">
        <ele>801.1</ele>
        <time>2019-02-12T00:18:34Z</time>
      </trkpt>
      <trkpt lat="42.08927" lon="1.35063">
        <ele>803.5</ele>
        <time>2019-02-12T00:18:41Z</time>
      </trkpt>
      <trkpt lat="42.08931" lon="1.35076">
        <ele>807.3</ele>
        <time>2019-02-12T00:18:47Z</time>
      </trkpt>
      <trkpt lat="42.08935" lon="1.35089">
        <ele>810.6</ele>
        <time>2019-02-12T00:18:53Z</time>
      </trkpt>
      <trkpt lat="42.08942" lon="1.35098">
        <ele>813.1</ele>
        <time>2019-02-12T00:18:58Z</time>
      </trkpt>
      <trkpt lat="42.08948" lon="1.35109">
        <ele>815.5</ele>
        <time>2019-02-12T00:19:04Z</time>
      </trkpt>
      <trkpt lat="42.08955" lon="1.35118">
        <ele>817.3</ele>
        <time>2019-02-12T00:19:09Z</time>
      </trkpt>
      <trkpt lat="42.08961" lon="1.35128">
        <ele>819.6</ele>
        <time>2019-02-12T00:19:15Z</time>
      </trkpt>
      <trkpt lat="42.08969" lon="1.35138">
        <ele>821.6</ele>
        <time>2019-02-12T00:19:21Z</time>
      </trkpt>
      <trkpt lat="42.08977" lon="1.35145">
        <ele>826</ele>
        <time>2019-02-12T00:19:27Z</time>
      </trkpt>
      <trkpt lat="42.08985" lon="1.35153">
        <ele>826</ele>
        <time>2019-02-12T00:19:32Z</time>
      </trkpt>
      <trkpt lat="42.08993" lon="1.35161">
        <ele>826.9</ele>
        <time>2019-02-12T00:19:38Z</time>
      </trkpt>
      <trkpt lat="42.09" lon="1.35173">
        <ele>827.5</ele>
        <time>2019-02-12T00:19:44Z</time>
      </trkpt>
      <trkpt lat="42.09006" lon="1.35183">
        <ele>827.9</ele>
        <time>2019-02-12T00:19:50Z</time>
      </trkpt>
      <trkpt lat="42.09015" lon="1.35185">
        <ele>829.9</ele>
        <time>2019-02-12T00:19:55Z</time>
      </trkpt>
      <trkpt lat="42.09025" lon="1.35191">
        <ele>831.2</ele>
        <time>2019-02-12T00:20:02Z</time>
      </trkpt>
      <trkpt lat="42.09033" lon="1.352">
        <ele>830.8</ele>
        <time>2019-02-12T00:20:08Z</time>
      </trkpt>
      <trkpt lat="42.09042" lon="1.35208">
        <ele>831.2</ele>
        <time>2019-02-12T00:20:14Z</time>
      </trkpt>
      <trkpt lat="42.0905" lon="1.35217">
        <ele>832.6</ele>
        <time>2019-02-12T00:20:20Z</time>
      </trkpt>
      <trkpt lat="42.09058" lon="1.35225">
        <ele>833.2</ele>
        <time>2019-02-12T00:20:25Z</time>
      </trkpt>
      <trkpt lat="42.09067" lon="1.35228">
        <ele>833.7</ele>
        <time>2019-02-12T00:20:31Z</time>
      </trkpt>
      <trkpt lat="42.09076" lon="1.35232">
        <ele>833.3</ele>
        <time>2019-02-12T00:20:36Z</time>
      </trkpt>
      <trkpt lat="42.09084" lon="1.35242">
        <ele>833.7</ele>
        <time>2019-02-12T00:20:42Z</time>
      </trkpt>
      <trkpt lat="42.09092" lon="1.35252">
        <ele>834</ele>
        <time>2019-02-12T00:20:49Z</time>
      </trkpt>
      <trkpt lat="42.09095" lon="1.35267">
        <ele>834</ele>
        <time>2019-02-12T00:20:56Z</time>
      </trkpt>
      <trkpt lat="42.09099" lon="1.3528">
        <ele>833.6</ele>
        <time>2019-02-12T00:21:02Z</time>
      </trkpt>
      <trkpt lat="42.09105" lon="1.3529">
        <ele>833.7</ele>
        <time>2019-02-12T00:21:07Z</time>
      </trkpt>
      <trkpt lat="42.09111" lon="1.353">
        <ele>834.6</ele>
        <time>2019-02-12T00:21:13Z</time>
      </trkpt>
      <trkpt lat="42.09114" lon="1.35312">
        <ele>835.6</ele>
        <time>2019-02-12T00:21:18Z</time>
      </trkpt>
      <trkpt lat="42.0912" lon="1.35322">
        <ele>836</ele>
        <time>2019-02-12T00:21:23Z</time>
      </trkpt>
      <trkpt lat="42.09127" lon="1.3533">
        <ele>836.4</ele>
        <time>2019-02-12T00:21:28Z</time>
      </trkpt>
      <trkpt lat="42.09132" lon="1.35342">
        <ele>835</ele>
        <time>2019-02-12T00:21:34Z</time>
      </trkpt>
      <trkpt lat="42.09137" lon="1.35353">
        <ele>834.7</ele>
        <time>2019-02-12T00:21:40Z</time>
      </trkpt>
      <trkpt lat="42.09142" lon="1.35366">
        <ele>833.7</ele>
        <time>2019-02-12T00:21:46Z</time>
      </trkpt>
      <trkpt lat="42.09145" lon="1.35377">
        <ele>834.1</ele>
        <time>2019-02-12T00:21:51Z</time>
      </trkpt>
      <trkpt lat="42.0915" lon="1.3539">
        <ele>834.6</ele>
        <time>2019-02-12T00:21:57Z</time>
      </trkpt>
      <trkpt lat="42.09154" lon="1.35402">
        <ele>835.1</ele>
        <time>2019-02-12T00:22:03Z</time>
      </trkpt>
      <trkpt lat="42.09156" lon="1.35414">
        <ele>834.1</ele>
        <time>2019-02-12T00:22:08Z</time>
      </trkpt>
      <trkpt lat="42.0916" lon="1.35426">
        <ele>834.7</ele>
        <time>2019-02-12T00:22:13Z</time>
      </trkpt>
      <trkpt lat="42.09164" lon="1.35436">
        <ele>836</ele>
        <time>2019-02-12T00:22:19Z</time>
      </trkpt>
      <trkpt lat="42.09172" lon="1.35444">
        <ele>837.4</ele>
        <time>2019-02-12T00:22:24Z</time>
      </trkpt>
      <trkpt lat="42.09178" lon="1.35457">
        <ele>836.4</ele>
        <time>2019-02-12T00:22:31Z</time>
      </trkpt>
      <trkpt lat="42.09184" lon="1.35466">
        <ele>837.5</ele>
        <time>2019-02-12T00:22:35Z</time>
      </trkpt>
      <trkpt lat="42.09186" lon="1.35475">
        <ele>836.1</ele>
        <time>2019-02-12T00:22:40Z</time>
      </trkpt>
      <trkpt lat="42.0919" lon="1.35489">
        <ele>834</ele>
        <time>2019-02-12T00:22:46Z</time>
      </trkpt>
      <trkpt lat="42.09193" lon="1.35502">
        <ele>833.2</ele>
        <time>2019-02-12T00:22:52Z</time>
      </trkpt>
      <trkpt lat="42.09199" lon="1.35514">
        <ele>835</ele>
        <time>2019-02-12T00:22:58Z</time>
      </trkpt>
      <trkpt lat="42.09202" lon="1.35529">
        <ele>833.3</ele>
        <time>2019-02-12T00:23:04Z</time>
      </trkpt>
      <trkpt lat="42.09205" lon="1.35542">
        <ele>833.2</ele>
        <time>2019-02-12T00:23:11Z</time>
      </trkpt>
      <trkpt lat="42.09207" lon="1.35553">
        <ele>832.3</ele>
        <time>2019-02-12T00:23:15Z</time>
      </trkpt>
      <trkpt lat="42.09207" lon="1.35566">
        <ele>831.7</ele>
        <time>2019-02-12T00:23:21Z</time>
      </trkpt>
      <trkpt lat="42.09206" lon="1.35579">
        <ele>831.2</ele>
        <time>2019-02-12T00:23:26Z</time>
      </trkpt>
      <trkpt lat="42.09206" lon="1.35591">
        <ele>831.6</ele>
        <time>2019-02-12T00:23:31Z</time>
      </trkpt>
      <trkpt lat="42.09207" lon="1.35604">
        <ele>831.3</ele>
        <time>2019-02-12T00:23:37Z</time>
      </trkpt>
      <trkpt lat="42.09208" lon="1.35617">
        <ele>831.2</ele>
        <time>2019-02-12T00:23:42Z</time>
      </trkpt>
      <trkpt lat="42.09212" lon="1.35629">
        <ele>831.3</ele>
        <time>2019-02-12T00:23:48Z</time>
      </trkpt>
      <trkpt lat="42.09216" lon="1.3564">
        <ele>830.3</ele>
        <time>2019-02-12T00:23:53Z</time>
      </trkpt>
      <trkpt lat="42.09221" lon="1.35652">
        <ele>831.3</ele>
        <time>2019-02-12T00:23:59Z</time>
      </trkpt>
      <trkpt lat="42.09223" lon="1.35666">
        <ele>828.4</ele>
        <time>2019-02-12T00:24:05Z</time>
      </trkpt>
      <trkpt lat="42.09227" lon="1.35677">
        <ele>828.9</ele>
        <time>2019-02-12T00:24:10Z</time>
      </trkpt>
      <trkpt lat="42.09234" lon="1.35688">
        <ele>829.2</ele>
        <time>2019-02-12T00:24:16Z</time>
      </trkpt>
      <trkpt lat="42.09241" lon="1.35697">
        <ele>829.9</ele>
        <time>2019-02-12T00:24:22Z</time>
      </trkpt>
      <trkpt lat="42.09248" lon="1.35705">
        <ele>831.6</ele>
        <time>2019-02-12T00:24:27Z</time>
      </trkpt>
      <trkpt lat="42.09253" lon="1.35714">
        <ele>833.6</ele>
        <time>2019-02-12T00:24:32Z</time>
      </trkpt>
      <trkpt lat="42.09256" lon="1.35725">
        <ele>833.6</ele>
        <time>2019-02-12T00:24:37Z</time>
      </trkpt>
      <trkpt lat="42.09262" lon="1.35738">
        <ele>833.2</ele>
        <time>2019-02-12T00:24:43Z</time>
      </trkpt>
      <trkpt lat="42.09266" lon="1.35748">
        <ele>834</ele>
        <time>2019-02-12T00:24:48Z</time>
      </trkpt>
      <trkpt lat="42.0927" lon="1.35758">
        <ele>835.7</ele>
        <time>2019-02-12T00:24:53Z</time>
      </trkpt>
      <trkpt lat="42.09274" lon="1.35771">
        <ele>836.4</ele>
        <time>2019-02-12T00:24:59Z</time>
      </trkpt>
      <trkpt lat="42.09277" lon="1.35784">
        <ele>839.4</ele>
        <time>2019-02-12T00:25:05Z</time>
      </trkpt>
      <trkpt lat="42.09282" lon="1.35791">
        <ele>841.8</ele>
        <time>2019-02-12T00:25:09Z</time>
      </trkpt>
      <trkpt lat="42.09287" lon="1.35801">
        <ele>844.3</ele>
        <time>2019-02-12T00:25:14Z</time>
      </trkpt>
      <trkpt lat="42.09292" lon="1.35815">
        <ele>846.7</ele>
        <time>2019-02-12T00:25:20Z</time>
      </trkpt>
      <trkpt lat="42.09296" lon="1.35826">
        <ele>848</ele>
        <time>2019-02-12T00:25:26Z</time>
      </trkpt>
      <trkpt lat="42.09302" lon="1.35836">
        <ele>850.4</ele>
        <time>2019-02-12T00:25:31Z</time>
      </trkpt>
      <trkpt lat="42.09305" lon="1.35849">
        <ele>852.8</ele>
        <time>2019-02-12T00:25:37Z</time>
      </trkpt>
      <trkpt lat="42.09313" lon="1.35858">
        <ele>855.3</ele>
        <time>2019-02-12T00:25:43Z</time>
      </trkpt>
      <trkpt lat="42.09317" lon="1.35871">
        <ele>857.7</ele>
        <time>2019-02-12T00:25:49Z</time>
      </trkpt>
      <trkpt lat="42.09323" lon="1.35881">
        <ele>861</ele>
        <time>2019-02-12T00:25:54Z</time>
      </trkpt>
      <trkpt lat="42.09328" lon="1.35893">
        <ele>863.1</ele>
        <time>2019-02-12T00:26:00Z</time>
      </trkpt>
      <trkpt lat="42.09333" lon="1.35908">
        <ele>865.9</ele>
        <time>2019-02-12T00:26:07Z</time>
      </trkpt>
      <trkpt lat="42.09337" lon="1.35919">
        <ele>868.2</ele>
        <time>2019-02-12T00:26:12Z</time>
      </trkpt>
      <trkpt lat="42.09345" lon="1.35925">
        <ele>870.3</ele>
        <time>2019-02-12T00:26:18Z</time>
      </trkpt>
      <trkpt lat="42.0935" lon="1.35933">
        <ele>870.3</ele>
        <time>2019-02-12T00:26:22Z</time>
      </trkpt>
      <trkpt lat="42.0936" lon="1.35939">
        <ele>869.2</ele>
        <time>2019-02-12T00:26:28Z</time>
      </trkpt>
      <trkpt lat="42.09368" lon="1.35947">
        <ele>868.2</ele>
        <time>2019-02-12T00:26:34Z</time>
      </trkpt>
      <trkpt lat="42.09375" lon="1.35959">
        <ele>867.8</ele>
        <time>2019-02-12T00:26:41Z</time>
      </trkpt>
      <trkpt lat="42.09382" lon="1.35971">
        <ele>868.3</ele>
        <time>2019-02-12T00:26:47Z</time>
      </trkpt>
      <trkpt lat="42.0939" lon="1.3598">
        <ele>867.2</ele>
        <time>2019-02-12T00:26:53Z</time>
      </trkpt>
      <trkpt lat="42.09398" lon="1.35986">
        <ele>866.3</ele>
        <time>2019-02-12T00:26:58Z</time>
      </trkpt>
      <trkpt lat="42.09401" lon="1.36001">
        <ele>866.2</ele>
        <time>2019-02-12T00:27:05Z</time>
      </trkpt>
      <trkpt lat="42.09408" lon="1.3601">
        <ele>868.3</ele>
        <time>2019-02-12T00:27:10Z</time>
      </trkpt>
      <trkpt lat="42.09417" lon="1.36019">
        <ele>869.6</ele>
        <time>2019-02-12T00:27:16Z</time>
      </trkpt>
      <trkpt lat="42.09426" lon="1.36017">
        <ele>871.7</ele>
        <time>2019-02-12T00:27:22Z</time>
      </trkpt>
      <trkpt lat="42.09434" lon="1.36028">
        <ele>873.1</ele>
        <time>2019-02-12T00:27:28Z</time>
      </trkpt>
      <trkpt lat="42.09444" lon="1.36036">
        <ele>873.4</ele>
        <time>2019-02-12T00:27:35Z</time>
      </trkpt>
      <trkpt lat="42.09454" lon="1.36043">
        <ele>874</ele>
        <time>2019-02-12T00:27:41Z</time>
      </trkpt>
      <trkpt lat="42.09462" lon="1.36052">
        <ele>876.5</ele>
        <time>2019-02-12T00:27:47Z</time>
      </trkpt>
      <trkpt lat="42.09462" lon="1.36031">
        <ele>877.8</ele>
        <time>2019-02-12T00:27:56Z</time>
      </trkpt>
      <trkpt lat="42.09469" lon="1.36025">
        <ele>880.8</ele>
        <time>2019-02-12T00:28:01Z</time>
      </trkpt>
      <trkpt lat="42.09478" lon="1.36024">
        <ele>881.7</ele>
        <time>2019-02-12T00:28:06Z</time>
      </trkpt>
      <trkpt lat="42.09484" lon="1.36018">
        <ele>887.4</ele>
        <time>2019-02-12T00:28:11Z</time>
      </trkpt>
      <trkpt lat="42.09488" lon="1.36035">
        <ele>892.2</ele>
        <time>2019-02-12T00:28:18Z</time>
      </trkpt>
      <trkpt lat="42.09492" lon="1.36048">
        <ele>892.9</ele>
        <time>2019-02-12T00:28:24Z</time>
      </trkpt>
      <trkpt lat="42.09493" lon="1.36065">
        <ele>894.7</ele>
        <time>2019-02-12T00:28:32Z</time>
      </trkpt>
      <trkpt lat="42.09498" lon="1.36076">
        <ele>898</ele>
        <time>2019-02-12T00:28:37Z</time>
      </trkpt>
      <trkpt lat="42.09505" lon="1.36088">
        <ele>899.4</ele>
        <time>2019-02-12T00:28:44Z</time>
      </trkpt>
      <trkpt lat="42.09511" lon="1.36103">
        <ele>901.4</ele>
        <time>2019-02-12T00:28:51Z</time>
      </trkpt>
      <trkpt lat="42.09518" lon="1.36115">
        <ele>903.8</ele>
        <time>2019-02-12T00:28:57Z</time>
      </trkpt>
      <trkpt lat="42.09527" lon="1.36118">
        <ele>907.3</ele>
        <time>2019-02-12T00:29:02Z</time>
      </trkpt>
      <trkpt lat="42.09523" lon="1.36103">
        <ele>912</ele>
        <time>2019-02-12T00:29:09Z</time>
      </trkpt>
      <trkpt lat="42.09525" lon="1.36089">
        <ele>916.3</ele>
        <time>2019-02-12T00:29:15Z</time>
      </trkpt>
      <trkpt lat="42.09531" lon="1.361">
        <ele>919.3</ele>
        <time>2019-02-12T00:29:21Z</time>
      </trkpt>
      <trkpt lat="42.09537" lon="1.36103">
        <ele>922.7</ele>
        <time>2019-02-12T00:29:25Z</time>
      </trkpt>
      <trkpt lat="42.0954" lon="1.36089">
        <ele>925</ele>
        <time>2019-02-12T00:29:31Z</time>
      </trkpt>
      <trkpt lat="42.09545" lon="1.36091">
        <ele>929.9</ele>
        <time>2019-02-12T00:29:33Z</time>
      </trkpt>
      <trkpt lat="42.0955" lon="1.36102">
        <ele>932.3</ele>
        <time>2019-02-12T00:29:39Z</time>
      </trkpt>
      <trkpt lat="42.09556" lon="1.36117">
        <ele>935</ele>
        <time>2019-02-12T00:29:46Z</time>
      </trkpt>
      <trkpt lat="42.09563" lon="1.36126">
        <ele>938</ele>
        <time>2019-02-12T00:29:52Z</time>
      </trkpt>
      <trkpt lat="42.0957" lon="1.36133">
        <ele>939.9</ele>
        <time>2019-02-12T00:29:57Z</time>
      </trkpt>
      <trkpt lat="42.09576" lon="1.36144">
        <ele>940.5</ele>
        <time>2019-02-12T00:30:03Z</time>
      </trkpt>
      <trkpt lat="42.09583" lon="1.36153">
        <ele>940.5</ele>
        <time>2019-02-12T00:30:08Z</time>
      </trkpt>
      <trkpt lat="42.09591" lon="1.36159">
        <ele>940.9</ele>
        <time>2019-02-12T00:30:13Z</time>
      </trkpt>
      <trkpt lat="42.096" lon="1.36168">
        <ele>941.9</ele>
        <time>2019-02-12T00:30:20Z</time>
      </trkpt>
      <trkpt lat="42.09603" lon="1.36182">
        <ele>941.9</ele>
        <time>2019-02-12T00:30:26Z</time>
      </trkpt>
      <trkpt lat="42.09609" lon="1.36193">
        <ele>941.3</ele>
        <time>2019-02-12T00:30:32Z</time>
      </trkpt>
      <trkpt lat="42.09614" lon="1.36202">
        <ele>940.9</ele>
        <time>2019-02-12T00:30:36Z</time>
      </trkpt>
      <trkpt lat="42.09624" lon="1.36209">
        <ele>940.8</ele>
        <time>2019-02-12T00:30:43Z</time>
      </trkpt>
      <trkpt lat="42.09632" lon="1.36219">
        <ele>940.4</ele>
        <time>2019-02-12T00:30:49Z</time>
      </trkpt>
      <trkpt lat="42.0964" lon="1.36224">
        <ele>940.8</ele>
        <time>2019-02-12T00:30:54Z</time>
      </trkpt>
      <trkpt lat="42.09649" lon="1.36233">
        <ele>941.3</ele>
        <time>2019-02-12T00:31:01Z</time>
      </trkpt>
      <trkpt lat="42.09656" lon="1.36244">
        <ele>941.9</ele>
        <time>2019-02-12T00:31:07Z</time>
      </trkpt>
      <trkpt lat="42.09663" lon="1.36255">
        <ele>942.8</ele>
        <time>2019-02-12T00:31:13Z</time>
      </trkpt>
      <trkpt lat="42.0967" lon="1.36265">
        <ele>946.1</ele>
        <time>2019-02-12T00:31:19Z</time>
      </trkpt>
      <trkpt lat="42.09676" lon="1.36274">
        <ele>947.6</ele>
        <time>2019-02-12T00:31:24Z</time>
      </trkpt>
      <trkpt lat="42.09683" lon="1.36283">
        <ele>948.5</ele>
        <time>2019-02-12T00:31:29Z</time>
      </trkpt>
      <trkpt lat="42.09691" lon="1.3629">
        <ele>949.4</ele>
        <time>2019-02-12T00:31:35Z</time>
      </trkpt>
      <trkpt lat="42.097" lon="1.36294">
        <ele>950.8</ele>
        <time>2019-02-12T00:31:40Z</time>
      </trkpt>
      <trkpt lat="42.0971" lon="1.36298">
        <ele>950.5</ele>
        <time>2019-02-12T00:31:46Z</time>
      </trkpt>
      <trkpt lat="42.09718" lon="1.36301">
        <ele>954.2</ele>
        <time>2019-02-12T00:31:51Z</time>
      </trkpt>
      <trkpt lat="42.09729" lon="1.36306">
        <ele>955.6</ele>
        <time>2019-02-12T00:31:58Z</time>
      </trkpt>
      <trkpt lat="42.09738" lon="1.36311">
        <ele>957.7</ele>
        <time>2019-02-12T00:32:03Z</time>
      </trkpt>
      <trkpt lat="42.0975" lon="1.36317">
        <ele>960.4</ele>
        <time>2019-02-12T00:32:10Z</time>
      </trkpt>
      <trkpt lat="42.0976" lon="1.36323">
        <ele>962.4</ele>
        <time>2019-02-12T00:32:17Z</time>
      </trkpt>
      <trkpt lat="42.0977" lon="1.36328">
        <ele>963.9</ele>
        <time>2019-02-12T00:32:23Z</time>
      </trkpt>
      <trkpt lat="42.09782" lon="1.36336">
        <ele>962.1</ele>
        <time>2019-02-12T00:32:30Z</time>
      </trkpt>
      <trkpt lat="42.0979" lon="1.36345">
        <ele>962.9</ele>
        <time>2019-02-12T00:32:37Z</time>
      </trkpt>
      <trkpt lat="42.09796" lon="1.3636">
        <ele>965.9</ele>
        <time>2019-02-12T00:32:44Z</time>
      </trkpt>
      <trkpt lat="42.09802" lon="1.3637">
        <ele>968.3</ele>
        <time>2019-02-12T00:32:49Z</time>
      </trkpt>
      <trkpt lat="42.09806" lon="1.36382">
        <ele>970.6</ele>
        <time>2019-02-12T00:32:55Z</time>
      </trkpt>
      <trkpt lat="42.09814" lon="1.36388">
        <ele>970.2</ele>
        <time>2019-02-12T00:33:00Z</time>
      </trkpt>
      <trkpt lat="42.0982" lon="1.36398">
        <ele>969.6</ele>
        <time>2019-02-12T00:33:05Z</time>
      </trkpt>
      <trkpt lat="42.09829" lon="1.36409">
        <ele>970.2</ele>
        <time>2019-02-12T00:33:12Z</time>
      </trkpt>
      <trkpt lat="42.09833" lon="1.36421">
        <ele>971</ele>
        <time>2019-02-12T00:33:18Z</time>
      </trkpt>
      <trkpt lat="42.09839" lon="1.36433">
        <ele>973</ele>
        <time>2019-02-12T00:33:24Z</time>
      </trkpt>
      <trkpt lat="42.09845" lon="1.36445">
        <ele>975.9</ele>
        <time>2019-02-12T00:33:30Z</time>
      </trkpt>
      <trkpt lat="42.09849" lon="1.36454">
        <ele>979.3</ele>
        <time>2019-02-12T00:33:35Z</time>
      </trkpt>
      <trkpt lat="42.09856" lon="1.3646">
        <ele>980.6</ele>
        <time>2019-02-12T00:33:40Z</time>
      </trkpt>
      <trkpt lat="42.09866" lon="1.36465">
        <ele>982.7</ele>
        <time>2019-02-12T00:33:46Z</time>
      </trkpt>
      <trkpt lat="42.09877" lon="1.36466">
        <ele>984</ele>
        <time>2019-02-12T00:33:52Z</time>
      </trkpt>
      <trkpt lat="42.09885" lon="1.36466">
        <ele>986.5</ele>
        <time>2019-02-12T00:33:57Z</time>
      </trkpt>
      <trkpt lat="42.09896" lon="1.36465">
        <ele>988.4</ele>
        <time>2019-02-12T00:34:03Z</time>
      </trkpt>
      <trkpt lat="42.09907" lon="1.36467">
        <ele>990.8</ele>
        <time>2019-02-12T00:34:09Z</time>
      </trkpt>
      <trkpt lat="42.0992" lon="1.36467">
        <ele>993.3</ele>
        <time>2019-02-12T00:34:17Z</time>
      </trkpt>
      <trkpt lat="42.09932" lon="1.3647">
        <ele>993.7</ele>
        <time>2019-02-12T00:34:23Z</time>
      </trkpt>
      <trkpt lat="42.09941" lon="1.36475">
        <ele>998</ele>
        <time>2019-02-12T00:34:29Z</time>
      </trkpt>
      <trkpt lat="42.09951" lon="1.36481">
        <ele>998.4</ele>
        <time>2019-02-12T00:34:35Z</time>
      </trkpt>
      <trkpt lat="42.09962" lon="1.36483">
        <ele>1000.1</ele>
        <time>2019-02-12T00:34:42Z</time>
      </trkpt>
      <trkpt lat="42.09972" lon="1.36487">
        <ele>1001.8</ele>
        <time>2019-02-12T00:34:48Z</time>
      </trkpt>
      <trkpt lat="42.09983" lon="1.36487">
        <ele>1001.8</ele>
        <time>2019-02-12T00:34:54Z</time>
      </trkpt>
      <trkpt lat="42.09992" lon="1.36497">
        <ele>1008</ele>
        <time>2019-02-12T00:35:00Z</time>
      </trkpt>
      <trkpt lat="42.10001" lon="1.36503">
        <ele>1011.5</ele>
        <time>2019-02-12T00:35:07Z</time>
      </trkpt>
      <trkpt lat="42.10011" lon="1.3651">
        <ele>1012</ele>
        <time>2019-02-12T00:35:13Z</time>
      </trkpt>
      <trkpt lat="42.10013" lon="1.36527">
        <ele>1014.4</ele>
        <time>2019-02-12T00:35:20Z</time>
      </trkpt>
      <trkpt lat="42.10011" lon="1.36541">
        <ele>1015.3</ele>
        <time>2019-02-12T00:35:26Z</time>
      </trkpt>
      <trkpt lat="42.10011" lon="1.36554">
        <ele>1013.5</ele>
        <time>2019-02-12T00:35:32Z</time>
      </trkpt>
      <trkpt lat="42.10014" lon="1.36566">
        <ele>1013.8</ele>
        <time>2019-02-12T00:35:37Z</time>
      </trkpt>
      <trkpt lat="42.10022" lon="1.36573">
        <ele>1013.8</ele>
        <time>2019-02-12T00:35:42Z</time>
      </trkpt>
      <trkpt lat="42.10032" lon="1.36573">
        <ele>1013.5</ele>
        <time>2019-02-12T00:35:48Z</time>
      </trkpt>
      <trkpt lat="42.10043" lon="1.36571">
        <ele>1010.4</ele>
        <time>2019-02-12T00:35:55Z</time>
      </trkpt>
      <trkpt lat="42.10053" lon="1.36574">
        <ele>1009.6</ele>
        <time>2019-02-12T00:36:01Z</time>
      </trkpt>
      <trkpt lat="42.10064" lon="1.3658">
        <ele>1008.6</ele>
        <time>2019-02-12T00:36:07Z</time>
      </trkpt>
      <trkpt lat="42.10072" lon="1.36589">
        <ele>1010.1</ele>
        <time>2019-02-12T00:36:13Z</time>
      </trkpt>
      <trkpt lat="42.10079" lon="1.36597">
        <ele>1010.4</ele>
        <time>2019-02-12T00:36:18Z</time>
      </trkpt>
      <trkpt lat="42.10088" lon="1.36606">
        <ele>1011</ele>
        <time>2019-02-12T00:36:25Z</time>
      </trkpt>
      <trkpt lat="42.10098" lon="1.36614">
        <ele>1012.9</ele>
        <time>2019-02-12T00:36:31Z</time>
      </trkpt>
      <trkpt lat="42.10103" lon="1.36628">
        <ele>1014.4</ele>
        <time>2019-02-12T00:36:38Z</time>
      </trkpt>
      <trkpt lat="42.10104" lon="1.36643">
        <ele>1017.2</ele>
        <time>2019-02-12T00:36:44Z</time>
      </trkpt>
      <trkpt lat="42.10101" lon="1.36659">
        <ele>1019.2</ele>
        <time>2019-02-12T00:36:51Z</time>
      </trkpt>
      <trkpt lat="42.10107" lon="1.36672">
        <ele>1020.1</ele>
        <time>2019-02-12T00:36:58Z</time>
      </trkpt>
      <trkpt lat="42.10115" lon="1.36681">
        <ele>1020.7</ele>
        <time>2019-02-12T00:37:04Z</time>
      </trkpt>
      <trkpt lat="42.10124" lon="1.36691">
        <ele>1019.6</ele>
        <time>2019-02-12T00:37:10Z</time>
      </trkpt>
      <trkpt lat="42.10127" lon="1.36708">
        <ele>1021.7</ele>
        <time>2019-02-12T00:37:17Z</time>
      </trkpt>
      <trkpt lat="42.10131" lon="1.36721">
        <ele>1022.4</ele>
        <time>2019-02-12T00:37:23Z</time>
      </trkpt>
      <trkpt lat="42.10139" lon="1.36729">
        <ele>1023</ele>
        <time>2019-02-12T00:37:29Z</time>
      </trkpt>
      <trkpt lat="42.10148" lon="1.36735">
        <ele>1023</ele>
        <time>2019-02-12T00:37:35Z</time>
      </trkpt>
      <trkpt lat="42.10157" lon="1.36746">
        <ele>1025.5</ele>
        <time>2019-02-12T00:37:42Z</time>
      </trkpt>
      <trkpt lat="42.10163" lon="1.36757">
        <ele>1024.4</ele>
        <time>2019-02-12T00:37:48Z</time>
      </trkpt>
      <trkpt lat="42.10171" lon="1.36764">
        <ele>1023.1</ele>
        <time>2019-02-12T00:37:53Z</time>
      </trkpt>
      <trkpt lat="42.10176" lon="1.36777">
        <ele>1022.1</ele>
        <time>2019-02-12T00:37:59Z</time>
      </trkpt>
      <trkpt lat="42.10179" lon="1.36791">
        <ele>1021.7</ele>
        <time>2019-02-12T00:38:06Z</time>
      </trkpt>
      <trkpt lat="42.10184" lon="1.36802">
        <ele>1021.1</ele>
        <time>2019-02-12T00:38:11Z</time>
      </trkpt>
      <trkpt lat="42.10191" lon="1.36812">
        <ele>1020.1</ele>
        <time>2019-02-12T00:38:17Z</time>
      </trkpt>
      <trkpt lat="42.10199" lon="1.3682">
        <ele>1021.1</ele>
        <time>2019-02-12T00:38:23Z</time>
      </trkpt>
      <trkpt lat="42.10204" lon="1.36836">
        <ele>1022.4</ele>
        <time>2019-02-12T00:38:30Z</time>
      </trkpt>
      <trkpt lat="42.10207" lon="1.36851">
        <ele>1024</ele>
        <time>2019-02-12T00:38:37Z</time>
      </trkpt>
      <trkpt lat="42.10212" lon="1.36863">
        <ele>1027.4</ele>
        <time>2019-02-12T00:38:43Z</time>
      </trkpt>
      <trkpt lat="42.10222" lon="1.36868">
        <ele>1029.2</ele>
        <time>2019-02-12T00:38:49Z</time>
      </trkpt>
      <trkpt lat="42.10233" lon="1.36872">
        <ele>1029.9</ele>
        <time>2019-02-12T00:38:55Z</time>
      </trkpt>
      <trkpt lat="42.10243" lon="1.36878">
        <ele>1027.4</ele>
        <time>2019-02-12T00:39:01Z</time>
      </trkpt>
      <trkpt lat="42.10254" lon="1.3688">
        <ele>1026.9</ele>
        <time>2019-02-12T00:39:08Z</time>
      </trkpt>
      <trkpt lat="42.10263" lon="1.36883">
        <ele>1027.8</ele>
        <time>2019-02-12T00:39:13Z</time>
      </trkpt>
      <trkpt lat="42.10272" lon="1.36887">
        <ele>1028.9</ele>
        <time>2019-02-12T00:39:19Z</time>
      </trkpt>
      <trkpt lat="42.1028" lon="1.36895">
        <ele>1029.9</ele>
        <time>2019-02-12T00:39:24Z</time>
      </trkpt>
      <trkpt lat="42.1029" lon="1.36903">
        <ele>1030.7</ele>
        <time>2019-02-12T00:39:31Z</time>
      </trkpt>
      <trkpt lat="42.10299" lon="1.36907">
        <ele>1029.9</ele>
        <time>2019-02-12T00:39:36Z</time>
      </trkpt>
      <trkpt lat="42.10307" lon="1.36913">
        <ele>1031.6</ele>
        <time>2019-02-12T00:39:42Z</time>
      </trkpt>
      <trkpt lat="42.10316" lon="1.36917">
        <ele>1030.6</ele>
        <time>2019-02-12T00:39:47Z</time>
      </trkpt>
      <trkpt lat="42.10326" lon="1.36919">
        <ele>1026.8</ele>
        <time>2019-02-12T00:39:53Z</time>
      </trkpt>
      <trkpt lat="42.10336" lon="1.36924">
        <ele>1024.5</ele>
        <time>2019-02-12T00:39:59Z</time>
      </trkpt>
      <trkpt lat="42.10346" lon="1.36931">
        <ele>1025.4</ele>
        <time>2019-02-12T00:40:05Z</time>
      </trkpt>
      <trkpt lat="42.10356" lon="1.36936">
        <ele>1025.8</ele>
        <time>2019-02-12T00:40:11Z</time>
      </trkpt>
      <trkpt lat="42.10369" lon="1.36942">
        <ele>1026.8</ele>
        <time>2019-02-12T00:40:19Z</time>
      </trkpt>
      <trkpt lat="42.10379" lon="1.3695">
        <ele>1027.4</ele>
        <time>2019-02-12T00:40:26Z</time>
      </trkpt>
      <trkpt lat="42.10388" lon="1.36948">
        <ele>1028.2</ele>
        <time>2019-02-12T00:40:31Z</time>
      </trkpt>
      <trkpt lat="42.10405" lon="1.36947">
        <ele>1028.3</ele>
        <time>2019-02-12T00:40:41Z</time>
      </trkpt>
      <trkpt lat="42.10416" lon="1.36951">
        <ele>1032.7</ele>
        <time>2019-02-12T00:40:48Z</time>
      </trkpt>
      <trkpt lat="42.10426" lon="1.36956">
        <ele>1033.6</ele>
        <time>2019-02-12T00:40:54Z</time>
      </trkpt>
      <trkpt lat="42.10439" lon="1.36958">
        <ele>1037</ele>
        <time>2019-02-12T00:41:01Z</time>
      </trkpt>
      <trkpt lat="42.10452" lon="1.36959">
        <ele>1040.9</ele>
        <time>2019-02-12T00:41:08Z</time>
      </trkpt>
      <trkpt lat="42.10462" lon="1.36963">
        <ele>1043.7</ele>
        <time>2019-02-12T00:41:14Z</time>
      </trkpt>
      <trkpt lat="42.10473" lon="1.36963">
        <ele>1041.8</ele>
        <time>2019-02-12T00:41:20Z</time>
      </trkpt>
      <trkpt lat="42.10483" lon="1.3696">
        <ele>1041.2</ele>
        <time>2019-02-12T00:41:27Z</time>
      </trkpt>
      <trkpt lat="42.10498" lon="1.36965">
        <ele>1039.5</ele>
        <time>2019-02-12T00:41:35Z</time>
      </trkpt>
      <trkpt lat="42.10514" lon="1.36956">
        <ele>1040.2</ele>
        <time>2019-02-12T00:41:45Z</time>
      </trkpt>
      <trkpt lat="42.10531" lon="1.36949">
        <ele>1040.3</ele>
        <time>2019-02-12T00:41:55Z</time>
      </trkpt>
      <trkpt lat="42.10547" lon="1.36948">
        <ele>1042.7</ele>
        <time>2019-02-12T00:42:04Z</time>
      </trkpt>
      <trkpt lat="42.10556" lon="1.36957">
        <ele>1045.1</ele>
        <time>2019-02-12T00:42:11Z</time>
      </trkpt>
      <trkpt lat="42.10569" lon="1.36966">
        <ele>1047.4</ele>
        <time>2019-02-12T00:42:19Z</time>
      </trkpt>
      <trkpt lat="42.10577" lon="1.36974">
        <ele>1046</ele>
        <time>2019-02-12T00:42:25Z</time>
      </trkpt>
      <trkpt lat="42.10579" lon="1.36991">
        <ele>1046.6</ele>
        <time>2019-02-12T00:42:32Z</time>
      </trkpt>
      <trkpt lat="42.10583" lon="1.37003">
        <ele>1047</ele>
        <time>2019-02-12T00:42:37Z</time>
      </trkpt>
      <trkpt lat="42.10589" lon="1.37016">
        <ele>1047.5</ele>
        <time>2019-02-12T00:42:44Z</time>
      </trkpt>
      <trkpt lat="42.10596" lon="1.37027">
        <ele>1045.7</ele>
        <time>2019-02-12T00:42:50Z</time>
      </trkpt>
      <trkpt lat="42.106" lon="1.37043">
        <ele>1046.6</ele>
        <time>2019-02-12T00:42:57Z</time>
      </trkpt>
      <trkpt lat="42.10607" lon="1.37053">
        <ele>1044.6</ele>
        <time>2019-02-12T00:43:03Z</time>
      </trkpt>
      <trkpt lat="42.10617" lon="1.37062">
        <ele>1042.7</ele>
        <time>2019-02-12T00:43:10Z</time>
      </trkpt>
      <trkpt lat="42.10622" lon="1.37073">
        <ele>1042.3</ele>
        <time>2019-02-12T00:43:16Z</time>
      </trkpt>
      <trkpt lat="42.10634" lon="1.37074">
        <ele>1040.2</ele>
        <time>2019-02-12T00:43:23Z</time>
      </trkpt>
      <trkpt lat="42.10649" lon="1.37075">
        <ele>1036.4</ele>
        <time>2019-02-12T00:43:31Z</time>
      </trkpt>
      <trkpt lat="42.10662" lon="1.37075">
        <ele>1035.4</ele>
        <time>2019-02-12T00:43:39Z</time>
      </trkpt>
      <trkpt lat="42.10674" lon="1.37078">
        <ele>1035.1</ele>
        <time>2019-02-12T00:43:45Z</time>
      </trkpt>
      <trkpt lat="42.10681" lon="1.37093">
        <ele>1033.7</ele>
        <time>2019-02-12T00:43:53Z</time>
      </trkpt>
      <trkpt lat="42.10684" lon="1.37109">
        <ele>1031.6</ele>
        <time>2019-02-12T00:44:00Z</time>
      </trkpt>
      <trkpt lat="42.10686" lon="1.37123">
        <ele>1032.6</ele>
        <time>2019-02-12T00:44:06Z</time>
      </trkpt>
      <trkpt lat="42.10689" lon="1.37137">
        <ele>1031.3</ele>
        <time>2019-02-12T00:44:12Z</time>
      </trkpt>
      <trkpt lat="42.10697" lon="1.37144">
        <ele>1027.9</ele>
        <time>2019-02-12T00:44:18Z</time>
      </trkpt>
      <trkpt lat="42.10706" lon="1.37153">
        <ele>1026.8</ele>
        <time>2019-02-12T00:44:24Z</time>
      </trkpt>
      <trkpt lat="42.10713" lon="1.37164">
        <ele>1022.5</ele>
        <time>2019-02-12T00:44:30Z</time>
      </trkpt>
      <trkpt lat="42.10712" lon="1.37179">
        <ele>1021.6</ele>
        <time>2019-02-12T00:44:37Z</time>
      </trkpt>
      <trkpt lat="42.10714" lon="1.37192">
        <ele>1019.6</ele>
        <time>2019-02-12T00:44:42Z</time>
      </trkpt>
      <trkpt lat="42.10722" lon="1.37199">
        <ele>1019.6</ele>
        <time>2019-02-12T00:44:47Z</time>
      </trkpt>
      <trkpt lat="42.10731" lon="1.37208">
        <ele>1017.7</ele>
        <time>2019-02-12T00:44:54Z</time>
      </trkpt>
      <trkpt lat="42.10735" lon="1.37219">
        <ele>1014.5</ele>
        <time>2019-02-12T00:44:59Z</time>
      </trkpt>
      <trkpt lat="42.10739" lon="1.37235">
        <ele>1012.1</ele>
        <time>2019-02-12T00:45:06Z</time>
      </trkpt>
      <trkpt lat="42.10745" lon="1.37249">
        <ele>1010.1</ele>
        <time>2019-02-12T00:45:13Z</time>
      </trkpt>
      <trkpt lat="42.10742" lon="1.37262">
        <ele>1008</ele>
        <time>2019-02-12T00:45:19Z</time>
      </trkpt>
      <trkpt lat="42.10743" lon="1.37279">
        <ele>1004.9</ele>
        <time>2019-02-12T00:45:26Z</time>
      </trkpt>
      <trkpt lat="42.10734" lon="1.37269">
        <ele>1003.2</ele>
        <time>2019-02-12T00:45:33Z</time>
      </trkpt>
      <trkpt lat="42.1073" lon="1.37264">
        <ele>1004.2</ele>
        <time>2019-02-12T00:45:36Z</time>
      </trkpt>
      <trkpt lat="42.10723" lon="1.37275">
        <ele>1004.2</ele>
        <time>2019-02-12T00:45:42Z</time>
      </trkpt>
      <trkpt lat="42.10712" lon="1.37282">
        <ele>1004.8</ele>
        <time>2019-02-12T00:45:49Z</time>
      </trkpt>
      <trkpt lat="42.10695" lon="1.37292">
        <ele>1006.6</ele>
        <time>2019-02-12T00:46:00Z</time>
      </trkpt>
      <trkpt lat="42.10691" lon="1.37305">
        <ele>1007.2</ele>
        <time>2019-02-12T00:46:05Z</time>
      </trkpt>
      <trkpt lat="42.10689" lon="1.37322">
        <ele>1009.6</ele>
        <time>2019-02-12T00:46:13Z</time>
      </trkpt>
      <trkpt lat="42.10688" lon="1.37343">
        <ele>1009.1</ele>
        <time>2019-02-12T00:46:22Z</time>
      </trkpt>
      <trkpt lat="42.10688" lon="1.37358">
        <ele>1008.6</ele>
        <time>2019-02-12T00:46:28Z</time>
      </trkpt>
      <trkpt lat="42.10695" lon="1.3737">
        <ele>1009.1</ele>
        <time>2019-02-12T00:46:34Z</time>
      </trkpt>
      <trkpt lat="42.10701" lon="1.37382">
        <ele>1010.4</ele>
        <time>2019-02-12T00:46:41Z</time>
      </trkpt>
      <trkpt lat="42.10711" lon="1.37389">
        <ele>1011.4</ele>
        <time>2019-02-12T00:46:47Z</time>
      </trkpt>
      <trkpt lat="42.10721" lon="1.37393">
        <ele>1012.5</ele>
        <time>2019-02-12T00:46:53Z</time>
      </trkpt>
      <trkpt lat="42.10729" lon="1.37397">
        <ele>1013.8</ele>
        <time>2019-02-12T00:46:58Z</time>
      </trkpt>
      <trkpt lat="42.10739" lon="1.37399">
        <ele>1014.8</ele>
        <time>2019-02-12T00:47:04Z</time>
      </trkpt>
      <trkpt lat="42.10748" lon="1.37407">
        <ele>1016.2</ele>
        <time>2019-02-12T00:47:10Z</time>
      </trkpt>
      <trkpt lat="42.10756" lon="1.37412">
        <ele>1017.6</ele>
        <time>2019-02-12T00:47:15Z</time>
      </trkpt>
      <trkpt lat="42.10764" lon="1.37421">
        <ele>1016.9</ele>
        <time>2019-02-12T00:47:21Z</time>
      </trkpt>
      <trkpt lat="42.10771" lon="1.37431">
        <ele>1016.2</ele>
        <time>2019-02-12T00:47:27Z</time>
      </trkpt>
      <trkpt lat="42.10779" lon="1.37439">
        <ele>1018.7</ele>
        <time>2019-02-12T00:47:33Z</time>
      </trkpt>
      <trkpt lat="42.10788" lon="1.37447">
        <ele>1019.7</ele>
        <time>2019-02-12T00:47:38Z</time>
      </trkpt>
      <trkpt lat="42.10798" lon="1.37453">
        <ele>1019.3</ele>
        <time>2019-02-12T00:47:45Z</time>
      </trkpt>
      <trkpt lat="42.10806" lon="1.37462">
        <ele>1019.6</ele>
        <time>2019-02-12T00:47:51Z</time>
      </trkpt>
      <trkpt lat="42.10816" lon="1.3747">
        <ele>1019.7</ele>
        <time>2019-02-12T00:47:58Z</time>
      </trkpt>
      <trkpt lat="42.10826" lon="1.37473">
        <ele>1019.6</ele>
        <time>2019-02-12T00:48:03Z</time>
      </trkpt>
      <trkpt lat="42.10837" lon="1.37473">
        <ele>1021</ele>
        <time>2019-02-12T00:48:10Z</time>
      </trkpt>
      <trkpt lat="42.10849" lon="1.37477">
        <ele>1023</ele>
        <time>2019-02-12T00:48:17Z</time>
      </trkpt>
      <trkpt lat="42.10856" lon="1.37482">
        <ele>1023.4</ele>
        <time>2019-02-12T00:48:21Z</time>
      </trkpt>
      <trkpt lat="42.10868" lon="1.37486">
        <ele>1023.5</ele>
        <time>2019-02-12T00:48:28Z</time>
      </trkpt>
      <trkpt lat="42.10878" lon="1.3749">
        <ele>1025.1</ele>
        <time>2019-02-12T00:48:34Z</time>
      </trkpt>
      <trkpt lat="42.10887" lon="1.37496">
        <ele>1025.8</ele>
        <time>2019-02-12T00:48:40Z</time>
      </trkpt>
      <trkpt lat="42.10899" lon="1.37499">
        <ele>1027.8</ele>
        <time>2019-02-12T00:48:47Z</time>
      </trkpt>
      <trkpt lat="42.1091" lon="1.37502">
        <ele>1030.6</ele>
        <time>2019-02-12T00:48:53Z</time>
      </trkpt>
      <trkpt lat="42.10918" lon="1.37507">
        <ele>1031.3</ele>
        <time>2019-02-12T00:48:59Z</time>
      </trkpt>
      <trkpt lat="42.10926" lon="1.37512">
        <ele>1031.7</ele>
        <time>2019-02-12T00:49:04Z</time>
      </trkpt>
      <trkpt lat="42.10936" lon="1.37517">
        <ele>1032.2</ele>
        <time>2019-02-12T00:49:10Z</time>
      </trkpt>
      <trkpt lat="42.10945" lon="1.37521">
        <ele>1034.6</ele>
        <time>2019-02-12T00:49:15Z</time>
      </trkpt>
      <trkpt lat="42.10958" lon="1.37523">
        <ele>1034.6</ele>
        <time>2019-02-12T00:49:22Z</time>
      </trkpt>
      <trkpt lat="42.1097" lon="1.37524">
        <ele>1037.8</ele>
        <time>2019-02-12T00:49:29Z</time>
      </trkpt>
      <trkpt lat="42.10981" lon="1.37523">
        <ele>1039.5</ele>
        <time>2019-02-12T00:49:36Z</time>
      </trkpt>
      <trkpt lat="42.1099" lon="1.37518">
        <ele>1041.3</ele>
        <time>2019-02-12T00:49:41Z</time>
      </trkpt>
      <trkpt lat="42.10998" lon="1.3751">
        <ele>1042.6</ele>
        <time>2019-02-12T00:49:47Z</time>
      </trkpt>
      <trkpt lat="42.1101" lon="1.37509">
        <ele>1042.3</ele>
        <time>2019-02-12T00:49:54Z</time>
      </trkpt>
      <trkpt lat="42.11018" lon="1.3752">
        <ele>1045.1</ele>
        <time>2019-02-12T00:50:00Z</time>
      </trkpt>
      <trkpt lat="42.11028" lon="1.37527">
        <ele>1046.1</ele>
        <time>2019-02-12T00:50:07Z</time>
      </trkpt>
      <trkpt lat="42.11041" lon="1.37521">
        <ele>1046.1</ele>
        <time>2019-02-12T00:50:15Z</time>
      </trkpt>
      <trkpt lat="42.11055" lon="1.37524">
        <ele>1047.4</ele>
        <time>2019-02-12T00:50:23Z</time>
      </trkpt>
      <trkpt lat="42.11055" lon="1.37532">
        <ele>1048.4</ele>
        <time>2019-02-12T00:50:27Z</time>
      </trkpt>
      <trkpt lat="42.11047" lon="1.37539">
        <ele>1049.4</ele>
        <time>2019-02-12T00:50:32Z</time>
      </trkpt>
      <trkpt lat="42.1104" lon="1.3755">
        <ele>1052.9</ele>
        <time>2019-02-12T00:50:38Z</time>
      </trkpt>
      <trkpt lat="42.11039" lon="1.37564">
        <ele>1053.9</ele>
        <time>2019-02-12T00:50:44Z</time>
      </trkpt>
      <trkpt lat="42.11041" lon="1.37579">
        <ele>1055.2</ele>
        <time>2019-02-12T00:50:51Z</time>
      </trkpt>
      <trkpt lat="42.11039" lon="1.37597">
        <ele>1057.6</ele>
        <time>2019-02-12T00:50:58Z</time>
      </trkpt>
      <trkpt lat="42.11041" lon="1.37619">
        <ele>1061.1</ele>
        <time>2019-02-12T00:51:08Z</time>
      </trkpt>
      <trkpt lat="42.11044" lon="1.37633">
        <ele>1065.2</ele>
        <time>2019-02-12T00:51:14Z</time>
      </trkpt>
      <trkpt lat="42.11048" lon="1.37643">
        <ele>1067.7</ele>
        <time>2019-02-12T00:51:19Z</time>
      </trkpt>
      <trkpt lat="42.11051" lon="1.37659">
        <ele>1070.6</ele>
        <time>2019-02-12T00:51:26Z</time>
      </trkpt>
      <trkpt lat="42.11058" lon="1.37674">
        <ele>1072</ele>
        <time>2019-02-12T00:51:33Z</time>
      </trkpt>
      <trkpt lat="42.11067" lon="1.37683">
        <ele>1073.4</ele>
        <time>2019-02-12T00:51:40Z</time>
      </trkpt>
      <trkpt lat="42.11075" lon="1.37698">
        <ele>1076.8</ele>
        <time>2019-02-12T00:51:47Z</time>
      </trkpt>
      <trkpt lat="42.11079" lon="1.3772">
        <ele>1079.7</ele>
        <time>2019-02-12T00:51:57Z</time>
      </trkpt>
      <trkpt lat="42.11086" lon="1.37733">
        <ele>1078.9</ele>
        <time>2019-02-12T00:52:04Z</time>
      </trkpt>
      <trkpt lat="42.11092" lon="1.37746">
        <ele>1079.7</ele>
        <time>2019-02-12T00:52:10Z</time>
      </trkpt>
      <trkpt lat="42.11102" lon="1.37755">
        <ele>1081.7</ele>
        <time>2019-02-12T00:52:17Z</time>
      </trkpt>
      <trkpt lat="42.11106" lon="1.37771">
        <ele>1084.7</ele>
        <time>2019-02-12T00:52:24Z</time>
      </trkpt>
      <trkpt lat="42.11113" lon="1.37783">
        <ele>1087.9</ele>
        <time>2019-02-12T00:52:30Z</time>
      </trkpt>
      <trkpt lat="42.11124" lon="1.378">
        <ele>1089.5</ele>
        <time>2019-02-12T00:52:40Z</time>
      </trkpt>
      <trkpt lat="42.11133" lon="1.37811">
        <ele>1089.9</ele>
        <time>2019-02-12T00:52:47Z</time>
      </trkpt>
      <trkpt lat="42.11138" lon="1.37823">
        <ele>1090.3</ele>
        <time>2019-02-12T00:52:53Z</time>
      </trkpt>
      <trkpt lat="42.11145" lon="1.37832">
        <ele>1089.4</ele>
        <time>2019-02-12T00:52:58Z</time>
      </trkpt>
      <trkpt lat="42.11152" lon="1.3784">
        <ele>1090.2</ele>
        <time>2019-02-12T00:53:03Z</time>
      </trkpt>
      <trkpt lat="42.11159" lon="1.37847">
        <ele>1091.8</ele>
        <time>2019-02-12T00:53:09Z</time>
      </trkpt>
      <trkpt lat="42.11169" lon="1.37855">
        <ele>1094.2</ele>
        <time>2019-02-12T00:53:15Z</time>
      </trkpt>
      <trkpt lat="42.11177" lon="1.37866">
        <ele>1097.4</ele>
        <time>2019-02-12T00:53:22Z</time>
      </trkpt>
      <trkpt lat="42.11188" lon="1.37875">
        <ele>1098.4</ele>
        <time>2019-02-12T00:53:29Z</time>
      </trkpt>
      <trkpt lat="42.11195" lon="1.3789">
        <ele>1097.4</ele>
        <time>2019-02-12T00:53:37Z</time>
      </trkpt>
      <trkpt lat="42.11205" lon="1.379">
        <ele>1096.7</ele>
        <time>2019-02-12T00:53:44Z</time>
      </trkpt>
      <trkpt lat="42.11212" lon="1.3791">
        <ele>1098.5</ele>
        <time>2019-02-12T00:53:50Z</time>
      </trkpt>
      <trkpt lat="42.11218" lon="1.37922">
        <ele>1099.9</ele>
        <time>2019-02-12T00:53:56Z</time>
      </trkpt>
      <trkpt lat="42.11225" lon="1.37933">
        <ele>1101.4</ele>
        <time>2019-02-12T00:54:02Z</time>
      </trkpt>
      <trkpt lat="42.11234" lon="1.3794">
        <ele>1103.8</ele>
        <time>2019-02-12T00:54:08Z</time>
      </trkpt>
      <trkpt lat="42.11247" lon="1.3795">
        <ele>1106.2</ele>
        <time>2019-02-12T00:54:16Z</time>
      </trkpt>
      <trkpt lat="42.11259" lon="1.37957">
        <ele>1109.1</ele>
        <time>2019-02-12T00:54:24Z</time>
      </trkpt>
      <trkpt lat="42.11269" lon="1.37964">
        <ele>1109.5</ele>
        <time>2019-02-12T00:54:30Z</time>
      </trkpt>
      <trkpt lat="42.11282" lon="1.37968">
        <ele>1110.4</ele>
        <time>2019-02-12T00:54:38Z</time>
      </trkpt>
      <trkpt lat="42.11293" lon="1.37976">
        <ele>1114.9</ele>
        <time>2019-02-12T00:54:45Z</time>
      </trkpt>
      <trkpt lat="42.11304" lon="1.37984">
        <ele>1118.6</ele>
        <time>2019-02-12T00:54:52Z</time>
      </trkpt>
      <trkpt lat="42.11319" lon="1.37991">
        <ele>1123.4</ele>
        <time>2019-02-12T00:55:01Z</time>
      </trkpt>
      <trkpt lat="42.1133" lon="1.37993">
        <ele>1125.8</ele>
        <time>2019-02-12T00:55:08Z</time>
      </trkpt>
      <trkpt lat="42.1134" lon="1.37994">
        <ele>1127.9</ele>
        <time>2019-02-12T00:55:14Z</time>
      </trkpt>
      <trkpt lat="42.1135" lon="1.37996">
        <ele>1129.3</ele>
        <time>2019-02-12T00:55:20Z</time>
      </trkpt>
      <trkpt lat="42.1136" lon="1.37994">
        <ele>1131.6</ele>
        <time>2019-02-12T00:55:25Z</time>
      </trkpt>
      <trkpt lat="42.11372" lon="1.38">
        <ele>1135</ele>
        <time>2019-02-12T00:55:32Z</time>
      </trkpt>
      <trkpt lat="42.11382" lon="1.37999">
        <ele>1135.5</ele>
        <time>2019-02-12T00:55:38Z</time>
      </trkpt>
      <trkpt lat="42.11393" lon="1.37996">
        <ele>1135</ele>
        <time>2019-02-12T00:55:44Z</time>
      </trkpt>
      <trkpt lat="42.114" lon="1.38003">
        <ele>1131.7</ele>
        <time>2019-02-12T00:55:50Z</time>
      </trkpt>
      <trkpt lat="42.11396" lon="1.38017">
        <ele>1129.6</ele>
        <time>2019-02-12T00:55:56Z</time>
      </trkpt>
      <trkpt lat="42.11392" lon="1.3803">
        <ele>1131.6</ele>
        <time>2019-02-12T00:56:02Z</time>
      </trkpt>
      <trkpt lat="42.11386" lon="1.38045">
        <ele>1134.1</ele>
        <time>2019-02-12T00:56:09Z</time>
      </trkpt>
      <trkpt lat="42.1139" lon="1.38059">
        <ele>1136.1</ele>
        <time>2019-02-12T00:56:15Z</time>
      </trkpt>
      <trkpt lat="42.11399" lon="1.38044">
        <ele>1138.4</ele>
        <time>2019-02-12T00:56:23Z</time>
      </trkpt>
      <trkpt lat="42.11407" lon="1.38031">
        <ele>1140.9</ele>
        <time>2019-02-12T00:56:30Z</time>
      </trkpt>
      <trkpt lat="42.11413" lon="1.38022">
        <ele>1143.2</ele>
        <time>2019-02-12T00:56:36Z</time>
      </trkpt>
      <trkpt lat="42.11422" lon="1.38017">
        <ele>1146.6</ele>
        <time>2019-02-12T00:56:41Z</time>
      </trkpt>
      <trkpt lat="42.11434" lon="1.38008">
        <ele>1149.5</ele>
        <time>2019-02-12T00:56:49Z</time>
      </trkpt>
      <trkpt lat="42.11447" lon="1.38004">
        <ele>1152.8</ele>
        <time>2019-02-12T00:56:57Z</time>
      </trkpt>
      <trkpt lat="42.11454" lon="1.38011">
        <ele>1155.6</ele>
        <time>2019-02-12T00:57:02Z</time>
      </trkpt>
      <trkpt lat="42.11443" lon="1.38016">
        <ele>1157.1</ele>
        <time>2019-02-12T00:57:08Z</time>
      </trkpt>
      <trkpt lat="42.1144" lon="1.3803">
        <ele>1159.1</ele>
        <time>2019-02-12T00:57:14Z</time>
      </trkpt>
      <trkpt lat="42.11437" lon="1.38048">
        <ele>1161.8</ele>
        <time>2019-02-12T00:57:22Z</time>
      </trkpt>
      <trkpt lat="42.11435" lon="1.38061">
        <ele>1164.9</ele>
        <time>2019-02-12T00:57:28Z</time>
      </trkpt>
      <trkpt lat="42.11444" lon="1.38053">
        <ele>1167.6</ele>
        <time>2019-02-12T00:57:34Z</time>
      </trkpt>
      <trkpt lat="42.11457" lon="1.38048">
        <ele>1169.7</ele>
        <time>2019-02-12T00:57:42Z</time>
      </trkpt>
      <trkpt lat="42.11466" lon="1.38045">
        <ele>1171</ele>
        <time>2019-02-12T00:57:47Z</time>
      </trkpt>
      <trkpt lat="42.11478" lon="1.38043">
        <ele>1173</ele>
        <time>2019-02-12T00:57:54Z</time>
      </trkpt>
      <trkpt lat="42.11487" lon="1.38035">
        <ele>1174</ele>
        <time>2019-02-12T00:58:00Z</time>
      </trkpt>
      <trkpt lat="42.11495" lon="1.38028">
        <ele>1175.5</ele>
        <time>2019-02-12T00:58:06Z</time>
      </trkpt>
      <trkpt lat="42.11505" lon="1.38023">
        <ele>1176.9</ele>
        <time>2019-02-12T00:58:12Z</time>
      </trkpt>
      <trkpt lat="42.11516" lon="1.38015">
        <ele>1178.3</ele>
        <time>2019-02-12T00:58:19Z</time>
      </trkpt>
      <trkpt lat="42.11527" lon="1.38008">
        <ele>1178.8</ele>
        <time>2019-02-12T00:58:26Z</time>
      </trkpt>
      <trkpt lat="42.11537" lon="1.38002">
        <ele>1179.6</ele>
        <time>2019-02-12T00:58:32Z</time>
      </trkpt>
      <trkpt lat="42.11534" lon="1.38023">
        <ele>1178.3</ele>
        <time>2019-02-12T00:58:41Z</time>
      </trkpt>
      <trkpt lat="42.11533" lon="1.38037">
        <ele>1179.3</ele>
        <time>2019-02-12T00:58:47Z</time>
      </trkpt>
      <trkpt lat="42.11535" lon="1.38048">
        <ele>1181.2</ele>
        <time>2019-02-12T00:58:52Z</time>
      </trkpt>
      <trkpt lat="42.11537" lon="1.38061">
        <ele>1184.4</ele>
        <time>2019-02-12T00:58:58Z</time>
      </trkpt>
      <trkpt lat="42.11537" lon="1.38076">
        <ele>1186.4</ele>
        <time>2019-02-12T00:59:04Z</time>
      </trkpt>
      <trkpt lat="42.11541" lon="1.38084">
        <ele>1188.9</ele>
        <time>2019-02-12T00:59:08Z</time>
      </trkpt>
      <trkpt lat="42.11548" lon="1.38087">
        <ele>1192.2</ele>
        <time>2019-02-12T00:59:12Z</time>
      </trkpt>
      <trkpt lat="42.11559" lon="1.38081">
        <ele>1194.1</ele>
        <time>2019-02-12T00:59:19Z</time>
      </trkpt>
      <trkpt lat="42.11568" lon="1.38078">
        <ele>1197.1</ele>
        <time>2019-02-12T00:59:24Z</time>
      </trkpt>
      <trkpt lat="42.11577" lon="1.38075">
        <ele>1200.4</ele>
        <time>2019-02-12T00:59:29Z</time>
      </trkpt>
      <trkpt lat="42.11586" lon="1.38074">
        <ele>1204.3</ele>
        <time>2019-02-12T00:59:35Z</time>
      </trkpt>
      <trkpt lat="42.11595" lon="1.38075">
        <ele>1206.2</ele>
        <time>2019-02-12T00:59:40Z</time>
      </trkpt>
      <trkpt lat="42.11604" lon="1.38077">
        <ele>1210</ele>
        <time>2019-02-12T00:59:45Z</time>
      </trkpt>
      <trkpt lat="42.11613" lon="1.3808">
        <ele>1211</ele>
        <time>2019-02-12T00:59:51Z</time>
      </trkpt>
      <trkpt lat="42.11623" lon="1.38073">
        <ele>1210.4</ele>
        <time>2019-02-12T00:59:57Z</time>
      </trkpt>
      <trkpt lat="42.11631" lon="1.38082">
        <ele>1209.4</ele>
        <time>2019-02-12T01:00:03Z</time>
      </trkpt>
      <trkpt lat="42.11637" lon="1.38078">
        <ele>1207</ele>
        <time>2019-02-12T01:00:07Z</time>
      </trkpt>
      <trkpt lat="42.11644" lon="1.38069">
        <ele>1208.6</ele>
        <time>2019-02-12T01:00:12Z</time>
      </trkpt>
      <trkpt lat="42.11654" lon="1.38063">
        <ele>1209.4</ele>
        <time>2019-02-12T01:00:18Z</time>
      </trkpt>
      <trkpt lat="42.11665" lon="1.38057">
        <ele>1209.4</ele>
        <time>2019-02-12T01:00:25Z</time>
      </trkpt>
      <trkpt lat="42.11676" lon="1.38051">
        <ele>1209.5</ele>
        <time>2019-02-12T01:00:32Z</time>
      </trkpt>
      <trkpt lat="42.11686" lon="1.38045">
        <ele>1210.1</ele>
        <time>2019-02-12T01:00:38Z</time>
      </trkpt>
      <trkpt lat="42.11697" lon="1.38038">
        <ele>1210</ele>
        <time>2019-02-12T01:00:45Z</time>
      </trkpt>
      <trkpt lat="42.11708" lon="1.38031">
        <ele>1210</ele>
        <time>2019-02-12T01:00:52Z</time>
      </trkpt>
      <trkpt lat="42.11718" lon="1.38026">
        <ele>1210.1</ele>
        <time>2019-02-12T01:00:58Z</time>
      </trkpt>
      <trkpt lat="42.11729" lon="1.3802">
        <ele>1210.4</ele>
        <time>2019-02-12T01:01:05Z</time>
      </trkpt>
      <trkpt lat="42.1174" lon="1.38012">
        <ele>1211</ele>
        <time>2019-02-12T01:01:12Z</time>
      </trkpt>
      <trkpt lat="42.1175" lon="1.38005">
        <ele>1210.5</ele>
        <time>2019-02-12T01:01:19Z</time>
      </trkpt>
      <trkpt lat="42.11761" lon="1.37997">
        <ele>1210.5</ele>
        <time>2019-02-12T01:01:26Z</time>
      </trkpt>
      <trkpt lat="42.1177" lon="1.3799">
        <ele>1210.1</ele>
        <time>2019-02-12T01:01:32Z</time>
      </trkpt>
      <trkpt lat="42.11779" lon="1.37985">
        <ele>1210.1</ele>
        <time>2019-02-12T01:01:38Z</time>
      </trkpt>
      <trkpt lat="42.11789" lon="1.37977">
        <ele>1209</ele>
        <time>2019-02-12T01:01:44Z</time>
      </trkpt>
      <trkpt lat="42.118" lon="1.3797">
        <ele>1209</ele>
        <time>2019-02-12T01:01:51Z</time>
      </trkpt>
      <trkpt lat="42.1181" lon="1.37962">
        <ele>1208.6</ele>
        <time>2019-02-12T01:01:58Z</time>
      </trkpt>
      <trkpt lat="42.11821" lon="1.37954">
        <ele>1207.7</ele>
        <time>2019-02-12T01:02:05Z</time>
      </trkpt>
      <trkpt lat="42.11831" lon="1.37948">
        <ele>1207.1</ele>
        <time>2019-02-12T01:02:11Z</time>
      </trkpt>
      <trkpt lat="42.1184" lon="1.37942">
        <ele>1206.6</ele>
        <time>2019-02-12T01:02:17Z</time>
      </trkpt>
      <trkpt lat="42.11848" lon="1.37936">
        <ele>1206.2</ele>
        <time>2019-02-12T01:02:22Z</time>
      </trkpt>
      <trkpt lat="42.11857" lon="1.37929">
        <ele>1204.6</ele>
        <time>2019-02-12T01:02:28Z</time>
      </trkpt>
      <trkpt lat="42.11866" lon="1.37925">
        <ele>1204.3</ele>
        <time>2019-02-12T01:02:34Z</time>
      </trkpt>
      <trkpt lat="42.11876" lon="1.3792">
        <ele>1202.8</ele>
        <time>2019-02-12T01:02:39Z</time>
      </trkpt>
      <trkpt lat="42.11885" lon="1.37917">
        <ele>1202.9</ele>
        <time>2019-02-12T01:02:45Z</time>
      </trkpt>
      <trkpt lat="42.11894" lon="1.37913">
        <ele>1199.9</ele>
        <time>2019-02-12T01:02:50Z</time>
      </trkpt>
      <trkpt lat="42.11901" lon="1.37909">
        <ele>1199.1</ele>
        <time>2019-02-12T01:02:55Z</time>
      </trkpt>
      <trkpt lat="42.1191" lon="1.37906">
        <ele>1198.5</ele>
        <time>2019-02-12T01:03:00Z</time>
      </trkpt>
      <trkpt lat="42.1192" lon="1.37905">
        <ele>1199.1</ele>
        <time>2019-02-12T01:03:06Z</time>
      </trkpt>
      <trkpt lat="42.1193" lon="1.37908">
        <ele>1197.4</ele>
        <time>2019-02-12T01:03:12Z</time>
      </trkpt>
      <trkpt lat="42.1194" lon="1.37911">
        <ele>1197</ele>
        <time>2019-02-12T01:03:17Z</time>
      </trkpt>
      <trkpt lat="42.11948" lon="1.37919">
        <ele>1197</ele>
        <time>2019-02-12T01:03:23Z</time>
      </trkpt>
      <trkpt lat="42.11954" lon="1.37929">
        <ele>1195</ele>
        <time>2019-02-12T01:03:28Z</time>
      </trkpt>
      <trkpt lat="42.11961" lon="1.37939">
        <ele>1195.6</ele>
        <time>2019-02-12T01:03:34Z</time>
      </trkpt>
      <trkpt lat="42.11967" lon="1.37948">
        <ele>1196.5</ele>
        <time>2019-02-12T01:03:39Z</time>
      </trkpt>
      <trkpt lat="42.11972" lon="1.3796">
        <ele>1199.4</ele>
        <time>2019-02-12T01:03:45Z</time>
      </trkpt>
      <trkpt lat="42.11979" lon="1.37967">
        <ele>1203.3</ele>
        <time>2019-02-12T01:03:50Z</time>
      </trkpt>
      <trkpt lat="42.11986" lon="1.37977">
        <ele>1206.7</ele>
        <time>2019-02-12T01:03:56Z</time>
      </trkpt>
      <trkpt lat="42.11996" lon="1.37985">
        <ele>1210.5</ele>
        <time>2019-02-12T01:04:03Z</time>
      </trkpt>
      <trkpt lat="42.12005" lon="1.37991">
        <ele>1212.9</ele>
        <time>2019-02-12T01:04:08Z</time>
      </trkpt>
      <trkpt lat="42.12015" lon="1.37997">
        <ele>1215.2</ele>
        <time>2019-02-12T01:04:15Z</time>
      </trkpt>
      <trkpt lat="42.12024" lon="1.37999">
        <ele>1216.6</ele>
        <time>2019-02-12T01:04:20Z</time>
      </trkpt>
      <trkpt lat="42.12034" lon="1.38001">
        <ele>1219.6</ele>
        <time>2019-02-12T01:04:26Z</time>
      </trkpt>
      <trkpt lat="42.12045" lon="1.38001">
        <ele>1221</ele>
        <time>2019-02-12T01:04:32Z</time>
      </trkpt>
      <trkpt lat="42.12053" lon="1.38">
        <ele>1222.4</ele>
        <time>2019-02-12T01:04:37Z</time>
      </trkpt>
      <trkpt lat="42.12063" lon="1.37991">
        <ele>1225.5</ele>
        <time>2019-02-12T01:04:44Z</time>
      </trkpt>
      <trkpt lat="42.12071" lon="1.37981">
        <ele>1227.3</ele>
        <time>2019-02-12T01:04:50Z</time>
      </trkpt>
      <trkpt lat="42.1208" lon="1.37971">
        <ele>1231.3</ele>
        <time>2019-02-12T01:04:56Z</time>
      </trkpt>
      <trkpt lat="42.12089" lon="1.37965">
        <ele>1234.1</ele>
        <time>2019-02-12T01:05:02Z</time>
      </trkpt>
      <trkpt lat="42.12094" lon="1.37956">
        <ele>1236.5</ele>
        <time>2019-02-12T01:05:07Z</time>
      </trkpt>
      <trkpt lat="42.12104" lon="1.37946">
        <ele>1237.9</ele>
        <time>2019-02-12T01:05:14Z</time>
      </trkpt>
      <trkpt lat="42.12111" lon="1.37945">
        <ele>1239.3</ele>
        <time>2019-02-12T01:05:18Z</time>
      </trkpt>
      <trkpt lat="42.12121" lon="1.37944">
        <ele>1238.8</ele>
        <time>2019-02-12T01:05:23Z</time>
      </trkpt>
      <trkpt lat="42.1213" lon="1.37942">
        <ele>1237.8</ele>
        <time>2019-02-12T01:05:29Z</time>
      </trkpt>
      <trkpt lat="42.12141" lon="1.37939">
        <ele>1239.3</ele>
        <time>2019-02-12T01:05:35Z</time>
      </trkpt>
      <trkpt lat="42.1215" lon="1.37938">
        <ele>1240.3</ele>
        <time>2019-02-12T01:05:41Z</time>
      </trkpt>
      <trkpt lat="42.12161" lon="1.37935">
        <ele>1243.7</ele>
        <time>2019-02-12T01:05:47Z</time>
      </trkpt>
      <trkpt lat="42.1217" lon="1.37937">
        <ele>1245.7</ele>
        <time>2019-02-12T01:05:52Z</time>
      </trkpt>
      <trkpt lat="42.12182" lon="1.37938">
        <ele>1248.9</ele>
        <time>2019-02-12T01:05:59Z</time>
      </trkpt>
      <trkpt lat="42.12189" lon="1.37944">
        <ele>1249.9</ele>
        <time>2019-02-12T01:06:04Z</time>
      </trkpt>
      <trkpt lat="42.12199" lon="1.37951">
        <ele>1250.4</ele>
        <time>2019-02-12T01:06:10Z</time>
      </trkpt>
      <trkpt lat="42.12208" lon="1.37958">
        <ele>1250.8</ele>
        <time>2019-02-12T01:06:16Z</time>
      </trkpt>
      <trkpt lat="42.12216" lon="1.37964">
        <ele>1252.3</ele>
        <time>2019-02-12T01:06:21Z</time>
      </trkpt>
      <trkpt lat="42.12223" lon="1.37971">
        <ele>1253.2</ele>
        <time>2019-02-12T01:06:26Z</time>
      </trkpt>
      <trkpt lat="42.12234" lon="1.37978">
        <ele>1253.6</ele>
        <time>2019-02-12T01:06:33Z</time>
      </trkpt>
      <trkpt lat="42.12242" lon="1.3798">
        <ele>1251.3</ele>
        <time>2019-02-12T01:06:38Z</time>
      </trkpt>
      <trkpt lat="42.12251" lon="1.37987">
        <ele>1249.8</ele>
        <time>2019-02-12T01:06:44Z</time>
      </trkpt>
      <trkpt lat="42.1226" lon="1.37995">
        <ele>1246.5</ele>
        <time>2019-02-12T01:06:50Z</time>
      </trkpt>
      <trkpt lat="42.12269" lon="1.37998">
        <ele>1245.6</ele>
        <time>2019-02-12T01:06:55Z</time>
      </trkpt>
      <trkpt lat="42.12277" lon="1.38004">
        <ele>1245</ele>
        <time>2019-02-12T01:07:00Z</time>
      </trkpt>
      <trkpt lat="42.12283" lon="1.38014">
        <ele>1245</ele>
        <time>2019-02-12T01:07:06Z</time>
      </trkpt>
      <trkpt lat="42.12291" lon="1.3802">
        <ele>1245.1</ele>
        <time>2019-02-12T01:07:11Z</time>
      </trkpt>
      <trkpt lat="42.12302" lon="1.38025">
        <ele>1244.1</ele>
        <time>2019-02-12T01:07:17Z</time>
      </trkpt>
      <trkpt lat="42.12311" lon="1.38031">
        <ele>1241.7</ele>
        <time>2019-02-12T01:07:23Z</time>
      </trkpt>
      <trkpt lat="42.12323" lon="1.38035">
        <ele>1240.2</ele>
        <time>2019-02-12T01:07:30Z</time>
      </trkpt>
      <trkpt lat="42.1233" lon="1.3804">
        <ele>1237.4</ele>
        <time>2019-02-12T01:07:35Z</time>
      </trkpt>
      <trkpt lat="42.12341" lon="1.38043">
        <ele>1234</ele>
        <time>2019-02-12T01:07:41Z</time>
      </trkpt>
      <trkpt lat="42.1235" lon="1.38045">
        <ele>1233.1</ele>
        <time>2019-02-12T01:07:46Z</time>
      </trkpt>
      <trkpt lat="42.12359" lon="1.38047">
        <ele>1232</ele>
        <time>2019-02-12T01:07:52Z</time>
      </trkpt>
      <trkpt lat="42.12367" lon="1.38047">
        <ele>1229.6</ele>
        <time>2019-02-12T01:07:57Z</time>
      </trkpt>
      <trkpt lat="42.12377" lon="1.3805">
        <ele>1231.3</ele>
        <time>2019-02-12T01:08:02Z</time>
      </trkpt>
      <trkpt lat="42.12387" lon="1.3805">
        <ele>1232</ele>
        <time>2019-02-12T01:08:08Z</time>
      </trkpt>
      <trkpt lat="42.12397" lon="1.38052">
        <ele>1232</ele>
        <time>2019-02-12T01:08:13Z</time>
      </trkpt>
      <trkpt lat="42.12407" lon="1.38051">
        <ele>1232.1</ele>
        <time>2019-02-12T01:08:19Z</time>
      </trkpt>
      <trkpt lat="42.12418" lon="1.3805">
        <ele>1233.7</ele>
        <time>2019-02-12T01:08:26Z</time>
      </trkpt>
      <trkpt lat="42.12426" lon="1.38052">
        <ele>1235.4</ele>
        <time>2019-02-12T01:08:31Z</time>
      </trkpt>
      <trkpt lat="42.12435" lon="1.38058">
        <ele>1238.4</ele>
        <time>2019-02-12T01:08:36Z</time>
      </trkpt>
      <trkpt lat="42.12446" lon="1.3806">
        <ele>1242.2</ele>
        <time>2019-02-12T01:08:42Z</time>
      </trkpt>
      <trkpt lat="42.12456" lon="1.38062">
        <ele>1246</ele>
        <time>2019-02-12T01:08:48Z</time>
      </trkpt>
      <trkpt lat="42.12466" lon="1.38067">
        <ele>1249.4</ele>
        <time>2019-02-12T01:08:54Z</time>
      </trkpt>
      <trkpt lat="42.12477" lon="1.38073">
        <ele>1250.8</ele>
        <time>2019-02-12T01:09:01Z</time>
      </trkpt>
      <trkpt lat="42.12488" lon="1.38078">
        <ele>1254.2</ele>
        <time>2019-02-12T01:09:08Z</time>
      </trkpt>
      <trkpt lat="42.12499" lon="1.38084">
        <ele>1257.7</ele>
        <time>2019-02-12T01:09:14Z</time>
      </trkpt>
      <trkpt lat="42.12509" lon="1.3809">
        <ele>1262.5</ele>
        <time>2019-02-12T01:09:21Z</time>
      </trkpt>
      <trkpt lat="42.1252" lon="1.38094">
        <ele>1263.9</ele>
        <time>2019-02-12T01:09:27Z</time>
      </trkpt>
      <trkpt lat="42.12531" lon="1.381">
        <ele>1265.3</ele>
        <time>2019-02-12T01:09:34Z</time>
      </trkpt>
      <trkpt lat="42.1254" lon="1.38104">
        <ele>1266.6</ele>
        <time>2019-02-12T01:09:40Z</time>
      </trkpt>
      <trkpt lat="42.12551" lon="1.38107">
        <ele>1267.6</ele>
        <time>2019-02-12T01:09:46Z</time>
      </trkpt>
      <trkpt lat="42.1256" lon="1.38107">
        <ele>1270.1</ele>
        <time>2019-02-12T01:09:51Z</time>
      </trkpt>
      <trkpt lat="42.1257" lon="1.38107">
        <ele>1273.1</ele>
        <time>2019-02-12T01:09:57Z</time>
      </trkpt>
      <trkpt lat="42.12581" lon="1.38111">
        <ele>1273.4</ele>
        <time>2019-02-12T01:10:03Z</time>
      </trkpt>
      <trkpt lat="42.1259" lon="1.38113">
        <ele>1276.2</ele>
        <time>2019-02-12T01:10:08Z</time>
      </trkpt>
      <trkpt lat="42.12598" lon="1.38116">
        <ele>1277.2</ele>
        <time>2019-02-12T01:10:13Z</time>
      </trkpt>
      <trkpt lat="42.12607" lon="1.38119">
        <ele>1277.8</ele>
        <time>2019-02-12T01:10:19Z</time>
      </trkpt>
      <trkpt lat="42.12618" lon="1.38118">
        <ele>1278.7</ele>
        <time>2019-02-12T01:10:25Z</time>
      </trkpt>
      <trkpt lat="42.12628" lon="1.38121">
        <ele>1280.3</ele>
        <time>2019-02-12T01:10:30Z</time>
      </trkpt>
      <trkpt lat="42.12638" lon="1.38119">
        <ele>1283</ele>
        <time>2019-02-12T01:10:36Z</time>
      </trkpt>
      <trkpt lat="42.12647" lon="1.38121">
        <ele>1283</ele>
        <time>2019-02-12T01:10:42Z</time>
      </trkpt>
      <trkpt lat="42.12657" lon="1.3812">
        <ele>1285.4</ele>
        <time>2019-02-12T01:10:47Z</time>
      </trkpt>
      <trkpt lat="42.12669" lon="1.38123">
        <ele>1284.4</ele>
        <time>2019-02-12T01:10:54Z</time>
      </trkpt>
      <trkpt lat="42.12679" lon="1.38119">
        <ele>1286.1</ele>
        <time>2019-02-12T01:11:00Z</time>
      </trkpt>
      <trkpt lat="42.12689" lon="1.38113">
        <ele>1284.4</ele>
        <time>2019-02-12T01:11:07Z</time>
      </trkpt>
      <trkpt lat="42.12699" lon="1.38109">
        <ele>1286</ele>
        <time>2019-02-12T01:11:12Z</time>
      </trkpt>
      <trkpt lat="42.12706" lon="1.38107">
        <ele>1286.5</ele>
        <time>2019-02-12T01:11:17Z</time>
      </trkpt>
      <trkpt lat="42.12716" lon="1.38104">
        <ele>1284.5</ele>
        <time>2019-02-12T01:11:22Z</time>
      </trkpt>
      <trkpt lat="42.12725" lon="1.38099">
        <ele>1286.9</ele>
        <time>2019-02-12T01:11:28Z</time>
      </trkpt>
      <trkpt lat="42.12735" lon="1.38098">
        <ele>1286.8</ele>
        <time>2019-02-12T01:11:34Z</time>
      </trkpt>
      <trkpt lat="42.12744" lon="1.38092">
        <ele>1289.8</ele>
        <time>2019-02-12T01:11:39Z</time>
      </trkpt>
      <trkpt lat="42.12752" lon="1.38083">
        <ele>1292.6</ele>
        <time>2019-02-12T01:11:45Z</time>
      </trkpt>
      <trkpt lat="42.12759" lon="1.38077">
        <ele>1294.6</ele>
        <time>2019-02-12T01:11:50Z</time>
      </trkpt>
      <trkpt lat="42.12766" lon="1.38065">
        <ele>1295.7</ele>
        <time>2019-02-12T01:11:57Z</time>
      </trkpt>
      <trkpt lat="42.12774" lon="1.38052">
        <ele>1296.4</ele>
        <time>2019-02-12T01:12:04Z</time>
      </trkpt>
      <trkpt lat="42.12781" lon="1.38042">
        <ele>1297.4</ele>
        <time>2019-02-12T01:12:10Z</time>
      </trkpt>
      <trkpt lat="42.12793" lon="1.38037">
        <ele>1296.4</ele>
        <time>2019-02-12T01:12:17Z</time>
      </trkpt>
      <trkpt lat="42.12804" lon="1.38034">
        <ele>1294</ele>
        <time>2019-02-12T01:12:23Z</time>
      </trkpt>
      <trkpt lat="42.12813" lon="1.38022">
        <ele>1293.3</ele>
        <time>2019-02-12T01:12:31Z</time>
      </trkpt>
      <trkpt lat="42.12822" lon="1.38012">
        <ele>1292.6</ele>
        <time>2019-02-12T01:12:37Z</time>
      </trkpt>
      <trkpt lat="42.12832" lon="1.38003">
        <ele>1292.7</ele>
        <time>2019-02-12T01:12:44Z</time>
      </trkpt>
      <trkpt lat="42.12841" lon="1.37996">
        <ele>1293.2</ele>
        <time>2019-02-12T01:12:50Z</time>
      </trkpt>
      <trkpt lat="42.12849" lon="1.37994">
        <ele>1291.6</ele>
        <time>2019-02-12T01:12:54Z</time>
      </trkpt>
      <trkpt lat="42.12859" lon="1.37992">
        <ele>1290.2</ele>
        <time>2019-02-12T01:13:00Z</time>
      </trkpt>
      <trkpt lat="42.12867" lon="1.37984">
        <ele>1287.5</ele>
        <time>2019-02-12T01:13:06Z</time>
      </trkpt>
      <trkpt lat="42.12884" lon="1.37979">
        <ele>1284.5</ele>
        <time>2019-02-12T01:13:16Z</time>
      </trkpt>
      <trkpt lat="42.12895" lon="1.37975">
        <ele>1284</ele>
        <time>2019-02-12T01:13:22Z</time>
      </trkpt>
      <trkpt lat="42.12909" lon="1.37972">
        <ele>1283.5</ele>
        <time>2019-02-12T01:13:30Z</time>
      </trkpt>
      <trkpt lat="42.12921" lon="1.37971">
        <ele>1284.1</ele>
        <time>2019-02-12T01:13:37Z</time>
      </trkpt>
      <trkpt lat="42.12932" lon="1.37966">
        <ele>1285.1</ele>
        <time>2019-02-12T01:13:44Z</time>
      </trkpt>
      <trkpt lat="42.12941" lon="1.37963">
        <ele>1286.5</ele>
        <time>2019-02-12T01:13:49Z</time>
      </trkpt>
      <trkpt lat="42.12953" lon="1.37958">
        <ele>1291.3</ele>
        <time>2019-02-12T01:13:56Z</time>
      </trkpt>
      <trkpt lat="42.12964" lon="1.37952">
        <ele>1295.1</ele>
        <time>2019-02-12T01:14:03Z</time>
      </trkpt>
      <trkpt lat="42.12974" lon="1.37952">
        <ele>1297</ele>
        <time>2019-02-12T01:14:09Z</time>
      </trkpt>
      <trkpt lat="42.12989" lon="1.37944">
        <ele>1300.4</ele>
        <time>2019-02-12T01:14:18Z</time>
      </trkpt>
      <trkpt lat="42.13002" lon="1.3794">
        <ele>1302.8</ele>
        <time>2019-02-12T01:14:26Z</time>
      </trkpt>
      <trkpt lat="42.13016" lon="1.37931">
        <ele>1306.7</ele>
        <time>2019-02-12T01:14:35Z</time>
      </trkpt>
      <trkpt lat="42.13028" lon="1.37926">
        <ele>1309.5</ele>
        <time>2019-02-12T01:14:42Z</time>
      </trkpt>
      <trkpt lat="42.13041" lon="1.37917">
        <ele>1312.8</ele>
        <time>2019-02-12T01:14:50Z</time>
      </trkpt>
      <trkpt lat="42.13052" lon="1.37914">
        <ele>1316.6</ele>
        <time>2019-02-12T01:14:57Z</time>
      </trkpt>
      <trkpt lat="42.1306" lon="1.37909">
        <ele>1320</ele>
        <time>2019-02-12T01:15:01Z</time>
      </trkpt>
      <trkpt lat="42.13071" lon="1.37906">
        <ele>1321.5</ele>
        <time>2019-02-12T01:15:08Z</time>
      </trkpt>
      <trkpt lat="42.13076" lon="1.37899">
        <ele>1323.4</ele>
        <time>2019-02-12T01:15:12Z</time>
      </trkpt>
      <trkpt lat="42.13067" lon="1.37897">
        <ele>1324.4</ele>
        <time>2019-02-12T01:15:17Z</time>
      </trkpt>
      <trkpt lat="42.13059" lon="1.3789">
        <ele>1325.4</ele>
        <time>2019-02-12T01:15:23Z</time>
      </trkpt>
      <trkpt lat="42.13061" lon="1.37875">
        <ele>1326.2</ele>
        <time>2019-02-12T01:15:29Z</time>
      </trkpt>
      <trkpt lat="42.13065" lon="1.37862">
        <ele>1327.9</ele>
        <time>2019-02-12T01:15:35Z</time>
      </trkpt>
      <trkpt lat="42.13069" lon="1.37846">
        <ele>1328.7</ele>
        <time>2019-02-12T01:15:42Z</time>
      </trkpt>
      <trkpt lat="42.13078" lon="1.37835">
        <ele>1329.7</ele>
        <time>2019-02-12T01:15:49Z</time>
      </trkpt>
      <trkpt lat="42.13091" lon="1.37823">
        <ele>1330.3</ele>
        <time>2019-02-12T01:15:58Z</time>
      </trkpt>
      <trkpt lat="42.13098" lon="1.37812">
        <ele>1330.6</ele>
        <time>2019-02-12T01:16:04Z</time>
      </trkpt>
      <trkpt lat="42.13105" lon="1.37803">
        <ele>1330.6</ele>
        <time>2019-02-12T01:16:10Z</time>
      </trkpt>
      <trkpt lat="42.13113" lon="1.37791">
        <ele>1331.6</ele>
        <time>2019-02-12T01:16:17Z</time>
      </trkpt>
      <trkpt lat="42.13123" lon="1.37782">
        <ele>1331.7</ele>
        <time>2019-02-12T01:16:23Z</time>
      </trkpt>
      <trkpt lat="42.13133" lon="1.37776">
        <ele>1333.1</ele>
        <time>2019-02-12T01:16:29Z</time>
      </trkpt>
      <trkpt lat="42.13142" lon="1.37763">
        <ele>1333</ele>
        <time>2019-02-12T01:16:37Z</time>
      </trkpt>
      <trkpt lat="42.13146" lon="1.37747">
        <ele>1334</ele>
        <time>2019-02-12T01:16:44Z</time>
      </trkpt>
      <trkpt lat="42.13152" lon="1.37733">
        <ele>1334.5</ele>
        <time>2019-02-12T01:16:51Z</time>
      </trkpt>
      <trkpt lat="42.13152" lon="1.37713">
        <ele>1336.9</ele>
        <time>2019-02-12T01:16:59Z</time>
      </trkpt>
      <trkpt lat="42.13156" lon="1.37699">
        <ele>1337.8</ele>
        <time>2019-02-12T01:17:06Z</time>
      </trkpt>
      <trkpt lat="42.13161" lon="1.37685">
        <ele>1338.3</ele>
        <time>2019-02-12T01:17:13Z</time>
      </trkpt>
      <trkpt lat="42.13168" lon="1.3767">
        <ele>1338.9</ele>
        <time>2019-02-12T01:17:20Z</time>
      </trkpt>
      <trkpt lat="42.13169" lon="1.37657">
        <ele>1340.6</ele>
        <time>2019-02-12T01:17:26Z</time>
      </trkpt>
      <trkpt lat="42.13164" lon="1.37644">
        <ele>1342.3</ele>
        <time>2019-02-12T01:17:32Z</time>
      </trkpt>
      <trkpt lat="42.1316" lon="1.37629">
        <ele>1346.5</ele>
        <time>2019-02-12T01:17:39Z</time>
      </trkpt>
      <trkpt lat="42.13153" lon="1.37616">
        <ele>1348.9</ele>
        <time>2019-02-12T01:17:45Z</time>
      </trkpt>
      <trkpt lat="42.13149" lon="1.37599">
        <ele>1351.2</ele>
        <time>2019-02-12T01:17:53Z</time>
      </trkpt>
      <trkpt lat="42.13143" lon="1.37589">
        <ele>1352.8</ele>
        <time>2019-02-12T01:17:59Z</time>
      </trkpt>
      <trkpt lat="42.13155" lon="1.3758">
        <ele>1351.2</ele>
        <time>2019-02-12T01:18:07Z</time>
      </trkpt>
      <trkpt lat="42.13164" lon="1.37575">
        <ele>1352.9</ele>
        <time>2019-02-12T01:18:12Z</time>
      </trkpt>
      <trkpt lat="42.13176" lon="1.3757">
        <ele>1353.7</ele>
        <time>2019-02-12T01:18:19Z</time>
      </trkpt>
      <trkpt lat="42.13186" lon="1.37564">
        <ele>1355.6</ele>
        <time>2019-02-12T01:18:26Z</time>
      </trkpt>
      <trkpt lat="42.13195" lon="1.37559">
        <ele>1357.1</ele>
        <time>2019-02-12T01:18:31Z</time>
      </trkpt>
      <trkpt lat="42.13206" lon="1.37552">
        <ele>1357</ele>
        <time>2019-02-12T01:18:38Z</time>
      </trkpt>
      <trkpt lat="42.13215" lon="1.37546">
        <ele>1358.4</ele>
        <time>2019-02-12T01:18:44Z</time>
      </trkpt>
      <trkpt lat="42.13222" lon="1.37536">
        <ele>1361.5</ele>
        <time>2019-02-12T01:18:50Z</time>
      </trkpt>
      <trkpt lat="42.13235" lon="1.3753">
        <ele>1362.8</ele>
        <time>2019-02-12T01:18:57Z</time>
      </trkpt>
      <trkpt lat="42.13245" lon="1.37528">
        <ele>1362.4</ele>
        <time>2019-02-12T01:19:04Z</time>
      </trkpt>
      <trkpt lat="42.13258" lon="1.37527">
        <ele>1362.8</ele>
        <time>2019-02-12T01:19:11Z</time>
      </trkpt>
      <trkpt lat="42.13269" lon="1.37524">
        <ele>1365.3</ele>
        <time>2019-02-12T01:19:17Z</time>
      </trkpt>
      <trkpt lat="42.13279" lon="1.37516">
        <ele>1368</ele>
        <time>2019-02-12T01:19:24Z</time>
      </trkpt>
      <trkpt lat="42.13288" lon="1.37504">
        <ele>1371.1</ele>
        <time>2019-02-12T01:19:31Z</time>
      </trkpt>
      <trkpt lat="42.13295" lon="1.37493">
        <ele>1375.5</ele>
        <time>2019-02-12T01:19:37Z</time>
      </trkpt>
      <trkpt lat="42.13298" lon="1.37478">
        <ele>1376.8</ele>
        <time>2019-02-12T01:19:44Z</time>
      </trkpt>
      <trkpt lat="42.13299" lon="1.37465">
        <ele>1377.2</ele>
        <time>2019-02-12T01:19:49Z</time>
      </trkpt>
      <trkpt lat="42.13302" lon="1.37451">
        <ele>1379.6</ele>
        <time>2019-02-12T01:19:55Z</time>
      </trkpt>
      <trkpt lat="42.13307" lon="1.37439">
        <ele>1382.7</ele>
        <time>2019-02-12T01:20:01Z</time>
      </trkpt>
      <trkpt lat="42.13306" lon="1.37424">
        <ele>1384</ele>
        <time>2019-02-12T01:20:08Z</time>
      </trkpt>
      <trkpt lat="42.13308" lon="1.37409">
        <ele>1379.2</ele>
        <time>2019-02-12T01:20:14Z</time>
      </trkpt>
      <trkpt lat="42.13313" lon="1.37399">
        <ele>1376.8</ele>
        <time>2019-02-12T01:20:19Z</time>
      </trkpt>
      <trkpt lat="42.1332" lon="1.3739">
        <ele>1377.3</ele>
        <time>2019-02-12T01:20:25Z</time>
      </trkpt>
      <trkpt lat="42.13331" lon="1.37386">
        <ele>1375.4</ele>
        <time>2019-02-12T01:20:31Z</time>
      </trkpt>
      <trkpt lat="42.13341" lon="1.37389">
        <ele>1372</ele>
        <time>2019-02-12T01:20:37Z</time>
      </trkpt>
      <trkpt lat="42.1335" lon="1.37388">
        <ele>1369.7</ele>
        <time>2019-02-12T01:20:42Z</time>
      </trkpt>
      <trkpt lat="42.1336" lon="1.37387">
        <ele>1366.2</ele>
        <time>2019-02-12T01:20:48Z</time>
      </trkpt>
      <trkpt lat="42.1337" lon="1.37391">
        <ele>1365.6</ele>
        <time>2019-02-12T01:20:54Z</time>
      </trkpt>
      <trkpt lat="42.1338" lon="1.37389">
        <ele>1366.7</ele>
        <time>2019-02-12T01:21:00Z</time>
      </trkpt>
      <trkpt lat="42.1339" lon="1.37385">
        <ele>1363.9</ele>
        <time>2019-02-12T01:21:06Z</time>
      </trkpt>
      <trkpt lat="42.13401" lon="1.37378">
        <ele>1362.4</ele>
        <time>2019-02-12T01:21:12Z</time>
      </trkpt>
      <trkpt lat="42.1341" lon="1.37376">
        <ele>1361.8</ele>
        <time>2019-02-12T01:21:18Z</time>
      </trkpt>
      <trkpt lat="42.13417" lon="1.37368">
        <ele>1358.4</ele>
        <time>2019-02-12T01:21:23Z</time>
      </trkpt>
      <trkpt lat="42.13426" lon="1.3736">
        <ele>1358</ele>
        <time>2019-02-12T01:21:29Z</time>
      </trkpt>
      <trkpt lat="42.13433" lon="1.37349">
        <ele>1360.8</ele>
        <time>2019-02-12T01:21:36Z</time>
      </trkpt>
      <trkpt lat="42.1344" lon="1.37341">
        <ele>1361.8</ele>
        <time>2019-02-12T01:21:41Z</time>
      </trkpt>
      <trkpt lat="42.13447" lon="1.3733">
        <ele>1363.3</ele>
        <time>2019-02-12T01:21:47Z</time>
      </trkpt>
      <trkpt lat="42.13453" lon="1.37319">
        <ele>1362.9</ele>
        <time>2019-02-12T01:21:53Z</time>
      </trkpt>
      <trkpt lat="42.13459" lon="1.37307">
        <ele>1362.8</ele>
        <time>2019-02-12T01:21:59Z</time>
      </trkpt>
      <trkpt lat="42.13464" lon="1.37296">
        <ele>1362.4</ele>
        <time>2019-02-12T01:22:04Z</time>
      </trkpt>
      <trkpt lat="42.13469" lon="1.37283">
        <ele>1361.8</ele>
        <time>2019-02-12T01:22:10Z</time>
      </trkpt>
      <trkpt lat="42.13475" lon="1.37273">
        <ele>1363.8</ele>
        <time>2019-02-12T01:22:16Z</time>
      </trkpt>
      <trkpt lat="42.13481" lon="1.37262">
        <ele>1363.8</ele>
        <time>2019-02-12T01:22:22Z</time>
      </trkpt>
      <trkpt lat="42.13485" lon="1.37251">
        <ele>1361.8</ele>
        <time>2019-02-12T01:22:27Z</time>
      </trkpt>
      <trkpt lat="42.13488" lon="1.3724">
        <ele>1361.9</ele>
        <time>2019-02-12T01:22:32Z</time>
      </trkpt>
      <trkpt lat="42.1349" lon="1.37227">
        <ele>1361.5</ele>
        <time>2019-02-12T01:22:37Z</time>
      </trkpt>
      <trkpt lat="42.13493" lon="1.37213">
        <ele>1361.4</ele>
        <time>2019-02-12T01:22:44Z</time>
      </trkpt>
      <trkpt lat="42.13494" lon="1.37201">
        <ele>1361.5</ele>
        <time>2019-02-12T01:22:49Z</time>
      </trkpt>
      <trkpt lat="42.13496" lon="1.37187">
        <ele>1361.8</ele>
        <time>2019-02-12T01:22:55Z</time>
      </trkpt>
      <trkpt lat="42.13503" lon="1.37174">
        <ele>1364.9</ele>
        <time>2019-02-12T01:23:01Z</time>
      </trkpt>
      <trkpt lat="42.13509" lon="1.37165">
        <ele>1366.6</ele>
        <time>2019-02-12T01:23:07Z</time>
      </trkpt>
      <trkpt lat="42.13519" lon="1.37159">
        <ele>1367.2</ele>
        <time>2019-02-12T01:23:13Z</time>
      </trkpt>
      <trkpt lat="42.13528" lon="1.37154">
        <ele>1368.6</ele>
        <time>2019-02-12T01:23:18Z</time>
      </trkpt>
      <trkpt lat="42.13538" lon="1.37152">
        <ele>1369</ele>
        <time>2019-02-12T01:23:24Z</time>
      </trkpt>
      <trkpt lat="42.13549" lon="1.37149">
        <ele>1371.4</ele>
        <time>2019-02-12T01:23:30Z</time>
      </trkpt>
      <trkpt lat="42.13556" lon="1.37149">
        <ele>1373.5</ele>
        <time>2019-02-12T01:23:35Z</time>
      </trkpt>
      <trkpt lat="42.13566" lon="1.37148">
        <ele>1373</ele>
        <time>2019-02-12T01:23:40Z</time>
      </trkpt>
      <trkpt lat="42.13574" lon="1.37146">
        <ele>1370</ele>
        <time>2019-02-12T01:23:45Z</time>
      </trkpt>
      <trkpt lat="42.13584" lon="1.37143">
        <ele>1370.5</ele>
        <time>2019-02-12T01:23:51Z</time>
      </trkpt>
      <trkpt lat="42.13595" lon="1.37142">
        <ele>1369.6</ele>
        <time>2019-02-12T01:23:57Z</time>
      </trkpt>
      <trkpt lat="42.13603" lon="1.37136">
        <ele>1367.6</ele>
        <time>2019-02-12T01:24:02Z</time>
      </trkpt>
      <trkpt lat="42.13613" lon="1.37132">
        <ele>1367.6</ele>
        <time>2019-02-12T01:24:08Z</time>
      </trkpt>
      <trkpt lat="42.13621" lon="1.37125">
        <ele>1366.7</ele>
        <time>2019-02-12T01:24:13Z</time>
      </trkpt>
      <trkpt lat="42.13628" lon="1.37117">
        <ele>1369</ele>
        <time>2019-02-12T01:24:19Z</time>
      </trkpt>
      <trkpt lat="42.13634" lon="1.37107">
        <ele>1369</ele>
        <time>2019-02-12T01:24:24Z</time>
      </trkpt>
      <trkpt lat="42.13639" lon="1.37095">
        <ele>1368</ele>
        <time>2019-02-12T01:24:30Z</time>
      </trkpt>
      <trkpt lat="42.13644" lon="1.37085">
        <ele>1366.3</ele>
        <time>2019-02-12T01:24:35Z</time>
      </trkpt>
      <trkpt lat="42.13647" lon="1.37073">
        <ele>1365.7</ele>
        <time>2019-02-12T01:24:41Z</time>
      </trkpt>
      <trkpt lat="42.13652" lon="1.37061">
        <ele>1364.8</ele>
        <time>2019-02-12T01:24:47Z</time>
      </trkpt>
      <trkpt lat="42.13658" lon="1.3705">
        <ele>1364.2</ele>
        <time>2019-02-12T01:24:52Z</time>
      </trkpt>
      <trkpt lat="42.13662" lon="1.37038">
        <ele>1364.9</ele>
        <time>2019-02-12T01:24:58Z</time>
      </trkpt>
      <trkpt lat="42.13668" lon="1.37029">
        <ele>1363.9</ele>
        <time>2019-02-12T01:25:03Z</time>
      </trkpt>
      <trkpt lat="42.13672" lon="1.37018">
        <ele>1364.8</ele>
        <time>2019-02-12T01:25:08Z</time>
      </trkpt>
      <trkpt lat="42.13678" lon="1.37007">
        <ele>1365.6</ele>
        <time>2019-02-12T01:25:14Z</time>
      </trkpt>
      <trkpt lat="42.13684" lon="1.36996">
        <ele>1362.8</ele>
        <time>2019-02-12T01:25:20Z</time>
      </trkpt>
      <trkpt lat="42.1369" lon="1.36985">
        <ele>1361.4</ele>
        <time>2019-02-12T01:25:26Z</time>
      </trkpt>
      <trkpt lat="42.13698" lon="1.36972">
        <ele>1361.8</ele>
        <time>2019-02-12T01:25:33Z</time>
      </trkpt>
      <trkpt lat="42.13705" lon="1.36962">
        <ele>1363.3</ele>
        <time>2019-02-12T01:25:39Z</time>
      </trkpt>
      <trkpt lat="42.13712" lon="1.36954">
        <ele>1363.9</ele>
        <time>2019-02-12T01:25:44Z</time>
      </trkpt>
      <trkpt lat="42.13717" lon="1.36944">
        <ele>1363.3</ele>
        <time>2019-02-12T01:25:49Z</time>
      </trkpt>
      <trkpt lat="42.13716" lon="1.36934">
        <ele>1363.2</ele>
        <time>2019-02-12T01:25:53Z</time>
      </trkpt>
      <trkpt lat="42.13713" lon="1.36923">
        <ele>1364.2</ele>
        <time>2019-02-12T01:25:58Z</time>
      </trkpt>
      <trkpt lat="42.13717" lon="1.3691">
        <ele>1364.9</ele>
        <time>2019-02-12T01:26:04Z</time>
      </trkpt>
      <trkpt lat="42.13723" lon="1.369">
        <ele>1367.7</ele>
        <time>2019-02-12T01:26:10Z</time>
      </trkpt>
      <trkpt lat="42.13731" lon="1.36887">
        <ele>1369.6</ele>
        <time>2019-02-12T01:26:17Z</time>
      </trkpt>
      <trkpt lat="42.1374" lon="1.36883">
        <ele>1370</ele>
        <time>2019-02-12T01:26:22Z</time>
      </trkpt>
      <trkpt lat="42.13749" lon="1.36879">
        <ele>1371</ele>
        <time>2019-02-12T01:26:27Z</time>
      </trkpt>
      <trkpt lat="42.13756" lon="1.36869">
        <ele>1372.4</ele>
        <time>2019-02-12T01:26:33Z</time>
      </trkpt>
      <trkpt lat="42.13764" lon="1.36865">
        <ele>1375.9</ele>
        <time>2019-02-12T01:26:38Z</time>
      </trkpt>
      <trkpt lat="42.13771" lon="1.36856">
        <ele>1376.3</ele>
        <time>2019-02-12T01:26:43Z</time>
      </trkpt>
      <trkpt lat="42.13781" lon="1.3685">
        <ele>1378.6</ele>
        <time>2019-02-12T01:26:50Z</time>
      </trkpt>
      <trkpt lat="42.1379" lon="1.36843">
        <ele>1379.6</ele>
        <time>2019-02-12T01:26:56Z</time>
      </trkpt>
      <trkpt lat="42.13799" lon="1.36838">
        <ele>1381.6</ele>
        <time>2019-02-12T01:27:01Z</time>
      </trkpt>
      <trkpt lat="42.13806" lon="1.36831">
        <ele>1381.6</ele>
        <time>2019-02-12T01:27:06Z</time>
      </trkpt>
      <trkpt lat="42.13814" lon="1.36823">
        <ele>1382.6</ele>
        <time>2019-02-12T01:27:12Z</time>
      </trkpt>
      <trkpt lat="42.13822" lon="1.36816">
        <ele>1384.5</ele>
        <time>2019-02-12T01:27:17Z</time>
      </trkpt>
      <trkpt lat="42.1383" lon="1.3681">
        <ele>1386.5</ele>
        <time>2019-02-12T01:27:23Z</time>
      </trkpt>
      <trkpt lat="42.13836" lon="1.36802">
        <ele>1385.4</ele>
        <time>2019-02-12T01:27:28Z</time>
      </trkpt>
      <trkpt lat="42.13843" lon="1.36792">
        <ele>1385.4</ele>
        <time>2019-02-12T01:27:33Z</time>
      </trkpt>
      <trkpt lat="42.13849" lon="1.36782">
        <ele>1385.9</ele>
        <time>2019-02-12T01:27:39Z</time>
      </trkpt>
      <trkpt lat="42.13854" lon="1.36773">
        <ele>1386.8</ele>
        <time>2019-02-12T01:27:44Z</time>
      </trkpt>
      <trkpt lat="42.13859" lon="1.36762">
        <ele>1389.8</ele>
        <time>2019-02-12T01:27:49Z</time>
      </trkpt>
      <trkpt lat="42.13867" lon="1.36752">
        <ele>1391.3</ele>
        <time>2019-02-12T01:27:55Z</time>
      </trkpt>
      <trkpt lat="42.13872" lon="1.36741">
        <ele>1391.2</ele>
        <time>2019-02-12T01:28:01Z</time>
      </trkpt>
      <trkpt lat="42.13878" lon="1.36728">
        <ele>1391.7</ele>
        <time>2019-02-12T01:28:07Z</time>
      </trkpt>
      <trkpt lat="42.13884" lon="1.36718">
        <ele>1391.6</ele>
        <time>2019-02-12T01:28:13Z</time>
      </trkpt>
      <trkpt lat="42.13889" lon="1.36707">
        <ele>1392.3</ele>
        <time>2019-02-12T01:28:18Z</time>
      </trkpt>
      <trkpt lat="42.13894" lon="1.36699">
        <ele>1393.7</ele>
        <time>2019-02-12T01:28:23Z</time>
      </trkpt>
      <trkpt lat="42.13899" lon="1.3669">
        <ele>1395</ele>
        <time>2019-02-12T01:28:28Z</time>
      </trkpt>
      <trkpt lat="42.13909" lon="1.36686">
        <ele>1396.4</ele>
        <time>2019-02-12T01:28:33Z</time>
      </trkpt>
      <trkpt lat="42.13918" lon="1.36679">
        <ele>1397.5</ele>
        <time>2019-02-12T01:28:39Z</time>
      </trkpt>
      <trkpt lat="42.13925" lon="1.36671">
        <ele>1399.5</ele>
        <time>2019-02-12T01:28:45Z</time>
      </trkpt>
      <trkpt lat="42.13932" lon="1.36662">
        <ele>1399.8</ele>
        <time>2019-02-12T01:28:50Z</time>
      </trkpt>
      <trkpt lat="42.13941" lon="1.36656">
        <ele>1400.9</ele>
        <time>2019-02-12T01:28:56Z</time>
      </trkpt>
      <trkpt lat="42.1395" lon="1.36652">
        <ele>1401.2</ele>
        <time>2019-02-12T01:29:01Z</time>
      </trkpt>
      <trkpt lat="42.13958" lon="1.36644">
        <ele>1402.9</ele>
        <time>2019-02-12T01:29:07Z</time>
      </trkpt>
      <trkpt lat="42.13964" lon="1.36639">
        <ele>1409</ele>
        <time>2019-02-12T01:29:11Z</time>
      </trkpt>
      <trkpt lat="42.13972" lon="1.36636">
        <ele>1409.5</ele>
        <time>2019-02-12T01:29:16Z</time>
      </trkpt>
      <trkpt lat="42.13981" lon="1.36631">
        <ele>1410</ele>
        <time>2019-02-12T01:29:22Z</time>
      </trkpt>
      <trkpt lat="42.1399" lon="1.36624">
        <ele>1410.4</ele>
        <time>2019-02-12T01:29:27Z</time>
      </trkpt>
      <trkpt lat="42.13998" lon="1.36623">
        <ele>1410.8</ele>
        <time>2019-02-12T01:29:32Z</time>
      </trkpt>
      <trkpt lat="42.14006" lon="1.36616">
        <ele>1410.8</ele>
        <time>2019-02-12T01:29:37Z</time>
      </trkpt>
      <trkpt lat="42.14015" lon="1.3661">
        <ele>1411.5</ele>
        <time>2019-02-12T01:29:43Z</time>
      </trkpt>
      <trkpt lat="42.14024" lon="1.36603">
        <ele>1411.4</ele>
        <time>2019-02-12T01:29:49Z</time>
      </trkpt>
      <trkpt lat="42.14034" lon="1.36598">
        <ele>1411.8</ele>
        <time>2019-02-12T01:29:55Z</time>
      </trkpt>
      <trkpt lat="42.14041" lon="1.36589">
        <ele>1411.5</ele>
        <time>2019-02-12T01:30:01Z</time>
      </trkpt>
      <trkpt lat="42.14049" lon="1.36581">
        <ele>1412.8</ele>
        <time>2019-02-12T01:30:06Z</time>
      </trkpt>
      <trkpt lat="42.14055" lon="1.36571">
        <ele>1413.3</ele>
        <time>2019-02-12T01:30:12Z</time>
      </trkpt>
      <trkpt lat="42.14061" lon="1.36557">
        <ele>1413.3</ele>
        <time>2019-02-12T01:30:19Z</time>
      </trkpt>
      <trkpt lat="42.14068" lon="1.36548">
        <ele>1414.3</ele>
        <time>2019-02-12T01:30:24Z</time>
      </trkpt>
      <trkpt lat="42.14073" lon="1.36534">
        <ele>1415.2</ele>
        <time>2019-02-12T01:30:31Z</time>
      </trkpt>
      <trkpt lat="42.14081" lon="1.36523">
        <ele>1416.2</ele>
        <time>2019-02-12T01:30:37Z</time>
      </trkpt>
      <trkpt lat="42.14089" lon="1.36511">
        <ele>1418</ele>
        <time>2019-02-12T01:30:44Z</time>
      </trkpt>
      <trkpt lat="42.14096" lon="1.36498">
        <ele>1418.6</ele>
        <time>2019-02-12T01:30:51Z</time>
      </trkpt>
      <trkpt lat="42.14105" lon="1.36484">
        <ele>1420.5</ele>
        <time>2019-02-12T01:30:59Z</time>
      </trkpt>
      <trkpt lat="42.14117" lon="1.3647">
        <ele>1421.5</ele>
        <time>2019-02-12T01:31:08Z</time>
      </trkpt>
      <trkpt lat="42.14126" lon="1.36464">
        <ele>1423.5</ele>
        <time>2019-02-12T01:31:13Z</time>
      </trkpt>
      <trkpt lat="42.14137" lon="1.36459">
        <ele>1424.8</ele>
        <time>2019-02-12T01:31:20Z</time>
      </trkpt>
      <trkpt lat="42.14152" lon="1.36451">
        <ele>1425.3</ele>
        <time>2019-02-12T01:31:29Z</time>
      </trkpt>
      <trkpt lat="42.14166" lon="1.36445">
        <ele>1424.9</ele>
        <time>2019-02-12T01:31:37Z</time>
      </trkpt>
      <trkpt lat="42.1418" lon="1.36435">
        <ele>1423.5</ele>
        <time>2019-02-12T01:31:47Z</time>
      </trkpt>
      <trkpt lat="42.14192" lon="1.36428">
        <ele>1422</ele>
        <time>2019-02-12T01:31:54Z</time>
      </trkpt>
      <trkpt lat="42.14201" lon="1.36412">
        <ele>1421.4</ele>
        <time>2019-02-12T01:32:03Z</time>
      </trkpt>
      <trkpt lat="42.14214" lon="1.36408">
        <ele>1422.9</ele>
        <time>2019-02-12T01:32:10Z</time>
      </trkpt>
      <trkpt lat="42.14229" lon="1.36406">
        <ele>1422.5</ele>
        <time>2019-02-12T01:32:19Z</time>
      </trkpt>
      <trkpt lat="42.14242" lon="1.36395">
        <ele>1421</ele>
        <time>2019-02-12T01:32:28Z</time>
      </trkpt>
      <trkpt lat="42.1425" lon="1.36385">
        <ele>1418.1</ele>
        <time>2019-02-12T01:32:34Z</time>
      </trkpt>
      <trkpt lat="42.14251" lon="1.36374">
        <ele>1413.2</ele>
        <time>2019-02-12T01:32:39Z</time>
      </trkpt>
      <trkpt lat="42.1426" lon="1.36372">
        <ele>1411.8</ele>
        <time>2019-02-12T01:32:44Z</time>
      </trkpt>
      <trkpt lat="42.14266" lon="1.36381">
        <ele>1408.4</ele>
        <time>2019-02-12T01:32:49Z</time>
      </trkpt>
      <trkpt lat="42.14274" lon="1.36391">
        <ele>1406</ele>
        <time>2019-02-12T01:32:55Z</time>
      </trkpt>
      <trkpt lat="42.1428" lon="1.364">
        <ele>1404.2</ele>
        <time>2019-02-12T01:33:00Z</time>
      </trkpt>
      <trkpt lat="42.14286" lon="1.36414">
        <ele>1403.2</ele>
        <time>2019-02-12T01:33:07Z</time>
      </trkpt>
      <trkpt lat="42.14291" lon="1.36424">
        <ele>1402.2</ele>
        <time>2019-02-12T01:33:12Z</time>
      </trkpt>
      <trkpt lat="42.14297" lon="1.36438">
        <ele>1400.3</ele>
        <time>2019-02-12T01:33:19Z</time>
      </trkpt>
      <trkpt lat="42.14304" lon="1.36451">
        <ele>1398.9</ele>
        <time>2019-02-12T01:33:26Z</time>
      </trkpt>
      <trkpt lat="42.1431" lon="1.36466">
        <ele>1398.9</ele>
        <time>2019-02-12T01:33:33Z</time>
      </trkpt>
      <trkpt lat="42.14315" lon="1.3648">
        <ele>1398.9</ele>
        <time>2019-02-12T01:33:40Z</time>
      </trkpt>
      <trkpt lat="42.14323" lon="1.36491">
        <ele>1398.9</ele>
        <time>2019-02-12T01:33:46Z</time>
      </trkpt>
      <trkpt lat="42.14325" lon="1.36515">
        <ele>1400.2</ele>
        <time>2019-02-12T01:33:57Z</time>
      </trkpt>
      <trkpt lat="42.14331" lon="1.36531">
        <ele>1401.2</ele>
        <time>2019-02-12T01:34:04Z</time>
      </trkpt>
      <trkpt lat="42.14335" lon="1.36544">
        <ele>1401.2</ele>
        <time>2019-02-12T01:34:10Z</time>
      </trkpt>
      <trkpt lat="42.14339" lon="1.36558">
        <ele>1401.8</ele>
        <time>2019-02-12T01:34:17Z</time>
      </trkpt>
      <trkpt lat="42.14343" lon="1.36572">
        <ele>1400.2</ele>
        <time>2019-02-12T01:34:23Z</time>
      </trkpt>
      <trkpt lat="42.14348" lon="1.36586">
        <ele>1398.8</ele>
        <time>2019-02-12T01:34:30Z</time>
      </trkpt>
      <trkpt lat="42.14355" lon="1.36597">
        <ele>1397.1</ele>
        <time>2019-02-12T01:34:36Z</time>
      </trkpt>
      <trkpt lat="42.14357" lon="1.36611">
        <ele>1395.4</ele>
        <time>2019-02-12T01:34:42Z</time>
      </trkpt>
      <trkpt lat="42.14361" lon="1.36626">
        <ele>1395.4</ele>
        <time>2019-02-12T01:34:48Z</time>
      </trkpt>
      <trkpt lat="42.14363" lon="1.36641">
        <ele>1392.3</ele>
        <time>2019-02-12T01:34:55Z</time>
      </trkpt>
      <trkpt lat="42.14363" lon="1.36656">
        <ele>1388.2</ele>
        <time>2019-02-12T01:35:01Z</time>
      </trkpt>
      <trkpt lat="42.14366" lon="1.36672">
        <ele>1386.5</ele>
        <time>2019-02-12T01:35:08Z</time>
      </trkpt>
      <trkpt lat="42.1437" lon="1.36685">
        <ele>1384.4</ele>
        <time>2019-02-12T01:35:14Z</time>
      </trkpt>
      <trkpt lat="42.14374" lon="1.36698">
        <ele>1379.7</ele>
        <time>2019-02-12T01:35:20Z</time>
      </trkpt>
      <trkpt lat="42.14378" lon="1.36707">
        <ele>1375.9</ele>
        <time>2019-02-12T01:35:25Z</time>
      </trkpt>
      <trkpt lat="42.14384" lon="1.36718">
        <ele>1374.8</ele>
        <time>2019-02-12T01:35:30Z</time>
      </trkpt>
      <trkpt lat="42.14394" lon="1.36726">
        <ele>1373.4</ele>
        <time>2019-02-12T01:35:37Z</time>
      </trkpt>
      <trkpt lat="42.14404" lon="1.36731">
        <ele>1373.1</ele>
        <time>2019-02-12T01:35:43Z</time>
      </trkpt>
      <trkpt lat="42.14416" lon="1.36738">
        <ele>1372</ele>
        <time>2019-02-12T01:35:50Z</time>
      </trkpt>
      <trkpt lat="42.14426" lon="1.36742">
        <ele>1372.1</ele>
        <time>2019-02-12T01:35:56Z</time>
      </trkpt>
      <trkpt lat="42.14436" lon="1.36744">
        <ele>1370.1</ele>
        <time>2019-02-12T01:36:02Z</time>
      </trkpt>
      <trkpt lat="42.14446" lon="1.36749">
        <ele>1369.1</ele>
        <time>2019-02-12T01:36:08Z</time>
      </trkpt>
      <trkpt lat="42.14453" lon="1.36756">
        <ele>1368.6</ele>
        <time>2019-02-12T01:36:13Z</time>
      </trkpt>
      <trkpt lat="42.1445" lon="1.36763">
        <ele>1367.3</ele>
        <time>2019-02-12T01:36:16Z</time>
      </trkpt>
      <trkpt lat="42.14445" lon="1.36775">
        <ele>1366.7</ele>
        <time>2019-02-12T01:36:22Z</time>
      </trkpt>
      <trkpt lat="42.1444" lon="1.36765">
        <ele>1361.8</ele>
        <time>2019-02-12T01:36:27Z</time>
      </trkpt>
      <trkpt lat="42.1444" lon="1.36774">
        <ele>1366.2</ele>
        <time>2019-02-12T01:36:31Z</time>
      </trkpt>
      <trkpt lat="42.14444" lon="1.36762">
        <ele>1366.6</ele>
        <time>2019-02-12T01:36:36Z</time>
      </trkpt>
      <trkpt lat="42.14449" lon="1.36774">
        <ele>1366.3</ele>
        <time>2019-02-12T01:36:42Z</time>
      </trkpt>
      <trkpt lat="42.14452" lon="1.36762">
        <ele>1362.8</ele>
        <time>2019-02-12T01:36:48Z</time>
      </trkpt>
      <trkpt lat="42.14455" lon="1.3675">
        <ele>1359.1</ele>
        <time>2019-02-12T01:36:53Z</time>
      </trkpt>
      <trkpt lat="42.14456" lon="1.36735">
        <ele>1356.7</ele>
        <time>2019-02-12T01:37:00Z</time>
      </trkpt>
      <trkpt lat="42.14458" lon="1.36718">
        <ele>1356.7</ele>
        <time>2019-02-12T01:37:07Z</time>
      </trkpt>
      <trkpt lat="42.14459" lon="1.36705">
        <ele>1356.1</ele>
        <time>2019-02-12T01:37:12Z</time>
      </trkpt>
      <trkpt lat="42.14462" lon="1.36693">
        <ele>1355.2</ele>
        <time>2019-02-12T01:37:18Z</time>
      </trkpt>
      <trkpt lat="42.14466" lon="1.36681">
        <ele>1355.6</ele>
        <time>2019-02-12T01:37:23Z</time>
      </trkpt>
      <trkpt lat="42.14468" lon="1.36668">
        <ele>1355.7</ele>
        <time>2019-02-12T01:37:29Z</time>
      </trkpt>
      <trkpt lat="42.14469" lon="1.36657">
        <ele>1356</ele>
        <time>2019-02-12T01:37:33Z</time>
      </trkpt>
      <trkpt lat="42.1447" lon="1.36645">
        <ele>1358</ele>
        <time>2019-02-12T01:37:39Z</time>
      </trkpt>
      <trkpt lat="42.1447" lon="1.36633">
        <ele>1358.5</ele>
        <time>2019-02-12T01:37:44Z</time>
      </trkpt>
      <trkpt lat="42.14472" lon="1.3662">
        <ele>1358.5</ele>
        <time>2019-02-12T01:37:49Z</time>
      </trkpt>
      <trkpt lat="42.14473" lon="1.36609">
        <ele>1359</ele>
        <time>2019-02-12T01:37:54Z</time>
      </trkpt>
      <trkpt lat="42.1448" lon="1.36598">
        <ele>1360.1</ele>
        <time>2019-02-12T01:38:00Z</time>
      </trkpt>
      <trkpt lat="42.1449" lon="1.36594">
        <ele>1361.5</ele>
        <time>2019-02-12T01:38:06Z</time>
      </trkpt>
      <trkpt lat="42.145" lon="1.36594">
        <ele>1361.5</ele>
        <time>2019-02-12T01:38:12Z</time>
      </trkpt>
      <trkpt lat="42.1451" lon="1.36595">
        <ele>1361.9</ele>
        <time>2019-02-12T01:38:18Z</time>
      </trkpt>
      <trkpt lat="42.14517" lon="1.36599">
        <ele>1361.4</ele>
        <time>2019-02-12T01:38:22Z</time>
      </trkpt>
      <trkpt lat="42.14528" lon="1.36603">
        <ele>1361.8</ele>
        <time>2019-02-12T01:38:29Z</time>
      </trkpt>
      <trkpt lat="42.14537" lon="1.36605">
        <ele>1360.4</ele>
        <time>2019-02-12T01:38:34Z</time>
      </trkpt>
      <trkpt lat="42.14547" lon="1.36608">
        <ele>1359.4</ele>
        <time>2019-02-12T01:38:40Z</time>
      </trkpt>
      <trkpt lat="42.14557" lon="1.36607">
        <ele>1358</ele>
        <time>2019-02-12T01:38:45Z</time>
      </trkpt>
      <trkpt lat="42.14566" lon="1.36604">
        <ele>1357</ele>
        <time>2019-02-12T01:38:51Z</time>
      </trkpt>
      <trkpt lat="42.14576" lon="1.36604">
        <ele>1360.9</ele>
        <time>2019-02-12T01:38:56Z</time>
      </trkpt>
      <trkpt lat="42.14586" lon="1.36608">
        <ele>1360.5</ele>
        <time>2019-02-12T01:39:02Z</time>
      </trkpt>
      <trkpt lat="42.14596" lon="1.36609">
        <ele>1359</ele>
        <time>2019-02-12T01:39:08Z</time>
      </trkpt>
      <trkpt lat="42.14605" lon="1.36613">
        <ele>1357.1</ele>
        <time>2019-02-12T01:39:13Z</time>
      </trkpt>
      <trkpt lat="42.14615" lon="1.36618">
        <ele>1357.1</ele>
        <time>2019-02-12T01:39:20Z</time>
      </trkpt>
      <trkpt lat="42.14623" lon="1.36626">
        <ele>1359.1</ele>
        <time>2019-02-12T01:39:25Z</time>
      </trkpt>
      <trkpt lat="42.14632" lon="1.36635">
        <ele>1360</ele>
        <time>2019-02-12T01:39:32Z</time>
      </trkpt>
      <trkpt lat="42.14639" lon="1.36647">
        <ele>1360.8</ele>
        <time>2019-02-12T01:39:38Z</time>
      </trkpt>
      <trkpt lat="42.14647" lon="1.36655">
        <ele>1360.4</ele>
        <time>2019-02-12T01:39:44Z</time>
      </trkpt>
      <trkpt lat="42.14654" lon="1.36665">
        <ele>1360.1</ele>
        <time>2019-02-12T01:39:50Z</time>
      </trkpt>
      <trkpt lat="42.14663" lon="1.36674">
        <ele>1360.1</ele>
        <time>2019-02-12T01:39:56Z</time>
      </trkpt>
      <trkpt lat="42.14671" lon="1.36679">
        <ele>1360.5</ele>
        <time>2019-02-12T01:40:01Z</time>
      </trkpt>
      <trkpt lat="42.1468" lon="1.36685">
        <ele>1360</ele>
        <time>2019-02-12T01:40:07Z</time>
      </trkpt>
      <trkpt lat="42.14689" lon="1.36688">
        <ele>1360.1</ele>
        <time>2019-02-12T01:40:12Z</time>
      </trkpt>
      <trkpt lat="42.14697" lon="1.36691">
        <ele>1360.4</ele>
        <time>2019-02-12T01:40:17Z</time>
      </trkpt>
      <trkpt lat="42.14705" lon="1.36696">
        <ele>1360.8</ele>
        <time>2019-02-12T01:40:22Z</time>
      </trkpt>
      <trkpt lat="42.14714" lon="1.36699">
        <ele>1360.5</ele>
        <time>2019-02-12T01:40:27Z</time>
      </trkpt>
      <trkpt lat="42.14724" lon="1.36707">
        <ele>1362.5</ele>
        <time>2019-02-12T01:40:34Z</time>
      </trkpt>
      <trkpt lat="42.14731" lon="1.36715">
        <ele>1363.2</ele>
        <time>2019-02-12T01:40:39Z</time>
      </trkpt>
      <trkpt lat="42.14739" lon="1.36724">
        <ele>1362.4</ele>
        <time>2019-02-12T01:40:45Z</time>
      </trkpt>
      <trkpt lat="42.14747" lon="1.36733">
        <ele>1362.5</ele>
        <time>2019-02-12T01:40:51Z</time>
      </trkpt>
      <trkpt lat="42.14754" lon="1.36747">
        <ele>1361.8</ele>
        <time>2019-02-12T01:40:58Z</time>
      </trkpt>
      <trkpt lat="42.1476" lon="1.36756">
        <ele>1361.4</ele>
        <time>2019-02-12T01:41:03Z</time>
      </trkpt>
      <trkpt lat="42.14765" lon="1.36765">
        <ele>1361.4</ele>
        <time>2019-02-12T01:41:08Z</time>
      </trkpt>
      <trkpt lat="42.14773" lon="1.36774">
        <ele>1361.4</ele>
        <time>2019-02-12T01:41:14Z</time>
      </trkpt>
      <trkpt lat="42.14781" lon="1.36782">
        <ele>1360.9</ele>
        <time>2019-02-12T01:41:20Z</time>
      </trkpt>
      <trkpt lat="42.14789" lon="1.36791">
        <ele>1360.4</ele>
        <time>2019-02-12T01:41:26Z</time>
      </trkpt>
      <trkpt lat="42.14798" lon="1.36799">
        <ele>1360.1</ele>
        <time>2019-02-12T01:41:32Z</time>
      </trkpt>
      <trkpt lat="42.14806" lon="1.36808">
        <ele>1360.4</ele>
        <time>2019-02-12T01:41:38Z</time>
      </trkpt>
      <trkpt lat="42.14811" lon="1.36819">
        <ele>1359.4</ele>
        <time>2019-02-12T01:41:43Z</time>
      </trkpt>
      <trkpt lat="42.14815" lon="1.36833">
        <ele>1359.4</ele>
        <time>2019-02-12T01:41:49Z</time>
      </trkpt>
      <trkpt lat="42.14823" lon="1.36844">
        <ele>1359</ele>
        <time>2019-02-12T01:41:56Z</time>
      </trkpt>
      <trkpt lat="42.14828" lon="1.36855">
        <ele>1358.5</ele>
        <time>2019-02-12T01:42:01Z</time>
      </trkpt>
      <trkpt lat="42.14831" lon="1.36869">
        <ele>1359</ele>
        <time>2019-02-12T01:42:08Z</time>
      </trkpt>
      <trkpt lat="42.14836" lon="1.36879">
        <ele>1359.1</ele>
        <time>2019-02-12T01:42:13Z</time>
      </trkpt>
      <trkpt lat="42.14841" lon="1.36893">
        <ele>1359.4</ele>
        <time>2019-02-12T01:42:20Z</time>
      </trkpt>
      <trkpt lat="42.14845" lon="1.36905">
        <ele>1360.8</ele>
        <time>2019-02-12T01:42:25Z</time>
      </trkpt>
      <trkpt lat="42.1485" lon="1.36921">
        <ele>1363.8</ele>
        <time>2019-02-12T01:42:32Z</time>
      </trkpt>
      <trkpt lat="42.14858" lon="1.36931">
        <ele>1366.2</ele>
        <time>2019-02-12T01:42:39Z</time>
      </trkpt>
      <trkpt lat="42.14863" lon="1.36945">
        <ele>1369.6</ele>
        <time>2019-02-12T01:42:45Z</time>
      </trkpt>
      <trkpt lat="42.1487" lon="1.3696">
        <ele>1372</ele>
        <time>2019-02-12T01:42:53Z</time>
      </trkpt>
      <trkpt lat="42.14878" lon="1.36969">
        <ele>1373.4</ele>
        <time>2019-02-12T01:42:58Z</time>
      </trkpt>
      <trkpt lat="42.14882" lon="1.36985">
        <ele>1375.4</ele>
        <time>2019-02-12T01:43:06Z</time>
      </trkpt>
      <trkpt lat="42.14888" lon="1.36999">
        <ele>1377.8</ele>
        <time>2019-02-12T01:43:13Z</time>
      </trkpt>
      <trkpt lat="42.14891" lon="1.37012">
        <ele>1381</ele>
        <time>2019-02-12T01:43:18Z</time>
      </trkpt>
      <trkpt lat="42.14902" lon="1.37025">
        <ele>1382</ele>
        <time>2019-02-12T01:43:27Z</time>
      </trkpt>
      <trkpt lat="42.1491" lon="1.37038">
        <ele>1383.4</ele>
        <time>2019-02-12T01:43:34Z</time>
      </trkpt>
      <trkpt lat="42.14914" lon="1.37052">
        <ele>1385.4</ele>
        <time>2019-02-12T01:43:40Z</time>
      </trkpt>
      <trkpt lat="42.14917" lon="1.37069">
        <ele>1388.3</ele>
        <time>2019-02-12T01:43:47Z</time>
      </trkpt>
      <trkpt lat="42.14915" lon="1.37089">
        <ele>1390.3</ele>
        <time>2019-02-12T01:43:56Z</time>
      </trkpt>
      <trkpt lat="42.14912" lon="1.37108">
        <ele>1393.7</ele>
        <time>2019-02-12T01:44:04Z</time>
      </trkpt>
      <trkpt lat="42.14914" lon="1.37128">
        <ele>1396</ele>
        <time>2019-02-12T01:44:13Z</time>
      </trkpt>
      <trkpt lat="42.14907" lon="1.37157">
        <ele>1396</ele>
        <time>2019-02-12T01:44:26Z</time>
      </trkpt>
      <trkpt lat="42.14901" lon="1.37179">
        <ele>1393.1</ele>
        <time>2019-02-12T01:44:36Z</time>
      </trkpt>
      <trkpt lat="42.14886" lon="1.37203">
        <ele>1368.6</ele>
        <time>2019-02-12T01:44:49Z</time>
      </trkpt>
      <trkpt lat="42.1488" lon="1.3723">
        <ele>1359.4</ele>
        <time>2019-02-12T01:45:01Z</time>
      </trkpt>
      <trkpt lat="42.14868" lon="1.3726">
        <ele>1349.4</ele>
        <time>2019-02-12T01:45:15Z</time>
      </trkpt>
      <trkpt lat="42.14867" lon="1.37275">
        <ele>1349.5</ele>
        <time>2019-02-12T01:45:22Z</time>
      </trkpt>
      <trkpt lat="42.14864" lon="1.37288">
        <ele>1346.5</ele>
        <time>2019-02-12T01:45:28Z</time>
      </trkpt>
      <trkpt lat="42.14864" lon="1.37303">
        <ele>1344.1</ele>
        <time>2019-02-12T01:45:34Z</time>
      </trkpt>
      <trkpt lat="42.14868" lon="1.37314">
        <ele>1343.7</ele>
        <time>2019-02-12T01:45:39Z</time>
      </trkpt>
      <trkpt lat="42.14874" lon="1.37325">
        <ele>1340.3</ele>
        <time>2019-02-12T01:45:45Z</time>
      </trkpt>
      <trkpt lat="42.1488" lon="1.37338">
        <ele>1339.8</ele>
        <time>2019-02-12T01:45:51Z</time>
      </trkpt>
      <trkpt lat="42.14883" lon="1.37351">
        <ele>1338.2</ele>
        <time>2019-02-12T01:45:57Z</time>
      </trkpt>
      <trkpt lat="42.14887" lon="1.37363">
        <ele>1338.8</ele>
        <time>2019-02-12T01:46:03Z</time>
      </trkpt>
      <trkpt lat="42.1489" lon="1.37375">
        <ele>1339.2</ele>
        <time>2019-02-12T01:46:08Z</time>
      </trkpt>
      <trkpt lat="42.14894" lon="1.37389">
        <ele>1337.9</ele>
        <time>2019-02-12T01:46:14Z</time>
      </trkpt>
      <trkpt lat="42.14897" lon="1.37401">
        <ele>1335</ele>
        <time>2019-02-12T01:46:20Z</time>
      </trkpt>
      <trkpt lat="42.14902" lon="1.37412">
        <ele>1334.1</ele>
        <time>2019-02-12T01:46:25Z</time>
      </trkpt>
      <trkpt lat="42.14905" lon="1.37425">
        <ele>1334.1</ele>
        <time>2019-02-12T01:46:31Z</time>
      </trkpt>
      <trkpt lat="42.14908" lon="1.37439">
        <ele>1334</ele>
        <time>2019-02-12T01:46:37Z</time>
      </trkpt>
      <trkpt lat="42.1491" lon="1.37449">
        <ele>1330.3</ele>
        <time>2019-02-12T01:46:42Z</time>
      </trkpt>
      <trkpt lat="42.14916" lon="1.3746">
        <ele>1325.8</ele>
        <time>2019-02-12T01:46:47Z</time>
      </trkpt>
      <trkpt lat="42.14923" lon="1.37469">
        <ele>1323</ele>
        <time>2019-02-12T01:46:53Z</time>
      </trkpt>
      <trkpt lat="42.14928" lon="1.37482">
        <ele>1321</ele>
        <time>2019-02-12T01:46:59Z</time>
      </trkpt>
      <trkpt lat="42.14934" lon="1.37493">
        <ele>1322</ele>
        <time>2019-02-12T01:47:05Z</time>
      </trkpt>
      <trkpt lat="42.14941" lon="1.37503">
        <ele>1321.5</ele>
        <time>2019-02-12T01:47:10Z</time>
      </trkpt>
      <trkpt lat="42.14948" lon="1.37511">
        <ele>1323.4</ele>
        <time>2019-02-12T01:47:16Z</time>
      </trkpt>
      <trkpt lat="42.14959" lon="1.37515">
        <ele>1323.9</ele>
        <time>2019-02-12T01:47:22Z</time>
      </trkpt>
      <trkpt lat="42.14969" lon="1.37517">
        <ele>1323.5</ele>
        <time>2019-02-12T01:47:28Z</time>
      </trkpt>
      <trkpt lat="42.14978" lon="1.37519">
        <ele>1322</ele>
        <time>2019-02-12T01:47:33Z</time>
      </trkpt>
      <trkpt lat="42.1499" lon="1.3752">
        <ele>1323.9</ele>
        <time>2019-02-12T01:47:40Z</time>
      </trkpt>
      <trkpt lat="42.14999" lon="1.37523">
        <ele>1324.9</ele>
        <time>2019-02-12T01:47:46Z</time>
      </trkpt>
      <trkpt lat="42.15005" lon="1.37535">
        <ele>1325.8</ele>
        <time>2019-02-12T01:47:52Z</time>
      </trkpt>
      <trkpt lat="42.1501" lon="1.37547">
        <ele>1326.2</ele>
        <time>2019-02-12T01:47:57Z</time>
      </trkpt>
      <trkpt lat="42.15018" lon="1.37555">
        <ele>1327.8</ele>
        <time>2019-02-12T01:48:04Z</time>
      </trkpt>
      <trkpt lat="42.15026" lon="1.37565">
        <ele>1329.2</ele>
        <time>2019-02-12T01:48:09Z</time>
      </trkpt>
      <trkpt lat="42.15031" lon="1.37575">
        <ele>1330.7</ele>
        <time>2019-02-12T01:48:15Z</time>
      </trkpt>
      <trkpt lat="42.15038" lon="1.37585">
        <ele>1330.6</ele>
        <time>2019-02-12T01:48:20Z</time>
      </trkpt>
      <trkpt lat="42.15043" lon="1.37596">
        <ele>1331.7</ele>
        <time>2019-02-12T01:48:26Z</time>
      </trkpt>
      <trkpt lat="42.1505" lon="1.37606">
        <ele>1331.1</ele>
        <time>2019-02-12T01:48:32Z</time>
      </trkpt>
      <trkpt lat="42.15056" lon="1.37617">
        <ele>1332.7</ele>
        <time>2019-02-12T01:48:38Z</time>
      </trkpt>
      <trkpt lat="42.15062" lon="1.37628">
        <ele>1333.4</ele>
        <time>2019-02-12T01:48:43Z</time>
      </trkpt>
      <trkpt lat="42.15068" lon="1.37637">
        <ele>1333.1</ele>
        <time>2019-02-12T01:48:49Z</time>
      </trkpt>
      <trkpt lat="42.15073" lon="1.37649">
        <ele>1332.7</ele>
        <time>2019-02-12T01:48:54Z</time>
      </trkpt>
      <trkpt lat="42.15083" lon="1.37647">
        <ele>1333.4</ele>
        <time>2019-02-12T01:49:00Z</time>
      </trkpt>
      <trkpt lat="42.15091" lon="1.3764">
        <ele>1333</ele>
        <time>2019-02-12T01:49:06Z</time>
      </trkpt>
      <trkpt lat="42.15099" lon="1.37635">
        <ele>1331.1</ele>
        <time>2019-02-12T01:49:10Z</time>
      </trkpt>
      <trkpt lat="42.15109" lon="1.37638">
        <ele>1331.7</ele>
        <time>2019-02-12T01:49:16Z</time>
      </trkpt>
      <trkpt lat="42.15121" lon="1.37639">
        <ele>1332.7</ele>
        <time>2019-02-12T01:49:23Z</time>
      </trkpt>
      <trkpt lat="42.15131" lon="1.37645">
        <ele>1333.5</ele>
        <time>2019-02-12T01:49:29Z</time>
      </trkpt>
      <trkpt lat="42.15141" lon="1.37651">
        <ele>1332.6</ele>
        <time>2019-02-12T01:49:36Z</time>
      </trkpt>
      <trkpt lat="42.1515" lon="1.37658">
        <ele>1333</ele>
        <time>2019-02-12T01:49:42Z</time>
      </trkpt>
      <trkpt lat="42.1516" lon="1.37661">
        <ele>1332.1</ele>
        <time>2019-02-12T01:49:47Z</time>
      </trkpt>
      <trkpt lat="42.15169" lon="1.37667">
        <ele>1335</ele>
        <time>2019-02-12T01:49:53Z</time>
      </trkpt>
      <trkpt lat="42.15178" lon="1.37671">
        <ele>1336.9</ele>
        <time>2019-02-12T01:49:58Z</time>
      </trkpt>
      <trkpt lat="42.15189" lon="1.37678">
        <ele>1338.2</ele>
        <time>2019-02-12T01:50:05Z</time>
      </trkpt>
      <trkpt lat="42.15201" lon="1.37683">
        <ele>1334.4</ele>
        <time>2019-02-12T01:50:13Z</time>
      </trkpt>
      <trkpt lat="42.15214" lon="1.3768">
        <ele>1329.7</ele>
        <time>2019-02-12T01:50:20Z</time>
      </trkpt>
      <trkpt lat="42.15224" lon="1.37677">
        <ele>1331.7</ele>
        <time>2019-02-12T01:50:26Z</time>
      </trkpt>
      <trkpt lat="42.15236" lon="1.37673">
        <ele>1333.1</ele>
        <time>2019-02-12T01:50:33Z</time>
      </trkpt>
      <trkpt lat="42.15246" lon="1.37669">
        <ele>1330.3</ele>
        <time>2019-02-12T01:50:39Z</time>
      </trkpt>
      <trkpt lat="42.15255" lon="1.37662">
        <ele>1330.2</ele>
        <time>2019-02-12T01:50:45Z</time>
      </trkpt>
      <trkpt lat="42.15264" lon="1.37657">
        <ele>1326.9</ele>
        <time>2019-02-12T01:50:51Z</time>
      </trkpt>
      <trkpt lat="42.15273" lon="1.37652">
        <ele>1326.8</ele>
        <time>2019-02-12T01:50:56Z</time>
      </trkpt>
      <trkpt lat="42.15284" lon="1.37647">
        <ele>1327.3</ele>
        <time>2019-02-12T01:51:03Z</time>
      </trkpt>
      <trkpt lat="42.15293" lon="1.37646">
        <ele>1327.8</ele>
        <time>2019-02-12T01:51:08Z</time>
      </trkpt>
      <trkpt lat="42.15301" lon="1.37653">
        <ele>1329.2</ele>
        <time>2019-02-12T01:51:13Z</time>
      </trkpt>
      <trkpt lat="42.15308" lon="1.37661">
        <ele>1329.6</ele>
        <time>2019-02-12T01:51:19Z</time>
      </trkpt>
      <trkpt lat="42.15321" lon="1.37664">
        <ele>1331.7</ele>
        <time>2019-02-12T01:51:26Z</time>
      </trkpt>
      <trkpt lat="42.1533" lon="1.37659">
        <ele>1332</ele>
        <time>2019-02-12T01:51:32Z</time>
      </trkpt>
      <trkpt lat="42.15339" lon="1.37652">
        <ele>1333</ele>
        <time>2019-02-12T01:51:38Z</time>
      </trkpt>
      <trkpt lat="42.15348" lon="1.37647">
        <ele>1332</ele>
        <time>2019-02-12T01:51:43Z</time>
      </trkpt>
      <trkpt lat="42.15359" lon="1.37645">
        <ele>1334.5</ele>
        <time>2019-02-12T01:51:49Z</time>
      </trkpt>
      <trkpt lat="42.15371" lon="1.37645">
        <ele>1336.4</ele>
        <time>2019-02-12T01:51:56Z</time>
      </trkpt>
      <trkpt lat="42.15384" lon="1.37646">
        <ele>1336.5</ele>
        <time>2019-02-12T01:52:04Z</time>
      </trkpt>
      <trkpt lat="42.15395" lon="1.37644">
        <ele>1335.1</ele>
        <time>2019-02-12T01:52:10Z</time>
      </trkpt>
      <trkpt lat="42.15404" lon="1.3764">
        <ele>1337.9</ele>
        <time>2019-02-12T01:52:15Z</time>
      </trkpt>
      <trkpt lat="42.15412" lon="1.37636">
        <ele>1336.4</ele>
        <time>2019-02-12T01:52:21Z</time>
      </trkpt>
      <trkpt lat="42.15418" lon="1.37626">
        <ele>1335.4</ele>
        <time>2019-02-12T01:52:26Z</time>
      </trkpt>
      <trkpt lat="42.15427" lon="1.37618">
        <ele>1333.1</ele>
        <time>2019-02-12T01:52:32Z</time>
      </trkpt>
      <trkpt lat="42.15434" lon="1.37609">
        <ele>1331.7</ele>
        <time>2019-02-12T01:52:38Z</time>
      </trkpt>
      <trkpt lat="42.15445" lon="1.37613">
        <ele>1332.7</ele>
        <time>2019-02-12T01:52:44Z</time>
      </trkpt>
      <trkpt lat="42.15452" lon="1.37623">
        <ele>1333.1</ele>
        <time>2019-02-12T01:52:50Z</time>
      </trkpt>
      <trkpt lat="42.15457" lon="1.37637">
        <ele>1333.5</ele>
        <time>2019-02-12T01:52:57Z</time>
      </trkpt>
      <trkpt lat="42.15462" lon="1.37649">
        <ele>1333.5</ele>
        <time>2019-02-12T01:53:03Z</time>
      </trkpt>
      <trkpt lat="42.15468" lon="1.37662">
        <ele>1334.1</ele>
        <time>2019-02-12T01:53:09Z</time>
      </trkpt>
      <trkpt lat="42.15475" lon="1.37671">
        <ele>1335.1</ele>
        <time>2019-02-12T01:53:15Z</time>
      </trkpt>
      <trkpt lat="42.15484" lon="1.37677">
        <ele>1335.8</ele>
        <time>2019-02-12T01:53:20Z</time>
      </trkpt>
      <trkpt lat="42.15492" lon="1.37683">
        <ele>1332</ele>
        <time>2019-02-12T01:53:25Z</time>
      </trkpt>
      <trkpt lat="42.155" lon="1.37691">
        <ele>1330.2</ele>
        <time>2019-02-12T01:53:31Z</time>
      </trkpt>
      <trkpt lat="42.15506" lon="1.37701">
        <ele>1331.1</ele>
        <time>2019-02-12T01:53:36Z</time>
      </trkpt>
      <trkpt lat="42.15513" lon="1.37711">
        <ele>1329.6</ele>
        <time>2019-02-12T01:53:42Z</time>
      </trkpt>
      <trkpt lat="42.15519" lon="1.37723">
        <ele>1331.1</ele>
        <time>2019-02-12T01:53:48Z</time>
      </trkpt>
      <trkpt lat="42.15524" lon="1.37734">
        <ele>1330.2</ele>
        <time>2019-02-12T01:53:54Z</time>
      </trkpt>
      <trkpt lat="42.15532" lon="1.37745">
        <ele>1331</ele>
        <time>2019-02-12T01:54:00Z</time>
      </trkpt>
      <trkpt lat="42.15541" lon="1.37753">
        <ele>1330.2</ele>
        <time>2019-02-12T01:54:07Z</time>
      </trkpt>
      <trkpt lat="42.15546" lon="1.37764">
        <ele>1328.2</ele>
        <time>2019-02-12T01:54:12Z</time>
      </trkpt>
      <trkpt lat="42.15554" lon="1.37774">
        <ele>1325.8</ele>
        <time>2019-02-12T01:54:18Z</time>
      </trkpt>
      <trkpt lat="42.15563" lon="1.37785">
        <ele>1325.5</ele>
        <time>2019-02-12T01:54:25Z</time>
      </trkpt>
      <trkpt lat="42.15571" lon="1.37794">
        <ele>1324.4</ele>
        <time>2019-02-12T01:54:31Z</time>
      </trkpt>
      <trkpt lat="42.15583" lon="1.378">
        <ele>1323</ele>
        <time>2019-02-12T01:54:38Z</time>
      </trkpt>
      <trkpt lat="42.15596" lon="1.37808">
        <ele>1322.1</ele>
        <time>2019-02-12T01:54:47Z</time>
      </trkpt>
      <trkpt lat="42.15613" lon="1.37811">
        <ele>1320.7</ele>
        <time>2019-02-12T01:54:56Z</time>
      </trkpt>
      <trkpt lat="42.15625" lon="1.37817">
        <ele>1322</ele>
        <time>2019-02-12T01:55:03Z</time>
      </trkpt>
      <trkpt lat="42.15646" lon="1.37831">
        <ele>1319.7</ele>
        <time>2019-02-12T01:55:17Z</time>
      </trkpt>
      <trkpt lat="42.15657" lon="1.37838">
        <ele>1318.6</ele>
        <time>2019-02-12T01:55:24Z</time>
      </trkpt>
      <trkpt lat="42.15666" lon="1.37847">
        <ele>1318.7</ele>
        <time>2019-02-12T01:55:30Z</time>
      </trkpt>
      <trkpt lat="42.15673" lon="1.37854">
        <ele>1316.7</ele>
        <time>2019-02-12T01:55:36Z</time>
      </trkpt>
      <trkpt lat="42.15681" lon="1.37865">
        <ele>1318.6</ele>
        <time>2019-02-12T01:55:42Z</time>
      </trkpt>
      <trkpt lat="42.1568" lon="1.3788">
        <ele>1319.1</ele>
        <time>2019-02-12T01:55:48Z</time>
      </trkpt>
      <trkpt lat="42.15679" lon="1.37897">
        <ele>1319.6</ele>
        <time>2019-02-12T01:55:56Z</time>
      </trkpt>
      <trkpt lat="42.1568" lon="1.37913">
        <ele>1320</ele>
        <time>2019-02-12T01:56:02Z</time>
      </trkpt>
      <trkpt lat="42.15688" lon="1.37924">
        <ele>1322.1</ele>
        <time>2019-02-12T01:56:09Z</time>
      </trkpt>
      <trkpt lat="42.15701" lon="1.37924">
        <ele>1321.4</ele>
        <time>2019-02-12T01:56:17Z</time>
      </trkpt>
      <trkpt lat="42.15714" lon="1.37927">
        <ele>1322.5</ele>
        <time>2019-02-12T01:56:24Z</time>
      </trkpt>
      <trkpt lat="42.15726" lon="1.37931">
        <ele>1321.1</ele>
        <time>2019-02-12T01:56:31Z</time>
      </trkpt>
      <trkpt lat="42.15725" lon="1.37948">
        <ele>1317.6</ele>
        <time>2019-02-12T01:56:38Z</time>
      </trkpt>
      <trkpt lat="42.1572" lon="1.37958">
        <ele>1316.3</ele>
        <time>2019-02-12T01:56:43Z</time>
      </trkpt>
      <trkpt lat="42.15715" lon="1.37971">
        <ele>1315.8</ele>
        <time>2019-02-12T01:56:49Z</time>
      </trkpt>
      <trkpt lat="42.15713" lon="1.37984">
        <ele>1313.9</ele>
        <time>2019-02-12T01:56:55Z</time>
      </trkpt>
      <trkpt lat="42.15711" lon="1.37998">
        <ele>1310</ele>
        <time>2019-02-12T01:57:01Z</time>
      </trkpt>
      <trkpt lat="42.1571" lon="1.38012">
        <ele>1307</ele>
        <time>2019-02-12T01:57:07Z</time>
      </trkpt>
      <trkpt lat="42.15715" lon="1.38022">
        <ele>1305.2</ele>
        <time>2019-02-12T01:57:12Z</time>
      </trkpt>
      <trkpt lat="42.15727" lon="1.38019">
        <ele>1298</ele>
        <time>2019-02-12T01:57:19Z</time>
      </trkpt>
      <trkpt lat="42.15742" lon="1.38017">
        <ele>1294.6</ele>
        <time>2019-02-12T01:57:28Z</time>
      </trkpt>
      <trkpt lat="42.15756" lon="1.38019">
        <ele>1290.3</ele>
        <time>2019-02-12T01:57:36Z</time>
      </trkpt>
      <trkpt lat="42.15768" lon="1.38029">
        <ele>1288.8</ele>
        <time>2019-02-12T01:57:44Z</time>
      </trkpt>
      <trkpt lat="42.15761" lon="1.38041">
        <ele>1287.9</ele>
        <time>2019-02-12T01:57:50Z</time>
      </trkpt>
      <trkpt lat="42.15753" lon="1.38051">
        <ele>1286.1</ele>
        <time>2019-02-12T01:57:56Z</time>
      </trkpt>
      <trkpt lat="42.1576" lon="1.38061">
        <ele>1284.5</ele>
        <time>2019-02-12T01:58:02Z</time>
      </trkpt>
      <trkpt lat="42.15772" lon="1.3807">
        <ele>1281.6</ele>
        <time>2019-02-12T01:58:10Z</time>
      </trkpt>
      <trkpt lat="42.15784" lon="1.38079">
        <ele>1279.7</ele>
        <time>2019-02-12T01:58:18Z</time>
      </trkpt>
      <trkpt lat="42.15795" lon="1.38082">
        <ele>1276.8</ele>
        <time>2019-02-12T01:58:25Z</time>
      </trkpt>
      <trkpt lat="42.15804" lon="1.38089">
        <ele>1275.8</ele>
        <time>2019-02-12T01:58:30Z</time>
      </trkpt>
      <trkpt lat="42.15811" lon="1.381">
        <ele>1275.4</ele>
        <time>2019-02-12T01:58:37Z</time>
      </trkpt>
      <trkpt lat="42.15817" lon="1.38113">
        <ele>1275.4</ele>
        <time>2019-02-12T01:58:43Z</time>
      </trkpt>
      <trkpt lat="42.15824" lon="1.38125">
        <ele>1274.4</ele>
        <time>2019-02-12T01:58:49Z</time>
      </trkpt>
      <trkpt lat="42.15826" lon="1.38137">
        <ele>1274.4</ele>
        <time>2019-02-12T01:58:55Z</time>
      </trkpt>
      <trkpt lat="42.15831" lon="1.38149">
        <ele>1274.8</ele>
        <time>2019-02-12T01:59:01Z</time>
      </trkpt>
      <trkpt lat="42.15835" lon="1.38162">
        <ele>1274.8</ele>
        <time>2019-02-12T01:59:06Z</time>
      </trkpt>
      <trkpt lat="42.15826" lon="1.38178">
        <ele>1273.9</ele>
        <time>2019-02-12T01:59:15Z</time>
      </trkpt>
      <trkpt lat="42.15823" lon="1.3819">
        <ele>1273</ele>
        <time>2019-02-12T01:59:20Z</time>
      </trkpt>
      <trkpt lat="42.15823" lon="1.38204">
        <ele>1271.5</ele>
        <time>2019-02-12T01:59:26Z</time>
      </trkpt>
      <trkpt lat="42.15827" lon="1.38218">
        <ele>1270.6</ele>
        <time>2019-02-12T01:59:33Z</time>
      </trkpt>
      <trkpt lat="42.1583" lon="1.38231">
        <ele>1271</ele>
        <time>2019-02-12T01:59:39Z</time>
      </trkpt>
      <trkpt lat="42.15832" lon="1.38246">
        <ele>1269</ele>
        <time>2019-02-12T01:59:45Z</time>
      </trkpt>
      <trkpt lat="42.15836" lon="1.38258">
        <ele>1268.6</ele>
        <time>2019-02-12T01:59:51Z</time>
      </trkpt>
      <trkpt lat="42.15841" lon="1.38272">
        <ele>1269.1</ele>
        <time>2019-02-12T01:59:57Z</time>
      </trkpt>
      <trkpt lat="42.15845" lon="1.3828">
        <ele>1268.7</ele>
        <time>2019-02-12T02:00:01Z</time>
      </trkpt>
      <trkpt lat="42.15853" lon="1.38285">
        <ele>1267.3</ele>
        <time>2019-02-12T02:00:06Z</time>
      </trkpt>
      <trkpt lat="42.1586" lon="1.38293">
        <ele>1266.7</ele>
        <time>2019-02-12T02:00:12Z</time>
      </trkpt>
      <trkpt lat="42.15865" lon="1.38304">
        <ele>1264.8</ele>
        <time>2019-02-12T02:00:17Z</time>
      </trkpt>
      <trkpt lat="42.1587" lon="1.38316">
        <ele>1261.8</ele>
        <time>2019-02-12T02:00:23Z</time>
      </trkpt>
      <trkpt lat="42.15872" lon="1.38332">
        <ele>1262.9</ele>
        <time>2019-02-12T02:00:30Z</time>
      </trkpt>
      <trkpt lat="42.15877" lon="1.38344">
        <ele>1263.4</ele>
        <time>2019-02-12T02:00:35Z</time>
      </trkpt>
      <trkpt lat="42.15885" lon="1.38353">
        <ele>1263.8</ele>
        <time>2019-02-12T02:00:41Z</time>
      </trkpt>
      <trkpt lat="42.15893" lon="1.3836">
        <ele>1264.8</ele>
        <time>2019-02-12T02:00:47Z</time>
      </trkpt>
      <trkpt lat="42.15898" lon="1.38372">
        <ele>1266.6</ele>
        <time>2019-02-12T02:00:53Z</time>
      </trkpt>
      <trkpt lat="42.15903" lon="1.38387">
        <ele>1268.7</ele>
        <time>2019-02-12T02:01:00Z</time>
      </trkpt>
      <trkpt lat="42.1591" lon="1.38395">
        <ele>1268.6</ele>
        <time>2019-02-12T02:01:05Z</time>
      </trkpt>
      <trkpt lat="42.15915" lon="1.38406">
        <ele>1267.3</ele>
        <time>2019-02-12T02:01:11Z</time>
      </trkpt>
      <trkpt lat="42.15918" lon="1.3842">
        <ele>1266.7</ele>
        <time>2019-02-12T02:01:17Z</time>
      </trkpt>
      <trkpt lat="42.15918" lon="1.38436">
        <ele>1266.2</ele>
        <time>2019-02-12T02:01:24Z</time>
      </trkpt>
      <trkpt lat="42.15921" lon="1.38448">
        <ele>1266.7</ele>
        <time>2019-02-12T02:01:29Z</time>
      </trkpt>
      <trkpt lat="42.15933" lon="1.3845">
        <ele>1266.7</ele>
        <time>2019-02-12T02:01:36Z</time>
      </trkpt>
      <trkpt lat="42.15943" lon="1.38446">
        <ele>1265.2</ele>
        <time>2019-02-12T02:01:42Z</time>
      </trkpt>
      <trkpt lat="42.15952" lon="1.38445">
        <ele>1263.4</ele>
        <time>2019-02-12T02:01:48Z</time>
      </trkpt>
      <trkpt lat="42.15963" lon="1.38451">
        <ele>1261.5</ele>
        <time>2019-02-12T02:01:54Z</time>
      </trkpt>
      <trkpt lat="42.15976" lon="1.38461">
        <ele>1255.2</ele>
        <time>2019-02-12T02:02:03Z</time>
      </trkpt>
      <trkpt lat="42.15987" lon="1.38472">
        <ele>1252.2</ele>
        <time>2019-02-12T02:02:11Z</time>
      </trkpt>
      <trkpt lat="42.15992" lon="1.38485">
        <ele>1250.8</ele>
        <time>2019-02-12T02:02:17Z</time>
      </trkpt>
      <trkpt lat="42.15994" lon="1.385">
        <ele>1251.8</ele>
        <time>2019-02-12T02:02:23Z</time>
      </trkpt>
      <trkpt lat="42.15987" lon="1.3851">
        <ele>1252.2</ele>
        <time>2019-02-12T02:02:29Z</time>
      </trkpt>
      <trkpt lat="42.15979" lon="1.38516">
        <ele>1252.9</ele>
        <time>2019-02-12T02:02:34Z</time>
      </trkpt>
      <trkpt lat="42.15968" lon="1.38517">
        <ele>1253.7</ele>
        <time>2019-02-12T02:02:40Z</time>
      </trkpt>
      <trkpt lat="42.15958" lon="1.38516">
        <ele>1254.2</ele>
        <time>2019-02-12T02:02:46Z</time>
      </trkpt>
      <trkpt lat="42.15947" lon="1.38515">
        <ele>1255.2</ele>
        <time>2019-02-12T02:02:53Z</time>
      </trkpt>
      <trkpt lat="42.15936" lon="1.38515">
        <ele>1257</ele>
        <time>2019-02-12T02:02:59Z</time>
      </trkpt>
      <trkpt lat="42.15921" lon="1.38522">
        <ele>1258</ele>
        <time>2019-02-12T02:03:08Z</time>
      </trkpt>
      <trkpt lat="42.15911" lon="1.38534">
        <ele>1262.9</ele>
        <time>2019-02-12T02:03:15Z</time>
      </trkpt>
      <trkpt lat="42.15904" lon="1.38542">
        <ele>1261.4</ele>
        <time>2019-02-12T02:03:21Z</time>
      </trkpt>
      <trkpt lat="42.15898" lon="1.38551">
        <ele>1261.1</ele>
        <time>2019-02-12T02:03:26Z</time>
      </trkpt>
      <trkpt lat="42.15888" lon="1.38559">
        <ele>1261.9</ele>
        <time>2019-02-12T02:03:32Z</time>
      </trkpt>
      <trkpt lat="42.15878" lon="1.3856">
        <ele>1262.5</ele>
        <time>2019-02-12T02:03:38Z</time>
      </trkpt>
      <trkpt lat="42.15869" lon="1.38548">
        <ele>1262.9</ele>
        <time>2019-02-12T02:03:45Z</time>
      </trkpt>
      <trkpt lat="42.1586" lon="1.38539">
        <ele>1263.4</ele>
        <time>2019-02-12T02:03:52Z</time>
      </trkpt>
      <trkpt lat="42.1585" lon="1.38534">
        <ele>1265.9</ele>
        <time>2019-02-12T02:03:58Z</time>
      </trkpt>
      <trkpt lat="42.15837" lon="1.38534">
        <ele>1266.2</ele>
        <time>2019-02-12T02:04:05Z</time>
      </trkpt>
      <trkpt lat="42.15827" lon="1.38534">
        <ele>1269</ele>
        <time>2019-02-12T02:04:11Z</time>
      </trkpt>
      <trkpt lat="42.1581" lon="1.38536">
        <ele>1274.8</ele>
        <time>2019-02-12T02:04:21Z</time>
      </trkpt>
      <trkpt lat="42.15797" lon="1.38539">
        <ele>1276.8</ele>
        <time>2019-02-12T02:04:28Z</time>
      </trkpt>
      <trkpt lat="42.15787" lon="1.38546">
        <ele>1279.2</ele>
        <time>2019-02-12T02:04:35Z</time>
      </trkpt>
      <trkpt lat="42.15773" lon="1.38551">
        <ele>1283</ele>
        <time>2019-02-12T02:04:43Z</time>
      </trkpt>
      <trkpt lat="42.15762" lon="1.38561">
        <ele>1287.9</ele>
        <time>2019-02-12T02:04:51Z</time>
      </trkpt>
      <trkpt lat="42.15754" lon="1.38569">
        <ele>1290.3</ele>
        <time>2019-02-12T02:04:56Z</time>
      </trkpt>
      <trkpt lat="42.15747" lon="1.38579">
        <ele>1292.6</ele>
        <time>2019-02-12T02:05:02Z</time>
      </trkpt>
      <trkpt lat="42.15742" lon="1.3859">
        <ele>1295.1</ele>
        <time>2019-02-12T02:05:07Z</time>
      </trkpt>
      <trkpt lat="42.15747" lon="1.38597">
        <ele>1298.1</ele>
        <time>2019-02-12T02:05:11Z</time>
      </trkpt>
      <trkpt lat="42.1577" lon="1.38583">
        <ele>1298.8</ele>
        <time>2019-02-12T02:05:26Z</time>
      </trkpt>
      <trkpt lat="42.15781" lon="1.38579">
        <ele>1295.6</ele>
        <time>2019-02-12T02:05:32Z</time>
      </trkpt>
      <trkpt lat="42.15793" lon="1.38579">
        <ele>1293.7</ele>
        <time>2019-02-12T02:05:39Z</time>
      </trkpt>
      <trkpt lat="42.15819" lon="1.38582">
        <ele>1288.9</ele>
        <time>2019-02-12T02:05:54Z</time>
      </trkpt>
      <trkpt lat="42.15835" lon="1.38586">
        <ele>1285.4</ele>
        <time>2019-02-12T02:06:04Z</time>
      </trkpt>
      <trkpt lat="42.15847" lon="1.38593">
        <ele>1283.1</ele>
        <time>2019-02-12T02:06:11Z</time>
      </trkpt>
      <trkpt lat="42.15856" lon="1.38599">
        <ele>1278.2</ele>
        <time>2019-02-12T02:06:17Z</time>
      </trkpt>
      <trkpt lat="42.15868" lon="1.38603">
        <ele>1275.9</ele>
        <time>2019-02-12T02:06:24Z</time>
      </trkpt>
      <trkpt lat="42.15874" lon="1.38611">
        <ele>1271.1</ele>
        <time>2019-02-12T02:06:29Z</time>
      </trkpt>
      <trkpt lat="42.15882" lon="1.38618">
        <ele>1266.3</ele>
        <time>2019-02-12T02:06:34Z</time>
      </trkpt>
      <trkpt lat="42.1589" lon="1.38624">
        <ele>1261.8</ele>
        <time>2019-02-12T02:06:39Z</time>
      </trkpt>
      <trkpt lat="42.15899" lon="1.38631">
        <ele>1259.4</ele>
        <time>2019-02-12T02:06:45Z</time>
      </trkpt>
      <trkpt lat="42.15905" lon="1.3864">
        <ele>1253.6</ele>
        <time>2019-02-12T02:06:51Z</time>
      </trkpt>
      <trkpt lat="42.15913" lon="1.38649">
        <ele>1251.3</ele>
        <time>2019-02-12T02:06:56Z</time>
      </trkpt>
      <trkpt lat="42.1592" lon="1.38657">
        <ele>1248.9</ele>
        <time>2019-02-12T02:07:02Z</time>
      </trkpt>
      <trkpt lat="42.15926" lon="1.38664">
        <ele>1243.7</ele>
        <time>2019-02-12T02:07:06Z</time>
      </trkpt>
      <trkpt lat="42.15933" lon="1.38675">
        <ele>1242.7</ele>
        <time>2019-02-12T02:07:12Z</time>
      </trkpt>
      <trkpt lat="42.1594" lon="1.38683">
        <ele>1238.4</ele>
        <time>2019-02-12T02:07:17Z</time>
      </trkpt>
      <trkpt lat="42.15947" lon="1.38691">
        <ele>1236.1</ele>
        <time>2019-02-12T02:07:23Z</time>
      </trkpt>
      <trkpt lat="42.15955" lon="1.38701">
        <ele>1234</ele>
        <time>2019-02-12T02:07:29Z</time>
      </trkpt>
      <trkpt lat="42.15964" lon="1.3871">
        <ele>1231.3</ele>
        <time>2019-02-12T02:07:35Z</time>
      </trkpt>
      <trkpt lat="42.15965" lon="1.38721">
        <ele>1226.2</ele>
        <time>2019-02-12T02:07:40Z</time>
      </trkpt>
      <trkpt lat="42.15955" lon="1.38716">
        <ele>1222</ele>
        <time>2019-02-12T02:07:46Z</time>
      </trkpt>
      <trkpt lat="42.15948" lon="1.38709">
        <ele>1217.6</ele>
        <time>2019-02-12T02:07:51Z</time>
      </trkpt>
      <trkpt lat="42.15936" lon="1.38711">
        <ele>1213.5</ele>
        <time>2019-02-12T02:07:58Z</time>
      </trkpt>
      <trkpt lat="42.15924" lon="1.38706">
        <ele>1211.1</ele>
        <time>2019-02-12T02:08:05Z</time>
      </trkpt>
      <trkpt lat="42.1591" lon="1.38704">
        <ele>1211.1</ele>
        <time>2019-02-12T02:08:13Z</time>
      </trkpt>
      <trkpt lat="42.159" lon="1.38703">
        <ele>1210.5</ele>
        <time>2019-02-12T02:08:19Z</time>
      </trkpt>
      <trkpt lat="42.15891" lon="1.38699">
        <ele>1211.9</ele>
        <time>2019-02-12T02:08:25Z</time>
      </trkpt>
      <trkpt lat="42.15881" lon="1.38705">
        <ele>1214.2</ele>
        <time>2019-02-12T02:08:31Z</time>
      </trkpt>
      <trkpt lat="42.15874" lon="1.38714">
        <ele>1213.5</ele>
        <time>2019-02-12T02:08:36Z</time>
      </trkpt>
      <trkpt lat="42.15863" lon="1.38721">
        <ele>1214.3</ele>
        <time>2019-02-12T02:08:43Z</time>
      </trkpt>
      <trkpt lat="42.15855" lon="1.38731">
        <ele>1215.8</ele>
        <time>2019-02-12T02:08:49Z</time>
      </trkpt>
      <trkpt lat="42.15846" lon="1.38738">
        <ele>1216.2</ele>
        <time>2019-02-12T02:08:55Z</time>
      </trkpt>
      <trkpt lat="42.15838" lon="1.38744">
        <ele>1217.2</ele>
        <time>2019-02-12T02:09:01Z</time>
      </trkpt>
      <trkpt lat="42.15831" lon="1.38751">
        <ele>1215.3</ele>
        <time>2019-02-12T02:09:06Z</time>
      </trkpt>
      <trkpt lat="42.15831" lon="1.38765">
        <ele>1216.2</ele>
        <time>2019-02-12T02:09:11Z</time>
      </trkpt>
      <trkpt lat="42.15832" lon="1.38781">
        <ele>1216.3</ele>
        <time>2019-02-12T02:09:18Z</time>
      </trkpt>
      <trkpt lat="42.15829" lon="1.38794">
        <ele>1215.2</ele>
        <time>2019-02-12T02:09:24Z</time>
      </trkpt>
      <trkpt lat="42.15828" lon="1.38809">
        <ele>1210.5</ele>
        <time>2019-02-12T02:09:30Z</time>
      </trkpt>
      <trkpt lat="42.15826" lon="1.38823">
        <ele>1211</ele>
        <time>2019-02-12T02:09:36Z</time>
      </trkpt>
      <trkpt lat="42.15826" lon="1.38837">
        <ele>1208.1</ele>
        <time>2019-02-12T02:09:42Z</time>
      </trkpt>
      <trkpt lat="42.15823" lon="1.3885">
        <ele>1206.2</ele>
        <time>2019-02-12T02:09:48Z</time>
      </trkpt>
      <trkpt lat="42.15817" lon="1.38861">
        <ele>1205.3</ele>
        <time>2019-02-12T02:09:54Z</time>
      </trkpt>
      <trkpt lat="42.15808" lon="1.38866">
        <ele>1203.8</ele>
        <time>2019-02-12T02:09:59Z</time>
      </trkpt>
      <trkpt lat="42.15801" lon="1.38875">
        <ele>1204.2</ele>
        <time>2019-02-12T02:10:05Z</time>
      </trkpt>
      <trkpt lat="42.15793" lon="1.38885">
        <ele>1203.3</ele>
        <time>2019-02-12T02:10:11Z</time>
      </trkpt>
      <trkpt lat="42.15789" lon="1.38897">
        <ele>1202.8</ele>
        <time>2019-02-12T02:10:17Z</time>
      </trkpt>
      <trkpt lat="42.1579" lon="1.38909">
        <ele>1203.3</ele>
        <time>2019-02-12T02:10:22Z</time>
      </trkpt>
      <trkpt lat="42.15798" lon="1.38916">
        <ele>1200.8</ele>
        <time>2019-02-12T02:10:27Z</time>
      </trkpt>
      <trkpt lat="42.15807" lon="1.38916">
        <ele>1198.4</ele>
        <time>2019-02-12T02:10:32Z</time>
      </trkpt>
      <trkpt lat="42.15819" lon="1.38914">
        <ele>1196.5</ele>
        <time>2019-02-12T02:10:39Z</time>
      </trkpt>
      <trkpt lat="42.1583" lon="1.38913">
        <ele>1193.2</ele>
        <time>2019-02-12T02:10:45Z</time>
      </trkpt>
      <trkpt lat="42.15842" lon="1.38902">
        <ele>1188.9</ele>
        <time>2019-02-12T02:10:54Z</time>
      </trkpt>
      <trkpt lat="42.15854" lon="1.38887">
        <ele>1186.5</ele>
        <time>2019-02-12T02:11:03Z</time>
      </trkpt>
      <trkpt lat="42.15861" lon="1.38874">
        <ele>1186</ele>
        <time>2019-02-12T02:11:10Z</time>
      </trkpt>
      <trkpt lat="42.15868" lon="1.38866">
        <ele>1184.4</ele>
        <time>2019-02-12T02:11:15Z</time>
      </trkpt>
      <trkpt lat="42.15874" lon="1.38875">
        <ele>1181.7</ele>
        <time>2019-02-12T02:11:20Z</time>
      </trkpt>
      <trkpt lat="42.15866" lon="1.38886">
        <ele>1182.6</ele>
        <time>2019-02-12T02:11:26Z</time>
      </trkpt>
      <trkpt lat="42.15861" lon="1.38899">
        <ele>1184.1</ele>
        <time>2019-02-12T02:11:32Z</time>
      </trkpt>
      <trkpt lat="42.15861" lon="1.38911">
        <ele>1184.4</ele>
        <time>2019-02-12T02:11:38Z</time>
      </trkpt>
      <trkpt lat="42.15856" lon="1.38926">
        <ele>1184.5</ele>
        <time>2019-02-12T02:11:44Z</time>
      </trkpt>
      <trkpt lat="42.15846" lon="1.38935">
        <ele>1186</ele>
        <time>2019-02-12T02:11:52Z</time>
      </trkpt>
      <trkpt lat="42.15836" lon="1.3894">
        <ele>1189.2</ele>
        <time>2019-02-12T02:11:58Z</time>
      </trkpt>
      <trkpt lat="42.15824" lon="1.38945">
        <ele>1189.9</ele>
        <time>2019-02-12T02:12:05Z</time>
      </trkpt>
      <trkpt lat="42.15813" lon="1.38952">
        <ele>1190.9</ele>
        <time>2019-02-12T02:12:12Z</time>
      </trkpt>
      <trkpt lat="42.15803" lon="1.38964">
        <ele>1190.8</ele>
        <time>2019-02-12T02:12:19Z</time>
      </trkpt>
      <trkpt lat="42.15794" lon="1.3897">
        <ele>1190.8</ele>
        <time>2019-02-12T02:12:25Z</time>
      </trkpt>
      <trkpt lat="42.15786" lon="1.38981">
        <ele>1191.7</ele>
        <time>2019-02-12T02:12:32Z</time>
      </trkpt>
      <trkpt lat="42.15776" lon="1.3899">
        <ele>1190.8</ele>
        <time>2019-02-12T02:12:38Z</time>
      </trkpt>
      <trkpt lat="42.15769" lon="1.39001">
        <ele>1190.2</ele>
        <time>2019-02-12T02:12:45Z</time>
      </trkpt>
      <trkpt lat="42.1576" lon="1.39009">
        <ele>1189.9</ele>
        <time>2019-02-12T02:12:51Z</time>
      </trkpt>
      <trkpt lat="42.15754" lon="1.39017">
        <ele>1188.5</ele>
        <time>2019-02-12T02:12:55Z</time>
      </trkpt>
      <trkpt lat="42.15743" lon="1.39026">
        <ele>1187.9</ele>
        <time>2019-02-12T02:13:03Z</time>
      </trkpt>
      <trkpt lat="42.15734" lon="1.39032">
        <ele>1186.5</ele>
        <time>2019-02-12T02:13:09Z</time>
      </trkpt>
      <trkpt lat="42.15719" lon="1.3903">
        <ele>1179.7</ele>
        <time>2019-02-12T02:13:17Z</time>
      </trkpt>
      <trkpt lat="42.15706" lon="1.39029">
        <ele>1180.6</ele>
        <time>2019-02-12T02:13:24Z</time>
      </trkpt>
      <trkpt lat="42.15699" lon="1.39022">
        <ele>1177.2</ele>
        <time>2019-02-12T02:13:29Z</time>
      </trkpt>
      <trkpt lat="42.15683" lon="1.39019">
        <ele>1174.4</ele>
        <time>2019-02-12T02:13:39Z</time>
      </trkpt>
      <trkpt lat="42.15674" lon="1.39022">
        <ele>1171</ele>
        <time>2019-02-12T02:13:44Z</time>
      </trkpt>
      <trkpt lat="42.15679" lon="1.39047">
        <ele>1166.7</ele>
        <time>2019-02-12T02:13:55Z</time>
      </trkpt>
      <trkpt lat="42.15687" lon="1.39058">
        <ele>1166.6</ele>
        <time>2019-02-12T02:14:02Z</time>
      </trkpt>
      <trkpt lat="42.15692" lon="1.39074">
        <ele>1168.2</ele>
        <time>2019-02-12T02:14:09Z</time>
      </trkpt>
      <trkpt lat="42.15696" lon="1.39087">
        <ele>1167.6</ele>
        <time>2019-02-12T02:14:15Z</time>
      </trkpt>
      <trkpt lat="42.15701" lon="1.391">
        <ele>1168.7</ele>
        <time>2019-02-12T02:14:21Z</time>
      </trkpt>
      <trkpt lat="42.15706" lon="1.39116">
        <ele>1169.2</ele>
        <time>2019-02-12T02:14:28Z</time>
      </trkpt>
      <trkpt lat="42.15707" lon="1.39131">
        <ele>1171.6</ele>
        <time>2019-02-12T02:14:35Z</time>
      </trkpt>
      <trkpt lat="42.1571" lon="1.39148">
        <ele>1173.5</ele>
        <time>2019-02-12T02:14:42Z</time>
      </trkpt>
      <trkpt lat="42.15713" lon="1.39162">
        <ele>1175.8</ele>
        <time>2019-02-12T02:14:48Z</time>
      </trkpt>
      <trkpt lat="42.15716" lon="1.39173">
        <ele>1178.2</ele>
        <time>2019-02-12T02:14:53Z</time>
      </trkpt>
      <trkpt lat="42.15725" lon="1.39184">
        <ele>1181.3</ele>
        <time>2019-02-12T02:15:01Z</time>
      </trkpt>
      <trkpt lat="42.1572" lon="1.39189">
        <ele>1186</ele>
        <time>2019-02-12T02:15:04Z</time>
      </trkpt>
      <trkpt lat="42.15711" lon="1.39181">
        <ele>1188.4</ele>
        <time>2019-02-12T02:15:10Z</time>
      </trkpt>
      <trkpt lat="42.15702" lon="1.39172">
        <ele>1190.8</ele>
        <time>2019-02-12T02:15:16Z</time>
      </trkpt>
      <trkpt lat="42.15695" lon="1.39163">
        <ele>1192.3</ele>
        <time>2019-02-12T02:15:22Z</time>
      </trkpt>
      <trkpt lat="42.15692" lon="1.39167">
        <ele>1194.1</ele>
        <time>2019-02-12T02:15:25Z</time>
      </trkpt>
      <trkpt lat="42.15696" lon="1.3918">
        <ele>1196.4</ele>
        <time>2019-02-12T02:15:31Z</time>
      </trkpt>
      <trkpt lat="42.15701" lon="1.39194">
        <ele>1198.5</ele>
        <time>2019-02-12T02:15:37Z</time>
      </trkpt>
      <trkpt lat="42.157" lon="1.3921">
        <ele>1201.4</ele>
        <time>2019-02-12T02:15:44Z</time>
      </trkpt>
      <trkpt lat="42.15699" lon="1.39224">
        <ele>1204.2</ele>
        <time>2019-02-12T02:15:50Z</time>
      </trkpt>
      <trkpt lat="42.15702" lon="1.39236">
        <ele>1206.2</ele>
        <time>2019-02-12T02:15:55Z</time>
      </trkpt>
      <trkpt lat="42.15706" lon="1.3925">
        <ele>1207.6</ele>
        <time>2019-02-12T02:16:02Z</time>
      </trkpt>
      <trkpt lat="42.15709" lon="1.39267">
        <ele>1209.4</ele>
        <time>2019-02-12T02:16:09Z</time>
      </trkpt>
      <trkpt lat="42.15709" lon="1.39279">
        <ele>1211.5</ele>
        <time>2019-02-12T02:16:14Z</time>
      </trkpt>
      <trkpt lat="42.15708" lon="1.39293">
        <ele>1212.4</ele>
        <time>2019-02-12T02:16:20Z</time>
      </trkpt>
      <trkpt lat="42.157" lon="1.39301">
        <ele>1214.8</ele>
        <time>2019-02-12T02:16:26Z</time>
      </trkpt>
      <trkpt lat="42.15693" lon="1.39312">
        <ele>1216.3</ele>
        <time>2019-02-12T02:16:32Z</time>
      </trkpt>
      <trkpt lat="42.15689" lon="1.39325">
        <ele>1217.3</ele>
        <time>2019-02-12T02:16:38Z</time>
      </trkpt>
      <trkpt lat="42.1569" lon="1.39345">
        <ele>1218.6</ele>
        <time>2019-02-12T02:16:46Z</time>
      </trkpt>
      <trkpt lat="42.15682" lon="1.39359">
        <ele>1222.1</ele>
        <time>2019-02-12T02:16:54Z</time>
      </trkpt>
      <trkpt lat="42.15682" lon="1.39378">
        <ele>1223.8</ele>
        <time>2019-02-12T02:17:02Z</time>
      </trkpt>
      <trkpt lat="42.15685" lon="1.39397">
        <ele>1224.4</ele>
        <time>2019-02-12T02:17:10Z</time>
      </trkpt>
      <trkpt lat="42.15689" lon="1.39415">
        <ele>1226.8</ele>
        <time>2019-02-12T02:17:18Z</time>
      </trkpt>
      <trkpt lat="42.15698" lon="1.39424">
        <ele>1227.9</ele>
        <time>2019-02-12T02:17:24Z</time>
      </trkpt>
      <trkpt lat="42.1571" lon="1.3943">
        <ele>1228.9</ele>
        <time>2019-02-12T02:17:32Z</time>
      </trkpt>
      <trkpt lat="42.1572" lon="1.39438">
        <ele>1230.2</ele>
        <time>2019-02-12T02:17:38Z</time>
      </trkpt>
      <trkpt lat="42.15719" lon="1.39451">
        <ele>1232.1</ele>
        <time>2019-02-12T02:17:44Z</time>
      </trkpt>
      <trkpt lat="42.15709" lon="1.39463">
        <ele>1233.7</ele>
        <time>2019-02-12T02:17:51Z</time>
      </trkpt>
      <trkpt lat="42.15702" lon="1.39479">
        <ele>1236.1</ele>
        <time>2019-02-12T02:18:00Z</time>
      </trkpt>
      <trkpt lat="42.15692" lon="1.39496">
        <ele>1236</ele>
        <time>2019-02-12T02:18:09Z</time>
      </trkpt>
      <trkpt lat="42.15684" lon="1.39507">
        <ele>1236.4</ele>
        <time>2019-02-12T02:18:15Z</time>
      </trkpt>
      <trkpt lat="42.15679" lon="1.39517">
        <ele>1236.8</ele>
        <time>2019-02-12T02:18:20Z</time>
      </trkpt>
      <trkpt lat="42.15679" lon="1.39534">
        <ele>1237.4</ele>
        <time>2019-02-12T02:18:27Z</time>
      </trkpt>
      <trkpt lat="42.15681" lon="1.3955">
        <ele>1237.4</ele>
        <time>2019-02-12T02:18:34Z</time>
      </trkpt>
      <trkpt lat="42.15682" lon="1.39565">
        <ele>1237.5</ele>
        <time>2019-02-12T02:18:41Z</time>
      </trkpt>
      <trkpt lat="42.15685" lon="1.39576">
        <ele>1236.9</ele>
        <time>2019-02-12T02:18:46Z</time>
      </trkpt>
      <trkpt lat="42.15687" lon="1.3959">
        <ele>1237.4</ele>
        <time>2019-02-12T02:18:52Z</time>
      </trkpt>
      <trkpt lat="42.1569" lon="1.39603">
        <ele>1237.4</ele>
        <time>2019-02-12T02:18:57Z</time>
      </trkpt>
      <trkpt lat="42.15696" lon="1.39614">
        <ele>1238.4</ele>
        <time>2019-02-12T02:19:03Z</time>
      </trkpt>
      <trkpt lat="42.15701" lon="1.39624">
        <ele>1238.8</ele>
        <time>2019-02-12T02:19:09Z</time>
      </trkpt>
      <trkpt lat="42.15705" lon="1.39637">
        <ele>1239.3</ele>
        <time>2019-02-12T02:19:14Z</time>
      </trkpt>
      <trkpt lat="42.15712" lon="1.39651">
        <ele>1239.8</ele>
        <time>2019-02-12T02:19:21Z</time>
      </trkpt>
      <trkpt lat="42.15721" lon="1.39663">
        <ele>1242.2</ele>
        <time>2019-02-12T02:19:29Z</time>
      </trkpt>
      <trkpt lat="42.1573" lon="1.39673">
        <ele>1244</ele>
        <time>2019-02-12T02:19:35Z</time>
      </trkpt>
      <trkpt lat="42.15743" lon="1.39677">
        <ele>1247.1</ele>
        <time>2019-02-12T02:19:43Z</time>
      </trkpt>
      <trkpt lat="42.15757" lon="1.39678">
        <ele>1246.5</ele>
        <time>2019-02-12T02:19:51Z</time>
      </trkpt>
      <trkpt lat="42.15773" lon="1.39684">
        <ele>1246.1</ele>
        <time>2019-02-12T02:20:00Z</time>
      </trkpt>
      <trkpt lat="42.15782" lon="1.39687">
        <ele>1244.7</ele>
        <time>2019-02-12T02:20:06Z</time>
      </trkpt>
      <trkpt lat="42.15791" lon="1.39689">
        <ele>1245.6</ele>
        <time>2019-02-12T02:20:11Z</time>
      </trkpt>
      <trkpt lat="42.15806" lon="1.39691">
        <ele>1244.1</ele>
        <time>2019-02-12T02:20:20Z</time>
      </trkpt>
      <trkpt lat="42.15817" lon="1.39696">
        <ele>1244.1</ele>
        <time>2019-02-12T02:20:26Z</time>
      </trkpt>
      <trkpt lat="42.15827" lon="1.39701">
        <ele>1242.6</ele>
        <time>2019-02-12T02:20:32Z</time>
      </trkpt>
      <trkpt lat="42.15837" lon="1.39708">
        <ele>1243.3</ele>
        <time>2019-02-12T02:20:39Z</time>
      </trkpt>
      <trkpt lat="42.15844" lon="1.39717">
        <ele>1243.6</ele>
        <time>2019-02-12T02:20:45Z</time>
      </trkpt>
      <trkpt lat="42.15852" lon="1.39729">
        <ele>1243.6</ele>
        <time>2019-02-12T02:20:51Z</time>
      </trkpt>
      <trkpt lat="42.15859" lon="1.39738">
        <ele>1244.6</ele>
        <time>2019-02-12T02:20:57Z</time>
      </trkpt>
      <trkpt lat="42.15864" lon="1.39747">
        <ele>1244.6</ele>
        <time>2019-02-12T02:21:01Z</time>
      </trkpt>
      <trkpt lat="42.15871" lon="1.39755">
        <ele>1245.7</ele>
        <time>2019-02-12T02:21:07Z</time>
      </trkpt>
      <trkpt lat="42.15879" lon="1.39767">
        <ele>1245.1</ele>
        <time>2019-02-12T02:21:13Z</time>
      </trkpt>
      <trkpt lat="42.15885" lon="1.39778">
        <ele>1245.6</ele>
        <time>2019-02-12T02:21:19Z</time>
      </trkpt>
      <trkpt lat="42.15892" lon="1.39789">
        <ele>1246.1</ele>
        <time>2019-02-12T02:21:26Z</time>
      </trkpt>
      <trkpt lat="42.15897" lon="1.398">
        <ele>1247</ele>
        <time>2019-02-12T02:21:31Z</time>
      </trkpt>
      <trkpt lat="42.15898" lon="1.39813">
        <ele>1247</ele>
        <time>2019-02-12T02:21:36Z</time>
      </trkpt>
      <trkpt lat="42.15899" lon="1.39827">
        <ele>1247</ele>
        <time>2019-02-12T02:21:42Z</time>
      </trkpt>
      <trkpt lat="42.15898" lon="1.39842">
        <ele>1247.4</ele>
        <time>2019-02-12T02:21:49Z</time>
      </trkpt>
      <trkpt lat="42.15896" lon="1.39859">
        <ele>1248.8</ele>
        <time>2019-02-12T02:21:56Z</time>
      </trkpt>
      <trkpt lat="42.15898" lon="1.39875">
        <ele>1248.5</ele>
        <time>2019-02-12T02:22:03Z</time>
      </trkpt>
      <trkpt lat="42.15905" lon="1.39891">
        <ele>1245.1</ele>
        <time>2019-02-12T02:22:11Z</time>
      </trkpt>
      <trkpt lat="42.1591" lon="1.39905">
        <ele>1244.7</ele>
        <time>2019-02-12T02:22:17Z</time>
      </trkpt>
      <trkpt lat="42.15912" lon="1.39919">
        <ele>1246.4</ele>
        <time>2019-02-12T02:22:23Z</time>
      </trkpt>
      <trkpt lat="42.1592" lon="1.39931">
        <ele>1244.1</ele>
        <time>2019-02-12T02:22:30Z</time>
      </trkpt>
      <trkpt lat="42.15927" lon="1.39939">
        <ele>1240.8</ele>
        <time>2019-02-12T02:22:36Z</time>
      </trkpt>
      <trkpt lat="42.15934" lon="1.39949">
        <ele>1240.9</ele>
        <time>2019-02-12T02:22:41Z</time>
      </trkpt>
      <trkpt lat="42.15941" lon="1.39959">
        <ele>1237.9</ele>
        <time>2019-02-12T02:22:47Z</time>
      </trkpt>
      <trkpt lat="42.15948" lon="1.39968">
        <ele>1237.9</ele>
        <time>2019-02-12T02:22:53Z</time>
      </trkpt>
      <trkpt lat="42.15953" lon="1.39981">
        <ele>1239.8</ele>
        <time>2019-02-12T02:22:59Z</time>
      </trkpt>
      <trkpt lat="42.15957" lon="1.39996">
        <ele>1240.2</ele>
        <time>2019-02-12T02:23:05Z</time>
      </trkpt>
      <trkpt lat="42.15962" lon="1.40008">
        <ele>1240.8</ele>
        <time>2019-02-12T02:23:12Z</time>
      </trkpt>
      <trkpt lat="42.15972" lon="1.40013">
        <ele>1243.2</ele>
        <time>2019-02-12T02:23:17Z</time>
      </trkpt>
      <trkpt lat="42.15979" lon="1.40018">
        <ele>1243.7</ele>
        <time>2019-02-12T02:23:22Z</time>
      </trkpt>
      <trkpt lat="42.15991" lon="1.40027">
        <ele>1246.1</ele>
        <time>2019-02-12T02:23:30Z</time>
      </trkpt>
      <trkpt lat="42.15999" lon="1.40035">
        <ele>1247.1</ele>
        <time>2019-02-12T02:23:35Z</time>
      </trkpt>
      <trkpt lat="42.16008" lon="1.40045">
        <ele>1248.5</ele>
        <time>2019-02-12T02:23:42Z</time>
      </trkpt>
      <trkpt lat="42.16017" lon="1.40054">
        <ele>1251.2</ele>
        <time>2019-02-12T02:23:49Z</time>
      </trkpt>
      <trkpt lat="42.16026" lon="1.40064">
        <ele>1253.3</ele>
        <time>2019-02-12T02:23:55Z</time>
      </trkpt>
      <trkpt lat="42.16033" lon="1.40073">
        <ele>1254.6</ele>
        <time>2019-02-12T02:24:01Z</time>
      </trkpt>
      <trkpt lat="42.16041" lon="1.40083">
        <ele>1254.6</ele>
        <time>2019-02-12T02:24:07Z</time>
      </trkpt>
      <trkpt lat="42.16048" lon="1.40092">
        <ele>1254.2</ele>
        <time>2019-02-12T02:24:13Z</time>
      </trkpt>
      <trkpt lat="42.16056" lon="1.40101">
        <ele>1254.7</ele>
        <time>2019-02-12T02:24:18Z</time>
      </trkpt>
      <trkpt lat="42.16065" lon="1.4011">
        <ele>1255.3</ele>
        <time>2019-02-12T02:24:25Z</time>
      </trkpt>
      <trkpt lat="42.16071" lon="1.40121">
        <ele>1256.1</ele>
        <time>2019-02-12T02:24:31Z</time>
      </trkpt>
      <trkpt lat="42.16076" lon="1.40134">
        <ele>1258.7</ele>
        <time>2019-02-12T02:24:37Z</time>
      </trkpt>
      <trkpt lat="42.1608" lon="1.40146">
        <ele>1260</ele>
        <time>2019-02-12T02:24:42Z</time>
      </trkpt>
      <trkpt lat="42.16087" lon="1.40157">
        <ele>1259.1</ele>
        <time>2019-02-12T02:24:49Z</time>
      </trkpt>
      <trkpt lat="42.16092" lon="1.40172">
        <ele>1259.1</ele>
        <time>2019-02-12T02:24:55Z</time>
      </trkpt>
      <trkpt lat="42.161" lon="1.40184">
        <ele>1260.1</ele>
        <time>2019-02-12T02:25:02Z</time>
      </trkpt>
      <trkpt lat="42.16105" lon="1.40193">
        <ele>1261.1</ele>
        <time>2019-02-12T02:25:07Z</time>
      </trkpt>
      <trkpt lat="42.16112" lon="1.40203">
        <ele>1261</ele>
        <time>2019-02-12T02:25:13Z</time>
      </trkpt>
      <trkpt lat="42.16118" lon="1.40209">
        <ele>1261.8</ele>
        <time>2019-02-12T02:25:17Z</time>
      </trkpt>
      <trkpt lat="42.16125" lon="1.4022">
        <ele>1263.4</ele>
        <time>2019-02-12T02:25:23Z</time>
      </trkpt>
      <trkpt lat="42.16134" lon="1.40229">
        <ele>1264.2</ele>
        <time>2019-02-12T02:25:30Z</time>
      </trkpt>
      <trkpt lat="42.16143" lon="1.40236">
        <ele>1265.8</ele>
        <time>2019-02-12T02:25:36Z</time>
      </trkpt>
      <trkpt lat="42.16151" lon="1.40245">
        <ele>1265.2</ele>
        <time>2019-02-12T02:25:42Z</time>
      </trkpt>
      <trkpt lat="42.16162" lon="1.40251">
        <ele>1265.9</ele>
        <time>2019-02-12T02:25:48Z</time>
      </trkpt>
      <trkpt lat="42.16172" lon="1.40256">
        <ele>1266.6</ele>
        <time>2019-02-12T02:25:55Z</time>
      </trkpt>
      <trkpt lat="42.16181" lon="1.40262">
        <ele>1269.7</ele>
        <time>2019-02-12T02:26:00Z</time>
      </trkpt>
      <trkpt lat="42.1619" lon="1.40267">
        <ele>1269.1</ele>
        <time>2019-02-12T02:26:06Z</time>
      </trkpt>
      <trkpt lat="42.16196" lon="1.40279">
        <ele>1270.7</ele>
        <time>2019-02-12T02:26:12Z</time>
      </trkpt>
      <trkpt lat="42.16201" lon="1.40292">
        <ele>1272</ele>
        <time>2019-02-12T02:26:18Z</time>
      </trkpt>
      <trkpt lat="42.16205" lon="1.40305">
        <ele>1273.4</ele>
        <time>2019-02-12T02:26:24Z</time>
      </trkpt>
      <trkpt lat="42.16203" lon="1.4032">
        <ele>1274.8</ele>
        <time>2019-02-12T02:26:31Z</time>
      </trkpt>
      <trkpt lat="42.16204" lon="1.40332">
        <ele>1277.3</ele>
        <time>2019-02-12T02:26:36Z</time>
      </trkpt>
      <trkpt lat="42.16201" lon="1.40345">
        <ele>1279.3</ele>
        <time>2019-02-12T02:26:41Z</time>
      </trkpt>
      <trkpt lat="42.16204" lon="1.4036">
        <ele>1281.6</ele>
        <time>2019-02-12T02:26:48Z</time>
      </trkpt>
      <trkpt lat="42.16208" lon="1.40372">
        <ele>1285.1</ele>
        <time>2019-02-12T02:26:53Z</time>
      </trkpt>
      <trkpt lat="42.16211" lon="1.40383">
        <ele>1286.8</ele>
        <time>2019-02-12T02:26:59Z</time>
      </trkpt>
      <trkpt lat="42.16214" lon="1.40399">
        <ele>1286.9</ele>
        <time>2019-02-12T02:27:05Z</time>
      </trkpt>
      <trkpt lat="42.16211" lon="1.40416">
        <ele>1288.5</ele>
        <time>2019-02-12T02:27:13Z</time>
      </trkpt>
      <trkpt lat="42.16208" lon="1.40433">
        <ele>1289.9</ele>
        <time>2019-02-12T02:27:20Z</time>
      </trkpt>
      <trkpt lat="42.16203" lon="1.40445">
        <ele>1291.2</ele>
        <time>2019-02-12T02:27:26Z</time>
      </trkpt>
      <trkpt lat="42.16195" lon="1.40467">
        <ele>1292.2</ele>
        <time>2019-02-12T02:27:36Z</time>
      </trkpt>
      <trkpt lat="42.16195" lon="1.4049">
        <ele>1294</ele>
        <time>2019-02-12T02:27:46Z</time>
      </trkpt>
      <trkpt lat="42.16201" lon="1.40504">
        <ele>1295</ele>
        <time>2019-02-12T02:27:53Z</time>
      </trkpt>
      <trkpt lat="42.16206" lon="1.40516">
        <ele>1294.7</ele>
        <time>2019-02-12T02:27:59Z</time>
      </trkpt>
      <trkpt lat="42.16209" lon="1.4053">
        <ele>1295.6</ele>
        <time>2019-02-12T02:28:05Z</time>
      </trkpt>
      <trkpt lat="42.16212" lon="1.40545">
        <ele>1293.2</ele>
        <time>2019-02-12T02:28:11Z</time>
      </trkpt>
      <trkpt lat="42.16218" lon="1.40557">
        <ele>1290.2</ele>
        <time>2019-02-12T02:28:18Z</time>
      </trkpt>
      <trkpt lat="42.16224" lon="1.40569">
        <ele>1287.8</ele>
        <time>2019-02-12T02:28:24Z</time>
      </trkpt>
      <trkpt lat="42.16226" lon="1.40579">
        <ele>1285</ele>
        <time>2019-02-12T02:28:29Z</time>
      </trkpt>
      <trkpt lat="42.16231" lon="1.40589">
        <ele>1285.1</ele>
        <time>2019-02-12T02:28:34Z</time>
      </trkpt>
      <trkpt lat="42.1624" lon="1.40598">
        <ele>1285.4</ele>
        <time>2019-02-12T02:28:40Z</time>
      </trkpt>
      <trkpt lat="42.16247" lon="1.40619">
        <ele>1286</ele>
        <time>2019-02-12T02:28:50Z</time>
      </trkpt>
      <trkpt lat="42.16252" lon="1.4064">
        <ele>1287.5</ele>
        <time>2019-02-12T02:28:59Z</time>
      </trkpt>
      <trkpt lat="42.16254" lon="1.40653">
        <ele>1288.8</ele>
        <time>2019-02-12T02:29:05Z</time>
      </trkpt>
      <trkpt lat="42.16254" lon="1.40666">
        <ele>1289.8</ele>
        <time>2019-02-12T02:29:10Z</time>
      </trkpt>
      <trkpt lat="42.16255" lon="1.40683">
        <ele>1293.2</ele>
        <time>2019-02-12T02:29:18Z</time>
      </trkpt>
      <trkpt lat="42.16254" lon="1.407">
        <ele>1294.6</ele>
        <time>2019-02-12T02:29:25Z</time>
      </trkpt>
      <trkpt lat="42.16254" lon="1.40714">
        <ele>1295.7</ele>
        <time>2019-02-12T02:29:31Z</time>
      </trkpt>
      <trkpt lat="42.16252" lon="1.40726">
        <ele>1296.5</ele>
        <time>2019-02-12T02:29:36Z</time>
      </trkpt>
      <trkpt lat="42.16255" lon="1.4074">
        <ele>1297.1</ele>
        <time>2019-02-12T02:29:42Z</time>
      </trkpt>
      <trkpt lat="42.16258" lon="1.40753">
        <ele>1297.1</ele>
        <time>2019-02-12T02:29:48Z</time>
      </trkpt>
      <trkpt lat="42.1626" lon="1.40766">
        <ele>1296.4</ele>
        <time>2019-02-12T02:29:54Z</time>
      </trkpt>
      <trkpt lat="42.16263" lon="1.40783">
        <ele>1297.4</ele>
        <time>2019-02-12T02:30:01Z</time>
      </trkpt>
      <trkpt lat="42.16265" lon="1.40794">
        <ele>1298.5</ele>
        <time>2019-02-12T02:30:05Z</time>
      </trkpt>
      <trkpt lat="42.16265" lon="1.40809">
        <ele>1298.9</ele>
        <time>2019-02-12T02:30:12Z</time>
      </trkpt>
      <trkpt lat="42.16266" lon="1.40822">
        <ele>1300.8</ele>
        <time>2019-02-12T02:30:17Z</time>
      </trkpt>
      <trkpt lat="42.16268" lon="1.4084">
        <ele>1299.9</ele>
        <time>2019-02-12T02:30:25Z</time>
      </trkpt>
      <trkpt lat="42.16268" lon="1.4085">
        <ele>1300.4</ele>
        <time>2019-02-12T02:30:29Z</time>
      </trkpt>
      <trkpt lat="42.16274" lon="1.40863">
        <ele>1299.9</ele>
        <time>2019-02-12T02:30:36Z</time>
      </trkpt>
      <trkpt lat="42.16277" lon="1.40876">
        <ele>1299.5</ele>
        <time>2019-02-12T02:30:42Z</time>
      </trkpt>
      <trkpt lat="42.16279" lon="1.40888">
        <ele>1300.4</ele>
        <time>2019-02-12T02:30:47Z</time>
      </trkpt>
      <trkpt lat="42.16283" lon="1.409">
        <ele>1300.8</ele>
        <time>2019-02-12T02:30:53Z</time>
      </trkpt>
      <trkpt lat="42.1629" lon="1.40912">
        <ele>1301.2</ele>
        <time>2019-02-12T02:30:59Z</time>
      </trkpt>
      <trkpt lat="42.16295" lon="1.40923">
        <ele>1299.8</ele>
        <time>2019-02-12T02:31:04Z</time>
      </trkpt>
      <trkpt lat="42.16299" lon="1.40937">
        <ele>1297.1</ele>
        <time>2019-02-12T02:31:11Z</time>
      </trkpt>
      <trkpt lat="42.16305" lon="1.40946">
        <ele>1297.1</ele>
        <time>2019-02-12T02:31:16Z</time>
      </trkpt>
      <trkpt lat="42.16311" lon="1.40957">
        <ele>1295.6</ele>
        <time>2019-02-12T02:31:22Z</time>
      </trkpt>
      <trkpt lat="42.16317" lon="1.40968">
        <ele>1296.4</ele>
        <time>2019-02-12T02:31:28Z</time>
      </trkpt>
      <trkpt lat="42.16322" lon="1.4098">
        <ele>1296.5</ele>
        <time>2019-02-12T02:31:33Z</time>
      </trkpt>
      <trkpt lat="42.16325" lon="1.4099">
        <ele>1296.1</ele>
        <time>2019-02-12T02:31:38Z</time>
      </trkpt>
      <trkpt lat="42.16329" lon="1.41006">
        <ele>1297.4</ele>
        <time>2019-02-12T02:31:45Z</time>
      </trkpt>
      <trkpt lat="42.16331" lon="1.41018">
        <ele>1298.4</ele>
        <time>2019-02-12T02:31:51Z</time>
      </trkpt>
      <trkpt lat="42.16334" lon="1.41033">
        <ele>1298.8</ele>
        <time>2019-02-12T02:31:57Z</time>
      </trkpt>
      <trkpt lat="42.16336" lon="1.41046">
        <ele>1299.4</ele>
        <time>2019-02-12T02:32:03Z</time>
      </trkpt>
      <trkpt lat="42.16337" lon="1.41059">
        <ele>1299.8</ele>
        <time>2019-02-12T02:32:08Z</time>
      </trkpt>
      <trkpt lat="42.16336" lon="1.4107">
        <ele>1301.3</ele>
        <time>2019-02-12T02:32:13Z</time>
      </trkpt>
      <trkpt lat="42.16338" lon="1.41082">
        <ele>1300.8</ele>
        <time>2019-02-12T02:32:18Z</time>
      </trkpt>
      <trkpt lat="42.16345" lon="1.41095">
        <ele>1301.3</ele>
        <time>2019-02-12T02:32:25Z</time>
      </trkpt>
      <trkpt lat="42.16349" lon="1.41109">
        <ele>1302.8</ele>
        <time>2019-02-12T02:32:31Z</time>
      </trkpt>
      <trkpt lat="42.16351" lon="1.41125">
        <ele>1302.8</ele>
        <time>2019-02-12T02:32:38Z</time>
      </trkpt>
      <trkpt lat="42.16355" lon="1.41139">
        <ele>1304.6</ele>
        <time>2019-02-12T02:32:44Z</time>
      </trkpt>
      <trkpt lat="42.16358" lon="1.41152">
        <ele>1306.1</ele>
        <time>2019-02-12T02:32:50Z</time>
      </trkpt>
      <trkpt lat="42.1636" lon="1.41164">
        <ele>1307.7</ele>
        <time>2019-02-12T02:32:55Z</time>
      </trkpt>
      <trkpt lat="42.16363" lon="1.41181">
        <ele>1308.4</ele>
        <time>2019-02-12T02:33:03Z</time>
      </trkpt>
      <trkpt lat="42.16363" lon="1.41195">
        <ele>1308.4</ele>
        <time>2019-02-12T02:33:09Z</time>
      </trkpt>
      <trkpt lat="42.1636" lon="1.41208">
        <ele>1310</ele>
        <time>2019-02-12T02:33:15Z</time>
      </trkpt>
      <trkpt lat="42.16358" lon="1.41223">
        <ele>1310.9</ele>
        <time>2019-02-12T02:33:21Z</time>
      </trkpt>
      <trkpt lat="42.16356" lon="1.41236">
        <ele>1310.4</ele>
        <time>2019-02-12T02:33:27Z</time>
      </trkpt>
      <trkpt lat="42.16357" lon="1.41249">
        <ele>1311.9</ele>
        <time>2019-02-12T02:33:32Z</time>
      </trkpt>
      <trkpt lat="42.16358" lon="1.41261">
        <ele>1310.9</ele>
        <time>2019-02-12T02:33:37Z</time>
      </trkpt>
      <trkpt lat="42.16362" lon="1.41274">
        <ele>1310.8</ele>
        <time>2019-02-12T02:33:43Z</time>
      </trkpt>
      <trkpt lat="42.16364" lon="1.41288">
        <ele>1310.1</ele>
        <time>2019-02-12T02:33:49Z</time>
      </trkpt>
      <trkpt lat="42.16359" lon="1.41299">
        <ele>1309.5</ele>
        <time>2019-02-12T02:33:54Z</time>
      </trkpt>
      <trkpt lat="42.16356" lon="1.41313">
        <ele>1310.1</ele>
        <time>2019-02-12T02:34:01Z</time>
      </trkpt>
      <trkpt lat="42.16355" lon="1.41327">
        <ele>1311.8</ele>
        <time>2019-02-12T02:34:07Z</time>
      </trkpt>
      <trkpt lat="42.16358" lon="1.4134">
        <ele>1312.8</ele>
        <time>2019-02-12T02:34:12Z</time>
      </trkpt>
      <trkpt lat="42.16364" lon="1.4135">
        <ele>1312.8</ele>
        <time>2019-02-12T02:34:18Z</time>
      </trkpt>
      <trkpt lat="42.16369" lon="1.41375">
        <ele>1313.3</ele>
        <time>2019-02-12T02:34:29Z</time>
      </trkpt>
      <trkpt lat="42.16366" lon="1.4139">
        <ele>1314.2</ele>
        <time>2019-02-12T02:34:36Z</time>
      </trkpt>
      <trkpt lat="42.16363" lon="1.41406">
        <ele>1314.3</ele>
        <time>2019-02-12T02:34:43Z</time>
      </trkpt>
      <trkpt lat="42.16365" lon="1.41415">
        <ele>1312.5</ele>
        <time>2019-02-12T02:34:47Z</time>
      </trkpt>
      <trkpt lat="42.16373" lon="1.41411">
        <ele>1310.1</ele>
        <time>2019-02-12T02:34:51Z</time>
      </trkpt>
      <trkpt lat="42.16383" lon="1.41414">
        <ele>1307.6</ele>
        <time>2019-02-12T02:34:57Z</time>
      </trkpt>
      <trkpt lat="42.16389" lon="1.41419">
        <ele>1302.8</ele>
        <time>2019-02-12T02:35:01Z</time>
      </trkpt>
      <trkpt lat="42.16397" lon="1.4142">
        <ele>1299.8</ele>
        <time>2019-02-12T02:35:06Z</time>
      </trkpt>
      <trkpt lat="42.16405" lon="1.41425">
        <ele>1295</ele>
        <time>2019-02-12T02:35:11Z</time>
      </trkpt>
      <trkpt lat="42.16409" lon="1.41434">
        <ele>1287.4</ele>
        <time>2019-02-12T02:35:15Z</time>
      </trkpt>
      <trkpt lat="42.16418" lon="1.41442">
        <ele>1280.6</ele>
        <time>2019-02-12T02:35:21Z</time>
      </trkpt>
      <trkpt lat="42.16422" lon="1.41451">
        <ele>1276.2</ele>
        <time>2019-02-12T02:35:26Z</time>
      </trkpt>
      <trkpt lat="42.16434" lon="1.41462">
        <ele>1274.4</ele>
        <time>2019-02-12T02:35:34Z</time>
      </trkpt>
      <trkpt lat="42.16444" lon="1.41471">
        <ele>1273.4</ele>
        <time>2019-02-12T02:35:41Z</time>
      </trkpt>
      <trkpt lat="42.1645" lon="1.41479">
        <ele>1271</ele>
        <time>2019-02-12T02:35:46Z</time>
      </trkpt>
      <trkpt lat="42.16458" lon="1.41485">
        <ele>1269.1</ele>
        <time>2019-02-12T02:35:51Z</time>
      </trkpt>
      <trkpt lat="42.1647" lon="1.41495">
        <ele>1269.1</ele>
        <time>2019-02-12T02:35:59Z</time>
      </trkpt>
      <trkpt lat="42.16478" lon="1.41503">
        <ele>1269</ele>
        <time>2019-02-12T02:36:05Z</time>
      </trkpt>
      <trkpt lat="42.16489" lon="1.41511">
        <ele>1268.2</ele>
        <time>2019-02-12T02:36:12Z</time>
      </trkpt>
      <trkpt lat="42.16496" lon="1.4152">
        <ele>1265.8</ele>
        <time>2019-02-12T02:36:17Z</time>
      </trkpt>
      <trkpt lat="42.16502" lon="1.41525">
        <ele>1264.8</ele>
        <time>2019-02-12T02:36:22Z</time>
      </trkpt>
      <trkpt lat="42.1651" lon="1.41531">
        <ele>1261.8</ele>
        <time>2019-02-12T02:36:27Z</time>
      </trkpt>
      <trkpt lat="42.1652" lon="1.41535">
        <ele>1261.9</ele>
        <time>2019-02-12T02:36:33Z</time>
      </trkpt>
      <trkpt lat="42.16534" lon="1.41537">
        <ele>1261.9</ele>
        <time>2019-02-12T02:36:41Z</time>
      </trkpt>
      <trkpt lat="42.16549" lon="1.41539">
        <ele>1262.5</ele>
        <time>2019-02-12T02:36:49Z</time>
      </trkpt>
      <trkpt lat="42.16559" lon="1.41545">
        <ele>1261.4</ele>
        <time>2019-02-12T02:36:56Z</time>
      </trkpt>
      <trkpt lat="42.16567" lon="1.41554">
        <ele>1262.8</ele>
        <time>2019-02-12T02:37:01Z</time>
      </trkpt>
      <trkpt lat="42.16579" lon="1.4156">
        <ele>1263.5</ele>
        <time>2019-02-12T02:37:09Z</time>
      </trkpt>
      <trkpt lat="42.16586" lon="1.41565">
        <ele>1261</ele>
        <time>2019-02-12T02:37:13Z</time>
      </trkpt>
      <trkpt lat="42.16595" lon="1.41568">
        <ele>1262.8</ele>
        <time>2019-02-12T02:37:18Z</time>
      </trkpt>
      <trkpt lat="42.16602" lon="1.41568">
        <ele>1264.9</ele>
        <time>2019-02-12T02:37:23Z</time>
      </trkpt>
      <trkpt lat="42.1661" lon="1.41566">
        <ele>1266.2</ele>
        <time>2019-02-12T02:37:28Z</time>
      </trkpt>
      <trkpt lat="42.16621" lon="1.41564">
        <ele>1267.2</ele>
        <time>2019-02-12T02:37:34Z</time>
      </trkpt>
      <trkpt lat="42.16635" lon="1.41559">
        <ele>1268.3</ele>
        <time>2019-02-12T02:37:42Z</time>
      </trkpt>
      <trkpt lat="42.16647" lon="1.41556">
        <ele>1267.6</ele>
        <time>2019-02-12T02:37:49Z</time>
      </trkpt>
      <trkpt lat="42.16659" lon="1.41559">
        <ele>1267.6</ele>
        <time>2019-02-12T02:37:56Z</time>
      </trkpt>
      <trkpt lat="42.16669" lon="1.41562">
        <ele>1263.4</ele>
        <time>2019-02-12T02:38:02Z</time>
      </trkpt>
      <trkpt lat="42.16677" lon="1.41569">
        <ele>1262.8</ele>
        <time>2019-02-12T02:38:08Z</time>
      </trkpt>
      <trkpt lat="42.16686" lon="1.41577">
        <ele>1261.1</ele>
        <time>2019-02-12T02:38:14Z</time>
      </trkpt>
      <trkpt lat="42.16694" lon="1.41583">
        <ele>1260.1</ele>
        <time>2019-02-12T02:38:19Z</time>
      </trkpt>
      <trkpt lat="42.16697" lon="1.41593">
        <ele>1259.1</ele>
        <time>2019-02-12T02:38:24Z</time>
      </trkpt>
      <trkpt lat="42.16699" lon="1.41609">
        <ele>1258.6</ele>
        <time>2019-02-12T02:38:30Z</time>
      </trkpt>
      <trkpt lat="42.16701" lon="1.4162">
        <ele>1257</ele>
        <time>2019-02-12T02:38:35Z</time>
      </trkpt>
      <trkpt lat="42.16711" lon="1.41623">
        <ele>1255.2</ele>
        <time>2019-02-12T02:38:41Z</time>
      </trkpt>
      <trkpt lat="42.16724" lon="1.41631">
        <ele>1251.8</ele>
        <time>2019-02-12T02:38:49Z</time>
      </trkpt>
      <trkpt lat="42.16721" lon="1.41631">
        <ele>1248</ele>
        <time>2019-02-12T02:38:51Z</time>
      </trkpt>
      <trkpt lat="42.16721" lon="1.4164">
        <ele>1245</ele>
        <time>2019-02-12T02:38:55Z</time>
      </trkpt>
      <trkpt lat="42.16726" lon="1.4165">
        <ele>1243.7</ele>
        <time>2019-02-12T02:39:00Z</time>
      </trkpt>
      <trkpt lat="42.16727" lon="1.41663">
        <ele>1241.2</ele>
        <time>2019-02-12T02:39:05Z</time>
      </trkpt>
      <trkpt lat="42.16737" lon="1.41674">
        <ele>1238.4</ele>
        <time>2019-02-12T02:39:13Z</time>
      </trkpt>
      <trkpt lat="42.16742" lon="1.41687">
        <ele>1236.1</ele>
        <time>2019-02-12T02:39:19Z</time>
      </trkpt>
      <trkpt lat="42.1674" lon="1.41692">
        <ele>1233</ele>
        <time>2019-02-12T02:39:21Z</time>
      </trkpt>
      <trkpt lat="42.16736" lon="1.41703">
        <ele>1230.3</ele>
        <time>2019-02-12T02:39:26Z</time>
      </trkpt>
      <trkpt lat="42.16734" lon="1.41721">
        <ele>1228.2</ele>
        <time>2019-02-12T02:39:34Z</time>
      </trkpt>
      <trkpt lat="42.16737" lon="1.41735">
        <ele>1227.2</ele>
        <time>2019-02-12T02:39:41Z</time>
      </trkpt>
      <trkpt lat="42.16744" lon="1.41745">
        <ele>1225.9</ele>
        <time>2019-02-12T02:39:46Z</time>
      </trkpt>
      <trkpt lat="42.16748" lon="1.41758">
        <ele>1224.9</ele>
        <time>2019-02-12T02:39:52Z</time>
      </trkpt>
      <trkpt lat="42.1675" lon="1.4177">
        <ele>1223.4</ele>
        <time>2019-02-12T02:39:57Z</time>
      </trkpt>
      <trkpt lat="42.16753" lon="1.41791">
        <ele>1221</ele>
        <time>2019-02-12T02:40:06Z</time>
      </trkpt>
      <trkpt lat="42.16761" lon="1.41802">
        <ele>1220.1</ele>
        <time>2019-02-12T02:40:13Z</time>
      </trkpt>
      <trkpt lat="42.16767" lon="1.41814">
        <ele>1218.6</ele>
        <time>2019-02-12T02:40:19Z</time>
      </trkpt>
      <trkpt lat="42.16777" lon="1.41826">
        <ele>1219.6</ele>
        <time>2019-02-12T02:40:27Z</time>
      </trkpt>
      <trkpt lat="42.16786" lon="1.41828">
        <ele>1219.7</ele>
        <time>2019-02-12T02:40:32Z</time>
      </trkpt>
      <trkpt lat="42.16796" lon="1.41828">
        <ele>1220.1</ele>
        <time>2019-02-12T02:40:38Z</time>
      </trkpt>
      <trkpt lat="42.16808" lon="1.4183">
        <ele>1216.6</ele>
        <time>2019-02-12T02:40:44Z</time>
      </trkpt>
      <trkpt lat="42.16793" lon="1.41801">
        <ele>1208</ele>
        <time>2019-02-12T02:40:59Z</time>
      </trkpt>
      <trkpt lat="42.16789" lon="1.41782">
        <ele>1208</ele>
        <time>2019-02-12T02:41:08Z</time>
      </trkpt>
      <trkpt lat="42.16794" lon="1.41773">
        <ele>1204.7</ele>
        <time>2019-02-12T02:41:13Z</time>
      </trkpt>
      <trkpt lat="42.16803" lon="1.41769">
        <ele>1202.3</ele>
        <time>2019-02-12T02:41:18Z</time>
      </trkpt>
      <trkpt lat="42.16812" lon="1.41767">
        <ele>1201.9</ele>
        <time>2019-02-12T02:41:23Z</time>
      </trkpt>
      <trkpt lat="42.16822" lon="1.41764">
        <ele>1199.4</ele>
        <time>2019-02-12T02:41:29Z</time>
      </trkpt>
      <trkpt lat="42.1683" lon="1.41763">
        <ele>1197.4</ele>
        <time>2019-02-12T02:41:34Z</time>
      </trkpt>
      <trkpt lat="42.16837" lon="1.41762">
        <ele>1194.1</ele>
        <time>2019-02-12T02:41:38Z</time>
      </trkpt>
      <trkpt lat="42.16842" lon="1.41754">
        <ele>1189.8</ele>
        <time>2019-02-12T02:41:42Z</time>
      </trkpt>
      <trkpt lat="42.16835" lon="1.41762">
        <ele>1186.9</ele>
        <time>2019-02-12T02:41:47Z</time>
      </trkpt>
      <trkpt lat="42.16832" lon="1.41779">
        <ele>1184</ele>
        <time>2019-02-12T02:41:54Z</time>
      </trkpt>
      <trkpt lat="42.16837" lon="1.41791">
        <ele>1178.8</ele>
        <time>2019-02-12T02:42:00Z</time>
      </trkpt>
      <trkpt lat="42.16845" lon="1.41799">
        <ele>1173.5</ele>
        <time>2019-02-12T02:42:05Z</time>
      </trkpt>
      <trkpt lat="42.16853" lon="1.41802">
        <ele>1171.7</ele>
        <time>2019-02-12T02:42:10Z</time>
      </trkpt>
      <trkpt lat="42.1686" lon="1.41804">
        <ele>1169.6</ele>
        <time>2019-02-12T02:42:14Z</time>
      </trkpt>
      <trkpt lat="42.16872" lon="1.41805">
        <ele>1168.7</ele>
        <time>2019-02-12T02:42:21Z</time>
      </trkpt>
      <trkpt lat="42.16883" lon="1.41812">
        <ele>1166.7</ele>
        <time>2019-02-12T02:42:28Z</time>
      </trkpt>
      <trkpt lat="42.16893" lon="1.41814">
        <ele>1163.4</ele>
        <time>2019-02-12T02:42:34Z</time>
      </trkpt>
      <trkpt lat="42.16902" lon="1.41813">
        <ele>1155.6</ele>
        <time>2019-02-12T02:42:39Z</time>
      </trkpt>
      <trkpt lat="42.16907" lon="1.41819">
        <ele>1149.8</ele>
        <time>2019-02-12T02:42:43Z</time>
      </trkpt>
      <trkpt lat="42.16917" lon="1.41822">
        <ele>1147</ele>
        <time>2019-02-12T02:42:49Z</time>
      </trkpt>
      <trkpt lat="42.16928" lon="1.41824">
        <ele>1145</ele>
        <time>2019-02-12T02:42:55Z</time>
      </trkpt>
      <trkpt lat="42.16938" lon="1.41833">
        <ele>1143.2</ele>
        <time>2019-02-12T02:43:02Z</time>
      </trkpt>
      <trkpt lat="42.16949" lon="1.41838">
        <ele>1141.3</ele>
        <time>2019-02-12T02:43:08Z</time>
      </trkpt>
      <trkpt lat="42.16958" lon="1.4184">
        <ele>1139.9</ele>
        <time>2019-02-12T02:43:14Z</time>
      </trkpt>
      <trkpt lat="42.16968" lon="1.41838">
        <ele>1137.9</ele>
        <time>2019-02-12T02:43:20Z</time>
      </trkpt>
      <trkpt lat="42.16978" lon="1.41848">
        <ele>1136.1</ele>
        <time>2019-02-12T02:43:27Z</time>
      </trkpt>
      <trkpt lat="42.16985" lon="1.41857">
        <ele>1132.7</ele>
        <time>2019-02-12T02:43:32Z</time>
      </trkpt>
      <trkpt lat="42.16994" lon="1.41862">
        <ele>1131.3</ele>
        <time>2019-02-12T02:43:38Z</time>
      </trkpt>
      <trkpt lat="42.16998" lon="1.41878">
        <ele>1132</ele>
        <time>2019-02-12T02:43:45Z</time>
      </trkpt>
      <trkpt lat="42.17012" lon="1.41889">
        <ele>1133.1</ele>
        <time>2019-02-12T02:43:54Z</time>
      </trkpt>
      <trkpt lat="42.17024" lon="1.41901">
        <ele>1134.1</ele>
        <time>2019-02-12T02:44:03Z</time>
      </trkpt>
      <trkpt lat="42.17035" lon="1.41913">
        <ele>1136</ele>
        <time>2019-02-12T02:44:11Z</time>
      </trkpt>
      <trkpt lat="42.17048" lon="1.41923">
        <ele>1137.4</ele>
        <time>2019-02-12T02:44:19Z</time>
      </trkpt>
      <trkpt lat="42.17058" lon="1.4193">
        <ele>1138.8</ele>
        <time>2019-02-12T02:44:26Z</time>
      </trkpt>
      <trkpt lat="42.17067" lon="1.41932">
        <ele>1140.3</ele>
        <time>2019-02-12T02:44:31Z</time>
      </trkpt>
      <trkpt lat="42.17082" lon="1.41931">
        <ele>1140.8</ele>
        <time>2019-02-12T02:44:40Z</time>
      </trkpt>
      <trkpt lat="42.17096" lon="1.41933">
        <ele>1142.2</ele>
        <time>2019-02-12T02:44:48Z</time>
      </trkpt>
      <trkpt lat="42.17104" lon="1.41932">
        <ele>1143.2</ele>
        <time>2019-02-12T02:44:52Z</time>
      </trkpt>
      <trkpt lat="42.17113" lon="1.41935">
        <ele>1144.6</ele>
        <time>2019-02-12T02:44:58Z</time>
      </trkpt>
      <trkpt lat="42.17121" lon="1.41937">
        <ele>1145.7</ele>
        <time>2019-02-12T02:45:02Z</time>
      </trkpt>
      <trkpt lat="42.17139" lon="1.41942">
        <ele>1145</ele>
        <time>2019-02-12T02:45:13Z</time>
      </trkpt>
      <trkpt lat="42.17154" lon="1.41946">
        <ele>1143.6</ele>
        <time>2019-02-12T02:45:21Z</time>
      </trkpt>
      <trkpt lat="42.17164" lon="1.41951">
        <ele>1144.6</ele>
        <time>2019-02-12T02:45:28Z</time>
      </trkpt>
      <trkpt lat="42.17171" lon="1.41956">
        <ele>1144.2</ele>
        <time>2019-02-12T02:45:33Z</time>
      </trkpt>
      <trkpt lat="42.17176" lon="1.41969">
        <ele>1144.6</ele>
        <time>2019-02-12T02:45:39Z</time>
      </trkpt>
      <trkpt lat="42.17182" lon="1.41981">
        <ele>1145</ele>
        <time>2019-02-12T02:45:45Z</time>
      </trkpt>
      <trkpt lat="42.1719" lon="1.41989">
        <ele>1142.3</ele>
        <time>2019-02-12T02:45:50Z</time>
      </trkpt>
      <trkpt lat="42.172" lon="1.41996">
        <ele>1142.7</ele>
        <time>2019-02-12T02:45:57Z</time>
      </trkpt>
      <trkpt lat="42.17208" lon="1.42">
        <ele>1142.7</ele>
        <time>2019-02-12T02:46:02Z</time>
      </trkpt>
      <trkpt lat="42.17218" lon="1.42006">
        <ele>1144.3</ele>
        <time>2019-02-12T02:46:08Z</time>
      </trkpt>
      <trkpt lat="42.17228" lon="1.42009">
        <ele>1143.6</ele>
        <time>2019-02-12T02:46:14Z</time>
      </trkpt>
      <trkpt lat="42.17237" lon="1.42018">
        <ele>1144.2</ele>
        <time>2019-02-12T02:46:20Z</time>
      </trkpt>
      <trkpt lat="42.17241" lon="1.42032">
        <ele>1142.3</ele>
        <time>2019-02-12T02:46:26Z</time>
      </trkpt>
      <trkpt lat="42.17247" lon="1.4204">
        <ele>1140.2</ele>
        <time>2019-02-12T02:46:31Z</time>
      </trkpt>
      <trkpt lat="42.17256" lon="1.42051">
        <ele>1137.4</ele>
        <time>2019-02-12T02:46:38Z</time>
      </trkpt>
      <trkpt lat="42.17258" lon="1.42057">
        <ele>1136.4</ele>
        <time>2019-02-12T02:46:41Z</time>
      </trkpt>
      <trkpt lat="42.17261" lon="1.4207">
        <ele>1136.8</ele>
        <time>2019-02-12T02:46:47Z</time>
      </trkpt>
      <trkpt lat="42.17269" lon="1.42075">
        <ele>1135.5</ele>
        <time>2019-02-12T02:46:52Z</time>
      </trkpt>
      <trkpt lat="42.17276" lon="1.42084">
        <ele>1134</ele>
        <time>2019-02-12T02:46:57Z</time>
      </trkpt>
      <trkpt lat="42.17285" lon="1.42093">
        <ele>1131.7</ele>
        <time>2019-02-12T02:47:04Z</time>
      </trkpt>
      <trkpt lat="42.17294" lon="1.42097">
        <ele>1130.6</ele>
        <time>2019-02-12T02:47:10Z</time>
      </trkpt>
      <trkpt lat="42.17302" lon="1.42098">
        <ele>1126.8</ele>
        <time>2019-02-12T02:47:14Z</time>
      </trkpt>
      <trkpt lat="42.17313" lon="1.42094">
        <ele>1124.4</ele>
        <time>2019-02-12T02:47:20Z</time>
      </trkpt>
      <trkpt lat="42.17322" lon="1.42097">
        <ele>1118.3</ele>
        <time>2019-02-12T02:47:26Z</time>
      </trkpt>
      <trkpt lat="42.1733" lon="1.42095">
        <ele>1110.4</ele>
        <time>2019-02-12T02:47:31Z</time>
      </trkpt>
      <trkpt lat="42.17339" lon="1.42105">
        <ele>1103.2</ele>
        <time>2019-02-12T02:47:37Z</time>
      </trkpt>
      <trkpt lat="42.17349" lon="1.42103">
        <ele>1099.8</ele>
        <time>2019-02-12T02:47:43Z</time>
      </trkpt>
      <trkpt lat="42.17358" lon="1.42106">
        <ele>1097.1</ele>
        <time>2019-02-12T02:47:48Z</time>
      </trkpt>
      <trkpt lat="42.17363" lon="1.42105">
        <ele>1092.2</ele>
        <time>2019-02-12T02:47:51Z</time>
      </trkpt>
      <trkpt lat="42.17371" lon="1.42114">
        <ele>1089.4</ele>
        <time>2019-02-12T02:47:57Z</time>
      </trkpt>
      <trkpt lat="42.1738" lon="1.4212">
        <ele>1087.1</ele>
        <time>2019-02-12T02:48:03Z</time>
      </trkpt>
      <trkpt lat="42.1739" lon="1.42125">
        <ele>1084.6</ele>
        <time>2019-02-12T02:48:09Z</time>
      </trkpt>
      <trkpt lat="42.17398" lon="1.4214">
        <ele>1082.7</ele>
        <time>2019-02-12T02:48:17Z</time>
      </trkpt>
      <trkpt lat="42.17407" lon="1.42141">
        <ele>1080.7</ele>
        <time>2019-02-12T02:48:21Z</time>
      </trkpt>
      <trkpt lat="42.17413" lon="1.42146">
        <ele>1078.8</ele>
        <time>2019-02-12T02:48:26Z</time>
      </trkpt>
      <trkpt lat="42.17422" lon="1.42149">
        <ele>1077.2</ele>
        <time>2019-02-12T02:48:31Z</time>
      </trkpt>
      <trkpt lat="42.17431" lon="1.42153">
        <ele>1074.4</ele>
        <time>2019-02-12T02:48:36Z</time>
      </trkpt>
      <trkpt lat="42.17442" lon="1.42156">
        <ele>1071.1</ele>
        <time>2019-02-12T02:48:43Z</time>
      </trkpt>
      <trkpt lat="42.17443" lon="1.42166">
        <ele>1069.3</ele>
        <time>2019-02-12T02:48:47Z</time>
      </trkpt>
      <trkpt lat="42.17442" lon="1.4217">
        <ele>1066.8</ele>
        <time>2019-02-12T02:48:49Z</time>
      </trkpt>
      <trkpt lat="42.1743" lon="1.42177">
        <ele>1064.4</ele>
        <time>2019-02-12T02:48:57Z</time>
      </trkpt>
      <trkpt lat="42.17422" lon="1.4219">
        <ele>1061.4</ele>
        <time>2019-02-12T02:49:04Z</time>
      </trkpt>
      <trkpt lat="42.17417" lon="1.42205">
        <ele>1057.6</ele>
        <time>2019-02-12T02:49:11Z</time>
      </trkpt>
      <trkpt lat="42.17417" lon="1.42225">
        <ele>1053.3</ele>
        <time>2019-02-12T02:49:19Z</time>
      </trkpt>
      <trkpt lat="42.17425" lon="1.42237">
        <ele>1049</ele>
        <time>2019-02-12T02:49:26Z</time>
      </trkpt>
      <trkpt lat="42.17429" lon="1.42249">
        <ele>1046.1</ele>
        <time>2019-02-12T02:49:31Z</time>
      </trkpt>
      <trkpt lat="42.17429" lon="1.42265">
        <ele>1042.6</ele>
        <time>2019-02-12T02:49:38Z</time>
      </trkpt>
      <trkpt lat="42.17438" lon="1.42283">
        <ele>1037.8</ele>
        <time>2019-02-12T02:49:48Z</time>
      </trkpt>
      <trkpt lat="42.17449" lon="1.42299">
        <ele>1034.6</ele>
        <time>2019-02-12T02:49:56Z</time>
      </trkpt>
      <trkpt lat="42.17461" lon="1.42294">
        <ele>1031.3</ele>
        <time>2019-02-12T02:50:04Z</time>
      </trkpt>
      <trkpt lat="42.17468" lon="1.42313">
        <ele>1027.5</ele>
        <time>2019-02-12T02:50:12Z</time>
      </trkpt>
      <trkpt lat="42.17483" lon="1.42326">
        <ele>1024.5</ele>
        <time>2019-02-12T02:50:22Z</time>
      </trkpt>
      <trkpt lat="42.17497" lon="1.4233">
        <ele>1023</ele>
        <time>2019-02-12T02:50:31Z</time>
      </trkpt>
      <trkpt lat="42.17506" lon="1.42322">
        <ele>1020.1</ele>
        <time>2019-02-12T02:50:37Z</time>
      </trkpt>
      <trkpt lat="42.17519" lon="1.42323">
        <ele>1017.3</ele>
        <time>2019-02-12T02:50:45Z</time>
      </trkpt>
      <trkpt lat="42.17531" lon="1.42326">
        <ele>1015.2</ele>
        <time>2019-02-12T02:50:51Z</time>
      </trkpt>
      <trkpt lat="42.17541" lon="1.42321">
        <ele>1014.8</ele>
        <time>2019-02-12T02:50:58Z</time>
      </trkpt>
      <trkpt lat="42.1755" lon="1.42312">
        <ele>1014.4</ele>
        <time>2019-02-12T02:51:04Z</time>
      </trkpt>
      <trkpt lat="42.1754" lon="1.42304">
        <ele>1013.4</ele>
        <time>2019-02-12T02:51:11Z</time>
      </trkpt>
      <trkpt lat="42.1753" lon="1.42295">
        <ele>1012.5</ele>
        <time>2019-02-12T02:51:18Z</time>
      </trkpt>
      <trkpt lat="42.17525" lon="1.4228">
        <ele>1012.1</ele>
        <time>2019-02-12T02:51:25Z</time>
      </trkpt>
      <trkpt lat="42.17532" lon="1.42265">
        <ele>1011.5</ele>
        <time>2019-02-12T02:51:32Z</time>
      </trkpt>
      <trkpt lat="42.1754" lon="1.42253">
        <ele>1011</ele>
        <time>2019-02-12T02:51:39Z</time>
      </trkpt>
      <trkpt lat="42.17547" lon="1.42242">
        <ele>1011.5</ele>
        <time>2019-02-12T02:51:45Z</time>
      </trkpt>
      <trkpt lat="42.1755" lon="1.42231">
        <ele>1010.4</ele>
        <time>2019-02-12T02:51:50Z</time>
      </trkpt>
      <trkpt lat="42.17558" lon="1.4222">
        <ele>1011.1</ele>
        <time>2019-02-12T02:51:57Z</time>
      </trkpt>
      <trkpt lat="42.17566" lon="1.42207">
        <ele>1011.1</ele>
        <time>2019-02-12T02:52:04Z</time>
      </trkpt>
      <trkpt lat="42.17573" lon="1.42195">
        <ele>1009.6</ele>
        <time>2019-02-12T02:52:10Z</time>
      </trkpt>
      <trkpt lat="42.17581" lon="1.42188">
        <ele>1008.6</ele>
        <time>2019-02-12T02:52:16Z</time>
      </trkpt>
      <trkpt lat="42.17588" lon="1.4218">
        <ele>1007.2</ele>
        <time>2019-02-12T02:52:21Z</time>
      </trkpt>
      <trkpt lat="42.17593" lon="1.4218">
        <ele>1005.2</ele>
        <time>2019-02-12T02:52:24Z</time>
      </trkpt>
      <trkpt lat="42.17598" lon="1.42186">
        <ele>1004.3</ele>
        <time>2019-02-12T02:52:28Z</time>
      </trkpt>
      <trkpt lat="42.17605" lon="1.42191">
        <ele>990.3</ele>
        <time>2019-02-12T02:52:32Z</time>
      </trkpt>
      <trkpt lat="42.17615" lon="1.42201">
        <ele>989.9</ele>
        <time>2019-02-12T02:52:39Z</time>
      </trkpt>
      <trkpt lat="42.17627" lon="1.42211">
        <ele>990.3</ele>
        <time>2019-02-12T02:52:47Z</time>
      </trkpt>
      <trkpt lat="42.17638" lon="1.42217">
        <ele>989.9</ele>
        <time>2019-02-12T02:52:54Z</time>
      </trkpt>
      <trkpt lat="42.17643" lon="1.42222">
        <ele>988.8</ele>
        <time>2019-02-12T02:52:58Z</time>
      </trkpt>
      <trkpt lat="42.17654" lon="1.4223">
        <ele>989.8</ele>
        <time>2019-02-12T02:53:05Z</time>
      </trkpt>
      <trkpt lat="42.17661" lon="1.42239">
        <ele>989.9</ele>
        <time>2019-02-12T02:53:10Z</time>
      </trkpt>
      <trkpt lat="42.17668" lon="1.42247">
        <ele>991.2</ele>
        <time>2019-02-12T02:53:16Z</time>
      </trkpt>
      <trkpt lat="42.17676" lon="1.42258">
        <ele>990.8</ele>
        <time>2019-02-12T02:53:22Z</time>
      </trkpt>
      <trkpt lat="42.17687" lon="1.42267">
        <ele>990.9</ele>
        <time>2019-02-12T02:53:30Z</time>
      </trkpt>
      <trkpt lat="42.17692" lon="1.42276">
        <ele>991.8</ele>
        <time>2019-02-12T02:53:34Z</time>
      </trkpt>
      <trkpt lat="42.17699" lon="1.42283">
        <ele>991.3</ele>
        <time>2019-02-12T02:53:39Z</time>
      </trkpt>
      <trkpt lat="42.17706" lon="1.4229">
        <ele>992.2</ele>
        <time>2019-02-12T02:53:44Z</time>
      </trkpt>
      <trkpt lat="42.17716" lon="1.42296">
        <ele>992.2</ele>
        <time>2019-02-12T02:53:51Z</time>
      </trkpt>
      <trkpt lat="42.17723" lon="1.42307">
        <ele>990.8</ele>
        <time>2019-02-12T02:53:57Z</time>
      </trkpt>
      <trkpt lat="42.17733" lon="1.42315">
        <ele>990.9</ele>
        <time>2019-02-12T02:54:03Z</time>
      </trkpt>
      <trkpt lat="42.17741" lon="1.42323">
        <ele>992.6</ele>
        <time>2019-02-12T02:54:09Z</time>
      </trkpt>
      <trkpt lat="42.17752" lon="1.42333">
        <ele>994.7</ele>
        <time>2019-02-12T02:54:16Z</time>
      </trkpt>
      <trkpt lat="42.1776" lon="1.42336">
        <ele>994.2</ele>
        <time>2019-02-12T02:54:21Z</time>
      </trkpt>
      <trkpt lat="42.17773" lon="1.42341">
        <ele>996</ele>
        <time>2019-02-12T02:54:29Z</time>
      </trkpt>
      <trkpt lat="42.17783" lon="1.42346">
        <ele>997.7</ele>
        <time>2019-02-12T02:54:35Z</time>
      </trkpt>
      <trkpt lat="42.17794" lon="1.42355">
        <ele>995.7</ele>
        <time>2019-02-12T02:54:43Z</time>
      </trkpt>
      <trkpt lat="42.17804" lon="1.42365">
        <ele>995.6</ele>
        <time>2019-02-12T02:54:50Z</time>
      </trkpt>
      <trkpt lat="42.17814" lon="1.4238">
        <ele>995.3</ele>
        <time>2019-02-12T02:54:58Z</time>
      </trkpt>
      <trkpt lat="42.17821" lon="1.42395">
        <ele>996.1</ele>
        <time>2019-02-12T02:55:06Z</time>
      </trkpt>
      <trkpt lat="42.17833" lon="1.42405">
        <ele>996.1</ele>
        <time>2019-02-12T02:55:14Z</time>
      </trkpt>
      <trkpt lat="42.17843" lon="1.42411">
        <ele>995.6</ele>
        <time>2019-02-12T02:55:20Z</time>
      </trkpt>
      <trkpt lat="42.17854" lon="1.42413">
        <ele>996.7</ele>
        <time>2019-02-12T02:55:27Z</time>
      </trkpt>
      <trkpt lat="42.17865" lon="1.42417">
        <ele>998</ele>
        <time>2019-02-12T02:55:33Z</time>
      </trkpt>
      <trkpt lat="42.17885" lon="1.42424">
        <ele>996.6</ele>
        <time>2019-02-12T02:55:45Z</time>
      </trkpt>
      <trkpt lat="42.17896" lon="1.42436">
        <ele>994.6</ele>
        <time>2019-02-12T02:55:53Z</time>
      </trkpt>
      <trkpt lat="42.17907" lon="1.42445">
        <ele>992.6</ele>
        <time>2019-02-12T02:56:00Z</time>
      </trkpt>
      <trkpt lat="42.1792" lon="1.42448">
        <ele>992.3</ele>
        <time>2019-02-12T02:56:08Z</time>
      </trkpt>
      <trkpt lat="42.1793" lon="1.42455">
        <ele>991.2</ele>
        <time>2019-02-12T02:56:14Z</time>
      </trkpt>
      <trkpt lat="42.17942" lon="1.42462">
        <ele>986.5</ele>
        <time>2019-02-12T02:56:22Z</time>
      </trkpt>
      <trkpt lat="42.17951" lon="1.42468">
        <ele>985.4</ele>
        <time>2019-02-12T02:56:28Z</time>
      </trkpt>
      <trkpt lat="42.17962" lon="1.42478">
        <ele>985.1</ele>
        <time>2019-02-12T02:56:35Z</time>
      </trkpt>
      <trkpt lat="42.1797" lon="1.42495">
        <ele>980.6</ele>
        <time>2019-02-12T02:56:44Z</time>
      </trkpt>
      <trkpt lat="42.17978" lon="1.4251">
        <ele>979.9</ele>
        <time>2019-02-12T02:56:51Z</time>
      </trkpt>
      <trkpt lat="42.17989" lon="1.42526">
        <ele>981.6</ele>
        <time>2019-02-12T02:57:01Z</time>
      </trkpt>
      <trkpt lat="42.17999" lon="1.42539">
        <ele>981.2</ele>
        <time>2019-02-12T02:57:09Z</time>
      </trkpt>
      <trkpt lat="42.18005" lon="1.42526">
        <ele>981.2</ele>
        <time>2019-02-12T02:57:15Z</time>
      </trkpt>
      <trkpt lat="42.18005" lon="1.42512">
        <ele>981.3</ele>
        <time>2019-02-12T02:57:21Z</time>
      </trkpt>
      <trkpt lat="42.18003" lon="1.425">
        <ele>981.7</ele>
        <time>2019-02-12T02:57:26Z</time>
      </trkpt>
      <trkpt lat="42.18007" lon="1.4249">
        <ele>981.7</ele>
        <time>2019-02-12T02:57:31Z</time>
      </trkpt>
      <trkpt lat="42.1802" lon="1.42488">
        <ele>982.3</ele>
        <time>2019-02-12T02:57:39Z</time>
      </trkpt>
      <trkpt lat="42.18031" lon="1.42486">
        <ele>984.1</ele>
        <time>2019-02-12T02:57:45Z</time>
      </trkpt>
      <trkpt lat="42.18042" lon="1.42482">
        <ele>984.7</ele>
        <time>2019-02-12T02:57:51Z</time>
      </trkpt>
      <trkpt lat="42.18053" lon="1.4248">
        <ele>984.1</ele>
        <time>2019-02-12T02:57:57Z</time>
      </trkpt>
      <trkpt lat="42.18058" lon="1.4247">
        <ele>982.7</ele>
        <time>2019-02-12T02:58:03Z</time>
      </trkpt>
      <trkpt lat="42.18069" lon="1.42461">
        <ele>983.7</ele>
        <time>2019-02-12T02:58:10Z</time>
      </trkpt>
      <trkpt lat="42.18073" lon="1.42451">
        <ele>983</ele>
        <time>2019-02-12T02:58:15Z</time>
      </trkpt>
      <trkpt lat="42.18066" lon="1.42437">
        <ele>983</ele>
        <time>2019-02-12T02:58:22Z</time>
      </trkpt>
      <trkpt lat="42.18062" lon="1.42425">
        <ele>980.2</ele>
        <time>2019-02-12T02:58:27Z</time>
      </trkpt>
      <trkpt lat="42.18061" lon="1.42415">
        <ele>977.8</ele>
        <time>2019-02-12T02:58:32Z</time>
      </trkpt>
      <trkpt lat="42.18059" lon="1.42401">
        <ele>977.5</ele>
        <time>2019-02-12T02:58:38Z</time>
      </trkpt>
      <trkpt lat="42.18052" lon="1.42387">
        <ele>979.9</ele>
        <time>2019-02-12T02:58:45Z</time>
      </trkpt>
      <trkpt lat="42.18048" lon="1.42373">
        <ele>981.2</ele>
        <time>2019-02-12T02:58:51Z</time>
      </trkpt>
      <trkpt lat="42.18048" lon="1.42359">
        <ele>982.7</ele>
        <time>2019-02-12T02:58:57Z</time>
      </trkpt>
      <trkpt lat="42.18051" lon="1.42348">
        <ele>984.6</ele>
        <time>2019-02-12T02:59:02Z</time>
      </trkpt>
      <trkpt lat="42.18051" lon="1.42333">
        <ele>986</ele>
        <time>2019-02-12T02:59:08Z</time>
      </trkpt>
      <trkpt lat="42.18044" lon="1.42325">
        <ele>987.5</ele>
        <time>2019-02-12T02:59:14Z</time>
      </trkpt>
      <trkpt lat="42.18038" lon="1.4231">
        <ele>988.4</ele>
        <time>2019-02-12T02:59:21Z</time>
      </trkpt>
      <trkpt lat="42.18031" lon="1.42293">
        <ele>989.8</ele>
        <time>2019-02-12T02:59:29Z</time>
      </trkpt>
      <trkpt lat="42.18029" lon="1.42281">
        <ele>991.3</ele>
        <time>2019-02-12T02:59:34Z</time>
      </trkpt>
      <trkpt lat="42.18026" lon="1.4227">
        <ele>991.8</ele>
        <time>2019-02-12T02:59:39Z</time>
      </trkpt>
      <trkpt lat="42.18027" lon="1.42255">
        <ele>992.6</ele>
        <time>2019-02-12T02:59:45Z</time>
      </trkpt>
      <trkpt lat="42.18025" lon="1.42245">
        <ele>991.9</ele>
        <time>2019-02-12T02:59:50Z</time>
      </trkpt>
      <trkpt lat="42.18025" lon="1.42232">
        <ele>991.9</ele>
        <time>2019-02-12T02:59:56Z</time>
      </trkpt>
      <trkpt lat="42.18024" lon="1.42219">
        <ele>992.3</ele>
        <time>2019-02-12T03:00:01Z</time>
      </trkpt>
      <trkpt lat="42.18025" lon="1.42209">
        <ele>992.7</ele>
        <time>2019-02-12T03:00:05Z</time>
      </trkpt>
      <trkpt lat="42.18025" lon="1.42196">
        <ele>993.6</ele>
        <time>2019-02-12T03:00:11Z</time>
      </trkpt>
      <trkpt lat="42.18023" lon="1.42184">
        <ele>992.6</ele>
        <time>2019-02-12T03:00:16Z</time>
      </trkpt>
      <trkpt lat="42.18024" lon="1.42171">
        <ele>993.2</ele>
        <time>2019-02-12T03:00:21Z</time>
      </trkpt>
      <trkpt lat="42.18028" lon="1.42159">
        <ele>995.2</ele>
        <time>2019-02-12T03:00:27Z</time>
      </trkpt>
      <trkpt lat="42.1803" lon="1.4215">
        <ele>997</ele>
        <time>2019-02-12T03:00:31Z</time>
      </trkpt>
      <trkpt lat="42.18041" lon="1.42142">
        <ele>999.5</ele>
        <time>2019-02-12T03:00:38Z</time>
      </trkpt>
      <trkpt lat="42.18047" lon="1.42135">
        <ele>1000.8</ele>
        <time>2019-02-12T03:00:43Z</time>
      </trkpt>
      <trkpt lat="42.1806" lon="1.42126">
        <ele>1000.4</ele>
        <time>2019-02-12T03:00:51Z</time>
      </trkpt>
      <trkpt lat="42.18069" lon="1.42118">
        <ele>999.5</ele>
        <time>2019-02-12T03:00:57Z</time>
      </trkpt>
      <trkpt lat="42.1808" lon="1.42116">
        <ele>996.7</ele>
        <time>2019-02-12T03:01:03Z</time>
      </trkpt>
      <trkpt lat="42.18088" lon="1.42109">
        <ele>996.1</ele>
        <time>2019-02-12T03:01:09Z</time>
      </trkpt>
      <trkpt lat="42.18094" lon="1.421">
        <ele>997.1</ele>
        <time>2019-02-12T03:01:14Z</time>
      </trkpt>
      <trkpt lat="42.18094" lon="1.42088">
        <ele>997.6</ele>
        <time>2019-02-12T03:01:19Z</time>
      </trkpt>
      <trkpt lat="42.181" lon="1.42096">
        <ele>997</ele>
        <time>2019-02-12T03:01:24Z</time>
      </trkpt>
      <trkpt lat="42.18108" lon="1.42093">
        <ele>997</ele>
        <time>2019-02-12T03:01:28Z</time>
      </trkpt>
      <trkpt lat="42.18115" lon="1.42104">
        <ele>997.7</ele>
        <time>2019-02-12T03:01:35Z</time>
      </trkpt>
      <trkpt lat="42.18126" lon="1.4209">
        <ele>997.1</ele>
        <time>2019-02-12T03:01:44Z</time>
      </trkpt>
      <trkpt lat="42.18135" lon="1.42084">
        <ele>997.7</ele>
        <time>2019-02-12T03:01:49Z</time>
      </trkpt>
      <trkpt lat="42.18137" lon="1.42096">
        <ele>998.4</ele>
        <time>2019-02-12T03:01:54Z</time>
      </trkpt>
      <trkpt lat="42.18147" lon="1.42112">
        <ele>999.5</ele>
        <time>2019-02-12T03:02:03Z</time>
      </trkpt>
      <trkpt lat="42.18156" lon="1.42122">
        <ele>1001.5</ele>
        <time>2019-02-12T03:02:10Z</time>
      </trkpt>
      <trkpt lat="42.18172" lon="1.42131">
        <ele>1002.5</ele>
        <time>2019-02-12T03:02:19Z</time>
      </trkpt>
      <trkpt lat="42.18184" lon="1.42141">
        <ele>1006.3</ele>
        <time>2019-02-12T03:02:27Z</time>
      </trkpt>
      <trkpt lat="42.18193" lon="1.42141">
        <ele>1008.6</ele>
        <time>2019-02-12T03:02:33Z</time>
      </trkpt>
      <trkpt lat="42.18208" lon="1.42153">
        <ele>1011</ele>
        <time>2019-02-12T03:02:42Z</time>
      </trkpt>
      <trkpt lat="42.18208" lon="1.42164">
        <ele>1013.8</ele>
        <time>2019-02-12T03:02:47Z</time>
      </trkpt>
      <trkpt lat="42.18197" lon="1.42172">
        <ele>1015.9</ele>
        <time>2019-02-12T03:02:54Z</time>
      </trkpt>
      <trkpt lat="42.18188" lon="1.42179">
        <ele>1017.6</ele>
        <time>2019-02-12T03:03:00Z</time>
      </trkpt>
      <trkpt lat="42.1818" lon="1.42187">
        <ele>1019.7</ele>
        <time>2019-02-12T03:03:06Z</time>
      </trkpt>
      <trkpt lat="42.18169" lon="1.42193">
        <ele>1021</ele>
        <time>2019-02-12T03:03:13Z</time>
      </trkpt>
      <trkpt lat="42.18183" lon="1.42198">
        <ele>1022.4</ele>
        <time>2019-02-12T03:03:20Z</time>
      </trkpt>
      <trkpt lat="42.18193" lon="1.42202">
        <ele>1024.5</ele>
        <time>2019-02-12T03:03:27Z</time>
      </trkpt>
      <trkpt lat="42.18206" lon="1.42202">
        <ele>1025.5</ele>
        <time>2019-02-12T03:03:34Z</time>
      </trkpt>
      <trkpt lat="42.18218" lon="1.42202">
        <ele>1025.8</ele>
        <time>2019-02-12T03:03:41Z</time>
      </trkpt>
      <trkpt lat="42.18227" lon="1.42201">
        <ele>1025.8</ele>
        <time>2019-02-12T03:03:46Z</time>
      </trkpt>
      <trkpt lat="42.18236" lon="1.42198">
        <ele>1024</ele>
        <time>2019-02-12T03:03:51Z</time>
      </trkpt>
      <trkpt lat="42.18244" lon="1.42194">
        <ele>1021.6</ele>
        <time>2019-02-12T03:03:56Z</time>
      </trkpt>
      <trkpt lat="42.18239" lon="1.42203">
        <ele>1020.7</ele>
        <time>2019-02-12T03:04:01Z</time>
      </trkpt>
      <trkpt lat="42.18241" lon="1.4222">
        <ele>1020</ele>
        <time>2019-02-12T03:04:09Z</time>
      </trkpt>
      <trkpt lat="42.18251" lon="1.42211">
        <ele>1019.6</ele>
        <time>2019-02-12T03:04:16Z</time>
      </trkpt>
      <trkpt lat="42.18262" lon="1.42212">
        <ele>1019.3</ele>
        <time>2019-02-12T03:04:22Z</time>
      </trkpt>
      <trkpt lat="42.18273" lon="1.42209">
        <ele>1020.7</ele>
        <time>2019-02-12T03:04:28Z</time>
      </trkpt>
      <trkpt lat="42.18276" lon="1.42211">
        <ele>1022.4</ele>
        <time>2019-02-12T03:04:31Z</time>
      </trkpt>
      <trkpt lat="42.18276" lon="1.42226">
        <ele>1023.1</ele>
        <time>2019-02-12T03:04:37Z</time>
      </trkpt>
      <trkpt lat="42.18278" lon="1.42238">
        <ele>1023.5</ele>
        <time>2019-02-12T03:04:42Z</time>
      </trkpt>
      <trkpt lat="42.18287" lon="1.4225">
        <ele>1025.4</ele>
        <time>2019-02-12T03:04:50Z</time>
      </trkpt>
      <trkpt lat="42.18293" lon="1.42271">
        <ele>1027.8</ele>
        <time>2019-02-12T03:04:59Z</time>
      </trkpt>
      <trkpt lat="42.18303" lon="1.4228">
        <ele>1028.8</ele>
        <time>2019-02-12T03:05:06Z</time>
      </trkpt>
      <trkpt lat="42.1831" lon="1.42287">
        <ele>1029.9</ele>
        <time>2019-02-12T03:05:11Z</time>
      </trkpt>
      <trkpt lat="42.18322" lon="1.42295">
        <ele>1030.7</ele>
        <time>2019-02-12T03:05:18Z</time>
      </trkpt>
      <trkpt lat="42.18333" lon="1.42304">
        <ele>1032.3</ele>
        <time>2019-02-12T03:05:26Z</time>
      </trkpt>
      <trkpt lat="42.18339" lon="1.4231">
        <ele>1032.3</ele>
        <time>2019-02-12T03:05:30Z</time>
      </trkpt>
      <trkpt lat="42.18344" lon="1.42321">
        <ele>1035</ele>
        <time>2019-02-12T03:05:36Z</time>
      </trkpt>
      <trkpt lat="42.18349" lon="1.42333">
        <ele>1037</ele>
        <time>2019-02-12T03:05:41Z</time>
      </trkpt>
      <trkpt lat="42.18352" lon="1.42345">
        <ele>1039.4</ele>
        <time>2019-02-12T03:05:47Z</time>
      </trkpt>
      <trkpt lat="42.18356" lon="1.42358">
        <ele>1041.9</ele>
        <time>2019-02-12T03:05:53Z</time>
      </trkpt>
      <trkpt lat="42.18356" lon="1.42372">
        <ele>1045</ele>
        <time>2019-02-12T03:05:59Z</time>
      </trkpt>
      <trkpt lat="42.18351" lon="1.42388">
        <ele>1049.8</ele>
        <time>2019-02-12T03:06:06Z</time>
      </trkpt>
      <trkpt lat="42.18347" lon="1.42409">
        <ele>1061.4</ele>
        <time>2019-02-12T03:06:15Z</time>
      </trkpt>
      <trkpt lat="42.18358" lon="1.42401">
        <ele>1071.7</ele>
        <time>2019-02-12T03:06:22Z</time>
      </trkpt>
      <trkpt lat="42.18369" lon="1.42401">
        <ele>1085.4</ele>
        <time>2019-02-12T03:06:28Z</time>
      </trkpt>
      <trkpt lat="42.1837" lon="1.42406">
        <ele>1093.2</ele>
        <time>2019-02-12T03:06:31Z</time>
      </trkpt>
      <trkpt lat="42.18372" lon="1.42423">
        <ele>1098.4</ele>
        <time>2019-02-12T03:06:38Z</time>
      </trkpt>
      <trkpt lat="42.18377" lon="1.42418">
        <ele>1103.8</ele>
        <time>2019-02-12T03:06:41Z</time>
      </trkpt>
      <trkpt lat="42.18386" lon="1.42427">
        <ele>1106.3</ele>
        <time>2019-02-12T03:06:47Z</time>
      </trkpt>
      <trkpt lat="42.18396" lon="1.42435">
        <ele>1108</ele>
        <time>2019-02-12T03:06:54Z</time>
      </trkpt>
      <trkpt lat="42.184" lon="1.42448">
        <ele>1110</ele>
        <time>2019-02-12T03:07:00Z</time>
      </trkpt>
      <trkpt lat="42.18403" lon="1.42462">
        <ele>1111.4</ele>
        <time>2019-02-12T03:07:06Z</time>
      </trkpt>
      <trkpt lat="42.18402" lon="1.42477">
        <ele>1115.2</ele>
        <time>2019-02-12T03:07:13Z</time>
      </trkpt>
      <trkpt lat="42.18394" lon="1.42488">
        <ele>1116.8</ele>
        <time>2019-02-12T03:07:19Z</time>
      </trkpt>
      <trkpt lat="42.184" lon="1.4249">
        <ele>1120.1</ele>
        <time>2019-02-12T03:07:22Z</time>
      </trkpt>
      <trkpt lat="42.18408" lon="1.42483">
        <ele>1122.4</ele>
        <time>2019-02-12T03:07:28Z</time>
      </trkpt>
      <trkpt lat="42.18419" lon="1.42481">
        <ele>1124.1</ele>
        <time>2019-02-12T03:07:34Z</time>
      </trkpt>
      <trkpt lat="42.18429" lon="1.42483">
        <ele>1124.1</ele>
        <time>2019-02-12T03:07:41Z</time>
      </trkpt>
      <trkpt lat="42.18437" lon="1.42474">
        <ele>1124.8</ele>
        <time>2019-02-12T03:07:46Z</time>
      </trkpt>
      <trkpt lat="42.18443" lon="1.42466">
        <ele>1126.5</ele>
        <time>2019-02-12T03:07:51Z</time>
      </trkpt>
      <trkpt lat="42.18447" lon="1.42455">
        <ele>1127.8</ele>
        <time>2019-02-12T03:07:56Z</time>
      </trkpt>
      <trkpt lat="42.18454" lon="1.42441">
        <ele>1129.7</ele>
        <time>2019-02-12T03:08:04Z</time>
      </trkpt>
      <trkpt lat="42.18462" lon="1.42434">
        <ele>1131.2</ele>
        <time>2019-02-12T03:08:09Z</time>
      </trkpt>
      <trkpt lat="42.18466" lon="1.42424">
        <ele>1132.6</ele>
        <time>2019-02-12T03:08:14Z</time>
      </trkpt>
      <trkpt lat="42.18477" lon="1.42417">
        <ele>1135.4</ele>
        <time>2019-02-12T03:08:21Z</time>
      </trkpt>
      <trkpt lat="42.18486" lon="1.42411">
        <ele>1137.5</ele>
        <time>2019-02-12T03:08:27Z</time>
      </trkpt>
      <trkpt lat="42.18497" lon="1.42405">
        <ele>1139.3</ele>
        <time>2019-02-12T03:08:33Z</time>
      </trkpt>
      <trkpt lat="42.18508" lon="1.42396">
        <ele>1141.3</ele>
        <time>2019-02-12T03:08:41Z</time>
      </trkpt>
      <trkpt lat="42.18519" lon="1.42391">
        <ele>1143.6</ele>
        <time>2019-02-12T03:08:47Z</time>
      </trkpt>
      <trkpt lat="42.18528" lon="1.42387">
        <ele>1147.1</ele>
        <time>2019-02-12T03:08:53Z</time>
      </trkpt>
      <trkpt lat="42.18536" lon="1.42379">
        <ele>1149.5</ele>
        <time>2019-02-12T03:08:58Z</time>
      </trkpt>
      <trkpt lat="42.18543" lon="1.42371">
        <ele>1152.2</ele>
        <time>2019-02-12T03:09:04Z</time>
      </trkpt>
      <trkpt lat="42.1855" lon="1.42366">
        <ele>1154.7</ele>
        <time>2019-02-12T03:09:08Z</time>
      </trkpt>
      <trkpt lat="42.18553" lon="1.42352">
        <ele>1158</ele>
        <time>2019-02-12T03:09:14Z</time>
      </trkpt>
      <trkpt lat="42.18567" lon="1.42342">
        <ele>1159</ele>
        <time>2019-02-12T03:09:24Z</time>
      </trkpt>
      <trkpt lat="42.18579" lon="1.42347">
        <ele>1159.4</ele>
        <time>2019-02-12T03:09:30Z</time>
      </trkpt>
      <trkpt lat="42.18588" lon="1.42349">
        <ele>1161.5</ele>
        <time>2019-02-12T03:09:36Z</time>
      </trkpt>
      <trkpt lat="42.18595" lon="1.42353">
        <ele>1160.4</ele>
        <time>2019-02-12T03:09:40Z</time>
      </trkpt>
      <trkpt lat="42.18606" lon="1.42354">
        <ele>1161.9</ele>
        <time>2019-02-12T03:09:47Z</time>
      </trkpt>
      <trkpt lat="42.18617" lon="1.42349">
        <ele>1161.1</ele>
        <time>2019-02-12T03:09:53Z</time>
      </trkpt>
      <trkpt lat="42.18625" lon="1.42345">
        <ele>1161</ele>
        <time>2019-02-12T03:09:58Z</time>
      </trkpt>
      <trkpt lat="42.18635" lon="1.42336">
        <ele>1161</ele>
        <time>2019-02-12T03:10:05Z</time>
      </trkpt>
      <trkpt lat="42.18643" lon="1.42328">
        <ele>1162.9</ele>
        <time>2019-02-12T03:10:11Z</time>
      </trkpt>
      <trkpt lat="42.18652" lon="1.42321">
        <ele>1165.2</ele>
        <time>2019-02-12T03:10:16Z</time>
      </trkpt>
      <trkpt lat="42.18661" lon="1.42314">
        <ele>1166.6</ele>
        <time>2019-02-12T03:10:22Z</time>
      </trkpt>
      <trkpt lat="42.18675" lon="1.42308">
        <ele>1168.6</ele>
        <time>2019-02-12T03:10:31Z</time>
      </trkpt>
      <trkpt lat="42.18682" lon="1.42303">
        <ele>1170.6</ele>
        <time>2019-02-12T03:10:35Z</time>
      </trkpt>
      <trkpt lat="42.18692" lon="1.42299">
        <ele>1172.5</ele>
        <time>2019-02-12T03:10:41Z</time>
      </trkpt>
      <trkpt lat="42.18699" lon="1.42299">
        <ele>1175.5</ele>
        <time>2019-02-12T03:10:45Z</time>
      </trkpt>
      <trkpt lat="42.18704" lon="1.42311">
        <ele>1175.9</ele>
        <time>2019-02-12T03:10:51Z</time>
      </trkpt>
      <trkpt lat="42.18713" lon="1.42321">
        <ele>1176.4</ele>
        <time>2019-02-12T03:10:58Z</time>
      </trkpt>
      <trkpt lat="42.18723" lon="1.42325">
        <ele>1178.2</ele>
        <time>2019-02-12T03:11:04Z</time>
      </trkpt>
      <trkpt lat="42.18735" lon="1.42328">
        <ele>1178.9</ele>
        <time>2019-02-12T03:11:11Z</time>
      </trkpt>
      <trkpt lat="42.18744" lon="1.42325">
        <ele>1180.6</ele>
        <time>2019-02-12T03:11:16Z</time>
      </trkpt>
      <trkpt lat="42.18753" lon="1.42326">
        <ele>1182.1</ele>
        <time>2019-02-12T03:11:21Z</time>
      </trkpt>
      <trkpt lat="42.18762" lon="1.42332">
        <ele>1183.7</ele>
        <time>2019-02-12T03:11:27Z</time>
      </trkpt>
      <trkpt lat="42.18769" lon="1.42345">
        <ele>1183</ele>
        <time>2019-02-12T03:11:34Z</time>
      </trkpt>
      <trkpt lat="42.18782" lon="1.42346">
        <ele>1185</ele>
        <time>2019-02-12T03:11:41Z</time>
      </trkpt>
      <trkpt lat="42.18787" lon="1.42356">
        <ele>1188.4</ele>
        <time>2019-02-12T03:11:46Z</time>
      </trkpt>
      <trkpt lat="42.18794" lon="1.42367">
        <ele>1188.8</ele>
        <time>2019-02-12T03:11:52Z</time>
      </trkpt>
      <trkpt lat="42.18802" lon="1.42377">
        <ele>1190.8</ele>
        <time>2019-02-12T03:11:58Z</time>
      </trkpt>
      <trkpt lat="42.18803" lon="1.42392">
        <ele>1191.2</ele>
        <time>2019-02-12T03:12:05Z</time>
      </trkpt>
      <trkpt lat="42.18807" lon="1.42404">
        <ele>1192.6</ele>
        <time>2019-02-12T03:12:10Z</time>
      </trkpt>
      <trkpt lat="42.18806" lon="1.42419">
        <ele>1194.6</ele>
        <time>2019-02-12T03:12:17Z</time>
      </trkpt>
      <trkpt lat="42.18813" lon="1.42432">
        <ele>1196</ele>
        <time>2019-02-12T03:12:23Z</time>
      </trkpt>
      <trkpt lat="42.18822" lon="1.42442">
        <ele>1199.4</ele>
        <time>2019-02-12T03:12:30Z</time>
      </trkpt>
      <trkpt lat="42.18826" lon="1.42453">
        <ele>1202.2</ele>
        <time>2019-02-12T03:12:35Z</time>
      </trkpt>
      <trkpt lat="42.18831" lon="1.42468">
        <ele>1204.2</ele>
        <time>2019-02-12T03:12:42Z</time>
      </trkpt>
      <trkpt lat="42.1884" lon="1.42475">
        <ele>1206.6</ele>
        <time>2019-02-12T03:12:48Z</time>
      </trkpt>
      <trkpt lat="42.18844" lon="1.42489">
        <ele>1208.7</ele>
        <time>2019-02-12T03:12:54Z</time>
      </trkpt>
      <trkpt lat="42.18848" lon="1.42501">
        <ele>1211</ele>
        <time>2019-02-12T03:13:00Z</time>
      </trkpt>
      <trkpt lat="42.18856" lon="1.42507">
        <ele>1215.3</ele>
        <time>2019-02-12T03:13:05Z</time>
      </trkpt>
      <trkpt lat="42.18863" lon="1.42518">
        <ele>1218.2</ele>
        <time>2019-02-12T03:13:11Z</time>
      </trkpt>
      <trkpt lat="42.18865" lon="1.42533">
        <ele>1220.7</ele>
        <time>2019-02-12T03:13:18Z</time>
      </trkpt>
      <trkpt lat="42.18866" lon="1.42547">
        <ele>1221.1</ele>
        <time>2019-02-12T03:13:24Z</time>
      </trkpt>
      <trkpt lat="42.18873" lon="1.42561">
        <ele>1222.4</ele>
        <time>2019-02-12T03:13:31Z</time>
      </trkpt>
      <trkpt lat="42.18877" lon="1.42573">
        <ele>1223.8</ele>
        <time>2019-02-12T03:13:36Z</time>
      </trkpt>
      <trkpt lat="42.18886" lon="1.42582">
        <ele>1227.2</ele>
        <time>2019-02-12T03:13:43Z</time>
      </trkpt>
      <trkpt lat="42.18895" lon="1.42589">
        <ele>1230.2</ele>
        <time>2019-02-12T03:13:49Z</time>
      </trkpt>
      <trkpt lat="42.18902" lon="1.42598">
        <ele>1233.6</ele>
        <time>2019-02-12T03:13:54Z</time>
      </trkpt>
      <trkpt lat="42.18908" lon="1.42607">
        <ele>1235</ele>
        <time>2019-02-12T03:14:00Z</time>
      </trkpt>
      <trkpt lat="42.18918" lon="1.42614">
        <ele>1236.5</ele>
        <time>2019-02-12T03:14:06Z</time>
      </trkpt>
      <trkpt lat="42.18926" lon="1.42621">
        <ele>1237.9</ele>
        <time>2019-02-12T03:14:12Z</time>
      </trkpt>
      <trkpt lat="42.18936" lon="1.42625">
        <ele>1239.3</ele>
        <time>2019-02-12T03:14:17Z</time>
      </trkpt>
      <trkpt lat="42.18943" lon="1.42634">
        <ele>1240.2</ele>
        <time>2019-02-12T03:14:23Z</time>
      </trkpt>
      <trkpt lat="42.18951" lon="1.42639">
        <ele>1242.7</ele>
        <time>2019-02-12T03:14:28Z</time>
      </trkpt>
      <trkpt lat="42.1896" lon="1.42648">
        <ele>1243.7</ele>
        <time>2019-02-12T03:14:34Z</time>
      </trkpt>
      <trkpt lat="42.18968" lon="1.42654">
        <ele>1246</ele>
        <time>2019-02-12T03:14:39Z</time>
      </trkpt>
      <trkpt lat="42.18975" lon="1.42662">
        <ele>1247.1</ele>
        <time>2019-02-12T03:14:45Z</time>
      </trkpt>
      <trkpt lat="42.18983" lon="1.4267">
        <ele>1247</ele>
        <time>2019-02-12T03:14:50Z</time>
      </trkpt>
      <trkpt lat="42.1899" lon="1.42679">
        <ele>1247.4</ele>
        <time>2019-02-12T03:14:56Z</time>
      </trkpt>
      <trkpt lat="42.18998" lon="1.42685">
        <ele>1248.4</ele>
        <time>2019-02-12T03:15:01Z</time>
      </trkpt>
      <trkpt lat="42.19006" lon="1.42694">
        <ele>1249.9</ele>
        <time>2019-02-12T03:15:07Z</time>
      </trkpt>
      <trkpt lat="42.19016" lon="1.42701">
        <ele>1252.8</ele>
        <time>2019-02-12T03:15:14Z</time>
      </trkpt>
      <trkpt lat="42.19023" lon="1.42709">
        <ele>1254.3</ele>
        <time>2019-02-12T03:15:19Z</time>
      </trkpt>
      <trkpt lat="42.1903" lon="1.42719">
        <ele>1255.2</ele>
        <time>2019-02-12T03:15:25Z</time>
      </trkpt>
      <trkpt lat="42.19035" lon="1.42734">
        <ele>1256.7</ele>
        <time>2019-02-12T03:15:32Z</time>
      </trkpt>
      <trkpt lat="42.19046" lon="1.42743">
        <ele>1259.1</ele>
        <time>2019-02-12T03:15:39Z</time>
      </trkpt>
      <trkpt lat="42.19053" lon="1.42752">
        <ele>1259.5</ele>
        <time>2019-02-12T03:15:45Z</time>
      </trkpt>
      <trkpt lat="42.19062" lon="1.4276">
        <ele>1259.4</ele>
        <time>2019-02-12T03:15:51Z</time>
      </trkpt>
      <trkpt lat="42.1907" lon="1.42767">
        <ele>1261.4</ele>
        <time>2019-02-12T03:15:56Z</time>
      </trkpt>
      <trkpt lat="42.1908" lon="1.42773">
        <ele>1263.4</ele>
        <time>2019-02-12T03:16:03Z</time>
      </trkpt>
      <trkpt lat="42.19091" lon="1.42782">
        <ele>1268.3</ele>
        <time>2019-02-12T03:16:10Z</time>
      </trkpt>
      <trkpt lat="42.19102" lon="1.42784">
        <ele>1272.1</ele>
        <time>2019-02-12T03:16:16Z</time>
      </trkpt>
      <trkpt lat="42.19112" lon="1.42783">
        <ele>1275.4</ele>
        <time>2019-02-12T03:16:22Z</time>
      </trkpt>
      <trkpt lat="42.19124" lon="1.42787">
        <ele>1274.8</ele>
        <time>2019-02-12T03:16:29Z</time>
      </trkpt>
      <trkpt lat="42.19134" lon="1.42786">
        <ele>1275.4</ele>
        <time>2019-02-12T03:16:35Z</time>
      </trkpt>
      <trkpt lat="42.19145" lon="1.42783">
        <ele>1275.9</ele>
        <time>2019-02-12T03:16:41Z</time>
      </trkpt>
      <trkpt lat="42.19154" lon="1.42778">
        <ele>1276.3</ele>
        <time>2019-02-12T03:16:47Z</time>
      </trkpt>
      <trkpt lat="42.19166" lon="1.42779">
        <ele>1277.9</ele>
        <time>2019-02-12T03:16:54Z</time>
      </trkpt>
      <trkpt lat="42.19175" lon="1.42779">
        <ele>1280.6</ele>
        <time>2019-02-12T03:16:59Z</time>
      </trkpt>
      <trkpt lat="42.19185" lon="1.42775">
        <ele>1282.6</ele>
        <time>2019-02-12T03:17:05Z</time>
      </trkpt>
      <trkpt lat="42.19195" lon="1.42781">
        <ele>1283.4</ele>
        <time>2019-02-12T03:17:11Z</time>
      </trkpt>
      <trkpt lat="42.19203" lon="1.42785">
        <ele>1285</ele>
        <time>2019-02-12T03:17:16Z</time>
      </trkpt>
      <trkpt lat="42.19211" lon="1.42793">
        <ele>1288.5</ele>
        <time>2019-02-12T03:17:22Z</time>
      </trkpt>
      <trkpt lat="42.19221" lon="1.42792">
        <ele>1288.8</ele>
        <time>2019-02-12T03:17:28Z</time>
      </trkpt>
      <trkpt lat="42.19232" lon="1.42791">
        <ele>1292.2</ele>
        <time>2019-02-12T03:17:34Z</time>
      </trkpt>
      <trkpt lat="42.1924" lon="1.42794">
        <ele>1291.2</ele>
        <time>2019-02-12T03:17:39Z</time>
      </trkpt>
      <trkpt lat="42.1925" lon="1.42793">
        <ele>1290.8</ele>
        <time>2019-02-12T03:17:44Z</time>
      </trkpt>
      <trkpt lat="42.1926" lon="1.42792">
        <ele>1291.7</ele>
        <time>2019-02-12T03:17:50Z</time>
      </trkpt>
      <trkpt lat="42.19269" lon="1.42792">
        <ele>1293.3</ele>
        <time>2019-02-12T03:17:55Z</time>
      </trkpt>
      <trkpt lat="42.1928" lon="1.4279">
        <ele>1291.3</ele>
        <time>2019-02-12T03:18:01Z</time>
      </trkpt>
      <trkpt lat="42.19289" lon="1.42789">
        <ele>1291.6</ele>
        <time>2019-02-12T03:18:07Z</time>
      </trkpt>
      <trkpt lat="42.19299" lon="1.4279">
        <ele>1295</ele>
        <time>2019-02-12T03:18:13Z</time>
      </trkpt>
      <trkpt lat="42.19307" lon="1.42795">
        <ele>1297</ele>
        <time>2019-02-12T03:18:17Z</time>
      </trkpt>
      <trkpt lat="42.19316" lon="1.428">
        <ele>1297.4</ele>
        <time>2019-02-12T03:18:23Z</time>
      </trkpt>
      <trkpt lat="42.19326" lon="1.42802">
        <ele>1299.4</ele>
        <time>2019-02-12T03:18:29Z</time>
      </trkpt>
      <trkpt lat="42.19338" lon="1.42799">
        <ele>1300.8</ele>
        <time>2019-02-12T03:18:36Z</time>
      </trkpt>
      <trkpt lat="42.19348" lon="1.42802">
        <ele>1302.9</ele>
        <time>2019-02-12T03:18:41Z</time>
      </trkpt>
      <trkpt lat="42.19359" lon="1.42806">
        <ele>1307</ele>
        <time>2019-02-12T03:18:48Z</time>
      </trkpt>
      <trkpt lat="42.19368" lon="1.42814">
        <ele>1309</ele>
        <time>2019-02-12T03:18:54Z</time>
      </trkpt>
      <trkpt lat="42.19378" lon="1.42822">
        <ele>1310.5</ele>
        <time>2019-02-12T03:19:01Z</time>
      </trkpt>
      <trkpt lat="42.19388" lon="1.42834">
        <ele>1313.3</ele>
        <time>2019-02-12T03:19:08Z</time>
      </trkpt>
      <trkpt lat="42.19393" lon="1.42844">
        <ele>1314.2</ele>
        <time>2019-02-12T03:19:14Z</time>
      </trkpt>
      <trkpt lat="42.19397" lon="1.42855">
        <ele>1316.2</ele>
        <time>2019-02-12T03:19:19Z</time>
      </trkpt>
      <trkpt lat="42.19398" lon="1.42869">
        <ele>1316.3</ele>
        <time>2019-02-12T03:19:25Z</time>
      </trkpt>
      <trkpt lat="42.19401" lon="1.42883">
        <ele>1315.8</ele>
        <time>2019-02-12T03:19:31Z</time>
      </trkpt>
      <trkpt lat="42.19404" lon="1.42894">
        <ele>1315.2</ele>
        <time>2019-02-12T03:19:36Z</time>
      </trkpt>
      <trkpt lat="42.19411" lon="1.42904">
        <ele>1315.9</ele>
        <time>2019-02-12T03:19:42Z</time>
      </trkpt>
      <trkpt lat="42.19415" lon="1.42922">
        <ele>1318.7</ele>
        <time>2019-02-12T03:19:50Z</time>
      </trkpt>
      <trkpt lat="42.19416" lon="1.42907">
        <ele>1321</ele>
        <time>2019-02-12T03:19:56Z</time>
      </trkpt>
      <trkpt lat="42.19419" lon="1.42892">
        <ele>1322.5</ele>
        <time>2019-02-12T03:20:03Z</time>
      </trkpt>
      <trkpt lat="42.1942" lon="1.42878">
        <ele>1323.8</ele>
        <time>2019-02-12T03:20:09Z</time>
      </trkpt>
      <trkpt lat="42.19421" lon="1.42863">
        <ele>1324.9</ele>
        <time>2019-02-12T03:20:16Z</time>
      </trkpt>
      <trkpt lat="42.19421" lon="1.42849">
        <ele>1325.4</ele>
        <time>2019-02-12T03:20:21Z</time>
      </trkpt>
      <trkpt lat="42.19426" lon="1.42835">
        <ele>1326.8</ele>
        <time>2019-02-12T03:20:28Z</time>
      </trkpt>
      <trkpt lat="42.19426" lon="1.42823">
        <ele>1327.9</ele>
        <time>2019-02-12T03:20:33Z</time>
      </trkpt>
      <trkpt lat="42.19424" lon="1.42808">
        <ele>1329.2</ele>
        <time>2019-02-12T03:20:40Z</time>
      </trkpt>
      <trkpt lat="42.19424" lon="1.42793">
        <ele>1330.7</ele>
        <time>2019-02-12T03:20:46Z</time>
      </trkpt>
      <trkpt lat="42.19422" lon="1.42779">
        <ele>1332.1</ele>
        <time>2019-02-12T03:20:52Z</time>
      </trkpt>
      <trkpt lat="42.19417" lon="1.42768">
        <ele>1334.1</ele>
        <time>2019-02-12T03:20:57Z</time>
      </trkpt>
      <trkpt lat="42.19414" lon="1.42757">
        <ele>1335.5</ele>
        <time>2019-02-12T03:21:03Z</time>
      </trkpt>
      <trkpt lat="42.19408" lon="1.42744">
        <ele>1336.9</ele>
        <time>2019-02-12T03:21:09Z</time>
      </trkpt>
      <trkpt lat="42.194" lon="1.42729">
        <ele>1339.3</ele>
        <time>2019-02-12T03:21:17Z</time>
      </trkpt>
      <trkpt lat="42.19394" lon="1.42717">
        <ele>1342.7</ele>
        <time>2019-02-12T03:21:23Z</time>
      </trkpt>
      <trkpt lat="42.19385" lon="1.42709">
        <ele>1345.6</ele>
        <time>2019-02-12T03:21:29Z</time>
      </trkpt>
      <trkpt lat="42.1938" lon="1.42699">
        <ele>1348.8</ele>
        <time>2019-02-12T03:21:34Z</time>
      </trkpt>
      <trkpt lat="42.19369" lon="1.42693">
        <ele>1352.3</ele>
        <time>2019-02-12T03:21:41Z</time>
      </trkpt>
      <trkpt lat="42.19363" lon="1.42682">
        <ele>1356.7</ele>
        <time>2019-02-12T03:21:46Z</time>
      </trkpt>
      <trkpt lat="42.19364" lon="1.42669">
        <ele>1362.5</ele>
        <time>2019-02-12T03:21:52Z</time>
      </trkpt>
      <trkpt lat="42.19365" lon="1.42656">
        <ele>1364.9</ele>
        <time>2019-02-12T03:21:57Z</time>
      </trkpt>
      <trkpt lat="42.19367" lon="1.42641">
        <ele>1369.7</ele>
        <time>2019-02-12T03:22:04Z</time>
      </trkpt>
      <trkpt lat="42.19369" lon="1.4263">
        <ele>1373.5</ele>
        <time>2019-02-12T03:22:09Z</time>
      </trkpt>
      <trkpt lat="42.19374" lon="1.4262">
        <ele>1373.8</ele>
        <time>2019-02-12T03:22:14Z</time>
      </trkpt>
      <trkpt lat="42.19379" lon="1.42611">
        <ele>1375.5</ele>
        <time>2019-02-12T03:22:19Z</time>
      </trkpt>
      <trkpt lat="42.19385" lon="1.42599">
        <ele>1377.3</ele>
        <time>2019-02-12T03:22:25Z</time>
      </trkpt>
      <trkpt lat="42.1939" lon="1.42588">
        <ele>1376.8</ele>
        <time>2019-02-12T03:22:30Z</time>
      </trkpt>
      <trkpt lat="42.19395" lon="1.42578">
        <ele>1377.2</ele>
        <time>2019-02-12T03:22:35Z</time>
      </trkpt>
      <trkpt lat="42.19401" lon="1.42567">
        <ele>1376.9</ele>
        <time>2019-02-12T03:22:41Z</time>
      </trkpt>
      <trkpt lat="42.19407" lon="1.4256">
        <ele>1377.2</ele>
        <time>2019-02-12T03:22:46Z</time>
      </trkpt>
      <trkpt lat="42.19416" lon="1.4255">
        <ele>1376.2</ele>
        <time>2019-02-12T03:22:52Z</time>
      </trkpt>
      <trkpt lat="42.19423" lon="1.42543">
        <ele>1374.8</ele>
        <time>2019-02-12T03:22:57Z</time>
      </trkpt>
      <trkpt lat="42.19431" lon="1.42537">
        <ele>1373.4</ele>
        <time>2019-02-12T03:23:02Z</time>
      </trkpt>
      <trkpt lat="42.19438" lon="1.42528">
        <ele>1373.5</ele>
        <time>2019-02-12T03:23:08Z</time>
      </trkpt>
      <trkpt lat="42.19444" lon="1.42519">
        <ele>1373.5</ele>
        <time>2019-02-12T03:23:13Z</time>
      </trkpt>
      <trkpt lat="42.19449" lon="1.42509">
        <ele>1373.5</ele>
        <time>2019-02-12T03:23:18Z</time>
      </trkpt>
      <trkpt lat="42.19455" lon="1.42501">
        <ele>1373.8</ele>
        <time>2019-02-12T03:23:23Z</time>
      </trkpt>
      <trkpt lat="42.19463" lon="1.42491">
        <ele>1373.4</ele>
        <time>2019-02-12T03:23:29Z</time>
      </trkpt>
      <trkpt lat="42.19468" lon="1.42481">
        <ele>1375.4</ele>
        <time>2019-02-12T03:23:34Z</time>
      </trkpt>
      <trkpt lat="42.19476" lon="1.42473">
        <ele>1375.5</ele>
        <time>2019-02-12T03:23:40Z</time>
      </trkpt>
      <trkpt lat="42.19487" lon="1.42466">
        <ele>1377.3</ele>
        <time>2019-02-12T03:23:47Z</time>
      </trkpt>
      <trkpt lat="42.19493" lon="1.42458">
        <ele>1376.9</ele>
        <time>2019-02-12T03:23:52Z</time>
      </trkpt>
      <trkpt lat="42.195" lon="1.42451">
        <ele>1377.3</ele>
        <time>2019-02-12T03:23:57Z</time>
      </trkpt>
      <trkpt lat="42.19509" lon="1.42442">
        <ele>1376.2</ele>
        <time>2019-02-12T03:24:03Z</time>
      </trkpt>
      <trkpt lat="42.19517" lon="1.42436">
        <ele>1376.3</ele>
        <time>2019-02-12T03:24:08Z</time>
      </trkpt>
      <trkpt lat="42.19525" lon="1.42428">
        <ele>1373.4</ele>
        <time>2019-02-12T03:24:14Z</time>
      </trkpt>
      <trkpt lat="42.19529" lon="1.42417">
        <ele>1370.5</ele>
        <time>2019-02-12T03:24:19Z</time>
      </trkpt>
      <trkpt lat="42.19534" lon="1.42405">
        <ele>1369.7</ele>
        <time>2019-02-12T03:24:25Z</time>
      </trkpt>
      <trkpt lat="42.19538" lon="1.42395">
        <ele>1370</ele>
        <time>2019-02-12T03:24:30Z</time>
      </trkpt>
      <trkpt lat="42.19542" lon="1.42383">
        <ele>1371</ele>
        <time>2019-02-12T03:24:36Z</time>
      </trkpt>
      <trkpt lat="42.19548" lon="1.4237">
        <ele>1370.1</ele>
        <time>2019-02-12T03:24:42Z</time>
      </trkpt>
      <trkpt lat="42.19556" lon="1.4236">
        <ele>1368.7</ele>
        <time>2019-02-12T03:24:48Z</time>
      </trkpt>
      <trkpt lat="42.19562" lon="1.4235">
        <ele>1368</ele>
        <time>2019-02-12T03:24:54Z</time>
      </trkpt>
      <trkpt lat="42.19567" lon="1.42338">
        <ele>1367.7</ele>
        <time>2019-02-12T03:24:59Z</time>
      </trkpt>
      <trkpt lat="42.19571" lon="1.42326">
        <ele>1367.2</ele>
        <time>2019-02-12T03:25:05Z</time>
      </trkpt>
      <trkpt lat="42.19573" lon="1.42314">
        <ele>1365.6</ele>
        <time>2019-02-12T03:25:10Z</time>
      </trkpt>
      <trkpt lat="42.1958" lon="1.42303">
        <ele>1363.9</ele>
        <time>2019-02-12T03:25:16Z</time>
      </trkpt>
      <trkpt lat="42.19582" lon="1.42289">
        <ele>1363.9</ele>
        <time>2019-02-12T03:25:22Z</time>
      </trkpt>
      <trkpt lat="42.19585" lon="1.42275">
        <ele>1365.2</ele>
        <time>2019-02-12T03:25:28Z</time>
      </trkpt>
      <trkpt lat="42.19588" lon="1.42263">
        <ele>1365.6</ele>
        <time>2019-02-12T03:25:34Z</time>
      </trkpt>
      <trkpt lat="42.19593" lon="1.42251">
        <ele>1363.8</ele>
        <time>2019-02-12T03:25:40Z</time>
      </trkpt>
      <trkpt lat="42.196" lon="1.4224">
        <ele>1363.2</ele>
        <time>2019-02-12T03:25:46Z</time>
      </trkpt>
      <trkpt lat="42.19606" lon="1.42229">
        <ele>1362.9</ele>
        <time>2019-02-12T03:25:52Z</time>
      </trkpt>
      <trkpt lat="42.19614" lon="1.42222">
        <ele>1361.9</ele>
        <time>2019-02-12T03:25:57Z</time>
      </trkpt>
      <trkpt lat="42.19622" lon="1.42212">
        <ele>1361.9</ele>
        <time>2019-02-12T03:26:03Z</time>
      </trkpt>
      <trkpt lat="42.19628" lon="1.42205">
        <ele>1360.8</ele>
        <time>2019-02-12T03:26:08Z</time>
      </trkpt>
      <trkpt lat="42.19637" lon="1.42198">
        <ele>1361.5</ele>
        <time>2019-02-12T03:26:14Z</time>
      </trkpt>
      <trkpt lat="42.19646" lon="1.42189">
        <ele>1360.1</ele>
        <time>2019-02-12T03:26:20Z</time>
      </trkpt>
      <trkpt lat="42.19654" lon="1.42179">
        <ele>1359.5</ele>
        <time>2019-02-12T03:26:26Z</time>
      </trkpt>
      <trkpt lat="42.19659" lon="1.42169">
        <ele>1358</ele>
        <time>2019-02-12T03:26:32Z</time>
      </trkpt>
      <trkpt lat="42.19665" lon="1.42156">
        <ele>1356</ele>
        <time>2019-02-12T03:26:38Z</time>
      </trkpt>
      <trkpt lat="42.19669" lon="1.42146">
        <ele>1355.6</ele>
        <time>2019-02-12T03:26:43Z</time>
      </trkpt>
      <trkpt lat="42.19672" lon="1.42134">
        <ele>1355.3</ele>
        <time>2019-02-12T03:26:48Z</time>
      </trkpt>
      <trkpt lat="42.19674" lon="1.42122">
        <ele>1354.3</ele>
        <time>2019-02-12T03:26:54Z</time>
      </trkpt>
      <trkpt lat="42.19676" lon="1.42109">
        <ele>1351.3</ele>
        <time>2019-02-12T03:26:59Z</time>
      </trkpt>
      <trkpt lat="42.19679" lon="1.42097">
        <ele>1349.9</ele>
        <time>2019-02-12T03:27:04Z</time>
      </trkpt>
      <trkpt lat="42.19683" lon="1.42085">
        <ele>1350.8</ele>
        <time>2019-02-12T03:27:10Z</time>
      </trkpt>
      <trkpt lat="42.19689" lon="1.42074">
        <ele>1350.9</ele>
        <time>2019-02-12T03:27:15Z</time>
      </trkpt>
      <trkpt lat="42.19692" lon="1.42062">
        <ele>1351.8</ele>
        <time>2019-02-12T03:27:21Z</time>
      </trkpt>
      <trkpt lat="42.19697" lon="1.42049">
        <ele>1354.2</ele>
        <time>2019-02-12T03:27:27Z</time>
      </trkpt>
      <trkpt lat="42.19703" lon="1.42037">
        <ele>1355.7</ele>
        <time>2019-02-12T03:27:34Z</time>
      </trkpt>
      <trkpt lat="42.1971" lon="1.42026">
        <ele>1356</ele>
        <time>2019-02-12T03:27:39Z</time>
      </trkpt>
      <trkpt lat="42.19715" lon="1.42015">
        <ele>1358</ele>
        <time>2019-02-12T03:27:45Z</time>
      </trkpt>
      <trkpt lat="42.19721" lon="1.42004">
        <ele>1359.5</ele>
        <time>2019-02-12T03:27:51Z</time>
      </trkpt>
      <trkpt lat="42.19725" lon="1.41993">
        <ele>1359</ele>
        <time>2019-02-12T03:27:56Z</time>
      </trkpt>
      <trkpt lat="42.19733" lon="1.41989">
        <ele>1359</ele>
        <time>2019-02-12T03:28:01Z</time>
      </trkpt>
      <trkpt lat="42.19739" lon="1.41978">
        <ele>1359.5</ele>
        <time>2019-02-12T03:28:07Z</time>
      </trkpt>
      <trkpt lat="42.19748" lon="1.41971">
        <ele>1358</ele>
        <time>2019-02-12T03:28:12Z</time>
      </trkpt>
      <trkpt lat="42.19756" lon="1.41963">
        <ele>1360</ele>
        <time>2019-02-12T03:28:18Z</time>
      </trkpt>
      <trkpt lat="42.19762" lon="1.41956">
        <ele>1360</ele>
        <time>2019-02-12T03:28:22Z</time>
      </trkpt>
      <trkpt lat="42.19773" lon="1.41946">
        <ele>1360</ele>
        <time>2019-02-12T03:28:30Z</time>
      </trkpt>
      <trkpt lat="42.19781" lon="1.41938">
        <ele>1360.1</ele>
        <time>2019-02-12T03:28:36Z</time>
      </trkpt>
      <trkpt lat="42.19788" lon="1.4193">
        <ele>1359.4</ele>
        <time>2019-02-12T03:28:41Z</time>
      </trkpt>
      <trkpt lat="42.19798" lon="1.41923">
        <ele>1358.4</ele>
        <time>2019-02-12T03:28:48Z</time>
      </trkpt>
      <trkpt lat="42.19804" lon="1.41914">
        <ele>1358.4</ele>
        <time>2019-02-12T03:28:53Z</time>
      </trkpt>
      <trkpt lat="42.19811" lon="1.41903">
        <ele>1357.7</ele>
        <time>2019-02-12T03:28:59Z</time>
      </trkpt>
      <trkpt lat="42.19818" lon="1.41892">
        <ele>1357.6</ele>
        <time>2019-02-12T03:29:05Z</time>
      </trkpt>
      <trkpt lat="42.19824" lon="1.4188">
        <ele>1358.4</ele>
        <time>2019-02-12T03:29:11Z</time>
      </trkpt>
      <trkpt lat="42.19831" lon="1.41866">
        <ele>1360.5</ele>
        <time>2019-02-12T03:29:18Z</time>
      </trkpt>
      <trkpt lat="42.19836" lon="1.41855">
        <ele>1362.9</ele>
        <time>2019-02-12T03:29:24Z</time>
      </trkpt>
      <trkpt lat="42.19843" lon="1.41845">
        <ele>1365.3</ele>
        <time>2019-02-12T03:29:30Z</time>
      </trkpt>
      <trkpt lat="42.1985" lon="1.4183">
        <ele>1367.2</ele>
        <time>2019-02-12T03:29:37Z</time>
      </trkpt>
      <trkpt lat="42.19858" lon="1.41819">
        <ele>1368.6</ele>
        <time>2019-02-12T03:29:44Z</time>
      </trkpt>
      <trkpt lat="42.19862" lon="1.41808">
        <ele>1371</ele>
        <time>2019-02-12T03:29:49Z</time>
      </trkpt>
      <trkpt lat="42.19869" lon="1.41795">
        <ele>1373</ele>
        <time>2019-02-12T03:29:56Z</time>
      </trkpt>
      <trkpt lat="42.19876" lon="1.41784">
        <ele>1372</ele>
        <time>2019-02-12T03:30:02Z</time>
      </trkpt>
      <trkpt lat="42.19881" lon="1.41771">
        <ele>1373.1</ele>
        <time>2019-02-12T03:30:08Z</time>
      </trkpt>
      <trkpt lat="42.19887" lon="1.41758">
        <ele>1373.9</ele>
        <time>2019-02-12T03:30:14Z</time>
      </trkpt>
      <trkpt lat="42.19893" lon="1.41746">
        <ele>1375.4</ele>
        <time>2019-02-12T03:30:21Z</time>
      </trkpt>
      <trkpt lat="42.19898" lon="1.41734">
        <ele>1375.9</ele>
        <time>2019-02-12T03:30:26Z</time>
      </trkpt>
      <trkpt lat="42.19905" lon="1.41722">
        <ele>1376.2</ele>
        <time>2019-02-12T03:30:33Z</time>
      </trkpt>
      <trkpt lat="42.19912" lon="1.41711">
        <ele>1377.2</ele>
        <time>2019-02-12T03:30:39Z</time>
      </trkpt>
      <trkpt lat="42.19915" lon="1.41698">
        <ele>1377.9</ele>
        <time>2019-02-12T03:30:45Z</time>
      </trkpt>
      <trkpt lat="42.19919" lon="1.41683">
        <ele>1377.3</ele>
        <time>2019-02-12T03:30:52Z</time>
      </trkpt>
      <trkpt lat="42.19922" lon="1.41668">
        <ele>1379.2</ele>
        <time>2019-02-12T03:30:58Z</time>
      </trkpt>
      <trkpt lat="42.19925" lon="1.41653">
        <ele>1381</ele>
        <time>2019-02-12T03:31:05Z</time>
      </trkpt>
      <trkpt lat="42.19935" lon="1.4164">
        <ele>1381.7</ele>
        <time>2019-02-12T03:31:13Z</time>
      </trkpt>
      <trkpt lat="42.19937" lon="1.41626">
        <ele>1382.7</ele>
        <time>2019-02-12T03:31:19Z</time>
      </trkpt>
      <trkpt lat="42.1994" lon="1.41611">
        <ele>1383</ele>
        <time>2019-02-12T03:31:25Z</time>
      </trkpt>
      <trkpt lat="42.19945" lon="1.41598">
        <ele>1385.8</ele>
        <time>2019-02-12T03:31:32Z</time>
      </trkpt>
      <trkpt lat="42.19953" lon="1.41582">
        <ele>1386.4</ele>
        <time>2019-02-12T03:31:40Z</time>
      </trkpt>
      <trkpt lat="42.19957" lon="1.41565">
        <ele>1389.9</ele>
        <time>2019-02-12T03:31:47Z</time>
      </trkpt>
      <trkpt lat="42.19963" lon="1.4155">
        <ele>1390.7</ele>
        <time>2019-02-12T03:31:55Z</time>
      </trkpt>
      <trkpt lat="42.19973" lon="1.41534">
        <ele>1392.3</ele>
        <time>2019-02-12T03:32:04Z</time>
      </trkpt>
      <trkpt lat="42.19978" lon="1.41519">
        <ele>1392.7</ele>
        <time>2019-02-12T03:32:10Z</time>
      </trkpt>
      <trkpt lat="42.19982" lon="1.41502">
        <ele>1394</ele>
        <time>2019-02-12T03:32:18Z</time>
      </trkpt>
      <trkpt lat="42.19986" lon="1.4149">
        <ele>1394.6</ele>
        <time>2019-02-12T03:32:24Z</time>
      </trkpt>
      <trkpt lat="42.19991" lon="1.41478">
        <ele>1395.5</ele>
        <time>2019-02-12T03:32:29Z</time>
      </trkpt>
      <trkpt lat="42.19995" lon="1.41466">
        <ele>1396.4</ele>
        <time>2019-02-12T03:32:35Z</time>
      </trkpt>
      <trkpt lat="42.20004" lon="1.41452">
        <ele>1397</ele>
        <time>2019-02-12T03:32:43Z</time>
      </trkpt>
      <trkpt lat="42.20007" lon="1.41434">
        <ele>1398.4</ele>
        <time>2019-02-12T03:32:51Z</time>
      </trkpt>
      <trkpt lat="42.20011" lon="1.41419">
        <ele>1400.3</ele>
        <time>2019-02-12T03:32:57Z</time>
      </trkpt>
      <trkpt lat="42.20017" lon="1.41406">
        <ele>1402.2</ele>
        <time>2019-02-12T03:33:04Z</time>
      </trkpt>
      <trkpt lat="42.20023" lon="1.41392">
        <ele>1403.3</ele>
        <time>2019-02-12T03:33:11Z</time>
      </trkpt>
      <trkpt lat="42.20029" lon="1.41379">
        <ele>1404.6</ele>
        <time>2019-02-12T03:33:17Z</time>
      </trkpt>
      <trkpt lat="42.20033" lon="1.41366">
        <ele>1406.7</ele>
        <time>2019-02-12T03:33:23Z</time>
      </trkpt>
      <trkpt lat="42.20039" lon="1.41351">
        <ele>1408.4</ele>
        <time>2019-02-12T03:33:30Z</time>
      </trkpt>
      <trkpt lat="42.20045" lon="1.41338">
        <ele>1409.4</ele>
        <time>2019-02-12T03:33:37Z</time>
      </trkpt>
      <trkpt lat="42.20047" lon="1.41323">
        <ele>1410.4</ele>
        <time>2019-02-12T03:33:44Z</time>
      </trkpt>
      <trkpt lat="42.20053" lon="1.41308">
        <ele>1410.5</ele>
        <time>2019-02-12T03:33:51Z</time>
      </trkpt>
      <trkpt lat="42.20058" lon="1.41295">
        <ele>1410.8</ele>
        <time>2019-02-12T03:33:57Z</time>
      </trkpt>
      <trkpt lat="42.20061" lon="1.4128">
        <ele>1411.8</ele>
        <time>2019-02-12T03:34:03Z</time>
      </trkpt>
      <trkpt lat="42.20063" lon="1.41269">
        <ele>1412.8</ele>
        <time>2019-02-12T03:34:09Z</time>
      </trkpt>
      <trkpt lat="42.20065" lon="1.41254">
        <ele>1413.8</ele>
        <time>2019-02-12T03:34:15Z</time>
      </trkpt>
      <trkpt lat="42.20069" lon="1.41238">
        <ele>1415.6</ele>
        <time>2019-02-12T03:34:22Z</time>
      </trkpt>
      <trkpt lat="42.20075" lon="1.41219">
        <ele>1417.3</ele>
        <time>2019-02-12T03:34:30Z</time>
      </trkpt>
      <trkpt lat="42.20079" lon="1.41204">
        <ele>1419.1</ele>
        <time>2019-02-12T03:34:37Z</time>
      </trkpt>
      <trkpt lat="42.20078" lon="1.41182">
        <ele>1422</ele>
        <time>2019-02-12T03:34:47Z</time>
      </trkpt>
      <trkpt lat="42.20081" lon="1.41166">
        <ele>1424.4</ele>
        <time>2019-02-12T03:34:54Z</time>
      </trkpt>
      <trkpt lat="42.20087" lon="1.41148">
        <ele>1427.3</ele>
        <time>2019-02-12T03:35:02Z</time>
      </trkpt>
      <trkpt lat="42.20088" lon="1.4113">
        <ele>1430.1</ele>
        <time>2019-02-12T03:35:10Z</time>
      </trkpt>
      <trkpt lat="42.20089" lon="1.41112">
        <ele>1432.7</ele>
        <time>2019-02-12T03:35:17Z</time>
      </trkpt>
      <trkpt lat="42.20092" lon="1.41093">
        <ele>1434</ele>
        <time>2019-02-12T03:35:25Z</time>
      </trkpt>
      <trkpt lat="42.20091" lon="1.41078">
        <ele>1435.4</ele>
        <time>2019-02-12T03:35:32Z</time>
      </trkpt>
      <trkpt lat="42.20093" lon="1.41061">
        <ele>1436.4</ele>
        <time>2019-02-12T03:35:39Z</time>
      </trkpt>
      <trkpt lat="42.20096" lon="1.41047">
        <ele>1437.8</ele>
        <time>2019-02-12T03:35:45Z</time>
      </trkpt>
      <trkpt lat="42.20105" lon="1.4103">
        <ele>1438.3</ele>
        <time>2019-02-12T03:35:54Z</time>
      </trkpt>
      <trkpt lat="42.20108" lon="1.41017">
        <ele>1438.9</ele>
        <time>2019-02-12T03:36:00Z</time>
      </trkpt>
      <trkpt lat="42.20114" lon="1.41001">
        <ele>1438.2</ele>
        <time>2019-02-12T03:36:08Z</time>
      </trkpt>
      <trkpt lat="42.20115" lon="1.40986">
        <ele>1436.8</ele>
        <time>2019-02-12T03:36:14Z</time>
      </trkpt>
      <trkpt lat="42.2012" lon="1.40972">
        <ele>1436.5</ele>
        <time>2019-02-12T03:36:20Z</time>
      </trkpt>
      <trkpt lat="42.20126" lon="1.40959">
        <ele>1435.1</ele>
        <time>2019-02-12T03:36:27Z</time>
      </trkpt>
      <trkpt lat="42.20134" lon="1.40948">
        <ele>1434</ele>
        <time>2019-02-12T03:36:33Z</time>
      </trkpt>
      <trkpt lat="42.20142" lon="1.40935">
        <ele>1434</ele>
        <time>2019-02-12T03:36:40Z</time>
      </trkpt>
      <trkpt lat="42.20149" lon="1.40924">
        <ele>1433.5</ele>
        <time>2019-02-12T03:36:47Z</time>
      </trkpt>
      <trkpt lat="42.20154" lon="1.40913">
        <ele>1433.4</ele>
        <time>2019-02-12T03:36:52Z</time>
      </trkpt>
      <trkpt lat="42.20153" lon="1.40897">
        <ele>1434.1</ele>
        <time>2019-02-12T03:36:59Z</time>
      </trkpt>
      <trkpt lat="42.20155" lon="1.40884">
        <ele>1434</ele>
        <time>2019-02-12T03:37:04Z</time>
      </trkpt>
      <trkpt lat="42.20156" lon="1.40872">
        <ele>1434.4</ele>
        <time>2019-02-12T03:37:10Z</time>
      </trkpt>
      <trkpt lat="42.20153" lon="1.4086">
        <ele>1436.4</ele>
        <time>2019-02-12T03:37:15Z</time>
      </trkpt>
      <trkpt lat="42.20151" lon="1.40848">
        <ele>1438.2</ele>
        <time>2019-02-12T03:37:21Z</time>
      </trkpt>
      <trkpt lat="42.20145" lon="1.40836">
        <ele>1442.2</ele>
        <time>2019-02-12T03:37:27Z</time>
      </trkpt>
      <trkpt lat="42.20141" lon="1.40823">
        <ele>1446</ele>
        <time>2019-02-12T03:37:33Z</time>
      </trkpt>
      <trkpt lat="42.20136" lon="1.40813">
        <ele>1448.9</ele>
        <time>2019-02-12T03:37:38Z</time>
      </trkpt>
      <trkpt lat="42.20131" lon="1.40801">
        <ele>1450.2</ele>
        <time>2019-02-12T03:37:43Z</time>
      </trkpt>
      <trkpt lat="42.20127" lon="1.40787">
        <ele>1451.9</ele>
        <time>2019-02-12T03:37:50Z</time>
      </trkpt>
      <trkpt lat="42.20125" lon="1.40777">
        <ele>1453.3</ele>
        <time>2019-02-12T03:37:54Z</time>
      </trkpt>
      <trkpt lat="42.2012" lon="1.40765">
        <ele>1452.6</ele>
        <time>2019-02-12T03:38:00Z</time>
      </trkpt>
      <trkpt lat="42.20117" lon="1.4075">
        <ele>1454.7</ele>
        <time>2019-02-12T03:38:07Z</time>
      </trkpt>
      <trkpt lat="42.20115" lon="1.40735">
        <ele>1456</ele>
        <time>2019-02-12T03:38:13Z</time>
      </trkpt>
      <trkpt lat="42.20114" lon="1.40722">
        <ele>1457.4</ele>
        <time>2019-02-12T03:38:18Z</time>
      </trkpt>
      <trkpt lat="42.20112" lon="1.40709">
        <ele>1457.4</ele>
        <time>2019-02-12T03:38:24Z</time>
      </trkpt>
      <trkpt lat="42.20115" lon="1.40695">
        <ele>1458.4</ele>
        <time>2019-02-12T03:38:30Z</time>
      </trkpt>
      <trkpt lat="42.20115" lon="1.40681">
        <ele>1459.4</ele>
        <time>2019-02-12T03:38:36Z</time>
      </trkpt>
      <trkpt lat="42.20114" lon="1.40665">
        <ele>1460.8</ele>
        <time>2019-02-12T03:38:43Z</time>
      </trkpt>
      <trkpt lat="42.20112" lon="1.4065">
        <ele>1461.8</ele>
        <time>2019-02-12T03:38:50Z</time>
      </trkpt>
      <trkpt lat="42.20112" lon="1.4064">
        <ele>1460.8</ele>
        <time>2019-02-12T03:38:54Z</time>
      </trkpt>
      <trkpt lat="42.2011" lon="1.40627">
        <ele>1460.9</ele>
        <time>2019-02-12T03:38:59Z</time>
      </trkpt>
      <trkpt lat="42.20108" lon="1.40611">
        <ele>1461.4</ele>
        <time>2019-02-12T03:39:06Z</time>
      </trkpt>
      <trkpt lat="42.20103" lon="1.40596">
        <ele>1461.5</ele>
        <time>2019-02-12T03:39:13Z</time>
      </trkpt>
      <trkpt lat="42.20101" lon="1.40584">
        <ele>1461.4</ele>
        <time>2019-02-12T03:39:18Z</time>
      </trkpt>
      <trkpt lat="42.20098" lon="1.40572">
        <ele>1460.8</ele>
        <time>2019-02-12T03:39:24Z</time>
      </trkpt>
      <trkpt lat="42.20094" lon="1.40559">
        <ele>1460.8</ele>
        <time>2019-02-12T03:39:30Z</time>
      </trkpt>
      <trkpt lat="42.20088" lon="1.40546">
        <ele>1459.8</ele>
        <time>2019-02-12T03:39:36Z</time>
      </trkpt>
      <trkpt lat="42.20084" lon="1.40531">
        <ele>1460.4</ele>
        <time>2019-02-12T03:39:43Z</time>
      </trkpt>
      <trkpt lat="42.2008" lon="1.40517">
        <ele>1459.8</ele>
        <time>2019-02-12T03:39:49Z</time>
      </trkpt>
      <trkpt lat="42.20075" lon="1.40505">
        <ele>1459.1</ele>
        <time>2019-02-12T03:39:55Z</time>
      </trkpt>
      <trkpt lat="42.20067" lon="1.4049">
        <ele>1461.4</ele>
        <time>2019-02-12T03:40:03Z</time>
      </trkpt>
      <trkpt lat="42.20064" lon="1.40477">
        <ele>1461.5</ele>
        <time>2019-02-12T03:40:09Z</time>
      </trkpt>
      <trkpt lat="42.20062" lon="1.40463">
        <ele>1460.8</ele>
        <time>2019-02-12T03:40:15Z</time>
      </trkpt>
      <trkpt lat="42.20063" lon="1.40447">
        <ele>1461.9</ele>
        <time>2019-02-12T03:40:21Z</time>
      </trkpt>
      <trkpt lat="42.20065" lon="1.40433">
        <ele>1461.9</ele>
        <time>2019-02-12T03:40:28Z</time>
      </trkpt>
      <trkpt lat="42.20064" lon="1.40421">
        <ele>1462.8</ele>
        <time>2019-02-12T03:40:32Z</time>
      </trkpt>
      <trkpt lat="42.20061" lon="1.40407">
        <ele>1464.2</ele>
        <time>2019-02-12T03:40:39Z</time>
      </trkpt>
      <trkpt lat="42.20059" lon="1.40395">
        <ele>1465.2</ele>
        <time>2019-02-12T03:40:44Z</time>
      </trkpt>
      <trkpt lat="42.20057" lon="1.40379">
        <ele>1464.9</ele>
        <time>2019-02-12T03:40:51Z</time>
      </trkpt>
      <trkpt lat="42.20056" lon="1.40367">
        <ele>1465.6</ele>
        <time>2019-02-12T03:40:56Z</time>
      </trkpt>
      <trkpt lat="42.20055" lon="1.40356">
        <ele>1467.3</ele>
        <time>2019-02-12T03:41:01Z</time>
      </trkpt>
      <trkpt lat="42.20051" lon="1.40344">
        <ele>1467.6</ele>
        <time>2019-02-12T03:41:06Z</time>
      </trkpt>
      <trkpt lat="42.2005" lon="1.40327">
        <ele>1467.2</ele>
        <time>2019-02-12T03:41:14Z</time>
      </trkpt>
      <trkpt lat="42.20049" lon="1.40311">
        <ele>1468.1</ele>
        <time>2019-02-12T03:41:20Z</time>
      </trkpt>
      <trkpt lat="42.20051" lon="1.40296">
        <ele>1468.7</ele>
        <time>2019-02-12T03:41:27Z</time>
      </trkpt>
      <trkpt lat="42.20049" lon="1.40281">
        <ele>1469</ele>
        <time>2019-02-12T03:41:33Z</time>
      </trkpt>
      <trkpt lat="42.20047" lon="1.40268">
        <ele>1469.6</ele>
        <time>2019-02-12T03:41:39Z</time>
      </trkpt>
      <trkpt lat="42.20049" lon="1.40252">
        <ele>1469.6</ele>
        <time>2019-02-12T03:41:46Z</time>
      </trkpt>
      <trkpt lat="42.20048" lon="1.40237">
        <ele>1470.4</ele>
        <time>2019-02-12T03:41:52Z</time>
      </trkpt>
      <trkpt lat="42.20048" lon="1.40224">
        <ele>1471.1</ele>
        <time>2019-02-12T03:41:58Z</time>
      </trkpt>
      <trkpt lat="42.20048" lon="1.40211">
        <ele>1470</ele>
        <time>2019-02-12T03:42:03Z</time>
      </trkpt>
      <trkpt lat="42.20047" lon="1.40196">
        <ele>1470</ele>
        <time>2019-02-12T03:42:10Z</time>
      </trkpt>
      <trkpt lat="42.20043" lon="1.40183">
        <ele>1469</ele>
        <time>2019-02-12T03:42:16Z</time>
      </trkpt>
      <trkpt lat="42.20039" lon="1.4017">
        <ele>1469</ele>
        <time>2019-02-12T03:42:21Z</time>
      </trkpt>
      <trkpt lat="42.20035" lon="1.40159">
        <ele>1468.6</ele>
        <time>2019-02-12T03:42:27Z</time>
      </trkpt>
      <trkpt lat="42.20034" lon="1.40142">
        <ele>1467.7</ele>
        <time>2019-02-12T03:42:34Z</time>
      </trkpt>
      <trkpt lat="42.20033" lon="1.40127">
        <ele>1468.6</ele>
        <time>2019-02-12T03:42:40Z</time>
      </trkpt>
      <trkpt lat="42.20032" lon="1.40113">
        <ele>1469.6</ele>
        <time>2019-02-12T03:42:46Z</time>
      </trkpt>
      <trkpt lat="42.20029" lon="1.40098">
        <ele>1468</ele>
        <time>2019-02-12T03:42:53Z</time>
      </trkpt>
      <trkpt lat="42.20029" lon="1.40084">
        <ele>1469</ele>
        <time>2019-02-12T03:42:59Z</time>
      </trkpt>
      <trkpt lat="42.2003" lon="1.4007">
        <ele>1470.1</ele>
        <time>2019-02-12T03:43:05Z</time>
      </trkpt>
      <trkpt lat="42.20031" lon="1.40057">
        <ele>1470.5</ele>
        <time>2019-02-12T03:43:11Z</time>
      </trkpt>
      <trkpt lat="42.20038" lon="1.40043">
        <ele>1471.4</ele>
        <time>2019-02-12T03:43:17Z</time>
      </trkpt>
      <trkpt lat="42.20041" lon="1.4003">
        <ele>1472.1</ele>
        <time>2019-02-12T03:43:23Z</time>
      </trkpt>
      <trkpt lat="42.20045" lon="1.4002">
        <ele>1470.1</ele>
        <time>2019-02-12T03:43:28Z</time>
      </trkpt>
      <trkpt lat="42.20051" lon="1.40009">
        <ele>1471.5</ele>
        <time>2019-02-12T03:43:34Z</time>
      </trkpt>
      <trkpt lat="42.20058" lon="1.40002">
        <ele>1469.7</ele>
        <time>2019-02-12T03:43:39Z</time>
      </trkpt>
      <trkpt lat="42.20066" lon="1.39994">
        <ele>1468.1</ele>
        <time>2019-02-12T03:43:44Z</time>
      </trkpt>
      <trkpt lat="42.20074" lon="1.39988">
        <ele>1467.6</ele>
        <time>2019-02-12T03:43:50Z</time>
      </trkpt>
      <trkpt lat="42.20081" lon="1.39979">
        <ele>1466.2</ele>
        <time>2019-02-12T03:43:55Z</time>
      </trkpt>
      <trkpt lat="42.2009" lon="1.39974">
        <ele>1465.7</ele>
        <time>2019-02-12T03:44:01Z</time>
      </trkpt>
      <trkpt lat="42.20098" lon="1.39968">
        <ele>1464.9</ele>
        <time>2019-02-12T03:44:06Z</time>
      </trkpt>
      <trkpt lat="42.20109" lon="1.39968">
        <ele>1466.2</ele>
        <time>2019-02-12T03:44:12Z</time>
      </trkpt>
      <trkpt lat="42.20118" lon="1.39969">
        <ele>1466.2</ele>
        <time>2019-02-12T03:44:18Z</time>
      </trkpt>
      <trkpt lat="42.20129" lon="1.39974">
        <ele>1465.7</ele>
        <time>2019-02-12T03:44:24Z</time>
      </trkpt>
      <trkpt lat="42.20139" lon="1.39977">
        <ele>1469.7</ele>
        <time>2019-02-12T03:44:30Z</time>
      </trkpt>
      <trkpt lat="42.20149" lon="1.39983">
        <ele>1472.9</ele>
        <time>2019-02-12T03:44:36Z</time>
      </trkpt>
      <trkpt lat="42.20158" lon="1.39983">
        <ele>1472.5</ele>
        <time>2019-02-12T03:44:41Z</time>
      </trkpt>
      <trkpt lat="42.20167" lon="1.39984">
        <ele>1473.8</ele>
        <time>2019-02-12T03:44:47Z</time>
      </trkpt>
      <trkpt lat="42.20176" lon="1.39984">
        <ele>1474.4</ele>
        <time>2019-02-12T03:44:52Z</time>
      </trkpt>
      <trkpt lat="42.20186" lon="1.39984">
        <ele>1473.8</ele>
        <time>2019-02-12T03:44:58Z</time>
      </trkpt>
      <trkpt lat="42.20196" lon="1.39983">
        <ele>1474.8</ele>
        <time>2019-02-12T03:45:03Z</time>
      </trkpt>
      <trkpt lat="42.20204" lon="1.39983">
        <ele>1471</ele>
        <time>2019-02-12T03:45:08Z</time>
      </trkpt>
      <trkpt lat="42.20214" lon="1.3998">
        <ele>1471.1</ele>
        <time>2019-02-12T03:45:14Z</time>
      </trkpt>
      <trkpt lat="42.20225" lon="1.3998">
        <ele>1472.9</ele>
        <time>2019-02-12T03:45:20Z</time>
      </trkpt>
      <trkpt lat="42.20236" lon="1.3998">
        <ele>1473.4</ele>
        <time>2019-02-12T03:45:26Z</time>
      </trkpt>
      <trkpt lat="42.20245" lon="1.39972">
        <ele>1472.5</ele>
        <time>2019-02-12T03:45:32Z</time>
      </trkpt>
      <trkpt lat="42.20249" lon="1.39962">
        <ele>1472.9</ele>
        <time>2019-02-12T03:45:37Z</time>
      </trkpt>
      <trkpt lat="42.20252" lon="1.3995">
        <ele>1472.4</ele>
        <time>2019-02-12T03:45:42Z</time>
      </trkpt>
      <trkpt lat="42.2025" lon="1.39936">
        <ele>1471.5</ele>
        <time>2019-02-12T03:45:49Z</time>
      </trkpt>
      <trkpt lat="42.20247" lon="1.39923">
        <ele>1472</ele>
        <time>2019-02-12T03:45:54Z</time>
      </trkpt>
      <trkpt lat="42.20244" lon="1.39909">
        <ele>1472.4</ele>
        <time>2019-02-12T03:46:00Z</time>
      </trkpt>
      <trkpt lat="42.2024" lon="1.39894">
        <ele>1473.5</ele>
        <time>2019-02-12T03:46:07Z</time>
      </trkpt>
      <trkpt lat="42.20232" lon="1.39882">
        <ele>1474.9</ele>
        <time>2019-02-12T03:46:14Z</time>
      </trkpt>
      <trkpt lat="42.20226" lon="1.39869">
        <ele>1475.2</ele>
        <time>2019-02-12T03:46:21Z</time>
      </trkpt>
      <trkpt lat="42.2022" lon="1.39857">
        <ele>1475.8</ele>
        <time>2019-02-12T03:46:27Z</time>
      </trkpt>
      <trkpt lat="42.20213" lon="1.39847">
        <ele>1474.9</ele>
        <time>2019-02-12T03:46:32Z</time>
      </trkpt>
      <trkpt lat="42.20206" lon="1.39835">
        <ele>1474.8</ele>
        <time>2019-02-12T03:46:39Z</time>
      </trkpt>
      <trkpt lat="42.202" lon="1.39821">
        <ele>1475.8</ele>
        <time>2019-02-12T03:46:46Z</time>
      </trkpt>
      <trkpt lat="42.20194" lon="1.39806">
        <ele>1477.6</ele>
        <time>2019-02-12T03:46:53Z</time>
      </trkpt>
      <trkpt lat="42.20188" lon="1.39787">
        <ele>1478.6</ele>
        <time>2019-02-12T03:47:02Z</time>
      </trkpt>
      <trkpt lat="42.20177" lon="1.39775">
        <ele>1480</ele>
        <time>2019-02-12T03:47:10Z</time>
      </trkpt>
      <trkpt lat="42.2017" lon="1.3976">
        <ele>1481.6</ele>
        <time>2019-02-12T03:47:17Z</time>
      </trkpt>
      <trkpt lat="42.20164" lon="1.39746">
        <ele>1482.5</ele>
        <time>2019-02-12T03:47:24Z</time>
      </trkpt>
      <trkpt lat="42.20156" lon="1.39736">
        <ele>1482</ele>
        <time>2019-02-12T03:47:30Z</time>
      </trkpt>
      <trkpt lat="42.20149" lon="1.39726">
        <ele>1481.1</ele>
        <time>2019-02-12T03:47:36Z</time>
      </trkpt>
      <trkpt lat="42.20143" lon="1.39714">
        <ele>1481.1</ele>
        <time>2019-02-12T03:47:43Z</time>
      </trkpt>
      <trkpt lat="42.20133" lon="1.397">
        <ele>1480.1</ele>
        <time>2019-02-12T03:47:51Z</time>
      </trkpt>
      <trkpt lat="42.20123" lon="1.39686">
        <ele>1478.3</ele>
        <time>2019-02-12T03:47:59Z</time>
      </trkpt>
      <trkpt lat="42.20115" lon="1.39669">
        <ele>1478.2</ele>
        <time>2019-02-12T03:48:08Z</time>
      </trkpt>
      <trkpt lat="42.20112" lon="1.39653">
        <ele>1476.9</ele>
        <time>2019-02-12T03:48:14Z</time>
      </trkpt>
      <trkpt lat="42.2011" lon="1.39637">
        <ele>1477.2</ele>
        <time>2019-02-12T03:48:21Z</time>
      </trkpt>
      <trkpt lat="42.20106" lon="1.39621">
        <ele>1478.2</ele>
        <time>2019-02-12T03:48:28Z</time>
      </trkpt>
      <trkpt lat="42.20103" lon="1.39606">
        <ele>1477.2</ele>
        <time>2019-02-12T03:48:35Z</time>
      </trkpt>
      <trkpt lat="42.20102" lon="1.3959">
        <ele>1477.6</ele>
        <time>2019-02-12T03:48:42Z</time>
      </trkpt>
      <trkpt lat="42.201" lon="1.39577">
        <ele>1475.8</ele>
        <time>2019-02-12T03:48:47Z</time>
      </trkpt>
      <trkpt lat="42.20096" lon="1.39563">
        <ele>1473.9</ele>
        <time>2019-02-12T03:48:54Z</time>
      </trkpt>
      <trkpt lat="42.20092" lon="1.39548">
        <ele>1473.5</ele>
        <time>2019-02-12T03:49:01Z</time>
      </trkpt>
      <trkpt lat="42.20092" lon="1.39533">
        <ele>1472.4</ele>
        <time>2019-02-12T03:49:07Z</time>
      </trkpt>
      <trkpt lat="42.2009" lon="1.39519">
        <ele>1472.1</ele>
        <time>2019-02-12T03:49:13Z</time>
      </trkpt>
      <trkpt lat="42.20089" lon="1.39504">
        <ele>1472.1</ele>
        <time>2019-02-12T03:49:19Z</time>
      </trkpt>
      <trkpt lat="42.20089" lon="1.39487">
        <ele>1470</ele>
        <time>2019-02-12T03:49:27Z</time>
      </trkpt>
      <trkpt lat="42.20089" lon="1.39473">
        <ele>1468</ele>
        <time>2019-02-12T03:49:32Z</time>
      </trkpt>
      <trkpt lat="42.20087" lon="1.39456">
        <ele>1462.4</ele>
        <time>2019-02-12T03:49:40Z</time>
      </trkpt>
      <trkpt lat="42.20091" lon="1.39441">
        <ele>1459.4</ele>
        <time>2019-02-12T03:49:46Z</time>
      </trkpt>
      <trkpt lat="42.2009" lon="1.39424">
        <ele>1456</ele>
        <time>2019-02-12T03:49:54Z</time>
      </trkpt>
      <trkpt lat="42.20088" lon="1.39408">
        <ele>1451.3</ele>
        <time>2019-02-12T03:50:00Z</time>
      </trkpt>
      <trkpt lat="42.20087" lon="1.39392">
        <ele>1447</ele>
        <time>2019-02-12T03:50:07Z</time>
      </trkpt>
      <trkpt lat="42.20088" lon="1.39378">
        <ele>1442.7</ele>
        <time>2019-02-12T03:50:13Z</time>
      </trkpt>
      <trkpt lat="42.20089" lon="1.39363">
        <ele>1436.8</ele>
        <time>2019-02-12T03:50:20Z</time>
      </trkpt>
      <trkpt lat="42.20089" lon="1.39348">
        <ele>1434.4</ele>
        <time>2019-02-12T03:50:26Z</time>
      </trkpt>
      <trkpt lat="42.20091" lon="1.39333">
        <ele>1431.7</ele>
        <time>2019-02-12T03:50:32Z</time>
      </trkpt>
      <trkpt lat="42.20095" lon="1.39318">
        <ele>1428.2</ele>
        <time>2019-02-12T03:50:39Z</time>
      </trkpt>
      <trkpt lat="42.20097" lon="1.39303">
        <ele>1424.9</ele>
        <time>2019-02-12T03:50:45Z</time>
      </trkpt>
      <trkpt lat="42.20104" lon="1.39292">
        <ele>1422</ele>
        <time>2019-02-12T03:50:52Z</time>
      </trkpt>
      <trkpt lat="42.2011" lon="1.39281">
        <ele>1420</ele>
        <time>2019-02-12T03:50:57Z</time>
      </trkpt>
      <trkpt lat="42.20116" lon="1.3927">
        <ele>1418</ele>
        <time>2019-02-12T03:51:03Z</time>
      </trkpt>
      <trkpt lat="42.20123" lon="1.39259">
        <ele>1419.6</ele>
        <time>2019-02-12T03:51:09Z</time>
      </trkpt>
      <trkpt lat="42.20132" lon="1.39251">
        <ele>1419.6</ele>
        <time>2019-02-12T03:51:16Z</time>
      </trkpt>
      <trkpt lat="42.20139" lon="1.39241">
        <ele>1417.7</ele>
        <time>2019-02-12T03:51:21Z</time>
      </trkpt>
      <trkpt lat="42.20138" lon="1.39234">
        <ele>1417.6</ele>
        <time>2019-02-12T03:51:24Z</time>
      </trkpt>
      <trkpt lat="42.20147" lon="1.39222">
        <ele>1418.7</ele>
        <time>2019-02-12T03:51:31Z</time>
      </trkpt>
      <trkpt lat="42.20154" lon="1.39211">
        <ele>1419.6</ele>
        <time>2019-02-12T03:51:38Z</time>
      </trkpt>
      <trkpt lat="42.2016" lon="1.39202">
        <ele>1420</ele>
        <time>2019-02-12T03:51:43Z</time>
      </trkpt>
      <trkpt lat="42.20169" lon="1.39194">
        <ele>1423.9</ele>
        <time>2019-02-12T03:51:49Z</time>
      </trkpt>
      <trkpt lat="42.20177" lon="1.39181">
        <ele>1425.8</ele>
        <time>2019-02-12T03:51:56Z</time>
      </trkpt>
      <trkpt lat="42.20185" lon="1.39172">
        <ele>1428.6</ele>
        <time>2019-02-12T03:52:02Z</time>
      </trkpt>
      <trkpt lat="42.20192" lon="1.39158">
        <ele>1432.1</ele>
        <time>2019-02-12T03:52:09Z</time>
      </trkpt>
      <trkpt lat="42.20204" lon="1.39146">
        <ele>1434.4</ele>
        <time>2019-02-12T03:52:18Z</time>
      </trkpt>
      <trkpt lat="42.20214" lon="1.39134">
        <ele>1436.8</ele>
        <time>2019-02-12T03:52:25Z</time>
      </trkpt>
      <trkpt lat="42.20219" lon="1.39123">
        <ele>1438.9</ele>
        <time>2019-02-12T03:52:31Z</time>
      </trkpt>
      <trkpt lat="42.20226" lon="1.39109">
        <ele>1441.2</ele>
        <time>2019-02-12T03:52:38Z</time>
      </trkpt>
      <trkpt lat="42.20234" lon="1.39096">
        <ele>1443.7</ele>
        <time>2019-02-12T03:52:45Z</time>
      </trkpt>
      <trkpt lat="42.20242" lon="1.39082">
        <ele>1445.5</ele>
        <time>2019-02-12T03:52:52Z</time>
      </trkpt>
      <trkpt lat="42.20248" lon="1.39063">
        <ele>1446.5</ele>
        <time>2019-02-12T03:53:01Z</time>
      </trkpt>
      <trkpt lat="42.20253" lon="1.39049">
        <ele>1449.5</ele>
        <time>2019-02-12T03:53:08Z</time>
      </trkpt>
      <trkpt lat="42.20261" lon="1.39031">
        <ele>1450.8</ele>
        <time>2019-02-12T03:53:17Z</time>
      </trkpt>
      <trkpt lat="42.20275" lon="1.39017">
        <ele>1453.2</ele>
        <time>2019-02-12T03:53:27Z</time>
      </trkpt>
      <trkpt lat="42.20286" lon="1.38999">
        <ele>1456</ele>
        <time>2019-02-12T03:53:37Z</time>
      </trkpt>
      <trkpt lat="42.20294" lon="1.38984">
        <ele>1457.5</ele>
        <time>2019-02-12T03:53:45Z</time>
      </trkpt>
      <trkpt lat="42.20305" lon="1.38968">
        <ele>1460.5</ele>
        <time>2019-02-12T03:53:53Z</time>
      </trkpt>
      <trkpt lat="42.20315" lon="1.38957">
        <ele>1460.4</ele>
        <time>2019-02-12T03:54:01Z</time>
      </trkpt>
      <trkpt lat="42.2032" lon="1.38939">
        <ele>1459.8</ele>
        <time>2019-02-12T03:54:09Z</time>
      </trkpt>
      <trkpt lat="42.20324" lon="1.38919">
        <ele>1459.9</ele>
        <time>2019-02-12T03:54:18Z</time>
      </trkpt>
      <trkpt lat="42.20329" lon="1.389">
        <ele>1456.6</ele>
        <time>2019-02-12T03:54:26Z</time>
      </trkpt>
      <trkpt lat="42.20338" lon="1.38886">
        <ele>1452.7</ele>
        <time>2019-02-12T03:54:34Z</time>
      </trkpt>
      <trkpt lat="42.20344" lon="1.38874">
        <ele>1449.9</ele>
        <time>2019-02-12T03:54:41Z</time>
      </trkpt>
      <trkpt lat="42.2035" lon="1.38864">
        <ele>1449.4</ele>
        <time>2019-02-12T03:54:46Z</time>
      </trkpt>
      <trkpt lat="42.20355" lon="1.38851">
        <ele>1447.4</ele>
        <time>2019-02-12T03:54:52Z</time>
      </trkpt>
      <trkpt lat="42.20357" lon="1.38838">
        <ele>1444.7</ele>
        <time>2019-02-12T03:54:58Z</time>
      </trkpt>
      <trkpt lat="42.20357" lon="1.38824">
        <ele>1443.7</ele>
        <time>2019-02-12T03:55:04Z</time>
      </trkpt>
      <trkpt lat="42.2035" lon="1.3881">
        <ele>1443.7</ele>
        <time>2019-02-12T03:55:10Z</time>
      </trkpt>
      <trkpt lat="42.20339" lon="1.388">
        <ele>1442.7</ele>
        <time>2019-02-12T03:55:18Z</time>
      </trkpt>
      <trkpt lat="42.20353" lon="1.38785">
        <ele>1442.6</ele>
        <time>2019-02-12T03:55:28Z</time>
      </trkpt>
      <trkpt lat="42.20364" lon="1.38776">
        <ele>1443</ele>
        <time>2019-02-12T03:55:36Z</time>
      </trkpt>
      <trkpt lat="42.20366" lon="1.38765">
        <ele>1443</ele>
        <time>2019-02-12T03:55:41Z</time>
      </trkpt>
      <trkpt lat="42.20356" lon="1.38759">
        <ele>1443.1</ele>
        <time>2019-02-12T03:55:47Z</time>
      </trkpt>
      <trkpt lat="42.20339" lon="1.3875">
        <ele>1444</ele>
        <time>2019-02-12T03:55:58Z</time>
      </trkpt>
      <trkpt lat="42.20328" lon="1.38734">
        <ele>1441.2</ele>
        <time>2019-02-12T03:56:07Z</time>
      </trkpt>
      <trkpt lat="42.2032" lon="1.3873">
        <ele>1439.8</ele>
        <time>2019-02-12T03:56:12Z</time>
      </trkpt>
      <trkpt lat="42.2031" lon="1.38726">
        <ele>1439.3</ele>
        <time>2019-02-12T03:56:18Z</time>
      </trkpt>
      <trkpt lat="42.20309" lon="1.38713">
        <ele>1437.4</ele>
        <time>2019-02-12T03:56:23Z</time>
      </trkpt>
      <trkpt lat="42.20321" lon="1.38705">
        <ele>1436.5</ele>
        <time>2019-02-12T03:56:31Z</time>
      </trkpt>
      <trkpt lat="42.20331" lon="1.38694">
        <ele>1435</ele>
        <time>2019-02-12T03:56:38Z</time>
      </trkpt>
      <trkpt lat="42.20343" lon="1.38684">
        <ele>1433.5</ele>
        <time>2019-02-12T03:56:46Z</time>
      </trkpt>
      <trkpt lat="42.20356" lon="1.38672">
        <ele>1431.1</ele>
        <time>2019-02-12T03:56:55Z</time>
      </trkpt>
      <trkpt lat="42.2037" lon="1.38659">
        <ele>1426.3</ele>
        <time>2019-02-12T03:57:05Z</time>
      </trkpt>
      <trkpt lat="42.20379" lon="1.38647">
        <ele>1423.8</ele>
        <time>2019-02-12T03:57:12Z</time>
      </trkpt>
      <trkpt lat="42.20386" lon="1.3863">
        <ele>1420.1</ele>
        <time>2019-02-12T03:57:20Z</time>
      </trkpt>
      <trkpt lat="42.20389" lon="1.38618">
        <ele>1417.2</ele>
        <time>2019-02-12T03:57:26Z</time>
      </trkpt>
      <trkpt lat="42.20391" lon="1.38608">
        <ele>1410.8</ele>
        <time>2019-02-12T03:57:30Z</time>
      </trkpt>
      <trkpt lat="42.20393" lon="1.38594">
        <ele>1406.6</ele>
        <time>2019-02-12T03:57:36Z</time>
      </trkpt>
      <trkpt lat="42.20394" lon="1.38578">
        <ele>1403.7</ele>
        <time>2019-02-12T03:57:43Z</time>
      </trkpt>
      <trkpt lat="42.20394" lon="1.38562">
        <ele>1400.8</ele>
        <time>2019-02-12T03:57:50Z</time>
      </trkpt>
      <trkpt lat="42.20397" lon="1.3855">
        <ele>1397.5</ele>
        <time>2019-02-12T03:57:55Z</time>
      </trkpt>
      <trkpt lat="42.20398" lon="1.38535">
        <ele>1394.1</ele>
        <time>2019-02-12T03:58:01Z</time>
      </trkpt>
      <trkpt lat="42.20397" lon="1.38523">
        <ele>1389.9</ele>
        <time>2019-02-12T03:58:07Z</time>
      </trkpt>
      <trkpt lat="42.204" lon="1.38511">
        <ele>1387.5</ele>
        <time>2019-02-12T03:58:12Z</time>
      </trkpt>
      <trkpt lat="42.204" lon="1.38497">
        <ele>1383.1</ele>
        <time>2019-02-12T03:58:18Z</time>
      </trkpt>
      <trkpt lat="42.20411" lon="1.38491">
        <ele>1377.3</ele>
        <time>2019-02-12T03:58:25Z</time>
      </trkpt>
      <trkpt lat="42.2042" lon="1.38496">
        <ele>1376.2</ele>
        <time>2019-02-12T03:58:31Z</time>
      </trkpt>
      <trkpt lat="42.20432" lon="1.38501">
        <ele>1375.4</ele>
        <time>2019-02-12T03:58:38Z</time>
      </trkpt>
      <trkpt lat="42.20446" lon="1.38502">
        <ele>1374.4</ele>
        <time>2019-02-12T03:58:46Z</time>
      </trkpt>
      <trkpt lat="42.20457" lon="1.3851">
        <ele>1370.5</ele>
        <time>2019-02-12T03:58:53Z</time>
      </trkpt>
      <trkpt lat="42.20468" lon="1.3851">
        <ele>1366.7</ele>
        <time>2019-02-12T03:58:59Z</time>
      </trkpt>
      <trkpt lat="42.20482" lon="1.38507">
        <ele>1365.7</ele>
        <time>2019-02-12T03:59:07Z</time>
      </trkpt>
      <trkpt lat="42.20498" lon="1.38509">
        <ele>1364.3</ele>
        <time>2019-02-12T03:59:16Z</time>
      </trkpt>
      <trkpt lat="42.20515" lon="1.38507">
        <ele>1365.3</ele>
        <time>2019-02-12T03:59:26Z</time>
      </trkpt>
      <trkpt lat="42.20525" lon="1.385">
        <ele>1362.9</ele>
        <time>2019-02-12T03:59:33Z</time>
      </trkpt>
      <trkpt lat="42.20537" lon="1.38496">
        <ele>1361.5</ele>
        <time>2019-02-12T03:59:40Z</time>
      </trkpt>
      <trkpt lat="42.20544" lon="1.38489">
        <ele>1360.4</ele>
        <time>2019-02-12T03:59:45Z</time>
      </trkpt>
      <trkpt lat="42.20552" lon="1.3849">
        <ele>1357</ele>
        <time>2019-02-12T03:59:49Z</time>
      </trkpt>
      <trkpt lat="42.2055" lon="1.38481">
        <ele>1355.2</ele>
        <time>2019-02-12T03:59:53Z</time>
      </trkpt>
      <trkpt lat="42.20564" lon="1.38482">
        <ele>1353.3</ele>
        <time>2019-02-12T04:00:01Z</time>
      </trkpt>
      <trkpt lat="42.20573" lon="1.38489">
        <ele>1352.9</ele>
        <time>2019-02-12T04:00:07Z</time>
      </trkpt>
      <trkpt lat="42.20583" lon="1.38501">
        <ele>1352.3</ele>
        <time>2019-02-12T04:00:15Z</time>
      </trkpt>
      <trkpt lat="42.20595" lon="1.38504">
        <ele>1352.3</ele>
        <time>2019-02-12T04:00:21Z</time>
      </trkpt>
      <trkpt lat="42.20605" lon="1.38491">
        <ele>1349.4</ele>
        <time>2019-02-12T04:00:29Z</time>
      </trkpt>
      <trkpt lat="42.20602" lon="1.3848">
        <ele>1349.5</ele>
        <time>2019-02-12T04:00:34Z</time>
      </trkpt>
      <trkpt lat="42.20605" lon="1.38464">
        <ele>1349.9</ele>
        <time>2019-02-12T04:00:41Z</time>
      </trkpt>
      <trkpt lat="42.20603" lon="1.38443">
        <ele>1349.5</ele>
        <time>2019-02-12T04:00:50Z</time>
      </trkpt>
      <trkpt lat="42.20608" lon="1.38432">
        <ele>1349.4</ele>
        <time>2019-02-12T04:00:55Z</time>
      </trkpt>
      <trkpt lat="42.20611" lon="1.38415">
        <ele>1350.8</ele>
        <time>2019-02-12T04:01:02Z</time>
      </trkpt>
      <trkpt lat="42.20609" lon="1.38412">
        <ele>1352.2</ele>
        <time>2019-02-12T04:01:04Z</time>
      </trkpt>
      <trkpt lat="42.20597" lon="1.38405">
        <ele>1351.8</ele>
        <time>2019-02-12T04:01:11Z</time>
      </trkpt>
      <trkpt lat="42.20604" lon="1.38396">
        <ele>1351.9</ele>
        <time>2019-02-12T04:01:17Z</time>
      </trkpt>
      <trkpt lat="42.20594" lon="1.38386">
        <ele>1349.4</ele>
        <time>2019-02-12T04:01:23Z</time>
      </trkpt>
      <trkpt lat="42.20591" lon="1.38374">
        <ele>1347.1</ele>
        <time>2019-02-12T04:01:29Z</time>
      </trkpt>
      <trkpt lat="42.20592" lon="1.38368">
        <ele>1344.1</ele>
        <time>2019-02-12T04:01:32Z</time>
      </trkpt>
      <trkpt lat="42.20596" lon="1.38359">
        <ele>1340.6</ele>
        <time>2019-02-12T04:01:36Z</time>
      </trkpt>
      <trkpt lat="42.20601" lon="1.38345">
        <ele>1339.8</ele>
        <time>2019-02-12T04:01:43Z</time>
      </trkpt>
      <trkpt lat="42.20603" lon="1.38331">
        <ele>1339.9</ele>
        <time>2019-02-12T04:01:49Z</time>
      </trkpt>
      <trkpt lat="42.20603" lon="1.38311">
        <ele>1338.8</ele>
        <time>2019-02-12T04:01:57Z</time>
      </trkpt>
      <trkpt lat="42.20609" lon="1.38302">
        <ele>1335</ele>
        <time>2019-02-12T04:02:02Z</time>
      </trkpt>
      <trkpt lat="42.20615" lon="1.38289">
        <ele>1329.2</ele>
        <time>2019-02-12T04:02:09Z</time>
      </trkpt>
      <trkpt lat="42.20618" lon="1.38276">
        <ele>1323.8</ele>
        <time>2019-02-12T04:02:15Z</time>
      </trkpt>
      <trkpt lat="42.2062" lon="1.38265">
        <ele>1319.7</ele>
        <time>2019-02-12T04:02:19Z</time>
      </trkpt>
      <trkpt lat="42.20626" lon="1.38251">
        <ele>1316.3</ele>
        <time>2019-02-12T04:02:26Z</time>
      </trkpt>
      <trkpt lat="42.20633" lon="1.38236">
        <ele>1310.5</ele>
        <time>2019-02-12T04:02:34Z</time>
      </trkpt>
      <trkpt lat="42.20633" lon="1.3822">
        <ele>1306.6</ele>
        <time>2019-02-12T04:02:41Z</time>
      </trkpt>
      <trkpt lat="42.20638" lon="1.38207">
        <ele>1303.6</ele>
        <time>2019-02-12T04:02:47Z</time>
      </trkpt>
      <trkpt lat="42.20642" lon="1.38193">
        <ele>1298.4</ele>
        <time>2019-02-12T04:02:53Z</time>
      </trkpt>
      <trkpt lat="42.20646" lon="1.38183">
        <ele>1295</ele>
        <time>2019-02-12T04:02:58Z</time>
      </trkpt>
      <trkpt lat="42.20651" lon="1.38169">
        <ele>1292.3</ele>
        <time>2019-02-12T04:03:05Z</time>
      </trkpt>
      <trkpt lat="42.2065" lon="1.38155">
        <ele>1287.4</ele>
        <time>2019-02-12T04:03:11Z</time>
      </trkpt>
      <trkpt lat="42.20642" lon="1.38149">
        <ele>1282.6</ele>
        <time>2019-02-12T04:03:16Z</time>
      </trkpt>
      <trkpt lat="42.20647" lon="1.38139">
        <ele>1279.3</ele>
        <time>2019-02-12T04:03:20Z</time>
      </trkpt>
      <trkpt lat="42.20662" lon="1.38129">
        <ele>1272.1</ele>
        <time>2019-02-12T04:03:30Z</time>
      </trkpt>
      <trkpt lat="42.2067" lon="1.38112">
        <ele>1266.2</ele>
        <time>2019-02-12T04:03:39Z</time>
      </trkpt>
      <trkpt lat="42.20678" lon="1.38103">
        <ele>1259.1</ele>
        <time>2019-02-12T04:03:45Z</time>
      </trkpt>
      <trkpt lat="42.20669" lon="1.38101">
        <ele>1251.9</ele>
        <time>2019-02-12T04:03:51Z</time>
      </trkpt>
      <trkpt lat="42.20678" lon="1.38092">
        <ele>1245.1</ele>
        <time>2019-02-12T04:03:57Z</time>
      </trkpt>
      <trkpt lat="42.20687" lon="1.38082">
        <ele>1242.6</ele>
        <time>2019-02-12T04:04:04Z</time>
      </trkpt>
      <trkpt lat="42.20694" lon="1.38075">
        <ele>1241.6</ele>
        <time>2019-02-12T04:04:09Z</time>
      </trkpt>
      <trkpt lat="42.20703" lon="1.38061">
        <ele>1238.5</ele>
        <time>2019-02-12T04:04:16Z</time>
      </trkpt>
      <trkpt lat="42.20715" lon="1.38057">
        <ele>1237.8</ele>
        <time>2019-02-12T04:04:24Z</time>
      </trkpt>
      <trkpt lat="42.20719" lon="1.38049">
        <ele>1236.4</ele>
        <time>2019-02-12T04:04:28Z</time>
      </trkpt>
      <trkpt lat="42.20729" lon="1.3804">
        <ele>1235</ele>
        <time>2019-02-12T04:04:35Z</time>
      </trkpt>
      <trkpt lat="42.2074" lon="1.3803">
        <ele>1233.1</ele>
        <time>2019-02-12T04:04:42Z</time>
      </trkpt>
      <trkpt lat="42.20747" lon="1.38017">
        <ele>1232.1</ele>
        <time>2019-02-12T04:04:49Z</time>
      </trkpt>
      <trkpt lat="42.20752" lon="1.38002">
        <ele>1230.6</ele>
        <time>2019-02-12T04:04:56Z</time>
      </trkpt>
      <trkpt lat="42.20758" lon="1.37987">
        <ele>1228.9</ele>
        <time>2019-02-12T04:05:03Z</time>
      </trkpt>
      <trkpt lat="42.20763" lon="1.37977">
        <ele>1223.1</ele>
        <time>2019-02-12T04:05:08Z</time>
      </trkpt>
      <trkpt lat="42.20768" lon="1.37961">
        <ele>1216.6</ele>
        <time>2019-02-12T04:05:16Z</time>
      </trkpt>
      <trkpt lat="42.20777" lon="1.37949">
        <ele>1213.9</ele>
        <time>2019-02-12T04:05:23Z</time>
      </trkpt>
      <trkpt lat="42.20781" lon="1.37932">
        <ele>1210.4</ele>
        <time>2019-02-12T04:05:30Z</time>
      </trkpt>
      <trkpt lat="42.20785" lon="1.3792">
        <ele>1206.6</ele>
        <time>2019-02-12T04:05:36Z</time>
      </trkpt>
      <trkpt lat="42.20789" lon="1.37908">
        <ele>1203.8</ele>
        <time>2019-02-12T04:05:42Z</time>
      </trkpt>
      <trkpt lat="42.20794" lon="1.37899">
        <ele>1200.9</ele>
        <time>2019-02-12T04:05:46Z</time>
      </trkpt>
      <trkpt lat="42.20799" lon="1.37882">
        <ele>1196.5</ele>
        <time>2019-02-12T04:05:54Z</time>
      </trkpt>
      <trkpt lat="42.20805" lon="1.37871">
        <ele>1192.7</ele>
        <time>2019-02-12T04:06:00Z</time>
      </trkpt>
      <trkpt lat="42.20811" lon="1.3786">
        <ele>1189.8</ele>
        <time>2019-02-12T04:06:06Z</time>
      </trkpt>
      <trkpt lat="42.20817" lon="1.3785">
        <ele>1186.8</ele>
        <time>2019-02-12T04:06:11Z</time>
      </trkpt>
      <trkpt lat="42.2083" lon="1.37844">
        <ele>1184.4</ele>
        <time>2019-02-12T04:06:19Z</time>
      </trkpt>
      <trkpt lat="42.20841" lon="1.37835">
        <ele>1181.7</ele>
        <time>2019-02-12T04:06:26Z</time>
      </trkpt>
      <trkpt lat="42.20852" lon="1.37823">
        <ele>1180.6</ele>
        <time>2019-02-12T04:06:34Z</time>
      </trkpt>
      <trkpt lat="42.20855" lon="1.37805">
        <ele>1178.9</ele>
        <time>2019-02-12T04:06:42Z</time>
      </trkpt>
      <trkpt lat="42.20861" lon="1.37784">
        <ele>1176.4</ele>
        <time>2019-02-12T04:06:51Z</time>
      </trkpt>
      <trkpt lat="42.20863" lon="1.37765">
        <ele>1174</ele>
        <time>2019-02-12T04:07:00Z</time>
      </trkpt>
      <trkpt lat="42.20869" lon="1.37751">
        <ele>1171.1</ele>
        <time>2019-02-12T04:07:07Z</time>
      </trkpt>
      <trkpt lat="42.20873" lon="1.37736">
        <ele>1168.3</ele>
        <time>2019-02-12T04:07:13Z</time>
      </trkpt>
      <trkpt lat="42.20873" lon="1.37722">
        <ele>1163.9</ele>
        <time>2019-02-12T04:07:19Z</time>
      </trkpt>
      <trkpt lat="42.20872" lon="1.37707">
        <ele>1159</ele>
        <time>2019-02-12T04:07:26Z</time>
      </trkpt>
      <trkpt lat="42.20871" lon="1.37692">
        <ele>1155.3</ele>
        <time>2019-02-12T04:07:32Z</time>
      </trkpt>
      <trkpt lat="42.20871" lon="1.37676">
        <ele>1151.9</ele>
        <time>2019-02-12T04:07:39Z</time>
      </trkpt>
      <trkpt lat="42.20875" lon="1.37658">
        <ele>1149.1</ele>
        <time>2019-02-12T04:07:46Z</time>
      </trkpt>
      <trkpt lat="42.20874" lon="1.37641">
        <ele>1148</ele>
        <time>2019-02-12T04:07:54Z</time>
      </trkpt>
      <trkpt lat="42.20875" lon="1.37628">
        <ele>1145.1</ele>
        <time>2019-02-12T04:07:59Z</time>
      </trkpt>
      <trkpt lat="42.20876" lon="1.37612">
        <ele>1143.2</ele>
        <time>2019-02-12T04:08:06Z</time>
      </trkpt>
      <trkpt lat="42.2088" lon="1.37599">
        <ele>1140.8</ele>
        <time>2019-02-12T04:08:12Z</time>
      </trkpt>
      <trkpt lat="42.20885" lon="1.37587">
        <ele>1138.5</ele>
        <time>2019-02-12T04:08:18Z</time>
      </trkpt>
      <trkpt lat="42.20887" lon="1.37574">
        <ele>1136</ele>
        <time>2019-02-12T04:08:23Z</time>
      </trkpt>
      <trkpt lat="42.20889" lon="1.37562">
        <ele>1133</ele>
        <time>2019-02-12T04:08:29Z</time>
      </trkpt>
      <trkpt lat="42.20888" lon="1.3755">
        <ele>1130.6</ele>
        <time>2019-02-12T04:08:34Z</time>
      </trkpt>
      <trkpt lat="42.20893" lon="1.37537">
        <ele>1129.7</ele>
        <time>2019-02-12T04:08:40Z</time>
      </trkpt>
      <trkpt lat="42.20898" lon="1.37521">
        <ele>1128.9</ele>
        <time>2019-02-12T04:08:48Z</time>
      </trkpt>
      <trkpt lat="42.20897" lon="1.37503">
        <ele>1124.1</ele>
        <time>2019-02-12T04:08:55Z</time>
      </trkpt>
      <trkpt lat="42.20894" lon="1.37488">
        <ele>1123.4</ele>
        <time>2019-02-12T04:09:02Z</time>
      </trkpt>
      <trkpt lat="42.20887" lon="1.37481">
        <ele>1123.1</ele>
        <time>2019-02-12T04:09:07Z</time>
      </trkpt>
      <trkpt lat="42.20881" lon="1.37473">
        <ele>1123.4</ele>
        <time>2019-02-12T04:09:12Z</time>
      </trkpt>
      <trkpt lat="42.20874" lon="1.37459">
        <ele>1122.4</ele>
        <time>2019-02-12T04:09:19Z</time>
      </trkpt>
      <trkpt lat="42.20876" lon="1.37445">
        <ele>1120.1</ele>
        <time>2019-02-12T04:09:25Z</time>
      </trkpt>
      <trkpt lat="42.20879" lon="1.37434">
        <ele>1117.6</ele>
        <time>2019-02-12T04:09:30Z</time>
      </trkpt>
      <trkpt lat="42.20879" lon="1.37419">
        <ele>1116.3</ele>
        <time>2019-02-12T04:09:36Z</time>
      </trkpt>
      <trkpt lat="42.20873" lon="1.37404">
        <ele>1116.3</ele>
        <time>2019-02-12T04:09:43Z</time>
      </trkpt>
      <trkpt lat="42.20867" lon="1.37392">
        <ele>1115.3</ele>
        <time>2019-02-12T04:09:49Z</time>
      </trkpt>
      <trkpt lat="42.20859" lon="1.37382">
        <ele>1113.9</ele>
        <time>2019-02-12T04:09:55Z</time>
      </trkpt>
      <trkpt lat="42.20855" lon="1.37373">
        <ele>1111.1</ele>
        <time>2019-02-12T04:10:00Z</time>
      </trkpt>
      <trkpt lat="42.20851" lon="1.37365">
        <ele>1107.1</ele>
        <time>2019-02-12T04:10:04Z</time>
      </trkpt>
      <trkpt lat="42.20844" lon="1.37351">
        <ele>1105.3</ele>
        <time>2019-02-12T04:10:11Z</time>
      </trkpt>
      <trkpt lat="42.2084" lon="1.37342">
        <ele>1104.2</ele>
        <time>2019-02-12T04:10:16Z</time>
      </trkpt>
      <trkpt lat="42.20838" lon="1.37333">
        <ele>1101.8</ele>
        <time>2019-02-12T04:10:20Z</time>
      </trkpt>
      <trkpt lat="42.20831" lon="1.37322">
        <ele>1098.1</ele>
        <time>2019-02-12T04:10:26Z</time>
      </trkpt>
      <trkpt lat="42.20824" lon="1.37311">
        <ele>1097.1</ele>
        <time>2019-02-12T04:10:32Z</time>
      </trkpt>
      <trkpt lat="42.20818" lon="1.373">
        <ele>1098</ele>
        <time>2019-02-12T04:10:38Z</time>
      </trkpt>
      <trkpt lat="42.20815" lon="1.37288">
        <ele>1096</ele>
        <time>2019-02-12T04:10:43Z</time>
      </trkpt>
      <trkpt lat="42.20816" lon="1.37276">
        <ele>1094.2</ele>
        <time>2019-02-12T04:10:48Z</time>
      </trkpt>
      <trkpt lat="42.20818" lon="1.37264">
        <ele>1092.6</ele>
        <time>2019-02-12T04:10:54Z</time>
      </trkpt>
      <trkpt lat="42.20814" lon="1.37249">
        <ele>1091.9</ele>
        <time>2019-02-12T04:11:00Z</time>
      </trkpt>
      <trkpt lat="42.20818" lon="1.37237">
        <ele>1090.8</ele>
        <time>2019-02-12T04:11:06Z</time>
      </trkpt>
      <trkpt lat="42.20813" lon="1.37227">
        <ele>1089.4</ele>
        <time>2019-02-12T04:11:11Z</time>
      </trkpt>
      <trkpt lat="42.20813" lon="1.37214">
        <ele>1088.4</ele>
        <time>2019-02-12T04:11:16Z</time>
      </trkpt>
      <trkpt lat="42.20816" lon="1.37203">
        <ele>1084.6</ele>
        <time>2019-02-12T04:11:21Z</time>
      </trkpt>
      <trkpt lat="42.20818" lon="1.3719">
        <ele>1081.3</ele>
        <time>2019-02-12T04:11:27Z</time>
      </trkpt>
      <trkpt lat="42.20821" lon="1.3718">
        <ele>1078.3</ele>
        <time>2019-02-12T04:11:32Z</time>
      </trkpt>
      <trkpt lat="42.20826" lon="1.37168">
        <ele>1073.5</ele>
        <time>2019-02-12T04:11:37Z</time>
      </trkpt>
      <trkpt lat="42.20823" lon="1.37154">
        <ele>1071.6</ele>
        <time>2019-02-12T04:11:43Z</time>
      </trkpt>
      <trkpt lat="42.20818" lon="1.37144">
        <ele>1070</ele>
        <time>2019-02-12T04:11:48Z</time>
      </trkpt>
      <trkpt lat="42.20814" lon="1.37129">
        <ele>1068.7</ele>
        <time>2019-02-12T04:11:55Z</time>
      </trkpt>
      <trkpt lat="42.20813" lon="1.37114">
        <ele>1067.2</ele>
        <time>2019-02-12T04:12:02Z</time>
      </trkpt>
      <trkpt lat="42.20806" lon="1.37106">
        <ele>1065.3</ele>
        <time>2019-02-12T04:12:07Z</time>
      </trkpt>
      <trkpt lat="42.20803" lon="1.37094">
        <ele>1062.9</ele>
        <time>2019-02-12T04:12:12Z</time>
      </trkpt>
      <trkpt lat="42.20806" lon="1.37084">
        <ele>1061</ele>
        <time>2019-02-12T04:12:17Z</time>
      </trkpt>
      <trkpt lat="42.20807" lon="1.37071">
        <ele>1059.6</ele>
        <time>2019-02-12T04:12:22Z</time>
      </trkpt>
      <trkpt lat="42.20812" lon="1.3706">
        <ele>1058.1</ele>
        <time>2019-02-12T04:12:27Z</time>
      </trkpt>
      <trkpt lat="42.20817" lon="1.37047">
        <ele>1056.6</ele>
        <time>2019-02-12T04:12:34Z</time>
      </trkpt>
      <trkpt lat="42.20817" lon="1.37032">
        <ele>1056.3</ele>
        <time>2019-02-12T04:12:40Z</time>
      </trkpt>
      <trkpt lat="42.20816" lon="1.37022">
        <ele>1054.8</ele>
        <time>2019-02-12T04:12:45Z</time>
      </trkpt>
      <trkpt lat="42.20823" lon="1.37011">
        <ele>1053.3</ele>
        <time>2019-02-12T04:12:51Z</time>
      </trkpt>
      <trkpt lat="42.2083" lon="1.36997">
        <ele>1050.8</ele>
        <time>2019-02-12T04:12:58Z</time>
      </trkpt>
      <trkpt lat="42.20831" lon="1.36985">
        <ele>1050.5</ele>
        <time>2019-02-12T04:13:03Z</time>
      </trkpt>
      <trkpt lat="42.20831" lon="1.36971">
        <ele>1047</ele>
        <time>2019-02-12T04:13:09Z</time>
      </trkpt>
      <trkpt lat="42.20834" lon="1.36958">
        <ele>1045</ele>
        <time>2019-02-12T04:13:15Z</time>
      </trkpt>
      <trkpt lat="42.20833" lon="1.36945">
        <ele>1042.6</ele>
        <time>2019-02-12T04:13:20Z</time>
      </trkpt>
      <trkpt lat="42.20831" lon="1.36932">
        <ele>1038.8</ele>
        <time>2019-02-12T04:13:26Z</time>
      </trkpt>
      <trkpt lat="42.20826" lon="1.36922">
        <ele>1035.1</ele>
        <time>2019-02-12T04:13:31Z</time>
      </trkpt>
      <trkpt lat="42.2082" lon="1.36911">
        <ele>1033.1</ele>
        <time>2019-02-12T04:13:37Z</time>
      </trkpt>
      <trkpt lat="42.20818" lon="1.36896">
        <ele>1030.7</ele>
        <time>2019-02-12T04:13:43Z</time>
      </trkpt>
      <trkpt lat="42.20819" lon="1.3688">
        <ele>1026.9</ele>
        <time>2019-02-12T04:13:50Z</time>
      </trkpt>
      <trkpt lat="42.20819" lon="1.36868">
        <ele>1024.5</ele>
        <time>2019-02-12T04:13:55Z</time>
      </trkpt>
      <trkpt lat="42.20818" lon="1.36856">
        <ele>1023</ele>
        <time>2019-02-12T04:14:00Z</time>
      </trkpt>
      <trkpt lat="42.20812" lon="1.36844">
        <ele>1021.6</ele>
        <time>2019-02-12T04:14:07Z</time>
      </trkpt>
      <trkpt lat="42.20807" lon="1.36832">
        <ele>1019.3</ele>
        <time>2019-02-12T04:14:12Z</time>
      </trkpt>
      <trkpt lat="42.20805" lon="1.36819">
        <ele>1017.6</ele>
        <time>2019-02-12T04:14:18Z</time>
      </trkpt>
      <trkpt lat="42.20805" lon="1.36807">
        <ele>1017.2</ele>
        <time>2019-02-12T04:14:23Z</time>
      </trkpt>
      <trkpt lat="42.20809" lon="1.36793">
        <ele>1015.8</ele>
        <time>2019-02-12T04:14:29Z</time>
      </trkpt>
      <trkpt lat="42.20807" lon="1.36779">
        <ele>1015.8</ele>
        <time>2019-02-12T04:14:36Z</time>
      </trkpt>
      <trkpt lat="42.20809" lon="1.36767">
        <ele>1015.3</ele>
        <time>2019-02-12T04:14:41Z</time>
      </trkpt>
      <trkpt lat="42.20809" lon="1.36753">
        <ele>1013.5</ele>
        <time>2019-02-12T04:14:47Z</time>
      </trkpt>
      <trkpt lat="42.2081" lon="1.36739">
        <ele>1012.9</ele>
        <time>2019-02-12T04:14:53Z</time>
      </trkpt>
      <trkpt lat="42.2081" lon="1.36724">
        <ele>1012.1</ele>
        <time>2019-02-12T04:14:59Z</time>
      </trkpt>
      <trkpt lat="42.20814" lon="1.36711">
        <ele>1011.4</ele>
        <time>2019-02-12T04:15:05Z</time>
      </trkpt>
      <trkpt lat="42.20819" lon="1.36697">
        <ele>1011</ele>
        <time>2019-02-12T04:15:12Z</time>
      </trkpt>
      <trkpt lat="42.20819" lon="1.36681">
        <ele>1011.4</ele>
        <time>2019-02-12T04:15:18Z</time>
      </trkpt>
      <trkpt lat="42.20821" lon="1.36666">
        <ele>1010.5</ele>
        <time>2019-02-12T04:15:25Z</time>
      </trkpt>
      <trkpt lat="42.20817" lon="1.36648">
        <ele>1010</ele>
        <time>2019-02-12T04:15:33Z</time>
      </trkpt>
      <trkpt lat="42.20817" lon="1.36632">
        <ele>1011</ele>
        <time>2019-02-12T04:15:39Z</time>
      </trkpt>
      <trkpt lat="42.20812" lon="1.36621">
        <ele>1012.5</ele>
        <time>2019-02-12T04:15:45Z</time>
      </trkpt>
      <trkpt lat="42.20811" lon="1.36608">
        <ele>1013.4</ele>
        <time>2019-02-12T04:15:50Z</time>
      </trkpt>
      <trkpt lat="42.20809" lon="1.36598">
        <ele>1013.5</ele>
        <time>2019-02-12T04:15:55Z</time>
      </trkpt>
      <trkpt lat="42.20801" lon="1.36589">
        <ele>1014.8</ele>
        <time>2019-02-12T04:16:01Z</time>
      </trkpt>
      <trkpt lat="42.20796" lon="1.36582">
        <ele>1016.3</ele>
        <time>2019-02-12T04:16:05Z</time>
      </trkpt>
      <trkpt lat="42.20788" lon="1.36578">
        <ele>1015.8</ele>
        <time>2019-02-12T04:16:09Z</time>
      </trkpt>
      <trkpt lat="42.20782" lon="1.3657">
        <ele>1012.5</ele>
        <time>2019-02-12T04:16:14Z</time>
      </trkpt>
      <trkpt lat="42.20785" lon="1.36558">
        <ele>1010</ele>
        <time>2019-02-12T04:16:20Z</time>
      </trkpt>
      <trkpt lat="42.20787" lon="1.36544">
        <ele>1007.7</ele>
        <time>2019-02-12T04:16:26Z</time>
      </trkpt>
      <trkpt lat="42.20787" lon="1.36528">
        <ele>1003.8</ele>
        <time>2019-02-12T04:16:33Z</time>
      </trkpt>
      <trkpt lat="42.20791" lon="1.36517">
        <ele>1001.8</ele>
        <time>2019-02-12T04:16:38Z</time>
      </trkpt>
      <trkpt lat="42.208" lon="1.36507">
        <ele>1001.4</ele>
        <time>2019-02-12T04:16:44Z</time>
      </trkpt>
      <trkpt lat="42.20807" lon="1.36494">
        <ele>1000.9</ele>
        <time>2019-02-12T04:16:51Z</time>
      </trkpt>
      <trkpt lat="42.20817" lon="1.36487">
        <ele>1000.4</ele>
        <time>2019-02-12T04:16:58Z</time>
      </trkpt>
      <trkpt lat="42.20826" lon="1.36474">
        <ele>1000.1</ele>
        <time>2019-02-12T04:17:05Z</time>
      </trkpt>
      <trkpt lat="42.2083" lon="1.3646">
        <ele>1000</ele>
        <time>2019-02-12T04:17:12Z</time>
      </trkpt>
      <trkpt lat="42.20827" lon="1.36445">
        <ele>1001.5</ele>
        <time>2019-02-12T04:17:18Z</time>
      </trkpt>
      <trkpt lat="42.20825" lon="1.36434">
        <ele>999.1</ele>
        <time>2019-02-12T04:17:23Z</time>
      </trkpt>
      <trkpt lat="42.20823" lon="1.36422">
        <ele>995.6</ele>
        <time>2019-02-12T04:17:28Z</time>
      </trkpt>
      <trkpt lat="42.20815" lon="1.36411">
        <ele>995.6</ele>
        <time>2019-02-12T04:17:35Z</time>
      </trkpt>
      <trkpt lat="42.2081" lon="1.36401">
        <ele>994.6</ele>
        <time>2019-02-12T04:17:40Z</time>
      </trkpt>
      <trkpt lat="42.20807" lon="1.36388">
        <ele>992.2</ele>
        <time>2019-02-12T04:17:46Z</time>
      </trkpt>
      <trkpt lat="42.20806" lon="1.36375">
        <ele>990.3</ele>
        <time>2019-02-12T04:17:51Z</time>
      </trkpt>
      <trkpt lat="42.2081" lon="1.36366">
        <ele>984.6</ele>
        <time>2019-02-12T04:17:55Z</time>
      </trkpt>
      <trkpt lat="42.20814" lon="1.36353">
        <ele>979.2</ele>
        <time>2019-02-12T04:18:02Z</time>
      </trkpt>
      <trkpt lat="42.20819" lon="1.36338">
        <ele>975.5</ele>
        <time>2019-02-12T04:18:08Z</time>
      </trkpt>
      <trkpt lat="42.20819" lon="1.36324">
        <ele>972.6</ele>
        <time>2019-02-12T04:18:15Z</time>
      </trkpt>
      <trkpt lat="42.20814" lon="1.36309">
        <ele>969.7</ele>
        <time>2019-02-12T04:18:21Z</time>
      </trkpt>
      <trkpt lat="42.20804" lon="1.363">
        <ele>967.3</ele>
        <time>2019-02-12T04:18:28Z</time>
      </trkpt>
      <trkpt lat="42.208" lon="1.363">
        <ele>962.4</ele>
        <time>2019-02-12T04:18:31Z</time>
      </trkpt>
      <trkpt lat="42.20794" lon="1.36305">
        <ele>961.1</ele>
        <time>2019-02-12T04:18:35Z</time>
      </trkpt>
      <trkpt lat="42.20782" lon="1.36303">
        <ele>960</ele>
        <time>2019-02-12T04:18:41Z</time>
      </trkpt>
      <trkpt lat="42.20775" lon="1.36295">
        <ele>958.6</ele>
        <time>2019-02-12T04:18:47Z</time>
      </trkpt>
      <trkpt lat="42.20766" lon="1.36289">
        <ele>957.2</ele>
        <time>2019-02-12T04:18:52Z</time>
      </trkpt>
      <trkpt lat="42.20759" lon="1.3628">
        <ele>956.6</ele>
        <time>2019-02-12T04:18:58Z</time>
      </trkpt>
      <trkpt lat="42.20752" lon="1.36268">
        <ele>956.2</ele>
        <time>2019-02-12T04:19:04Z</time>
      </trkpt>
      <trkpt lat="42.20747" lon="1.36257">
        <ele>953.8</ele>
        <time>2019-02-12T04:19:10Z</time>
      </trkpt>
      <trkpt lat="42.20739" lon="1.36248">
        <ele>951.5</ele>
        <time>2019-02-12T04:19:16Z</time>
      </trkpt>
      <trkpt lat="42.20736" lon="1.36235">
        <ele>947.1</ele>
        <time>2019-02-12T04:19:22Z</time>
      </trkpt>
      <trkpt lat="42.2073" lon="1.36224">
        <ele>944.6</ele>
        <time>2019-02-12T04:19:28Z</time>
      </trkpt>
      <trkpt lat="42.20723" lon="1.36216">
        <ele>942.2</ele>
        <time>2019-02-12T04:19:33Z</time>
      </trkpt>
      <trkpt lat="42.20713" lon="1.36209">
        <ele>940.9</ele>
        <time>2019-02-12T04:19:39Z</time>
      </trkpt>
      <trkpt lat="42.20709" lon="1.36196">
        <ele>938.8</ele>
        <time>2019-02-12T04:19:45Z</time>
      </trkpt>
      <trkpt lat="42.20703" lon="1.36185">
        <ele>938.8</ele>
        <time>2019-02-12T04:19:51Z</time>
      </trkpt>
      <trkpt lat="42.20697" lon="1.36176">
        <ele>938.1</ele>
        <time>2019-02-12T04:19:56Z</time>
      </trkpt>
      <trkpt lat="42.2069" lon="1.36168">
        <ele>937.4</ele>
        <time>2019-02-12T04:20:01Z</time>
      </trkpt>
      <trkpt lat="42.20686" lon="1.36155">
        <ele>935</ele>
        <time>2019-02-12T04:20:07Z</time>
      </trkpt>
      <trkpt lat="42.20686" lon="1.36142">
        <ele>932.7</ele>
        <time>2019-02-12T04:20:13Z</time>
      </trkpt>
      <trkpt lat="42.20682" lon="1.36129">
        <ele>929.3</ele>
        <time>2019-02-12T04:20:18Z</time>
      </trkpt>
      <trkpt lat="42.20679" lon="1.36113">
        <ele>927.9</ele>
        <time>2019-02-12T04:20:25Z</time>
      </trkpt>
      <trkpt lat="42.2068" lon="1.36097">
        <ele>926.9</ele>
        <time>2019-02-12T04:20:32Z</time>
      </trkpt>
      <trkpt lat="42.20681" lon="1.3608">
        <ele>928.8</ele>
        <time>2019-02-12T04:20:39Z</time>
      </trkpt>
      <trkpt lat="42.20681" lon="1.36067">
        <ele>930.3</ele>
        <time>2019-02-12T04:20:45Z</time>
      </trkpt>
      <trkpt lat="42.20685" lon="1.36053">
        <ele>930.2</ele>
        <time>2019-02-12T04:20:51Z</time>
      </trkpt>
      <trkpt lat="42.20689" lon="1.3604">
        <ele>927.8</ele>
        <time>2019-02-12T04:20:57Z</time>
      </trkpt>
      <trkpt lat="42.20689" lon="1.36026">
        <ele>928.3</ele>
        <time>2019-02-12T04:21:03Z</time>
      </trkpt>
      <trkpt lat="42.20695" lon="1.36013">
        <ele>929.3</ele>
        <time>2019-02-12T04:21:10Z</time>
      </trkpt>
      <trkpt lat="42.20703" lon="1.36005">
        <ele>929.9</ele>
        <time>2019-02-12T04:21:15Z</time>
      </trkpt>
      <trkpt lat="42.20712" lon="1.35997">
        <ele>929.9</ele>
        <time>2019-02-12T04:21:22Z</time>
      </trkpt>
      <trkpt lat="42.2072" lon="1.35987">
        <ele>928.3</ele>
        <time>2019-02-12T04:21:28Z</time>
      </trkpt>
      <trkpt lat="42.20726" lon="1.35975">
        <ele>925.8</ele>
        <time>2019-02-12T04:21:34Z</time>
      </trkpt>
      <trkpt lat="42.20731" lon="1.35966">
        <ele>923.4</ele>
        <time>2019-02-12T04:21:39Z</time>
      </trkpt>
      <trkpt lat="42.20736" lon="1.35954">
        <ele>924.1</ele>
        <time>2019-02-12T04:21:45Z</time>
      </trkpt>
      <trkpt lat="42.2074" lon="1.3594">
        <ele>922.6</ele>
        <time>2019-02-12T04:21:51Z</time>
      </trkpt>
      <trkpt lat="42.20742" lon="1.35926">
        <ele>923.4</ele>
        <time>2019-02-12T04:21:57Z</time>
      </trkpt>
      <trkpt lat="42.20748" lon="1.35917">
        <ele>923</ele>
        <time>2019-02-12T04:22:02Z</time>
      </trkpt>
      <trkpt lat="42.20748" lon="1.35906">
        <ele>924.5</ele>
        <time>2019-02-12T04:22:07Z</time>
      </trkpt>
      <trkpt lat="42.20747" lon="1.35892">
        <ele>925.1</ele>
        <time>2019-02-12T04:22:13Z</time>
      </trkpt>
      <trkpt lat="42.20744" lon="1.35877">
        <ele>924.1</ele>
        <time>2019-02-12T04:22:19Z</time>
      </trkpt>
      <trkpt lat="42.20745" lon="1.35864">
        <ele>926.5</ele>
        <time>2019-02-12T04:22:25Z</time>
      </trkpt>
      <trkpt lat="42.20743" lon="1.35849">
        <ele>926.5</ele>
        <time>2019-02-12T04:22:31Z</time>
      </trkpt>
      <trkpt lat="42.20742" lon="1.35834">
        <ele>926.5</ele>
        <time>2019-02-12T04:22:37Z</time>
      </trkpt>
      <trkpt lat="42.20743" lon="1.35822">
        <ele>924.5</ele>
        <time>2019-02-12T04:22:43Z</time>
      </trkpt>
      <trkpt lat="42.20745" lon="1.35808">
        <ele>921.7</ele>
        <time>2019-02-12T04:22:49Z</time>
      </trkpt>
      <trkpt lat="42.20745" lon="1.35794">
        <ele>919.3</ele>
        <time>2019-02-12T04:22:54Z</time>
      </trkpt>
      <trkpt lat="42.20748" lon="1.35785">
        <ele>917.8</ele>
        <time>2019-02-12T04:22:59Z</time>
      </trkpt>
      <trkpt lat="42.20752" lon="1.35775">
        <ele>915.4</ele>
        <time>2019-02-12T04:23:04Z</time>
      </trkpt>
      <trkpt lat="42.20757" lon="1.35766">
        <ele>913.4</ele>
        <time>2019-02-12T04:23:08Z</time>
      </trkpt>
      <trkpt lat="42.20757" lon="1.35753">
        <ele>912.5</ele>
        <time>2019-02-12T04:23:14Z</time>
      </trkpt>
      <trkpt lat="42.20748" lon="1.35747">
        <ele>911</ele>
        <time>2019-02-12T04:23:19Z</time>
      </trkpt>
      <trkpt lat="42.20741" lon="1.35755">
        <ele>908.7</ele>
        <time>2019-02-12T04:23:24Z</time>
      </trkpt>
      <trkpt lat="42.20736" lon="1.35769">
        <ele>908.3</ele>
        <time>2019-02-12T04:23:31Z</time>
      </trkpt>
      <trkpt lat="42.20733" lon="1.35781">
        <ele>905.2</ele>
        <time>2019-02-12T04:23:36Z</time>
      </trkpt>
      <trkpt lat="42.20725" lon="1.3579">
        <ele>903.8</ele>
        <time>2019-02-12T04:23:42Z</time>
      </trkpt>
      <trkpt lat="42.20718" lon="1.35801">
        <ele>902.8</ele>
        <time>2019-02-12T04:23:49Z</time>
      </trkpt>
      <trkpt lat="42.20711" lon="1.35811">
        <ele>901.9</ele>
        <time>2019-02-12T04:23:54Z</time>
      </trkpt>
      <trkpt lat="42.20705" lon="1.35824">
        <ele>901.4</ele>
        <time>2019-02-12T04:24:01Z</time>
      </trkpt>
      <trkpt lat="42.20697" lon="1.35832">
        <ele>900.8</ele>
        <time>2019-02-12T04:24:06Z</time>
      </trkpt>
      <trkpt lat="42.2069" lon="1.35843">
        <ele>900.9</ele>
        <time>2019-02-12T04:24:13Z</time>
      </trkpt>
      <trkpt lat="42.2068" lon="1.35853">
        <ele>901.5</ele>
        <time>2019-02-12T04:24:20Z</time>
      </trkpt>
      <trkpt lat="42.20672" lon="1.3586">
        <ele>900.9</ele>
        <time>2019-02-12T04:24:25Z</time>
      </trkpt>
      <trkpt lat="42.20665" lon="1.3587">
        <ele>900.5</ele>
        <time>2019-02-12T04:24:31Z</time>
      </trkpt>
      <trkpt lat="42.20656" lon="1.35877">
        <ele>900.1</ele>
        <time>2019-02-12T04:24:37Z</time>
      </trkpt>
      <trkpt lat="42.20648" lon="1.35885">
        <ele>900.1</ele>
        <time>2019-02-12T04:24:42Z</time>
      </trkpt>
      <trkpt lat="42.20639" lon="1.35892">
        <ele>899.4</ele>
        <time>2019-02-12T04:24:48Z</time>
      </trkpt>
      <trkpt lat="42.20633" lon="1.35897">
        <ele>898.4</ele>
        <time>2019-02-12T04:24:53Z</time>
      </trkpt>
      <trkpt lat="42.20622" lon="1.35901">
        <ele>897</ele>
        <time>2019-02-12T04:24:59Z</time>
      </trkpt>
      <trkpt lat="42.20613" lon="1.35902">
        <ele>895.2</ele>
        <time>2019-02-12T04:25:04Z</time>
      </trkpt>
      <trkpt lat="42.20605" lon="1.35904">
        <ele>893.6</ele>
        <time>2019-02-12T04:25:09Z</time>
      </trkpt>
      <trkpt lat="42.20598" lon="1.35917">
        <ele>885.1</ele>
        <time>2019-02-12T04:25:16Z</time>
      </trkpt>
      <trkpt lat="42.20594" lon="1.3593">
        <ele>879.3</ele>
        <time>2019-02-12T04:25:22Z</time>
      </trkpt>
      <trkpt lat="42.2059" lon="1.35942">
        <ele>878.4</ele>
        <time>2019-02-12T04:25:27Z</time>
      </trkpt>
      <trkpt lat="42.20585" lon="1.35953">
        <ele>877.4</ele>
        <time>2019-02-12T04:25:33Z</time>
      </trkpt>
      <trkpt lat="42.20577" lon="1.35962">
        <ele>877.4</ele>
        <time>2019-02-12T04:25:39Z</time>
      </trkpt>
      <trkpt lat="42.20572" lon="1.35975">
        <ele>876.9</ele>
        <time>2019-02-12T04:25:45Z</time>
      </trkpt>
      <trkpt lat="42.20567" lon="1.35985">
        <ele>876.4</ele>
        <time>2019-02-12T04:25:50Z</time>
      </trkpt>
      <trkpt lat="42.20563" lon="1.35995">
        <ele>875.8</ele>
        <time>2019-02-12T04:25:55Z</time>
      </trkpt>
      <trkpt lat="42.20557" lon="1.36009">
        <ele>875.4</ele>
        <time>2019-02-12T04:26:02Z</time>
      </trkpt>
      <trkpt lat="42.2055" lon="1.36022">
        <ele>875.8</ele>
        <time>2019-02-12T04:26:08Z</time>
      </trkpt>
      <trkpt lat="42.20546" lon="1.36035">
        <ele>876.4</ele>
        <time>2019-02-12T04:26:14Z</time>
      </trkpt>
      <trkpt lat="42.20541" lon="1.36046">
        <ele>876.8</ele>
        <time>2019-02-12T04:26:20Z</time>
      </trkpt>
      <trkpt lat="42.20535" lon="1.36056">
        <ele>877.5</ele>
        <time>2019-02-12T04:26:25Z</time>
      </trkpt>
      <trkpt lat="42.20532" lon="1.3607">
        <ele>877.9</ele>
        <time>2019-02-12T04:26:32Z</time>
      </trkpt>
      <trkpt lat="42.20527" lon="1.36083">
        <ele>877.5</ele>
        <time>2019-02-12T04:26:38Z</time>
      </trkpt>
      <trkpt lat="42.20527" lon="1.36096">
        <ele>877.5</ele>
        <time>2019-02-12T04:26:43Z</time>
      </trkpt>
      <trkpt lat="42.20525" lon="1.36106">
        <ele>877.4</ele>
        <time>2019-02-12T04:26:48Z</time>
      </trkpt>
      <trkpt lat="42.20527" lon="1.3612">
        <ele>877.5</ele>
        <time>2019-02-12T04:26:54Z</time>
      </trkpt>
      <trkpt lat="42.20527" lon="1.36135">
        <ele>877.9</ele>
        <time>2019-02-12T04:27:00Z</time>
      </trkpt>
      <trkpt lat="42.20528" lon="1.36148">
        <ele>877.9</ele>
        <time>2019-02-12T04:27:06Z</time>
      </trkpt>
      <trkpt lat="42.20526" lon="1.36159">
        <ele>878.4</ele>
        <time>2019-02-12T04:27:10Z</time>
      </trkpt>
      <trkpt lat="42.20525" lon="1.36176">
        <ele>878.8</ele>
        <time>2019-02-12T04:27:17Z</time>
      </trkpt>
      <trkpt lat="42.20522" lon="1.36188">
        <ele>878.4</ele>
        <time>2019-02-12T04:27:23Z</time>
      </trkpt>
      <trkpt lat="42.2052" lon="1.36202">
        <ele>878.5</ele>
        <time>2019-02-12T04:27:29Z</time>
      </trkpt>
      <trkpt lat="42.2052" lon="1.36213">
        <ele>877.9</ele>
        <time>2019-02-12T04:27:34Z</time>
      </trkpt>
      <trkpt lat="42.20523" lon="1.36222">
        <ele>877.9</ele>
        <time>2019-02-12T04:27:38Z</time>
      </trkpt>
      <trkpt lat="42.20527" lon="1.36236">
        <ele>877.9</ele>
        <time>2019-02-12T04:27:44Z</time>
      </trkpt>
      <trkpt lat="42.20527" lon="1.36249">
        <ele>877.8</ele>
        <time>2019-02-12T04:27:50Z</time>
      </trkpt>
      <trkpt lat="42.20523" lon="1.36261">
        <ele>877.4</ele>
        <time>2019-02-12T04:27:55Z</time>
      </trkpt>
      <trkpt lat="42.20521" lon="1.36277">
        <ele>876.9</ele>
        <time>2019-02-12T04:28:02Z</time>
      </trkpt>
      <trkpt lat="42.20521" lon="1.36287">
        <ele>876.4</ele>
        <time>2019-02-12T04:28:06Z</time>
      </trkpt>
      <trkpt lat="42.2052" lon="1.363">
        <ele>876.4</ele>
        <time>2019-02-12T04:28:12Z</time>
      </trkpt>
      <trkpt lat="42.20518" lon="1.36303">
        <ele>870.2</ele>
        <time>2019-02-12T04:28:14Z</time>
      </trkpt>
      <trkpt lat="42.20514" lon="1.36292">
        <ele>866.2</ele>
        <time>2019-02-12T04:28:19Z</time>
      </trkpt>
      <trkpt lat="42.20514" lon="1.36277">
        <ele>863.4</ele>
        <time>2019-02-12T04:28:25Z</time>
      </trkpt>
      <trkpt lat="42.20513" lon="1.36265">
        <ele>858.7</ele>
        <time>2019-02-12T04:28:31Z</time>
      </trkpt>
      <trkpt lat="42.20513" lon="1.36253">
        <ele>853.9</ele>
        <time>2019-02-12T04:28:36Z</time>
      </trkpt>
      <trkpt lat="42.20508" lon="1.3624">
        <ele>853.5</ele>
        <time>2019-02-12T04:28:42Z</time>
      </trkpt>
      <trkpt lat="42.20502" lon="1.36229">
        <ele>851.4</ele>
        <time>2019-02-12T04:28:47Z</time>
      </trkpt>
      <trkpt lat="42.20496" lon="1.36215">
        <ele>851.5</ele>
        <time>2019-02-12T04:28:54Z</time>
      </trkpt>
      <trkpt lat="42.20494" lon="1.36202">
        <ele>850.5</ele>
        <time>2019-02-12T04:29:00Z</time>
      </trkpt>
      <trkpt lat="42.2049" lon="1.36188">
        <ele>846.6</ele>
        <time>2019-02-12T04:29:06Z</time>
      </trkpt>
      <trkpt lat="42.20486" lon="1.36176">
        <ele>844.6</ele>
        <time>2019-02-12T04:29:12Z</time>
      </trkpt>
      <trkpt lat="42.2048" lon="1.36161">
        <ele>841.2</ele>
        <time>2019-02-12T04:29:19Z</time>
      </trkpt>
      <trkpt lat="42.20471" lon="1.36152">
        <ele>839.9</ele>
        <time>2019-02-12T04:29:25Z</time>
      </trkpt>
      <trkpt lat="42.20466" lon="1.36142">
        <ele>839.4</ele>
        <time>2019-02-12T04:29:30Z</time>
      </trkpt>
      <trkpt lat="42.20459" lon="1.36132">
        <ele>838.5</ele>
        <time>2019-02-12T04:29:36Z</time>
      </trkpt>
      <trkpt lat="42.20453" lon="1.3612">
        <ele>838.5</ele>
        <time>2019-02-12T04:29:42Z</time>
      </trkpt>
      <trkpt lat="42.20447" lon="1.3611">
        <ele>837</ele>
        <time>2019-02-12T04:29:48Z</time>
      </trkpt>
      <trkpt lat="42.2044" lon="1.36101">
        <ele>836</ele>
        <time>2019-02-12T04:29:53Z</time>
      </trkpt>
      <trkpt lat="42.20433" lon="1.36094">
        <ele>833.7</ele>
        <time>2019-02-12T04:29:59Z</time>
      </trkpt>
      <trkpt lat="42.20428" lon="1.36082">
        <ele>831.6</ele>
        <time>2019-02-12T04:30:04Z</time>
      </trkpt>
      <trkpt lat="42.20422" lon="1.36072">
        <ele>828.4</ele>
        <time>2019-02-12T04:30:10Z</time>
      </trkpt>
      <trkpt lat="42.20419" lon="1.36059">
        <ele>824</ele>
        <time>2019-02-12T04:30:15Z</time>
      </trkpt>
      <trkpt lat="42.20414" lon="1.36047">
        <ele>821.6</ele>
        <time>2019-02-12T04:30:21Z</time>
      </trkpt>
      <trkpt lat="42.20409" lon="1.36034">
        <ele>822</ele>
        <time>2019-02-12T04:30:27Z</time>
      </trkpt>
      <trkpt lat="42.20402" lon="1.36025">
        <ele>820.2</ele>
        <time>2019-02-12T04:30:33Z</time>
      </trkpt>
      <trkpt lat="42.20396" lon="1.36015">
        <ele>819.6</ele>
        <time>2019-02-12T04:30:38Z</time>
      </trkpt>
      <trkpt lat="42.2039" lon="1.36">
        <ele>820.3</ele>
        <time>2019-02-12T04:30:46Z</time>
      </trkpt>
      <trkpt lat="42.20382" lon="1.35987">
        <ele>820.3</ele>
        <time>2019-02-12T04:30:53Z</time>
      </trkpt>
      <trkpt lat="42.20374" lon="1.35977">
        <ele>819.2</ele>
        <time>2019-02-12T04:30:59Z</time>
      </trkpt>
      <trkpt lat="42.20372" lon="1.35967">
        <ele>816.3</ele>
        <time>2019-02-12T04:31:03Z</time>
      </trkpt>
      <trkpt lat="42.20367" lon="1.35956">
        <ele>814.4</ele>
        <time>2019-02-12T04:31:09Z</time>
      </trkpt>
      <trkpt lat="42.20362" lon="1.35947">
        <ele>812.4</ele>
        <time>2019-02-12T04:31:14Z</time>
      </trkpt>
      <trkpt lat="42.20356" lon="1.35935">
        <ele>812.4</ele>
        <time>2019-02-12T04:31:20Z</time>
      </trkpt>
      <trkpt lat="42.20352" lon="1.35923">
        <ele>812</ele>
        <time>2019-02-12T04:31:25Z</time>
      </trkpt>
      <trkpt lat="42.20349" lon="1.3591">
        <ele>812.5</ele>
        <time>2019-02-12T04:31:31Z</time>
      </trkpt>
      <trkpt lat="42.20347" lon="1.35894">
        <ele>812.1</ele>
        <time>2019-02-12T04:31:38Z</time>
      </trkpt>
      <trkpt lat="42.20343" lon="1.35885">
        <ele>811.4</ele>
        <time>2019-02-12T04:31:42Z</time>
      </trkpt>
      <trkpt lat="42.20339" lon="1.35873">
        <ele>808.7</ele>
        <time>2019-02-12T04:31:48Z</time>
      </trkpt>
      <trkpt lat="42.2034" lon="1.3586">
        <ele>805.8</ele>
        <time>2019-02-12T04:31:54Z</time>
      </trkpt>
      <trkpt lat="42.20338" lon="1.35846">
        <ele>803.9</ele>
        <time>2019-02-12T04:32:00Z</time>
      </trkpt>
      <trkpt lat="42.20335" lon="1.35834">
        <ele>800.5</ele>
        <time>2019-02-12T04:32:05Z</time>
      </trkpt>
      <trkpt lat="42.20332" lon="1.35824">
        <ele>799.5</ele>
        <time>2019-02-12T04:32:10Z</time>
      </trkpt>
      <trkpt lat="42.2033" lon="1.35809">
        <ele>797.7</ele>
        <time>2019-02-12T04:32:16Z</time>
      </trkpt>
      <trkpt lat="42.20328" lon="1.35797">
        <ele>795.6</ele>
        <time>2019-02-12T04:32:21Z</time>
      </trkpt>
      <trkpt lat="42.20325" lon="1.35782">
        <ele>794.2</ele>
        <time>2019-02-12T04:32:28Z</time>
      </trkpt>
      <trkpt lat="42.20319" lon="1.35769">
        <ele>793.3</ele>
        <time>2019-02-12T04:32:34Z</time>
      </trkpt>
      <trkpt lat="42.20315" lon="1.35757">
        <ele>790.8</ele>
        <time>2019-02-12T04:32:40Z</time>
      </trkpt>
      <trkpt lat="42.20311" lon="1.35746">
        <ele>789.8</ele>
        <time>2019-02-12T04:32:45Z</time>
      </trkpt>
      <trkpt lat="42.20311" lon="1.35732">
        <ele>788.9</ele>
        <time>2019-02-12T04:32:51Z</time>
      </trkpt>
      <trkpt lat="42.20313" lon="1.35721">
        <ele>787.5</ele>
        <time>2019-02-12T04:32:56Z</time>
      </trkpt>
      <trkpt lat="42.20319" lon="1.35712">
        <ele>786</ele>
        <time>2019-02-12T04:33:01Z</time>
      </trkpt>
      <trkpt lat="42.20326" lon="1.35701">
        <ele>786.5</ele>
        <time>2019-02-12T04:33:07Z</time>
      </trkpt>
      <trkpt lat="42.2032" lon="1.35689">
        <ele>781.6</ele>
        <time>2019-02-12T04:33:13Z</time>
      </trkpt>
      <trkpt lat="42.20309" lon="1.35689">
        <ele>779.9</ele>
        <time>2019-02-12T04:33:19Z</time>
      </trkpt>
      <trkpt lat="42.203" lon="1.35695">
        <ele>778.4</ele>
        <time>2019-02-12T04:33:25Z</time>
      </trkpt>
      <trkpt lat="42.20291" lon="1.35697">
        <ele>778.4</ele>
        <time>2019-02-12T04:33:30Z</time>
      </trkpt>
      <trkpt lat="42.20287" lon="1.35686">
        <ele>778.5</ele>
        <time>2019-02-12T04:33:36Z</time>
      </trkpt>
      <trkpt lat="42.2029" lon="1.35674">
        <ele>777.4</ele>
        <time>2019-02-12T04:33:41Z</time>
      </trkpt>
      <trkpt lat="42.20297" lon="1.35663">
        <ele>774.4</ele>
        <time>2019-02-12T04:33:47Z</time>
      </trkpt>
      <trkpt lat="42.203" lon="1.35653">
        <ele>772.6</ele>
        <time>2019-02-12T04:33:51Z</time>
      </trkpt>
      <trkpt lat="42.20302" lon="1.35641">
        <ele>771.3</ele>
        <time>2019-02-12T04:33:56Z</time>
      </trkpt>
      <trkpt lat="42.20304" lon="1.35628">
        <ele>769.3</ele>
        <time>2019-02-12T04:34:02Z</time>
      </trkpt>
      <trkpt lat="42.20306" lon="1.35614">
        <ele>770.3</ele>
        <time>2019-02-12T04:34:08Z</time>
      </trkpt>
      <trkpt lat="42.20309" lon="1.35602">
        <ele>770.7</ele>
        <time>2019-02-12T04:34:14Z</time>
      </trkpt>
      <trkpt lat="42.20311" lon="1.35587">
        <ele>769.6</ele>
        <time>2019-02-12T04:34:20Z</time>
      </trkpt>
      <trkpt lat="42.20314" lon="1.35573">
        <ele>767.8</ele>
        <time>2019-02-12T04:34:26Z</time>
      </trkpt>
      <trkpt lat="42.20317" lon="1.35558">
        <ele>766.8</ele>
        <time>2019-02-12T04:34:33Z</time>
      </trkpt>
      <trkpt lat="42.20323" lon="1.35547">
        <ele>767.3</ele>
        <time>2019-02-12T04:34:38Z</time>
      </trkpt>
      <trkpt lat="42.2033" lon="1.35537">
        <ele>767.3</ele>
        <time>2019-02-12T04:34:44Z</time>
      </trkpt>
      <trkpt lat="42.20336" lon="1.35524">
        <ele>766.4</ele>
        <time>2019-02-12T04:34:51Z</time>
      </trkpt>
      <trkpt lat="42.2034" lon="1.35508">
        <ele>766.4</ele>
        <time>2019-02-12T04:34:58Z</time>
      </trkpt>
      <trkpt lat="42.20336" lon="1.35495">
        <ele>764.1</ele>
        <time>2019-02-12T04:35:04Z</time>
      </trkpt>
      <trkpt lat="42.20334" lon="1.35481">
        <ele>762</ele>
        <time>2019-02-12T04:35:10Z</time>
      </trkpt>
      <trkpt lat="42.2033" lon="1.35465">
        <ele>760.6</ele>
        <time>2019-02-12T04:35:17Z</time>
      </trkpt>
      <trkpt lat="42.20329" lon="1.35452">
        <ele>758.7</ele>
        <time>2019-02-12T04:35:22Z</time>
      </trkpt>
      <trkpt lat="42.2033" lon="1.3544">
        <ele>756.2</ele>
        <time>2019-02-12T04:35:28Z</time>
      </trkpt>
      <trkpt lat="42.20334" lon="1.35428">
        <ele>754.2</ele>
        <time>2019-02-12T04:35:33Z</time>
      </trkpt>
      <trkpt lat="42.20343" lon="1.35421">
        <ele>752.4</ele>
        <time>2019-02-12T04:35:39Z</time>
      </trkpt>
      <trkpt lat="42.20352" lon="1.35413">
        <ele>750.1</ele>
        <time>2019-02-12T04:35:45Z</time>
      </trkpt>
      <trkpt lat="42.20358" lon="1.35406">
        <ele>748.7</ele>
        <time>2019-02-12T04:35:50Z</time>
      </trkpt>
      <trkpt lat="42.20364" lon="1.35397">
        <ele>746.7</ele>
        <time>2019-02-12T04:35:55Z</time>
      </trkpt>
      <trkpt lat="42.20368" lon="1.35381">
        <ele>745.7</ele>
        <time>2019-02-12T04:36:02Z</time>
      </trkpt>
      <trkpt lat="42.20377" lon="1.35372">
        <ele>743.8</ele>
        <time>2019-02-12T04:36:08Z</time>
      </trkpt>
      <trkpt lat="42.20387" lon="1.35364">
        <ele>742.2</ele>
        <time>2019-02-12T04:36:15Z</time>
      </trkpt>
      <trkpt lat="42.20394" lon="1.35358">
        <ele>740.4</ele>
        <time>2019-02-12T04:36:19Z</time>
      </trkpt>
      <trkpt lat="42.20402" lon="1.3535">
        <ele>740.4</ele>
        <time>2019-02-12T04:36:25Z</time>
      </trkpt>
      <trkpt lat="42.20412" lon="1.35345">
        <ele>739.5</ele>
        <time>2019-02-12T04:36:31Z</time>
      </trkpt>
      <trkpt lat="42.2042" lon="1.35343">
        <ele>736.6</ele>
        <time>2019-02-12T04:36:36Z</time>
      </trkpt>
      <trkpt lat="42.20432" lon="1.35337">
        <ele>735.6</ele>
        <time>2019-02-12T04:36:44Z</time>
      </trkpt>
      <trkpt lat="42.20444" lon="1.35334">
        <ele>735.7</ele>
        <time>2019-02-12T04:36:51Z</time>
      </trkpt>
      <trkpt lat="42.20454" lon="1.35321">
        <ele>735.6</ele>
        <time>2019-02-12T04:36:58Z</time>
      </trkpt>
      <trkpt lat="42.20465" lon="1.35312">
        <ele>735.1</ele>
        <time>2019-02-12T04:37:06Z</time>
      </trkpt>
      <trkpt lat="42.20474" lon="1.35302">
        <ele>734.2</ele>
        <time>2019-02-12T04:37:12Z</time>
      </trkpt>
      <trkpt lat="42.2048" lon="1.35293">
        <ele>732.7</ele>
        <time>2019-02-12T04:37:18Z</time>
      </trkpt>
      <trkpt lat="42.20487" lon="1.35282">
        <ele>732.7</ele>
        <time>2019-02-12T04:37:24Z</time>
      </trkpt>
      <trkpt lat="42.20496" lon="1.35267">
        <ele>731.2</ele>
        <time>2019-02-12T04:37:32Z</time>
      </trkpt>
      <trkpt lat="42.20503" lon="1.35255">
        <ele>734.2</ele>
        <time>2019-02-12T04:37:38Z</time>
      </trkpt>
      <trkpt lat="42.20508" lon="1.35245">
        <ele>733.2</ele>
        <time>2019-02-12T04:37:44Z</time>
      </trkpt>
      <trkpt lat="42.20514" lon="1.35232">
        <ele>733.6</ele>
        <time>2019-02-12T04:37:50Z</time>
      </trkpt>
      <trkpt lat="42.2052" lon="1.35221">
        <ele>733.2</ele>
        <time>2019-02-12T04:37:56Z</time>
      </trkpt>
      <trkpt lat="42.20528" lon="1.35212">
        <ele>732.6</ele>
        <time>2019-02-12T04:38:02Z</time>
      </trkpt>
      <trkpt lat="42.20539" lon="1.35202">
        <ele>732.3</ele>
        <time>2019-02-12T04:38:09Z</time>
      </trkpt>
      <trkpt lat="42.20551" lon="1.35193">
        <ele>729.3</ele>
        <time>2019-02-12T04:38:17Z</time>
      </trkpt>
      <trkpt lat="42.20564" lon="1.35187">
        <ele>728.5</ele>
        <time>2019-02-12T04:38:25Z</time>
      </trkpt>
      <trkpt lat="42.20574" lon="1.35182">
        <ele>726.1</ele>
        <time>2019-02-12T04:38:31Z</time>
      </trkpt>
      <trkpt lat="42.20583" lon="1.35168">
        <ele>722</ele>
        <time>2019-02-12T04:38:39Z</time>
      </trkpt>
      <trkpt lat="42.20587" lon="1.35155">
        <ele>718.9</ele>
        <time>2019-02-12T04:38:45Z</time>
      </trkpt>
      <trkpt lat="42.20582" lon="1.3514">
        <ele>719.6</ele>
        <time>2019-02-12T04:38:52Z</time>
      </trkpt>
      <trkpt lat="42.20575" lon="1.35126">
        <ele>718.8</ele>
        <time>2019-02-12T04:38:59Z</time>
      </trkpt>
      <trkpt lat="42.20566" lon="1.3512">
        <ele>718.2</ele>
        <time>2019-02-12T04:39:05Z</time>
      </trkpt>
      <trkpt lat="42.20556" lon="1.35114">
        <ele>714.8</ele>
        <time>2019-02-12T04:39:11Z</time>
      </trkpt>
      <trkpt lat="42.2055" lon="1.35106">
        <ele>715.4</ele>
        <time>2019-02-12T04:39:16Z</time>
      </trkpt>
      <trkpt lat="42.20541" lon="1.35097">
        <ele>717.9</ele>
        <time>2019-02-12T04:39:23Z</time>
      </trkpt>
      <trkpt lat="42.20535" lon="1.35091">
        <ele>714.1</ele>
        <time>2019-02-12T04:39:27Z</time>
      </trkpt>
      <trkpt lat="42.20528" lon="1.35084">
        <ele>714.4</ele>
        <time>2019-02-12T04:39:32Z</time>
      </trkpt>
      <trkpt lat="42.2052" lon="1.35077">
        <ele>714.1</ele>
        <time>2019-02-12T04:39:37Z</time>
      </trkpt>
      <trkpt lat="42.20514" lon="1.35065">
        <ele>712.5</ele>
        <time>2019-02-12T04:39:43Z</time>
      </trkpt>
      <trkpt lat="42.20513" lon="1.35051">
        <ele>709.3</ele>
        <time>2019-02-12T04:39:49Z</time>
      </trkpt>
      <trkpt lat="42.20505" lon="1.35038">
        <ele>709.6</ele>
        <time>2019-02-12T04:39:56Z</time>
      </trkpt>
      <trkpt lat="42.20502" lon="1.35024">
        <ele>709.7</ele>
        <time>2019-02-12T04:40:02Z</time>
      </trkpt>
      <trkpt lat="42.20498" lon="1.35015">
        <ele>712</ele>
        <time>2019-02-12T04:40:07Z</time>
      </trkpt>
      <trkpt lat="42.20491" lon="1.35005">
        <ele>714</ele>
        <time>2019-02-12T04:40:13Z</time>
      </trkpt>
      <trkpt lat="42.20484" lon="1.34994">
        <ele>713.4</ele>
        <time>2019-02-12T04:40:19Z</time>
      </trkpt>
      <trkpt lat="42.20475" lon="1.34985">
        <ele>714.1</ele>
        <time>2019-02-12T04:40:25Z</time>
      </trkpt>
      <trkpt lat="42.2047" lon="1.34975">
        <ele>713</ele>
        <time>2019-02-12T04:40:30Z</time>
      </trkpt>
      <trkpt lat="42.20465" lon="1.34965">
        <ele>713</ele>
        <time>2019-02-12T04:40:35Z</time>
      </trkpt>
      <trkpt lat="42.20461" lon="1.34954">
        <ele>713</ele>
        <time>2019-02-12T04:40:41Z</time>
      </trkpt>
      <trkpt lat="42.20453" lon="1.34942">
        <ele>712.4</ele>
        <time>2019-02-12T04:40:47Z</time>
      </trkpt>
      <trkpt lat="42.20449" lon="1.34932">
        <ele>713.5</ele>
        <time>2019-02-12T04:40:52Z</time>
      </trkpt>
      <trkpt lat="42.20447" lon="1.34917">
        <ele>712</ele>
        <time>2019-02-12T04:40:59Z</time>
      </trkpt>
      <trkpt lat="42.20441" lon="1.34903">
        <ele>711.7</ele>
        <time>2019-02-12T04:41:06Z</time>
      </trkpt>
      <trkpt lat="42.20433" lon="1.34889">
        <ele>712.4</ele>
        <time>2019-02-12T04:41:13Z</time>
      </trkpt>
      <trkpt lat="42.20427" lon="1.34875">
        <ele>714.8</ele>
        <time>2019-02-12T04:41:20Z</time>
      </trkpt>
      <trkpt lat="42.2042" lon="1.34862">
        <ele>714.8</ele>
        <time>2019-02-12T04:41:26Z</time>
      </trkpt>
      <trkpt lat="42.20414" lon="1.34851">
        <ele>714.8</ele>
        <time>2019-02-12T04:41:32Z</time>
      </trkpt>
      <trkpt lat="42.20405" lon="1.34841">
        <ele>714.1</ele>
        <time>2019-02-12T04:41:39Z</time>
      </trkpt>
      <trkpt lat="42.20399" lon="1.3483">
        <ele>714.1</ele>
        <time>2019-02-12T04:41:45Z</time>
      </trkpt>
      <trkpt lat="42.2039" lon="1.34823">
        <ele>713.4</ele>
        <time>2019-02-12T04:41:51Z</time>
      </trkpt>
      <trkpt lat="42.20384" lon="1.34815">
        <ele>713</ele>
        <time>2019-02-12T04:41:56Z</time>
      </trkpt>
      <trkpt lat="42.20373" lon="1.34806">
        <ele>712.1</ele>
        <time>2019-02-12T04:42:03Z</time>
      </trkpt>
      <trkpt lat="42.20364" lon="1.34802">
        <ele>708.7</ele>
        <time>2019-02-12T04:42:08Z</time>
      </trkpt>
      <trkpt lat="42.20354" lon="1.34794">
        <ele>704.5</ele>
        <time>2019-02-12T04:42:15Z</time>
      </trkpt>
      <trkpt lat="42.20346" lon="1.34789">
        <ele>703.4</ele>
        <time>2019-02-12T04:42:20Z</time>
      </trkpt>
      <trkpt lat="42.20337" lon="1.34778">
        <ele>702.8</ele>
        <time>2019-02-12T04:42:27Z</time>
      </trkpt>
      <trkpt lat="42.20328" lon="1.34764">
        <ele>701.1</ele>
        <time>2019-02-12T04:42:35Z</time>
      </trkpt>
      <trkpt lat="42.2032" lon="1.34755">
        <ele>700.4</ele>
        <time>2019-02-12T04:42:41Z</time>
      </trkpt>
      <trkpt lat="42.20314" lon="1.34747">
        <ele>700.1</ele>
        <time>2019-02-12T04:42:46Z</time>
      </trkpt>
      <trkpt lat="42.20308" lon="1.34738">
        <ele>698.7</ele>
        <time>2019-02-12T04:42:51Z</time>
      </trkpt>
      <trkpt lat="42.203" lon="1.34731">
        <ele>697.1</ele>
        <time>2019-02-12T04:42:56Z</time>
      </trkpt>
      <trkpt lat="42.20295" lon="1.34719">
        <ele>695.3</ele>
        <time>2019-02-12T04:43:02Z</time>
      </trkpt>
      <trkpt lat="42.20296" lon="1.34705">
        <ele>695.2</ele>
        <time>2019-02-12T04:43:08Z</time>
      </trkpt>
      <trkpt lat="42.20299" lon="1.34695">
        <ele>694.7</ele>
        <time>2019-02-12T04:43:12Z</time>
      </trkpt>
      <trkpt lat="42.20305" lon="1.34684">
        <ele>695.2</ele>
        <time>2019-02-12T04:43:18Z</time>
      </trkpt>
      <trkpt lat="42.20308" lon="1.3467">
        <ele>692.2</ele>
        <time>2019-02-12T04:43:24Z</time>
      </trkpt>
      <trkpt lat="42.20311" lon="1.34657">
        <ele>690.8</ele>
        <time>2019-02-12T04:43:30Z</time>
      </trkpt>
      <trkpt lat="42.20311" lon="1.34644">
        <ele>690.8</ele>
        <time>2019-02-12T04:43:36Z</time>
      </trkpt>
      <trkpt lat="42.20312" lon="1.34632">
        <ele>690.5</ele>
        <time>2019-02-12T04:43:41Z</time>
      </trkpt>
      <trkpt lat="42.20309" lon="1.3462">
        <ele>689.1</ele>
        <time>2019-02-12T04:43:46Z</time>
      </trkpt>
      <trkpt lat="42.20308" lon="1.34607">
        <ele>688.4</ele>
        <time>2019-02-12T04:43:52Z</time>
      </trkpt>
      <trkpt lat="42.20305" lon="1.34594">
        <ele>688.1</ele>
        <time>2019-02-12T04:43:58Z</time>
      </trkpt>
      <trkpt lat="42.20303" lon="1.34582">
        <ele>688.1</ele>
        <time>2019-02-12T04:44:03Z</time>
      </trkpt>
      <trkpt lat="42.203" lon="1.34568">
        <ele>688.4</ele>
        <time>2019-02-12T04:44:09Z</time>
      </trkpt>
      <trkpt lat="42.20301" lon="1.34553">
        <ele>689.1</ele>
        <time>2019-02-12T04:44:15Z</time>
      </trkpt>
      <trkpt lat="42.20299" lon="1.34539">
        <ele>689.5</ele>
        <time>2019-02-12T04:44:21Z</time>
      </trkpt>
      <trkpt lat="42.20297" lon="1.34528">
        <ele>689.8</ele>
        <time>2019-02-12T04:44:26Z</time>
      </trkpt>
      <trkpt lat="42.20296" lon="1.34513">
        <ele>690.8</ele>
        <time>2019-02-12T04:44:32Z</time>
      </trkpt>
      <trkpt lat="42.20296" lon="1.34489">
        <ele>689.4</ele>
        <time>2019-02-12T04:44:42Z</time>
      </trkpt>
      <trkpt lat="42.20295" lon="1.34478">
        <ele>687.4</ele>
        <time>2019-02-12T04:44:47Z</time>
      </trkpt>
      <trkpt lat="42.20295" lon="1.34465">
        <ele>688.4</ele>
        <time>2019-02-12T04:44:53Z</time>
      </trkpt>
      <trkpt lat="42.20294" lon="1.34453">
        <ele>689</ele>
        <time>2019-02-12T04:44:58Z</time>
      </trkpt>
      <trkpt lat="42.20293" lon="1.34435">
        <ele>687.5</ele>
        <time>2019-02-12T04:45:06Z</time>
      </trkpt>
      <trkpt lat="42.20287" lon="1.3442">
        <ele>687.4</ele>
        <time>2019-02-12T04:45:13Z</time>
      </trkpt>
      <trkpt lat="42.20279" lon="1.34409">
        <ele>686.7</ele>
        <time>2019-02-12T04:45:19Z</time>
      </trkpt>
      <trkpt lat="42.20276" lon="1.34395">
        <ele>684.2</ele>
        <time>2019-02-12T04:45:25Z</time>
      </trkpt>
      <trkpt lat="42.20274" lon="1.34378">
        <ele>680.3</ele>
        <time>2019-02-12T04:45:33Z</time>
      </trkpt>
      <trkpt lat="42.20273" lon="1.34368">
        <ele>678.8</ele>
        <time>2019-02-12T04:45:37Z</time>
      </trkpt>
      <trkpt lat="42.20273" lon="1.34356">
        <ele>677.4</ele>
        <time>2019-02-12T04:45:42Z</time>
      </trkpt>
      <trkpt lat="42.20273" lon="1.3434">
        <ele>676.1</ele>
        <time>2019-02-12T04:45:49Z</time>
      </trkpt>
      <trkpt lat="42.20272" lon="1.34326">
        <ele>672.7</ele>
        <time>2019-02-12T04:45:55Z</time>
      </trkpt>
      <trkpt lat="42.20267" lon="1.34315">
        <ele>670.3</ele>
        <time>2019-02-12T04:46:00Z</time>
      </trkpt>
      <trkpt lat="42.20265" lon="1.34302">
        <ele>666.8</ele>
        <time>2019-02-12T04:46:06Z</time>
      </trkpt>
      <trkpt lat="42.20264" lon="1.34289">
        <ele>664.9</ele>
        <time>2019-02-12T04:46:11Z</time>
      </trkpt>
      <trkpt lat="42.20263" lon="1.34276">
        <ele>663.5</ele>
        <time>2019-02-12T04:46:17Z</time>
      </trkpt>
      <trkpt lat="42.20267" lon="1.34266">
        <ele>662</ele>
        <time>2019-02-12T04:46:22Z</time>
      </trkpt>
      <trkpt lat="42.20275" lon="1.34256">
        <ele>659.2</ele>
        <time>2019-02-12T04:46:28Z</time>
      </trkpt>
      <trkpt lat="42.20284" lon="1.34247">
        <ele>656.2</ele>
        <time>2019-02-12T04:46:34Z</time>
      </trkpt>
      <trkpt lat="42.20294" lon="1.34238">
        <ele>653.8</ele>
        <time>2019-02-12T04:46:41Z</time>
      </trkpt>
      <trkpt lat="42.20301" lon="1.34225">
        <ele>651.4</ele>
        <time>2019-02-12T04:46:48Z</time>
      </trkpt>
      <trkpt lat="42.20307" lon="1.34215">
        <ele>647.2</ele>
        <time>2019-02-12T04:46:54Z</time>
      </trkpt>
      <trkpt lat="42.20311" lon="1.34204">
        <ele>645.6</ele>
        <time>2019-02-12T04:46:59Z</time>
      </trkpt>
      <trkpt lat="42.20312" lon="1.34189">
        <ele>643.2</ele>
        <time>2019-02-12T04:47:05Z</time>
      </trkpt>
      <trkpt lat="42.20314" lon="1.34174">
        <ele>640.9</ele>
        <time>2019-02-12T04:47:11Z</time>
      </trkpt>
      <trkpt lat="42.20317" lon="1.34156">
        <ele>636.1</ele>
        <time>2019-02-12T04:47:19Z</time>
      </trkpt>
      <trkpt lat="42.20313" lon="1.34145">
        <ele>634.3</ele>
        <time>2019-02-12T04:47:25Z</time>
      </trkpt>
      <trkpt lat="42.2031" lon="1.34131">
        <ele>632.6</ele>
        <time>2019-02-12T04:47:31Z</time>
      </trkpt>
      <trkpt lat="42.20303" lon="1.34117">
        <ele>631.3</ele>
        <time>2019-02-12T04:47:38Z</time>
      </trkpt>
      <trkpt lat="42.20296" lon="1.34106">
        <ele>629.5</ele>
        <time>2019-02-12T04:47:44Z</time>
      </trkpt>
      <trkpt lat="42.20299" lon="1.34085">
        <ele>630.2</ele>
        <time>2019-02-12T04:47:53Z</time>
      </trkpt>
      <trkpt lat="42.20304" lon="1.34072">
        <ele>630.2</ele>
        <time>2019-02-12T04:47:59Z</time>
      </trkpt>
      <trkpt lat="42.20305" lon="1.34057">
        <ele>630.2</ele>
        <time>2019-02-12T04:48:06Z</time>
      </trkpt>
      <trkpt lat="42.20306" lon="1.34038">
        <ele>629.9</ele>
        <time>2019-02-12T04:48:14Z</time>
      </trkpt>
      <trkpt lat="42.2031" lon="1.34023">
        <ele>629.8</ele>
        <time>2019-02-12T04:48:21Z</time>
      </trkpt>
      <trkpt lat="42.20314" lon="1.3401">
        <ele>629.4</ele>
        <time>2019-02-12T04:48:26Z</time>
      </trkpt>
      <trkpt lat="42.20321" lon="1.34013">
        <ele>628.9</ele>
        <time>2019-02-12T04:48:31Z</time>
      </trkpt>
      <trkpt lat="42.20331" lon="1.34014">
        <ele>628.4</ele>
        <time>2019-02-12T04:48:37Z</time>
      </trkpt>
      <trkpt lat="42.20344" lon="1.34014">
        <ele>626</ele>
        <time>2019-02-12T04:48:44Z</time>
      </trkpt>
      <trkpt lat="42.20355" lon="1.34011">
        <ele>622.2</ele>
        <time>2019-02-12T04:48:51Z</time>
      </trkpt>
      <trkpt lat="42.20366" lon="1.34007">
        <ele>620.3</ele>
        <time>2019-02-12T04:48:57Z</time>
      </trkpt>
      <trkpt lat="42.20377" lon="1.33999">
        <ele>618.2</ele>
        <time>2019-02-12T04:49:04Z</time>
      </trkpt>
      <trkpt lat="42.20393" lon="1.33984">
        <ele>613</ele>
        <time>2019-02-12T04:49:15Z</time>
      </trkpt>
      <trkpt lat="42.20406" lon="1.3398">
        <ele>611.1</ele>
        <time>2019-02-12T04:49:23Z</time>
      </trkpt>
      <trkpt lat="42.20418" lon="1.33971">
        <ele>609.7</ele>
        <time>2019-02-12T04:49:31Z</time>
      </trkpt>
      <trkpt lat="42.20428" lon="1.33961">
        <ele>608.6</ele>
        <time>2019-02-12T04:49:38Z</time>
      </trkpt>
      <trkpt lat="42.20435" lon="1.33948">
        <ele>608.6</ele>
        <time>2019-02-12T04:49:45Z</time>
      </trkpt>
      <trkpt lat="42.20442" lon="1.33937">
        <ele>609.3</ele>
        <time>2019-02-12T04:49:51Z</time>
      </trkpt>
      <trkpt lat="42.2045" lon="1.33927">
        <ele>609.3</ele>
        <time>2019-02-12T04:49:57Z</time>
      </trkpt>
      <trkpt lat="42.20455" lon="1.33917">
        <ele>610</ele>
        <time>2019-02-12T04:50:02Z</time>
      </trkpt>
      <trkpt lat="42.20455" lon="1.33902">
        <ele>610.6</ele>
        <time>2019-02-12T04:50:08Z</time>
      </trkpt>
      <trkpt lat="42.20457" lon="1.33886">
        <ele>612</ele>
        <time>2019-02-12T04:50:15Z</time>
      </trkpt>
      <trkpt lat="42.20461" lon="1.33875">
        <ele>613</ele>
        <time>2019-02-12T04:50:21Z</time>
      </trkpt>
      <trkpt lat="42.20468" lon="1.33863">
        <ele>612.4</ele>
        <time>2019-02-12T04:50:27Z</time>
      </trkpt>
      <trkpt lat="42.20475" lon="1.33853">
        <ele>612.4</ele>
        <time>2019-02-12T04:50:33Z</time>
      </trkpt>
      <trkpt lat="42.20479" lon="1.33837">
        <ele>617.5</ele>
        <time>2019-02-12T04:50:40Z</time>
      </trkpt>
      <trkpt lat="42.20482" lon="1.33826">
        <ele>620.2</ele>
        <time>2019-02-12T04:50:45Z</time>
      </trkpt>
      <trkpt lat="42.20488" lon="1.3381">
        <ele>622.2</ele>
        <time>2019-02-12T04:50:53Z</time>
      </trkpt>
      <trkpt lat="42.20495" lon="1.33797">
        <ele>624.1</ele>
        <time>2019-02-12T04:50:59Z</time>
      </trkpt>
      <trkpt lat="42.205" lon="1.33784">
        <ele>625.1</ele>
        <time>2019-02-12T04:51:06Z</time>
      </trkpt>
      <trkpt lat="42.20504" lon="1.33769">
        <ele>625.1</ele>
        <time>2019-02-12T04:51:12Z</time>
      </trkpt>
      <trkpt lat="42.20505" lon="1.33754">
        <ele>624.7</ele>
        <time>2019-02-12T04:51:19Z</time>
      </trkpt>
      <trkpt lat="42.20502" lon="1.33739">
        <ele>625.4</ele>
        <time>2019-02-12T04:51:25Z</time>
      </trkpt>
      <trkpt lat="42.20505" lon="1.33723">
        <ele>626.4</ele>
        <time>2019-02-12T04:51:32Z</time>
      </trkpt>
      <trkpt lat="42.20502" lon="1.33707">
        <ele>627.8</ele>
        <time>2019-02-12T04:51:39Z</time>
      </trkpt>
      <trkpt lat="42.20506" lon="1.33688">
        <ele>624</ele>
        <time>2019-02-12T04:51:47Z</time>
      </trkpt>
      <trkpt lat="42.20512" lon="1.33677">
        <ele>621.7</ele>
        <time>2019-02-12T04:51:53Z</time>
      </trkpt>
      <trkpt lat="42.20517" lon="1.33664">
        <ele>620.7</ele>
        <time>2019-02-12T04:51:59Z</time>
      </trkpt>
      <trkpt lat="42.20524" lon="1.33654">
        <ele>620.2</ele>
        <time>2019-02-12T04:52:05Z</time>
      </trkpt>
      <trkpt lat="42.20535" lon="1.33655">
        <ele>620.2</ele>
        <time>2019-02-12T04:52:12Z</time>
      </trkpt>
      <trkpt lat="42.20546" lon="1.33653">
        <ele>617.8</ele>
        <time>2019-02-12T04:52:18Z</time>
      </trkpt>
      <trkpt lat="42.2056" lon="1.33644">
        <ele>617.4</ele>
        <time>2019-02-12T04:52:27Z</time>
      </trkpt>
      <trkpt lat="42.20562" lon="1.33629">
        <ele>615.5</ele>
        <time>2019-02-12T04:52:33Z</time>
      </trkpt>
      <trkpt lat="42.20558" lon="1.33614">
        <ele>617.9</ele>
        <time>2019-02-12T04:52:40Z</time>
      </trkpt>
      <trkpt lat="42.20562" lon="1.33598">
        <ele>618.2</ele>
        <time>2019-02-12T04:52:47Z</time>
      </trkpt>
      <trkpt lat="42.20564" lon="1.33584">
        <ele>618.2</ele>
        <time>2019-02-12T04:52:53Z</time>
      </trkpt>
      <trkpt lat="42.20571" lon="1.33572">
        <ele>617.4</ele>
        <time>2019-02-12T04:53:00Z</time>
      </trkpt>
      <trkpt lat="42.2058" lon="1.33564">
        <ele>616.9</ele>
        <time>2019-02-12T04:53:06Z</time>
      </trkpt>
      <trkpt lat="42.2059" lon="1.33559">
        <ele>615.9</ele>
        <time>2019-02-12T04:53:12Z</time>
      </trkpt>
      <trkpt lat="42.20599" lon="1.33551">
        <ele>613.5</ele>
        <time>2019-02-12T04:53:18Z</time>
      </trkpt>
      <trkpt lat="42.20611" lon="1.33542">
        <ele>612</ele>
        <time>2019-02-12T04:53:26Z</time>
      </trkpt>
      <trkpt lat="42.20623" lon="1.33537">
        <ele>606.3</ele>
        <time>2019-02-12T04:53:33Z</time>
      </trkpt>
      <trkpt lat="42.20635" lon="1.33533">
        <ele>603.4</ele>
        <time>2019-02-12T04:53:40Z</time>
      </trkpt>
      <trkpt lat="42.20647" lon="1.3353">
        <ele>601.5</ele>
        <time>2019-02-12T04:53:47Z</time>
      </trkpt>
      <trkpt lat="42.20661" lon="1.33522">
        <ele>599.7</ele>
        <time>2019-02-12T04:53:55Z</time>
      </trkpt>
      <trkpt lat="42.20675" lon="1.33532">
        <ele>599</ele>
        <time>2019-02-12T04:54:05Z</time>
      </trkpt>
      <trkpt lat="42.20685" lon="1.33544">
        <ele>598.6</ele>
        <time>2019-02-12T04:54:12Z</time>
      </trkpt>
      <trkpt lat="42.20695" lon="1.33556">
        <ele>596.3</ele>
        <time>2019-02-12T04:54:20Z</time>
      </trkpt>
      <trkpt lat="42.20706" lon="1.33569">
        <ele>595.3</ele>
        <time>2019-02-12T04:54:28Z</time>
      </trkpt>
      <trkpt lat="42.20722" lon="1.33572">
        <ele>594.9</ele>
        <time>2019-02-12T04:54:37Z</time>
      </trkpt>
      <trkpt lat="42.20737" lon="1.33556">
        <ele>592.9</ele>
        <time>2019-02-12T04:54:48Z</time>
      </trkpt>
      <trkpt lat="42.20742" lon="1.33542">
        <ele>591.4</ele>
        <time>2019-02-12T04:54:55Z</time>
      </trkpt>
      <trkpt lat="42.20743" lon="1.33527">
        <ele>588.5</ele>
        <time>2019-02-12T04:55:01Z</time>
      </trkpt>
      <trkpt lat="42.20744" lon="1.33511">
        <ele>588.5</ele>
        <time>2019-02-12T04:55:08Z</time>
      </trkpt>
      <trkpt lat="42.20748" lon="1.33497">
        <ele>587.6</ele>
        <time>2019-02-12T04:55:15Z</time>
      </trkpt>
      <trkpt lat="42.20751" lon="1.33486">
        <ele>586.6</ele>
        <time>2019-02-12T04:55:20Z</time>
      </trkpt>
      <trkpt lat="42.20757" lon="1.33475">
        <ele>585</ele>
        <time>2019-02-12T04:55:25Z</time>
      </trkpt>
      <trkpt lat="42.20764" lon="1.33463">
        <ele>584.6</ele>
        <time>2019-02-12T04:55:32Z</time>
      </trkpt>
      <trkpt lat="42.20774" lon="1.33461">
        <ele>585.1</ele>
        <time>2019-02-12T04:55:38Z</time>
      </trkpt>
      <trkpt lat="42.20785" lon="1.33455">
        <ele>583.6</ele>
        <time>2019-02-12T04:55:44Z</time>
      </trkpt>
      <trkpt lat="42.20796" lon="1.33451">
        <ele>582.3</ele>
        <time>2019-02-12T04:55:51Z</time>
      </trkpt>
      <trkpt lat="42.20806" lon="1.33449">
        <ele>580.9</ele>
        <time>2019-02-12T04:55:57Z</time>
      </trkpt>
      <trkpt lat="42.20814" lon="1.33449">
        <ele>580.3</ele>
        <time>2019-02-12T04:56:01Z</time>
      </trkpt>
      <trkpt lat="42.20825" lon="1.33445">
        <ele>578.5</ele>
        <time>2019-02-12T04:56:08Z</time>
      </trkpt>
      <trkpt lat="42.20835" lon="1.33434">
        <ele>576.5</ele>
        <time>2019-02-12T04:56:15Z</time>
      </trkpt>
      <trkpt lat="42.20847" lon="1.33431">
        <ele>575.1</ele>
        <time>2019-02-12T04:56:22Z</time>
      </trkpt>
      <trkpt lat="42.20864" lon="1.33438">
        <ele>571.6</ele>
        <time>2019-02-12T04:56:32Z</time>
      </trkpt>
      <trkpt lat="42.20874" lon="1.33441">
        <ele>570.6</ele>
        <time>2019-02-12T04:56:38Z</time>
      </trkpt>
      <trkpt lat="42.20885" lon="1.33446">
        <ele>570.2</ele>
        <time>2019-02-12T04:56:45Z</time>
      </trkpt>
      <trkpt lat="42.20899" lon="1.33443">
        <ele>569.2</ele>
        <time>2019-02-12T04:56:53Z</time>
      </trkpt>
      <trkpt lat="42.209" lon="1.33436">
        <ele>568.9</ele>
        <time>2019-02-12T04:56:56Z</time>
      </trkpt>
      <trkpt lat="42.20903" lon="1.33428">
        <ele>569.8</ele>
        <time>2019-02-12T04:57:00Z</time>
      </trkpt>
      <trkpt lat="42.20912" lon="1.33423">
        <ele>569.3</ele>
        <time>2019-02-12T04:57:05Z</time>
      </trkpt>
      <trkpt lat="42.20909" lon="1.33407">
        <ele>568.3</ele>
        <time>2019-02-12T04:57:12Z</time>
      </trkpt>
      <trkpt lat="42.20915" lon="1.33401">
        <ele>568.3</ele>
        <time>2019-02-12T04:57:16Z</time>
      </trkpt>
      <trkpt lat="42.20922" lon="1.33406">
        <ele>568.9</ele>
        <time>2019-02-12T04:57:22Z</time>
      </trkpt>
      <trkpt lat="42.20933" lon="1.33407">
        <ele>568.8</ele>
        <time>2019-02-12T04:57:28Z</time>
      </trkpt>
      <trkpt lat="42.20948" lon="1.33411">
        <ele>566.8</ele>
        <time>2019-02-12T04:57:36Z</time>
      </trkpt>
      <trkpt lat="42.2096" lon="1.33415">
        <ele>563</ele>
        <time>2019-02-12T04:57:43Z</time>
      </trkpt>
      <trkpt lat="42.20969" lon="1.33402">
        <ele>557.2</ele>
        <time>2019-02-12T04:57:51Z</time>
      </trkpt>
      <trkpt lat="42.20974" lon="1.33393">
        <ele>553.4</ele>
        <time>2019-02-12T04:57:56Z</time>
      </trkpt>
      <trkpt lat="42.20982" lon="1.33388">
        <ele>550.1</ele>
        <time>2019-02-12T04:58:00Z</time>
      </trkpt>
      <trkpt lat="42.2099" lon="1.33384">
        <ele>547.3</ele>
        <time>2019-02-12T04:58:06Z</time>
      </trkpt>
      <trkpt lat="42.21004" lon="1.3338">
        <ele>544.2</ele>
        <time>2019-02-12T04:58:14Z</time>
      </trkpt>
      <trkpt lat="42.21015" lon="1.33381">
        <ele>542.4</ele>
        <time>2019-02-12T04:58:20Z</time>
      </trkpt>
      <trkpt lat="42.21024" lon="1.33381">
        <ele>540</ele>
        <time>2019-02-12T04:58:25Z</time>
      </trkpt>
      <trkpt lat="42.21033" lon="1.33386">
        <ele>538.4</ele>
        <time>2019-02-12T04:58:31Z</time>
      </trkpt>
      <trkpt lat="42.2104" lon="1.33395">
        <ele>537.7</ele>
        <time>2019-02-12T04:58:36Z</time>
      </trkpt>
      <trkpt lat="42.21053" lon="1.33404">
        <ele>537.7</ele>
        <time>2019-02-12T04:58:45Z</time>
      </trkpt>
      <trkpt lat="42.21064" lon="1.33412">
        <ele>535.6</ele>
        <time>2019-02-12T04:58:52Z</time>
      </trkpt>
      <trkpt lat="42.21072" lon="1.33418">
        <ele>534.2</ele>
        <time>2019-02-12T04:58:57Z</time>
      </trkpt>
      <trkpt lat="42.21083" lon="1.33421">
        <ele>532.3</ele>
        <time>2019-02-12T04:59:04Z</time>
      </trkpt>
      <trkpt lat="42.21094" lon="1.3342">
        <ele>528</ele>
        <time>2019-02-12T04:59:09Z</time>
      </trkpt>
      <trkpt lat="42.21098" lon="1.33406">
        <ele>528.5</ele>
        <time>2019-02-12T04:59:16Z</time>
      </trkpt>
      <trkpt lat="42.21102" lon="1.33391">
        <ele>526.1</ele>
        <time>2019-02-12T04:59:23Z</time>
      </trkpt>
      <trkpt lat="42.21106" lon="1.33377">
        <ele>524.1</ele>
        <time>2019-02-12T04:59:29Z</time>
      </trkpt>
      <trkpt lat="42.21114" lon="1.33367">
        <ele>521.6</ele>
        <time>2019-02-12T04:59:35Z</time>
      </trkpt>
      <trkpt lat="42.21121" lon="1.33352">
        <ele>522.3</ele>
        <time>2019-02-12T04:59:43Z</time>
      </trkpt>
      <trkpt lat="42.21129" lon="1.3334">
        <ele>523</ele>
        <time>2019-02-12T04:59:50Z</time>
      </trkpt>
      <trkpt lat="42.21134" lon="1.33327">
        <ele>523.6</ele>
        <time>2019-02-12T04:59:56Z</time>
      </trkpt>
      <trkpt lat="42.21136" lon="1.33313">
        <ele>523</ele>
        <time>2019-02-12T05:00:02Z</time>
      </trkpt>
      <trkpt lat="42.21141" lon="1.33302">
        <ele>522.6</ele>
        <time>2019-02-12T05:00:07Z</time>
      </trkpt>
      <trkpt lat="42.21143" lon="1.33289">
        <ele>523</ele>
        <time>2019-02-12T05:00:13Z</time>
      </trkpt>
      <trkpt lat="42.21144" lon="1.33276">
        <ele>527</ele>
        <time>2019-02-12T05:00:18Z</time>
      </trkpt>
      <trkpt lat="42.21149" lon="1.33264">
        <ele>531.3</ele>
        <time>2019-02-12T05:00:24Z</time>
      </trkpt>
      <trkpt lat="42.21152" lon="1.33251">
        <ele>529.9</ele>
        <time>2019-02-12T05:00:30Z</time>
      </trkpt>
      <trkpt lat="42.21154" lon="1.33237">
        <ele>527.5</ele>
        <time>2019-02-12T05:00:36Z</time>
      </trkpt>
      <trkpt lat="42.21157" lon="1.33226">
        <ele>527.1</ele>
        <time>2019-02-12T05:00:41Z</time>
      </trkpt>
      <trkpt lat="42.2116" lon="1.33214">
        <ele>522.6</ele>
        <time>2019-02-12T05:00:46Z</time>
      </trkpt>
      <trkpt lat="42.21164" lon="1.33202">
        <ele>522.2</ele>
        <time>2019-02-12T05:00:52Z</time>
      </trkpt>
      <trkpt lat="42.21167" lon="1.33189">
        <ele>521.3</ele>
        <time>2019-02-12T05:00:58Z</time>
      </trkpt>
      <trkpt lat="42.21166" lon="1.33174">
        <ele>520.2</ele>
        <time>2019-02-12T05:01:04Z</time>
      </trkpt>
      <trkpt lat="42.2117" lon="1.33162">
        <ele>519.8</ele>
        <time>2019-02-12T05:01:09Z</time>
      </trkpt>
      <trkpt lat="42.21171" lon="1.33148">
        <ele>519.3</ele>
        <time>2019-02-12T05:01:15Z</time>
      </trkpt>
      <trkpt lat="42.21178" lon="1.33137">
        <ele>519.9</ele>
        <time>2019-02-12T05:01:22Z</time>
      </trkpt>
      <trkpt lat="42.21183" lon="1.33125">
        <ele>520.2</ele>
        <time>2019-02-12T05:01:27Z</time>
      </trkpt>
      <trkpt lat="42.21189" lon="1.33116">
        <ele>522.2</ele>
        <time>2019-02-12T05:01:33Z</time>
      </trkpt>
      <trkpt lat="42.21194" lon="1.33102">
        <ele>523.7</ele>
        <time>2019-02-12T05:01:39Z</time>
      </trkpt>
      <trkpt lat="42.212" lon="1.33092">
        <ele>524.6</ele>
        <time>2019-02-12T05:01:44Z</time>
      </trkpt>
      <trkpt lat="42.21208" lon="1.3308">
        <ele>527.5</ele>
        <time>2019-02-12T05:01:51Z</time>
      </trkpt>
      <trkpt lat="42.21208" lon="1.33067">
        <ele>528.5</ele>
        <time>2019-02-12T05:01:57Z</time>
      </trkpt>
      <trkpt lat="42.21203" lon="1.33054">
        <ele>531.2</ele>
        <time>2019-02-12T05:02:03Z</time>
      </trkpt>
      <trkpt lat="42.21195" lon="1.3304">
        <ele>533.6</ele>
        <time>2019-02-12T05:02:11Z</time>
      </trkpt>
      <trkpt lat="42.21191" lon="1.33026">
        <ele>537</ele>
        <time>2019-02-12T05:02:17Z</time>
      </trkpt>
      <trkpt lat="42.21188" lon="1.33017">
        <ele>540.4</ele>
        <time>2019-02-12T05:02:21Z</time>
      </trkpt>
      <trkpt lat="42.2118" lon="1.33009">
        <ele>542.4</ele>
        <time>2019-02-12T05:02:27Z</time>
      </trkpt>
      <trkpt lat="42.21172" lon="1.33">
        <ele>543.9</ele>
        <time>2019-02-12T05:02:33Z</time>
      </trkpt>
      <trkpt lat="42.21164" lon="1.32992">
        <ele>544.8</ele>
        <time>2019-02-12T05:02:38Z</time>
      </trkpt>
      <trkpt lat="42.21158" lon="1.32983">
        <ele>545.6</ele>
        <time>2019-02-12T05:02:43Z</time>
      </trkpt>
      <trkpt lat="42.21146" lon="1.32976">
        <ele>547.7</ele>
        <time>2019-02-12T05:02:51Z</time>
      </trkpt>
      <trkpt lat="42.21138" lon="1.32964">
        <ele>548.7</ele>
        <time>2019-02-12T05:02:58Z</time>
      </trkpt>
      <trkpt lat="42.21131" lon="1.32954">
        <ele>549</ele>
        <time>2019-02-12T05:03:03Z</time>
      </trkpt>
      <trkpt lat="42.21124" lon="1.32942">
        <ele>549.6</ele>
        <time>2019-02-12T05:03:10Z</time>
      </trkpt>
      <trkpt lat="42.21117" lon="1.32936">
        <ele>550</ele>
        <time>2019-02-12T05:03:15Z</time>
      </trkpt>
      <trkpt lat="42.21108" lon="1.32933">
        <ele>552.4</ele>
        <time>2019-02-12T05:03:20Z</time>
      </trkpt>
      <trkpt lat="42.21099" lon="1.32931">
        <ele>555.9</ele>
        <time>2019-02-12T05:03:25Z</time>
      </trkpt>
      <trkpt lat="42.2109" lon="1.32918">
        <ele>557.8</ele>
        <time>2019-02-12T05:03:32Z</time>
      </trkpt>
      <trkpt lat="42.21099" lon="1.32919">
        <ele>561.6</ele>
        <time>2019-02-12T05:03:37Z</time>
      </trkpt>
      <trkpt lat="42.2111" lon="1.32919">
        <ele>564.5</ele>
        <time>2019-02-12T05:03:44Z</time>
      </trkpt>
      <trkpt lat="42.21121" lon="1.32924">
        <ele>566.9</ele>
        <time>2019-02-12T05:03:50Z</time>
      </trkpt>
      <trkpt lat="42.21131" lon="1.32929">
        <ele>568.9</ele>
        <time>2019-02-12T05:03:57Z</time>
      </trkpt>
      <trkpt lat="42.2114" lon="1.32923">
        <ele>564.5</ele>
        <time>2019-02-12T05:04:02Z</time>
      </trkpt>
      <trkpt lat="42.21146" lon="1.32908">
        <ele>561.1</ele>
        <time>2019-02-12T05:04:09Z</time>
      </trkpt>
      <trkpt lat="42.21151" lon="1.32895">
        <ele>557.8</ele>
        <time>2019-02-12T05:04:16Z</time>
      </trkpt>
      <trkpt lat="42.21152" lon="1.32879">
        <ele>556.2</ele>
        <time>2019-02-12T05:04:23Z</time>
      </trkpt>
      <trkpt lat="42.21157" lon="1.32866">
        <ele>556.8</ele>
        <time>2019-02-12T05:04:29Z</time>
      </trkpt>
      <trkpt lat="42.21153" lon="1.32851">
        <ele>556.2</ele>
        <time>2019-02-12T05:04:35Z</time>
      </trkpt>
      <trkpt lat="42.21146" lon="1.32846">
        <ele>556.3</ele>
        <time>2019-02-12T05:04:40Z</time>
      </trkpt>
      <trkpt lat="42.21136" lon="1.32851">
        <ele>556.9</ele>
        <time>2019-02-12T05:04:46Z</time>
      </trkpt>
      <trkpt lat="42.21124" lon="1.32831">
        <ele>558.6</ele>
        <time>2019-02-12T05:04:57Z</time>
      </trkpt>
      <trkpt lat="42.21122" lon="1.32819">
        <ele>559.2</ele>
        <time>2019-02-12T05:05:02Z</time>
      </trkpt>
      <trkpt lat="42.21114" lon="1.32807">
        <ele>560.7</ele>
        <time>2019-02-12T05:05:09Z</time>
      </trkpt>
      <trkpt lat="42.21099" lon="1.32806">
        <ele>561.1</ele>
        <time>2019-02-12T05:05:17Z</time>
      </trkpt>
      <trkpt lat="42.21087" lon="1.32808">
        <ele>561.6</ele>
        <time>2019-02-12T05:05:25Z</time>
      </trkpt>
      <trkpt lat="42.21096" lon="1.3279">
        <ele>561</ele>
        <time>2019-02-12T05:05:34Z</time>
      </trkpt>
      <trkpt lat="42.21088" lon="1.32747">
        <ele>561.6</ele>
        <time>2019-02-12T05:05:53Z</time>
      </trkpt>
      <trkpt lat="42.21077" lon="1.32724">
        <ele>562.6</ele>
        <time>2019-02-12T05:06:04Z</time>
      </trkpt>
      <trkpt lat="42.21067" lon="1.32712">
        <ele>562.7</ele>
        <time>2019-02-12T05:06:12Z</time>
      </trkpt>
      <trkpt lat="42.21062" lon="1.32706">
        <ele>563.5</ele>
        <time>2019-02-12T05:06:16Z</time>
      </trkpt>
      <trkpt lat="42.21052" lon="1.32695">
        <ele>564</ele>
        <time>2019-02-12T05:06:23Z</time>
      </trkpt>
      <trkpt lat="42.21047" lon="1.3268">
        <ele>562.7</ele>
        <time>2019-02-12T05:06:30Z</time>
      </trkpt>
      <trkpt lat="42.21037" lon="1.32672">
        <ele>563.4</ele>
        <time>2019-02-12T05:06:37Z</time>
      </trkpt>
      <trkpt lat="42.21029" lon="1.32662">
        <ele>563.4</ele>
        <time>2019-02-12T05:06:43Z</time>
      </trkpt>
      <trkpt lat="42.21024" lon="1.32656">
        <ele>563</ele>
        <time>2019-02-12T05:06:47Z</time>
      </trkpt>
      <trkpt lat="42.2102" lon="1.32641">
        <ele>563.4</ele>
        <time>2019-02-12T05:06:54Z</time>
      </trkpt>
      <trkpt lat="42.21012" lon="1.32633">
        <ele>560.6</ele>
        <time>2019-02-12T05:06:59Z</time>
      </trkpt>
      <trkpt lat="42.21003" lon="1.32621">
        <ele>558.2</ele>
        <time>2019-02-12T05:07:06Z</time>
      </trkpt>
      <trkpt lat="42.20991" lon="1.32612">
        <ele>557.2</ele>
        <time>2019-02-12T05:07:14Z</time>
      </trkpt>
      <trkpt lat="42.20978" lon="1.32605">
        <ele>557.8</ele>
        <time>2019-02-12T05:07:22Z</time>
      </trkpt>
      <trkpt lat="42.20969" lon="1.32599">
        <ele>557.8</ele>
        <time>2019-02-12T05:07:28Z</time>
      </trkpt>
      <trkpt lat="42.2096" lon="1.326">
        <ele>558.3</ele>
        <time>2019-02-12T05:07:33Z</time>
      </trkpt>
      <trkpt lat="42.20947" lon="1.32596">
        <ele>557.9</ele>
        <time>2019-02-12T05:07:41Z</time>
      </trkpt>
      <trkpt lat="42.20936" lon="1.32591">
        <ele>559.3</ele>
        <time>2019-02-12T05:07:47Z</time>
      </trkpt>
      <trkpt lat="42.20923" lon="1.32569">
        <ele>562.1</ele>
        <time>2019-02-12T05:07:59Z</time>
      </trkpt>
      <trkpt lat="42.2092" lon="1.32554">
        <ele>562.6</ele>
        <time>2019-02-12T05:08:06Z</time>
      </trkpt>
      <trkpt lat="42.20906" lon="1.32558">
        <ele>565.1</ele>
        <time>2019-02-12T05:08:14Z</time>
      </trkpt>
      <trkpt lat="42.2089" lon="1.32552">
        <ele>566.9</ele>
        <time>2019-02-12T05:08:24Z</time>
      </trkpt>
      <trkpt lat="42.20879" lon="1.32552">
        <ele>568.2</ele>
        <time>2019-02-12T05:08:30Z</time>
      </trkpt>
      <trkpt lat="42.2087" lon="1.32553">
        <ele>569.8</ele>
        <time>2019-02-12T05:08:35Z</time>
      </trkpt>
      <trkpt lat="42.20857" lon="1.32552">
        <ele>570.7</ele>
        <time>2019-02-12T05:08:43Z</time>
      </trkpt>
      <trkpt lat="42.20838" lon="1.32547">
        <ele>574.7</ele>
        <time>2019-02-12T05:08:54Z</time>
      </trkpt>
      <trkpt lat="42.20828" lon="1.32551">
        <ele>576.5</ele>
        <time>2019-02-12T05:09:00Z</time>
      </trkpt>
      <trkpt lat="42.20814" lon="1.32554">
        <ele>579.4</ele>
        <time>2019-02-12T05:09:08Z</time>
      </trkpt>
      <trkpt lat="42.20803" lon="1.32558">
        <ele>580.9</ele>
        <time>2019-02-12T05:09:15Z</time>
      </trkpt>
      <trkpt lat="42.20791" lon="1.32555">
        <ele>583.6</ele>
        <time>2019-02-12T05:09:21Z</time>
      </trkpt>
      <trkpt lat="42.20781" lon="1.32561">
        <ele>585</ele>
        <time>2019-02-12T05:09:28Z</time>
      </trkpt>
      <trkpt lat="42.20768" lon="1.32562">
        <ele>587</ele>
        <time>2019-02-12T05:09:35Z</time>
      </trkpt>
      <trkpt lat="42.20756" lon="1.3256">
        <ele>589</ele>
        <time>2019-02-12T05:09:42Z</time>
      </trkpt>
      <trkpt lat="42.20746" lon="1.32561">
        <ele>587.6</ele>
        <time>2019-02-12T05:09:47Z</time>
      </trkpt>
      <trkpt lat="42.20736" lon="1.32563">
        <ele>588</ele>
        <time>2019-02-12T05:09:53Z</time>
      </trkpt>
      <trkpt lat="42.20728" lon="1.32568">
        <ele>588.5</ele>
        <time>2019-02-12T05:09:59Z</time>
      </trkpt>
      <trkpt lat="42.20717" lon="1.32571">
        <ele>586.7</ele>
        <time>2019-02-12T05:10:05Z</time>
      </trkpt>
      <trkpt lat="42.20706" lon="1.32573">
        <ele>585</ele>
        <time>2019-02-12T05:10:11Z</time>
      </trkpt>
      <trkpt lat="42.20694" lon="1.32574">
        <ele>584.2</ele>
        <time>2019-02-12T05:10:18Z</time>
      </trkpt>
      <trkpt lat="42.20684" lon="1.32571">
        <ele>581.2</ele>
        <time>2019-02-12T05:10:24Z</time>
      </trkpt>
      <trkpt lat="42.20674" lon="1.32569">
        <ele>579.8</ele>
        <time>2019-02-12T05:10:30Z</time>
      </trkpt>
      <trkpt lat="42.20664" lon="1.32564">
        <ele>578.9</ele>
        <time>2019-02-12T05:10:36Z</time>
      </trkpt>
      <trkpt lat="42.20657" lon="1.32554">
        <ele>577.8</ele>
        <time>2019-02-12T05:10:42Z</time>
      </trkpt>
      <trkpt lat="42.20651" lon="1.32544">
        <ele>576.1</ele>
        <time>2019-02-12T05:10:47Z</time>
      </trkpt>
      <trkpt lat="42.20645" lon="1.32532">
        <ele>574</ele>
        <time>2019-02-12T05:10:53Z</time>
      </trkpt>
      <trkpt lat="42.20639" lon="1.32524">
        <ele>573</ele>
        <time>2019-02-12T05:10:58Z</time>
      </trkpt>
      <trkpt lat="42.20631" lon="1.32516">
        <ele>572.6</ele>
        <time>2019-02-12T05:11:03Z</time>
      </trkpt>
      <trkpt lat="42.20623" lon="1.32507">
        <ele>572.2</ele>
        <time>2019-02-12T05:11:10Z</time>
      </trkpt>
      <trkpt lat="42.20614" lon="1.32501">
        <ele>573.1</ele>
        <time>2019-02-12T05:11:16Z</time>
      </trkpt>
      <trkpt lat="42.20607" lon="1.32493">
        <ele>572.3</ele>
        <time>2019-02-12T05:11:21Z</time>
      </trkpt>
      <trkpt lat="42.20599" lon="1.32486">
        <ele>572.2</ele>
        <time>2019-02-12T05:11:26Z</time>
      </trkpt>
      <trkpt lat="42.2059" lon="1.3248">
        <ele>573.1</ele>
        <time>2019-02-12T05:11:32Z</time>
      </trkpt>
      <trkpt lat="42.20579" lon="1.32474">
        <ele>572.6</ele>
        <time>2019-02-12T05:11:39Z</time>
      </trkpt>
      <trkpt lat="42.2057" lon="1.32467">
        <ele>573.1</ele>
        <time>2019-02-12T05:11:44Z</time>
      </trkpt>
      <trkpt lat="42.20564" lon="1.32456">
        <ele>572.6</ele>
        <time>2019-02-12T05:11:50Z</time>
      </trkpt>
      <trkpt lat="42.2056" lon="1.32445">
        <ele>571.6</ele>
        <time>2019-02-12T05:11:55Z</time>
      </trkpt>
      <trkpt lat="42.20556" lon="1.32433">
        <ele>570.6</ele>
        <time>2019-02-12T05:12:01Z</time>
      </trkpt>
      <trkpt lat="42.20553" lon="1.32419">
        <ele>570.6</ele>
        <time>2019-02-12T05:12:07Z</time>
      </trkpt>
      <trkpt lat="42.20552" lon="1.32405">
        <ele>572.7</ele>
        <time>2019-02-12T05:12:13Z</time>
      </trkpt>
      <trkpt lat="42.20549" lon="1.32393">
        <ele>571.7</ele>
        <time>2019-02-12T05:12:18Z</time>
      </trkpt>
      <trkpt lat="42.20546" lon="1.32379">
        <ele>572.2</ele>
        <time>2019-02-12T05:12:24Z</time>
      </trkpt>
      <trkpt lat="42.20544" lon="1.32367">
        <ele>573.6</ele>
        <time>2019-02-12T05:12:30Z</time>
      </trkpt>
      <trkpt lat="42.2054" lon="1.32348">
        <ele>575.1</ele>
        <time>2019-02-12T05:12:38Z</time>
      </trkpt>
      <trkpt lat="42.20534" lon="1.32332">
        <ele>576.4</ele>
        <time>2019-02-12T05:12:46Z</time>
      </trkpt>
      <trkpt lat="42.20521" lon="1.32319">
        <ele>579.8</ele>
        <time>2019-02-12T05:12:55Z</time>
      </trkpt>
      <trkpt lat="42.20527" lon="1.3232">
        <ele>576.5</ele>
        <time>2019-02-12T05:12:58Z</time>
      </trkpt>
      <trkpt lat="42.20521" lon="1.32311">
        <ele>576.4</ele>
        <time>2019-02-12T05:13:04Z</time>
      </trkpt>
      <trkpt lat="42.20513" lon="1.32296">
        <ele>577</ele>
        <time>2019-02-12T05:13:11Z</time>
      </trkpt>
      <trkpt lat="42.20515" lon="1.32303">
        <ele>576.1</ele>
        <time>2019-02-12T05:13:14Z</time>
      </trkpt>
      <trkpt lat="42.2052" lon="1.32314">
        <ele>574.1</ele>
        <time>2019-02-12T05:13:20Z</time>
      </trkpt>
      <trkpt lat="42.2052" lon="1.32322">
        <ele>573.6</ele>
        <time>2019-02-12T05:13:23Z</time>
      </trkpt>
      <trkpt lat="42.2051" lon="1.32319">
        <ele>573.7</ele>
        <time>2019-02-12T05:13:29Z</time>
      </trkpt>
      <trkpt lat="42.20499" lon="1.32319">
        <ele>574.1</ele>
        <time>2019-02-12T05:13:35Z</time>
      </trkpt>
      <trkpt lat="42.20489" lon="1.32325">
        <ele>574.1</ele>
        <time>2019-02-12T05:13:41Z</time>
      </trkpt>
      <trkpt lat="42.20481" lon="1.32323">
        <ele>573.7</ele>
        <time>2019-02-12T05:13:46Z</time>
      </trkpt>
      <trkpt lat="42.2047" lon="1.32321">
        <ele>573.1</ele>
        <time>2019-02-12T05:13:52Z</time>
      </trkpt>
      <trkpt lat="42.20461" lon="1.32315">
        <ele>573.1</ele>
        <time>2019-02-12T05:13:58Z</time>
      </trkpt>
      <trkpt lat="42.20452" lon="1.32308">
        <ele>573</ele>
        <time>2019-02-12T05:14:04Z</time>
      </trkpt>
      <trkpt lat="42.20445" lon="1.32299">
        <ele>573.6</ele>
        <time>2019-02-12T05:14:10Z</time>
      </trkpt>
      <trkpt lat="42.20438" lon="1.32287">
        <ele>573.1</ele>
        <time>2019-02-12T05:14:16Z</time>
      </trkpt>
      <trkpt lat="42.20431" lon="1.32277">
        <ele>571.6</ele>
        <time>2019-02-12T05:14:22Z</time>
      </trkpt>
      <trkpt lat="42.20423" lon="1.32267">
        <ele>572.6</ele>
        <time>2019-02-12T05:14:28Z</time>
      </trkpt>
      <trkpt lat="42.20414" lon="1.32257">
        <ele>571.3</ele>
        <time>2019-02-12T05:14:35Z</time>
      </trkpt>
      <trkpt lat="42.20406" lon="1.32249">
        <ele>568.3</ele>
        <time>2019-02-12T05:14:40Z</time>
      </trkpt>
      <trkpt lat="42.20397" lon="1.3224">
        <ele>565.1</ele>
        <time>2019-02-12T05:14:47Z</time>
      </trkpt>
      <trkpt lat="42.20391" lon="1.32233">
        <ele>563.4</ele>
        <time>2019-02-12T05:14:51Z</time>
      </trkpt>
      <trkpt lat="42.20384" lon="1.32224">
        <ele>563</ele>
        <time>2019-02-12T05:14:57Z</time>
      </trkpt>
      <trkpt lat="42.20378" lon="1.3221">
        <ele>559.7</ele>
        <time>2019-02-12T05:15:03Z</time>
      </trkpt>
      <trkpt lat="42.20375" lon="1.32197">
        <ele>555.2</ele>
        <time>2019-02-12T05:15:09Z</time>
      </trkpt>
      <trkpt lat="42.20371" lon="1.32188">
        <ele>551.4</ele>
        <time>2019-02-12T05:15:14Z</time>
      </trkpt>
      <trkpt lat="42.20363" lon="1.32187">
        <ele>549.1</ele>
        <time>2019-02-12T05:15:19Z</time>
      </trkpt>
      <trkpt lat="42.20355" lon="1.32196">
        <ele>547.3</ele>
        <time>2019-02-12T05:15:25Z</time>
      </trkpt>
      <trkpt lat="42.20348" lon="1.32206">
        <ele>545.3</ele>
        <time>2019-02-12T05:15:30Z</time>
      </trkpt>
      <trkpt lat="42.2034" lon="1.32215">
        <ele>543.8</ele>
        <time>2019-02-12T05:15:36Z</time>
      </trkpt>
      <trkpt lat="42.20333" lon="1.3222">
        <ele>542.8</ele>
        <time>2019-02-12T05:15:41Z</time>
      </trkpt>
      <trkpt lat="42.20323" lon="1.32223">
        <ele>542.5</ele>
        <time>2019-02-12T05:15:47Z</time>
      </trkpt>
      <trkpt lat="42.20315" lon="1.32226">
        <ele>541.9</ele>
        <time>2019-02-12T05:15:51Z</time>
      </trkpt>
      <trkpt lat="42.20306" lon="1.32228">
        <ele>541.9</ele>
        <time>2019-02-12T05:15:56Z</time>
      </trkpt>
      <trkpt lat="42.20297" lon="1.32232">
        <ele>541.9</ele>
        <time>2019-02-12T05:16:02Z</time>
      </trkpt>
      <trkpt lat="42.20287" lon="1.32235">
        <ele>541.4</ele>
        <time>2019-02-12T05:16:08Z</time>
      </trkpt>
      <trkpt lat="42.20277" lon="1.32238">
        <ele>541.4</ele>
        <time>2019-02-12T05:16:14Z</time>
      </trkpt>
      <trkpt lat="42.20269" lon="1.3224">
        <ele>540.9</ele>
        <time>2019-02-12T05:16:19Z</time>
      </trkpt>
      <trkpt lat="42.20257" lon="1.32241">
        <ele>541.9</ele>
        <time>2019-02-12T05:16:25Z</time>
      </trkpt>
      <trkpt lat="42.20247" lon="1.32242">
        <ele>543.8</ele>
        <time>2019-02-12T05:16:31Z</time>
      </trkpt>
      <trkpt lat="42.20238" lon="1.32246">
        <ele>545.3</ele>
        <time>2019-02-12T05:16:36Z</time>
      </trkpt>
      <trkpt lat="42.20229" lon="1.32247">
        <ele>547.3</ele>
        <time>2019-02-12T05:16:41Z</time>
      </trkpt>
      <trkpt lat="42.2022" lon="1.32248">
        <ele>548.6</ele>
        <time>2019-02-12T05:16:47Z</time>
      </trkpt>
      <trkpt lat="42.2021" lon="1.32249">
        <ele>550.4</ele>
        <time>2019-02-12T05:16:53Z</time>
      </trkpt>
      <trkpt lat="42.20199" lon="1.32252">
        <ele>552.5</ele>
        <time>2019-02-12T05:16:59Z</time>
      </trkpt>
      <trkpt lat="42.20188" lon="1.32255">
        <ele>555.2</ele>
        <time>2019-02-12T05:17:05Z</time>
      </trkpt>
      <trkpt lat="42.20179" lon="1.32253">
        <ele>559.6</ele>
        <time>2019-02-12T05:17:11Z</time>
      </trkpt>
      <trkpt lat="42.20168" lon="1.32259">
        <ele>562.6</ele>
        <time>2019-02-12T05:17:17Z</time>
      </trkpt>
      <trkpt lat="42.20163" lon="1.3227">
        <ele>563.4</ele>
        <time>2019-02-12T05:17:23Z</time>
      </trkpt>
      <trkpt lat="42.20153" lon="1.32283">
        <ele>565.5</ele>
        <time>2019-02-12T05:17:30Z</time>
      </trkpt>
      <trkpt lat="42.20145" lon="1.32289">
        <ele>565.8</ele>
        <time>2019-02-12T05:17:36Z</time>
      </trkpt>
      <trkpt lat="42.20136" lon="1.32294">
        <ele>565.4</ele>
        <time>2019-02-12T05:17:41Z</time>
      </trkpt>
      <trkpt lat="42.20127" lon="1.32296">
        <ele>566.8</ele>
        <time>2019-02-12T05:17:47Z</time>
      </trkpt>
      <trkpt lat="42.20117" lon="1.32293">
        <ele>569.2</ele>
        <time>2019-02-12T05:17:53Z</time>
      </trkpt>
      <trkpt lat="42.20108" lon="1.32291">
        <ele>569.8</ele>
        <time>2019-02-12T05:17:58Z</time>
      </trkpt>
      <trkpt lat="42.20098" lon="1.32288">
        <ele>569.8</ele>
        <time>2019-02-12T05:18:04Z</time>
      </trkpt>
      <trkpt lat="42.20087" lon="1.32285">
        <ele>569.8</ele>
        <time>2019-02-12T05:18:10Z</time>
      </trkpt>
      <trkpt lat="42.20078" lon="1.32283">
        <ele>569.2</ele>
        <time>2019-02-12T05:18:15Z</time>
      </trkpt>
      <trkpt lat="42.20069" lon="1.32278">
        <ele>569.2</ele>
        <time>2019-02-12T05:18:21Z</time>
      </trkpt>
      <trkpt lat="42.20059" lon="1.32272">
        <ele>568.3</ele>
        <time>2019-02-12T05:18:27Z</time>
      </trkpt>
      <trkpt lat="42.2005" lon="1.32263">
        <ele>567.5</ele>
        <time>2019-02-12T05:18:33Z</time>
      </trkpt>
      <trkpt lat="42.20043" lon="1.32252">
        <ele>566.5</ele>
        <time>2019-02-12T05:18:39Z</time>
      </trkpt>
      <trkpt lat="42.20036" lon="1.32245">
        <ele>565.1</ele>
        <time>2019-02-12T05:18:44Z</time>
      </trkpt>
      <trkpt lat="42.20028" lon="1.32242">
        <ele>563.1</ele>
        <time>2019-02-12T05:18:49Z</time>
      </trkpt>
      <trkpt lat="42.20019" lon="1.32234">
        <ele>561</ele>
        <time>2019-02-12T05:18:55Z</time>
      </trkpt>
      <trkpt lat="42.20011" lon="1.32232">
        <ele>560.7</ele>
        <time>2019-02-12T05:19:00Z</time>
      </trkpt>
      <trkpt lat="42.20001" lon="1.32229">
        <ele>560.3</ele>
        <time>2019-02-12T05:19:06Z</time>
      </trkpt>
      <trkpt lat="42.19992" lon="1.3223">
        <ele>560.3</ele>
        <time>2019-02-12T05:19:11Z</time>
      </trkpt>
      <trkpt lat="42.19983" lon="1.32235">
        <ele>560.6</ele>
        <time>2019-02-12T05:19:17Z</time>
      </trkpt>
      <trkpt lat="42.19973" lon="1.32243">
        <ele>560.2</ele>
        <time>2019-02-12T05:19:23Z</time>
      </trkpt>
      <trkpt lat="42.19964" lon="1.32246">
        <ele>561.1</ele>
        <time>2019-02-12T05:19:28Z</time>
      </trkpt>
      <trkpt lat="42.19957" lon="1.32248">
        <ele>562</ele>
        <time>2019-02-12T05:19:33Z</time>
      </trkpt>
      <trkpt lat="42.19947" lon="1.32249">
        <ele>561.7</ele>
        <time>2019-02-12T05:19:39Z</time>
      </trkpt>
      <trkpt lat="42.19935" lon="1.3225">
        <ele>562.7</ele>
        <time>2019-02-12T05:19:45Z</time>
      </trkpt>
      <trkpt lat="42.19926" lon="1.3225">
        <ele>561</ele>
        <time>2019-02-12T05:19:51Z</time>
      </trkpt>
      <trkpt lat="42.19915" lon="1.32248">
        <ele>559.3</ele>
        <time>2019-02-12T05:19:57Z</time>
      </trkpt>
      <trkpt lat="42.19905" lon="1.32248">
        <ele>559.2</ele>
        <time>2019-02-12T05:20:02Z</time>
      </trkpt>
      <trkpt lat="42.19896" lon="1.32246">
        <ele>558.6</ele>
        <time>2019-02-12T05:20:08Z</time>
      </trkpt>
      <trkpt lat="42.19889" lon="1.32237">
        <ele>558.3</ele>
        <time>2019-02-12T05:20:13Z</time>
      </trkpt>
      <trkpt lat="42.19883" lon="1.32229">
        <ele>558.2</ele>
        <time>2019-02-12T05:20:18Z</time>
      </trkpt>
      <trkpt lat="42.19879" lon="1.32219">
        <ele>557.8</ele>
        <time>2019-02-12T05:20:23Z</time>
      </trkpt>
      <trkpt lat="42.19873" lon="1.32208">
        <ele>558.6</ele>
        <time>2019-02-12T05:20:29Z</time>
      </trkpt>
      <trkpt lat="42.19868" lon="1.32198">
        <ele>558.2</ele>
        <time>2019-02-12T05:20:34Z</time>
      </trkpt>
      <trkpt lat="42.19867" lon="1.32185">
        <ele>558.2</ele>
        <time>2019-02-12T05:20:39Z</time>
      </trkpt>
      <trkpt lat="42.19859" lon="1.32179">
        <ele>557.3</ele>
        <time>2019-02-12T05:20:45Z</time>
      </trkpt>
      <trkpt lat="42.19852" lon="1.32171">
        <ele>556.2</ele>
        <time>2019-02-12T05:20:50Z</time>
      </trkpt>
      <trkpt lat="42.19844" lon="1.3216">
        <ele>556.9</ele>
        <time>2019-02-12T05:20:56Z</time>
      </trkpt>
      <trkpt lat="42.19834" lon="1.32149">
        <ele>554.9</ele>
        <time>2019-02-12T05:21:04Z</time>
      </trkpt>
      <trkpt lat="42.19824" lon="1.32133">
        <ele>554.4</ele>
        <time>2019-02-12T05:21:13Z</time>
      </trkpt>
      <trkpt lat="42.19815" lon="1.32123">
        <ele>555.3</ele>
        <time>2019-02-12T05:21:19Z</time>
      </trkpt>
      <trkpt lat="42.19802" lon="1.32113">
        <ele>554.8</ele>
        <time>2019-02-12T05:21:28Z</time>
      </trkpt>
      <trkpt lat="42.19793" lon="1.32119">
        <ele>548.6</ele>
        <time>2019-02-12T05:21:34Z</time>
      </trkpt>
      <trkpt lat="42.19786" lon="1.32126">
        <ele>548.7</ele>
        <time>2019-02-12T05:21:39Z</time>
      </trkpt>
      <trkpt lat="42.19777" lon="1.32129">
        <ele>548.7</ele>
        <time>2019-02-12T05:21:44Z</time>
      </trkpt>
      <trkpt lat="42.19767" lon="1.32124">
        <ele>547.7</ele>
        <time>2019-02-12T05:21:50Z</time>
      </trkpt>
      <trkpt lat="42.19761" lon="1.32112">
        <ele>547.3</ele>
        <time>2019-02-12T05:21:56Z</time>
      </trkpt>
      <trkpt lat="42.19755" lon="1.321">
        <ele>546.2</ele>
        <time>2019-02-12T05:22:02Z</time>
      </trkpt>
      <trkpt lat="42.19748" lon="1.32089">
        <ele>549.6</ele>
        <time>2019-02-12T05:22:08Z</time>
      </trkpt>
      <trkpt lat="42.19741" lon="1.32077">
        <ele>551.1</ele>
        <time>2019-02-12T05:22:15Z</time>
      </trkpt>
      <trkpt lat="42.19731" lon="1.32071">
        <ele>552.8</ele>
        <time>2019-02-12T05:22:21Z</time>
      </trkpt>
      <trkpt lat="42.19723" lon="1.32062">
        <ele>552.1</ele>
        <time>2019-02-12T05:22:27Z</time>
      </trkpt>
      <trkpt lat="42.19713" lon="1.32058">
        <ele>552</ele>
        <time>2019-02-12T05:22:33Z</time>
      </trkpt>
      <trkpt lat="42.19708" lon="1.32049">
        <ele>549.6</ele>
        <time>2019-02-12T05:22:38Z</time>
      </trkpt>
      <trkpt lat="42.19705" lon="1.32042">
        <ele>550.1</ele>
        <time>2019-02-12T05:22:41Z</time>
      </trkpt>
      <trkpt lat="42.19705" lon="1.32029">
        <ele>550.5</ele>
        <time>2019-02-12T05:22:47Z</time>
      </trkpt>
      <trkpt lat="42.19704" lon="1.32015">
        <ele>551.4</ele>
        <time>2019-02-12T05:22:52Z</time>
      </trkpt>
      <trkpt lat="42.19701" lon="1.32002">
        <ele>552</ele>
        <time>2019-02-12T05:22:58Z</time>
      </trkpt>
      <trkpt lat="42.19696" lon="1.31987">
        <ele>553.8</ele>
        <time>2019-02-12T05:23:05Z</time>
      </trkpt>
      <trkpt lat="42.19688" lon="1.31983">
        <ele>554.9</ele>
        <time>2019-02-12T05:23:10Z</time>
      </trkpt>
      <trkpt lat="42.19682" lon="1.31974">
        <ele>556.2</ele>
        <time>2019-02-12T05:23:15Z</time>
      </trkpt>
      <trkpt lat="42.19674" lon="1.31962">
        <ele>558.7</ele>
        <time>2019-02-12T05:23:22Z</time>
      </trkpt>
      <trkpt lat="42.19669" lon="1.31948">
        <ele>561.6</ele>
        <time>2019-02-12T05:23:29Z</time>
      </trkpt>
      <trkpt lat="42.1966" lon="1.31938">
        <ele>563</ele>
        <time>2019-02-12T05:23:35Z</time>
      </trkpt>
      <trkpt lat="42.19655" lon="1.3193">
        <ele>565.4</ele>
        <time>2019-02-12T05:23:40Z</time>
      </trkpt>
      <trkpt lat="42.19649" lon="1.3192">
        <ele>567.4</ele>
        <time>2019-02-12T05:23:45Z</time>
      </trkpt>
      <trkpt lat="42.19643" lon="1.31907">
        <ele>570.3</ele>
        <time>2019-02-12T05:23:52Z</time>
      </trkpt>
      <trkpt lat="42.19637" lon="1.31895">
        <ele>571.2</ele>
        <time>2019-02-12T05:23:58Z</time>
      </trkpt>
      <trkpt lat="42.1963" lon="1.31885">
        <ele>572.2</ele>
        <time>2019-02-12T05:24:04Z</time>
      </trkpt>
      <trkpt lat="42.19625" lon="1.31871">
        <ele>570.7</ele>
        <time>2019-02-12T05:24:10Z</time>
      </trkpt>
      <trkpt lat="42.19622" lon="1.31858">
        <ele>570.3</ele>
        <time>2019-02-12T05:24:16Z</time>
      </trkpt>
      <trkpt lat="42.19614" lon="1.3185">
        <ele>571.7</ele>
        <time>2019-02-12T05:24:22Z</time>
      </trkpt>
      <trkpt lat="42.1961" lon="1.31835">
        <ele>571.3</ele>
        <time>2019-02-12T05:24:29Z</time>
      </trkpt>
      <trkpt lat="42.19602" lon="1.31823">
        <ele>571.7</ele>
        <time>2019-02-12T05:24:35Z</time>
      </trkpt>
      <trkpt lat="42.19596" lon="1.31812">
        <ele>570.6</ele>
        <time>2019-02-12T05:24:41Z</time>
      </trkpt>
      <trkpt lat="42.19587" lon="1.31806">
        <ele>572.6</ele>
        <time>2019-02-12T05:24:47Z</time>
      </trkpt>
      <trkpt lat="42.19583" lon="1.31793">
        <ele>573.1</ele>
        <time>2019-02-12T05:24:53Z</time>
      </trkpt>
      <trkpt lat="42.1958" lon="1.31778">
        <ele>575.4</ele>
        <time>2019-02-12T05:24:59Z</time>
      </trkpt>
      <trkpt lat="42.19572" lon="1.3177">
        <ele>577.8</ele>
        <time>2019-02-12T05:25:05Z</time>
      </trkpt>
      <trkpt lat="42.19568" lon="1.31757">
        <ele>579.8</ele>
        <time>2019-02-12T05:25:11Z</time>
      </trkpt>
      <trkpt lat="42.19561" lon="1.31743">
        <ele>581.8</ele>
        <time>2019-02-12T05:25:18Z</time>
      </trkpt>
      <trkpt lat="42.19559" lon="1.31729">
        <ele>583.2</ele>
        <time>2019-02-12T05:25:24Z</time>
      </trkpt>
      <trkpt lat="42.19553" lon="1.31717">
        <ele>586.7</ele>
        <time>2019-02-12T05:25:30Z</time>
      </trkpt>
      <trkpt lat="42.19546" lon="1.31702">
        <ele>587.6</ele>
        <time>2019-02-12T05:25:38Z</time>
      </trkpt>
      <trkpt lat="42.19542" lon="1.3169">
        <ele>590.5</ele>
        <time>2019-02-12T05:25:43Z</time>
      </trkpt>
      <trkpt lat="42.19536" lon="1.31681">
        <ele>593.2</ele>
        <time>2019-02-12T05:25:49Z</time>
      </trkpt>
      <trkpt lat="42.19531" lon="1.31669">
        <ele>596.2</ele>
        <time>2019-02-12T05:25:55Z</time>
      </trkpt>
      <trkpt lat="42.19525" lon="1.31653">
        <ele>598.7</ele>
        <time>2019-02-12T05:26:02Z</time>
      </trkpt>
      <trkpt lat="42.19517" lon="1.31644">
        <ele>602</ele>
        <time>2019-02-12T05:26:08Z</time>
      </trkpt>
      <trkpt lat="42.19509" lon="1.3164">
        <ele>605.2</ele>
        <time>2019-02-12T05:26:13Z</time>
      </trkpt>
      <trkpt lat="42.19499" lon="1.31633">
        <ele>607.7</ele>
        <time>2019-02-12T05:26:19Z</time>
      </trkpt>
      <trkpt lat="42.19492" lon="1.31629">
        <ele>608.7</ele>
        <time>2019-02-12T05:26:24Z</time>
      </trkpt>
      <trkpt lat="42.19482" lon="1.31628">
        <ele>608.7</ele>
        <time>2019-02-12T05:26:29Z</time>
      </trkpt>
      <trkpt lat="42.19474" lon="1.31631">
        <ele>608.6</ele>
        <time>2019-02-12T05:26:34Z</time>
      </trkpt>
      <trkpt lat="42.19466" lon="1.31636">
        <ele>606.9</ele>
        <time>2019-02-12T05:26:39Z</time>
      </trkpt>
      <trkpt lat="42.1946" lon="1.31644">
        <ele>605.2</ele>
        <time>2019-02-12T05:26:44Z</time>
      </trkpt>
      <trkpt lat="42.19451" lon="1.31657">
        <ele>604.8</ele>
        <time>2019-02-12T05:26:52Z</time>
      </trkpt>
      <trkpt lat="42.19448" lon="1.3167">
        <ele>604.8</ele>
        <time>2019-02-12T05:26:57Z</time>
      </trkpt>
      <trkpt lat="42.19441" lon="1.3168">
        <ele>604.5</ele>
        <time>2019-02-12T05:27:03Z</time>
      </trkpt>
      <trkpt lat="42.19438" lon="1.31694">
        <ele>604.5</ele>
        <time>2019-02-12T05:27:09Z</time>
      </trkpt>
      <trkpt lat="42.19434" lon="1.31709">
        <ele>602.9</ele>
        <time>2019-02-12T05:27:16Z</time>
      </trkpt>
      <trkpt lat="42.1943" lon="1.31725">
        <ele>600.1</ele>
        <time>2019-02-12T05:27:24Z</time>
      </trkpt>
      <trkpt lat="42.19427" lon="1.3174">
        <ele>598.7</ele>
        <time>2019-02-12T05:27:30Z</time>
      </trkpt>
      <trkpt lat="42.19424" lon="1.31758">
        <ele>596.7</ele>
        <time>2019-02-12T05:27:38Z</time>
      </trkpt>
      <trkpt lat="42.19421" lon="1.31772">
        <ele>595.3</ele>
        <time>2019-02-12T05:27:44Z</time>
      </trkpt>
      <trkpt lat="42.19415" lon="1.31786">
        <ele>593.2</ele>
        <time>2019-02-12T05:27:51Z</time>
      </trkpt>
      <trkpt lat="42.19413" lon="1.31797">
        <ele>592.8</ele>
        <time>2019-02-12T05:27:56Z</time>
      </trkpt>
      <trkpt lat="42.19411" lon="1.3181">
        <ele>591.8</ele>
        <time>2019-02-12T05:28:01Z</time>
      </trkpt>
      <trkpt lat="42.19409" lon="1.31823">
        <ele>589</ele>
        <time>2019-02-12T05:28:07Z</time>
      </trkpt>
      <trkpt lat="42.19403" lon="1.31836">
        <ele>587.7</ele>
        <time>2019-02-12T05:28:13Z</time>
      </trkpt>
      <trkpt lat="42.19402" lon="1.31849">
        <ele>588</ele>
        <time>2019-02-12T05:28:19Z</time>
      </trkpt>
      <trkpt lat="42.19399" lon="1.31862">
        <ele>587.7</ele>
        <time>2019-02-12T05:28:25Z</time>
      </trkpt>
      <trkpt lat="42.19394" lon="1.31876">
        <ele>585</ele>
        <time>2019-02-12T05:28:31Z</time>
      </trkpt>
      <trkpt lat="42.19392" lon="1.31892">
        <ele>586.7</ele>
        <time>2019-02-12T05:28:38Z</time>
      </trkpt>
      <trkpt lat="42.19387" lon="1.31909">
        <ele>585</ele>
        <time>2019-02-12T05:28:46Z</time>
      </trkpt>
      <trkpt lat="42.19382" lon="1.31922">
        <ele>585.6</ele>
        <time>2019-02-12T05:28:52Z</time>
      </trkpt>
      <trkpt lat="42.19375" lon="1.31932">
        <ele>587</ele>
        <time>2019-02-12T05:28:58Z</time>
      </trkpt>
      <trkpt lat="42.19366" lon="1.31941">
        <ele>587.7</ele>
        <time>2019-02-12T05:29:04Z</time>
      </trkpt>
      <trkpt lat="42.19358" lon="1.31947">
        <ele>587.6</ele>
        <time>2019-02-12T05:29:09Z</time>
      </trkpt>
      <trkpt lat="42.19349" lon="1.31949">
        <ele>585.6</ele>
        <time>2019-02-12T05:29:15Z</time>
      </trkpt>
      <trkpt lat="42.19339" lon="1.3196">
        <ele>586.1</ele>
        <time>2019-02-12T05:29:22Z</time>
      </trkpt>
      <trkpt lat="42.19331" lon="1.3197">
        <ele>584.3</ele>
        <time>2019-02-12T05:29:28Z</time>
      </trkpt>
      <trkpt lat="42.19321" lon="1.31979">
        <ele>585.1</ele>
        <time>2019-02-12T05:29:35Z</time>
      </trkpt>
      <trkpt lat="42.19312" lon="1.31981">
        <ele>585</ele>
        <time>2019-02-12T05:29:40Z</time>
      </trkpt>
      <trkpt lat="42.19301" lon="1.31991">
        <ele>585</ele>
        <time>2019-02-12T05:29:48Z</time>
      </trkpt>
      <trkpt lat="42.19291" lon="1.31996">
        <ele>582.2</ele>
        <time>2019-02-12T05:29:54Z</time>
      </trkpt>
      <trkpt lat="42.19284" lon="1.32006">
        <ele>580.3</ele>
        <time>2019-02-12T05:30:00Z</time>
      </trkpt>
      <trkpt lat="42.19277" lon="1.32016">
        <ele>580.8</ele>
        <time>2019-02-12T05:30:05Z</time>
      </trkpt>
      <trkpt lat="42.19269" lon="1.32029">
        <ele>581.8</ele>
        <time>2019-02-12T05:30:13Z</time>
      </trkpt>
      <trkpt lat="42.19262" lon="1.3204">
        <ele>579.8</ele>
        <time>2019-02-12T05:30:19Z</time>
      </trkpt>
      <trkpt lat="42.19259" lon="1.32052">
        <ele>580.2</ele>
        <time>2019-02-12T05:30:24Z</time>
      </trkpt>
      <trkpt lat="42.19255" lon="1.32064">
        <ele>582.3</ele>
        <time>2019-02-12T05:30:30Z</time>
      </trkpt>
      <trkpt lat="42.19251" lon="1.32077">
        <ele>582.7</ele>
        <time>2019-02-12T05:30:36Z</time>
      </trkpt>
      <trkpt lat="42.19245" lon="1.32093">
        <ele>580.9</ele>
        <time>2019-02-12T05:30:43Z</time>
      </trkpt>
      <trkpt lat="42.19244" lon="1.32115">
        <ele>579.4</ele>
        <time>2019-02-12T05:30:53Z</time>
      </trkpt>
      <trkpt lat="42.1924" lon="1.32132">
        <ele>579.5</ele>
        <time>2019-02-12T05:31:00Z</time>
      </trkpt>
      <trkpt lat="42.19235" lon="1.32151">
        <ele>578.5</ele>
        <time>2019-02-12T05:31:09Z</time>
      </trkpt>
      <trkpt lat="42.19229" lon="1.32167">
        <ele>579.5</ele>
        <time>2019-02-12T05:31:16Z</time>
      </trkpt>
      <trkpt lat="42.19223" lon="1.32188">
        <ele>579.4</ele>
        <time>2019-02-12T05:31:26Z</time>
      </trkpt>
      <trkpt lat="42.19219" lon="1.32206">
        <ele>579.4</ele>
        <time>2019-02-12T05:31:34Z</time>
      </trkpt>
      <trkpt lat="42.19218" lon="1.32222">
        <ele>579.8</ele>
        <time>2019-02-12T05:31:41Z</time>
      </trkpt>
      <trkpt lat="42.19218" lon="1.3224">
        <ele>579.8</ele>
        <time>2019-02-12T05:31:48Z</time>
      </trkpt>
      <trkpt lat="42.19218" lon="1.32257">
        <ele>579.5</ele>
        <time>2019-02-12T05:31:55Z</time>
      </trkpt>
      <trkpt lat="42.19217" lon="1.32273">
        <ele>577.9</ele>
        <time>2019-02-12T05:32:02Z</time>
      </trkpt>
      <trkpt lat="42.19213" lon="1.32293">
        <ele>574.1</ele>
        <time>2019-02-12T05:32:11Z</time>
      </trkpt>
      <trkpt lat="42.19207" lon="1.32307">
        <ele>570.7</ele>
        <time>2019-02-12T05:32:18Z</time>
      </trkpt>
      <trkpt lat="42.19207" lon="1.32325">
        <ele>568.9</ele>
        <time>2019-02-12T05:32:25Z</time>
      </trkpt>
      <trkpt lat="42.19209" lon="1.32337">
        <ele>567.5</ele>
        <time>2019-02-12T05:32:31Z</time>
      </trkpt>
      <trkpt lat="42.19207" lon="1.32348">
        <ele>564.4</ele>
        <time>2019-02-12T05:32:36Z</time>
      </trkpt>
      <trkpt lat="42.19202" lon="1.32351">
        <ele>564.1</ele>
        <time>2019-02-12T05:32:39Z</time>
      </trkpt>
      <trkpt lat="42.19192" lon="1.3236">
        <ele>559.6</ele>
        <time>2019-02-12T05:32:46Z</time>
      </trkpt>
      <trkpt lat="42.19181" lon="1.32368">
        <ele>559.2</ele>
        <time>2019-02-12T05:32:53Z</time>
      </trkpt>
      <trkpt lat="42.1917" lon="1.32362">
        <ele>561</ele>
        <time>2019-02-12T05:33:00Z</time>
      </trkpt>
      <trkpt lat="42.19158" lon="1.3236">
        <ele>561.6</ele>
        <time>2019-02-12T05:33:06Z</time>
      </trkpt>
      <trkpt lat="42.19148" lon="1.3236">
        <ele>560.6</ele>
        <time>2019-02-12T05:33:12Z</time>
      </trkpt>
      <trkpt lat="42.19138" lon="1.32358">
        <ele>561</ele>
        <time>2019-02-12T05:33:18Z</time>
      </trkpt>
      <trkpt lat="42.1913" lon="1.32361">
        <ele>562.1</ele>
        <time>2019-02-12T05:33:23Z</time>
      </trkpt>
      <trkpt lat="42.1913" lon="1.32378">
        <ele>564</ele>
        <time>2019-02-12T05:33:30Z</time>
      </trkpt>
      <trkpt lat="42.19124" lon="1.32389">
        <ele>566.5</ele>
        <time>2019-02-12T05:33:36Z</time>
      </trkpt>
      <trkpt lat="42.19115" lon="1.32382">
        <ele>567.9</ele>
        <time>2019-02-12T05:33:42Z</time>
      </trkpt>
      <trkpt lat="42.19105" lon="1.32389">
        <ele>568.2</ele>
        <time>2019-02-12T05:33:48Z</time>
      </trkpt>
      <trkpt lat="42.19094" lon="1.32396">
        <ele>569.9</ele>
        <time>2019-02-12T05:33:55Z</time>
      </trkpt>
      <trkpt lat="42.19083" lon="1.324">
        <ele>571.6</ele>
        <time>2019-02-12T05:34:02Z</time>
      </trkpt>
      <trkpt lat="42.19074" lon="1.32399">
        <ele>574.6</ele>
        <time>2019-02-12T05:34:07Z</time>
      </trkpt>
      <trkpt lat="42.19063" lon="1.32401">
        <ele>577.9</ele>
        <time>2019-02-12T05:34:13Z</time>
      </trkpt>
      <trkpt lat="42.19055" lon="1.32402">
        <ele>583.2</ele>
        <time>2019-02-12T05:34:18Z</time>
      </trkpt>
      <trkpt lat="42.19048" lon="1.32404">
        <ele>587.7</ele>
        <time>2019-02-12T05:34:22Z</time>
      </trkpt>
      <trkpt lat="42.19037" lon="1.32405">
        <ele>589.1</ele>
        <time>2019-02-12T05:34:29Z</time>
      </trkpt>
      <trkpt lat="42.19028" lon="1.32408">
        <ele>590.8</ele>
        <time>2019-02-12T05:34:34Z</time>
      </trkpt>
      <trkpt lat="42.19019" lon="1.32411">
        <ele>592.8</ele>
        <time>2019-02-12T05:34:39Z</time>
      </trkpt>
      <trkpt lat="42.19009" lon="1.32414">
        <ele>594.9</ele>
        <time>2019-02-12T05:34:45Z</time>
      </trkpt>
      <trkpt lat="42.18997" lon="1.32421">
        <ele>598</ele>
        <time>2019-02-12T05:34:52Z</time>
      </trkpt>
      <trkpt lat="42.18991" lon="1.32426">
        <ele>601</ele>
        <time>2019-02-12T05:34:56Z</time>
      </trkpt>
      <trkpt lat="42.18982" lon="1.32431">
        <ele>603.4</ele>
        <time>2019-02-12T05:35:02Z</time>
      </trkpt>
      <trkpt lat="42.18971" lon="1.3243">
        <ele>606.2</ele>
        <time>2019-02-12T05:35:08Z</time>
      </trkpt>
      <trkpt lat="42.18963" lon="1.32431">
        <ele>608.6</ele>
        <time>2019-02-12T05:35:12Z</time>
      </trkpt>
      <trkpt lat="42.18953" lon="1.32435">
        <ele>612</ele>
        <time>2019-02-12T05:35:19Z</time>
      </trkpt>
      <trkpt lat="42.18942" lon="1.32437">
        <ele>615.4</ele>
        <time>2019-02-12T05:35:25Z</time>
      </trkpt>
      <trkpt lat="42.18931" lon="1.32437">
        <ele>618.8</ele>
        <time>2019-02-12T05:35:31Z</time>
      </trkpt>
      <trkpt lat="42.18921" lon="1.32434">
        <ele>620.6</ele>
        <time>2019-02-12T05:35:37Z</time>
      </trkpt>
      <trkpt lat="42.18911" lon="1.32434">
        <ele>622.3</ele>
        <time>2019-02-12T05:35:43Z</time>
      </trkpt>
      <trkpt lat="42.18904" lon="1.3244">
        <ele>623.6</ele>
        <time>2019-02-12T05:35:48Z</time>
      </trkpt>
      <trkpt lat="42.18894" lon="1.32442">
        <ele>623.7</ele>
        <time>2019-02-12T05:35:53Z</time>
      </trkpt>
      <trkpt lat="42.18891" lon="1.32433">
        <ele>624.6</ele>
        <time>2019-02-12T05:35:58Z</time>
      </trkpt>
      <trkpt lat="42.18897" lon="1.32424">
        <ele>625.4</ele>
        <time>2019-02-12T05:36:03Z</time>
      </trkpt>
      <trkpt lat="42.189" lon="1.32409">
        <ele>627.4</ele>
        <time>2019-02-12T05:36:09Z</time>
      </trkpt>
      <trkpt lat="42.18902" lon="1.32394">
        <ele>627.9</ele>
        <time>2019-02-12T05:36:16Z</time>
      </trkpt>
      <trkpt lat="42.18904" lon="1.32382">
        <ele>628.9</ele>
        <time>2019-02-12T05:36:21Z</time>
      </trkpt>
      <trkpt lat="42.18906" lon="1.32369">
        <ele>629.5</ele>
        <time>2019-02-12T05:36:27Z</time>
      </trkpt>
      <trkpt lat="42.18908" lon="1.32358">
        <ele>631.3</ele>
        <time>2019-02-12T05:36:32Z</time>
      </trkpt>
      <trkpt lat="42.18906" lon="1.32346">
        <ele>632.3</ele>
        <time>2019-02-12T05:36:37Z</time>
      </trkpt>
      <trkpt lat="42.18903" lon="1.32332">
        <ele>637</ele>
        <time>2019-02-12T05:36:43Z</time>
      </trkpt>
      <trkpt lat="42.18906" lon="1.3232">
        <ele>638.5</ele>
        <time>2019-02-12T05:36:48Z</time>
      </trkpt>
      <trkpt lat="42.18902" lon="1.32307">
        <ele>642.3</ele>
        <time>2019-02-12T05:36:54Z</time>
      </trkpt>
      <trkpt lat="42.18899" lon="1.32295">
        <ele>647.6</ele>
        <time>2019-02-12T05:36:59Z</time>
      </trkpt>
      <trkpt lat="42.18899" lon="1.32282">
        <ele>649.6</ele>
        <time>2019-02-12T05:37:05Z</time>
      </trkpt>
      <trkpt lat="42.18897" lon="1.32271">
        <ele>650.4</ele>
        <time>2019-02-12T05:37:09Z</time>
      </trkpt>
      <trkpt lat="42.18895" lon="1.3226">
        <ele>650.1</ele>
        <time>2019-02-12T05:37:14Z</time>
      </trkpt>
      <trkpt lat="42.18889" lon="1.32249">
        <ele>652.5</ele>
        <time>2019-02-12T05:37:20Z</time>
      </trkpt>
      <trkpt lat="42.1888" lon="1.3224">
        <ele>652.8</ele>
        <time>2019-02-12T05:37:27Z</time>
      </trkpt>
      <trkpt lat="42.18871" lon="1.32234">
        <ele>651.1</ele>
        <time>2019-02-12T05:37:32Z</time>
      </trkpt>
      <trkpt lat="42.18866" lon="1.32223">
        <ele>649.6</ele>
        <time>2019-02-12T05:37:38Z</time>
      </trkpt>
      <trkpt lat="42.18864" lon="1.32208">
        <ele>648.7</ele>
        <time>2019-02-12T05:37:44Z</time>
      </trkpt>
      <trkpt lat="42.18863" lon="1.32196">
        <ele>649</ele>
        <time>2019-02-12T05:37:49Z</time>
      </trkpt>
      <trkpt lat="42.18859" lon="1.32184">
        <ele>649</ele>
        <time>2019-02-12T05:37:55Z</time>
      </trkpt>
      <trkpt lat="42.18852" lon="1.32174">
        <ele>647.3</ele>
        <time>2019-02-12T05:38:01Z</time>
      </trkpt>
      <trkpt lat="42.18846" lon="1.32163">
        <ele>650</ele>
        <time>2019-02-12T05:38:07Z</time>
      </trkpt>
      <trkpt lat="42.1884" lon="1.32153">
        <ele>648.6</ele>
        <time>2019-02-12T05:38:12Z</time>
      </trkpt>
      <trkpt lat="42.18837" lon="1.32142">
        <ele>649.1</ele>
        <time>2019-02-12T05:38:17Z</time>
      </trkpt>
      <trkpt lat="42.18827" lon="1.32137">
        <ele>650.5</ele>
        <time>2019-02-12T05:38:23Z</time>
      </trkpt>
      <trkpt lat="42.18817" lon="1.32132">
        <ele>651</ele>
        <time>2019-02-12T05:38:29Z</time>
      </trkpt>
      <trkpt lat="42.18808" lon="1.32128">
        <ele>651.4</ele>
        <time>2019-02-12T05:38:35Z</time>
      </trkpt>
      <trkpt lat="42.18798" lon="1.32124">
        <ele>652.5</ele>
        <time>2019-02-12T05:38:40Z</time>
      </trkpt>
      <trkpt lat="42.18789" lon="1.32127">
        <ele>653.5</ele>
        <time>2019-02-12T05:38:46Z</time>
      </trkpt>
      <trkpt lat="42.18779" lon="1.32124">
        <ele>655.9</ele>
        <time>2019-02-12T05:38:52Z</time>
      </trkpt>
      <trkpt lat="42.18773" lon="1.32116">
        <ele>660.7</ele>
        <time>2019-02-12T05:38:57Z</time>
      </trkpt>
      <trkpt lat="42.18773" lon="1.32101">
        <ele>663</ele>
        <time>2019-02-12T05:39:03Z</time>
      </trkpt>
      <trkpt lat="42.18765" lon="1.32097">
        <ele>664.4</ele>
        <time>2019-02-12T05:39:07Z</time>
      </trkpt>
      <trkpt lat="42.18756" lon="1.32098">
        <ele>665.4</ele>
        <time>2019-02-12T05:39:13Z</time>
      </trkpt>
      <trkpt lat="42.18746" lon="1.32095">
        <ele>669.7</ele>
        <time>2019-02-12T05:39:19Z</time>
      </trkpt>
      <trkpt lat="42.18749" lon="1.32085">
        <ele>673.1</ele>
        <time>2019-02-12T05:39:23Z</time>
      </trkpt>
      <trkpt lat="42.18754" lon="1.32074">
        <ele>677.1</ele>
        <time>2019-02-12T05:39:29Z</time>
      </trkpt>
      <trkpt lat="42.18755" lon="1.32063">
        <ele>679.8</ele>
        <time>2019-02-12T05:39:33Z</time>
      </trkpt>
      <trkpt lat="42.18746" lon="1.32063">
        <ele>682.3</ele>
        <time>2019-02-12T05:39:39Z</time>
      </trkpt>
      <trkpt lat="42.18743" lon="1.3205">
        <ele>686.1</ele>
        <time>2019-02-12T05:39:44Z</time>
      </trkpt>
      <trkpt lat="42.18748" lon="1.32036">
        <ele>687.1</ele>
        <time>2019-02-12T05:39:51Z</time>
      </trkpt>
      <trkpt lat="42.18747" lon="1.32027">
        <ele>684.6</ele>
        <time>2019-02-12T05:39:55Z</time>
      </trkpt>
      <trkpt lat="42.18737" lon="1.32031">
        <ele>685.7</ele>
        <time>2019-02-12T05:40:00Z</time>
      </trkpt>
      <trkpt lat="42.18729" lon="1.32022">
        <ele>689.8</ele>
        <time>2019-02-12T05:40:07Z</time>
      </trkpt>
      <trkpt lat="42.18729" lon="1.32011">
        <ele>691.8</ele>
        <time>2019-02-12T05:40:12Z</time>
      </trkpt>
      <trkpt lat="42.1873" lon="1.32">
        <ele>694.3</ele>
        <time>2019-02-12T05:40:16Z</time>
      </trkpt>
      <trkpt lat="42.18731" lon="1.31985">
        <ele>696.3</ele>
        <time>2019-02-12T05:40:22Z</time>
      </trkpt>
      <trkpt lat="42.18732" lon="1.31972">
        <ele>696.7</ele>
        <time>2019-02-12T05:40:28Z</time>
      </trkpt>
      <trkpt lat="42.18733" lon="1.31956">
        <ele>701.5</ele>
        <time>2019-02-12T05:40:35Z</time>
      </trkpt>
      <trkpt lat="42.18726" lon="1.31953">
        <ele>705.8</ele>
        <time>2019-02-12T05:40:39Z</time>
      </trkpt>
      <trkpt lat="42.18717" lon="1.31957">
        <ele>707.2</ele>
        <time>2019-02-12T05:40:44Z</time>
      </trkpt>
      <trkpt lat="42.18708" lon="1.31962">
        <ele>708.6</ele>
        <time>2019-02-12T05:40:50Z</time>
      </trkpt>
      <trkpt lat="42.18698" lon="1.31965">
        <ele>711.7</ele>
        <time>2019-02-12T05:40:56Z</time>
      </trkpt>
      <trkpt lat="42.18686" lon="1.31963">
        <ele>711.7</ele>
        <time>2019-02-12T05:41:02Z</time>
      </trkpt>
      <trkpt lat="42.1868" lon="1.31971">
        <ele>713.4</ele>
        <time>2019-02-12T05:41:07Z</time>
      </trkpt>
      <trkpt lat="42.1867" lon="1.31974">
        <ele>715.4</ele>
        <time>2019-02-12T05:41:13Z</time>
      </trkpt>
      <trkpt lat="42.18659" lon="1.31978">
        <ele>717.2</ele>
        <time>2019-02-12T05:41:20Z</time>
      </trkpt>
      <trkpt lat="42.18648" lon="1.31985">
        <ele>719.7</ele>
        <time>2019-02-12T05:41:27Z</time>
      </trkpt>
      <trkpt lat="42.18638" lon="1.31987">
        <ele>722.1</ele>
        <time>2019-02-12T05:41:33Z</time>
      </trkpt>
      <trkpt lat="42.18628" lon="1.31992">
        <ele>725.4</ele>
        <time>2019-02-12T05:41:38Z</time>
      </trkpt>
      <trkpt lat="42.18618" lon="1.31994">
        <ele>727.4</ele>
        <time>2019-02-12T05:41:44Z</time>
      </trkpt>
      <trkpt lat="42.18609" lon="1.31997">
        <ele>729.3</ele>
        <time>2019-02-12T05:41:50Z</time>
      </trkpt>
      <trkpt lat="42.18601" lon="1.32005">
        <ele>730.9</ele>
        <time>2019-02-12T05:41:55Z</time>
      </trkpt>
      <trkpt lat="42.18599" lon="1.32022">
        <ele>730.8</ele>
        <time>2019-02-12T05:42:03Z</time>
      </trkpt>
      <trkpt lat="42.18595" lon="1.32033">
        <ele>730.8</ele>
        <time>2019-02-12T05:42:08Z</time>
      </trkpt>
      <trkpt lat="42.18589" lon="1.32037">
        <ele>729.2</ele>
        <time>2019-02-12T05:42:12Z</time>
      </trkpt>
      <trkpt lat="42.1858" lon="1.3204">
        <ele>726.8</ele>
        <time>2019-02-12T05:42:17Z</time>
      </trkpt>
      <trkpt lat="42.1857" lon="1.32034">
        <ele>728.4</ele>
        <time>2019-02-12T05:42:23Z</time>
      </trkpt>
      <trkpt lat="42.18562" lon="1.32036">
        <ele>726.8</ele>
        <time>2019-02-12T05:42:28Z</time>
      </trkpt>
      <trkpt lat="42.18555" lon="1.32047">
        <ele>725.5</ele>
        <time>2019-02-12T05:42:34Z</time>
      </trkpt>
      <trkpt lat="42.18547" lon="1.32053">
        <ele>725</ele>
        <time>2019-02-12T05:42:39Z</time>
      </trkpt>
      <trkpt lat="42.18542" lon="1.32063">
        <ele>724.1</ele>
        <time>2019-02-12T05:42:45Z</time>
      </trkpt>
      <trkpt lat="42.18533" lon="1.32069">
        <ele>722</ele>
        <time>2019-02-12T05:42:50Z</time>
      </trkpt>
      <trkpt lat="42.18526" lon="1.32062">
        <ele>718.2</ele>
        <time>2019-02-12T05:42:55Z</time>
      </trkpt>
      <trkpt lat="42.18518" lon="1.32063">
        <ele>713.4</ele>
        <time>2019-02-12T05:43:00Z</time>
      </trkpt>
      <trkpt lat="42.18506" lon="1.32068">
        <ele>712.1</ele>
        <time>2019-02-12T05:43:07Z</time>
      </trkpt>
      <trkpt lat="42.18497" lon="1.32064">
        <ele>710.6</ele>
        <time>2019-02-12T05:43:12Z</time>
      </trkpt>
      <trkpt lat="42.1849" lon="1.32053">
        <ele>706.8</ele>
        <time>2019-02-12T05:43:18Z</time>
      </trkpt>
      <trkpt lat="42.18482" lon="1.32047">
        <ele>704.5</ele>
        <time>2019-02-12T05:43:24Z</time>
      </trkpt>
      <trkpt lat="42.18471" lon="1.3204">
        <ele>703.9</ele>
        <time>2019-02-12T05:43:31Z</time>
      </trkpt>
      <trkpt lat="42.18461" lon="1.32031">
        <ele>703.9</ele>
        <time>2019-02-12T05:43:38Z</time>
      </trkpt>
      <trkpt lat="42.18452" lon="1.32025">
        <ele>702.5</ele>
        <time>2019-02-12T05:43:43Z</time>
      </trkpt>
      <trkpt lat="42.18443" lon="1.32027">
        <ele>700.4</ele>
        <time>2019-02-12T05:43:48Z</time>
      </trkpt>
      <trkpt lat="42.18435" lon="1.32022">
        <ele>700</ele>
        <time>2019-02-12T05:43:53Z</time>
      </trkpt>
      <trkpt lat="42.18427" lon="1.32014">
        <ele>696.6</ele>
        <time>2019-02-12T05:43:59Z</time>
      </trkpt>
      <trkpt lat="42.18418" lon="1.32006">
        <ele>693.9</ele>
        <time>2019-02-12T05:44:05Z</time>
      </trkpt>
      <trkpt lat="42.18414" lon="1.31995">
        <ele>690.4</ele>
        <time>2019-02-12T05:44:10Z</time>
      </trkpt>
      <trkpt lat="42.18406" lon="1.31983">
        <ele>686.6</ele>
        <time>2019-02-12T05:44:17Z</time>
      </trkpt>
      <trkpt lat="42.18408" lon="1.31968">
        <ele>683.6</ele>
        <time>2019-02-12T05:44:23Z</time>
      </trkpt>
      <trkpt lat="42.18402" lon="1.31958">
        <ele>683.3</ele>
        <time>2019-02-12T05:44:29Z</time>
      </trkpt>
      <trkpt lat="42.18394" lon="1.31953">
        <ele>684.6</ele>
        <time>2019-02-12T05:44:34Z</time>
      </trkpt>
      <trkpt lat="42.18382" lon="1.31947">
        <ele>684.6</ele>
        <time>2019-02-12T05:44:41Z</time>
      </trkpt>
      <trkpt lat="42.18372" lon="1.31942">
        <ele>685</ele>
        <time>2019-02-12T05:44:47Z</time>
      </trkpt>
      <trkpt lat="42.18364" lon="1.31933">
        <ele>684.3</ele>
        <time>2019-02-12T05:44:53Z</time>
      </trkpt>
      <trkpt lat="42.18354" lon="1.31928">
        <ele>681.9</ele>
        <time>2019-02-12T05:44:59Z</time>
      </trkpt>
      <trkpt lat="42.18345" lon="1.31923">
        <ele>679.9</ele>
        <time>2019-02-12T05:45:05Z</time>
      </trkpt>
      <trkpt lat="42.18335" lon="1.31916">
        <ele>676.5</ele>
        <time>2019-02-12T05:45:11Z</time>
      </trkpt>
      <trkpt lat="42.18327" lon="1.31909">
        <ele>674.1</ele>
        <time>2019-02-12T05:45:17Z</time>
      </trkpt>
      <trkpt lat="42.18318" lon="1.31902">
        <ele>672</ele>
        <time>2019-02-12T05:45:23Z</time>
      </trkpt>
      <trkpt lat="42.18309" lon="1.31891">
        <ele>670.2</ele>
        <time>2019-02-12T05:45:29Z</time>
      </trkpt>
      <trkpt lat="42.18301" lon="1.31881">
        <ele>669.3</ele>
        <time>2019-02-12T05:45:36Z</time>
      </trkpt>
      <trkpt lat="42.18292" lon="1.31879">
        <ele>665.5</ele>
        <time>2019-02-12T05:45:41Z</time>
      </trkpt>
      <trkpt lat="42.1829" lon="1.31866">
        <ele>664</ele>
        <time>2019-02-12T05:45:47Z</time>
      </trkpt>
      <trkpt lat="42.18284" lon="1.31865">
        <ele>660.6</ele>
        <time>2019-02-12T05:45:50Z</time>
      </trkpt>
      <trkpt lat="42.18284" lon="1.31844">
        <ele>660.6</ele>
        <time>2019-02-12T05:45:59Z</time>
      </trkpt>
      <trkpt lat="42.18281" lon="1.31831">
        <ele>659.2</ele>
        <time>2019-02-12T05:46:05Z</time>
      </trkpt>
      <trkpt lat="42.18276" lon="1.31844">
        <ele>654.9</ele>
        <time>2019-02-12T05:46:11Z</time>
      </trkpt>
      <trkpt lat="42.18269" lon="1.31845">
        <ele>652.1</ele>
        <time>2019-02-12T05:46:15Z</time>
      </trkpt>
      <trkpt lat="42.18267" lon="1.31832">
        <ele>650</ele>
        <time>2019-02-12T05:46:21Z</time>
      </trkpt>
      <trkpt lat="42.18267" lon="1.31819">
        <ele>649</ele>
        <time>2019-02-12T05:46:26Z</time>
      </trkpt>
      <trkpt lat="42.18263" lon="1.31809">
        <ele>644.8</ele>
        <time>2019-02-12T05:46:31Z</time>
      </trkpt>
      <trkpt lat="42.1826" lon="1.31798">
        <ele>643.2</ele>
        <time>2019-02-12T05:46:36Z</time>
      </trkpt>
      <trkpt lat="42.18262" lon="1.31789">
        <ele>641.8</ele>
        <time>2019-02-12T05:46:40Z</time>
      </trkpt>
      <trkpt lat="42.18266" lon="1.31775">
        <ele>641.9</ele>
        <time>2019-02-12T05:46:46Z</time>
      </trkpt>
      <trkpt lat="42.18264" lon="1.31763">
        <ele>639.8</ele>
        <time>2019-02-12T05:46:52Z</time>
      </trkpt>
      <trkpt lat="42.18264" lon="1.31748">
        <ele>639.1</ele>
        <time>2019-02-12T05:46:58Z</time>
      </trkpt>
      <trkpt lat="42.18266" lon="1.31734">
        <ele>638.5</ele>
        <time>2019-02-12T05:47:04Z</time>
      </trkpt>
      <trkpt lat="42.18267" lon="1.3172">
        <ele>637.5</ele>
        <time>2019-02-12T05:47:10Z</time>
      </trkpt>
      <trkpt lat="42.18266" lon="1.31707">
        <ele>635.1</ele>
        <time>2019-02-12T05:47:16Z</time>
      </trkpt>
      <trkpt lat="42.18265" lon="1.31694">
        <ele>634.7</ele>
        <time>2019-02-12T05:47:21Z</time>
      </trkpt>
      <trkpt lat="42.18263" lon="1.31682">
        <ele>633.2</ele>
        <time>2019-02-12T05:47:26Z</time>
      </trkpt>
      <trkpt lat="42.1826" lon="1.31668">
        <ele>631.2</ele>
        <time>2019-02-12T05:47:32Z</time>
      </trkpt>
      <trkpt lat="42.18258" lon="1.31655">
        <ele>630.8</ele>
        <time>2019-02-12T05:47:38Z</time>
      </trkpt>
      <trkpt lat="42.18253" lon="1.31641">
        <ele>629.4</ele>
        <time>2019-02-12T05:47:45Z</time>
      </trkpt>
      <trkpt lat="42.18248" lon="1.31628">
        <ele>627.9</ele>
        <time>2019-02-12T05:47:51Z</time>
      </trkpt>
      <trkpt lat="42.18242" lon="1.31619">
        <ele>628.5</ele>
        <time>2019-02-12T05:47:56Z</time>
      </trkpt>
      <trkpt lat="42.18233" lon="1.31615">
        <ele>627.4</ele>
        <time>2019-02-12T05:48:01Z</time>
      </trkpt>
      <trkpt lat="42.18225" lon="1.31604">
        <ele>624.7</ele>
        <time>2019-02-12T05:48:08Z</time>
      </trkpt>
      <trkpt lat="42.18222" lon="1.31591">
        <ele>624</ele>
        <time>2019-02-12T05:48:14Z</time>
      </trkpt>
      <trkpt lat="42.18213" lon="1.31582">
        <ele>622.7</ele>
        <time>2019-02-12T05:48:20Z</time>
      </trkpt>
      <trkpt lat="42.18208" lon="1.31572">
        <ele>621.3</ele>
        <time>2019-02-12T05:48:25Z</time>
      </trkpt>
      <trkpt lat="42.18206" lon="1.31557">
        <ele>619.8</ele>
        <time>2019-02-12T05:48:32Z</time>
      </trkpt>
      <trkpt lat="42.18203" lon="1.31545">
        <ele>616.4</ele>
        <time>2019-02-12T05:48:37Z</time>
      </trkpt>
      <trkpt lat="42.18202" lon="1.31533">
        <ele>614.5</ele>
        <time>2019-02-12T05:48:42Z</time>
      </trkpt>
      <trkpt lat="42.18204" lon="1.31521">
        <ele>612.1</ele>
        <time>2019-02-12T05:48:47Z</time>
      </trkpt>
      <trkpt lat="42.18207" lon="1.31509">
        <ele>609.6</ele>
        <time>2019-02-12T05:48:53Z</time>
      </trkpt>
      <trkpt lat="42.18206" lon="1.31496">
        <ele>609.7</ele>
        <time>2019-02-12T05:48:58Z</time>
      </trkpt>
      <trkpt lat="42.18203" lon="1.31484">
        <ele>609.7</ele>
        <time>2019-02-12T05:49:03Z</time>
      </trkpt>
      <trkpt lat="42.18198" lon="1.31472">
        <ele>609.6</ele>
        <time>2019-02-12T05:49:10Z</time>
      </trkpt>
      <trkpt lat="42.18191" lon="1.31461">
        <ele>610.6</ele>
        <time>2019-02-12T05:49:15Z</time>
      </trkpt>
      <trkpt lat="42.18191" lon="1.31449">
        <ele>610.7</ele>
        <time>2019-02-12T05:49:21Z</time>
      </trkpt>
      <trkpt lat="42.18196" lon="1.31438">
        <ele>610</ele>
        <time>2019-02-12T05:49:26Z</time>
      </trkpt>
      <trkpt lat="42.18198" lon="1.31423">
        <ele>609.6</ele>
        <time>2019-02-12T05:49:32Z</time>
      </trkpt>
      <trkpt lat="42.18194" lon="1.31411">
        <ele>607.6</ele>
        <time>2019-02-12T05:49:38Z</time>
      </trkpt>
      <trkpt lat="42.18187" lon="1.31399">
        <ele>606.8</ele>
        <time>2019-02-12T05:49:45Z</time>
      </trkpt>
      <trkpt lat="42.1818" lon="1.31397">
        <ele>604.8</ele>
        <time>2019-02-12T05:49:49Z</time>
      </trkpt>
      <trkpt lat="42.18171" lon="1.3139">
        <ele>602</ele>
        <time>2019-02-12T05:49:55Z</time>
      </trkpt>
      <trkpt lat="42.18162" lon="1.31388">
        <ele>600.5</ele>
        <time>2019-02-12T05:50:00Z</time>
      </trkpt>
      <trkpt lat="42.18151" lon="1.31392">
        <ele>599.1</ele>
        <time>2019-02-12T05:50:07Z</time>
      </trkpt>
      <trkpt lat="42.18143" lon="1.31397">
        <ele>596.2</ele>
        <time>2019-02-12T05:50:12Z</time>
      </trkpt>
      <trkpt lat="42.18134" lon="1.31398">
        <ele>594.3</ele>
        <time>2019-02-12T05:50:17Z</time>
      </trkpt>
      <trkpt lat="42.18126" lon="1.31399">
        <ele>591.9</ele>
        <time>2019-02-12T05:50:22Z</time>
      </trkpt>
      <trkpt lat="42.18116" lon="1.31396">
        <ele>590.4</ele>
        <time>2019-02-12T05:50:27Z</time>
      </trkpt>
      <trkpt lat="42.18108" lon="1.314">
        <ele>587.6</ele>
        <time>2019-02-12T05:50:32Z</time>
      </trkpt>
      <trkpt lat="42.18097" lon="1.31403">
        <ele>586</ele>
        <time>2019-02-12T05:50:38Z</time>
      </trkpt>
      <trkpt lat="42.18087" lon="1.31404">
        <ele>584.6</ele>
        <time>2019-02-12T05:50:44Z</time>
      </trkpt>
      <trkpt lat="42.18078" lon="1.3141">
        <ele>581.3</ele>
        <time>2019-02-12T05:50:50Z</time>
      </trkpt>
      <trkpt lat="42.18066" lon="1.31411">
        <ele>580.3</ele>
        <time>2019-02-12T05:50:57Z</time>
      </trkpt>
      <trkpt lat="42.18057" lon="1.31401">
        <ele>579.4</ele>
        <time>2019-02-12T05:51:03Z</time>
      </trkpt>
      <trkpt lat="42.18054" lon="1.31386">
        <ele>577.5</ele>
        <time>2019-02-12T05:51:10Z</time>
      </trkpt>
      <trkpt lat="42.18049" lon="1.31375">
        <ele>577.8</ele>
        <time>2019-02-12T05:51:15Z</time>
      </trkpt>
      <trkpt lat="42.18038" lon="1.31373">
        <ele>577.4</ele>
        <time>2019-02-12T05:51:22Z</time>
      </trkpt>
      <trkpt lat="42.18035" lon="1.31361">
        <ele>574</ele>
        <time>2019-02-12T05:51:27Z</time>
      </trkpt>
      <trkpt lat="42.18032" lon="1.31349">
        <ele>572.6</ele>
        <time>2019-02-12T05:51:32Z</time>
      </trkpt>
      <trkpt lat="42.18031" lon="1.31335">
        <ele>571.2</ele>
        <time>2019-02-12T05:51:38Z</time>
      </trkpt>
      <trkpt lat="42.18035" lon="1.31322">
        <ele>567.4</ele>
        <time>2019-02-12T05:51:44Z</time>
      </trkpt>
      <trkpt lat="42.18034" lon="1.31311">
        <ele>565.9</ele>
        <time>2019-02-12T05:51:49Z</time>
      </trkpt>
      <trkpt lat="42.18032" lon="1.31299">
        <ele>564.4</ele>
        <time>2019-02-12T05:51:54Z</time>
      </trkpt>
      <trkpt lat="42.1803" lon="1.31285">
        <ele>564.4</ele>
        <time>2019-02-12T05:52:00Z</time>
      </trkpt>
      <trkpt lat="42.1803" lon="1.3127">
        <ele>565.4</ele>
        <time>2019-02-12T05:52:07Z</time>
      </trkpt>
      <trkpt lat="42.18024" lon="1.31258">
        <ele>565.8</ele>
        <time>2019-02-12T05:52:12Z</time>
      </trkpt>
      <trkpt lat="42.18019" lon="1.31246">
        <ele>565.5</ele>
        <time>2019-02-12T05:52:18Z</time>
      </trkpt>
      <trkpt lat="42.18014" lon="1.31233">
        <ele>564.5</ele>
        <time>2019-02-12T05:52:24Z</time>
      </trkpt>
      <trkpt lat="42.18012" lon="1.31223">
        <ele>565.4</ele>
        <time>2019-02-12T05:52:29Z</time>
      </trkpt>
      <trkpt lat="42.18002" lon="1.3122">
        <ele>565.4</ele>
        <time>2019-02-12T05:52:35Z</time>
      </trkpt>
      <trkpt lat="42.17997" lon="1.31229">
        <ele>564.4</ele>
        <time>2019-02-12T05:52:40Z</time>
      </trkpt>
      <trkpt lat="42.18" lon="1.31241">
        <ele>566.4</ele>
        <time>2019-02-12T05:52:45Z</time>
      </trkpt>
      <trkpt lat="42.18001" lon="1.31256">
        <ele>565.1</ele>
        <time>2019-02-12T05:52:51Z</time>
      </trkpt>
      <trkpt lat="42.17999" lon="1.31267">
        <ele>565</ele>
        <time>2019-02-12T05:52:56Z</time>
      </trkpt>
      <trkpt lat="42.17994" lon="1.31281">
        <ele>563.1</ele>
        <time>2019-02-12T05:53:03Z</time>
      </trkpt>
      <trkpt lat="42.17987" lon="1.31289">
        <ele>562.6</ele>
        <time>2019-02-12T05:53:08Z</time>
      </trkpt>
      <trkpt lat="42.17981" lon="1.31297">
        <ele>562</ele>
        <time>2019-02-12T05:53:13Z</time>
      </trkpt>
      <trkpt lat="42.17974" lon="1.31308">
        <ele>562.1</ele>
        <time>2019-02-12T05:53:19Z</time>
      </trkpt>
      <trkpt lat="42.17965" lon="1.31315">
        <ele>563.1</ele>
        <time>2019-02-12T05:53:25Z</time>
      </trkpt>
      <trkpt lat="42.17956" lon="1.31321">
        <ele>563.1</ele>
        <time>2019-02-12T05:53:30Z</time>
      </trkpt>
      <trkpt lat="42.17948" lon="1.3133">
        <ele>565</ele>
        <time>2019-02-12T05:53:37Z</time>
      </trkpt>
      <trkpt lat="42.17942" lon="1.31343">
        <ele>565.4</ele>
        <time>2019-02-12T05:53:43Z</time>
      </trkpt>
      <trkpt lat="42.17932" lon="1.31355">
        <ele>567.4</ele>
        <time>2019-02-12T05:53:50Z</time>
      </trkpt>
      <trkpt lat="42.17922" lon="1.31362">
        <ele>570.3</ele>
        <time>2019-02-12T05:53:57Z</time>
      </trkpt>
      <trkpt lat="42.17914" lon="1.31366">
        <ele>573.7</ele>
        <time>2019-02-12T05:54:02Z</time>
      </trkpt>
      <trkpt lat="42.17904" lon="1.31371">
        <ele>578.9</ele>
        <time>2019-02-12T05:54:08Z</time>
      </trkpt>
      <trkpt lat="42.17895" lon="1.31376">
        <ele>582.2</ele>
        <time>2019-02-12T05:54:14Z</time>
      </trkpt>
      <trkpt lat="42.17886" lon="1.31384">
        <ele>585.1</ele>
        <time>2019-02-12T05:54:20Z</time>
      </trkpt>
      <trkpt lat="42.17881" lon="1.31396">
        <ele>587.1</ele>
        <time>2019-02-12T05:54:25Z</time>
      </trkpt>
      <trkpt lat="42.17878" lon="1.31409">
        <ele>587.7</ele>
        <time>2019-02-12T05:54:31Z</time>
      </trkpt>
      <trkpt lat="42.17873" lon="1.31426">
        <ele>588.1</ele>
        <time>2019-02-12T05:54:39Z</time>
      </trkpt>
      <trkpt lat="42.17865" lon="1.31439">
        <ele>588.5</ele>
        <time>2019-02-12T05:54:46Z</time>
      </trkpt>
      <trkpt lat="42.17857" lon="1.31452">
        <ele>589</ele>
        <time>2019-02-12T05:54:53Z</time>
      </trkpt>
      <trkpt lat="42.1785" lon="1.31466">
        <ele>589.4</ele>
        <time>2019-02-12T05:55:00Z</time>
      </trkpt>
      <trkpt lat="42.17843" lon="1.3148">
        <ele>590.5</ele>
        <time>2019-02-12T05:55:08Z</time>
      </trkpt>
      <trkpt lat="42.17837" lon="1.3149">
        <ele>591.5</ele>
        <time>2019-02-12T05:55:13Z</time>
      </trkpt>
      <trkpt lat="42.17828" lon="1.31503">
        <ele>591.8</ele>
        <time>2019-02-12T05:55:20Z</time>
      </trkpt>
      <trkpt lat="42.1782" lon="1.31515">
        <ele>592.5</ele>
        <time>2019-02-12T05:55:27Z</time>
      </trkpt>
      <trkpt lat="42.1788" lon="1.31374">
        <ele>625.1</ele>
        <time>2019-02-12T07:35:52Z</time>
      </trkpt>
      <trkpt lat="42.17887" lon="1.31362">
        <ele>623.4</ele>
        <time>2019-02-12T07:35:58Z</time>
      </trkpt>
      <trkpt lat="42.1789" lon="1.31349">
        <ele>623.1</ele>
        <time>2019-02-12T07:36:04Z</time>
      </trkpt>
      <trkpt lat="42.17894" lon="1.31339">
        <ele>622.6</ele>
        <time>2019-02-12T07:36:09Z</time>
      </trkpt>
      <trkpt lat="42.17895" lon="1.31319">
        <ele>623.9</ele>
        <time>2019-02-12T07:36:17Z</time>
      </trkpt>
      <trkpt lat="42.17896" lon="1.31293">
        <ele>626.3</ele>
        <time>2019-02-12T07:36:28Z</time>
      </trkpt>
      <trkpt lat="42.17897" lon="1.31276">
        <ele>626.6</ele>
        <time>2019-02-12T07:36:35Z</time>
      </trkpt>
      <trkpt lat="42.179" lon="1.31261">
        <ele>625.8</ele>
        <time>2019-02-12T07:36:42Z</time>
      </trkpt>
      <trkpt lat="42.17899" lon="1.31227">
        <ele>627.4</ele>
        <time>2019-02-12T07:36:56Z</time>
      </trkpt>
      <trkpt lat="42.17895" lon="1.31218">
        <ele>629.6</ele>
        <time>2019-02-12T07:37:01Z</time>
      </trkpt>
      <trkpt lat="42.17892" lon="1.31204">
        <ele>631.6</ele>
        <time>2019-02-12T07:37:07Z</time>
      </trkpt>
      <trkpt lat="42.17887" lon="1.31187">
        <ele>633.6</ele>
        <time>2019-02-12T07:37:15Z</time>
      </trkpt>
      <trkpt lat="42.17883" lon="1.31174">
        <ele>635.5</ele>
        <time>2019-02-12T07:37:20Z</time>
      </trkpt>
      <trkpt lat="42.17882" lon="1.31152">
        <ele>635.6</ele>
        <time>2019-02-12T07:37:30Z</time>
      </trkpt>
      <trkpt lat="42.1788" lon="1.31124">
        <ele>636.1</ele>
        <time>2019-02-12T07:37:42Z</time>
      </trkpt>
      <trkpt lat="42.17875" lon="1.3109">
        <ele>638.1</ele>
        <time>2019-02-12T07:37:56Z</time>
      </trkpt>
      <trkpt lat="42.17873" lon="1.31072">
        <ele>638.6</ele>
        <time>2019-02-12T07:38:04Z</time>
      </trkpt>
      <trkpt lat="42.17874" lon="1.3106">
        <ele>638</ele>
        <time>2019-02-12T07:38:09Z</time>
      </trkpt>
      <trkpt lat="42.1787" lon="1.31047">
        <ele>639.6</ele>
        <time>2019-02-12T07:38:15Z</time>
      </trkpt>
      <trkpt lat="42.17869" lon="1.31027">
        <ele>638.9</ele>
        <time>2019-02-12T07:38:24Z</time>
      </trkpt>
      <trkpt lat="42.17862" lon="1.31007">
        <ele>641.2</ele>
        <time>2019-02-12T07:38:33Z</time>
      </trkpt>
      <trkpt lat="42.17853" lon="1.30983">
        <ele>643.9</ele>
        <time>2019-02-12T07:38:44Z</time>
      </trkpt>
      <trkpt lat="42.17831" lon="1.30892">
        <ele>648.9</ele>
        <time>2019-02-12T07:39:25Z</time>
      </trkpt>
      <trkpt lat="42.1782" lon="1.30855">
        <ele>653</ele>
        <time>2019-02-12T07:39:42Z</time>
      </trkpt>
      <trkpt lat="42.17814" lon="1.30826">
        <ele>654.4</ele>
        <time>2019-02-12T07:39:55Z</time>
      </trkpt>
      <trkpt lat="42.17806" lon="1.30795">
        <ele>656.6</ele>
        <time>2019-02-12T07:40:09Z</time>
      </trkpt>
      <trkpt lat="42.17787" lon="1.30739">
        <ele>660.1</ele>
        <time>2019-02-12T07:40:35Z</time>
      </trkpt>
      <trkpt lat="42.17773" lon="1.30696">
        <ele>657.2</ele>
        <time>2019-02-12T07:40:55Z</time>
      </trkpt>
      <trkpt lat="42.17767" lon="1.30678">
        <ele>655.7</ele>
        <time>2019-02-12T07:41:03Z</time>
      </trkpt>
      <trkpt lat="42.17758" lon="1.30625">
        <ele>649.4</ele>
        <time>2019-02-12T07:41:26Z</time>
      </trkpt>
      <trkpt lat="42.17753" lon="1.30584">
        <ele>649.9</ele>
        <time>2019-02-12T07:41:44Z</time>
      </trkpt>
      <trkpt lat="42.17749" lon="1.30546">
        <ele>650.3</ele>
        <time>2019-02-12T07:42:00Z</time>
      </trkpt>
      <trkpt lat="42.17747" lon="1.30504">
        <ele>655.8</ele>
        <time>2019-02-12T07:42:18Z</time>
      </trkpt>
      <trkpt lat="42.17751" lon="1.30482">
        <ele>659.2</ele>
        <time>2019-02-12T07:42:28Z</time>
      </trkpt>
      <trkpt lat="42.1775" lon="1.30475">
        <ele>660.3</ele>
        <time>2019-02-12T07:42:31Z</time>
      </trkpt>
      <trkpt lat="42.17744" lon="1.30475">
        <ele>659.8</ele>
        <time>2019-02-12T07:42:34Z</time>
      </trkpt>
      <trkpt lat="42.17737" lon="1.30498">
        <ele>655.8</ele>
        <time>2019-02-12T07:42:45Z</time>
      </trkpt>
      <trkpt lat="42.1773" lon="1.30541">
        <ele>649.1</ele>
        <time>2019-02-12T07:43:03Z</time>
      </trkpt>
      <trkpt lat="42.17723" lon="1.30554">
        <ele>648.3</ele>
        <time>2019-02-12T07:43:10Z</time>
      </trkpt>
      <trkpt lat="42.17727" lon="1.30519">
        <ele>652</ele>
        <time>2019-02-12T07:43:25Z</time>
      </trkpt>
      <trkpt lat="42.1773" lon="1.30495">
        <ele>656</ele>
        <time>2019-02-12T07:43:36Z</time>
      </trkpt>
      <trkpt lat="42.17741" lon="1.30453">
        <ele>662.8</ele>
        <time>2019-02-12T07:43:54Z</time>
      </trkpt>
      <trkpt lat="42.17751" lon="1.30424">
        <ele>668</ele>
        <time>2019-02-12T07:44:08Z</time>
      </trkpt>
      <trkpt lat="42.17765" lon="1.30408">
        <ele>671.3</ele>
        <time>2019-02-12T07:44:19Z</time>
      </trkpt>
      <trkpt lat="42.17776" lon="1.30381">
        <ele>676.3</ele>
        <time>2019-02-12T07:44:32Z</time>
      </trkpt>
      <trkpt lat="42.17786" lon="1.30344">
        <ele>686.3</ele>
        <time>2019-02-12T07:44:48Z</time>
      </trkpt>
      <trkpt lat="42.17799" lon="1.30326">
        <ele>689.7</ele>
        <time>2019-02-12T07:44:59Z</time>
      </trkpt>
      <trkpt lat="42.17807" lon="1.30311">
        <ele>692</ele>
        <time>2019-02-12T07:45:06Z</time>
      </trkpt>
      <trkpt lat="42.17821" lon="1.303">
        <ele>691.8</ele>
        <time>2019-02-12T07:45:16Z</time>
      </trkpt>
      <trkpt lat="42.17826" lon="1.30292">
        <ele>693</ele>
        <time>2019-02-12T07:45:20Z</time>
      </trkpt>
      <trkpt lat="42.1783" lon="1.30277">
        <ele>696.2</ele>
        <time>2019-02-12T07:45:27Z</time>
      </trkpt>
      <trkpt lat="42.1784" lon="1.30262">
        <ele>697.3</ele>
        <time>2019-02-12T07:45:35Z</time>
      </trkpt>
      <trkpt lat="42.17853" lon="1.30246">
        <ele>697</ele>
        <time>2019-02-12T07:45:46Z</time>
      </trkpt>
      <trkpt lat="42.17869" lon="1.30216">
        <ele>697</ele>
        <time>2019-02-12T07:46:01Z</time>
      </trkpt>
      <trkpt lat="42.17871" lon="1.30185">
        <ele>702.3</ele>
        <time>2019-02-12T07:46:15Z</time>
      </trkpt>
      <trkpt lat="42.17876" lon="1.30165">
        <ele>703.7</ele>
        <time>2019-02-12T07:46:23Z</time>
      </trkpt>
      <trkpt lat="42.17889" lon="1.3014">
        <ele>703.4</ele>
        <time>2019-02-12T07:46:36Z</time>
      </trkpt>
      <trkpt lat="42.17905" lon="1.30119">
        <ele>700.8</ele>
        <time>2019-02-12T07:46:49Z</time>
      </trkpt>
      <trkpt lat="42.17916" lon="1.30103">
        <ele>699.9</ele>
        <time>2019-02-12T07:46:58Z</time>
      </trkpt>
      <trkpt lat="42.17923" lon="1.30086">
        <ele>700.8</ele>
        <time>2019-02-12T07:47:07Z</time>
      </trkpt>
      <trkpt lat="42.17936" lon="1.30078">
        <ele>697</ele>
        <time>2019-02-12T07:47:15Z</time>
      </trkpt>
      <trkpt lat="42.17943" lon="1.30076">
        <ele>694.6</ele>
        <time>2019-02-12T07:47:19Z</time>
      </trkpt>
      <trkpt lat="42.17953" lon="1.3007">
        <ele>691.3</ele>
        <time>2019-02-12T07:47:25Z</time>
      </trkpt>
      <trkpt lat="42.17965" lon="1.30087">
        <ele>685.4</ele>
        <time>2019-02-12T07:47:35Z</time>
      </trkpt>
      <trkpt lat="42.17971" lon="1.30107">
        <ele>681.5</ele>
        <time>2019-02-12T07:47:44Z</time>
      </trkpt>
      <trkpt lat="42.17975" lon="1.30108">
        <ele>681.5</ele>
        <time>2019-02-12T07:47:46Z</time>
      </trkpt>
      <trkpt lat="42.17976" lon="1.30107">
        <ele>681.9</ele>
        <time>2019-02-12T07:47:47Z</time>
      </trkpt>
      <trkpt lat="42.17978" lon="1.30112">
        <ele>681</ele>
        <time>2019-02-12T07:47:50Z</time>
      </trkpt>
      <trkpt lat="42.17986" lon="1.3012">
        <ele>679.6</ele>
        <time>2019-02-12T07:47:55Z</time>
      </trkpt>
      <trkpt lat="42.18008" lon="1.30128">
        <ele>679.7</ele>
        <time>2019-02-12T07:48:09Z</time>
      </trkpt>
      <trkpt lat="42.18014" lon="1.30132">
        <ele>679.7</ele>
        <time>2019-02-12T07:48:12Z</time>
      </trkpt>
      <trkpt lat="42.18023" lon="1.3012">
        <ele>681.8</ele>
        <time>2019-02-12T07:48:20Z</time>
      </trkpt>
      <trkpt lat="42.18035" lon="1.3011">
        <ele>684.4</ele>
        <time>2019-02-12T07:48:28Z</time>
      </trkpt>
      <trkpt lat="42.18041" lon="1.30102">
        <ele>685.9</ele>
        <time>2019-02-12T07:48:32Z</time>
      </trkpt>
      <trkpt lat="42.18054" lon="1.3008">
        <ele>693</ele>
        <time>2019-02-12T07:48:44Z</time>
      </trkpt>
      <trkpt lat="42.18064" lon="1.30068">
        <ele>697.5</ele>
        <time>2019-02-12T07:48:52Z</time>
      </trkpt>
      <trkpt lat="42.18073" lon="1.30068">
        <ele>699.9</ele>
        <time>2019-02-12T07:48:57Z</time>
      </trkpt>
      <trkpt lat="42.1808" lon="1.30067">
        <ele>701.7</ele>
        <time>2019-02-12T07:49:01Z</time>
      </trkpt>
      <trkpt lat="42.18084" lon="1.30072">
        <ele>702.2</ele>
        <time>2019-02-12T07:49:04Z</time>
      </trkpt>
      <trkpt lat="42.18088" lon="1.3006">
        <ele>704.9</ele>
        <time>2019-02-12T07:49:10Z</time>
      </trkpt>
      <trkpt lat="42.18092" lon="1.30051">
        <ele>706.9</ele>
        <time>2019-02-12T07:49:14Z</time>
      </trkpt>
      <trkpt lat="42.18098" lon="1.30048">
        <ele>708.6</ele>
        <time>2019-02-12T07:49:17Z</time>
      </trkpt>
      <trkpt lat="42.181" lon="1.30052">
        <ele>708.8</ele>
        <time>2019-02-12T07:49:20Z</time>
      </trkpt>
      <trkpt lat="42.18105" lon="1.30061">
        <ele>709</ele>
        <time>2019-02-12T07:49:24Z</time>
      </trkpt>
      <trkpt lat="42.1811" lon="1.3007">
        <ele>709.5</ele>
        <time>2019-02-12T07:49:29Z</time>
      </trkpt>
      <trkpt lat="42.18117" lon="1.3007">
        <ele>711</ele>
        <time>2019-02-12T07:49:33Z</time>
      </trkpt>
      <trkpt lat="42.18137" lon="1.30082">
        <ele>715.8</ele>
        <time>2019-02-12T07:49:45Z</time>
      </trkpt>
      <trkpt lat="42.18148" lon="1.30083">
        <ele>719.1</ele>
        <time>2019-02-12T07:49:52Z</time>
      </trkpt>
      <trkpt lat="42.18158" lon="1.30083">
        <ele>722.3</ele>
        <time>2019-02-12T07:49:58Z</time>
      </trkpt>
      <trkpt lat="42.18164" lon="1.30084">
        <ele>724</ele>
        <time>2019-02-12T07:50:01Z</time>
      </trkpt>
      <trkpt lat="42.18168" lon="1.30078">
        <ele>725.7</ele>
        <time>2019-02-12T07:50:04Z</time>
      </trkpt>
      <trkpt lat="42.18168" lon="1.30067">
        <ele>726.8</ele>
        <time>2019-02-12T07:50:09Z</time>
      </trkpt>
      <trkpt lat="42.18167" lon="1.30065">
        <ele>727</ele>
        <time>2019-02-12T07:50:10Z</time>
      </trkpt>
      <trkpt lat="42.18173" lon="1.30053">
        <ele>729.9</ele>
        <time>2019-02-12T07:50:16Z</time>
      </trkpt>
      <trkpt lat="42.18178" lon="1.30048">
        <ele>731.7</ele>
        <time>2019-02-12T07:50:19Z</time>
      </trkpt>
      <trkpt lat="42.18186" lon="1.3004">
        <ele>735.5</ele>
        <time>2019-02-12T07:50:25Z</time>
      </trkpt>
      <trkpt lat="42.1819" lon="1.30042">
        <ele>736.1</ele>
        <time>2019-02-12T07:50:27Z</time>
      </trkpt>
      <trkpt lat="42.1819" lon="1.30047">
        <ele>735.8</ele>
        <time>2019-02-12T07:50:30Z</time>
      </trkpt>
      <trkpt lat="42.18193" lon="1.30049">
        <ele>736.4</ele>
        <time>2019-02-12T07:50:31Z</time>
      </trkpt>
      <trkpt lat="42.18196" lon="1.30053">
        <ele>737.1</ele>
        <time>2019-02-12T07:50:34Z</time>
      </trkpt>
      <trkpt lat="42.18199" lon="1.30051">
        <ele>738.1</ele>
        <time>2019-02-12T07:50:36Z</time>
      </trkpt>
      <trkpt lat="42.18204" lon="1.30047">
        <ele>740</ele>
        <time>2019-02-12T07:50:39Z</time>
      </trkpt>
      <trkpt lat="42.18208" lon="1.30042">
        <ele>741.8</ele>
        <time>2019-02-12T07:50:42Z</time>
      </trkpt>
      <trkpt lat="42.18212" lon="1.30036">
        <ele>745.5</ele>
        <time>2019-02-12T07:50:45Z</time>
      </trkpt>
      <trkpt lat="42.18216" lon="1.30033">
        <ele>748.9</ele>
        <time>2019-02-12T07:50:48Z</time>
      </trkpt>
      <trkpt lat="42.1822" lon="1.30028">
        <ele>752.3</ele>
        <time>2019-02-12T07:50:51Z</time>
      </trkpt>
      <trkpt lat="42.18226" lon="1.30026">
        <ele>756</ele>
        <time>2019-02-12T07:50:54Z</time>
      </trkpt>
      <trkpt lat="42.18228" lon="1.30027">
        <ele>757.4</ele>
        <time>2019-02-12T07:50:56Z</time>
      </trkpt>
      <trkpt lat="42.18237" lon="1.30036">
        <ele>760.7</ele>
        <time>2019-02-12T07:51:02Z</time>
      </trkpt>
      <trkpt lat="42.1824" lon="1.30046">
        <ele>760.6</ele>
        <time>2019-02-12T07:51:07Z</time>
      </trkpt>
      <trkpt lat="42.18242" lon="1.30051">
        <ele>761.1</ele>
        <time>2019-02-12T07:51:09Z</time>
      </trkpt>
      <trkpt lat="42.1825" lon="1.30059">
        <ele>765</ele>
        <time>2019-02-12T07:51:15Z</time>
      </trkpt>
      <trkpt lat="42.18254" lon="1.3006">
        <ele>767</ele>
        <time>2019-02-12T07:51:17Z</time>
      </trkpt>
      <trkpt lat="42.18258" lon="1.30059">
        <ele>769.8</ele>
        <time>2019-02-12T07:51:20Z</time>
      </trkpt>
      <trkpt lat="42.18262" lon="1.30065">
        <ele>770.8</ele>
        <time>2019-02-12T07:51:23Z</time>
      </trkpt>
      <trkpt lat="42.18264" lon="1.30078">
        <ele>770.4</ele>
        <time>2019-02-12T07:51:29Z</time>
      </trkpt>
      <trkpt lat="42.1827" lon="1.30093">
        <ele>771.1</ele>
        <time>2019-02-12T07:51:36Z</time>
      </trkpt>
      <trkpt lat="42.18273" lon="1.30097">
        <ele>772.1</ele>
        <time>2019-02-12T07:51:38Z</time>
      </trkpt>
      <trkpt lat="42.18278" lon="1.30101">
        <ele>773.9</ele>
        <time>2019-02-12T07:51:41Z</time>
      </trkpt>
      <trkpt lat="42.1828" lon="1.30102">
        <ele>775.3</ele>
        <time>2019-02-12T07:51:43Z</time>
      </trkpt>
      <trkpt lat="42.18282" lon="1.30103">
        <ele>776</ele>
        <time>2019-02-12T07:51:44Z</time>
      </trkpt>
      <trkpt lat="42.18284" lon="1.30113">
        <ele>775.4</ele>
        <time>2019-02-12T07:51:48Z</time>
      </trkpt>
      <trkpt lat="42.18286" lon="1.30116">
        <ele>775.8</ele>
        <time>2019-02-12T07:51:50Z</time>
      </trkpt>
      <trkpt lat="42.18289" lon="1.30123">
        <ele>776.2</ele>
        <time>2019-02-12T07:51:54Z</time>
      </trkpt>
      <trkpt lat="42.18292" lon="1.30131">
        <ele>776.2</ele>
        <time>2019-02-12T07:51:57Z</time>
      </trkpt>
      <trkpt lat="42.18294" lon="1.30139">
        <ele>776.8</ele>
        <time>2019-02-12T07:52:01Z</time>
      </trkpt>
      <trkpt lat="42.18297" lon="1.30148">
        <ele>777.4</ele>
        <time>2019-02-12T07:52:05Z</time>
      </trkpt>
      <trkpt lat="42.183" lon="1.30156">
        <ele>777.9</ele>
        <time>2019-02-12T07:52:09Z</time>
      </trkpt>
      <trkpt lat="42.18305" lon="1.30161">
        <ele>781.3</ele>
        <time>2019-02-12T07:52:12Z</time>
      </trkpt>
      <trkpt lat="42.18306" lon="1.30164">
        <ele>781.6</ele>
        <time>2019-02-12T07:52:14Z</time>
      </trkpt>
      <trkpt lat="42.18304" lon="1.30169">
        <ele>779.8</ele>
        <time>2019-02-12T07:52:16Z</time>
      </trkpt>
      <trkpt lat="42.18303" lon="1.30172">
        <ele>778.4</ele>
        <time>2019-02-12T07:52:17Z</time>
      </trkpt>
      <trkpt lat="42.18303" lon="1.30177">
        <ele>777.3</ele>
        <time>2019-02-12T07:52:19Z</time>
      </trkpt>
      <trkpt lat="42.18305" lon="1.30188">
        <ele>777.1</ele>
        <time>2019-02-12T07:52:24Z</time>
      </trkpt>
      <trkpt lat="42.18306" lon="1.30196">
        <ele>776.8</ele>
        <time>2019-02-12T07:52:28Z</time>
      </trkpt>
      <trkpt lat="42.18307" lon="1.30191">
        <ele>778.8</ele>
        <time>2019-02-12T07:52:30Z</time>
      </trkpt>
      <trkpt lat="42.1831" lon="1.3019">
        <ele>781</ele>
        <time>2019-02-12T07:52:31Z</time>
      </trkpt>
      <trkpt lat="42.18312" lon="1.3019">
        <ele>782.4</ele>
        <time>2019-02-12T07:52:32Z</time>
      </trkpt>
      <trkpt lat="42.18315" lon="1.3019">
        <ele>785.3</ele>
        <time>2019-02-12T07:52:34Z</time>
      </trkpt>
      <trkpt lat="42.1832" lon="1.30184">
        <ele>790.7</ele>
        <time>2019-02-12T07:52:38Z</time>
      </trkpt>
      <trkpt lat="42.18323" lon="1.30181">
        <ele>793.6</ele>
        <time>2019-02-12T07:52:40Z</time>
      </trkpt>
      <trkpt lat="42.18325" lon="1.30179">
        <ele>795.4</ele>
        <time>2019-02-12T07:52:42Z</time>
      </trkpt>
      <trkpt lat="42.18327" lon="1.30182">
        <ele>796.6</ele>
        <time>2019-02-12T07:52:43Z</time>
      </trkpt>
      <trkpt lat="42.1833" lon="1.3019">
        <ele>798.4</ele>
        <time>2019-02-12T07:52:47Z</time>
      </trkpt>
      <trkpt lat="42.18331" lon="1.30195">
        <ele>798.5</ele>
        <time>2019-02-12T07:52:49Z</time>
      </trkpt>
      <trkpt lat="42.18336" lon="1.302">
        <ele>801.6</ele>
        <time>2019-02-12T07:52:52Z</time>
      </trkpt>
      <trkpt lat="42.18337" lon="1.30202">
        <ele>802.7</ele>
        <time>2019-02-12T07:52:54Z</time>
      </trkpt>
      <trkpt lat="42.18339" lon="1.30208">
        <ele>803.2</ele>
        <time>2019-02-12T07:52:56Z</time>
      </trkpt>
      <trkpt lat="42.1834" lon="1.30211">
        <ele>804.9</ele>
        <time>2019-02-12T07:52:58Z</time>
      </trkpt>
      <trkpt lat="42.1834" lon="1.30215">
        <ele>805.6</ele>
        <time>2019-02-12T07:52:59Z</time>
      </trkpt>
      <trkpt lat="42.18342" lon="1.30218">
        <ele>807.7</ele>
        <time>2019-02-12T07:53:01Z</time>
      </trkpt>
      <trkpt lat="42.18344" lon="1.30219">
        <ele>809.8</ele>
        <time>2019-02-12T07:53:02Z</time>
      </trkpt>
      <trkpt lat="42.18347" lon="1.3022">
        <ele>812.1</ele>
        <time>2019-02-12T07:53:04Z</time>
      </trkpt>
      <trkpt lat="42.18348" lon="1.30222">
        <ele>813.6</ele>
        <time>2019-02-12T07:53:05Z</time>
      </trkpt>
      <trkpt lat="42.18349" lon="1.3023">
        <ele>815.6</ele>
        <time>2019-02-12T07:53:09Z</time>
      </trkpt>
      <trkpt lat="42.18348" lon="1.30233">
        <ele>814.8</ele>
        <time>2019-02-12T07:53:10Z</time>
      </trkpt>
      <trkpt lat="42.18347" lon="1.30238">
        <ele>815.1</ele>
        <time>2019-02-12T07:53:12Z</time>
      </trkpt>
      <trkpt lat="42.18347" lon="1.3024">
        <ele>815.7</ele>
        <time>2019-02-12T07:53:13Z</time>
      </trkpt>
      <trkpt lat="42.18349" lon="1.30242">
        <ele>817.4</ele>
        <time>2019-02-12T07:53:14Z</time>
      </trkpt>
      <trkpt lat="42.18353" lon="1.30245">
        <ele>820.8</ele>
        <time>2019-02-12T07:53:16Z</time>
      </trkpt>
      <trkpt lat="42.18358" lon="1.30246">
        <ele>825.6</ele>
        <time>2019-02-12T07:53:20Z</time>
      </trkpt>
      <trkpt lat="42.18362" lon="1.30248">
        <ele>829.8</ele>
        <time>2019-02-12T07:53:22Z</time>
      </trkpt>
      <trkpt lat="42.18364" lon="1.3025">
        <ele>831.6</ele>
        <time>2019-02-12T07:53:24Z</time>
      </trkpt>
      <trkpt lat="42.18369" lon="1.30252">
        <ele>836.1</ele>
        <time>2019-02-12T07:53:26Z</time>
      </trkpt>
      <trkpt lat="42.18372" lon="1.30254">
        <ele>839.1</ele>
        <time>2019-02-12T07:53:28Z</time>
      </trkpt>
      <trkpt lat="42.18375" lon="1.30255">
        <ele>842.1</ele>
        <time>2019-02-12T07:53:30Z</time>
      </trkpt>
      <trkpt lat="42.18379" lon="1.30256">
        <ele>844.5</ele>
        <time>2019-02-12T07:53:32Z</time>
      </trkpt>
      <trkpt lat="42.1838" lon="1.30253">
        <ele>845.2</ele>
        <time>2019-02-12T07:53:34Z</time>
      </trkpt>
      <trkpt lat="42.18383" lon="1.30252">
        <ele>847.1</ele>
        <time>2019-02-12T07:53:35Z</time>
      </trkpt>
      <trkpt lat="42.18384" lon="1.3025">
        <ele>847.2</ele>
        <time>2019-02-12T07:53:36Z</time>
      </trkpt>
      <trkpt lat="42.18384" lon="1.30242">
        <ele>846.6</ele>
        <time>2019-02-12T07:53:39Z</time>
      </trkpt>
      <trkpt lat="42.18385" lon="1.30238">
        <ele>846.5</ele>
        <time>2019-02-12T07:53:41Z</time>
      </trkpt>
      <trkpt lat="42.18386" lon="1.30234">
        <ele>846.5</ele>
        <time>2019-02-12T07:53:43Z</time>
      </trkpt>
      <trkpt lat="42.18385" lon="1.30231">
        <ele>845.2</ele>
        <time>2019-02-12T07:53:45Z</time>
      </trkpt>
      <trkpt lat="42.18384" lon="1.30226">
        <ele>844.1</ele>
        <time>2019-02-12T07:53:47Z</time>
      </trkpt>
      <trkpt lat="42.18385" lon="1.30219">
        <ele>843.4</ele>
        <time>2019-02-12T07:53:50Z</time>
      </trkpt>
      <trkpt lat="42.18386" lon="1.30215">
        <ele>843.5</ele>
        <time>2019-02-12T07:53:52Z</time>
      </trkpt>
      <trkpt lat="42.18386" lon="1.30211">
        <ele>843.5</ele>
        <time>2019-02-12T07:53:53Z</time>
      </trkpt>
      <trkpt lat="42.18386" lon="1.30207">
        <ele>842.9</ele>
        <time>2019-02-12T07:53:55Z</time>
      </trkpt>
      <trkpt lat="42.18386" lon="1.30203">
        <ele>843.2</ele>
        <time>2019-02-12T07:53:56Z</time>
      </trkpt>
      <trkpt lat="42.18386" lon="1.302">
        <ele>843.6</ele>
        <time>2019-02-12T07:53:58Z</time>
      </trkpt>
      <trkpt lat="42.18385" lon="1.30192">
        <ele>843.8</ele>
        <time>2019-02-12T07:54:01Z</time>
      </trkpt>
      <trkpt lat="42.18387" lon="1.30182">
        <ele>846.5</ele>
        <time>2019-02-12T07:54:06Z</time>
      </trkpt>
      <trkpt lat="42.18395" lon="1.30167">
        <ele>853.8</ele>
        <time>2019-02-12T07:54:14Z</time>
      </trkpt>
      <trkpt lat="42.18401" lon="1.30167">
        <ele>857.6</ele>
        <time>2019-02-12T07:54:17Z</time>
      </trkpt>
      <trkpt lat="42.18402" lon="1.30165">
        <ele>859</ele>
        <time>2019-02-12T07:54:18Z</time>
      </trkpt>
      <trkpt lat="42.18403" lon="1.30162">
        <ele>860.1</ele>
        <time>2019-02-12T07:54:20Z</time>
      </trkpt>
      <trkpt lat="42.18405" lon="1.30157">
        <ele>862.1</ele>
        <time>2019-02-12T07:54:22Z</time>
      </trkpt>
      <trkpt lat="42.18407" lon="1.30154">
        <ele>863.7</ele>
        <time>2019-02-12T07:54:24Z</time>
      </trkpt>
      <trkpt lat="42.18411" lon="1.30152">
        <ele>866.3</ele>
        <time>2019-02-12T07:54:26Z</time>
      </trkpt>
      <trkpt lat="42.18415" lon="1.3015">
        <ele>869.4</ele>
        <time>2019-02-12T07:54:28Z</time>
      </trkpt>
      <trkpt lat="42.18417" lon="1.30153">
        <ele>871.2</ele>
        <time>2019-02-12T07:54:30Z</time>
      </trkpt>
      <trkpt lat="42.18422" lon="1.30152">
        <ele>874.4</ele>
        <time>2019-02-12T07:54:32Z</time>
      </trkpt>
      <trkpt lat="42.18424" lon="1.3015">
        <ele>876</ele>
        <time>2019-02-12T07:54:34Z</time>
      </trkpt>
      <trkpt lat="42.18425" lon="1.30146">
        <ele>877.1</ele>
        <time>2019-02-12T07:54:36Z</time>
      </trkpt>
      <trkpt lat="42.18428" lon="1.30144">
        <ele>879.8</ele>
        <time>2019-02-12T07:54:38Z</time>
      </trkpt>
      <trkpt lat="42.18432" lon="1.30149">
        <ele>882.4</ele>
        <time>2019-02-12T07:54:41Z</time>
      </trkpt>
      <trkpt lat="42.18438" lon="1.30152">
        <ele>886.4</ele>
        <time>2019-02-12T07:54:45Z</time>
      </trkpt>
      <trkpt lat="42.18443" lon="1.30151">
        <ele>889.9</ele>
        <time>2019-02-12T07:54:47Z</time>
      </trkpt>
      <trkpt lat="42.18447" lon="1.30154">
        <ele>892.4</ele>
        <time>2019-02-12T07:54:50Z</time>
      </trkpt>
      <trkpt lat="42.1845" lon="1.30157">
        <ele>894.7</ele>
        <time>2019-02-12T07:54:52Z</time>
      </trkpt>
      <trkpt lat="42.18454" lon="1.30158">
        <ele>897.2</ele>
        <time>2019-02-12T07:54:54Z</time>
      </trkpt>
      <trkpt lat="42.18455" lon="1.30157">
        <ele>898.3</ele>
        <time>2019-02-12T07:54:55Z</time>
      </trkpt>
      <trkpt lat="42.18457" lon="1.30153">
        <ele>900.4</ele>
        <time>2019-02-12T07:54:57Z</time>
      </trkpt>
      <trkpt lat="42.18458" lon="1.30151">
        <ele>901.4</ele>
        <time>2019-02-12T07:54:58Z</time>
      </trkpt>
      <trkpt lat="42.18458" lon="1.30143">
        <ele>902</ele>
        <time>2019-02-12T07:55:02Z</time>
      </trkpt>
      <trkpt lat="42.18457" lon="1.30136">
        <ele>902.1</ele>
        <time>2019-02-12T07:55:05Z</time>
      </trkpt>
      <trkpt lat="42.18456" lon="1.30131">
        <ele>901.9</ele>
        <time>2019-02-12T07:55:07Z</time>
      </trkpt>
      <trkpt lat="42.18457" lon="1.30128">
        <ele>902.8</ele>
        <time>2019-02-12T07:55:08Z</time>
      </trkpt>
      <trkpt lat="42.18456" lon="1.30126">
        <ele>902.4</ele>
        <time>2019-02-12T07:55:09Z</time>
      </trkpt>
      <trkpt lat="42.18456" lon="1.30122">
        <ele>903.4</ele>
        <time>2019-02-12T07:55:11Z</time>
      </trkpt>
      <trkpt lat="42.18456" lon="1.30119">
        <ele>904.3</ele>
        <time>2019-02-12T07:55:12Z</time>
      </trkpt>
      <trkpt lat="42.18457" lon="1.30116">
        <ele>905.2</ele>
        <time>2019-02-12T07:55:13Z</time>
      </trkpt>
      <trkpt lat="42.1846" lon="1.30114">
        <ele>908</ele>
        <time>2019-02-12T07:55:16Z</time>
      </trkpt>
      <trkpt lat="42.18464" lon="1.30111">
        <ele>911.3</ele>
        <time>2019-02-12T07:55:18Z</time>
      </trkpt>
      <trkpt lat="42.18466" lon="1.30105">
        <ele>913.8</ele>
        <time>2019-02-12T07:55:21Z</time>
      </trkpt>
      <trkpt lat="42.18467" lon="1.30101">
        <ele>915.3</ele>
        <time>2019-02-12T07:55:23Z</time>
      </trkpt>
      <trkpt lat="42.18471" lon="1.30102">
        <ele>917.5</ele>
        <time>2019-02-12T07:55:25Z</time>
      </trkpt>
      <trkpt lat="42.18474" lon="1.30103">
        <ele>919</ele>
        <time>2019-02-12T07:55:27Z</time>
      </trkpt>
      <trkpt lat="42.18476" lon="1.30104">
        <ele>919.9</ele>
        <time>2019-02-12T07:55:28Z</time>
      </trkpt>
      <trkpt lat="42.18476" lon="1.30103">
        <ele>920.8</ele>
        <time>2019-02-12T07:55:29Z</time>
      </trkpt>
      <trkpt lat="42.18478" lon="1.30102">
        <ele>922.2</ele>
        <time>2019-02-12T07:55:30Z</time>
      </trkpt>
      <trkpt lat="42.18481" lon="1.30098">
        <ele>924.4</ele>
        <time>2019-02-12T07:55:32Z</time>
      </trkpt>
      <trkpt lat="42.18483" lon="1.30093">
        <ele>926.5</ele>
        <time>2019-02-12T07:55:34Z</time>
      </trkpt>
      <trkpt lat="42.18485" lon="1.30091">
        <ele>928.4</ele>
        <time>2019-02-12T07:55:36Z</time>
      </trkpt>
      <trkpt lat="42.1849" lon="1.30091">
        <ele>931.4</ele>
        <time>2019-02-12T07:55:39Z</time>
      </trkpt>
      <trkpt lat="42.18494" lon="1.30091">
        <ele>933.5</ele>
        <time>2019-02-12T07:55:41Z</time>
      </trkpt>
      <trkpt lat="42.18496" lon="1.3009">
        <ele>935.1</ele>
        <time>2019-02-12T07:55:42Z</time>
      </trkpt>
      <trkpt lat="42.18499" lon="1.30088">
        <ele>937.1</ele>
        <time>2019-02-12T07:55:44Z</time>
      </trkpt>
      <trkpt lat="42.18501" lon="1.30085">
        <ele>938.8</ele>
        <time>2019-02-12T07:55:46Z</time>
      </trkpt>
      <trkpt lat="42.18503" lon="1.30086">
        <ele>940.4</ele>
        <time>2019-02-12T07:55:47Z</time>
      </trkpt>
      <trkpt lat="42.18506" lon="1.30086">
        <ele>942.1</ele>
        <time>2019-02-12T07:55:49Z</time>
      </trkpt>
      <trkpt lat="42.18509" lon="1.30086">
        <ele>943.4</ele>
        <time>2019-02-12T07:55:50Z</time>
      </trkpt>
      <trkpt lat="42.1851" lon="1.30085">
        <ele>944.7</ele>
        <time>2019-02-12T07:55:51Z</time>
      </trkpt>
      <trkpt lat="42.18516" lon="1.30082">
        <ele>948.6</ele>
        <time>2019-02-12T07:55:55Z</time>
      </trkpt>
      <trkpt lat="42.18517" lon="1.3008">
        <ele>949.7</ele>
        <time>2019-02-12T07:55:56Z</time>
      </trkpt>
      <trkpt lat="42.1852" lon="1.30083">
        <ele>950.4</ele>
        <time>2019-02-12T07:55:58Z</time>
      </trkpt>
      <trkpt lat="42.18521" lon="1.30084">
        <ele>950.8</ele>
        <time>2019-02-12T07:55:58Z</time>
      </trkpt>
      <trkpt lat="42.18522" lon="1.30086">
        <ele>951.5</ele>
        <time>2019-02-12T07:56:00Z</time>
      </trkpt>
      <trkpt lat="42.18524" lon="1.30088">
        <ele>951.7</ele>
        <time>2019-02-12T07:56:01Z</time>
      </trkpt>
      <trkpt lat="42.18526" lon="1.3009">
        <ele>952.4</ele>
        <time>2019-02-12T07:56:02Z</time>
      </trkpt>
      <trkpt lat="42.18529" lon="1.30088">
        <ele>954.4</ele>
        <time>2019-02-12T07:56:04Z</time>
      </trkpt>
      <trkpt lat="42.1853" lon="1.30087">
        <ele>955.7</ele>
        <time>2019-02-12T07:56:05Z</time>
      </trkpt>
      <trkpt lat="42.18532" lon="1.30085">
        <ele>957</ele>
        <time>2019-02-12T07:56:06Z</time>
      </trkpt>
      <trkpt lat="42.18533" lon="1.30084">
        <ele>957.8</ele>
        <time>2019-02-12T07:56:07Z</time>
      </trkpt>
      <trkpt lat="42.18533" lon="1.30081">
        <ele>958.6</ele>
        <time>2019-02-12T07:56:08Z</time>
      </trkpt>
      <trkpt lat="42.18533" lon="1.30077">
        <ele>959.1</ele>
        <time>2019-02-12T07:56:10Z</time>
      </trkpt>
      <trkpt lat="42.18533" lon="1.30073">
        <ele>960.1</ele>
        <time>2019-02-12T07:56:12Z</time>
      </trkpt>
      <trkpt lat="42.18533" lon="1.30069">
        <ele>960.7</ele>
        <time>2019-02-12T07:56:13Z</time>
      </trkpt>
      <trkpt lat="42.18533" lon="1.30066">
        <ele>961.4</ele>
        <time>2019-02-12T07:56:15Z</time>
      </trkpt>
      <trkpt lat="42.18533" lon="1.30063">
        <ele>961.7</ele>
        <time>2019-02-12T07:56:16Z</time>
      </trkpt>
      <trkpt lat="42.18532" lon="1.30061">
        <ele>962.1</ele>
        <time>2019-02-12T07:56:17Z</time>
      </trkpt>
      <trkpt lat="42.18534" lon="1.30056">
        <ele>963.8</ele>
        <time>2019-02-12T07:56:19Z</time>
      </trkpt>
      <trkpt lat="42.18535" lon="1.30054">
        <ele>965.3</ele>
        <time>2019-02-12T07:56:21Z</time>
      </trkpt>
      <trkpt lat="42.18536" lon="1.30051">
        <ele>966.2</ele>
        <time>2019-02-12T07:56:22Z</time>
      </trkpt>
      <trkpt lat="42.18537" lon="1.30047">
        <ele>967.2</ele>
        <time>2019-02-12T07:56:24Z</time>
      </trkpt>
      <trkpt lat="42.18536" lon="1.30044">
        <ele>967.7</ele>
        <time>2019-02-12T07:56:25Z</time>
      </trkpt>
      <trkpt lat="42.18536" lon="1.30041">
        <ele>967.8</ele>
        <time>2019-02-12T07:56:26Z</time>
      </trkpt>
      <trkpt lat="42.18534" lon="1.30036">
        <ele>968.4</ele>
        <time>2019-02-12T07:56:29Z</time>
      </trkpt>
      <trkpt lat="42.18531" lon="1.30032">
        <ele>968.6</ele>
        <time>2019-02-12T07:56:31Z</time>
      </trkpt>
      <trkpt lat="42.1853" lon="1.30029">
        <ele>968.9</ele>
        <time>2019-02-12T07:56:32Z</time>
      </trkpt>
      <trkpt lat="42.18529" lon="1.30025">
        <ele>969.2</ele>
        <time>2019-02-12T07:56:34Z</time>
      </trkpt>
      <trkpt lat="42.18529" lon="1.30024">
        <ele>969.7</ele>
        <time>2019-02-12T07:56:35Z</time>
      </trkpt>
      <trkpt lat="42.18526" lon="1.3002">
        <ele>969.1</ele>
        <time>2019-02-12T07:56:37Z</time>
      </trkpt>
      <trkpt lat="42.18521" lon="1.30016">
        <ele>968</ele>
        <time>2019-02-12T07:56:40Z</time>
      </trkpt>
      <trkpt lat="42.18518" lon="1.30012">
        <ele>967.7</ele>
        <time>2019-02-12T07:56:42Z</time>
      </trkpt>
      <trkpt lat="42.18516" lon="1.30006">
        <ele>968</ele>
        <time>2019-02-12T07:56:45Z</time>
      </trkpt>
      <trkpt lat="42.18514" lon="1.3">
        <ele>968.6</ele>
        <time>2019-02-12T07:56:48Z</time>
      </trkpt>
      <trkpt lat="42.18512" lon="1.29994">
        <ele>969</ele>
        <time>2019-02-12T07:56:51Z</time>
      </trkpt>
      <trkpt lat="42.18511" lon="1.2999">
        <ele>969.9</ele>
        <time>2019-02-12T07:56:52Z</time>
      </trkpt>
      <trkpt lat="42.18514" lon="1.29986">
        <ele>972.6</ele>
        <time>2019-02-12T07:56:55Z</time>
      </trkpt>
      <trkpt lat="42.18518" lon="1.29985">
        <ele>975.8</ele>
        <time>2019-02-12T07:56:57Z</time>
      </trkpt>
      <trkpt lat="42.18528" lon="1.29984">
        <ele>981.8</ele>
        <time>2019-02-12T07:57:03Z</time>
      </trkpt>
      <trkpt lat="42.18535" lon="1.29984">
        <ele>986.5</ele>
        <time>2019-02-12T07:57:07Z</time>
      </trkpt>
      <trkpt lat="42.18537" lon="1.29982">
        <ele>988.2</ele>
        <time>2019-02-12T07:57:08Z</time>
      </trkpt>
      <trkpt lat="42.1854" lon="1.29981">
        <ele>990.4</ele>
        <time>2019-02-12T07:57:10Z</time>
      </trkpt>
      <trkpt lat="42.18542" lon="1.29981">
        <ele>991.3</ele>
        <time>2019-02-12T07:57:11Z</time>
      </trkpt>
      <trkpt lat="42.18541" lon="1.29976">
        <ele>992.9</ele>
        <time>2019-02-12T07:57:13Z</time>
      </trkpt>
      <trkpt lat="42.18541" lon="1.29972">
        <ele>994.3</ele>
        <time>2019-02-12T07:57:15Z</time>
      </trkpt>
      <trkpt lat="42.18541" lon="1.29968">
        <ele>995.1</ele>
        <time>2019-02-12T07:57:16Z</time>
      </trkpt>
      <trkpt lat="42.18539" lon="1.29964">
        <ele>995.5</ele>
        <time>2019-02-12T07:57:18Z</time>
      </trkpt>
      <trkpt lat="42.18538" lon="1.29958">
        <ele>996.6</ele>
        <time>2019-02-12T07:57:21Z</time>
      </trkpt>
      <trkpt lat="42.18538" lon="1.29956">
        <ele>997.3</ele>
        <time>2019-02-12T07:57:22Z</time>
      </trkpt>
      <trkpt lat="42.18538" lon="1.2995">
        <ele>999.6</ele>
        <time>2019-02-12T07:57:25Z</time>
      </trkpt>
      <trkpt lat="42.18538" lon="1.29945">
        <ele>1000.4</ele>
        <time>2019-02-12T07:57:27Z</time>
      </trkpt>
      <trkpt lat="42.18536" lon="1.29941">
        <ele>1000.2</ele>
        <time>2019-02-12T07:57:28Z</time>
      </trkpt>
      <trkpt lat="42.18533" lon="1.29936">
        <ele>999.6</ele>
        <time>2019-02-12T07:57:31Z</time>
      </trkpt>
      <trkpt lat="42.1853" lon="1.29929">
        <ele>1000.3</ele>
        <time>2019-02-12T07:57:35Z</time>
      </trkpt>
      <trkpt lat="42.1853" lon="1.29922">
        <ele>1002.5</ele>
        <time>2019-02-12T07:57:38Z</time>
      </trkpt>
      <trkpt lat="42.1853" lon="1.29915">
        <ele>1004.6</ele>
        <time>2019-02-12T07:57:41Z</time>
      </trkpt>
      <trkpt lat="42.1853" lon="1.2991">
        <ele>1006.1</ele>
        <time>2019-02-12T07:57:43Z</time>
      </trkpt>
      <trkpt lat="42.1853" lon="1.29904">
        <ele>1007.9</ele>
        <time>2019-02-12T07:57:45Z</time>
      </trkpt>
      <trkpt lat="42.18529" lon="1.29895">
        <ele>1009.9</ele>
        <time>2019-02-12T07:57:49Z</time>
      </trkpt>
      <trkpt lat="42.1853" lon="1.29892">
        <ele>1011.7</ele>
        <time>2019-02-12T07:57:51Z</time>
      </trkpt>
      <trkpt lat="42.18534" lon="1.29888">
        <ele>1014.9</ele>
        <time>2019-02-12T07:57:53Z</time>
      </trkpt>
      <trkpt lat="42.18535" lon="1.29885">
        <ele>1016.3</ele>
        <time>2019-02-12T07:57:55Z</time>
      </trkpt>
      <trkpt lat="42.1853" lon="1.29883">
        <ele>1014.3</ele>
        <time>2019-02-12T07:57:58Z</time>
      </trkpt>
      <trkpt lat="42.18528" lon="1.29876">
        <ele>1015.6</ele>
        <time>2019-02-12T07:58:01Z</time>
      </trkpt>
      <trkpt lat="42.18529" lon="1.29868">
        <ele>1018.5</ele>
        <time>2019-02-12T07:58:04Z</time>
      </trkpt>
      <trkpt lat="42.1853" lon="1.29859">
        <ele>1021.7</ele>
        <time>2019-02-12T07:58:08Z</time>
      </trkpt>
      <trkpt lat="42.18531" lon="1.29852">
        <ele>1024.8</ele>
        <time>2019-02-12T07:58:11Z</time>
      </trkpt>
      <trkpt lat="42.18531" lon="1.29846">
        <ele>1026.4</ele>
        <time>2019-02-12T07:58:13Z</time>
      </trkpt>
      <trkpt lat="42.18529" lon="1.29839">
        <ele>1027.6</ele>
        <time>2019-02-12T07:58:17Z</time>
      </trkpt>
      <trkpt lat="42.18528" lon="1.29833">
        <ele>1029.3</ele>
        <time>2019-02-12T07:58:19Z</time>
      </trkpt>
      <trkpt lat="42.18527" lon="1.29825">
        <ele>1031.2</ele>
        <time>2019-02-12T07:58:23Z</time>
      </trkpt>
      <trkpt lat="42.18525" lon="1.29817">
        <ele>1032.5</ele>
        <time>2019-02-12T07:58:26Z</time>
      </trkpt>
      <trkpt lat="42.18525" lon="1.2981">
        <ele>1034.5</ele>
        <time>2019-02-12T07:58:29Z</time>
      </trkpt>
      <trkpt lat="42.18523" lon="1.29798">
        <ele>1037.3</ele>
        <time>2019-02-12T07:58:35Z</time>
      </trkpt>
      <trkpt lat="42.18517" lon="1.2979">
        <ele>1036.8</ele>
        <time>2019-02-12T07:58:39Z</time>
      </trkpt>
      <trkpt lat="42.18513" lon="1.29782">
        <ele>1036.9</ele>
        <time>2019-02-12T07:58:43Z</time>
      </trkpt>
      <trkpt lat="42.18509" lon="1.29774">
        <ele>1037</ele>
        <time>2019-02-12T07:58:48Z</time>
      </trkpt>
      <trkpt lat="42.18508" lon="1.29767">
        <ele>1038.5</ele>
        <time>2019-02-12T07:58:51Z</time>
      </trkpt>
      <trkpt lat="42.18508" lon="1.29762">
        <ele>1039.7</ele>
        <time>2019-02-12T07:58:53Z</time>
      </trkpt>
      <trkpt lat="42.18507" lon="1.29759">
        <ele>1040.1</ele>
        <time>2019-02-12T07:58:54Z</time>
      </trkpt>
      <trkpt lat="42.18502" lon="1.29754">
        <ele>1038.8</ele>
        <time>2019-02-12T07:58:58Z</time>
      </trkpt>
      <trkpt lat="42.185" lon="1.29747">
        <ele>1039.7</ele>
        <time>2019-02-12T07:59:01Z</time>
      </trkpt>
      <trkpt lat="42.185" lon="1.29744">
        <ele>1040.1</ele>
        <time>2019-02-12T07:59:02Z</time>
      </trkpt>
      <trkpt lat="42.18496" lon="1.2974">
        <ele>1039.5</ele>
        <time>2019-02-12T07:59:05Z</time>
      </trkpt>
      <trkpt lat="42.18494" lon="1.29734">
        <ele>1039.9</ele>
        <time>2019-02-12T07:59:07Z</time>
      </trkpt>
      <trkpt lat="42.18493" lon="1.29732">
        <ele>1040.2</ele>
        <time>2019-02-12T07:59:08Z</time>
      </trkpt>
      <trkpt lat="42.18497" lon="1.29726">
        <ele>1043.4</ele>
        <time>2019-02-12T07:59:12Z</time>
      </trkpt>
      <trkpt lat="42.18499" lon="1.29724">
        <ele>1045.3</ele>
        <time>2019-02-12T07:59:13Z</time>
      </trkpt>
      <trkpt lat="42.18499" lon="1.29715">
        <ele>1047.2</ele>
        <time>2019-02-12T07:59:17Z</time>
      </trkpt>
      <trkpt lat="42.18494" lon="1.2971">
        <ele>1046.1</ele>
        <time>2019-02-12T07:59:20Z</time>
      </trkpt>
      <trkpt lat="42.18489" lon="1.29701">
        <ele>1047</ele>
        <time>2019-02-12T07:59:25Z</time>
      </trkpt>
      <trkpt lat="42.18487" lon="1.29692">
        <ele>1048.7</ele>
        <time>2019-02-12T07:59:29Z</time>
      </trkpt>
      <trkpt lat="42.18483" lon="1.29684">
        <ele>1050.1</ele>
        <time>2019-02-12T07:59:33Z</time>
      </trkpt>
      <trkpt lat="42.18476" lon="1.29672">
        <ele>1051.1</ele>
        <time>2019-02-12T07:59:40Z</time>
      </trkpt>
      <trkpt lat="42.18464" lon="1.29628">
        <ele>1061.9</ele>
        <time>2019-02-12T07:59:59Z</time>
      </trkpt>
      <trkpt lat="42.1846" lon="1.29612">
        <ele>1068.5</ele>
        <time>2019-02-12T08:00:07Z</time>
      </trkpt>
      <trkpt lat="42.18458" lon="1.29614">
        <ele>1066.8</ele>
        <time>2019-02-12T08:00:08Z</time>
      </trkpt>
      <trkpt lat="42.18455" lon="1.29614">
        <ele>1065.2</ele>
        <time>2019-02-12T08:00:10Z</time>
      </trkpt>
      <trkpt lat="42.1845" lon="1.29609">
        <ele>1065.5</ele>
        <time>2019-02-12T08:00:13Z</time>
      </trkpt>
      <trkpt lat="42.18447" lon="1.29598">
        <ele>1069.7</ele>
        <time>2019-02-12T08:00:18Z</time>
      </trkpt>
      <trkpt lat="42.18445" lon="1.2959">
        <ele>1073.3</ele>
        <time>2019-02-12T08:00:22Z</time>
      </trkpt>
      <trkpt lat="42.18443" lon="1.29588">
        <ele>1073.1</ele>
        <time>2019-02-12T08:00:23Z</time>
      </trkpt>
      <trkpt lat="42.18438" lon="1.2958">
        <ele>1075.2</ele>
        <time>2019-02-12T08:00:28Z</time>
      </trkpt>
      <trkpt lat="42.18437" lon="1.29572">
        <ele>1079</ele>
        <time>2019-02-12T08:00:31Z</time>
      </trkpt>
      <trkpt lat="42.1844" lon="1.29563">
        <ele>1085</ele>
        <time>2019-02-12T08:00:35Z</time>
      </trkpt>
      <trkpt lat="42.18443" lon="1.29561">
        <ele>1087.6</ele>
        <time>2019-02-12T08:00:37Z</time>
      </trkpt>
      <trkpt lat="42.18448" lon="1.29557">
        <ele>1091.5</ele>
        <time>2019-02-12T08:00:41Z</time>
      </trkpt>
      <trkpt lat="42.18454" lon="1.29556">
        <ele>1094.8</ele>
        <time>2019-02-12T08:00:44Z</time>
      </trkpt>
      <trkpt lat="42.18458" lon="1.29554">
        <ele>1097.8</ele>
        <time>2019-02-12T08:00:47Z</time>
      </trkpt>
      <trkpt lat="42.18462" lon="1.29554">
        <ele>1099</ele>
        <time>2019-02-12T08:00:49Z</time>
      </trkpt>
      <trkpt lat="42.18465" lon="1.29553">
        <ele>1100.4</ele>
        <time>2019-02-12T08:00:51Z</time>
      </trkpt>
      <trkpt lat="42.1847" lon="1.29545">
        <ele>1105.9</ele>
        <time>2019-02-12T08:00:55Z</time>
      </trkpt>
      <trkpt lat="42.18471" lon="1.29538">
        <ele>1108.5</ele>
        <time>2019-02-12T08:00:58Z</time>
      </trkpt>
      <trkpt lat="42.18475" lon="1.29536">
        <ele>1110.1</ele>
        <time>2019-02-12T08:01:00Z</time>
      </trkpt>
      <trkpt lat="42.1848" lon="1.29532">
        <ele>1112.3</ele>
        <time>2019-02-12T08:01:04Z</time>
      </trkpt>
      <trkpt lat="42.18483" lon="1.29529">
        <ele>1113.8</ele>
        <time>2019-02-12T08:01:06Z</time>
      </trkpt>
      <trkpt lat="42.18491" lon="1.29531">
        <ele>1115.6</ele>
        <time>2019-02-12T08:01:11Z</time>
      </trkpt>
      <trkpt lat="42.18495" lon="1.29536">
        <ele>1115.6</ele>
        <time>2019-02-12T08:01:13Z</time>
      </trkpt>
      <trkpt lat="42.18497" lon="1.29543">
        <ele>1114.8</ele>
        <time>2019-02-12T08:01:17Z</time>
      </trkpt>
      <trkpt lat="42.18501" lon="1.29548">
        <ele>1113.3</ele>
        <time>2019-02-12T08:01:20Z</time>
      </trkpt>
      <trkpt lat="42.18504" lon="1.29555">
        <ele>1111.1</ele>
        <time>2019-02-12T08:01:23Z</time>
      </trkpt>
      <trkpt lat="42.18508" lon="1.29561">
        <ele>1109.6</ele>
        <time>2019-02-12T08:01:26Z</time>
      </trkpt>
      <trkpt lat="42.18512" lon="1.2957">
        <ele>1106.9</ele>
        <time>2019-02-12T08:01:31Z</time>
      </trkpt>
      <trkpt lat="42.18517" lon="1.29569">
        <ele>1109.5</ele>
        <time>2019-02-12T08:01:34Z</time>
      </trkpt>
      <trkpt lat="42.18525" lon="1.29569">
        <ele>1112</ele>
        <time>2019-02-12T08:01:39Z</time>
      </trkpt>
      <trkpt lat="42.18531" lon="1.29575">
        <ele>1111</ele>
        <time>2019-02-12T08:01:43Z</time>
      </trkpt>
      <trkpt lat="42.18535" lon="1.29574">
        <ele>1113.1</ele>
        <time>2019-02-12T08:01:45Z</time>
      </trkpt>
      <trkpt lat="42.1854" lon="1.29567">
        <ele>1117.7</ele>
        <time>2019-02-12T08:01:50Z</time>
      </trkpt>
      <trkpt lat="42.18546" lon="1.29561">
        <ele>1120.8</ele>
        <time>2019-02-12T08:01:54Z</time>
      </trkpt>
      <trkpt lat="42.18552" lon="1.29555">
        <ele>1124.2</ele>
        <time>2019-02-12T08:01:58Z</time>
      </trkpt>
      <trkpt lat="42.18556" lon="1.29551">
        <ele>1126.1</ele>
        <time>2019-02-12T08:02:01Z</time>
      </trkpt>
      <trkpt lat="42.1856" lon="1.29553">
        <ele>1125.8</ele>
        <time>2019-02-12T08:02:03Z</time>
      </trkpt>
      <trkpt lat="42.18567" lon="1.29552">
        <ele>1127.1</ele>
        <time>2019-02-12T08:02:08Z</time>
      </trkpt>
      <trkpt lat="42.18572" lon="1.2955">
        <ele>1128.3</ele>
        <time>2019-02-12T08:02:10Z</time>
      </trkpt>
      <trkpt lat="42.18577" lon="1.29548">
        <ele>1129.3</ele>
        <time>2019-02-12T08:02:13Z</time>
      </trkpt>
      <trkpt lat="42.18584" lon="1.2955">
        <ele>1129.4</ele>
        <time>2019-02-12T08:02:17Z</time>
      </trkpt>
      <trkpt lat="42.18589" lon="1.29553">
        <ele>1129.2</ele>
        <time>2019-02-12T08:02:20Z</time>
      </trkpt>
      <trkpt lat="42.18595" lon="1.29555">
        <ele>1129.1</ele>
        <time>2019-02-12T08:02:24Z</time>
      </trkpt>
      <trkpt lat="42.18601" lon="1.29557">
        <ele>1129.5</ele>
        <time>2019-02-12T08:02:28Z</time>
      </trkpt>
      <trkpt lat="42.18606" lon="1.29553">
        <ele>1131</ele>
        <time>2019-02-12T08:02:31Z</time>
      </trkpt>
      <trkpt lat="42.18609" lon="1.29549">
        <ele>1132.5</ele>
        <time>2019-02-12T08:02:33Z</time>
      </trkpt>
      <trkpt lat="42.18617" lon="1.29542">
        <ele>1135.2</ele>
        <time>2019-02-12T08:02:39Z</time>
      </trkpt>
      <trkpt lat="42.18626" lon="1.29536">
        <ele>1136.9</ele>
        <time>2019-02-12T08:02:44Z</time>
      </trkpt>
      <trkpt lat="42.18635" lon="1.29529">
        <ele>1137.9</ele>
        <time>2019-02-12T08:02:51Z</time>
      </trkpt>
      <trkpt lat="42.18641" lon="1.29525">
        <ele>1138.5</ele>
        <time>2019-02-12T08:02:55Z</time>
      </trkpt>
      <trkpt lat="42.18645" lon="1.29521">
        <ele>1139</ele>
        <time>2019-02-12T08:02:57Z</time>
      </trkpt>
      <trkpt lat="42.1865" lon="1.29509">
        <ele>1140.6</ele>
        <time>2019-02-12T08:03:03Z</time>
      </trkpt>
      <trkpt lat="42.18653" lon="1.29502">
        <ele>1141.6</ele>
        <time>2019-02-12T08:03:06Z</time>
      </trkpt>
      <trkpt lat="42.18662" lon="1.2949">
        <ele>1143.2</ele>
        <time>2019-02-12T08:03:14Z</time>
      </trkpt>
      <trkpt lat="42.18665" lon="1.29482">
        <ele>1144.2</ele>
        <time>2019-02-12T08:03:17Z</time>
      </trkpt>
      <trkpt lat="42.18668" lon="1.29476">
        <ele>1145.1</ele>
        <time>2019-02-12T08:03:21Z</time>
      </trkpt>
      <trkpt lat="42.18672" lon="1.29472">
        <ele>1145.7</ele>
        <time>2019-02-12T08:03:23Z</time>
      </trkpt>
      <trkpt lat="42.18678" lon="1.2947">
        <ele>1145.9</ele>
        <time>2019-02-12T08:03:27Z</time>
      </trkpt>
      <trkpt lat="42.18684" lon="1.29468">
        <ele>1146</ele>
        <time>2019-02-12T08:03:30Z</time>
      </trkpt>
      <trkpt lat="42.1869" lon="1.29469">
        <ele>1145.7</ele>
        <time>2019-02-12T08:03:34Z</time>
      </trkpt>
      <trkpt lat="42.18697" lon="1.2947">
        <ele>1145.6</ele>
        <time>2019-02-12T08:03:38Z</time>
      </trkpt>
      <trkpt lat="42.18704" lon="1.29467">
        <ele>1146</ele>
        <time>2019-02-12T08:03:42Z</time>
      </trkpt>
      <trkpt lat="42.18706" lon="1.29466">
        <ele>1146.1</ele>
        <time>2019-02-12T08:03:43Z</time>
      </trkpt>
      <trkpt lat="42.18735" lon="1.29458">
        <ele>1145.2</ele>
        <time>2019-02-12T08:04:00Z</time>
      </trkpt>
      <trkpt lat="42.18757" lon="1.2945">
        <ele>1143.4</ele>
        <time>2019-02-12T08:04:13Z</time>
      </trkpt>
      <trkpt lat="42.18771" lon="1.29446">
        <ele>1142.1</ele>
        <time>2019-02-12T08:04:21Z</time>
      </trkpt>
      <trkpt lat="42.18779" lon="1.29438">
        <ele>1141.1</ele>
        <time>2019-02-12T08:04:27Z</time>
      </trkpt>
      <trkpt lat="42.18799" lon="1.29416">
        <ele>1139</ele>
        <time>2019-02-12T08:04:41Z</time>
      </trkpt>
      <trkpt lat="42.18813" lon="1.29392">
        <ele>1137.5</ele>
        <time>2019-02-12T08:04:54Z</time>
      </trkpt>
      <trkpt lat="42.18824" lon="1.29374">
        <ele>1135.8</ele>
        <time>2019-02-12T08:05:04Z</time>
      </trkpt>
      <trkpt lat="42.18825" lon="1.29361">
        <ele>1134.8</ele>
        <time>2019-02-12T08:05:10Z</time>
      </trkpt>
      <trkpt lat="42.18826" lon="1.29353">
        <ele>1134.2</ele>
        <time>2019-02-12T08:05:13Z</time>
      </trkpt>
      <trkpt lat="42.18838" lon="1.29341">
        <ele>1132.5</ele>
        <time>2019-02-12T08:05:22Z</time>
      </trkpt>
      <trkpt lat="42.18845" lon="1.29338">
        <ele>1131.5</ele>
        <time>2019-02-12T08:05:26Z</time>
      </trkpt>
      <trkpt lat="42.18855" lon="1.29325">
        <ele>1129.4</ele>
        <time>2019-02-12T08:05:34Z</time>
      </trkpt>
      <trkpt lat="42.18866" lon="1.29321">
        <ele>1127.9</ele>
        <time>2019-02-12T08:05:41Z</time>
      </trkpt>
      <trkpt lat="42.1887" lon="1.29299">
        <ele>1124.6</ele>
        <time>2019-02-12T08:05:50Z</time>
      </trkpt>
      <trkpt lat="42.18877" lon="1.29284">
        <ele>1122.5</ele>
        <time>2019-02-12T08:05:58Z</time>
      </trkpt>
      <trkpt lat="42.18906" lon="1.29255">
        <ele>1120.6</ele>
        <time>2019-02-12T08:06:18Z</time>
      </trkpt>
      <trkpt lat="42.18921" lon="1.29243">
        <ele>1119.3</ele>
        <time>2019-02-12T08:06:28Z</time>
      </trkpt>
      <trkpt lat="42.18936" lon="1.29224">
        <ele>1116.8</ele>
        <time>2019-02-12T08:06:40Z</time>
      </trkpt>
      <trkpt lat="42.18946" lon="1.29218">
        <ele>1115.8</ele>
        <time>2019-02-12T08:06:47Z</time>
      </trkpt>
      <trkpt lat="42.1896" lon="1.29219">
        <ele>1116</ele>
        <time>2019-02-12T08:06:55Z</time>
      </trkpt>
      <trkpt lat="42.18986" lon="1.2919">
        <ele>1114.7</ele>
        <time>2019-02-12T08:07:14Z</time>
      </trkpt>
      <trkpt lat="42.19001" lon="1.29182">
        <ele>1115.3</ele>
        <time>2019-02-12T08:07:23Z</time>
      </trkpt>
      <trkpt lat="42.19007" lon="1.29167">
        <ele>1113.9</ele>
        <time>2019-02-12T08:07:30Z</time>
      </trkpt>
      <trkpt lat="42.19019" lon="1.29161">
        <ele>1114.4</ele>
        <time>2019-02-12T08:07:38Z</time>
      </trkpt>
      <trkpt lat="42.19039" lon="1.29147">
        <ele>1114.9</ele>
        <time>2019-02-12T08:07:51Z</time>
      </trkpt>
      <trkpt lat="42.19043" lon="1.2914">
        <ele>1114.3</ele>
        <time>2019-02-12T08:07:54Z</time>
      </trkpt>
      <trkpt lat="42.19046" lon="1.29119">
        <ele>1111.5</ele>
        <time>2019-02-12T08:08:03Z</time>
      </trkpt>
      <trkpt lat="42.19042" lon="1.29103">
        <ele>1107.7</ele>
        <time>2019-02-12T08:08:11Z</time>
      </trkpt>
      <trkpt lat="42.19051" lon="1.29085">
        <ele>1106</ele>
        <time>2019-02-12T08:08:20Z</time>
      </trkpt>
      <trkpt lat="42.19067" lon="1.29067">
        <ele>1105.5</ele>
        <time>2019-02-12T08:08:31Z</time>
      </trkpt>
      <trkpt lat="42.19081" lon="1.29056">
        <ele>1106.4</ele>
        <time>2019-02-12T08:08:41Z</time>
      </trkpt>
      <trkpt lat="42.19098" lon="1.29038">
        <ele>1107.4</ele>
        <time>2019-02-12T08:08:53Z</time>
      </trkpt>
      <trkpt lat="42.1911" lon="1.29025">
        <ele>1109.4</ele>
        <time>2019-02-12T08:09:02Z</time>
      </trkpt>
      <trkpt lat="42.19115" lon="1.29008">
        <ele>1109.9</ele>
        <time>2019-02-12T08:09:10Z</time>
      </trkpt>
      <trkpt lat="42.19125" lon="1.28993">
        <ele>1112</ele>
        <time>2019-02-12T08:09:19Z</time>
      </trkpt>
      <trkpt lat="42.19129" lon="1.28982">
        <ele>1111.9</ele>
        <time>2019-02-12T08:09:24Z</time>
      </trkpt>
      <trkpt lat="42.19134" lon="1.28952">
        <ele>1111.2</ele>
        <time>2019-02-12T08:09:37Z</time>
      </trkpt>
      <trkpt lat="42.19144" lon="1.28909">
        <ele>1109.4</ele>
        <time>2019-02-12T08:09:56Z</time>
      </trkpt>
      <trkpt lat="42.1915" lon="1.28894">
        <ele>1108.7</ele>
        <time>2019-02-12T08:10:03Z</time>
      </trkpt>
      <trkpt lat="42.19146" lon="1.28837">
        <ele>1106.8</ele>
        <time>2019-02-12T08:10:27Z</time>
      </trkpt>
      <trkpt lat="42.19152" lon="1.28819">
        <ele>1106.3</ele>
        <time>2019-02-12T08:10:36Z</time>
      </trkpt>
      <trkpt lat="42.19162" lon="1.28801">
        <ele>1105.9</ele>
        <time>2019-02-12T08:10:45Z</time>
      </trkpt>
      <trkpt lat="42.19173" lon="1.28764">
        <ele>1101.5</ele>
        <time>2019-02-12T08:11:02Z</time>
      </trkpt>
      <trkpt lat="42.19178" lon="1.2874">
        <ele>1097.7</ele>
        <time>2019-02-12T08:11:13Z</time>
      </trkpt>
      <trkpt lat="42.19185" lon="1.28718">
        <ele>1094</ele>
        <time>2019-02-12T08:11:23Z</time>
      </trkpt>
      <trkpt lat="42.19178" lon="1.2869">
        <ele>1090.2</ele>
        <time>2019-02-12T08:11:35Z</time>
      </trkpt>
      <trkpt lat="42.19165" lon="1.28622">
        <ele>1080</ele>
        <time>2019-02-12T08:12:05Z</time>
      </trkpt>
      <trkpt lat="42.19155" lon="1.28566">
        <ele>1068.8</ele>
        <time>2019-02-12T08:12:29Z</time>
      </trkpt>
      <trkpt lat="42.19153" lon="1.28554">
        <ele>1066.1</ele>
        <time>2019-02-12T08:12:35Z</time>
      </trkpt>
      <trkpt lat="42.19162" lon="1.28526">
        <ele>1061.1</ele>
        <time>2019-02-12T08:12:47Z</time>
      </trkpt>
      <trkpt lat="42.19171" lon="1.28491">
        <ele>1055.1</ele>
        <time>2019-02-12T08:13:03Z</time>
      </trkpt>
      <trkpt lat="42.19183" lon="1.2846">
        <ele>1051.5</ele>
        <time>2019-02-12T08:13:18Z</time>
      </trkpt>
      <trkpt lat="42.19186" lon="1.2844">
        <ele>1048.2</ele>
        <time>2019-02-12T08:13:27Z</time>
      </trkpt>
      <trkpt lat="42.19197" lon="1.28419">
        <ele>1046.1</ele>
        <time>2019-02-12T08:13:38Z</time>
      </trkpt>
      <trkpt lat="42.19194" lon="1.28397">
        <ele>1041.4</ele>
        <time>2019-02-12T08:13:47Z</time>
      </trkpt>
      <trkpt lat="42.19208" lon="1.28376">
        <ele>1039.9</ele>
        <time>2019-02-12T08:13:59Z</time>
      </trkpt>
      <trkpt lat="42.19213" lon="1.28364">
        <ele>1038.1</ele>
        <time>2019-02-12T08:14:04Z</time>
      </trkpt>
      <trkpt lat="42.19225" lon="1.28352">
        <ele>1036.2</ele>
        <time>2019-02-12T08:14:13Z</time>
      </trkpt>
      <trkpt lat="42.1923" lon="1.28331">
        <ele>1032.2</ele>
        <time>2019-02-12T08:14:22Z</time>
      </trkpt>
      <trkpt lat="42.19251" lon="1.28309">
        <ele>1028.9</ele>
        <time>2019-02-12T08:14:38Z</time>
      </trkpt>
      <trkpt lat="42.19268" lon="1.28285">
        <ele>1026.6</ele>
        <time>2019-02-12T08:14:52Z</time>
      </trkpt>
      <trkpt lat="42.19284" lon="1.28264">
        <ele>1027.4</ele>
        <time>2019-02-12T08:15:04Z</time>
      </trkpt>
      <trkpt lat="42.19292" lon="1.28246">
        <ele>1027.5</ele>
        <time>2019-02-12T08:15:13Z</time>
      </trkpt>
      <trkpt lat="42.19296" lon="1.2823">
        <ele>1027.2</ele>
        <time>2019-02-12T08:15:20Z</time>
      </trkpt>
      <trkpt lat="42.19307" lon="1.28209">
        <ele>1026.4</ele>
        <time>2019-02-12T08:15:31Z</time>
      </trkpt>
      <trkpt lat="42.19306" lon="1.28185">
        <ele>1029.2</ele>
        <time>2019-02-12T08:15:41Z</time>
      </trkpt>
      <trkpt lat="42.193" lon="1.2817">
        <ele>1031.6</ele>
        <time>2019-02-12T08:15:48Z</time>
      </trkpt>
      <trkpt lat="42.19302" lon="1.28144">
        <ele>1034.9</ele>
        <time>2019-02-12T08:16:00Z</time>
      </trkpt>
      <trkpt lat="42.19303" lon="1.2813">
        <ele>1036.4</ele>
        <time>2019-02-12T08:16:06Z</time>
      </trkpt>
      <trkpt lat="42.19299" lon="1.28104">
        <ele>1039</ele>
        <time>2019-02-12T08:16:17Z</time>
      </trkpt>
      <trkpt lat="42.19306" lon="1.28075">
        <ele>1039.2</ele>
        <time>2019-02-12T08:16:30Z</time>
      </trkpt>
      <trkpt lat="42.19312" lon="1.28028">
        <ele>1041.3</ele>
        <time>2019-02-12T08:16:50Z</time>
      </trkpt>
      <trkpt lat="42.19307" lon="1.27957">
        <ele>1051.6</ele>
        <time>2019-02-12T08:17:20Z</time>
      </trkpt>
      <trkpt lat="42.19305" lon="1.2792">
        <ele>1054.2</ele>
        <time>2019-02-12T08:17:36Z</time>
      </trkpt>
      <trkpt lat="42.19306" lon="1.27898">
        <ele>1054.9</ele>
        <time>2019-02-12T08:17:45Z</time>
      </trkpt>
      <trkpt lat="42.19314" lon="1.27873">
        <ele>1053.7</ele>
        <time>2019-02-12T08:17:57Z</time>
      </trkpt>
      <trkpt lat="42.19316" lon="1.27857">
        <ele>1052.3</ele>
        <time>2019-02-12T08:18:04Z</time>
      </trkpt>
      <trkpt lat="42.19296" lon="1.27772">
        <ele>1053.9</ele>
        <time>2019-02-12T08:18:42Z</time>
      </trkpt>
      <trkpt lat="42.19295" lon="1.27743">
        <ele>1055.5</ele>
        <time>2019-02-12T08:18:54Z</time>
      </trkpt>
      <trkpt lat="42.1929" lon="1.2771">
        <ele>1058.4</ele>
        <time>2019-02-12T08:19:08Z</time>
      </trkpt>
      <trkpt lat="42.19278" lon="1.27649">
        <ele>1063</ele>
        <time>2019-02-12T08:19:35Z</time>
      </trkpt>
      <trkpt lat="42.1928" lon="1.27608">
        <ele>1063.8</ele>
        <time>2019-02-12T08:19:52Z</time>
      </trkpt>
      <trkpt lat="42.19279" lon="1.27563">
        <ele>1064.9</ele>
        <time>2019-02-12T08:20:11Z</time>
      </trkpt>
      <trkpt lat="42.19274" lon="1.27517">
        <ele>1066.7</ele>
        <time>2019-02-12T08:20:31Z</time>
      </trkpt>
      <trkpt lat="42.19279" lon="1.27485">
        <ele>1064.9</ele>
        <time>2019-02-12T08:20:45Z</time>
      </trkpt>
      <trkpt lat="42.1928" lon="1.27447">
        <ele>1064.2</ele>
        <time>2019-02-12T08:21:01Z</time>
      </trkpt>
      <trkpt lat="42.19274" lon="1.27391">
        <ele>1064.4</ele>
        <time>2019-02-12T08:21:25Z</time>
      </trkpt>
      <trkpt lat="42.19263" lon="1.27362">
        <ele>1065.3</ele>
        <time>2019-02-12T08:21:39Z</time>
      </trkpt>
      <trkpt lat="42.19261" lon="1.27286">
        <ele>1061.6</ele>
        <time>2019-02-12T08:22:11Z</time>
      </trkpt>
      <trkpt lat="42.19265" lon="1.27224">
        <ele>1058.3</ele>
        <time>2019-02-12T08:22:38Z</time>
      </trkpt>
      <trkpt lat="42.19282" lon="1.27169">
        <ele>1056.7</ele>
        <time>2019-02-12T08:23:03Z</time>
      </trkpt>
      <trkpt lat="42.1928" lon="1.2714">
        <ele>1055.4</ele>
        <time>2019-02-12T08:23:15Z</time>
      </trkpt>
      <trkpt lat="42.19263" lon="1.27092">
        <ele>1052.3</ele>
        <time>2019-02-12T08:23:38Z</time>
      </trkpt>
      <trkpt lat="42.19264" lon="1.27004">
        <ele>1050</ele>
        <time>2019-02-12T08:24:15Z</time>
      </trkpt>
      <trkpt lat="42.19267" lon="1.26944">
        <ele>1048</ele>
        <time>2019-02-12T08:24:40Z</time>
      </trkpt>
      <trkpt lat="42.1925" lon="1.26872">
        <ele>1043.6</ele>
        <time>2019-02-12T08:25:13Z</time>
      </trkpt>
      <trkpt lat="42.19247" lon="1.26853">
        <ele>1043.4</ele>
        <time>2019-02-12T08:25:21Z</time>
      </trkpt>
      <trkpt lat="42.19255" lon="1.26817">
        <ele>1043.1</ele>
        <time>2019-02-12T08:25:36Z</time>
      </trkpt>
      <trkpt lat="42.19267" lon="1.26776">
        <ele>1042.7</ele>
        <time>2019-02-12T08:25:55Z</time>
      </trkpt>
      <trkpt lat="42.19285" lon="1.26753">
        <ele>1042.2</ele>
        <time>2019-02-12T08:26:10Z</time>
      </trkpt>
      <trkpt lat="42.1929" lon="1.26562">
        <ele>1040.5</ele>
        <time>2019-02-12T08:27:30Z</time>
      </trkpt>
      <trkpt lat="42.193" lon="1.2652">
        <ele>1036</ele>
        <time>2019-02-12T08:27:49Z</time>
      </trkpt>
      <trkpt lat="42.1931" lon="1.26444">
        <ele>1027.3</ele>
        <time>2019-02-12T08:28:22Z</time>
      </trkpt>
      <trkpt lat="42.19315" lon="1.26381">
        <ele>1021.3</ele>
        <time>2019-02-12T08:28:49Z</time>
      </trkpt>
      <trkpt lat="42.19329" lon="1.26367">
        <ele>1019.6</ele>
        <time>2019-02-12T08:28:58Z</time>
      </trkpt>
      <trkpt lat="42.1934" lon="1.26355">
        <ele>1018.2</ele>
        <time>2019-02-12T08:29:07Z</time>
      </trkpt>
      <trkpt lat="42.19347" lon="1.26358">
        <ele>1018.4</ele>
        <time>2019-02-12T08:29:11Z</time>
      </trkpt>
      <trkpt lat="42.19351" lon="1.26365">
        <ele>1018.7</ele>
        <time>2019-02-12T08:29:14Z</time>
      </trkpt>
      <trkpt lat="42.19352" lon="1.26371">
        <ele>1018.9</ele>
        <time>2019-02-12T08:29:17Z</time>
      </trkpt>
      <trkpt lat="42.1935" lon="1.2638">
        <ele>1019.4</ele>
        <time>2019-02-12T08:29:21Z</time>
      </trkpt>
      <trkpt lat="42.19344" lon="1.26402">
        <ele>1020.3</ele>
        <time>2019-02-12T08:29:31Z</time>
      </trkpt>
      <trkpt lat="42.19344" lon="1.26422">
        <ele>1020.9</ele>
        <time>2019-02-12T08:29:40Z</time>
      </trkpt>
      <trkpt lat="42.19347" lon="1.26468">
        <ele>1022</ele>
        <time>2019-02-12T08:30:00Z</time>
      </trkpt>
      <trkpt lat="42.19349" lon="1.265">
        <ele>1023.6</ele>
        <time>2019-02-12T08:30:13Z</time>
      </trkpt>
      <trkpt lat="42.19348" lon="1.26524">
        <ele>1025.3</ele>
        <time>2019-02-12T08:30:23Z</time>
      </trkpt>
      <trkpt lat="42.19355" lon="1.26504">
        <ele>1022.5</ele>
        <time>2019-02-12T08:30:32Z</time>
      </trkpt>
      <trkpt lat="42.1936" lon="1.26513">
        <ele>1022</ele>
        <time>2019-02-12T08:30:37Z</time>
      </trkpt>
      <trkpt lat="42.1936" lon="1.26524">
        <ele>1022.7</ele>
        <time>2019-02-12T08:30:42Z</time>
      </trkpt>
      <trkpt lat="42.19363" lon="1.2654">
        <ele>1022.7</ele>
        <time>2019-02-12T08:30:49Z</time>
      </trkpt>
      <trkpt lat="42.1937" lon="1.26581">
        <ele>1023</ele>
        <time>2019-02-12T08:31:07Z</time>
      </trkpt>
      <trkpt lat="42.19385" lon="1.26616">
        <ele>1019</ele>
        <time>2019-02-12T08:31:24Z</time>
      </trkpt>
      <trkpt lat="42.19403" lon="1.26597">
        <ele>1010</ele>
        <time>2019-02-12T08:31:37Z</time>
      </trkpt>
      <trkpt lat="42.19419" lon="1.2659">
        <ele>1002.1</ele>
        <time>2019-02-12T08:31:47Z</time>
      </trkpt>
      <trkpt lat="42.19432" lon="1.26602">
        <ele>996.7</ele>
        <time>2019-02-12T08:31:56Z</time>
      </trkpt>
      <trkpt lat="42.19438" lon="1.26615">
        <ele>994.4</ele>
        <time>2019-02-12T08:32:02Z</time>
      </trkpt>
      <trkpt lat="42.19451" lon="1.26601">
        <ele>988</ele>
        <time>2019-02-12T08:32:12Z</time>
      </trkpt>
      <trkpt lat="42.19463" lon="1.26585">
        <ele>981.9</ele>
        <time>2019-02-12T08:32:21Z</time>
      </trkpt>
      <trkpt lat="42.1948" lon="1.26589">
        <ele>974.1</ele>
        <time>2019-02-12T08:32:32Z</time>
      </trkpt>
      <trkpt lat="42.19498" lon="1.26613">
        <ele>966.5</ele>
        <time>2019-02-12T08:32:46Z</time>
      </trkpt>
      <trkpt lat="42.19518" lon="1.26599">
        <ele>957</ele>
        <time>2019-02-12T08:32:58Z</time>
      </trkpt>
      <trkpt lat="42.19543" lon="1.26585">
        <ele>945.1</ele>
        <time>2019-02-12T08:33:14Z</time>
      </trkpt>
      <trkpt lat="42.19556" lon="1.26581">
        <ele>940.5</ele>
        <time>2019-02-12T08:33:22Z</time>
      </trkpt>
      <trkpt lat="42.19591" lon="1.26607">
        <ele>928.5</ele>
        <time>2019-02-12T08:33:44Z</time>
      </trkpt>
      <trkpt lat="42.19598" lon="1.26614">
        <ele>925.4</ele>
        <time>2019-02-12T08:33:50Z</time>
      </trkpt>
      <trkpt lat="42.19602" lon="1.26625">
        <ele>923.7</ele>
        <time>2019-02-12T08:33:55Z</time>
      </trkpt>
      <trkpt lat="42.19604" lon="1.26647">
        <ele>923.2</ele>
        <time>2019-02-12T08:34:04Z</time>
      </trkpt>
      <trkpt lat="42.196" lon="1.26666">
        <ele>925.2</ele>
        <time>2019-02-12T08:34:12Z</time>
      </trkpt>
      <trkpt lat="42.19605" lon="1.2668">
        <ele>923.1</ele>
        <time>2019-02-12T08:34:19Z</time>
      </trkpt>
      <trkpt lat="42.19599" lon="1.26704">
        <ele>926.1</ele>
        <time>2019-02-12T08:34:30Z</time>
      </trkpt>
      <trkpt lat="42.19598" lon="1.26724">
        <ele>926.1</ele>
        <time>2019-02-12T08:34:38Z</time>
      </trkpt>
      <trkpt lat="42.19599" lon="1.26743">
        <ele>924.8</ele>
        <time>2019-02-12T08:34:46Z</time>
      </trkpt>
      <trkpt lat="42.19599" lon="1.26761">
        <ele>924.2</ele>
        <time>2019-02-12T08:34:54Z</time>
      </trkpt>
      <trkpt lat="42.19602" lon="1.26781">
        <ele>922.7</ele>
        <time>2019-02-12T08:35:02Z</time>
      </trkpt>
      <trkpt lat="42.19613" lon="1.26801">
        <ele>917.3</ele>
        <time>2019-02-12T08:35:13Z</time>
      </trkpt>
      <trkpt lat="42.19625" lon="1.26826">
        <ele>911.7</ele>
        <time>2019-02-12T08:35:26Z</time>
      </trkpt>
      <trkpt lat="42.1963" lon="1.26841">
        <ele>911.1</ele>
        <time>2019-02-12T08:35:33Z</time>
      </trkpt>
      <trkpt lat="42.1964" lon="1.26847">
        <ele>910.5</ele>
        <time>2019-02-12T08:35:39Z</time>
      </trkpt>
      <trkpt lat="42.19646" lon="1.26849">
        <ele>910</ele>
        <time>2019-02-12T08:35:43Z</time>
      </trkpt>
      <trkpt lat="42.19656" lon="1.26844">
        <ele>909.7</ele>
        <time>2019-02-12T08:35:49Z</time>
      </trkpt>
      <trkpt lat="42.19662" lon="1.26843">
        <ele>909.4</ele>
        <time>2019-02-12T08:35:52Z</time>
      </trkpt>
      <trkpt lat="42.19665" lon="1.26856">
        <ele>908.6</ele>
        <time>2019-02-12T08:35:58Z</time>
      </trkpt>
      <trkpt lat="42.1968" lon="1.26905">
        <ele>905.5</ele>
        <time>2019-02-12T08:36:20Z</time>
      </trkpt>
      <trkpt lat="42.19689" lon="1.26942">
        <ele>903.3</ele>
        <time>2019-02-12T08:36:37Z</time>
      </trkpt>
      <trkpt lat="42.19692" lon="1.26959">
        <ele>902</ele>
        <time>2019-02-12T08:36:44Z</time>
      </trkpt>
      <trkpt lat="42.19699" lon="1.26971">
        <ele>900.1</ele>
        <time>2019-02-12T08:36:51Z</time>
      </trkpt>
      <trkpt lat="42.19712" lon="1.26977">
        <ele>898.6</ele>
        <time>2019-02-12T08:36:59Z</time>
      </trkpt>
      <trkpt lat="42.19732" lon="1.26966">
        <ele>902.7</ele>
        <time>2019-02-12T08:37:11Z</time>
      </trkpt>
      <trkpt lat="42.19752" lon="1.26944">
        <ele>907.6</ele>
        <time>2019-02-12T08:37:26Z</time>
      </trkpt>
      <trkpt lat="42.19763" lon="1.26937">
        <ele>910.1</ele>
        <time>2019-02-12T08:37:33Z</time>
      </trkpt>
      <trkpt lat="42.1977" lon="1.2694">
        <ele>911.1</ele>
        <time>2019-02-12T08:37:37Z</time>
      </trkpt>
      <trkpt lat="42.1978" lon="1.26958">
        <ele>912</ele>
        <time>2019-02-12T08:37:46Z</time>
      </trkpt>
      <trkpt lat="42.19792" lon="1.26975">
        <ele>912.7</ele>
        <time>2019-02-12T08:37:56Z</time>
      </trkpt>
      <trkpt lat="42.19802" lon="1.26984">
        <ele>913.6</ele>
        <time>2019-02-12T08:38:03Z</time>
      </trkpt>
      <trkpt lat="42.19812" lon="1.27001">
        <ele>913.7</ele>
        <time>2019-02-12T08:38:12Z</time>
      </trkpt>
      <trkpt lat="42.19826" lon="1.27018">
        <ele>914.5</ele>
        <time>2019-02-12T08:38:23Z</time>
      </trkpt>
      <trkpt lat="42.19849" lon="1.27043">
        <ele>916.6</ele>
        <time>2019-02-12T08:38:40Z</time>
      </trkpt>
      <trkpt lat="42.19859" lon="1.27062">
        <ele>916.8</ele>
        <time>2019-02-12T08:38:50Z</time>
      </trkpt>
      <trkpt lat="42.19862" lon="1.27075">
        <ele>916.3</ele>
        <time>2019-02-12T08:38:56Z</time>
      </trkpt>
      <trkpt lat="42.19859" lon="1.27101">
        <ele>913.6</ele>
        <time>2019-02-12T08:39:07Z</time>
      </trkpt>
      <trkpt lat="42.1986" lon="1.27128">
        <ele>911.7</ele>
        <time>2019-02-12T08:39:18Z</time>
      </trkpt>
      <trkpt lat="42.19859" lon="1.27163">
        <ele>908.9</ele>
        <time>2019-02-12T08:39:33Z</time>
      </trkpt>
      <trkpt lat="42.19872" lon="1.27191">
        <ele>908.9</ele>
        <time>2019-02-12T08:39:47Z</time>
      </trkpt>
      <trkpt lat="42.19897" lon="1.27209">
        <ele>912.9</ele>
        <time>2019-02-12T08:40:03Z</time>
      </trkpt>
      <trkpt lat="42.19903" lon="1.27224">
        <ele>913.1</ele>
        <time>2019-02-12T08:40:10Z</time>
      </trkpt>
      <trkpt lat="42.19906" lon="1.27246">
        <ele>911.9</ele>
        <time>2019-02-12T08:40:20Z</time>
      </trkpt>
      <trkpt lat="42.19917" lon="1.2728">
        <ele>911.6</ele>
        <time>2019-02-12T08:40:35Z</time>
      </trkpt>
      <trkpt lat="42.19967" lon="1.27359">
        <ele>919.2</ele>
        <time>2019-02-12T08:41:20Z</time>
      </trkpt>
      <trkpt lat="42.19983" lon="1.27404">
        <ele>919.4</ele>
        <time>2019-02-12T08:41:41Z</time>
      </trkpt>
      <trkpt lat="42.19988" lon="1.2742">
        <ele>918.5</ele>
        <time>2019-02-12T08:41:48Z</time>
      </trkpt>
      <trkpt lat="42.20007" lon="1.27438">
        <ele>922.2</ele>
        <time>2019-02-12T08:42:02Z</time>
      </trkpt>
      <trkpt lat="42.20031" lon="1.27452">
        <ele>927.7</ele>
        <time>2019-02-12T08:42:16Z</time>
      </trkpt>
      <trkpt lat="42.20043" lon="1.27478">
        <ele>927.4</ele>
        <time>2019-02-12T08:42:29Z</time>
      </trkpt>
      <trkpt lat="42.20055" lon="1.27502">
        <ele>927.8</ele>
        <time>2019-02-12T08:42:42Z</time>
      </trkpt>
      <trkpt lat="42.20089" lon="1.2752">
        <ele>935.2</ele>
        <time>2019-02-12T08:43:02Z</time>
      </trkpt>
      <trkpt lat="42.20116" lon="1.27522">
        <ele>942.9</ele>
        <time>2019-02-12T08:43:18Z</time>
      </trkpt>
      <trkpt lat="42.2013" lon="1.27528">
        <ele>945.8</ele>
        <time>2019-02-12T08:43:26Z</time>
      </trkpt>
      <trkpt lat="42.2016" lon="1.27543">
        <ele>951.7</ele>
        <time>2019-02-12T08:43:45Z</time>
      </trkpt>
      <trkpt lat="42.20166" lon="1.27556">
        <ele>951.5</ele>
        <time>2019-02-12T08:43:51Z</time>
      </trkpt>
      <trkpt lat="42.20165" lon="1.27582">
        <ele>948.1</ele>
        <time>2019-02-12T08:44:02Z</time>
      </trkpt>
      <trkpt lat="42.20169" lon="1.27597">
        <ele>946.9</ele>
        <time>2019-02-12T08:44:09Z</time>
      </trkpt>
      <trkpt lat="42.20186" lon="1.27607">
        <ele>950</ele>
        <time>2019-02-12T08:44:20Z</time>
      </trkpt>
      <trkpt lat="42.20198" lon="1.27622">
        <ele>951</ele>
        <time>2019-02-12T08:44:29Z</time>
      </trkpt>
      <trkpt lat="42.20209" lon="1.27647">
        <ele>951.3</ele>
        <time>2019-02-12T08:44:41Z</time>
      </trkpt>
      <trkpt lat="42.20221" lon="1.27655">
        <ele>951.2</ele>
        <time>2019-02-12T08:44:49Z</time>
      </trkpt>
      <trkpt lat="42.20234" lon="1.27646">
        <ele>953.6</ele>
        <time>2019-02-12T08:44:58Z</time>
      </trkpt>
      <trkpt lat="42.20268" lon="1.27618">
        <ele>963.3</ele>
        <time>2019-02-12T08:45:20Z</time>
      </trkpt>
      <trkpt lat="42.20283" lon="1.27614">
        <ele>966.7</ele>
        <time>2019-02-12T08:45:29Z</time>
      </trkpt>
      <trkpt lat="42.20302" lon="1.27624">
        <ele>967.2</ele>
        <time>2019-02-12T08:45:41Z</time>
      </trkpt>
      <trkpt lat="42.20324" lon="1.27652">
        <ele>962.4</ele>
        <time>2019-02-12T08:45:58Z</time>
      </trkpt>
      <trkpt lat="42.20337" lon="1.27672">
        <ele>958</ele>
        <time>2019-02-12T08:46:09Z</time>
      </trkpt>
      <trkpt lat="42.20352" lon="1.27696">
        <ele>952.5</ele>
        <time>2019-02-12T08:46:23Z</time>
      </trkpt>
      <trkpt lat="42.20369" lon="1.277">
        <ele>953.9</ele>
        <time>2019-02-12T08:46:33Z</time>
      </trkpt>
      <trkpt lat="42.20383" lon="1.27699">
        <ele>956.9</ele>
        <time>2019-02-12T08:46:40Z</time>
      </trkpt>
      <trkpt lat="42.20404" lon="1.27713">
        <ele>957.2</ele>
        <time>2019-02-12T08:46:54Z</time>
      </trkpt>
      <trkpt lat="42.20419" lon="1.27727">
        <ele>957.2</ele>
        <time>2019-02-12T08:47:04Z</time>
      </trkpt>
      <trkpt lat="42.20424" lon="1.27735">
        <ele>956.5</ele>
        <time>2019-02-12T08:47:09Z</time>
      </trkpt>
      <trkpt lat="42.2042" lon="1.27752">
        <ele>951.2</ele>
        <time>2019-02-12T08:47:16Z</time>
      </trkpt>
      <trkpt lat="42.20413" lon="1.27789">
        <ele>940.7</ele>
        <time>2019-02-12T08:47:32Z</time>
      </trkpt>
      <trkpt lat="42.20414" lon="1.27812">
        <ele>941.3</ele>
        <time>2019-02-12T08:47:42Z</time>
      </trkpt>
      <trkpt lat="42.20411" lon="1.27835">
        <ele>942.3</ele>
        <time>2019-02-12T08:47:52Z</time>
      </trkpt>
      <trkpt lat="42.20402" lon="1.27861">
        <ele>941.5</ele>
        <time>2019-02-12T08:48:04Z</time>
      </trkpt>
      <trkpt lat="42.20387" lon="1.27882">
        <ele>939.4</ele>
        <time>2019-02-12T08:48:16Z</time>
      </trkpt>
      <trkpt lat="42.20368" lon="1.27883">
        <ele>934.2</ele>
        <time>2019-02-12T08:48:27Z</time>
      </trkpt>
      <trkpt lat="42.20349" lon="1.27876">
        <ele>926</ele>
        <time>2019-02-12T08:48:38Z</time>
      </trkpt>
      <trkpt lat="42.20335" lon="1.27874">
        <ele>920.6</ele>
        <time>2019-02-12T08:48:47Z</time>
      </trkpt>
      <trkpt lat="42.20326" lon="1.27881">
        <ele>918.1</ele>
        <time>2019-02-12T08:48:52Z</time>
      </trkpt>
      <trkpt lat="42.20326" lon="1.27904">
        <ele>921.2</ele>
        <time>2019-02-12T08:49:02Z</time>
      </trkpt>
      <trkpt lat="42.20333" lon="1.27909">
        <ele>924.7</ele>
        <time>2019-02-12T08:49:07Z</time>
      </trkpt>
      <trkpt lat="42.20348" lon="1.27912">
        <ele>931.7</ele>
        <time>2019-02-12T08:49:16Z</time>
      </trkpt>
      <trkpt lat="42.20364" lon="1.27915">
        <ele>938.4</ele>
        <time>2019-02-12T08:49:24Z</time>
      </trkpt>
      <trkpt lat="42.20386" lon="1.27921">
        <ele>946.4</ele>
        <time>2019-02-12T08:49:37Z</time>
      </trkpt>
      <trkpt lat="42.204" lon="1.2792">
        <ele>949.3</ele>
        <time>2019-02-12T08:49:46Z</time>
      </trkpt>
      <trkpt lat="42.20399" lon="1.27918">
        <ele>948.8</ele>
        <time>2019-02-12T08:49:47Z</time>
      </trkpt>
      <trkpt lat="42.2042" lon="1.2795">
        <ele>957.3</ele>
        <time>2019-02-12T08:50:05Z</time>
      </trkpt>
      <trkpt lat="42.20434" lon="1.27983">
        <ele>957.9</ele>
        <time>2019-02-12T08:50:21Z</time>
      </trkpt>
      <trkpt lat="42.20445" lon="1.28006">
        <ele>956.7</ele>
        <time>2019-02-12T08:50:32Z</time>
      </trkpt>
      <trkpt lat="42.20462" lon="1.28014">
        <ele>959.3</ele>
        <time>2019-02-12T08:50:43Z</time>
      </trkpt>
      <trkpt lat="42.20473" lon="1.28027">
        <ele>963.6</ele>
        <time>2019-02-12T08:50:51Z</time>
      </trkpt>
      <trkpt lat="42.20487" lon="1.2805">
        <ele>966.9</ele>
        <time>2019-02-12T08:51:03Z</time>
      </trkpt>
      <trkpt lat="42.20498" lon="1.2806">
        <ele>970</ele>
        <time>2019-02-12T08:51:11Z</time>
      </trkpt>
      <trkpt lat="42.205" lon="1.28073">
        <ele>966.6</ele>
        <time>2019-02-12T08:51:17Z</time>
      </trkpt>
      <trkpt lat="42.20506" lon="1.28084">
        <ele>966.2</ele>
        <time>2019-02-12T08:51:23Z</time>
      </trkpt>
      <trkpt lat="42.20511" lon="1.28091">
        <ele>966.5</ele>
        <time>2019-02-12T08:51:27Z</time>
      </trkpt>
      <trkpt lat="42.20518" lon="1.28089">
        <ele>970.6</ele>
        <time>2019-02-12T08:51:31Z</time>
      </trkpt>
      <trkpt lat="42.20523" lon="1.28079">
        <ele>976.3</ele>
        <time>2019-02-12T08:51:36Z</time>
      </trkpt>
      <trkpt lat="42.2053" lon="1.28076">
        <ele>981</ele>
        <time>2019-02-12T08:51:40Z</time>
      </trkpt>
      <trkpt lat="42.20535" lon="1.28072">
        <ele>984.9</ele>
        <time>2019-02-12T08:51:44Z</time>
      </trkpt>
      <trkpt lat="42.20538" lon="1.28085">
        <ele>981.7</ele>
        <time>2019-02-12T08:51:49Z</time>
      </trkpt>
      <trkpt lat="42.20554" lon="1.28103">
        <ele>983.3</ele>
        <time>2019-02-12T08:52:01Z</time>
      </trkpt>
      <trkpt lat="42.20552" lon="1.2812">
        <ele>975.4</ele>
        <time>2019-02-12T08:52:08Z</time>
      </trkpt>
      <trkpt lat="42.20548" lon="1.28137">
        <ele>970.1</ele>
        <time>2019-02-12T08:52:16Z</time>
      </trkpt>
      <trkpt lat="42.20559" lon="1.28141">
        <ele>974.5</ele>
        <time>2019-02-12T08:52:22Z</time>
      </trkpt>
      <trkpt lat="42.20569" lon="1.28151">
        <ele>978.8</ele>
        <time>2019-02-12T08:52:29Z</time>
      </trkpt>
      <trkpt lat="42.2057" lon="1.28161">
        <ele>979.1</ele>
        <time>2019-02-12T08:52:34Z</time>
      </trkpt>
      <trkpt lat="42.20581" lon="1.28168">
        <ele>985.4</ele>
        <time>2019-02-12T08:52:40Z</time>
      </trkpt>
      <trkpt lat="42.20581" lon="1.28175">
        <ele>985.8</ele>
        <time>2019-02-12T08:52:43Z</time>
      </trkpt>
      <trkpt lat="42.20584" lon="1.28194">
        <ele>988.7</ele>
        <time>2019-02-12T08:52:52Z</time>
      </trkpt>
      <trkpt lat="42.20587" lon="1.28213">
        <ele>992</ele>
        <time>2019-02-12T08:53:00Z</time>
      </trkpt>
      <trkpt lat="42.20589" lon="1.28225">
        <ele>994.4</ele>
        <time>2019-02-12T08:53:05Z</time>
      </trkpt>
      <trkpt lat="42.20584" lon="1.28258">
        <ele>993.6</ele>
        <time>2019-02-12T08:53:20Z</time>
      </trkpt>
      <trkpt lat="42.20585" lon="1.28268">
        <ele>995</ele>
        <time>2019-02-12T08:53:24Z</time>
      </trkpt>
      <trkpt lat="42.20583" lon="1.28277">
        <ele>993.8</ele>
        <time>2019-02-12T08:53:28Z</time>
      </trkpt>
      <trkpt lat="42.20589" lon="1.28313">
        <ele>1001.1</ele>
        <time>2019-02-12T08:53:43Z</time>
      </trkpt>
      <trkpt lat="42.20596" lon="1.28344">
        <ele>1008.5</ele>
        <time>2019-02-12T08:53:57Z</time>
      </trkpt>
      <trkpt lat="42.20601" lon="1.28375">
        <ele>1013.2</ele>
        <time>2019-02-12T08:54:10Z</time>
      </trkpt>
      <trkpt lat="42.20597" lon="1.28406">
        <ele>1006.6</ele>
        <time>2019-02-12T08:54:24Z</time>
      </trkpt>
      <trkpt lat="42.20595" lon="1.28431">
        <ele>1003</ele>
        <time>2019-02-12T08:54:34Z</time>
      </trkpt>
      <trkpt lat="42.20598" lon="1.28465">
        <ele>1003.1</ele>
        <time>2019-02-12T08:54:49Z</time>
      </trkpt>
      <trkpt lat="42.206" lon="1.28496">
        <ele>1009.6</ele>
        <time>2019-02-12T08:55:02Z</time>
      </trkpt>
      <trkpt lat="42.20603" lon="1.28516">
        <ele>1015</ele>
        <time>2019-02-12T08:55:10Z</time>
      </trkpt>
      <trkpt lat="42.20605" lon="1.28529">
        <ele>1019.4</ele>
        <time>2019-02-12T08:55:16Z</time>
      </trkpt>
      <trkpt lat="42.20608" lon="1.2854">
        <ele>1024.3</ele>
        <time>2019-02-12T08:55:21Z</time>
      </trkpt>
      <trkpt lat="42.20606" lon="1.2855">
        <ele>1020.3</ele>
        <time>2019-02-12T08:55:26Z</time>
      </trkpt>
      <trkpt lat="42.20612" lon="1.28564">
        <ele>1022.1</ele>
        <time>2019-02-12T08:55:33Z</time>
      </trkpt>
      <trkpt lat="42.20616" lon="1.28584">
        <ele>1019.6</ele>
        <time>2019-02-12T08:55:41Z</time>
      </trkpt>
      <trkpt lat="42.20617" lon="1.28594">
        <ele>1018.2</ele>
        <time>2019-02-12T08:55:46Z</time>
      </trkpt>
      <trkpt lat="42.20616" lon="1.28607">
        <ele>1013.6</ele>
        <time>2019-02-12T08:55:51Z</time>
      </trkpt>
      <trkpt lat="42.20615" lon="1.28635">
        <ele>1005.2</ele>
        <time>2019-02-12T08:56:03Z</time>
      </trkpt>
      <trkpt lat="42.20615" lon="1.28653">
        <ele>1000.3</ele>
        <time>2019-02-12T08:56:11Z</time>
      </trkpt>
      <trkpt lat="42.20615" lon="1.28672">
        <ele>994.8</ele>
        <time>2019-02-12T08:56:19Z</time>
      </trkpt>
      <trkpt lat="42.20615" lon="1.28681">
        <ele>992.5</ele>
        <time>2019-02-12T08:56:23Z</time>
      </trkpt>
      <trkpt lat="42.20612" lon="1.28706">
        <ele>983.6</ele>
        <time>2019-02-12T08:56:34Z</time>
      </trkpt>
      <trkpt lat="42.20615" lon="1.28717">
        <ele>982.8</ele>
        <time>2019-02-12T08:56:38Z</time>
      </trkpt>
      <trkpt lat="42.2062" lon="1.28713">
        <ele>987.3</ele>
        <time>2019-02-12T08:56:42Z</time>
      </trkpt>
      <trkpt lat="42.20627" lon="1.28728">
        <ele>988.3</ele>
        <time>2019-02-12T08:56:49Z</time>
      </trkpt>
      <trkpt lat="42.20633" lon="1.28727">
        <ele>994.1</ele>
        <time>2019-02-12T08:56:53Z</time>
      </trkpt>
      <trkpt lat="42.20637" lon="1.28726">
        <ele>998.2</ele>
        <time>2019-02-12T08:56:55Z</time>
      </trkpt>
      <trkpt lat="42.2064" lon="1.28737">
        <ele>999</ele>
        <time>2019-02-12T08:57:00Z</time>
      </trkpt>
      <trkpt lat="42.20645" lon="1.28742">
        <ele>1002.5</ele>
        <time>2019-02-12T08:57:03Z</time>
      </trkpt>
      <trkpt lat="42.20648" lon="1.28738">
        <ele>1006.3</ele>
        <time>2019-02-12T08:57:06Z</time>
      </trkpt>
      <trkpt lat="42.20651" lon="1.28748">
        <ele>1008.1</ele>
        <time>2019-02-12T08:57:11Z</time>
      </trkpt>
      <trkpt lat="42.20651" lon="1.28761">
        <ele>1005.5</ele>
        <time>2019-02-12T08:57:16Z</time>
      </trkpt>
      <trkpt lat="42.20653" lon="1.28769">
        <ele>1006.8</ele>
        <time>2019-02-12T08:57:20Z</time>
      </trkpt>
      <trkpt lat="42.20659" lon="1.28764">
        <ele>1013.9</ele>
        <time>2019-02-12T08:57:24Z</time>
      </trkpt>
      <trkpt lat="42.20663" lon="1.28768">
        <ele>1017.8</ele>
        <time>2019-02-12T08:57:27Z</time>
      </trkpt>
      <trkpt lat="42.20662" lon="1.2878">
        <ele>1016.3</ele>
        <time>2019-02-12T08:57:32Z</time>
      </trkpt>
      <trkpt lat="42.20666" lon="1.28789">
        <ele>1019.4</ele>
        <time>2019-02-12T08:57:36Z</time>
      </trkpt>
      <trkpt lat="42.20669" lon="1.28801">
        <ele>1028.6</ele>
        <time>2019-02-12T08:57:41Z</time>
      </trkpt>
      <trkpt lat="42.20668" lon="1.28818">
        <ele>1037.6</ele>
        <time>2019-02-12T08:57:48Z</time>
      </trkpt>
      <trkpt lat="42.20666" lon="1.2883">
        <ele>1041.6</ele>
        <time>2019-02-12T08:57:54Z</time>
      </trkpt>
      <trkpt lat="42.20664" lon="1.28841">
        <ele>1045.2</ele>
        <time>2019-02-12T08:57:58Z</time>
      </trkpt>
      <trkpt lat="42.20666" lon="1.28847">
        <ele>1051.3</ele>
        <time>2019-02-12T08:58:01Z</time>
      </trkpt>
      <trkpt lat="42.20671" lon="1.28853">
        <ele>1060.2</ele>
        <time>2019-02-12T08:58:05Z</time>
      </trkpt>
      <trkpt lat="42.20675" lon="1.2886">
        <ele>1070.7</ele>
        <time>2019-02-12T08:58:09Z</time>
      </trkpt>
      <trkpt lat="42.20676" lon="1.28853">
        <ele>1067</ele>
        <time>2019-02-12T08:58:12Z</time>
      </trkpt>
      <trkpt lat="42.2068" lon="1.28852">
        <ele>1071.8</ele>
        <time>2019-02-12T08:58:15Z</time>
      </trkpt>
      <trkpt lat="42.20685" lon="1.2887">
        <ele>1088.4</ele>
        <time>2019-02-12T08:58:23Z</time>
      </trkpt>
      <trkpt lat="42.20688" lon="1.28884">
        <ele>1094</ele>
        <time>2019-02-12T08:58:29Z</time>
      </trkpt>
      <trkpt lat="42.20685" lon="1.28908">
        <ele>1085.9</ele>
        <time>2019-02-12T08:58:39Z</time>
      </trkpt>
      <trkpt lat="42.20684" lon="1.28923">
        <ele>1082</ele>
        <time>2019-02-12T08:58:45Z</time>
      </trkpt>
      <trkpt lat="42.2068" lon="1.28941">
        <ele>1074.1</ele>
        <time>2019-02-12T08:58:53Z</time>
      </trkpt>
      <trkpt lat="42.2068" lon="1.28952">
        <ele>1071.4</ele>
        <time>2019-02-12T08:58:58Z</time>
      </trkpt>
      <trkpt lat="42.20676" lon="1.28962">
        <ele>1065.9</ele>
        <time>2019-02-12T08:59:03Z</time>
      </trkpt>
      <trkpt lat="42.20669" lon="1.28981">
        <ele>1056.8</ele>
        <time>2019-02-12T08:59:12Z</time>
      </trkpt>
      <trkpt lat="42.20671" lon="1.2899">
        <ele>1058</ele>
        <time>2019-02-12T08:59:16Z</time>
      </trkpt>
      <trkpt lat="42.20672" lon="1.29003">
        <ele>1057.8</ele>
        <time>2019-02-12T08:59:22Z</time>
      </trkpt>
      <trkpt lat="42.20683" lon="1.29025">
        <ele>1066.2</ele>
        <time>2019-02-12T08:59:33Z</time>
      </trkpt>
      <trkpt lat="42.2069" lon="1.29038">
        <ele>1071.9</ele>
        <time>2019-02-12T08:59:40Z</time>
      </trkpt>
      <trkpt lat="42.20692" lon="1.29047">
        <ele>1073</ele>
        <time>2019-02-12T08:59:44Z</time>
      </trkpt>
      <trkpt lat="42.20711" lon="1.29053">
        <ele>1091.2</ele>
        <time>2019-02-12T08:59:55Z</time>
      </trkpt>
      <trkpt lat="42.20724" lon="1.29057">
        <ele>1099</ele>
        <time>2019-02-12T09:00:03Z</time>
      </trkpt>
      <trkpt lat="42.20728" lon="1.29067">
        <ele>1101.9</ele>
        <time>2019-02-12T09:00:07Z</time>
      </trkpt>
      <trkpt lat="42.20733" lon="1.29083">
        <ele>1105.1</ele>
        <time>2019-02-12T09:00:15Z</time>
      </trkpt>
      <trkpt lat="42.20733" lon="1.291">
        <ele>1105.3</ele>
        <time>2019-02-12T09:00:22Z</time>
      </trkpt>
      <trkpt lat="42.20733" lon="1.29112">
        <ele>1105.2</ele>
        <time>2019-02-12T09:00:27Z</time>
      </trkpt>
      <trkpt lat="42.20735" lon="1.29129">
        <ele>1105.2</ele>
        <time>2019-02-12T09:00:35Z</time>
      </trkpt>
      <trkpt lat="42.20737" lon="1.29142">
        <ele>1102.9</ele>
        <time>2019-02-12T09:00:40Z</time>
      </trkpt>
      <trkpt lat="42.20737" lon="1.29159">
        <ele>1098.8</ele>
        <time>2019-02-12T09:00:47Z</time>
      </trkpt>
      <trkpt lat="42.20738" lon="1.29173">
        <ele>1096.1</ele>
        <time>2019-02-12T09:00:53Z</time>
      </trkpt>
      <trkpt lat="42.20737" lon="1.29188">
        <ele>1091.7</ele>
        <time>2019-02-12T09:01:00Z</time>
      </trkpt>
      <trkpt lat="42.2074" lon="1.2921">
        <ele>1088.9</ele>
        <time>2019-02-12T09:01:09Z</time>
      </trkpt>
      <trkpt lat="42.20747" lon="1.29218">
        <ele>1093.6</ele>
        <time>2019-02-12T09:01:14Z</time>
      </trkpt>
      <trkpt lat="42.20757" lon="1.2924">
        <ele>1097.1</ele>
        <time>2019-02-12T09:01:25Z</time>
      </trkpt>
      <trkpt lat="42.20766" lon="1.29259">
        <ele>1101.4</ele>
        <time>2019-02-12T09:01:35Z</time>
      </trkpt>
      <trkpt lat="42.20774" lon="1.29276">
        <ele>1104.3</ele>
        <time>2019-02-12T09:01:43Z</time>
      </trkpt>
      <trkpt lat="42.20784" lon="1.29284">
        <ele>1111.6</ele>
        <time>2019-02-12T09:01:50Z</time>
      </trkpt>
      <trkpt lat="42.20798" lon="1.29287">
        <ele>1117.8</ele>
        <time>2019-02-12T09:01:58Z</time>
      </trkpt>
      <trkpt lat="42.20816" lon="1.29296">
        <ele>1116.7</ele>
        <time>2019-02-12T09:02:09Z</time>
      </trkpt>
      <trkpt lat="42.20838" lon="1.29305">
        <ele>1115.8</ele>
        <time>2019-02-12T09:02:22Z</time>
      </trkpt>
      <trkpt lat="42.20856" lon="1.29315">
        <ele>1114.5</ele>
        <time>2019-02-12T09:02:33Z</time>
      </trkpt>
      <trkpt lat="42.20857" lon="1.29323">
        <ele>1112.2</ele>
        <time>2019-02-12T09:02:37Z</time>
      </trkpt>
      <trkpt lat="42.20852" lon="1.29337">
        <ele>1107.4</ele>
        <time>2019-02-12T09:02:43Z</time>
      </trkpt>
      <trkpt lat="42.20844" lon="1.29352">
        <ele>1101.9</ele>
        <time>2019-02-12T09:02:51Z</time>
      </trkpt>
      <trkpt lat="42.20837" lon="1.29407">
        <ele>1089.1</ele>
        <time>2019-02-12T09:03:15Z</time>
      </trkpt>
      <trkpt lat="42.20837" lon="1.29461">
        <ele>1081.4</ele>
        <time>2019-02-12T09:03:38Z</time>
      </trkpt>
      <trkpt lat="42.20832" lon="1.29513">
        <ele>1082.8</ele>
        <time>2019-02-12T09:04:00Z</time>
      </trkpt>
      <trkpt lat="42.20825" lon="1.29544">
        <ele>1083.1</ele>
        <time>2019-02-12T09:04:14Z</time>
      </trkpt>
      <trkpt lat="42.20828" lon="1.29587">
        <ele>1083.2</ele>
        <time>2019-02-12T09:04:32Z</time>
      </trkpt>
      <trkpt lat="42.20841" lon="1.29661">
        <ele>1088.3</ele>
        <time>2019-02-12T09:05:04Z</time>
      </trkpt>
      <trkpt lat="42.20837" lon="1.29694">
        <ele>1088.6</ele>
        <time>2019-02-12T09:05:18Z</time>
      </trkpt>
      <trkpt lat="42.20841" lon="1.29717">
        <ele>1090.6</ele>
        <time>2019-02-12T09:05:28Z</time>
      </trkpt>
      <trkpt lat="42.20845" lon="1.29755">
        <ele>1092.3</ele>
        <time>2019-02-12T09:05:45Z</time>
      </trkpt>
      <trkpt lat="42.20851" lon="1.29771">
        <ele>1094.1</ele>
        <time>2019-02-12T09:05:52Z</time>
      </trkpt>
      <trkpt lat="42.20854" lon="1.29794">
        <ele>1095.4</ele>
        <time>2019-02-12T09:06:02Z</time>
      </trkpt>
      <trkpt lat="42.20855" lon="1.29812">
        <ele>1098</ele>
        <time>2019-02-12T09:06:10Z</time>
      </trkpt>
      <trkpt lat="42.2085" lon="1.29825">
        <ele>1098.4</ele>
        <time>2019-02-12T09:06:16Z</time>
      </trkpt>
      <trkpt lat="42.2084" lon="1.29834">
        <ele>1097.8</ele>
        <time>2019-02-12T09:06:23Z</time>
      </trkpt>
      <trkpt lat="42.20815" lon="1.29868">
        <ele>1100.5</ele>
        <time>2019-02-12T09:06:43Z</time>
      </trkpt>
      <trkpt lat="42.20806" lon="1.29891">
        <ele>1102.9</ele>
        <time>2019-02-12T09:06:54Z</time>
      </trkpt>
      <trkpt lat="42.20801" lon="1.29931">
        <ele>1106.1</ele>
        <time>2019-02-12T09:07:11Z</time>
      </trkpt>
      <trkpt lat="42.20798" lon="1.29947">
        <ele>1107</ele>
        <time>2019-02-12T09:07:18Z</time>
      </trkpt>
      <trkpt lat="42.20794" lon="1.29961">
        <ele>1106.2</ele>
        <time>2019-02-12T09:07:25Z</time>
      </trkpt>
      <trkpt lat="42.20798" lon="1.29972">
        <ele>1103.6</ele>
        <time>2019-02-12T09:07:30Z</time>
      </trkpt>
      <trkpt lat="42.20804" lon="1.29972">
        <ele>1105.1</ele>
        <time>2019-02-12T09:07:33Z</time>
      </trkpt>
      <trkpt lat="42.20812" lon="1.29954">
        <ele>1110.1</ele>
        <time>2019-02-12T09:07:42Z</time>
      </trkpt>
      <trkpt lat="42.20828" lon="1.2993">
        <ele>1109.9</ele>
        <time>2019-02-12T09:07:56Z</time>
      </trkpt>
      <trkpt lat="42.20848" lon="1.29912">
        <ele>1110.2</ele>
        <time>2019-02-12T09:08:10Z</time>
      </trkpt>
      <trkpt lat="42.2086" lon="1.29908">
        <ele>1111</ele>
        <time>2019-02-12T09:08:17Z</time>
      </trkpt>
      <trkpt lat="42.20886" lon="1.29896">
        <ele>1114.8</ele>
        <time>2019-02-12T09:08:32Z</time>
      </trkpt>
      <trkpt lat="42.20901" lon="1.29886">
        <ele>1118.7</ele>
        <time>2019-02-12T09:08:42Z</time>
      </trkpt>
      <trkpt lat="42.2091" lon="1.29878">
        <ele>1121</ele>
        <time>2019-02-12T09:08:48Z</time>
      </trkpt>
      <trkpt lat="42.20914" lon="1.29865">
        <ele>1122.2</ele>
        <time>2019-02-12T09:08:54Z</time>
      </trkpt>
      <trkpt lat="42.20917" lon="1.29859">
        <ele>1123.9</ele>
        <time>2019-02-12T09:08:57Z</time>
      </trkpt>
      <trkpt lat="42.20921" lon="1.29856">
        <ele>1125.7</ele>
        <time>2019-02-12T09:09:00Z</time>
      </trkpt>
      <trkpt lat="42.20926" lon="1.29861">
        <ele>1127.3</ele>
        <time>2019-02-12T09:09:03Z</time>
      </trkpt>
      <trkpt lat="42.20926" lon="1.29874">
        <ele>1127.2</ele>
        <time>2019-02-12T09:09:09Z</time>
      </trkpt>
      <trkpt lat="42.20932" lon="1.29911">
        <ele>1132.5</ele>
        <time>2019-02-12T09:09:24Z</time>
      </trkpt>
      <trkpt lat="42.20932" lon="1.29926">
        <ele>1133.9</ele>
        <time>2019-02-12T09:09:31Z</time>
      </trkpt>
      <trkpt lat="42.20929" lon="1.29932">
        <ele>1133.4</ele>
        <time>2019-02-12T09:09:34Z</time>
      </trkpt>
      <trkpt lat="42.20936" lon="1.29942">
        <ele>1136.1</ele>
        <time>2019-02-12T09:09:40Z</time>
      </trkpt>
      <trkpt lat="42.20939" lon="1.29942">
        <ele>1137</ele>
        <time>2019-02-12T09:09:42Z</time>
      </trkpt>
      <trkpt lat="42.2095" lon="1.2994">
        <ele>1139.9</ele>
        <time>2019-02-12T09:09:48Z</time>
      </trkpt>
      <trkpt lat="42.2095" lon="1.29954">
        <ele>1140.6</ele>
        <time>2019-02-12T09:09:54Z</time>
      </trkpt>
      <trkpt lat="42.20957" lon="1.29943">
        <ele>1142.3</ele>
        <time>2019-02-12T09:10:00Z</time>
      </trkpt>
      <trkpt lat="42.20959" lon="1.2996">
        <ele>1143.3</ele>
        <time>2019-02-12T09:10:07Z</time>
      </trkpt>
      <trkpt lat="42.20964" lon="1.29951">
        <ele>1141.2</ele>
        <time>2019-02-12T09:10:12Z</time>
      </trkpt>
      <trkpt lat="42.20967" lon="1.29963">
        <ele>1141.6</ele>
        <time>2019-02-12T09:10:17Z</time>
      </trkpt>
      <trkpt lat="42.20975" lon="1.2996">
        <ele>1138.2</ele>
        <time>2019-02-12T09:10:22Z</time>
      </trkpt>
      <trkpt lat="42.20982" lon="1.29973">
        <ele>1138.7</ele>
        <time>2019-02-12T09:10:29Z</time>
      </trkpt>
      <trkpt lat="42.20991" lon="1.2996">
        <ele>1133.5</ele>
        <time>2019-02-12T09:10:37Z</time>
      </trkpt>
      <trkpt lat="42.20997" lon="1.29981">
        <ele>1133.9</ele>
        <time>2019-02-12T09:10:47Z</time>
      </trkpt>
      <trkpt lat="42.21005" lon="1.29976">
        <ele>1130.3</ele>
        <time>2019-02-12T09:10:52Z</time>
      </trkpt>
      <trkpt lat="42.21023" lon="1.29986">
        <ele>1123</ele>
        <time>2019-02-12T09:11:03Z</time>
      </trkpt>
      <trkpt lat="42.21034" lon="1.29974">
        <ele>1119.1</ele>
        <time>2019-02-12T09:11:11Z</time>
      </trkpt>
      <trkpt lat="42.21043" lon="1.29964">
        <ele>1116.4</ele>
        <time>2019-02-12T09:11:18Z</time>
      </trkpt>
      <trkpt lat="42.21064" lon="1.29939">
        <ele>1097</ele>
        <time>2019-02-12T09:11:34Z</time>
      </trkpt>
      <trkpt lat="42.21076" lon="1.29928">
        <ele>1085.4</ele>
        <time>2019-02-12T09:11:42Z</time>
      </trkpt>
      <trkpt lat="42.21089" lon="1.29944">
        <ele>1069.1</ele>
        <time>2019-02-12T09:11:52Z</time>
      </trkpt>
      <trkpt lat="42.21095" lon="1.29952">
        <ele>1061.1</ele>
        <time>2019-02-12T09:11:57Z</time>
      </trkpt>
      <trkpt lat="42.21117" lon="1.29958">
        <ele>1036.7</ele>
        <time>2019-02-12T09:12:10Z</time>
      </trkpt>
      <trkpt lat="42.21127" lon="1.29953">
        <ele>1027.7</ele>
        <time>2019-02-12T09:12:16Z</time>
      </trkpt>
      <trkpt lat="42.2114" lon="1.2994">
        <ele>1020.1</ele>
        <time>2019-02-12T09:12:25Z</time>
      </trkpt>
      <trkpt lat="42.2115" lon="1.29948">
        <ele>1012.4</ele>
        <time>2019-02-12T09:12:31Z</time>
      </trkpt>
      <trkpt lat="42.21167" lon="1.29947">
        <ele>1001.2</ele>
        <time>2019-02-12T09:12:41Z</time>
      </trkpt>
      <trkpt lat="42.21179" lon="1.29933">
        <ele>994.7</ele>
        <time>2019-02-12T09:12:50Z</time>
      </trkpt>
      <trkpt lat="42.21196" lon="1.29918">
        <ele>986.1</ele>
        <time>2019-02-12T09:13:01Z</time>
      </trkpt>
      <trkpt lat="42.21209" lon="1.29915">
        <ele>977.3</ele>
        <time>2019-02-12T09:13:09Z</time>
      </trkpt>
      <trkpt lat="42.21221" lon="1.29916">
        <ele>970.8</ele>
        <time>2019-02-12T09:13:16Z</time>
      </trkpt>
      <trkpt lat="42.21233" lon="1.29927">
        <ele>962.8</ele>
        <time>2019-02-12T09:13:24Z</time>
      </trkpt>
      <trkpt lat="42.21267" lon="1.2994">
        <ele>943.1</ele>
        <time>2019-02-12T09:13:45Z</time>
      </trkpt>
      <trkpt lat="42.21284" lon="1.29941">
        <ele>933.9</ele>
        <time>2019-02-12T09:13:55Z</time>
      </trkpt>
      <trkpt lat="42.213" lon="1.29952">
        <ele>924.8</ele>
        <time>2019-02-12T09:14:05Z</time>
      </trkpt>
      <trkpt lat="42.21316" lon="1.29954">
        <ele>917.6</ele>
        <time>2019-02-12T09:14:14Z</time>
      </trkpt>
      <trkpt lat="42.21331" lon="1.29953">
        <ele>910.6</ele>
        <time>2019-02-12T09:14:23Z</time>
      </trkpt>
      <trkpt lat="42.21346" lon="1.29945">
        <ele>905.4</ele>
        <time>2019-02-12T09:14:32Z</time>
      </trkpt>
      <trkpt lat="42.21358" lon="1.29935">
        <ele>901.3</ele>
        <time>2019-02-12T09:14:40Z</time>
      </trkpt>
      <trkpt lat="42.21397" lon="1.29941">
        <ele>884.8</ele>
        <time>2019-02-12T09:15:03Z</time>
      </trkpt>
      <trkpt lat="42.21407" lon="1.29941">
        <ele>881.4</ele>
        <time>2019-02-12T09:15:08Z</time>
      </trkpt>
      <trkpt lat="42.21415" lon="1.29943">
        <ele>878.1</ele>
        <time>2019-02-12T09:15:13Z</time>
      </trkpt>
      <trkpt lat="42.21438" lon="1.29956">
        <ele>867.6</ele>
        <time>2019-02-12T09:15:27Z</time>
      </trkpt>
      <trkpt lat="42.21448" lon="1.29953">
        <ele>864.5</ele>
        <time>2019-02-12T09:15:33Z</time>
      </trkpt>
      <trkpt lat="42.21468" lon="1.29945">
        <ele>859.1</ele>
        <time>2019-02-12T09:15:45Z</time>
      </trkpt>
      <trkpt lat="42.21477" lon="1.29932">
        <ele>858.2</ele>
        <time>2019-02-12T09:15:52Z</time>
      </trkpt>
      <trkpt lat="42.21493" lon="1.29943">
        <ele>850.9</ele>
        <time>2019-02-12T09:16:03Z</time>
      </trkpt>
      <trkpt lat="42.21505" lon="1.29949">
        <ele>846.1</ele>
        <time>2019-02-12T09:16:10Z</time>
      </trkpt>
      <trkpt lat="42.21519" lon="1.29936">
        <ele>843.3</ele>
        <time>2019-02-12T09:16:20Z</time>
      </trkpt>
      <trkpt lat="42.2153" lon="1.29925">
        <ele>841.1</ele>
        <time>2019-02-12T09:16:27Z</time>
      </trkpt>
      <trkpt lat="42.21543" lon="1.29919">
        <ele>837.5</ele>
        <time>2019-02-12T09:16:35Z</time>
      </trkpt>
      <trkpt lat="42.21551" lon="1.29914">
        <ele>835.7</ele>
        <time>2019-02-12T09:16:41Z</time>
      </trkpt>
      <trkpt lat="42.21563" lon="1.29896">
        <ele>834.8</ele>
        <time>2019-02-12T09:16:50Z</time>
      </trkpt>
      <trkpt lat="42.21572" lon="1.2987">
        <ele>836.3</ele>
        <time>2019-02-12T09:17:03Z</time>
      </trkpt>
      <trkpt lat="42.21597" lon="1.2985">
        <ele>833.7</ele>
        <time>2019-02-12T09:17:19Z</time>
      </trkpt>
      <trkpt lat="42.2161" lon="1.29825">
        <ele>834.6</ele>
        <time>2019-02-12T09:17:32Z</time>
      </trkpt>
      <trkpt lat="42.21613" lon="1.29812">
        <ele>835.7</ele>
        <time>2019-02-12T09:17:38Z</time>
      </trkpt>
      <trkpt lat="42.21618" lon="1.29789">
        <ele>837.7</ele>
        <time>2019-02-12T09:17:48Z</time>
      </trkpt>
      <trkpt lat="42.21623" lon="1.29764">
        <ele>836</ele>
        <time>2019-02-12T09:17:59Z</time>
      </trkpt>
      <trkpt lat="42.2163" lon="1.29684">
        <ele>831.8</ele>
        <time>2019-02-12T09:18:33Z</time>
      </trkpt>
      <trkpt lat="42.21637" lon="1.2966">
        <ele>827.8</ele>
        <time>2019-02-12T09:18:44Z</time>
      </trkpt>
      <trkpt lat="42.21647" lon="1.29628">
        <ele>821.9</ele>
        <time>2019-02-12T09:18:59Z</time>
      </trkpt>
      <trkpt lat="42.21659" lon="1.29586">
        <ele>815.7</ele>
        <time>2019-02-12T09:19:18Z</time>
      </trkpt>
      <trkpt lat="42.21663" lon="1.2956">
        <ele>813.3</ele>
        <time>2019-02-12T09:19:29Z</time>
      </trkpt>
      <trkpt lat="42.21667" lon="1.29523">
        <ele>811.6</ele>
        <time>2019-02-12T09:19:45Z</time>
      </trkpt>
      <trkpt lat="42.21673" lon="1.29484">
        <ele>810.4</ele>
        <time>2019-02-12T09:20:02Z</time>
      </trkpt>
      <trkpt lat="42.2168" lon="1.29425">
        <ele>811.7</ele>
        <time>2019-02-12T09:20:27Z</time>
      </trkpt>
      <trkpt lat="42.21683" lon="1.29399">
        <ele>813</ele>
        <time>2019-02-12T09:20:38Z</time>
      </trkpt>
      <trkpt lat="42.2169" lon="1.29362">
        <ele>813.7</ele>
        <time>2019-02-12T09:20:54Z</time>
      </trkpt>
      <trkpt lat="42.21699" lon="1.29339">
        <ele>811.8</ele>
        <time>2019-02-12T09:21:05Z</time>
      </trkpt>
      <trkpt lat="42.21715" lon="1.2931">
        <ele>809.5</ele>
        <time>2019-02-12T09:21:20Z</time>
      </trkpt>
      <trkpt lat="42.21723" lon="1.293">
        <ele>808.8</ele>
        <time>2019-02-12T09:21:27Z</time>
      </trkpt>
      <trkpt lat="42.21737" lon="1.29311">
        <ele>806.2</ele>
        <time>2019-02-12T09:21:36Z</time>
      </trkpt>
      <trkpt lat="42.21752" lon="1.29327">
        <ele>802.7</ele>
        <time>2019-02-12T09:21:47Z</time>
      </trkpt>
      <trkpt lat="42.21778" lon="1.29352">
        <ele>795.6</ele>
        <time>2019-02-12T09:22:06Z</time>
      </trkpt>
      <trkpt lat="42.21803" lon="1.29378">
        <ele>788.3</ele>
        <time>2019-02-12T09:22:24Z</time>
      </trkpt>
      <trkpt lat="42.21828" lon="1.29395">
        <ele>783.7</ele>
        <time>2019-02-12T09:22:40Z</time>
      </trkpt>
      <trkpt lat="42.21846" lon="1.29431">
        <ele>778.2</ele>
        <time>2019-02-12T09:22:58Z</time>
      </trkpt>
      <trkpt lat="42.21873" lon="1.29452">
        <ele>773</ele>
        <time>2019-02-12T09:23:16Z</time>
      </trkpt>
      <trkpt lat="42.2189" lon="1.29449">
        <ele>770.4</ele>
        <time>2019-02-12T09:23:26Z</time>
      </trkpt>
      <trkpt lat="42.21909" lon="1.29426">
        <ele>769.3</ele>
        <time>2019-02-12T09:23:40Z</time>
      </trkpt>
      <trkpt lat="42.21922" lon="1.29422">
        <ele>767.3</ele>
        <time>2019-02-12T09:23:48Z</time>
      </trkpt>
      <trkpt lat="42.21947" lon="1.29453">
        <ele>759.5</ele>
        <time>2019-02-12T09:24:07Z</time>
      </trkpt>
      <trkpt lat="42.21993" lon="1.295">
        <ele>752.1</ele>
        <time>2019-02-12T09:24:40Z</time>
      </trkpt>
      <trkpt lat="42.22031" lon="1.29403">
        <ele>751</ele>
        <time>2019-02-12T09:25:27Z</time>
      </trkpt>
      <trkpt lat="42.22045" lon="1.29338">
        <ele>752.5</ele>
        <time>2019-02-12T09:25:55Z</time>
      </trkpt>
      <trkpt lat="42.22054" lon="1.29301">
        <ele>753.9</ele>
        <time>2019-02-12T09:26:12Z</time>
      </trkpt>
      <trkpt lat="42.22068" lon="1.29279">
        <ele>752.9</ele>
        <time>2019-02-12T09:26:24Z</time>
      </trkpt>
      <trkpt lat="42.22072" lon="1.29237">
        <ele>755.3</ele>
        <time>2019-02-12T09:26:42Z</time>
      </trkpt>
      <trkpt lat="42.22075" lon="1.29197">
        <ele>757.3</ele>
        <time>2019-02-12T09:26:59Z</time>
      </trkpt>
      <trkpt lat="42.2209" lon="1.29168">
        <ele>756</ele>
        <time>2019-02-12T09:27:14Z</time>
      </trkpt>
      <trkpt lat="42.2209" lon="1.29124">
        <ele>758.6</ele>
        <time>2019-02-12T09:27:33Z</time>
      </trkpt>
      <trkpt lat="42.22104" lon="1.2908">
        <ele>757.1</ele>
        <time>2019-02-12T09:27:53Z</time>
      </trkpt>
      <trkpt lat="42.22114" lon="1.29037">
        <ele>756.4</ele>
        <time>2019-02-12T09:28:12Z</time>
      </trkpt>
      <trkpt lat="42.22117" lon="1.28993">
        <ele>760.7</ele>
        <time>2019-02-12T09:28:31Z</time>
      </trkpt>
      <trkpt lat="42.22127" lon="1.2894">
        <ele>764.2</ele>
        <time>2019-02-12T09:28:54Z</time>
      </trkpt>
      <trkpt lat="42.22143" lon="1.28907">
        <ele>765.4</ele>
        <time>2019-02-12T09:29:11Z</time>
      </trkpt>
      <trkpt lat="42.2215" lon="1.28866">
        <ele>767</ele>
        <time>2019-02-12T09:29:29Z</time>
      </trkpt>
      <trkpt lat="42.22158" lon="1.28827">
        <ele>768</ele>
        <time>2019-02-12T09:29:46Z</time>
      </trkpt>
      <trkpt lat="42.22156" lon="1.28808">
        <ele>769.1</ele>
        <time>2019-02-12T09:29:54Z</time>
      </trkpt>
      <trkpt lat="42.22162" lon="1.28796">
        <ele>769.1</ele>
        <time>2019-02-12T09:30:00Z</time>
      </trkpt>
      <trkpt lat="42.22197" lon="1.28765">
        <ele>769.5</ele>
        <time>2019-02-12T09:30:24Z</time>
      </trkpt>
      <trkpt lat="42.22251" lon="1.28712">
        <ele>775.7</ele>
        <time>2019-02-12T09:31:02Z</time>
      </trkpt>
      <trkpt lat="42.22265" lon="1.28664">
        <ele>783</ele>
        <time>2019-02-12T09:31:24Z</time>
      </trkpt>
      <trkpt lat="42.22263" lon="1.28602">
        <ele>790.8</ele>
        <time>2019-02-12T09:31:50Z</time>
      </trkpt>
      <trkpt lat="42.22232" lon="1.28568">
        <ele>797.4</ele>
        <time>2019-02-12T09:32:13Z</time>
      </trkpt>
      <trkpt lat="42.22194" lon="1.28507">
        <ele>809</ele>
        <time>2019-02-12T09:32:47Z</time>
      </trkpt>
      <trkpt lat="42.22166" lon="1.28435">
        <ele>819.4</ele>
        <time>2019-02-12T09:33:21Z</time>
      </trkpt>
      <trkpt lat="42.22149" lon="1.28376">
        <ele>827.5</ele>
        <time>2019-02-12T09:33:48Z</time>
      </trkpt>
      <trkpt lat="42.22149" lon="1.28315">
        <ele>831.8</ele>
        <time>2019-02-12T09:34:14Z</time>
      </trkpt>
      <trkpt lat="42.22149" lon="1.28276">
        <ele>835</ele>
        <time>2019-02-12T09:34:31Z</time>
      </trkpt>
      <trkpt lat="42.22155" lon="1.28209">
        <ele>840.4</ele>
        <time>2019-02-12T09:34:59Z</time>
      </trkpt>
      <trkpt lat="42.2215" lon="1.28163">
        <ele>844.3</ele>
        <time>2019-02-12T09:35:18Z</time>
      </trkpt>
      <trkpt lat="42.22151" lon="1.28122">
        <ele>847.1</ele>
        <time>2019-02-12T09:35:36Z</time>
      </trkpt>
      <trkpt lat="42.22153" lon="1.28096">
        <ele>848.4</ele>
        <time>2019-02-12T09:35:47Z</time>
      </trkpt>
      <trkpt lat="42.22157" lon="1.28056">
        <ele>850.6</ele>
        <time>2019-02-12T09:36:04Z</time>
      </trkpt>
      <trkpt lat="42.2216" lon="1.27986">
        <ele>854.4</ele>
        <time>2019-02-12T09:36:34Z</time>
      </trkpt>
      <trkpt lat="42.22166" lon="1.2793">
        <ele>856.8</ele>
        <time>2019-02-12T09:36:58Z</time>
      </trkpt>
      <trkpt lat="42.22165" lon="1.27922">
        <ele>857.4</ele>
        <time>2019-02-12T09:37:01Z</time>
      </trkpt>
      <trkpt lat="42.22169" lon="1.27896">
        <ele>858.5</ele>
        <time>2019-02-12T09:37:12Z</time>
      </trkpt>
      <trkpt lat="42.2219" lon="1.27841">
        <ele>861.1</ele>
        <time>2019-02-12T09:37:38Z</time>
      </trkpt>
      <trkpt lat="42.22203" lon="1.27805">
        <ele>863.4</ele>
        <time>2019-02-12T09:37:56Z</time>
      </trkpt>
      <trkpt lat="42.22207" lon="1.27721">
        <ele>868.6</ele>
        <time>2019-02-12T09:38:31Z</time>
      </trkpt>
      <trkpt lat="42.22217" lon="1.2764">
        <ele>870</ele>
        <time>2019-02-12T09:39:06Z</time>
      </trkpt>
      <trkpt lat="42.22233" lon="1.27557">
        <ele>873</ele>
        <time>2019-02-12T09:39:43Z</time>
      </trkpt>
      <trkpt lat="42.22253" lon="1.27502">
        <ele>872.9</ele>
        <time>2019-02-12T09:40:08Z</time>
      </trkpt>
      <trkpt lat="42.22266" lon="1.27448">
        <ele>873.8</ele>
        <time>2019-02-12T09:40:32Z</time>
      </trkpt>
      <trkpt lat="42.22283" lon="1.27381">
        <ele>873.1</ele>
        <time>2019-02-12T09:41:02Z</time>
      </trkpt>
      <trkpt lat="42.22329" lon="1.27257">
        <ele>870.8</ele>
        <time>2019-02-12T09:42:01Z</time>
      </trkpt>
      <trkpt lat="42.22338" lon="1.27226">
        <ele>867.6</ele>
        <time>2019-02-12T09:42:15Z</time>
      </trkpt>
      <trkpt lat="42.22336" lon="1.2718">
        <ele>865.5</ele>
        <time>2019-02-12T09:42:35Z</time>
      </trkpt>
      <trkpt lat="42.22326" lon="1.27137">
        <ele>865.1</ele>
        <time>2019-02-12T09:42:54Z</time>
      </trkpt>
      <trkpt lat="42.2232" lon="1.27093">
        <ele>869.6</ele>
        <time>2019-02-12T09:43:13Z</time>
      </trkpt>
      <trkpt lat="42.22324" lon="1.27064">
        <ele>872.4</ele>
        <time>2019-02-12T09:43:25Z</time>
      </trkpt>
      <trkpt lat="42.22347" lon="1.27028">
        <ele>869.4</ele>
        <time>2019-02-12T09:43:46Z</time>
      </trkpt>
      <trkpt lat="42.22378" lon="1.26976">
        <ele>861.1</ele>
        <time>2019-02-12T09:44:14Z</time>
      </trkpt>
      <trkpt lat="42.22383" lon="1.26959">
        <ele>860.4</ele>
        <time>2019-02-12T09:44:22Z</time>
      </trkpt>
      <trkpt lat="42.22382" lon="1.26915">
        <ele>861.3</ele>
        <time>2019-02-12T09:44:40Z</time>
      </trkpt>
      <trkpt lat="42.22376" lon="1.26875">
        <ele>862.8</ele>
        <time>2019-02-12T09:44:57Z</time>
      </trkpt>
      <trkpt lat="42.22385" lon="1.26846">
        <ele>864</ele>
        <time>2019-02-12T09:45:11Z</time>
      </trkpt>
      <trkpt lat="42.22411" lon="1.26807">
        <ele>864.6</ele>
        <time>2019-02-12T09:45:33Z</time>
      </trkpt>
      <trkpt lat="42.22437" lon="1.2678">
        <ele>865.3</ele>
        <time>2019-02-12T09:45:51Z</time>
      </trkpt>
      <trkpt lat="42.22465" lon="1.26774">
        <ele>863.5</ele>
        <time>2019-02-12T09:46:08Z</time>
      </trkpt>
      <trkpt lat="42.22487" lon="1.26764">
        <ele>862.8</ele>
        <time>2019-02-12T09:46:21Z</time>
      </trkpt>
      <trkpt lat="42.22495" lon="1.26751">
        <ele>863.6</ele>
        <time>2019-02-12T09:46:28Z</time>
      </trkpt>
      <trkpt lat="42.22498" lon="1.26723">
        <ele>866.3</ele>
        <time>2019-02-12T09:46:40Z</time>
      </trkpt>
      <trkpt lat="42.2251" lon="1.26679">
        <ele>867.5</ele>
        <time>2019-02-12T09:47:00Z</time>
      </trkpt>
      <trkpt lat="42.22524" lon="1.26635">
        <ele>867.6</ele>
        <time>2019-02-12T09:47:20Z</time>
      </trkpt>
      <trkpt lat="42.2255" lon="1.26582">
        <ele>866.1</ele>
        <time>2019-02-12T09:47:47Z</time>
      </trkpt>
      <trkpt lat="42.22566" lon="1.26541">
        <ele>865.2</ele>
        <time>2019-02-12T09:48:07Z</time>
      </trkpt>
      <trkpt lat="42.2258" lon="1.26508">
        <ele>864.4</ele>
        <time>2019-02-12T09:48:23Z</time>
      </trkpt>
      <trkpt lat="42.22608" lon="1.26451">
        <ele>862.3</ele>
        <time>2019-02-12T09:48:52Z</time>
      </trkpt>
      <trkpt lat="42.22659" lon="1.2637">
        <ele>858.4</ele>
        <time>2019-02-12T09:49:37Z</time>
      </trkpt>
      <trkpt lat="42.22691" lon="1.26308">
        <ele>857.4</ele>
        <time>2019-02-12T09:50:09Z</time>
      </trkpt>
      <trkpt lat="42.22691" lon="1.26287">
        <ele>858.8</ele>
        <time>2019-02-12T09:50:18Z</time>
      </trkpt>
      <trkpt lat="42.22682" lon="1.2626">
        <ele>861.5</ele>
        <time>2019-02-12T09:50:30Z</time>
      </trkpt>
      <trkpt lat="42.22674" lon="1.26238">
        <ele>863.8</ele>
        <time>2019-02-12T09:50:41Z</time>
      </trkpt>
      <trkpt lat="42.22663" lon="1.26217">
        <ele>866.5</ele>
        <time>2019-02-12T09:50:52Z</time>
      </trkpt>
      <trkpt lat="42.22656" lon="1.26195">
        <ele>868.3</ele>
        <time>2019-02-12T09:51:02Z</time>
      </trkpt>
      <trkpt lat="42.22653" lon="1.26158">
        <ele>869</ele>
        <time>2019-02-12T09:51:17Z</time>
      </trkpt>
      <trkpt lat="42.22639" lon="1.26135">
        <ele>871.6</ele>
        <time>2019-02-12T09:51:30Z</time>
      </trkpt>
      <trkpt lat="42.22611" lon="1.26109">
        <ele>877.3</ele>
        <time>2019-02-12T09:51:49Z</time>
      </trkpt>
      <trkpt lat="42.22595" lon="1.26089">
        <ele>881</ele>
        <time>2019-02-12T09:52:02Z</time>
      </trkpt>
      <trkpt lat="42.22535" lon="1.26042">
        <ele>892.2</ele>
        <time>2019-02-12T09:52:42Z</time>
      </trkpt>
      <trkpt lat="42.22518" lon="1.2602">
        <ele>896.1</ele>
        <time>2019-02-12T09:52:55Z</time>
      </trkpt>
      <trkpt lat="42.22509" lon="1.26003">
        <ele>898.1</ele>
        <time>2019-02-12T09:53:04Z</time>
      </trkpt>
      <trkpt lat="42.22494" lon="1.25998">
        <ele>901</ele>
        <time>2019-02-12T09:53:13Z</time>
      </trkpt>
      <trkpt lat="42.22483" lon="1.25978">
        <ele>903.4</ele>
        <time>2019-02-12T09:53:23Z</time>
      </trkpt>
      <trkpt lat="42.22469" lon="1.25969">
        <ele>906</ele>
        <time>2019-02-12T09:53:32Z</time>
      </trkpt>
      <trkpt lat="42.22454" lon="1.2595">
        <ele>909</ele>
        <time>2019-02-12T09:53:43Z</time>
      </trkpt>
      <trkpt lat="42.22443" lon="1.25931">
        <ele>911.6</ele>
        <time>2019-02-12T09:53:54Z</time>
      </trkpt>
      <trkpt lat="42.22433" lon="1.25907">
        <ele>913.8</ele>
        <time>2019-02-12T09:54:05Z</time>
      </trkpt>
      <trkpt lat="42.22422" lon="1.25864">
        <ele>916.8</ele>
        <time>2019-02-12T09:54:25Z</time>
      </trkpt>
      <trkpt lat="42.22412" lon="1.25832">
        <ele>920</ele>
        <time>2019-02-12T09:54:39Z</time>
      </trkpt>
      <trkpt lat="42.22402" lon="1.25803">
        <ele>923.3</ele>
        <time>2019-02-12T09:54:53Z</time>
      </trkpt>
      <trkpt lat="42.22386" lon="1.2575">
        <ele>929.3</ele>
        <time>2019-02-12T09:55:17Z</time>
      </trkpt>
      <trkpt lat="42.22378" lon="1.25732">
        <ele>931.7</ele>
        <time>2019-02-12T09:55:26Z</time>
      </trkpt>
      <trkpt lat="42.22358" lon="1.25723">
        <ele>936.5</ele>
        <time>2019-02-12T09:55:38Z</time>
      </trkpt>
      <trkpt lat="42.22341" lon="1.257">
        <ele>941.7</ele>
        <time>2019-02-12T09:55:52Z</time>
      </trkpt>
      <trkpt lat="42.22317" lon="1.25667">
        <ele>948.5</ele>
        <time>2019-02-12T09:56:12Z</time>
      </trkpt>
      <trkpt lat="42.22298" lon="1.25647">
        <ele>952.6</ele>
        <time>2019-02-12T09:56:25Z</time>
      </trkpt>
      <trkpt lat="42.22283" lon="1.25627">
        <ele>957.4</ele>
        <time>2019-02-12T09:56:37Z</time>
      </trkpt>
      <trkpt lat="42.22277" lon="1.25616">
        <ele>960.3</ele>
        <time>2019-02-12T09:56:43Z</time>
      </trkpt>
      <trkpt lat="42.22275" lon="1.25595">
        <ele>962.2</ele>
        <time>2019-02-12T09:56:52Z</time>
      </trkpt>
      <trkpt lat="42.22269" lon="1.25588">
        <ele>964.6</ele>
        <time>2019-02-12T09:56:56Z</time>
      </trkpt>
      <trkpt lat="42.22263" lon="1.25587">
        <ele>966.6</ele>
        <time>2019-02-12T09:57:00Z</time>
      </trkpt>
      <trkpt lat="42.22249" lon="1.25571">
        <ele>970.7</ele>
        <time>2019-02-12T09:57:10Z</time>
      </trkpt>
      <trkpt lat="42.22241" lon="1.25565">
        <ele>972.8</ele>
        <time>2019-02-12T09:57:15Z</time>
      </trkpt>
      <trkpt lat="42.22227" lon="1.25563">
        <ele>976.5</ele>
        <time>2019-02-12T09:57:24Z</time>
      </trkpt>
      <trkpt lat="42.22213" lon="1.25545">
        <ele>978.4</ele>
        <time>2019-02-12T09:57:35Z</time>
      </trkpt>
      <trkpt lat="42.22197" lon="1.25518">
        <ele>983.5</ele>
        <time>2019-02-12T09:57:49Z</time>
      </trkpt>
      <trkpt lat="42.22196" lon="1.25508">
        <ele>983.6</ele>
        <time>2019-02-12T09:57:54Z</time>
      </trkpt>
      <trkpt lat="42.22199" lon="1.25492">
        <ele>982.9</ele>
        <time>2019-02-12T09:58:01Z</time>
      </trkpt>
      <trkpt lat="42.22203" lon="1.25478">
        <ele>982.1</ele>
        <time>2019-02-12T09:58:07Z</time>
      </trkpt>
      <trkpt lat="42.22198" lon="1.25464">
        <ele>983.4</ele>
        <time>2019-02-12T09:58:14Z</time>
      </trkpt>
      <trkpt lat="42.2218" lon="1.25434">
        <ele>991.5</ele>
        <time>2019-02-12T09:58:30Z</time>
      </trkpt>
      <trkpt lat="42.22169" lon="1.25412">
        <ele>996.5</ele>
        <time>2019-02-12T09:58:41Z</time>
      </trkpt>
      <trkpt lat="42.22161" lon="1.25412">
        <ele>998.2</ele>
        <time>2019-02-12T09:58:46Z</time>
      </trkpt>
      <trkpt lat="42.22145" lon="1.25411">
        <ele>1001.7</ele>
        <time>2019-02-12T09:58:55Z</time>
      </trkpt>
      <trkpt lat="42.2213" lon="1.25397">
        <ele>1006.1</ele>
        <time>2019-02-12T09:59:05Z</time>
      </trkpt>
      <trkpt lat="42.2211" lon="1.25382">
        <ele>1012.2</ele>
        <time>2019-02-12T09:59:18Z</time>
      </trkpt>
      <trkpt lat="42.22101" lon="1.25369">
        <ele>1016.2</ele>
        <time>2019-02-12T09:59:26Z</time>
      </trkpt>
      <trkpt lat="42.22081" lon="1.25351">
        <ele>1024.8</ele>
        <time>2019-02-12T09:59:40Z</time>
      </trkpt>
      <trkpt lat="42.22051" lon="1.25338">
        <ele>1034.2</ele>
        <time>2019-02-12T09:59:58Z</time>
      </trkpt>
      <trkpt lat="42.2203" lon="1.25325">
        <ele>1041.7</ele>
        <time>2019-02-12T10:00:11Z</time>
      </trkpt>
      <trkpt lat="42.22006" lon="1.25304">
        <ele>1051.1</ele>
        <time>2019-02-12T10:00:27Z</time>
      </trkpt>
      <trkpt lat="42.21995" lon="1.25288">
        <ele>1056.8</ele>
        <time>2019-02-12T10:00:37Z</time>
      </trkpt>
      <trkpt lat="42.21986" lon="1.2527">
        <ele>1063.5</ele>
        <time>2019-02-12T10:00:46Z</time>
      </trkpt>
      <trkpt lat="42.2198" lon="1.25256">
        <ele>1068.5</ele>
        <time>2019-02-12T10:00:53Z</time>
      </trkpt>
      <trkpt lat="42.21965" lon="1.25227">
        <ele>1079.1</ele>
        <time>2019-02-12T10:01:08Z</time>
      </trkpt>
      <trkpt lat="42.21957" lon="1.25208">
        <ele>1085.9</ele>
        <time>2019-02-12T10:01:17Z</time>
      </trkpt>
      <trkpt lat="42.21945" lon="1.25197">
        <ele>1095.5</ele>
        <time>2019-02-12T10:01:25Z</time>
      </trkpt>
      <trkpt lat="42.21932" lon="1.25189">
        <ele>1103.6</ele>
        <time>2019-02-12T10:01:33Z</time>
      </trkpt>
      <trkpt lat="42.21924" lon="1.25184">
        <ele>1109</ele>
        <time>2019-02-12T10:01:38Z</time>
      </trkpt>
      <trkpt lat="42.21916" lon="1.25176">
        <ele>1115.5</ele>
        <time>2019-02-12T10:01:44Z</time>
      </trkpt>
      <trkpt lat="42.219" lon="1.25146">
        <ele>1135.5</ele>
        <time>2019-02-12T10:02:00Z</time>
      </trkpt>
      <trkpt lat="42.21892" lon="1.25145">
        <ele>1138.7</ele>
        <time>2019-02-12T10:02:04Z</time>
      </trkpt>
      <trkpt lat="42.21886" lon="1.25136">
        <ele>1145.2</ele>
        <time>2019-02-12T10:02:10Z</time>
      </trkpt>
      <trkpt lat="42.21885" lon="1.25118">
        <ele>1154.7</ele>
        <time>2019-02-12T10:02:17Z</time>
      </trkpt>
      <trkpt lat="42.21878" lon="1.25098">
        <ele>1168.6</ele>
        <time>2019-02-12T10:02:27Z</time>
      </trkpt>
      <trkpt lat="42.21854" lon="1.25096">
        <ele>1176.4</ele>
        <time>2019-02-12T10:02:40Z</time>
      </trkpt>
      <trkpt lat="42.21848" lon="1.25096">
        <ele>1177.7</ele>
        <time>2019-02-12T10:02:44Z</time>
      </trkpt>
      <trkpt lat="42.21838" lon="1.25084">
        <ele>1186.4</ele>
        <time>2019-02-12T10:02:51Z</time>
      </trkpt>
      <trkpt lat="42.21828" lon="1.25087">
        <ele>1187.2</ele>
        <time>2019-02-12T10:02:57Z</time>
      </trkpt>
      <trkpt lat="42.21812" lon="1.25077">
        <ele>1196.1</ele>
        <time>2019-02-12T10:03:07Z</time>
      </trkpt>
      <trkpt lat="42.21805" lon="1.25077">
        <ele>1198.1</ele>
        <time>2019-02-12T10:03:11Z</time>
      </trkpt>
      <trkpt lat="42.21802" lon="1.25088">
        <ele>1193.2</ele>
        <time>2019-02-12T10:03:16Z</time>
      </trkpt>
      <trkpt lat="42.21786" lon="1.25099">
        <ele>1193.3</ele>
        <time>2019-02-12T10:03:26Z</time>
      </trkpt>
      <trkpt lat="42.21776" lon="1.25082">
        <ele>1205.4</ele>
        <time>2019-02-12T10:03:35Z</time>
      </trkpt>
      <trkpt lat="42.2176" lon="1.25067">
        <ele>1217.9</ele>
        <time>2019-02-12T10:03:47Z</time>
      </trkpt>
      <trkpt lat="42.21753" lon="1.25062">
        <ele>1222.6</ele>
        <time>2019-02-12T10:03:51Z</time>
      </trkpt>
      <trkpt lat="42.2174" lon="1.25054">
        <ele>1230.2</ele>
        <time>2019-02-12T10:04:00Z</time>
      </trkpt>
      <trkpt lat="42.21725" lon="1.25059">
        <ele>1233.9</ele>
        <time>2019-02-12T10:04:08Z</time>
      </trkpt>
      <trkpt lat="42.21694" lon="1.25061">
        <ele>1246.6</ele>
        <time>2019-02-12T10:04:26Z</time>
      </trkpt>
      <trkpt lat="42.21668" lon="1.25069">
        <ele>1256.8</ele>
        <time>2019-02-12T10:04:41Z</time>
      </trkpt>
      <trkpt lat="42.21648" lon="1.25063">
        <ele>1268</ele>
        <time>2019-02-12T10:04:53Z</time>
      </trkpt>
      <trkpt lat="42.21638" lon="1.25008">
        <ele>1285.2</ele>
        <time>2019-02-12T10:05:17Z</time>
      </trkpt>
      <trkpt lat="42.21637" lon="1.24938">
        <ele>1304</ele>
        <time>2019-02-12T10:05:47Z</time>
      </trkpt>
      <trkpt lat="42.21647" lon="1.2492">
        <ele>1304.5</ele>
        <time>2019-02-12T10:05:56Z</time>
      </trkpt>
      <trkpt lat="42.21649" lon="1.24883">
        <ele>1314.4</ele>
        <time>2019-02-12T10:06:12Z</time>
      </trkpt>
      <trkpt lat="42.21631" lon="1.24857">
        <ele>1325.8</ele>
        <time>2019-02-12T10:06:28Z</time>
      </trkpt>
      <trkpt lat="42.21641" lon="1.24796">
        <ele>1328.1</ele>
        <time>2019-02-12T10:06:54Z</time>
      </trkpt>
      <trkpt lat="42.21658" lon="1.2478">
        <ele>1320.1</ele>
        <time>2019-02-12T10:07:06Z</time>
      </trkpt>
      <trkpt lat="42.21659" lon="1.24648">
        <ele>1306.5</ele>
        <time>2019-02-12T10:08:01Z</time>
      </trkpt>
      <trkpt lat="42.2164" lon="1.24628">
        <ele>1312.1</ele>
        <time>2019-02-12T10:08:15Z</time>
      </trkpt>
      <trkpt lat="42.21638" lon="1.24592">
        <ele>1306.7</ele>
        <time>2019-02-12T10:08:31Z</time>
      </trkpt>
      <trkpt lat="42.21626" lon="1.24495">
        <ele>1288.8</ele>
        <time>2019-02-12T10:09:12Z</time>
      </trkpt>
      <trkpt lat="42.21601" lon="1.24393">
        <ele>1272</ele>
        <time>2019-02-12T10:09:58Z</time>
      </trkpt>
      <trkpt lat="42.21576" lon="1.24374">
        <ele>1278.7</ele>
        <time>2019-02-12T10:10:14Z</time>
      </trkpt>
      <trkpt lat="42.21555" lon="1.24336">
        <ele>1279.6</ele>
        <time>2019-02-12T10:10:34Z</time>
      </trkpt>
      <trkpt lat="42.21512" lon="1.24313">
        <ele>1288.1</ele>
        <time>2019-02-12T10:11:00Z</time>
      </trkpt>
      <trkpt lat="42.21479" lon="1.24291">
        <ele>1289.9</ele>
        <time>2019-02-12T10:11:22Z</time>
      </trkpt>
      <trkpt lat="42.21448" lon="1.24258">
        <ele>1284.6</ele>
        <time>2019-02-12T10:11:44Z</time>
      </trkpt>
      <trkpt lat="42.21421" lon="1.24243">
        <ele>1285.1</ele>
        <time>2019-02-12T10:12:00Z</time>
      </trkpt>
      <trkpt lat="42.21373" lon="1.24252">
        <ele>1302.7</ele>
        <time>2019-02-12T10:12:29Z</time>
      </trkpt>
      <trkpt lat="42.21336" lon="1.24251">
        <ele>1316.3</ele>
        <time>2019-02-12T10:12:50Z</time>
      </trkpt>
      <trkpt lat="42.2129" lon="1.24231">
        <ele>1322.9</ele>
        <time>2019-02-12T10:13:17Z</time>
      </trkpt>
      <trkpt lat="42.21246" lon="1.24228">
        <ele>1377.5</ele>
        <time>2019-02-12T10:13:42Z</time>
      </trkpt>
      <trkpt lat="42.21217" lon="1.2425">
        <ele>1424.3</ele>
        <time>2019-02-12T10:14:02Z</time>
      </trkpt>
      <trkpt lat="42.21192" lon="1.24261">
        <ele>1453.5</ele>
        <time>2019-02-12T10:14:16Z</time>
      </trkpt>
      <trkpt lat="42.21171" lon="1.24262">
        <ele>1473.3</ele>
        <time>2019-02-12T10:14:29Z</time>
      </trkpt>
      <trkpt lat="42.2115" lon="1.24274">
        <ele>1494.1</ele>
        <time>2019-02-12T10:14:41Z</time>
      </trkpt>
      <trkpt lat="42.21104" lon="1.2431">
        <ele>1509.5</ele>
        <time>2019-02-12T10:15:12Z</time>
      </trkpt>
      <trkpt lat="42.21083" lon="1.24312">
        <ele>1501.1</ele>
        <time>2019-02-12T10:15:24Z</time>
      </trkpt>
      <trkpt lat="42.21073" lon="1.24312">
        <ele>1496.8</ele>
        <time>2019-02-12T10:15:30Z</time>
      </trkpt>
      <trkpt lat="42.21063" lon="1.24319">
        <ele>1492.7</ele>
        <time>2019-02-12T10:15:36Z</time>
      </trkpt>
      <trkpt lat="42.21048" lon="1.2434">
        <ele>1485.2</ele>
        <time>2019-02-12T10:15:48Z</time>
      </trkpt>
      <trkpt lat="42.21036" lon="1.24337">
        <ele>1480.1</ele>
        <time>2019-02-12T10:15:56Z</time>
      </trkpt>
      <trkpt lat="42.2102" lon="1.24335">
        <ele>1474</ele>
        <time>2019-02-12T10:16:05Z</time>
      </trkpt>
      <trkpt lat="42.21011" lon="1.24339">
        <ele>1470.1</ele>
        <time>2019-02-12T10:16:10Z</time>
      </trkpt>
      <trkpt lat="42.21" lon="1.24329">
        <ele>1466.5</ele>
        <time>2019-02-12T10:16:18Z</time>
      </trkpt>
      <trkpt lat="42.20993" lon="1.24327">
        <ele>1464.1</ele>
        <time>2019-02-12T10:16:22Z</time>
      </trkpt>
      <trkpt lat="42.2098" lon="1.24311">
        <ele>1460.4</ele>
        <time>2019-02-12T10:16:32Z</time>
      </trkpt>
      <trkpt lat="42.20969" lon="1.24306">
        <ele>1456.7</ele>
        <time>2019-02-12T10:16:38Z</time>
      </trkpt>
      <trkpt lat="42.20959" lon="1.24297">
        <ele>1453.7</ele>
        <time>2019-02-12T10:16:45Z</time>
      </trkpt>
      <trkpt lat="42.20948" lon="1.24298">
        <ele>1451.2</ele>
        <time>2019-02-12T10:16:52Z</time>
      </trkpt>
      <trkpt lat="42.20937" lon="1.24309">
        <ele>1447.7</ele>
        <time>2019-02-12T10:16:59Z</time>
      </trkpt>
      <trkpt lat="42.20926" lon="1.24328">
        <ele>1443</ele>
        <time>2019-02-12T10:17:10Z</time>
      </trkpt>
      <trkpt lat="42.20923" lon="1.24342">
        <ele>1441</ele>
        <time>2019-02-12T10:17:16Z</time>
      </trkpt>
      <trkpt lat="42.20915" lon="1.24352">
        <ele>1437.8</ele>
        <time>2019-02-12T10:17:22Z</time>
      </trkpt>
      <trkpt lat="42.2091" lon="1.24359">
        <ele>1435.7</ele>
        <time>2019-02-12T10:17:26Z</time>
      </trkpt>
      <trkpt lat="42.20904" lon="1.24367">
        <ele>1433.5</ele>
        <time>2019-02-12T10:17:31Z</time>
      </trkpt>
      <trkpt lat="42.20893" lon="1.24377">
        <ele>1429.1</ele>
        <time>2019-02-12T10:17:39Z</time>
      </trkpt>
      <trkpt lat="42.20895" lon="1.24396">
        <ele>1427.4</ele>
        <time>2019-02-12T10:17:47Z</time>
      </trkpt>
      <trkpt lat="42.20901" lon="1.24437">
        <ele>1423.4</ele>
        <time>2019-02-12T10:18:05Z</time>
      </trkpt>
      <trkpt lat="42.20902" lon="1.24509">
        <ele>1415.5</ele>
        <time>2019-02-12T10:18:35Z</time>
      </trkpt>
      <trkpt lat="42.20896" lon="1.24573">
        <ele>1407.4</ele>
        <time>2019-02-12T10:19:02Z</time>
      </trkpt>
      <trkpt lat="42.20895" lon="1.24627">
        <ele>1401.5</ele>
        <time>2019-02-12T10:19:26Z</time>
      </trkpt>
      <trkpt lat="42.20889" lon="1.24656">
        <ele>1395.3</ele>
        <time>2019-02-12T10:19:38Z</time>
      </trkpt>
      <trkpt lat="42.20891" lon="1.24691">
        <ele>1390.7</ele>
        <time>2019-02-12T10:19:53Z</time>
      </trkpt>
      <trkpt lat="42.20887" lon="1.24715">
        <ele>1385.9</ele>
        <time>2019-02-12T10:20:04Z</time>
      </trkpt>
      <trkpt lat="42.20882" lon="1.24752">
        <ele>1381.5</ele>
        <time>2019-02-12T10:20:19Z</time>
      </trkpt>
      <trkpt lat="42.20878" lon="1.24782">
        <ele>1377.7</ele>
        <time>2019-02-12T10:20:32Z</time>
      </trkpt>
      <trkpt lat="42.20875" lon="1.24806">
        <ele>1374.9</ele>
        <time>2019-02-12T10:20:43Z</time>
      </trkpt>
      <trkpt lat="42.20865" lon="1.24811">
        <ele>1372.4</ele>
        <time>2019-02-12T10:20:49Z</time>
      </trkpt>
      <trkpt lat="42.20853" lon="1.24804">
        <ele>1370.7</ele>
        <time>2019-02-12T10:20:56Z</time>
      </trkpt>
      <trkpt lat="42.20848" lon="1.24795">
        <ele>1370.6</ele>
        <time>2019-02-12T10:21:01Z</time>
      </trkpt>
      <trkpt lat="42.20849" lon="1.24796">
        <ele>1370.6</ele>
        <time>2019-02-12T10:21:01Z</time>
      </trkpt>
      <trkpt lat="42.20846" lon="1.24763">
        <ele>1372.8</ele>
        <time>2019-02-12T10:21:15Z</time>
      </trkpt>
      <trkpt lat="42.20842" lon="1.24745">
        <ele>1373.8</ele>
        <time>2019-02-12T10:21:23Z</time>
      </trkpt>
      <trkpt lat="42.20845" lon="1.24727">
        <ele>1375.9</ele>
        <time>2019-02-12T10:21:31Z</time>
      </trkpt>
      <trkpt lat="42.20851" lon="1.24716">
        <ele>1377.6</ele>
        <time>2019-02-12T10:21:37Z</time>
      </trkpt>
      <trkpt lat="42.20862" lon="1.24705">
        <ele>1380.5</ele>
        <time>2019-02-12T10:21:44Z</time>
      </trkpt>
      <trkpt lat="42.20861" lon="1.24684">
        <ele>1384.5</ele>
        <time>2019-02-12T10:21:54Z</time>
      </trkpt>
      <trkpt lat="42.20855" lon="1.24644">
        <ele>1391.1</ele>
        <time>2019-02-12T10:22:11Z</time>
      </trkpt>
      <trkpt lat="42.20841" lon="1.24607">
        <ele>1397.1</ele>
        <time>2019-02-12T10:22:28Z</time>
      </trkpt>
      <trkpt lat="42.2083" lon="1.24595">
        <ele>1399.5</ele>
        <time>2019-02-12T10:22:37Z</time>
      </trkpt>
      <trkpt lat="42.20806" lon="1.245">
        <ele>1419.8</ele>
        <time>2019-02-12T10:23:19Z</time>
      </trkpt>
      <trkpt lat="42.20795" lon="1.24473">
        <ele>1424.9</ele>
        <time>2019-02-12T10:23:32Z</time>
      </trkpt>
      <trkpt lat="42.20789" lon="1.24426">
        <ele>1430.7</ele>
        <time>2019-02-12T10:23:52Z</time>
      </trkpt>
      <trkpt lat="42.20783" lon="1.24374">
        <ele>1438.2</ele>
        <time>2019-02-12T10:24:15Z</time>
      </trkpt>
      <trkpt lat="42.20776" lon="1.2431">
        <ele>1447.5</ele>
        <time>2019-02-12T10:24:42Z</time>
      </trkpt>
      <trkpt lat="42.20774" lon="1.2428">
        <ele>1451</ele>
        <time>2019-02-12T10:24:55Z</time>
      </trkpt>
      <trkpt lat="42.20777" lon="1.2426">
        <ele>1450.3</ele>
        <time>2019-02-12T10:25:04Z</time>
      </trkpt>
      <trkpt lat="42.2078" lon="1.24239">
        <ele>1449.5</ele>
        <time>2019-02-12T10:25:13Z</time>
      </trkpt>
      <trkpt lat="42.20792" lon="1.2422">
        <ele>1443.6</ele>
        <time>2019-02-12T10:25:23Z</time>
      </trkpt>
      <trkpt lat="42.20796" lon="1.24211">
        <ele>1443.9</ele>
        <time>2019-02-12T10:25:28Z</time>
      </trkpt>
      <trkpt lat="42.20784" lon="1.24191">
        <ele>1448.5</ele>
        <time>2019-02-12T10:25:39Z</time>
      </trkpt>
      <trkpt lat="42.20768" lon="1.24152">
        <ele>1456.8</ele>
        <time>2019-02-12T10:25:58Z</time>
      </trkpt>
      <trkpt lat="42.20759" lon="1.24111">
        <ele>1460.7</ele>
        <time>2019-02-12T10:26:16Z</time>
      </trkpt>
      <trkpt lat="42.20754" lon="1.24074">
        <ele>1463</ele>
        <time>2019-02-12T10:26:32Z</time>
      </trkpt>
      <trkpt lat="42.20751" lon="1.2405">
        <ele>1464.1</ele>
        <time>2019-02-12T10:26:42Z</time>
      </trkpt>
      <trkpt lat="42.20745" lon="1.24028">
        <ele>1466.6</ele>
        <time>2019-02-12T10:26:52Z</time>
      </trkpt>
      <trkpt lat="42.20744" lon="1.24008">
        <ele>1467.3</ele>
        <time>2019-02-12T10:27:00Z</time>
      </trkpt>
      <trkpt lat="42.20745" lon="1.23961">
        <ele>1467.3</ele>
        <time>2019-02-12T10:27:20Z</time>
      </trkpt>
      <trkpt lat="42.20737" lon="1.23904">
        <ele>1468.9</ele>
        <time>2019-02-12T10:27:45Z</time>
      </trkpt>
      <trkpt lat="42.20727" lon="1.23864">
        <ele>1470.8</ele>
        <time>2019-02-12T10:28:03Z</time>
      </trkpt>
      <trkpt lat="42.20703" lon="1.23802">
        <ele>1474.1</ele>
        <time>2019-02-12T10:28:33Z</time>
      </trkpt>
      <trkpt lat="42.20692" lon="1.23762">
        <ele>1477.1</ele>
        <time>2019-02-12T10:28:50Z</time>
      </trkpt>
      <trkpt lat="42.20678" lon="1.23735">
        <ele>1482.6</ele>
        <time>2019-02-12T10:29:05Z</time>
      </trkpt>
      <trkpt lat="42.20661" lon="1.23701">
        <ele>1489.7</ele>
        <time>2019-02-12T10:29:22Z</time>
      </trkpt>
      <trkpt lat="42.20656" lon="1.23672">
        <ele>1491.3</ele>
        <time>2019-02-12T10:29:35Z</time>
      </trkpt>
      <trkpt lat="42.20648" lon="1.2365">
        <ele>1494.4</ele>
        <time>2019-02-12T10:29:45Z</time>
      </trkpt>
      <trkpt lat="42.20633" lon="1.23632">
        <ele>1500</ele>
        <time>2019-02-12T10:29:56Z</time>
      </trkpt>
      <trkpt lat="42.2063" lon="1.23614">
        <ele>1501.4</ele>
        <time>2019-02-12T10:30:04Z</time>
      </trkpt>
      <trkpt lat="42.20621" lon="1.23544">
        <ele>1508.4</ele>
        <time>2019-02-12T10:30:34Z</time>
      </trkpt>
      <trkpt lat="42.20616" lon="1.23488">
        <ele>1516</ele>
        <time>2019-02-12T10:30:58Z</time>
      </trkpt>
      <trkpt lat="42.20615" lon="1.23417">
        <ele>1521.3</ele>
        <time>2019-02-12T10:31:28Z</time>
      </trkpt>
      <trkpt lat="42.2062" lon="1.23398">
        <ele>1520.3</ele>
        <time>2019-02-12T10:31:36Z</time>
      </trkpt>
      <trkpt lat="42.20619" lon="1.23355">
        <ele>1524.4</ele>
        <time>2019-02-12T10:31:55Z</time>
      </trkpt>
      <trkpt lat="42.2062" lon="1.23304">
        <ele>1529</ele>
        <time>2019-02-12T10:32:16Z</time>
      </trkpt>
      <trkpt lat="42.2063" lon="1.23253">
        <ele>1529.9</ele>
        <time>2019-02-12T10:32:39Z</time>
      </trkpt>
      <trkpt lat="42.20642" lon="1.23214">
        <ele>1531.1</ele>
        <time>2019-02-12T10:32:57Z</time>
      </trkpt>
      <trkpt lat="42.20651" lon="1.23192">
        <ele>1531.1</ele>
        <time>2019-02-12T10:33:07Z</time>
      </trkpt>
      <trkpt lat="42.20659" lon="1.23171">
        <ele>1531.1</ele>
        <time>2019-02-12T10:33:17Z</time>
      </trkpt>
      <trkpt lat="42.2066" lon="1.23149">
        <ele>1532</ele>
        <time>2019-02-12T10:33:27Z</time>
      </trkpt>
      <trkpt lat="42.20661" lon="1.23126">
        <ele>1533.2</ele>
        <time>2019-02-12T10:33:37Z</time>
      </trkpt>
      <trkpt lat="42.20658" lon="1.23104">
        <ele>1535</ele>
        <time>2019-02-12T10:33:46Z</time>
      </trkpt>
      <trkpt lat="42.20646" lon="1.23068">
        <ele>1538.3</ele>
        <time>2019-02-12T10:34:03Z</time>
      </trkpt>
      <trkpt lat="42.20639" lon="1.23029">
        <ele>1540.9</ele>
        <time>2019-02-12T10:34:20Z</time>
      </trkpt>
      <trkpt lat="42.20619" lon="1.22938">
        <ele>1548.1</ele>
        <time>2019-02-12T10:35:00Z</time>
      </trkpt>
      <trkpt lat="42.2061" lon="1.22888">
        <ele>1554.2</ele>
        <time>2019-02-12T10:35:22Z</time>
      </trkpt>
      <trkpt lat="42.20605" lon="1.22829">
        <ele>1558.6</ele>
        <time>2019-02-12T10:35:47Z</time>
      </trkpt>
      <trkpt lat="42.20602" lon="1.22796">
        <ele>1561</ele>
        <time>2019-02-12T10:36:01Z</time>
      </trkpt>
      <trkpt lat="42.20597" lon="1.22757">
        <ele>1563.4</ele>
        <time>2019-02-12T10:36:18Z</time>
      </trkpt>
      <trkpt lat="42.20587" lon="1.22718">
        <ele>1567.4</ele>
        <time>2019-02-12T10:36:35Z</time>
      </trkpt>
      <trkpt lat="42.20581" lon="1.2267">
        <ele>1572.2</ele>
        <time>2019-02-12T10:36:56Z</time>
      </trkpt>
      <trkpt lat="42.20576" lon="1.22633">
        <ele>1575.8</ele>
        <time>2019-02-12T10:37:11Z</time>
      </trkpt>
      <trkpt lat="42.20565" lon="1.22574">
        <ele>1582.1</ele>
        <time>2019-02-12T10:37:37Z</time>
      </trkpt>
      <trkpt lat="42.20559" lon="1.22528">
        <ele>1585.3</ele>
        <time>2019-02-12T10:37:57Z</time>
      </trkpt>
      <trkpt lat="42.20554" lon="1.22483">
        <ele>1586.6</ele>
        <time>2019-02-12T10:38:16Z</time>
      </trkpt>
      <trkpt lat="42.20549" lon="1.22448">
        <ele>1586.9</ele>
        <time>2019-02-12T10:38:31Z</time>
      </trkpt>
      <trkpt lat="42.20551" lon="1.22426">
        <ele>1585.8</ele>
        <time>2019-02-12T10:38:41Z</time>
      </trkpt>
      <trkpt lat="42.2055" lon="1.22398">
        <ele>1584.7</ele>
        <time>2019-02-12T10:38:53Z</time>
      </trkpt>
      <trkpt lat="42.20553" lon="1.22376">
        <ele>1583.9</ele>
        <time>2019-02-12T10:39:02Z</time>
      </trkpt>
      <trkpt lat="42.20557" lon="1.22364">
        <ele>1584.5</ele>
        <time>2019-02-12T10:39:08Z</time>
      </trkpt>
      <trkpt lat="42.20559" lon="1.22351">
        <ele>1585.1</ele>
        <time>2019-02-12T10:39:13Z</time>
      </trkpt>
      <trkpt lat="42.20557" lon="1.22335">
        <ele>1585.3</ele>
        <time>2019-02-12T10:39:20Z</time>
      </trkpt>
      <trkpt lat="42.20542" lon="1.22326">
        <ele>1583.2</ele>
        <time>2019-02-12T10:39:30Z</time>
      </trkpt>
      <trkpt lat="42.20512" lon="1.22302">
        <ele>1590.2</ele>
        <time>2019-02-12T10:39:49Z</time>
      </trkpt>
      <trkpt lat="42.20503" lon="1.22271">
        <ele>1593.7</ele>
        <time>2019-02-12T10:40:04Z</time>
      </trkpt>
      <trkpt lat="42.20504" lon="1.2224">
        <ele>1595.2</ele>
        <time>2019-02-12T10:40:17Z</time>
      </trkpt>
      <trkpt lat="42.20517" lon="1.22206">
        <ele>1594.9</ele>
        <time>2019-02-12T10:40:33Z</time>
      </trkpt>
      <trkpt lat="42.20522" lon="1.22196">
        <ele>1595.1</ele>
        <time>2019-02-12T10:40:38Z</time>
      </trkpt>
      <trkpt lat="42.20519" lon="1.22143">
        <ele>1601.5</ele>
        <time>2019-02-12T10:41:01Z</time>
      </trkpt>
      <trkpt lat="42.20519" lon="1.22114">
        <ele>1604.2</ele>
        <time>2019-02-12T10:41:13Z</time>
      </trkpt>
      <trkpt lat="42.20515" lon="1.22059">
        <ele>1608.7</ele>
        <time>2019-02-12T10:41:36Z</time>
      </trkpt>
      <trkpt lat="42.20505" lon="1.22023">
        <ele>1612.5</ele>
        <time>2019-02-12T10:41:53Z</time>
      </trkpt>
      <trkpt lat="42.20495" lon="1.2199">
        <ele>1616.4</ele>
        <time>2019-02-12T10:42:08Z</time>
      </trkpt>
      <trkpt lat="42.20486" lon="1.21983">
        <ele>1617.7</ele>
        <time>2019-02-12T10:42:14Z</time>
      </trkpt>
      <trkpt lat="42.2047" lon="1.21977">
        <ele>1619.5</ele>
        <time>2019-02-12T10:42:23Z</time>
      </trkpt>
      <trkpt lat="42.20458" lon="1.21965">
        <ele>1621.5</ele>
        <time>2019-02-12T10:42:32Z</time>
      </trkpt>
      <trkpt lat="42.20449" lon="1.21934">
        <ele>1627.9</ele>
        <time>2019-02-12T10:42:46Z</time>
      </trkpt>
      <trkpt lat="42.20442" lon="1.21894">
        <ele>1633.1</ele>
        <time>2019-02-12T10:43:03Z</time>
      </trkpt>
      <trkpt lat="42.20446" lon="1.21876">
        <ele>1633</ele>
        <time>2019-02-12T10:43:11Z</time>
      </trkpt>
      <trkpt lat="42.20443" lon="1.21855">
        <ele>1635.2</ele>
        <time>2019-02-12T10:43:20Z</time>
      </trkpt>
      <trkpt lat="42.20444" lon="1.21825">
        <ele>1636.7</ele>
        <time>2019-02-12T10:43:33Z</time>
      </trkpt>
      <trkpt lat="42.20446" lon="1.21803">
        <ele>1637.1</ele>
        <time>2019-02-12T10:43:42Z</time>
      </trkpt>
      <trkpt lat="42.20442" lon="1.21792">
        <ele>1639.4</ele>
        <time>2019-02-12T10:43:47Z</time>
      </trkpt>
      <trkpt lat="42.20434" lon="1.21792">
        <ele>1642.6</ele>
        <time>2019-02-12T10:43:52Z</time>
      </trkpt>
      <trkpt lat="42.20426" lon="1.21797">
        <ele>1645.3</ele>
        <time>2019-02-12T10:43:57Z</time>
      </trkpt>
      <trkpt lat="42.20417" lon="1.21839">
        <ele>1646.3</ele>
        <time>2019-02-12T10:44:16Z</time>
      </trkpt>
      <trkpt lat="42.20394" lon="1.21913">
        <ele>1652</ele>
        <time>2019-02-12T10:44:49Z</time>
      </trkpt>
      <trkpt lat="42.20371" lon="1.21976">
        <ele>1658.1</ele>
        <time>2019-02-12T10:45:19Z</time>
      </trkpt>
      <trkpt lat="42.20352" lon="1.22022">
        <ele>1660.2</ele>
        <time>2019-02-12T10:45:41Z</time>
      </trkpt>
      <trkpt lat="42.20349" lon="1.22034">
        <ele>1659.9</ele>
        <time>2019-02-12T10:45:47Z</time>
      </trkpt>
      <trkpt lat="42.20342" lon="1.22036">
        <ele>1663.1</ele>
        <time>2019-02-12T10:45:51Z</time>
      </trkpt>
      <trkpt lat="42.20339" lon="1.22021">
        <ele>1666.5</ele>
        <time>2019-02-12T10:45:58Z</time>
      </trkpt>
      <trkpt lat="42.2035" lon="1.22004">
        <ele>1663.5</ele>
        <time>2019-02-12T10:46:07Z</time>
      </trkpt>
      <trkpt lat="42.20358" lon="1.21948">
        <ele>1666.6</ele>
        <time>2019-02-12T10:46:32Z</time>
      </trkpt>
      <trkpt lat="42.20359" lon="1.2185">
        <ele>1669.4</ele>
        <time>2019-02-12T10:47:13Z</time>
      </trkpt>
      <trkpt lat="42.2035" lon="1.2177">
        <ele>1675.9</ele>
        <time>2019-02-12T10:47:47Z</time>
      </trkpt>
      <trkpt lat="42.20344" lon="1.21726">
        <ele>1680.3</ele>
        <time>2019-02-12T10:48:07Z</time>
      </trkpt>
      <trkpt lat="42.20347" lon="1.21701">
        <ele>1679.9</ele>
        <time>2019-02-12T10:48:17Z</time>
      </trkpt>
      <trkpt lat="42.20356" lon="1.21638">
        <ele>1682.1</ele>
        <time>2019-02-12T10:48:44Z</time>
      </trkpt>
      <trkpt lat="42.20357" lon="1.21601">
        <ele>1684.7</ele>
        <time>2019-02-12T10:49:00Z</time>
      </trkpt>
      <trkpt lat="42.20353" lon="1.21563">
        <ele>1688.7</ele>
        <time>2019-02-12T10:49:16Z</time>
      </trkpt>
      <trkpt lat="42.20351" lon="1.21524">
        <ele>1691.7</ele>
        <time>2019-02-12T10:49:33Z</time>
      </trkpt>
      <trkpt lat="42.20346" lon="1.21489">
        <ele>1693.9</ele>
        <time>2019-02-12T10:49:48Z</time>
      </trkpt>
      <trkpt lat="42.20346" lon="1.21468">
        <ele>1694.3</ele>
        <time>2019-02-12T10:49:57Z</time>
      </trkpt>
      <trkpt lat="42.20355" lon="1.21451">
        <ele>1692</ele>
        <time>2019-02-12T10:50:06Z</time>
      </trkpt>
      <trkpt lat="42.20361" lon="1.21429">
        <ele>1690.8</ele>
        <time>2019-02-12T10:50:16Z</time>
      </trkpt>
      <trkpt lat="42.20364" lon="1.21398">
        <ele>1691.3</ele>
        <time>2019-02-12T10:50:29Z</time>
      </trkpt>
      <trkpt lat="42.20359" lon="1.21371">
        <ele>1693.4</ele>
        <time>2019-02-12T10:50:41Z</time>
      </trkpt>
      <trkpt lat="42.20357" lon="1.21345">
        <ele>1693.4</ele>
        <time>2019-02-12T10:50:52Z</time>
      </trkpt>
      <trkpt lat="42.20356" lon="1.21317">
        <ele>1693.2</ele>
        <time>2019-02-12T10:51:04Z</time>
      </trkpt>
      <trkpt lat="42.20349" lon="1.21292">
        <ele>1693.2</ele>
        <time>2019-02-12T10:51:15Z</time>
      </trkpt>
      <trkpt lat="42.20338" lon="1.21269">
        <ele>1691.6</ele>
        <time>2019-02-12T10:51:27Z</time>
      </trkpt>
      <trkpt lat="42.20328" lon="1.21261">
        <ele>1691.3</ele>
        <time>2019-02-12T10:51:33Z</time>
      </trkpt>
      <trkpt lat="42.20324" lon="1.21243">
        <ele>1689.3</ele>
        <time>2019-02-12T10:51:41Z</time>
      </trkpt>
      <trkpt lat="42.20333" lon="1.21212">
        <ele>1685.5</ele>
        <time>2019-02-12T10:51:55Z</time>
      </trkpt>
      <trkpt lat="42.20336" lon="1.21204">
        <ele>1684.4</ele>
        <time>2019-02-12T10:51:59Z</time>
      </trkpt>
      <trkpt lat="42.20342" lon="1.21199">
        <ele>1683.4</ele>
        <time>2019-02-12T10:52:03Z</time>
      </trkpt>
      <trkpt lat="42.2035" lon="1.21196">
        <ele>1682.9</ele>
        <time>2019-02-12T10:52:08Z</time>
      </trkpt>
      <trkpt lat="42.20356" lon="1.21188">
        <ele>1681.5</ele>
        <time>2019-02-12T10:52:13Z</time>
      </trkpt>
      <trkpt lat="42.20361" lon="1.21183">
        <ele>1680.6</ele>
        <time>2019-02-12T10:52:16Z</time>
      </trkpt>
      <trkpt lat="42.20365" lon="1.21173">
        <ele>1678.7</ele>
        <time>2019-02-12T10:52:21Z</time>
      </trkpt>
      <trkpt lat="42.20366" lon="1.21167">
        <ele>1677.6</ele>
        <time>2019-02-12T10:52:24Z</time>
      </trkpt>
      <trkpt lat="42.2037" lon="1.21165">
        <ele>1677.2</ele>
        <time>2019-02-12T10:52:26Z</time>
      </trkpt>
      <trkpt lat="42.20373" lon="1.21162">
        <ele>1676.7</ele>
        <time>2019-02-12T10:52:28Z</time>
      </trkpt>
      <trkpt lat="42.20376" lon="1.21159">
        <ele>1676.2</ele>
        <time>2019-02-12T10:52:31Z</time>
      </trkpt>
      <trkpt lat="42.20379" lon="1.21156">
        <ele>1676</ele>
        <time>2019-02-12T10:52:32Z</time>
      </trkpt>
      <trkpt lat="42.20383" lon="1.21153">
        <ele>1676</ele>
        <time>2019-02-12T10:52:35Z</time>
      </trkpt>
      <trkpt lat="42.20386" lon="1.2115">
        <ele>1675.9</ele>
        <time>2019-02-12T10:52:37Z</time>
      </trkpt>
      <trkpt lat="42.20391" lon="1.21148">
        <ele>1676.1</ele>
        <time>2019-02-12T10:52:40Z</time>
      </trkpt>
      <trkpt lat="42.20447" lon="1.21063">
        <ele>1665.6</ele>
        <time>2019-02-12T10:53:28Z</time>
      </trkpt>
      <trkpt lat="42.20478" lon="1.21047">
        <ele>1665.2</ele>
        <time>2019-02-12T10:53:48Z</time>
      </trkpt>
      <trkpt lat="42.20524" lon="1.2101">
        <ele>1661.1</ele>
        <time>2019-02-12T10:54:18Z</time>
      </trkpt>
      <trkpt lat="42.20545" lon="1.20972">
        <ele>1654.3</ele>
        <time>2019-02-12T10:54:38Z</time>
      </trkpt>
      <trkpt lat="42.2057" lon="1.20946">
        <ele>1649.1</ele>
        <time>2019-02-12T10:54:56Z</time>
      </trkpt>
      <trkpt lat="42.20607" lon="1.20908">
        <ele>1640.9</ele>
        <time>2019-02-12T10:55:23Z</time>
      </trkpt>
      <trkpt lat="42.20632" lon="1.20888">
        <ele>1637.2</ele>
        <time>2019-02-12T10:55:39Z</time>
      </trkpt>
      <trkpt lat="42.20637" lon="1.20835">
        <ele>1624.8</ele>
        <time>2019-02-12T10:56:02Z</time>
      </trkpt>
      <trkpt lat="42.20644" lon="1.20771">
        <ele>1609.7</ele>
        <time>2019-02-12T10:56:30Z</time>
      </trkpt>
      <trkpt lat="42.20657" lon="1.20731">
        <ele>1601.5</ele>
        <time>2019-02-12T10:56:48Z</time>
      </trkpt>
      <trkpt lat="42.20652" lon="1.20671">
        <ele>1585.5</ele>
        <time>2019-02-12T10:57:14Z</time>
      </trkpt>
      <trkpt lat="42.2066" lon="1.20592">
        <ele>1572.9</ele>
        <time>2019-02-12T10:57:47Z</time>
      </trkpt>
      <trkpt lat="42.20675" lon="1.20513">
        <ele>1568.1</ele>
        <time>2019-02-12T10:58:22Z</time>
      </trkpt>
      <trkpt lat="42.20674" lon="1.20477">
        <ele>1566.7</ele>
        <time>2019-02-12T10:58:37Z</time>
      </trkpt>
      <trkpt lat="42.20667" lon="1.20404">
        <ele>1562</ele>
        <time>2019-02-12T10:59:08Z</time>
      </trkpt>
      <trkpt lat="42.2067" lon="1.20363">
        <ele>1560.1</ele>
        <time>2019-02-12T10:59:26Z</time>
      </trkpt>
      <trkpt lat="42.20663" lon="1.20309">
        <ele>1554.6</ele>
        <time>2019-02-12T10:59:49Z</time>
      </trkpt>
      <trkpt lat="42.20662" lon="1.20275">
        <ele>1551.3</ele>
        <time>2019-02-12T11:00:03Z</time>
      </trkpt>
      <trkpt lat="42.20648" lon="1.20199">
        <ele>1541.5</ele>
        <time>2019-02-12T11:00:37Z</time>
      </trkpt>
      <trkpt lat="42.20667" lon="1.20163">
        <ele>1535.1</ele>
        <time>2019-02-12T11:00:55Z</time>
      </trkpt>
      <trkpt lat="42.20678" lon="1.20142">
        <ele>1531</ele>
        <time>2019-02-12T11:01:06Z</time>
      </trkpt>
      <trkpt lat="42.20679" lon="1.20114">
        <ele>1523.8</ele>
        <time>2019-02-12T11:01:18Z</time>
      </trkpt>
      <trkpt lat="42.20703" lon="1.20094">
        <ele>1519.2</ele>
        <time>2019-02-12T11:01:34Z</time>
      </trkpt>
      <trkpt lat="42.20705" lon="1.20069">
        <ele>1512.2</ele>
        <time>2019-02-12T11:01:45Z</time>
      </trkpt>
      <trkpt lat="42.20705" lon="1.20054">
        <ele>1508.3</ele>
        <time>2019-02-12T11:01:51Z</time>
      </trkpt>
      <trkpt lat="42.20703" lon="1.20034">
        <ele>1503.3</ele>
        <time>2019-02-12T11:01:59Z</time>
      </trkpt>
      <trkpt lat="42.20706" lon="1.20018">
        <ele>1501</ele>
        <time>2019-02-12T11:02:07Z</time>
      </trkpt>
      <trkpt lat="42.20717" lon="1.2">
        <ele>1499.6</ele>
        <time>2019-02-12T11:02:16Z</time>
      </trkpt>
      <trkpt lat="42.20735" lon="1.19998">
        <ele>1501.7</ele>
        <time>2019-02-12T11:02:27Z</time>
      </trkpt>
      <trkpt lat="42.20747" lon="1.19992">
        <ele>1502.6</ele>
        <time>2019-02-12T11:02:34Z</time>
      </trkpt>
      <trkpt lat="42.20748" lon="1.19978">
        <ele>1500.8</ele>
        <time>2019-02-12T11:02:40Z</time>
      </trkpt>
      <trkpt lat="42.20744" lon="1.19961">
        <ele>1497.9</ele>
        <time>2019-02-12T11:02:48Z</time>
      </trkpt>
      <trkpt lat="42.2075" lon="1.19897">
        <ele>1492</ele>
        <time>2019-02-12T11:03:15Z</time>
      </trkpt>
      <trkpt lat="42.20749" lon="1.19866">
        <ele>1488.9</ele>
        <time>2019-02-12T11:03:28Z</time>
      </trkpt>
      <trkpt lat="42.20753" lon="1.19829">
        <ele>1487.1</ele>
        <time>2019-02-12T11:03:44Z</time>
      </trkpt>
      <trkpt lat="42.20754" lon="1.19808">
        <ele>1486</ele>
        <time>2019-02-12T11:03:53Z</time>
      </trkpt>
      <trkpt lat="42.20763" lon="1.19792">
        <ele>1485.9</ele>
        <time>2019-02-12T11:04:02Z</time>
      </trkpt>
      <trkpt lat="42.20778" lon="1.19782">
        <ele>1487</ele>
        <time>2019-02-12T11:04:11Z</time>
      </trkpt>
      <trkpt lat="42.20786" lon="1.19773">
        <ele>1487.3</ele>
        <time>2019-02-12T11:04:17Z</time>
      </trkpt>
      <trkpt lat="42.2079" lon="1.19742">
        <ele>1486</ele>
        <time>2019-02-12T11:04:30Z</time>
      </trkpt>
      <trkpt lat="42.20797" lon="1.19718">
        <ele>1485.7</ele>
        <time>2019-02-12T11:04:41Z</time>
      </trkpt>
      <trkpt lat="42.20808" lon="1.19671">
        <ele>1485.7</ele>
        <time>2019-02-12T11:05:02Z</time>
      </trkpt>
      <trkpt lat="42.20824" lon="1.19625">
        <ele>1485.6</ele>
        <time>2019-02-12T11:05:24Z</time>
      </trkpt>
      <trkpt lat="42.20832" lon="1.19588">
        <ele>1485.6</ele>
        <time>2019-02-12T11:05:40Z</time>
      </trkpt>
      <trkpt lat="42.2083" lon="1.19572">
        <ele>1484.7</ele>
        <time>2019-02-12T11:05:47Z</time>
      </trkpt>
      <trkpt lat="42.20832" lon="1.19549">
        <ele>1484.2</ele>
        <time>2019-02-12T11:05:57Z</time>
      </trkpt>
      <trkpt lat="42.20842" lon="1.19526">
        <ele>1485</ele>
        <time>2019-02-12T11:06:08Z</time>
      </trkpt>
      <trkpt lat="42.20846" lon="1.19482">
        <ele>1485</ele>
        <time>2019-02-12T11:06:27Z</time>
      </trkpt>
      <trkpt lat="42.20845" lon="1.19458">
        <ele>1484.7</ele>
        <time>2019-02-12T11:06:37Z</time>
      </trkpt>
      <trkpt lat="42.20842" lon="1.19444">
        <ele>1484.2</ele>
        <time>2019-02-12T11:06:43Z</time>
      </trkpt>
      <trkpt lat="42.20844" lon="1.19419">
        <ele>1484.1</ele>
        <time>2019-02-12T11:06:54Z</time>
      </trkpt>
      <trkpt lat="42.20847" lon="1.19401">
        <ele>1484.1</ele>
        <time>2019-02-12T11:07:02Z</time>
      </trkpt>
      <trkpt lat="42.20842" lon="1.1938">
        <ele>1483.4</ele>
        <time>2019-02-12T11:07:11Z</time>
      </trkpt>
      <trkpt lat="42.20828" lon="1.19357">
        <ele>1482.1</ele>
        <time>2019-02-12T11:07:24Z</time>
      </trkpt>
      <trkpt lat="42.20817" lon="1.19343">
        <ele>1481.3</ele>
        <time>2019-02-12T11:07:32Z</time>
      </trkpt>
      <trkpt lat="42.20815" lon="1.19323">
        <ele>1481.2</ele>
        <time>2019-02-12T11:07:41Z</time>
      </trkpt>
      <trkpt lat="42.2083" lon="1.19286">
        <ele>1482.4</ele>
        <time>2019-02-12T11:07:59Z</time>
      </trkpt>
      <trkpt lat="42.20832" lon="1.19239">
        <ele>1483.7</ele>
        <time>2019-02-12T11:08:19Z</time>
      </trkpt>
      <trkpt lat="42.2083" lon="1.19208">
        <ele>1484.3</ele>
        <time>2019-02-12T11:08:32Z</time>
      </trkpt>
      <trkpt lat="42.20821" lon="1.19184">
        <ele>1484</ele>
        <time>2019-02-12T11:08:43Z</time>
      </trkpt>
      <trkpt lat="42.20817" lon="1.19148">
        <ele>1483.9</ele>
        <time>2019-02-12T11:08:59Z</time>
      </trkpt>
      <trkpt lat="42.20824" lon="1.19117">
        <ele>1485</ele>
        <time>2019-02-12T11:09:12Z</time>
      </trkpt>
      <trkpt lat="42.20835" lon="1.19091">
        <ele>1486</ele>
        <time>2019-02-12T11:09:25Z</time>
      </trkpt>
      <trkpt lat="42.20835" lon="1.1907">
        <ele>1485.8</ele>
        <time>2019-02-12T11:09:34Z</time>
      </trkpt>
      <trkpt lat="42.20834" lon="1.19045">
        <ele>1485.7</ele>
        <time>2019-02-12T11:09:44Z</time>
      </trkpt>
      <trkpt lat="42.20835" lon="1.19019">
        <ele>1485.3</ele>
        <time>2019-02-12T11:09:56Z</time>
      </trkpt>
      <trkpt lat="42.2084" lon="1.18965">
        <ele>1484.8</ele>
        <time>2019-02-12T11:10:19Z</time>
      </trkpt>
      <trkpt lat="42.20849" lon="1.18933">
        <ele>1486.3</ele>
        <time>2019-02-12T11:10:33Z</time>
      </trkpt>
      <trkpt lat="42.20852" lon="1.18881">
        <ele>1487.3</ele>
        <time>2019-02-12T11:10:55Z</time>
      </trkpt>
      <trkpt lat="42.20856" lon="1.18856">
        <ele>1487.9</ele>
        <time>2019-02-12T11:11:06Z</time>
      </trkpt>
      <trkpt lat="42.20855" lon="1.18834">
        <ele>1487.5</ele>
        <time>2019-02-12T11:11:16Z</time>
      </trkpt>
      <trkpt lat="42.2087" lon="1.18823">
        <ele>1489.7</ele>
        <time>2019-02-12T11:11:25Z</time>
      </trkpt>
      <trkpt lat="42.20864" lon="1.1882">
        <ele>1488.8</ele>
        <time>2019-02-12T11:11:29Z</time>
      </trkpt>
      <trkpt lat="42.20837" lon="1.18809">
        <ele>1484.7</ele>
        <time>2019-02-12T11:11:45Z</time>
      </trkpt>
      <trkpt lat="42.20795" lon="1.18804">
        <ele>1478.6</ele>
        <time>2019-02-12T11:12:09Z</time>
      </trkpt>
      <trkpt lat="42.20755" lon="1.18801">
        <ele>1475.3</ele>
        <time>2019-02-12T11:12:32Z</time>
      </trkpt>
      <trkpt lat="42.20726" lon="1.188">
        <ele>1473.2</ele>
        <time>2019-02-12T11:12:49Z</time>
      </trkpt>
      <trkpt lat="42.20712" lon="1.18811">
        <ele>1471.8</ele>
        <time>2019-02-12T11:12:58Z</time>
      </trkpt>
      <trkpt lat="42.20694" lon="1.18823">
        <ele>1470.6</ele>
        <time>2019-02-12T11:13:10Z</time>
      </trkpt>
      <trkpt lat="42.20683" lon="1.18841">
        <ele>1470.1</ele>
        <time>2019-02-12T11:13:19Z</time>
      </trkpt>
      <trkpt lat="42.20661" lon="1.18853">
        <ele>1469.4</ele>
        <time>2019-02-12T11:13:33Z</time>
      </trkpt>
      <trkpt lat="42.20639" lon="1.18872">
        <ele>1469.1</ele>
        <time>2019-02-12T11:13:48Z</time>
      </trkpt>
      <trkpt lat="42.20594" lon="1.18882">
        <ele>1466.4</ele>
        <time>2019-02-12T11:14:14Z</time>
      </trkpt>
      <trkpt lat="42.20568" lon="1.18872">
        <ele>1464.9</ele>
        <time>2019-02-12T11:14:29Z</time>
      </trkpt>
      <trkpt lat="42.20546" lon="1.18865">
        <ele>1463.1</ele>
        <time>2019-02-12T11:14:42Z</time>
      </trkpt>
      <trkpt lat="42.20512" lon="1.1885">
        <ele>1460.6</ele>
        <time>2019-02-12T11:15:03Z</time>
      </trkpt>
      <trkpt lat="42.20457" lon="1.18821">
        <ele>1457.4</ele>
        <time>2019-02-12T11:15:37Z</time>
      </trkpt>
      <trkpt lat="42.20441" lon="1.18799">
        <ele>1456.7</ele>
        <time>2019-02-12T11:15:50Z</time>
      </trkpt>
      <trkpt lat="42.20412" lon="1.18781">
        <ele>1455.8</ele>
        <time>2019-02-12T11:16:08Z</time>
      </trkpt>
      <trkpt lat="42.20387" lon="1.18749">
        <ele>1454.8</ele>
        <time>2019-02-12T11:16:28Z</time>
      </trkpt>
      <trkpt lat="42.20359" lon="1.18723">
        <ele>1453.9</ele>
        <time>2019-02-12T11:16:47Z</time>
      </trkpt>
      <trkpt lat="42.20339" lon="1.18691">
        <ele>1453.1</ele>
        <time>2019-02-12T11:17:05Z</time>
      </trkpt>
      <trkpt lat="42.20323" lon="1.18659">
        <ele>1451.7</ele>
        <time>2019-02-12T11:17:21Z</time>
      </trkpt>
      <trkpt lat="42.20305" lon="1.18628">
        <ele>1449.8</ele>
        <time>2019-02-12T11:17:38Z</time>
      </trkpt>
      <trkpt lat="42.20279" lon="1.18586">
        <ele>1449.8</ele>
        <time>2019-02-12T11:18:01Z</time>
      </trkpt>
      <trkpt lat="42.20253" lon="1.18556">
        <ele>1449.8</ele>
        <time>2019-02-12T11:18:21Z</time>
      </trkpt>
      <trkpt lat="42.20229" lon="1.1851">
        <ele>1448.6</ele>
        <time>2019-02-12T11:18:45Z</time>
      </trkpt>
      <trkpt lat="42.2022" lon="1.18484">
        <ele>1447.1</ele>
        <time>2019-02-12T11:18:57Z</time>
      </trkpt>
      <trkpt lat="42.20203" lon="1.18452">
        <ele>1445.2</ele>
        <time>2019-02-12T11:19:14Z</time>
      </trkpt>
      <trkpt lat="42.20191" lon="1.18427">
        <ele>1444.9</ele>
        <time>2019-02-12T11:19:26Z</time>
      </trkpt>
      <trkpt lat="42.20176" lon="1.18372">
        <ele>1443.8</ele>
        <time>2019-02-12T11:19:51Z</time>
      </trkpt>
      <trkpt lat="42.20157" lon="1.18359">
        <ele>1443.9</ele>
        <time>2019-02-12T11:20:03Z</time>
      </trkpt>
      <trkpt lat="42.20137" lon="1.18349">
        <ele>1443.9</ele>
        <time>2019-02-12T11:20:16Z</time>
      </trkpt>
      <trkpt lat="42.20119" lon="1.1833">
        <ele>1443.6</ele>
        <time>2019-02-12T11:20:29Z</time>
      </trkpt>
      <trkpt lat="42.20105" lon="1.18307">
        <ele>1443.3</ele>
        <time>2019-02-12T11:20:41Z</time>
      </trkpt>
      <trkpt lat="42.20078" lon="1.18302">
        <ele>1441.5</ele>
        <time>2019-02-12T11:20:57Z</time>
      </trkpt>
      <trkpt lat="42.20046" lon="1.18298">
        <ele>1439.3</ele>
        <time>2019-02-12T11:21:15Z</time>
      </trkpt>
      <trkpt lat="42.20016" lon="1.18292">
        <ele>1442.8</ele>
        <time>2019-02-12T11:21:32Z</time>
      </trkpt>
      <trkpt lat="42.20002" lon="1.18273">
        <ele>1443.5</ele>
        <time>2019-02-12T11:21:44Z</time>
      </trkpt>
      <trkpt lat="42.19999" lon="1.18181">
        <ele>1439</ele>
        <time>2019-02-12T11:22:23Z</time>
      </trkpt>
      <trkpt lat="42.19996" lon="1.1814">
        <ele>1439.3</ele>
        <time>2019-02-12T11:22:40Z</time>
      </trkpt>
      <trkpt lat="42.19997" lon="1.18105">
        <ele>1439</ele>
        <time>2019-02-12T11:22:55Z</time>
      </trkpt>
      <trkpt lat="42.20005" lon="1.18079">
        <ele>1438.6</ele>
        <time>2019-02-12T11:23:07Z</time>
      </trkpt>
      <trkpt lat="42.20005" lon="1.18016">
        <ele>1436.3</ele>
        <time>2019-02-12T11:23:34Z</time>
      </trkpt>
      <trkpt lat="42.20003" lon="1.17985">
        <ele>1433.5</ele>
        <time>2019-02-12T11:23:47Z</time>
      </trkpt>
      <trkpt lat="42.19987" lon="1.17965">
        <ele>1430.8</ele>
        <time>2019-02-12T11:23:59Z</time>
      </trkpt>
      <trkpt lat="42.19983" lon="1.17955">
        <ele>1429.8</ele>
        <time>2019-02-12T11:24:04Z</time>
      </trkpt>
      <trkpt lat="42.19988" lon="1.17902">
        <ele>1430.5</ele>
        <time>2019-02-12T11:24:27Z</time>
      </trkpt>
      <trkpt lat="42.1996" lon="1.17885">
        <ele>1427.4</ele>
        <time>2019-02-12T11:24:44Z</time>
      </trkpt>
      <trkpt lat="42.19956" lon="1.17828">
        <ele>1430</ele>
        <time>2019-02-12T11:25:08Z</time>
      </trkpt>
      <trkpt lat="42.19947" lon="1.17762">
        <ele>1431.6</ele>
        <time>2019-02-12T11:25:37Z</time>
      </trkpt>
      <trkpt lat="42.19929" lon="1.1774">
        <ele>1431.3</ele>
        <time>2019-02-12T11:25:51Z</time>
      </trkpt>
      <trkpt lat="42.19931" lon="1.17714">
        <ele>1430.8</ele>
        <time>2019-02-12T11:26:02Z</time>
      </trkpt>
      <trkpt lat="42.19945" lon="1.17684">
        <ele>1429.5</ele>
        <time>2019-02-12T11:26:17Z</time>
      </trkpt>
      <trkpt lat="42.19956" lon="1.17647">
        <ele>1429.1</ele>
        <time>2019-02-12T11:26:34Z</time>
      </trkpt>
      <trkpt lat="42.19949" lon="1.17631">
        <ele>1428</ele>
        <time>2019-02-12T11:26:41Z</time>
      </trkpt>
      <trkpt lat="42.19939" lon="1.17626">
        <ele>1426.6</ele>
        <time>2019-02-12T11:26:48Z</time>
      </trkpt>
      <trkpt lat="42.19932" lon="1.1761">
        <ele>1425.7</ele>
        <time>2019-02-12T11:26:56Z</time>
      </trkpt>
      <trkpt lat="42.19938" lon="1.17582">
        <ele>1426.7</ele>
        <time>2019-02-12T11:27:08Z</time>
      </trkpt>
      <trkpt lat="42.19928" lon="1.17545">
        <ele>1425.6</ele>
        <time>2019-02-12T11:27:24Z</time>
      </trkpt>
      <trkpt lat="42.19911" lon="1.17513">
        <ele>1424.4</ele>
        <time>2019-02-12T11:27:41Z</time>
      </trkpt>
      <trkpt lat="42.19908" lon="1.17479">
        <ele>1425.7</ele>
        <time>2019-02-12T11:27:56Z</time>
      </trkpt>
      <trkpt lat="42.19922" lon="1.1743">
        <ele>1430.1</ele>
        <time>2019-02-12T11:28:18Z</time>
      </trkpt>
      <trkpt lat="42.19924" lon="1.17398">
        <ele>1433.3</ele>
        <time>2019-02-12T11:28:32Z</time>
      </trkpt>
      <trkpt lat="42.19919" lon="1.17387">
        <ele>1434.1</ele>
        <time>2019-02-12T11:28:37Z</time>
      </trkpt>
      <trkpt lat="42.19906" lon="1.17392">
        <ele>1432.6</ele>
        <time>2019-02-12T11:28:45Z</time>
      </trkpt>
      <trkpt lat="42.19875" lon="1.17395">
        <ele>1430.3</ele>
        <time>2019-02-12T11:29:03Z</time>
      </trkpt>
      <trkpt lat="42.19836" lon="1.17383">
        <ele>1428.3</ele>
        <time>2019-02-12T11:29:26Z</time>
      </trkpt>
      <trkpt lat="42.19817" lon="1.17361">
        <ele>1427.3</ele>
        <time>2019-02-12T11:29:40Z</time>
      </trkpt>
      <trkpt lat="42.19813" lon="1.17334">
        <ele>1427.2</ele>
        <time>2019-02-12T11:29:51Z</time>
      </trkpt>
      <trkpt lat="42.19806" lon="1.17282">
        <ele>1427.5</ele>
        <time>2019-02-12T11:30:14Z</time>
      </trkpt>
      <trkpt lat="42.19812" lon="1.17242">
        <ele>1429.4</ele>
        <time>2019-02-12T11:30:31Z</time>
      </trkpt>
      <trkpt lat="42.19824" lon="1.17243">
        <ele>1429.8</ele>
        <time>2019-02-12T11:30:38Z</time>
      </trkpt>
      <trkpt lat="42.19839" lon="1.17229">
        <ele>1430.8</ele>
        <time>2019-02-12T11:30:48Z</time>
      </trkpt>
      <trkpt lat="42.199" lon="1.17165">
        <ele>1437</ele>
        <time>2019-02-12T11:31:32Z</time>
      </trkpt>
      <trkpt lat="42.19935" lon="1.17132">
        <ele>1440.6</ele>
        <time>2019-02-12T11:31:57Z</time>
      </trkpt>
      <trkpt lat="42.19944" lon="1.17119">
        <ele>1441.9</ele>
        <time>2019-02-12T11:32:04Z</time>
      </trkpt>
      <trkpt lat="42.19945" lon="1.17101">
        <ele>1443.9</ele>
        <time>2019-02-12T11:32:12Z</time>
      </trkpt>
      <trkpt lat="42.19927" lon="1.17062">
        <ele>1447.1</ele>
        <time>2019-02-12T11:32:31Z</time>
      </trkpt>
      <trkpt lat="42.19913" lon="1.17063">
        <ele>1446.2</ele>
        <time>2019-02-12T11:32:39Z</time>
      </trkpt>
      <trkpt lat="42.19891" lon="1.17055">
        <ele>1445.7</ele>
        <time>2019-02-12T11:32:52Z</time>
      </trkpt>
      <trkpt lat="42.19863" lon="1.17069">
        <ele>1442.1</ele>
        <time>2019-02-12T11:33:10Z</time>
      </trkpt>
      <trkpt lat="42.19849" lon="1.17077">
        <ele>1439.8</ele>
        <time>2019-02-12T11:33:18Z</time>
      </trkpt>
      <trkpt lat="42.19842" lon="1.17061">
        <ele>1440.2</ele>
        <time>2019-02-12T11:33:26Z</time>
      </trkpt>
      <trkpt lat="42.19841" lon="1.16878">
        <ele>1449.4</ele>
        <time>2019-02-12T11:34:44Z</time>
      </trkpt>
      <trkpt lat="42.19847" lon="1.16844">
        <ele>1451.6</ele>
        <time>2019-02-12T11:34:59Z</time>
      </trkpt>
      <trkpt lat="42.1987" lon="1.16814">
        <ele>1453.9</ele>
        <time>2019-02-12T11:35:17Z</time>
      </trkpt>
      <trkpt lat="42.19902" lon="1.16786">
        <ele>1458.6</ele>
        <time>2019-02-12T11:35:38Z</time>
      </trkpt>
      <trkpt lat="42.1993" lon="1.16749">
        <ele>1466.2</ele>
        <time>2019-02-12T11:36:00Z</time>
      </trkpt>
      <trkpt lat="42.19927" lon="1.1672">
        <ele>1469.1</ele>
        <time>2019-02-12T11:36:13Z</time>
      </trkpt>
      <trkpt lat="42.1993" lon="1.16677">
        <ele>1473</ele>
        <time>2019-02-12T11:36:31Z</time>
      </trkpt>
      <trkpt lat="42.19929" lon="1.16639">
        <ele>1476.3</ele>
        <time>2019-02-12T11:36:47Z</time>
      </trkpt>
      <trkpt lat="42.19921" lon="1.16614">
        <ele>1477.7</ele>
        <time>2019-02-12T11:36:59Z</time>
      </trkpt>
      <trkpt lat="42.19904" lon="1.16594">
        <ele>1478.4</ele>
        <time>2019-02-12T11:37:12Z</time>
      </trkpt>
      <trkpt lat="42.1989" lon="1.16579">
        <ele>1479.1</ele>
        <time>2019-02-12T11:37:22Z</time>
      </trkpt>
      <trkpt lat="42.1988" lon="1.16553">
        <ele>1480.3</ele>
        <time>2019-02-12T11:37:34Z</time>
      </trkpt>
      <trkpt lat="42.19864" lon="1.16536">
        <ele>1480.9</ele>
        <time>2019-02-12T11:37:46Z</time>
      </trkpt>
      <trkpt lat="42.19859" lon="1.16512">
        <ele>1480.7</ele>
        <time>2019-02-12T11:37:56Z</time>
      </trkpt>
      <trkpt lat="42.19848" lon="1.16495">
        <ele>1481.3</ele>
        <time>2019-02-12T11:38:06Z</time>
      </trkpt>
      <trkpt lat="42.19832" lon="1.16478">
        <ele>1483.2</ele>
        <time>2019-02-12T11:38:17Z</time>
      </trkpt>
      <trkpt lat="42.19813" lon="1.16457">
        <ele>1486.5</ele>
        <time>2019-02-12T11:38:31Z</time>
      </trkpt>
      <trkpt lat="42.1978" lon="1.16423">
        <ele>1489.9</ele>
        <time>2019-02-12T11:38:55Z</time>
      </trkpt>
      <trkpt lat="42.19755" lon="1.16406">
        <ele>1495.1</ele>
        <time>2019-02-12T11:39:11Z</time>
      </trkpt>
      <trkpt lat="42.19678" lon="1.16348">
        <ele>1520.5</ele>
        <time>2019-02-12T11:40:02Z</time>
      </trkpt>
      <trkpt lat="42.19639" lon="1.16312">
        <ele>1537.9</ele>
        <time>2019-02-12T11:40:29Z</time>
      </trkpt>
      <trkpt lat="42.19575" lon="1.1625">
        <ele>1574.6</ele>
        <time>2019-02-12T11:41:14Z</time>
      </trkpt>
      <trkpt lat="42.19541" lon="1.16246">
        <ele>1594.7</ele>
        <time>2019-02-12T11:41:33Z</time>
      </trkpt>
      <trkpt lat="42.1953" lon="1.16194">
        <ele>1602.3</ele>
        <time>2019-02-12T11:41:56Z</time>
      </trkpt>
      <trkpt lat="42.19511" lon="1.16141">
        <ele>1611.1</ele>
        <time>2019-02-12T11:42:21Z</time>
      </trkpt>
      <trkpt lat="42.19475" lon="1.16193">
        <ele>1628.2</ele>
        <time>2019-02-12T11:42:51Z</time>
      </trkpt>
      <trkpt lat="42.19439" lon="1.16231">
        <ele>1640.1</ele>
        <time>2019-02-12T11:43:18Z</time>
      </trkpt>
      <trkpt lat="42.19409" lon="1.16278">
        <ele>1646.9</ele>
        <time>2019-02-12T11:43:44Z</time>
      </trkpt>
      <trkpt lat="42.19382" lon="1.16295">
        <ele>1653.6</ele>
        <time>2019-02-12T11:44:01Z</time>
      </trkpt>
      <trkpt lat="42.1936" lon="1.16286">
        <ele>1661.8</ele>
        <time>2019-02-12T11:44:14Z</time>
      </trkpt>
      <trkpt lat="42.19343" lon="1.16238">
        <ele>1672.8</ele>
        <time>2019-02-12T11:44:37Z</time>
      </trkpt>
      <trkpt lat="42.19326" lon="1.1624">
        <ele>1678.9</ele>
        <time>2019-02-12T11:44:46Z</time>
      </trkpt>
      <trkpt lat="42.19295" lon="1.16251">
        <ele>1689.1</ele>
        <time>2019-02-12T11:45:04Z</time>
      </trkpt>
      <trkpt lat="42.19279" lon="1.16286">
        <ele>1690.7</ele>
        <time>2019-02-12T11:45:22Z</time>
      </trkpt>
      <trkpt lat="42.19212" lon="1.16384">
        <ele>1700.3</ele>
        <time>2019-02-12T11:46:18Z</time>
      </trkpt>
      <trkpt lat="42.19179" lon="1.16422">
        <ele>1705.6</ele>
        <time>2019-02-12T11:46:43Z</time>
      </trkpt>
      <trkpt lat="42.19162" lon="1.16422">
        <ele>1709.8</ele>
        <time>2019-02-12T11:46:53Z</time>
      </trkpt>
      <trkpt lat="42.19154" lon="1.1645">
        <ele>1709.1</ele>
        <time>2019-02-12T11:47:06Z</time>
      </trkpt>
      <trkpt lat="42.19113" lon="1.16518">
        <ele>1713.4</ele>
        <time>2019-02-12T11:47:43Z</time>
      </trkpt>
      <trkpt lat="42.19059" lon="1.16568">
        <ele>1717.3</ele>
        <time>2019-02-12T11:48:21Z</time>
      </trkpt>
      <trkpt lat="42.19049" lon="1.16591">
        <ele>1716.1</ele>
        <time>2019-02-12T11:48:32Z</time>
      </trkpt>
      <trkpt lat="42.19034" lon="1.16594">
        <ele>1714.6</ele>
        <time>2019-02-12T11:48:40Z</time>
      </trkpt>
      <trkpt lat="42.19006" lon="1.16613">
        <ele>1705.1</ele>
        <time>2019-02-12T11:48:59Z</time>
      </trkpt>
      <trkpt lat="42.18995" lon="1.16633">
        <ele>1700.1</ele>
        <time>2019-02-12T11:49:09Z</time>
      </trkpt>
      <trkpt lat="42.18975" lon="1.16642">
        <ele>1694.7</ele>
        <time>2019-02-12T11:49:21Z</time>
      </trkpt>
      <trkpt lat="42.18957" lon="1.16657">
        <ele>1689.1</ele>
        <time>2019-02-12T11:49:33Z</time>
      </trkpt>
      <trkpt lat="42.18936" lon="1.16669">
        <ele>1678.1</ele>
        <time>2019-02-12T11:49:46Z</time>
      </trkpt>
      <trkpt lat="42.18921" lon="1.16675">
        <ele>1670.2</ele>
        <time>2019-02-12T11:49:55Z</time>
      </trkpt>
      <trkpt lat="42.18929" lon="1.16659">
        <ele>1675.2</ele>
        <time>2019-02-12T11:50:04Z</time>
      </trkpt>
      <trkpt lat="42.18932" lon="1.16635">
        <ele>1678.1</ele>
        <time>2019-02-12T11:50:14Z</time>
      </trkpt>
      <trkpt lat="42.18924" lon="1.16619">
        <ele>1675.3</ele>
        <time>2019-02-12T11:50:22Z</time>
      </trkpt>
      <trkpt lat="42.18922" lon="1.16608">
        <ele>1675.9</ele>
        <time>2019-02-12T11:50:27Z</time>
      </trkpt>
      <trkpt lat="42.1892" lon="1.16597">
        <ele>1675.9</ele>
        <time>2019-02-12T11:50:32Z</time>
      </trkpt>
      <trkpt lat="42.18911" lon="1.16597">
        <ele>1671.7</ele>
        <time>2019-02-12T11:50:37Z</time>
      </trkpt>
      <trkpt lat="42.18886" lon="1.16575">
        <ele>1660.5</ele>
        <time>2019-02-12T11:50:54Z</time>
      </trkpt>
      <trkpt lat="42.18869" lon="1.16546">
        <ele>1653.1</ele>
        <time>2019-02-12T11:51:09Z</time>
      </trkpt>
      <trkpt lat="42.18855" lon="1.16531">
        <ele>1647.9</ele>
        <time>2019-02-12T11:51:20Z</time>
      </trkpt>
      <trkpt lat="42.1883" lon="1.16525">
        <ele>1636.7</ele>
        <time>2019-02-12T11:51:34Z</time>
      </trkpt>
      <trkpt lat="42.18811" lon="1.16522">
        <ele>1627.7</ele>
        <time>2019-02-12T11:51:46Z</time>
      </trkpt>
      <trkpt lat="42.18803" lon="1.16507">
        <ele>1623.8</ele>
        <time>2019-02-12T11:51:53Z</time>
      </trkpt>
      <trkpt lat="42.18788" lon="1.16496">
        <ele>1616.2</ele>
        <time>2019-02-12T11:52:03Z</time>
      </trkpt>
      <trkpt lat="42.18762" lon="1.16498">
        <ele>1604.5</ele>
        <time>2019-02-12T11:52:18Z</time>
      </trkpt>
      <trkpt lat="42.18751" lon="1.16491">
        <ele>1599.1</ele>
        <time>2019-02-12T11:52:25Z</time>
      </trkpt>
      <trkpt lat="42.18747" lon="1.16503">
        <ele>1597.8</ele>
        <time>2019-02-12T11:52:30Z</time>
      </trkpt>
      <trkpt lat="42.18731" lon="1.16513">
        <ele>1591</ele>
        <time>2019-02-12T11:52:40Z</time>
      </trkpt>
      <trkpt lat="42.18717" lon="1.16516">
        <ele>1584.3</ele>
        <time>2019-02-12T11:52:49Z</time>
      </trkpt>
      <trkpt lat="42.18706" lon="1.16527">
        <ele>1579.4</ele>
        <time>2019-02-12T11:52:56Z</time>
      </trkpt>
      <trkpt lat="42.18693" lon="1.16519">
        <ele>1571.6</ele>
        <time>2019-02-12T11:53:05Z</time>
      </trkpt>
      <trkpt lat="42.18673" lon="1.16518">
        <ele>1560.2</ele>
        <time>2019-02-12T11:53:16Z</time>
      </trkpt>
      <trkpt lat="42.18648" lon="1.16519">
        <ele>1546.3</ele>
        <time>2019-02-12T11:53:30Z</time>
      </trkpt>
      <trkpt lat="42.1863" lon="1.16514">
        <ele>1535.9</ele>
        <time>2019-02-12T11:53:41Z</time>
      </trkpt>
      <trkpt lat="42.18584" lon="1.16466">
        <ele>1509.9</ele>
        <time>2019-02-12T11:54:14Z</time>
      </trkpt>
      <trkpt lat="42.18562" lon="1.16455">
        <ele>1497</ele>
        <time>2019-02-12T11:54:28Z</time>
      </trkpt>
      <trkpt lat="42.18528" lon="1.16448">
        <ele>1480.2</ele>
        <time>2019-02-12T11:54:47Z</time>
      </trkpt>
      <trkpt lat="42.18513" lon="1.16427">
        <ele>1473</ele>
        <time>2019-02-12T11:55:00Z</time>
      </trkpt>
      <trkpt lat="42.18498" lon="1.16402">
        <ele>1465.5</ele>
        <time>2019-02-12T11:55:13Z</time>
      </trkpt>
      <trkpt lat="42.1847" lon="1.1639">
        <ele>1453.1</ele>
        <time>2019-02-12T11:55:30Z</time>
      </trkpt>
      <trkpt lat="42.18439" lon="1.16366">
        <ele>1435.3</ele>
        <time>2019-02-12T11:55:51Z</time>
      </trkpt>
      <trkpt lat="42.18428" lon="1.16344">
        <ele>1424.6</ele>
        <time>2019-02-12T11:56:02Z</time>
      </trkpt>
      <trkpt lat="42.18415" lon="1.16321">
        <ele>1413.4</ele>
        <time>2019-02-12T11:56:14Z</time>
      </trkpt>
      <trkpt lat="42.18383" lon="1.16299">
        <ele>1393.9</ele>
        <time>2019-02-12T11:56:35Z</time>
      </trkpt>
      <trkpt lat="42.18364" lon="1.16301">
        <ele>1386.6</ele>
        <time>2019-02-12T11:56:45Z</time>
      </trkpt>
      <trkpt lat="42.18352" lon="1.16306">
        <ele>1382.7</ele>
        <time>2019-02-12T11:56:53Z</time>
      </trkpt>
      <trkpt lat="42.18337" lon="1.16279">
        <ele>1372.3</ele>
        <time>2019-02-12T11:57:07Z</time>
      </trkpt>
      <trkpt lat="42.183" lon="1.16252">
        <ele>1353.5</ele>
        <time>2019-02-12T11:57:32Z</time>
      </trkpt>
      <trkpt lat="42.18246" lon="1.16197">
        <ele>1328</ele>
        <time>2019-02-12T11:58:10Z</time>
      </trkpt>
      <trkpt lat="42.18226" lon="1.1617">
        <ele>1320.3</ele>
        <time>2019-02-12T11:58:26Z</time>
      </trkpt>
      <trkpt lat="42.18224" lon="1.16139">
        <ele>1317.9</ele>
        <time>2019-02-12T11:58:39Z</time>
      </trkpt>
      <trkpt lat="42.18212" lon="1.1612">
        <ele>1314.1</ele>
        <time>2019-02-12T11:58:50Z</time>
      </trkpt>
      <trkpt lat="42.1821" lon="1.16106">
        <ele>1311.9</ele>
        <time>2019-02-12T11:58:56Z</time>
      </trkpt>
      <trkpt lat="42.18196" lon="1.16085">
        <ele>1306.5</ele>
        <time>2019-02-12T11:59:08Z</time>
      </trkpt>
      <trkpt lat="42.18188" lon="1.16071">
        <ele>1303.3</ele>
        <time>2019-02-12T11:59:16Z</time>
      </trkpt>
      <trkpt lat="42.18167" lon="1.1608">
        <ele>1300.8</ele>
        <time>2019-02-12T11:59:28Z</time>
      </trkpt>
      <trkpt lat="42.18135" lon="1.16062">
        <ele>1293.5</ele>
        <time>2019-02-12T11:59:48Z</time>
      </trkpt>
      <trkpt lat="42.1812" lon="1.1604">
        <ele>1288.9</ele>
        <time>2019-02-12T12:00:01Z</time>
      </trkpt>
      <trkpt lat="42.18114" lon="1.16031">
        <ele>1286.5</ele>
        <time>2019-02-12T12:00:06Z</time>
      </trkpt>
      <trkpt lat="42.18154" lon="1.15985">
        <ele>1284.6</ele>
        <time>2019-02-12T12:00:36Z</time>
      </trkpt>
      <trkpt lat="42.18159" lon="1.15943">
        <ele>1279.7</ele>
        <time>2019-02-12T12:00:53Z</time>
      </trkpt>
      <trkpt lat="42.18169" lon="1.15928">
        <ele>1280.6</ele>
        <time>2019-02-12T12:01:02Z</time>
      </trkpt>
      <trkpt lat="42.18144" lon="1.15938">
        <ele>1276.7</ele>
        <time>2019-02-12T12:01:17Z</time>
      </trkpt>
      <trkpt lat="42.1812" lon="1.15931">
        <ele>1272.1</ele>
        <time>2019-02-12T12:01:31Z</time>
      </trkpt>
      <trkpt lat="42.18095" lon="1.15932">
        <ele>1268.4</ele>
        <time>2019-02-12T12:01:45Z</time>
      </trkpt>
      <trkpt lat="42.18017" lon="1.15975">
        <ele>1262.7</ele>
        <time>2019-02-12T12:02:34Z</time>
      </trkpt>
      <trkpt lat="42.17986" lon="1.15994">
        <ele>1261.2</ele>
        <time>2019-02-12T12:02:53Z</time>
      </trkpt>
      <trkpt lat="42.17962" lon="1.15989">
        <ele>1257</ele>
        <time>2019-02-12T12:03:07Z</time>
      </trkpt>
      <trkpt lat="42.17946" lon="1.15966">
        <ele>1250.4</ele>
        <time>2019-02-12T12:03:20Z</time>
      </trkpt>
      <trkpt lat="42.1792" lon="1.1598">
        <ele>1248.6</ele>
        <time>2019-02-12T12:03:36Z</time>
      </trkpt>
      <trkpt lat="42.17872" lon="1.15962">
        <ele>1237.8</ele>
        <time>2019-02-12T12:04:05Z</time>
      </trkpt>
      <trkpt lat="42.17832" lon="1.15977">
        <ele>1231.1</ele>
        <time>2019-02-12T12:04:29Z</time>
      </trkpt>
      <trkpt lat="42.17817" lon="1.16">
        <ele>1229.8</ele>
        <time>2019-02-12T12:04:41Z</time>
      </trkpt>
      <trkpt lat="42.178" lon="1.16045">
        <ele>1228.6</ele>
        <time>2019-02-12T12:05:02Z</time>
      </trkpt>
      <trkpt lat="42.1779" lon="1.16086">
        <ele>1227.7</ele>
        <time>2019-02-12T12:05:21Z</time>
      </trkpt>
      <trkpt lat="42.17811" lon="1.16103">
        <ele>1233</ele>
        <time>2019-02-12T12:05:35Z</time>
      </trkpt>
      <trkpt lat="42.17859" lon="1.16137">
        <ele>1240.9</ele>
        <time>2019-02-12T12:06:06Z</time>
      </trkpt>
      <trkpt lat="42.17826" lon="1.16143">
        <ele>1234.7</ele>
        <time>2019-02-12T12:06:26Z</time>
      </trkpt>
      <trkpt lat="42.17794" lon="1.1615">
        <ele>1228.9</ele>
        <time>2019-02-12T12:06:44Z</time>
      </trkpt>
      <trkpt lat="42.1775" lon="1.16176">
        <ele>1218.1</ele>
        <time>2019-02-12T12:07:12Z</time>
      </trkpt>
      <trkpt lat="42.17712" lon="1.16186">
        <ele>1210.2</ele>
        <time>2019-02-12T12:07:34Z</time>
      </trkpt>
      <trkpt lat="42.1768" lon="1.16192">
        <ele>1204.6</ele>
        <time>2019-02-12T12:07:52Z</time>
      </trkpt>
      <trkpt lat="42.17646" lon="1.1618">
        <ele>1197.6</ele>
        <time>2019-02-12T12:08:12Z</time>
      </trkpt>
      <trkpt lat="42.17625" lon="1.16205">
        <ele>1195.8</ele>
        <time>2019-02-12T12:08:28Z</time>
      </trkpt>
      <trkpt lat="42.17591" lon="1.16237">
        <ele>1191.6</ele>
        <time>2019-02-12T12:08:52Z</time>
      </trkpt>
      <trkpt lat="42.17544" lon="1.16264">
        <ele>1187.6</ele>
        <time>2019-02-12T12:09:21Z</time>
      </trkpt>
      <trkpt lat="42.1751" lon="1.1628">
        <ele>1186.3</ele>
        <time>2019-02-12T12:09:42Z</time>
      </trkpt>
      <trkpt lat="42.17469" lon="1.16271">
        <ele>1181.2</ele>
        <time>2019-02-12T12:10:06Z</time>
      </trkpt>
      <trkpt lat="42.17435" lon="1.16273">
        <ele>1180.8</ele>
        <time>2019-02-12T12:10:25Z</time>
      </trkpt>
      <trkpt lat="42.17401" lon="1.16268">
        <ele>1180.1</ele>
        <time>2019-02-12T12:10:45Z</time>
      </trkpt>
      <trkpt lat="42.17374" lon="1.1625">
        <ele>1175.4</ele>
        <time>2019-02-12T12:11:02Z</time>
      </trkpt>
      <trkpt lat="42.17349" lon="1.1622">
        <ele>1166.4</ele>
        <time>2019-02-12T12:11:21Z</time>
      </trkpt>
      <trkpt lat="42.17317" lon="1.16196">
        <ele>1160</ele>
        <time>2019-02-12T12:11:42Z</time>
      </trkpt>
      <trkpt lat="42.17301" lon="1.16187">
        <ele>1157.3</ele>
        <time>2019-02-12T12:11:52Z</time>
      </trkpt>
      <trkpt lat="42.17278" lon="1.16207">
        <ele>1157.4</ele>
        <time>2019-02-12T12:12:08Z</time>
      </trkpt>
      <trkpt lat="42.17258" lon="1.1623">
        <ele>1157.2</ele>
        <time>2019-02-12T12:12:23Z</time>
      </trkpt>
      <trkpt lat="42.17232" lon="1.16228">
        <ele>1150.8</ele>
        <time>2019-02-12T12:12:38Z</time>
      </trkpt>
      <trkpt lat="42.17195" lon="1.16233">
        <ele>1144.8</ele>
        <time>2019-02-12T12:12:58Z</time>
      </trkpt>
      <trkpt lat="42.1718" lon="1.16262">
        <ele>1148.7</ele>
        <time>2019-02-12T12:13:14Z</time>
      </trkpt>
      <trkpt lat="42.17161" lon="1.16288">
        <ele>1151.2</ele>
        <time>2019-02-12T12:13:29Z</time>
      </trkpt>
      <trkpt lat="42.17143" lon="1.1631">
        <ele>1150.6</ele>
        <time>2019-02-12T12:13:43Z</time>
      </trkpt>
      <trkpt lat="42.17105" lon="1.16309">
        <ele>1145.7</ele>
        <time>2019-02-12T12:14:05Z</time>
      </trkpt>
      <trkpt lat="42.17105" lon="1.1631">
        <ele>1145.9</ele>
        <time>2019-02-12T12:14:05Z</time>
      </trkpt>
      <trkpt lat="42.17105" lon="1.16318">
        <ele>1146.6</ele>
        <time>2019-02-12T12:14:09Z</time>
      </trkpt>
      <trkpt lat="42.17095" lon="1.16321">
        <ele>1145.7</ele>
        <time>2019-02-12T12:14:14Z</time>
      </trkpt>
      <trkpt lat="42.17084" lon="1.16315">
        <ele>1144.2</ele>
        <time>2019-02-12T12:14:21Z</time>
      </trkpt>
      <trkpt lat="42.17073" lon="1.1631">
        <ele>1142.7</ele>
        <time>2019-02-12T12:14:28Z</time>
      </trkpt>
      <trkpt lat="42.17063" lon="1.16308">
        <ele>1141.7</ele>
        <time>2019-02-12T12:14:33Z</time>
      </trkpt>
      <trkpt lat="42.17057" lon="1.16307">
        <ele>1141</ele>
        <time>2019-02-12T12:14:37Z</time>
      </trkpt>
      <trkpt lat="42.17035" lon="1.16296">
        <ele>1139</ele>
        <time>2019-02-12T12:14:50Z</time>
      </trkpt>
      <trkpt lat="42.17028" lon="1.16294">
        <ele>1138.8</ele>
        <time>2019-02-12T12:14:55Z</time>
      </trkpt>
      <trkpt lat="42.17027" lon="1.16284">
        <ele>1136.8</ele>
        <time>2019-02-12T12:14:59Z</time>
      </trkpt>
      <trkpt lat="42.1702" lon="1.16278">
        <ele>1135.2</ele>
        <time>2019-02-12T12:15:03Z</time>
      </trkpt>
      <trkpt lat="42.17011" lon="1.16271">
        <ele>1133.1</ele>
        <time>2019-02-12T12:15:09Z</time>
      </trkpt>
      <trkpt lat="42.17003" lon="1.16263">
        <ele>1131.2</ele>
        <time>2019-02-12T12:15:15Z</time>
      </trkpt>
      <trkpt lat="42.16997" lon="1.16265">
        <ele>1131.6</ele>
        <time>2019-02-12T12:15:18Z</time>
      </trkpt>
      <trkpt lat="42.16982" lon="1.16269">
        <ele>1132.1</ele>
        <time>2019-02-12T12:15:27Z</time>
      </trkpt>
      <trkpt lat="42.16973" lon="1.16268">
        <ele>1131.7</ele>
        <time>2019-02-12T12:15:32Z</time>
      </trkpt>
      <trkpt lat="42.16959" lon="1.16265">
        <ele>1130.8</ele>
        <time>2019-02-12T12:15:41Z</time>
      </trkpt>
      <trkpt lat="42.16958" lon="1.16261">
        <ele>1129.5</ele>
        <time>2019-02-12T12:15:43Z</time>
      </trkpt>
      <trkpt lat="42.16961" lon="1.16256">
        <ele>1128.6</ele>
        <time>2019-02-12T12:15:45Z</time>
      </trkpt>
      <trkpt lat="42.16973" lon="1.16255">
        <ele>1128.4</ele>
        <time>2019-02-12T12:15:52Z</time>
      </trkpt>
      <trkpt lat="42.16982" lon="1.16243">
        <ele>1125.8</ele>
        <time>2019-02-12T12:15:59Z</time>
      </trkpt>
      <trkpt lat="42.16988" lon="1.16225">
        <ele>1121.4</ele>
        <time>2019-02-12T12:16:08Z</time>
      </trkpt>
      <trkpt lat="42.1699" lon="1.16199">
        <ele>1117.2</ele>
        <time>2019-02-12T12:16:18Z</time>
      </trkpt>
      <trkpt lat="42.16989" lon="1.16178">
        <ele>1116.9</ele>
        <time>2019-02-12T12:16:27Z</time>
      </trkpt>
      <trkpt lat="42.16984" lon="1.16159">
        <ele>1117</ele>
        <time>2019-02-12T12:16:36Z</time>
      </trkpt>
      <trkpt lat="42.16982" lon="1.16142">
        <ele>1116.9</ele>
        <time>2019-02-12T12:16:43Z</time>
      </trkpt>
      <trkpt lat="42.16984" lon="1.16123">
        <ele>1116.9</ele>
        <time>2019-02-12T12:16:51Z</time>
      </trkpt>
      <trkpt lat="42.16988" lon="1.16108">
        <ele>1119.5</ele>
        <time>2019-02-12T12:16:58Z</time>
      </trkpt>
      <trkpt lat="42.16994" lon="1.16097">
        <ele>1121.4</ele>
        <time>2019-02-12T12:17:04Z</time>
      </trkpt>
      <trkpt lat="42.17001" lon="1.1609">
        <ele>1122.1</ele>
        <time>2019-02-12T12:17:09Z</time>
      </trkpt>
      <trkpt lat="42.17004" lon="1.1609">
        <ele>1121.9</ele>
        <time>2019-02-12T12:17:11Z</time>
      </trkpt>
      <trkpt lat="42.17001" lon="1.16082">
        <ele>1123.8</ele>
        <time>2019-02-12T12:17:14Z</time>
      </trkpt>
      <trkpt lat="42.16993" lon="1.16078">
        <ele>1125.3</ele>
        <time>2019-02-12T12:17:19Z</time>
      </trkpt>
      <trkpt lat="42.16984" lon="1.16072">
        <ele>1126.9</ele>
        <time>2019-02-12T12:17:25Z</time>
      </trkpt>
      <trkpt lat="42.16972" lon="1.16059">
        <ele>1130.2</ele>
        <time>2019-02-12T12:17:33Z</time>
      </trkpt>
      <trkpt lat="42.16964" lon="1.16053">
        <ele>1131.6</ele>
        <time>2019-02-12T12:17:39Z</time>
      </trkpt>
      <trkpt lat="42.16952" lon="1.16052">
        <ele>1132.9</ele>
        <time>2019-02-12T12:17:45Z</time>
      </trkpt>
      <trkpt lat="42.16942" lon="1.16049">
        <ele>1134.8</ele>
        <time>2019-02-12T12:17:52Z</time>
      </trkpt>
      <trkpt lat="42.16934" lon="1.16043">
        <ele>1136.5</ele>
        <time>2019-02-12T12:17:57Z</time>
      </trkpt>
      <trkpt lat="42.16929" lon="1.1603">
        <ele>1139.3</ele>
        <time>2019-02-12T12:18:03Z</time>
      </trkpt>
      <trkpt lat="42.16927" lon="1.16023">
        <ele>1140.8</ele>
        <time>2019-02-12T12:18:06Z</time>
      </trkpt>
      <trkpt lat="42.16921" lon="1.16013">
        <ele>1142.8</ele>
        <time>2019-02-12T12:18:12Z</time>
      </trkpt>
      <trkpt lat="42.16915" lon="1.16013">
        <ele>1143.3</ele>
        <time>2019-02-12T12:18:15Z</time>
      </trkpt>
      <trkpt lat="42.16907" lon="1.16014">
        <ele>1143.7</ele>
        <time>2019-02-12T12:18:20Z</time>
      </trkpt>
      <trkpt lat="42.169" lon="1.16012">
        <ele>1144.3</ele>
        <time>2019-02-12T12:18:24Z</time>
      </trkpt>
      <trkpt lat="42.16891" lon="1.16011">
        <ele>1145.1</ele>
        <time>2019-02-12T12:18:29Z</time>
      </trkpt>
      <trkpt lat="42.16884" lon="1.16011">
        <ele>1145.5</ele>
        <time>2019-02-12T12:18:33Z</time>
      </trkpt>
      <trkpt lat="42.16876" lon="1.16007">
        <ele>1146.4</ele>
        <time>2019-02-12T12:18:37Z</time>
      </trkpt>
      <trkpt lat="42.16869" lon="1.16006">
        <ele>1146</ele>
        <time>2019-02-12T12:18:42Z</time>
      </trkpt>
      <trkpt lat="42.16861" lon="1.16006">
        <ele>1145.1</ele>
        <time>2019-02-12T12:18:46Z</time>
      </trkpt>
      <trkpt lat="42.16854" lon="1.16011">
        <ele>1143.9</ele>
        <time>2019-02-12T12:18:51Z</time>
      </trkpt>
      <trkpt lat="42.16852" lon="1.1602">
        <ele>1142.7</ele>
        <time>2019-02-12T12:18:55Z</time>
      </trkpt>
      <trkpt lat="42.16851" lon="1.16026">
        <ele>1141.8</ele>
        <time>2019-02-12T12:18:57Z</time>
      </trkpt>
      <trkpt lat="42.1685" lon="1.16033">
        <ele>1141</ele>
        <time>2019-02-12T12:19:01Z</time>
      </trkpt>
      <trkpt lat="42.16845" lon="1.1603">
        <ele>1140.8</ele>
        <time>2019-02-12T12:19:03Z</time>
      </trkpt>
      <trkpt lat="42.16841" lon="1.16024">
        <ele>1141.2</ele>
        <time>2019-02-12T12:19:07Z</time>
      </trkpt>
      <trkpt lat="42.16836" lon="1.1602">
        <ele>1141</ele>
        <time>2019-02-12T12:19:11Z</time>
      </trkpt>
      <trkpt lat="42.16828" lon="1.16019">
        <ele>1140.4</ele>
        <time>2019-02-12T12:19:15Z</time>
      </trkpt>
      <trkpt lat="42.16821" lon="1.16018">
        <ele>1139.7</ele>
        <time>2019-02-12T12:19:19Z</time>
      </trkpt>
      <trkpt lat="42.16814" lon="1.16018">
        <ele>1139</ele>
        <time>2019-02-12T12:19:23Z</time>
      </trkpt>
      <trkpt lat="42.1681" lon="1.16023">
        <ele>1137.8</ele>
        <time>2019-02-12T12:19:26Z</time>
      </trkpt>
      <trkpt lat="42.16805" lon="1.16025">
        <ele>1137.2</ele>
        <time>2019-02-12T12:19:29Z</time>
      </trkpt>
      <trkpt lat="42.16799" lon="1.16029">
        <ele>1135.8</ele>
        <time>2019-02-12T12:19:33Z</time>
      </trkpt>
      <trkpt lat="42.16793" lon="1.16026">
        <ele>1135.6</ele>
        <time>2019-02-12T12:19:37Z</time>
      </trkpt>
      <trkpt lat="42.1679" lon="1.16026">
        <ele>1135.7</ele>
        <time>2019-02-12T12:19:38Z</time>
      </trkpt>
      <trkpt lat="42.16788" lon="1.1603">
        <ele>1135.2</ele>
        <time>2019-02-12T12:19:40Z</time>
      </trkpt>
      <trkpt lat="42.16782" lon="1.16032">
        <ele>1135.7</ele>
        <time>2019-02-12T12:19:44Z</time>
      </trkpt>
      <trkpt lat="42.16778" lon="1.16029">
        <ele>1136.6</ele>
        <time>2019-02-12T12:19:47Z</time>
      </trkpt>
      <trkpt lat="42.16777" lon="1.16027">
        <ele>1137</ele>
        <time>2019-02-12T12:19:47Z</time>
      </trkpt>
      <trkpt lat="42.16765" lon="1.16033">
        <ele>1137.3</ele>
        <time>2019-02-12T12:19:55Z</time>
      </trkpt>
      <trkpt lat="42.16759" lon="1.16039">
        <ele>1136.8</ele>
        <time>2019-02-12T12:19:59Z</time>
      </trkpt>
      <trkpt lat="42.16754" lon="1.16039">
        <ele>1137.3</ele>
        <time>2019-02-12T12:20:02Z</time>
      </trkpt>
      <trkpt lat="42.16751" lon="1.16042">
        <ele>1136.8</ele>
        <time>2019-02-12T12:20:04Z</time>
      </trkpt>
      <trkpt lat="42.16748" lon="1.16045">
        <ele>1136.9</ele>
        <time>2019-02-12T12:20:06Z</time>
      </trkpt>
      <trkpt lat="42.16742" lon="1.16045">
        <ele>1137.3</ele>
        <time>2019-02-12T12:20:10Z</time>
      </trkpt>
      <trkpt lat="42.16737" lon="1.16049">
        <ele>1137.3</ele>
        <time>2019-02-12T12:20:13Z</time>
      </trkpt>
      <trkpt lat="42.16731" lon="1.1605">
        <ele>1137.6</ele>
        <time>2019-02-12T12:20:16Z</time>
      </trkpt>
      <trkpt lat="42.16727" lon="1.16051">
        <ele>1137.6</ele>
        <time>2019-02-12T12:20:19Z</time>
      </trkpt>
      <trkpt lat="42.16723" lon="1.16054">
        <ele>1137.4</ele>
        <time>2019-02-12T12:20:21Z</time>
      </trkpt>
      <trkpt lat="42.1672" lon="1.16058">
        <ele>1136.8</ele>
        <time>2019-02-12T12:20:23Z</time>
      </trkpt>
      <trkpt lat="42.16716" lon="1.16061">
        <ele>1136.1</ele>
        <time>2019-02-12T12:20:26Z</time>
      </trkpt>
      <trkpt lat="42.16711" lon="1.16064">
        <ele>1135.6</ele>
        <time>2019-02-12T12:20:29Z</time>
      </trkpt>
      <trkpt lat="42.16708" lon="1.16065">
        <ele>1135.6</ele>
        <time>2019-02-12T12:20:31Z</time>
      </trkpt>
      <trkpt lat="42.16705" lon="1.16067">
        <ele>1136.5</ele>
        <time>2019-02-12T12:20:33Z</time>
      </trkpt>
      <trkpt lat="42.16697" lon="1.16078">
        <ele>1137.2</ele>
        <time>2019-02-12T12:20:39Z</time>
      </trkpt>
      <trkpt lat="42.167" lon="1.16071">
        <ele>1138.1</ele>
        <time>2019-02-12T12:20:42Z</time>
      </trkpt>
      <trkpt lat="42.16694" lon="1.1607">
        <ele>1140.9</ele>
        <time>2019-02-12T12:20:46Z</time>
      </trkpt>
      <trkpt lat="42.1669" lon="1.16074">
        <ele>1141.5</ele>
        <time>2019-02-12T12:20:48Z</time>
      </trkpt>
      <trkpt lat="42.16684" lon="1.16079">
        <ele>1142.5</ele>
        <time>2019-02-12T12:20:53Z</time>
      </trkpt>
      <trkpt lat="42.16679" lon="1.16088">
        <ele>1141.3</ele>
        <time>2019-02-12T12:20:57Z</time>
      </trkpt>
      <trkpt lat="42.16675" lon="1.16096">
        <ele>1140.1</ele>
        <time>2019-02-12T12:21:01Z</time>
      </trkpt>
      <trkpt lat="42.1667" lon="1.16097">
        <ele>1141.4</ele>
        <time>2019-02-12T12:21:04Z</time>
      </trkpt>
      <trkpt lat="42.16662" lon="1.16094">
        <ele>1145.6</ele>
        <time>2019-02-12T12:21:09Z</time>
      </trkpt>
      <trkpt lat="42.16659" lon="1.16092">
        <ele>1147.5</ele>
        <time>2019-02-12T12:21:11Z</time>
      </trkpt>
      <trkpt lat="42.16656" lon="1.16094">
        <ele>1147.8</ele>
        <time>2019-02-12T12:21:13Z</time>
      </trkpt>
      <trkpt lat="42.1665" lon="1.16098">
        <ele>1148.2</ele>
        <time>2019-02-12T12:21:17Z</time>
      </trkpt>
      <trkpt lat="42.16649" lon="1.16102">
        <ele>1146.8</ele>
        <time>2019-02-12T12:21:18Z</time>
      </trkpt>
      <trkpt lat="42.16654" lon="1.16102">
        <ele>1144.8</ele>
        <time>2019-02-12T12:21:21Z</time>
      </trkpt>
      <trkpt lat="42.16655" lon="1.16105">
        <ele>1143.3</ele>
        <time>2019-02-12T12:21:23Z</time>
      </trkpt>
      <trkpt lat="42.16649" lon="1.16105">
        <ele>1144.9</ele>
        <time>2019-02-12T12:21:26Z</time>
      </trkpt>
      <trkpt lat="42.16647" lon="1.16112">
        <ele>1142.3</ele>
        <time>2019-02-12T12:21:29Z</time>
      </trkpt>
      <trkpt lat="42.16644" lon="1.16113">
        <ele>1143</ele>
        <time>2019-02-12T12:21:31Z</time>
      </trkpt>
      <trkpt lat="42.16648" lon="1.16117">
        <ele>1139.5</ele>
        <time>2019-02-12T12:21:34Z</time>
      </trkpt>
      <trkpt lat="42.16652" lon="1.16122">
        <ele>1136.2</ele>
        <time>2019-02-12T12:21:37Z</time>
      </trkpt>
      <trkpt lat="42.16656" lon="1.16131">
        <ele>1131.6</ele>
        <time>2019-02-12T12:21:41Z</time>
      </trkpt>
      <trkpt lat="42.16659" lon="1.16134">
        <ele>1129.7</ele>
        <time>2019-02-12T12:21:43Z</time>
      </trkpt>
      <trkpt lat="42.16659" lon="1.1614">
        <ele>1127.3</ele>
        <time>2019-02-12T12:21:46Z</time>
      </trkpt>
      <trkpt lat="42.16657" lon="1.16145">
        <ele>1125.9</ele>
        <time>2019-02-12T12:21:48Z</time>
      </trkpt>
      <trkpt lat="42.16652" lon="1.16153">
        <ele>1123.3</ele>
        <time>2019-02-12T12:21:53Z</time>
      </trkpt>
      <trkpt lat="42.16653" lon="1.16158">
        <ele>1121</ele>
        <time>2019-02-12T12:21:56Z</time>
      </trkpt>
      <trkpt lat="42.16653" lon="1.16167">
        <ele>1117.7</ele>
        <time>2019-02-12T12:21:59Z</time>
      </trkpt>
      <trkpt lat="42.16654" lon="1.16173">
        <ele>1115.2</ele>
        <time>2019-02-12T12:22:02Z</time>
      </trkpt>
      <trkpt lat="42.1665" lon="1.16168">
        <ele>1117.2</ele>
        <time>2019-02-12T12:22:05Z</time>
      </trkpt>
      <trkpt lat="42.16643" lon="1.16159">
        <ele>1121.5</ele>
        <time>2019-02-12T12:22:10Z</time>
      </trkpt>
      <trkpt lat="42.1664" lon="1.16158">
        <ele>1122</ele>
        <time>2019-02-12T12:22:13Z</time>
      </trkpt>
      <trkpt lat="42.16635" lon="1.16166">
        <ele>1118.7</ele>
        <time>2019-02-12T12:22:17Z</time>
      </trkpt>
      <trkpt lat="42.16641" lon="1.16171">
        <ele>1116.2</ele>
        <time>2019-02-12T12:22:21Z</time>
      </trkpt>
      <trkpt lat="42.16642" lon="1.16175">
        <ele>1114.3</ele>
        <time>2019-02-12T12:22:23Z</time>
      </trkpt>
      <trkpt lat="42.16639" lon="1.16177">
        <ele>1113.4</ele>
        <time>2019-02-12T12:22:24Z</time>
      </trkpt>
      <trkpt lat="42.16637" lon="1.16176">
        <ele>1113.6</ele>
        <time>2019-02-12T12:22:26Z</time>
      </trkpt>
      <trkpt lat="42.16635" lon="1.1618">
        <ele>1111.6</ele>
        <time>2019-02-12T12:22:28Z</time>
      </trkpt>
      <trkpt lat="42.16638" lon="1.16187">
        <ele>1108.7</ele>
        <time>2019-02-12T12:22:31Z</time>
      </trkpt>
      <trkpt lat="42.1664" lon="1.16192">
        <ele>1106.4</ele>
        <time>2019-02-12T12:22:34Z</time>
      </trkpt>
      <trkpt lat="42.16637" lon="1.16199">
        <ele>1102.6</ele>
        <time>2019-02-12T12:22:37Z</time>
      </trkpt>
      <trkpt lat="42.16639" lon="1.16203">
        <ele>1101</ele>
        <time>2019-02-12T12:22:40Z</time>
      </trkpt>
      <trkpt lat="42.16642" lon="1.16209">
        <ele>1099.1</ele>
        <time>2019-02-12T12:22:42Z</time>
      </trkpt>
      <trkpt lat="42.16645" lon="1.16219">
        <ele>1095.6</ele>
        <time>2019-02-12T12:22:47Z</time>
      </trkpt>
      <trkpt lat="42.16649" lon="1.1623">
        <ele>1092.5</ele>
        <time>2019-02-12T12:22:52Z</time>
      </trkpt>
      <trkpt lat="42.16653" lon="1.1624">
        <ele>1089.7</ele>
        <time>2019-02-12T12:22:57Z</time>
      </trkpt>
      <trkpt lat="42.16663" lon="1.16257">
        <ele>1085.4</ele>
        <time>2019-02-12T12:23:06Z</time>
      </trkpt>
      <trkpt lat="42.16666" lon="1.16266">
        <ele>1082.9</ele>
        <time>2019-02-12T12:23:10Z</time>
      </trkpt>
      <trkpt lat="42.16658" lon="1.1627">
        <ele>1079.8</ele>
        <time>2019-02-12T12:23:15Z</time>
      </trkpt>
      <trkpt lat="42.16651" lon="1.16259">
        <ele>1082.2</ele>
        <time>2019-02-12T12:23:21Z</time>
      </trkpt>
      <trkpt lat="42.16645" lon="1.16259">
        <ele>1080.7</ele>
        <time>2019-02-12T12:23:24Z</time>
      </trkpt>
      <trkpt lat="42.16641" lon="1.16257">
        <ele>1081</ele>
        <time>2019-02-12T12:23:27Z</time>
      </trkpt>
      <trkpt lat="42.16636" lon="1.16263">
        <ele>1077.7</ele>
        <time>2019-02-12T12:23:31Z</time>
      </trkpt>
      <trkpt lat="42.1664" lon="1.1627">
        <ele>1075.9</ele>
        <time>2019-02-12T12:23:35Z</time>
      </trkpt>
      <trkpt lat="42.16639" lon="1.16282">
        <ele>1071</ele>
        <time>2019-02-12T12:23:40Z</time>
      </trkpt>
      <trkpt lat="42.16636" lon="1.16284">
        <ele>1069.6</ele>
        <time>2019-02-12T12:23:41Z</time>
      </trkpt>
      <trkpt lat="42.16632" lon="1.16286">
        <ele>1067.9</ele>
        <time>2019-02-12T12:23:44Z</time>
      </trkpt>
      <trkpt lat="42.16628" lon="1.16284">
        <ele>1067.6</ele>
        <time>2019-02-12T12:23:47Z</time>
      </trkpt>
      <trkpt lat="42.16624" lon="1.16278">
        <ele>1069.1</ele>
        <time>2019-02-12T12:23:50Z</time>
      </trkpt>
      <trkpt lat="42.16621" lon="1.16279">
        <ele>1068.1</ele>
        <time>2019-02-12T12:23:52Z</time>
      </trkpt>
      <trkpt lat="42.16617" lon="1.16285">
        <ele>1064.6</ele>
        <time>2019-02-12T12:23:55Z</time>
      </trkpt>
      <trkpt lat="42.16606" lon="1.16287">
        <ele>1061.2</ele>
        <time>2019-02-12T12:24:02Z</time>
      </trkpt>
      <trkpt lat="42.16601" lon="1.1629">
        <ele>1058.8</ele>
        <time>2019-02-12T12:24:05Z</time>
      </trkpt>
      <trkpt lat="42.16597" lon="1.16296">
        <ele>1056.1</ele>
        <time>2019-02-12T12:24:08Z</time>
      </trkpt>
      <trkpt lat="42.16595" lon="1.16303">
        <ele>1053.8</ele>
        <time>2019-02-12T12:24:12Z</time>
      </trkpt>
      <trkpt lat="42.16588" lon="1.16308">
        <ele>1051.1</ele>
        <time>2019-02-12T12:24:16Z</time>
      </trkpt>
      <trkpt lat="42.16579" lon="1.16309">
        <ele>1048.3</ele>
        <time>2019-02-12T12:24:21Z</time>
      </trkpt>
      <trkpt lat="42.16575" lon="1.16309">
        <ele>1047.3</ele>
        <time>2019-02-12T12:24:23Z</time>
      </trkpt>
      <trkpt lat="42.16573" lon="1.16306">
        <ele>1047.4</ele>
        <time>2019-02-12T12:24:25Z</time>
      </trkpt>
      <trkpt lat="42.16564" lon="1.16315">
        <ele>1042.8</ele>
        <time>2019-02-12T12:24:32Z</time>
      </trkpt>
      <trkpt lat="42.16554" lon="1.16333">
        <ele>1035.6</ele>
        <time>2019-02-12T12:24:41Z</time>
      </trkpt>
      <trkpt lat="42.16544" lon="1.16346">
        <ele>1029.4</ele>
        <time>2019-02-12T12:24:49Z</time>
      </trkpt>
      <trkpt lat="42.16531" lon="1.16357">
        <ele>1023.6</ele>
        <time>2019-02-12T12:24:58Z</time>
      </trkpt>
      <trkpt lat="42.16527" lon="1.16365">
        <ele>1020.7</ele>
        <time>2019-02-12T12:25:02Z</time>
      </trkpt>
      <trkpt lat="42.1652" lon="1.16373">
        <ele>1017.7</ele>
        <time>2019-02-12T12:25:07Z</time>
      </trkpt>
      <trkpt lat="42.16512" lon="1.1638">
        <ele>1017.2</ele>
        <time>2019-02-12T12:25:13Z</time>
      </trkpt>
      <trkpt lat="42.16512" lon="1.16384">
        <ele>1018.5</ele>
        <time>2019-02-12T12:25:14Z</time>
      </trkpt>
      <trkpt lat="42.16507" lon="1.16388">
        <ele>1018.7</ele>
        <time>2019-02-12T12:25:18Z</time>
      </trkpt>
      <trkpt lat="42.16492" lon="1.16386">
        <ele>1015.7</ele>
        <time>2019-02-12T12:25:26Z</time>
      </trkpt>
      <trkpt lat="42.16476" lon="1.16377">
        <ele>1010.4</ele>
        <time>2019-02-12T12:25:36Z</time>
      </trkpt>
      <trkpt lat="42.16458" lon="1.16369">
        <ele>1007.6</ele>
        <time>2019-02-12T12:25:47Z</time>
      </trkpt>
      <trkpt lat="42.16448" lon="1.1636">
        <ele>1007.7</ele>
        <time>2019-02-12T12:25:54Z</time>
      </trkpt>
      <trkpt lat="42.16445" lon="1.16353">
        <ele>1008.1</ele>
        <time>2019-02-12T12:25:57Z</time>
      </trkpt>
      <trkpt lat="42.16433" lon="1.16344">
        <ele>1007.3</ele>
        <time>2019-02-12T12:26:05Z</time>
      </trkpt>
      <trkpt lat="42.16425" lon="1.16339">
        <ele>1006.7</ele>
        <time>2019-02-12T12:26:10Z</time>
      </trkpt>
      <trkpt lat="42.16418" lon="1.1634">
        <ele>1005.6</ele>
        <time>2019-02-12T12:26:14Z</time>
      </trkpt>
      <trkpt lat="42.164" lon="1.16342">
        <ele>1003.3</ele>
        <time>2019-02-12T12:26:25Z</time>
      </trkpt>
      <trkpt lat="42.16373" lon="1.16355">
        <ele>1000.6</ele>
        <time>2019-02-12T12:26:41Z</time>
      </trkpt>
      <trkpt lat="42.16339" lon="1.16373">
        <ele>1003.1</ele>
        <time>2019-02-12T12:27:02Z</time>
      </trkpt>
      <trkpt lat="42.1632" lon="1.16381">
        <ele>1005.6</ele>
        <time>2019-02-12T12:27:13Z</time>
      </trkpt>
      <trkpt lat="42.16306" lon="1.16375">
        <ele>1005.1</ele>
        <time>2019-02-12T12:27:22Z</time>
      </trkpt>
      <trkpt lat="42.16298" lon="1.16366">
        <ele>1004.2</ele>
        <time>2019-02-12T12:27:28Z</time>
      </trkpt>
      <trkpt lat="42.16261" lon="1.16327">
        <ele>1003.1</ele>
        <time>2019-02-12T12:27:54Z</time>
      </trkpt>
      <trkpt lat="42.16222" lon="1.16293">
        <ele>997.6</ele>
        <time>2019-02-12T12:28:21Z</time>
      </trkpt>
      <trkpt lat="42.16179" lon="1.16252">
        <ele>990.5</ele>
        <time>2019-02-12T12:28:51Z</time>
      </trkpt>
      <trkpt lat="42.16156" lon="1.16229">
        <ele>987</ele>
        <time>2019-02-12T12:29:07Z</time>
      </trkpt>
      <trkpt lat="42.16149" lon="1.16209">
        <ele>984.1</ele>
        <time>2019-02-12T12:29:17Z</time>
      </trkpt>
      <trkpt lat="42.16137" lon="1.16205">
        <ele>985.1</ele>
        <time>2019-02-12T12:29:24Z</time>
      </trkpt>
      <trkpt lat="42.16121" lon="1.16202">
        <ele>986.3</ele>
        <time>2019-02-12T12:29:33Z</time>
      </trkpt>
      <trkpt lat="42.16111" lon="1.1619">
        <ele>990.3</ele>
        <time>2019-02-12T12:29:41Z</time>
      </trkpt>
      <trkpt lat="42.16099" lon="1.16178">
        <ele>994.9</ele>
        <time>2019-02-12T12:29:49Z</time>
      </trkpt>
      <trkpt lat="42.16089" lon="1.16173">
        <ele>997</ele>
        <time>2019-02-12T12:29:55Z</time>
      </trkpt>
      <trkpt lat="42.16078" lon="1.16184">
        <ele>993.4</ele>
        <time>2019-02-12T12:30:03Z</time>
      </trkpt>
      <trkpt lat="42.16062" lon="1.16189">
        <ele>991.6</ele>
        <time>2019-02-12T12:30:12Z</time>
      </trkpt>
      <trkpt lat="42.16046" lon="1.16199">
        <ele>987.1</ele>
        <time>2019-02-12T12:30:22Z</time>
      </trkpt>
      <trkpt lat="42.16019" lon="1.16215">
        <ele>986.9</ele>
        <time>2019-02-12T12:30:39Z</time>
      </trkpt>
      <trkpt lat="42.15995" lon="1.16222">
        <ele>990.1</ele>
        <time>2019-02-12T12:30:53Z</time>
      </trkpt>
      <trkpt lat="42.15986" lon="1.16229">
        <ele>990</ele>
        <time>2019-02-12T12:30:59Z</time>
      </trkpt>
      <trkpt lat="42.15969" lon="1.16255">
        <ele>985.2</ele>
        <time>2019-02-12T12:31:14Z</time>
      </trkpt>
      <trkpt lat="42.15954" lon="1.16275">
        <ele>978.9</ele>
        <time>2019-02-12T12:31:26Z</time>
      </trkpt>
      <trkpt lat="42.15935" lon="1.16298">
        <ele>969.9</ele>
        <time>2019-02-12T12:31:41Z</time>
      </trkpt>
      <trkpt lat="42.15927" lon="1.16316">
        <ele>967.7</ele>
        <time>2019-02-12T12:31:50Z</time>
      </trkpt>
      <trkpt lat="42.15918" lon="1.1632">
        <ele>966.3</ele>
        <time>2019-02-12T12:31:55Z</time>
      </trkpt>
      <trkpt lat="42.15906" lon="1.16318">
        <ele>964.7</ele>
        <time>2019-02-12T12:32:02Z</time>
      </trkpt>
      <trkpt lat="42.15896" lon="1.16325">
        <ele>963.1</ele>
        <time>2019-02-12T12:32:08Z</time>
      </trkpt>
      <trkpt lat="42.15877" lon="1.16342">
        <ele>960.2</ele>
        <time>2019-02-12T12:32:21Z</time>
      </trkpt>
      <trkpt lat="42.15863" lon="1.1635">
        <ele>961.6</ele>
        <time>2019-02-12T12:32:30Z</time>
      </trkpt>
      <trkpt lat="42.1585" lon="1.16362">
        <ele>963.9</ele>
        <time>2019-02-12T12:32:39Z</time>
      </trkpt>
      <trkpt lat="42.15834" lon="1.1635">
        <ele>965.8</ele>
        <time>2019-02-12T12:32:50Z</time>
      </trkpt>
      <trkpt lat="42.15815" lon="1.16343">
        <ele>967.5</ele>
        <time>2019-02-12T12:33:01Z</time>
      </trkpt>
      <trkpt lat="42.15792" lon="1.16336">
        <ele>968.5</ele>
        <time>2019-02-12T12:33:14Z</time>
      </trkpt>
      <trkpt lat="42.15783" lon="1.16328">
        <ele>967.9</ele>
        <time>2019-02-12T12:33:21Z</time>
      </trkpt>
      <trkpt lat="42.15764" lon="1.16323">
        <ele>968.4</ele>
        <time>2019-02-12T12:33:32Z</time>
      </trkpt>
      <trkpt lat="42.15752" lon="1.16318">
        <ele>968.2</ele>
        <time>2019-02-12T12:33:39Z</time>
      </trkpt>
      <trkpt lat="42.15744" lon="1.1632">
        <ele>969.4</ele>
        <time>2019-02-12T12:33:43Z</time>
      </trkpt>
      <trkpt lat="42.15738" lon="1.16314">
        <ele>968.2</ele>
        <time>2019-02-12T12:33:47Z</time>
      </trkpt>
      <trkpt lat="42.15731" lon="1.16297">
        <ele>963.4</ele>
        <time>2019-02-12T12:33:56Z</time>
      </trkpt>
      <trkpt lat="42.15727" lon="1.16273">
        <ele>958.2</ele>
        <time>2019-02-12T12:34:06Z</time>
      </trkpt>
      <trkpt lat="42.15729" lon="1.16239">
        <ele>951.4</ele>
        <time>2019-02-12T12:34:21Z</time>
      </trkpt>
      <trkpt lat="42.15729" lon="1.16217">
        <ele>947.3</ele>
        <time>2019-02-12T12:34:30Z</time>
      </trkpt>
      <trkpt lat="42.15727" lon="1.16204">
        <ele>945.4</ele>
        <time>2019-02-12T12:34:35Z</time>
      </trkpt>
      <trkpt lat="42.15723" lon="1.16188">
        <ele>944.9</ele>
        <time>2019-02-12T12:34:43Z</time>
      </trkpt>
      <trkpt lat="42.15725" lon="1.16165">
        <ele>945.2</ele>
        <time>2019-02-12T12:34:53Z</time>
      </trkpt>
      <trkpt lat="42.15719" lon="1.16154">
        <ele>944.6</ele>
        <time>2019-02-12T12:34:59Z</time>
      </trkpt>
      <trkpt lat="42.15718" lon="1.1614">
        <ele>944.6</ele>
        <time>2019-02-12T12:35:05Z</time>
      </trkpt>
      <trkpt lat="42.15722" lon="1.16123">
        <ele>945.4</ele>
        <time>2019-02-12T12:35:12Z</time>
      </trkpt>
      <trkpt lat="42.15723" lon="1.16107">
        <ele>948.1</ele>
        <time>2019-02-12T12:35:19Z</time>
      </trkpt>
      <trkpt lat="42.15719" lon="1.16084">
        <ele>951.9</ele>
        <time>2019-02-12T12:35:29Z</time>
      </trkpt>
      <trkpt lat="42.15716" lon="1.16084">
        <ele>951.9</ele>
        <time>2019-02-12T12:35:31Z</time>
      </trkpt>
      <trkpt lat="42.15711" lon="1.16099">
        <ele>949.2</ele>
        <time>2019-02-12T12:35:38Z</time>
      </trkpt>
      <trkpt lat="42.15696" lon="1.16143">
        <ele>945.5</ele>
        <time>2019-02-12T12:35:59Z</time>
      </trkpt>
      <trkpt lat="42.15683" lon="1.16173">
        <ele>944.4</ele>
        <time>2019-02-12T12:36:13Z</time>
      </trkpt>
      <trkpt lat="42.15669" lon="1.16192">
        <ele>942.3</ele>
        <time>2019-02-12T12:36:25Z</time>
      </trkpt>
      <trkpt lat="42.15659" lon="1.16203">
        <ele>940.3</ele>
        <time>2019-02-12T12:36:32Z</time>
      </trkpt>
      <trkpt lat="42.15652" lon="1.16202">
        <ele>940.2</ele>
        <time>2019-02-12T12:36:36Z</time>
      </trkpt>
      <trkpt lat="42.1564" lon="1.16207">
        <ele>938.4</ele>
        <time>2019-02-12T12:36:43Z</time>
      </trkpt>
      <trkpt lat="42.15628" lon="1.16207">
        <ele>937.6</ele>
        <time>2019-02-12T12:36:50Z</time>
      </trkpt>
      <trkpt lat="42.15614" lon="1.16211">
        <ele>937.2</ele>
        <time>2019-02-12T12:36:58Z</time>
      </trkpt>
      <trkpt lat="42.15595" lon="1.16237">
        <ele>936.4</ele>
        <time>2019-02-12T12:37:14Z</time>
      </trkpt>
      <trkpt lat="42.15583" lon="1.16255">
        <ele>934.4</ele>
        <time>2019-02-12T12:37:24Z</time>
      </trkpt>
      <trkpt lat="42.15575" lon="1.16277">
        <ele>931.7</ele>
        <time>2019-02-12T12:37:34Z</time>
      </trkpt>
      <trkpt lat="42.15557" lon="1.16306">
        <ele>929.3</ele>
        <time>2019-02-12T12:37:50Z</time>
      </trkpt>
      <trkpt lat="42.1554" lon="1.16321">
        <ele>928.2</ele>
        <time>2019-02-12T12:38:02Z</time>
      </trkpt>
      <trkpt lat="42.15521" lon="1.16339">
        <ele>932.5</ele>
        <time>2019-02-12T12:38:15Z</time>
      </trkpt>
      <trkpt lat="42.15513" lon="1.16345">
        <ele>934.2</ele>
        <time>2019-02-12T12:38:20Z</time>
      </trkpt>
      <trkpt lat="42.15499" lon="1.1634">
        <ele>934.7</ele>
        <time>2019-02-12T12:38:29Z</time>
      </trkpt>
      <trkpt lat="42.15486" lon="1.16339">
        <ele>935.9</ele>
        <time>2019-02-12T12:38:36Z</time>
      </trkpt>
      <trkpt lat="42.15476" lon="1.16329">
        <ele>934.9</ele>
        <time>2019-02-12T12:38:43Z</time>
      </trkpt>
      <trkpt lat="42.15465" lon="1.16317">
        <ele>933.4</ele>
        <time>2019-02-12T12:38:51Z</time>
      </trkpt>
      <trkpt lat="42.15455" lon="1.16304">
        <ele>931.5</ele>
        <time>2019-02-12T12:38:59Z</time>
      </trkpt>
      <trkpt lat="42.1545" lon="1.16296">
        <ele>930.4</ele>
        <time>2019-02-12T12:39:04Z</time>
      </trkpt>
      <trkpt lat="42.15454" lon="1.16286">
        <ele>928.2</ele>
        <time>2019-02-12T12:39:09Z</time>
      </trkpt>
      <trkpt lat="42.15462" lon="1.16294">
        <ele>928.5</ele>
        <time>2019-02-12T12:39:14Z</time>
      </trkpt>
      <trkpt lat="42.15472" lon="1.163">
        <ele>929.2</ele>
        <time>2019-02-12T12:39:20Z</time>
      </trkpt>
      <trkpt lat="42.1548" lon="1.16292">
        <ele>927.1</ele>
        <time>2019-02-12T12:39:26Z</time>
      </trkpt>
      <trkpt lat="42.15486" lon="1.16283">
        <ele>926.7</ele>
        <time>2019-02-12T12:39:31Z</time>
      </trkpt>
      <trkpt lat="42.15478" lon="1.16278">
        <ele>926.8</ele>
        <time>2019-02-12T12:39:37Z</time>
      </trkpt>
      <trkpt lat="42.15464" lon="1.16264">
        <ele>926.2</ele>
        <time>2019-02-12T12:39:47Z</time>
      </trkpt>
      <trkpt lat="42.1546" lon="1.16242">
        <ele>924.6</ele>
        <time>2019-02-12T12:39:56Z</time>
      </trkpt>
      <trkpt lat="42.15452" lon="1.16221">
        <ele>922.9</ele>
        <time>2019-02-12T12:40:06Z</time>
      </trkpt>
      <trkpt lat="42.15443" lon="1.16164">
        <ele>928.3</ele>
        <time>2019-02-12T12:40:31Z</time>
      </trkpt>
      <trkpt lat="42.15436" lon="1.16137">
        <ele>931.9</ele>
        <time>2019-02-12T12:40:43Z</time>
      </trkpt>
      <trkpt lat="42.15422" lon="1.16116">
        <ele>934.8</ele>
        <time>2019-02-12T12:40:55Z</time>
      </trkpt>
      <trkpt lat="42.15406" lon="1.16106">
        <ele>935.6</ele>
        <time>2019-02-12T12:41:05Z</time>
      </trkpt>
      <trkpt lat="42.15382" lon="1.16109">
        <ele>932.4</ele>
        <time>2019-02-12T12:41:19Z</time>
      </trkpt>
      <trkpt lat="42.15368" lon="1.16105">
        <ele>932.1</ele>
        <time>2019-02-12T12:41:28Z</time>
      </trkpt>
      <trkpt lat="42.15363" lon="1.16107">
        <ele>931.3</ele>
        <time>2019-02-12T12:41:30Z</time>
      </trkpt>
      <trkpt lat="42.1536" lon="1.16102">
        <ele>932.5</ele>
        <time>2019-02-12T12:41:33Z</time>
      </trkpt>
      <trkpt lat="42.15353" lon="1.16089">
        <ele>934.9</ele>
        <time>2019-02-12T12:41:40Z</time>
      </trkpt>
      <trkpt lat="42.15351" lon="1.16086">
        <ele>935.6</ele>
        <time>2019-02-12T12:41:42Z</time>
      </trkpt>
      <trkpt lat="42.15348" lon="1.16104">
        <ele>931.2</ele>
        <time>2019-02-12T12:41:49Z</time>
      </trkpt>
      <trkpt lat="42.15342" lon="1.16108">
        <ele>929.7</ele>
        <time>2019-02-12T12:41:53Z</time>
      </trkpt>
      <trkpt lat="42.15336" lon="1.16106">
        <ele>930</ele>
        <time>2019-02-12T12:41:56Z</time>
      </trkpt>
      <trkpt lat="42.15319" lon="1.16099">
        <ele>930.7</ele>
        <time>2019-02-12T12:42:06Z</time>
      </trkpt>
      <trkpt lat="42.15309" lon="1.16091">
        <ele>931.9</ele>
        <time>2019-02-12T12:42:13Z</time>
      </trkpt>
      <trkpt lat="42.15293" lon="1.16071">
        <ele>936.2</ele>
        <time>2019-02-12T12:42:26Z</time>
      </trkpt>
      <trkpt lat="42.15279" lon="1.16053">
        <ele>940</ele>
        <time>2019-02-12T12:42:37Z</time>
      </trkpt>
      <trkpt lat="42.15245" lon="1.16023">
        <ele>947.2</ele>
        <time>2019-02-12T12:43:00Z</time>
      </trkpt>
      <trkpt lat="42.15218" lon="1.16">
        <ele>952.6</ele>
        <time>2019-02-12T12:43:19Z</time>
      </trkpt>
      <trkpt lat="42.15175" lon="1.15974">
        <ele>951.4</ele>
        <time>2019-02-12T12:43:45Z</time>
      </trkpt>
      <trkpt lat="42.15158" lon="1.15962">
        <ele>950.1</ele>
        <time>2019-02-12T12:43:56Z</time>
      </trkpt>
      <trkpt lat="42.15137" lon="1.15953">
        <ele>945.7</ele>
        <time>2019-02-12T12:44:09Z</time>
      </trkpt>
      <trkpt lat="42.1512" lon="1.15945">
        <ele>942.7</ele>
        <time>2019-02-12T12:44:19Z</time>
      </trkpt>
      <trkpt lat="42.15115" lon="1.15937">
        <ele>942.9</ele>
        <time>2019-02-12T12:44:24Z</time>
      </trkpt>
      <trkpt lat="42.15108" lon="1.15919">
        <ele>944.7</ele>
        <time>2019-02-12T12:44:32Z</time>
      </trkpt>
      <trkpt lat="42.151" lon="1.15885">
        <ele>948.2</ele>
        <time>2019-02-12T12:44:47Z</time>
      </trkpt>
      <trkpt lat="42.15094" lon="1.15867">
        <ele>949.1</ele>
        <time>2019-02-12T12:44:56Z</time>
      </trkpt>
      <trkpt lat="42.1508" lon="1.15864">
        <ele>944.4</ele>
        <time>2019-02-12T12:45:04Z</time>
      </trkpt>
      <trkpt lat="42.15064" lon="1.15851">
        <ele>939.8</ele>
        <time>2019-02-12T12:45:14Z</time>
      </trkpt>
      <trkpt lat="42.15059" lon="1.1583">
        <ele>939.5</ele>
        <time>2019-02-12T12:45:24Z</time>
      </trkpt>
      <trkpt lat="42.15049" lon="1.158">
        <ele>938</ele>
        <time>2019-02-12T12:45:38Z</time>
      </trkpt>
      <trkpt lat="42.15035" lon="1.15776">
        <ele>938.2</ele>
        <time>2019-02-12T12:45:51Z</time>
      </trkpt>
      <trkpt lat="42.15025" lon="1.15751">
        <ele>942.5</ele>
        <time>2019-02-12T12:46:03Z</time>
      </trkpt>
      <trkpt lat="42.1502" lon="1.15727">
        <ele>945.4</ele>
        <time>2019-02-12T12:46:13Z</time>
      </trkpt>
      <trkpt lat="42.15017" lon="1.15714">
        <ele>947.1</ele>
        <time>2019-02-12T12:46:19Z</time>
      </trkpt>
      <trkpt lat="42.1501" lon="1.15707">
        <ele>948.1</ele>
        <time>2019-02-12T12:46:24Z</time>
      </trkpt>
      <trkpt lat="42.15001" lon="1.15689">
        <ele>951.1</ele>
        <time>2019-02-12T12:46:34Z</time>
      </trkpt>
      <trkpt lat="42.14991" lon="1.15672">
        <ele>953.8</ele>
        <time>2019-02-12T12:46:43Z</time>
      </trkpt>
      <trkpt lat="42.14984" lon="1.15662">
        <ele>955.1</ele>
        <time>2019-02-12T12:46:48Z</time>
      </trkpt>
      <trkpt lat="42.1498" lon="1.15643">
        <ele>957.6</ele>
        <time>2019-02-12T12:46:56Z</time>
      </trkpt>
      <trkpt lat="42.1498" lon="1.15633">
        <ele>959</ele>
        <time>2019-02-12T12:47:01Z</time>
      </trkpt>
      <trkpt lat="42.1498" lon="1.15615">
        <ele>961.4</ele>
        <time>2019-02-12T12:47:09Z</time>
      </trkpt>
      <trkpt lat="42.14978" lon="1.156">
        <ele>963.4</ele>
        <time>2019-02-12T12:47:15Z</time>
      </trkpt>
      <trkpt lat="42.14977" lon="1.15595">
        <ele>964</ele>
        <time>2019-02-12T12:47:17Z</time>
      </trkpt>
      <trkpt lat="42.14973" lon="1.15593">
        <ele>963.9</ele>
        <time>2019-02-12T12:47:20Z</time>
      </trkpt>
      <trkpt lat="42.14971" lon="1.15582">
        <ele>965.3</ele>
        <time>2019-02-12T12:47:25Z</time>
      </trkpt>
      <trkpt lat="42.14968" lon="1.15571">
        <ele>966.6</ele>
        <time>2019-02-12T12:47:30Z</time>
      </trkpt>
      <trkpt lat="42.14965" lon="1.15561">
        <ele>967.9</ele>
        <time>2019-02-12T12:47:34Z</time>
      </trkpt>
      <trkpt lat="42.14962" lon="1.15553">
        <ele>968.8</ele>
        <time>2019-02-12T12:47:38Z</time>
      </trkpt>
      <trkpt lat="42.14959" lon="1.15543">
        <ele>969.8</ele>
        <time>2019-02-12T12:47:43Z</time>
      </trkpt>
      <trkpt lat="42.14956" lon="1.15558">
        <ele>968.3</ele>
        <time>2019-02-12T12:47:49Z</time>
      </trkpt>
      <trkpt lat="42.14954" lon="1.15568">
        <ele>967.3</ele>
        <time>2019-02-12T12:47:53Z</time>
      </trkpt>
      <trkpt lat="42.1494" lon="1.15577">
        <ele>968.1</ele>
        <time>2019-02-12T12:48:02Z</time>
      </trkpt>
      <trkpt lat="42.14927" lon="1.15587">
        <ele>969.4</ele>
        <time>2019-02-12T12:48:11Z</time>
      </trkpt>
      <trkpt lat="42.14916" lon="1.1559">
        <ele>970.8</ele>
        <time>2019-02-12T12:48:17Z</time>
      </trkpt>
      <trkpt lat="42.14906" lon="1.1559">
        <ele>972.7</ele>
        <time>2019-02-12T12:48:23Z</time>
      </trkpt>
      <trkpt lat="42.149" lon="1.15585">
        <ele>974.1</ele>
        <time>2019-02-12T12:48:27Z</time>
      </trkpt>
      <trkpt lat="42.14889" lon="1.15582">
        <ele>975.9</ele>
        <time>2019-02-12T12:48:33Z</time>
      </trkpt>
      <trkpt lat="42.14883" lon="1.1557">
        <ele>977.2</ele>
        <time>2019-02-12T12:48:40Z</time>
      </trkpt>
      <trkpt lat="42.14877" lon="1.15552">
        <ele>978.7</ele>
        <time>2019-02-12T12:48:48Z</time>
      </trkpt>
      <trkpt lat="42.14874" lon="1.15531">
        <ele>980.4</ele>
        <time>2019-02-12T12:48:57Z</time>
      </trkpt>
      <trkpt lat="42.14873" lon="1.15518">
        <ele>982.3</ele>
        <time>2019-02-12T12:49:02Z</time>
      </trkpt>
      <trkpt lat="42.14875" lon="1.15508">
        <ele>982.6</ele>
        <time>2019-02-12T12:49:07Z</time>
      </trkpt>
      <trkpt lat="42.14879" lon="1.15501">
        <ele>983.4</ele>
        <time>2019-02-12T12:49:10Z</time>
      </trkpt>
      <trkpt lat="42.14879" lon="1.15487">
        <ele>985</ele>
        <time>2019-02-12T12:49:16Z</time>
      </trkpt>
      <trkpt lat="42.14874" lon="1.15484">
        <ele>985.8</ele>
        <time>2019-02-12T12:49:19Z</time>
      </trkpt>
      <trkpt lat="42.14864" lon="1.15487">
        <ele>989</ele>
        <time>2019-02-12T12:49:25Z</time>
      </trkpt>
      <trkpt lat="42.14852" lon="1.15486">
        <ele>993.1</ele>
        <time>2019-02-12T12:49:32Z</time>
      </trkpt>
      <trkpt lat="42.14849" lon="1.15485">
        <ele>994.4</ele>
        <time>2019-02-12T12:49:34Z</time>
      </trkpt>
      <trkpt lat="42.14839" lon="1.15494">
        <ele>997.2</ele>
        <time>2019-02-12T12:49:40Z</time>
      </trkpt>
      <trkpt lat="42.14829" lon="1.1549">
        <ele>1001.3</ele>
        <time>2019-02-12T12:49:47Z</time>
      </trkpt>
      <trkpt lat="42.14823" lon="1.15501">
        <ele>1002.7</ele>
        <time>2019-02-12T12:49:53Z</time>
      </trkpt>
      <trkpt lat="42.14812" lon="1.15517">
        <ele>1005.7</ele>
        <time>2019-02-12T12:50:02Z</time>
      </trkpt>
      <trkpt lat="42.14807" lon="1.15528">
        <ele>1006.9</ele>
        <time>2019-02-12T12:50:07Z</time>
      </trkpt>
      <trkpt lat="42.14799" lon="1.15543">
        <ele>1009.1</ele>
        <time>2019-02-12T12:50:15Z</time>
      </trkpt>
      <trkpt lat="42.14801" lon="1.15547">
        <ele>1008.3</ele>
        <time>2019-02-12T12:50:17Z</time>
      </trkpt>
      <trkpt lat="42.14795" lon="1.15563">
        <ele>1010.8</ele>
        <time>2019-02-12T12:50:25Z</time>
      </trkpt>
      <trkpt lat="42.14792" lon="1.15578">
        <ele>1012</ele>
        <time>2019-02-12T12:50:31Z</time>
      </trkpt>
      <trkpt lat="42.14793" lon="1.1559">
        <ele>1011.8</ele>
        <time>2019-02-12T12:50:36Z</time>
      </trkpt>
      <trkpt lat="42.14789" lon="1.15602">
        <ele>1013</ele>
        <time>2019-02-12T12:50:42Z</time>
      </trkpt>
      <trkpt lat="42.14787" lon="1.15612">
        <ele>1013.8</ele>
        <time>2019-02-12T12:50:46Z</time>
      </trkpt>
      <trkpt lat="42.14786" lon="1.15633">
        <ele>1014.8</ele>
        <time>2019-02-12T12:50:55Z</time>
      </trkpt>
      <trkpt lat="42.14784" lon="1.15648">
        <ele>1016.5</ele>
        <time>2019-02-12T12:51:01Z</time>
      </trkpt>
      <trkpt lat="42.14789" lon="1.15655">
        <ele>1014.6</ele>
        <time>2019-02-12T12:51:06Z</time>
      </trkpt>
      <trkpt lat="42.14786" lon="1.15661">
        <ele>1016.6</ele>
        <time>2019-02-12T12:51:09Z</time>
      </trkpt>
      <trkpt lat="42.14786" lon="1.15679">
        <ele>1017.5</ele>
        <time>2019-02-12T12:51:17Z</time>
      </trkpt>
      <trkpt lat="42.14783" lon="1.1569">
        <ele>1019.1</ele>
        <time>2019-02-12T12:51:22Z</time>
      </trkpt>
      <trkpt lat="42.14781" lon="1.15711">
        <ele>1021.8</ele>
        <time>2019-02-12T12:51:31Z</time>
      </trkpt>
      <trkpt lat="42.14784" lon="1.15722">
        <ele>1021.4</ele>
        <time>2019-02-12T12:51:36Z</time>
      </trkpt>
      <trkpt lat="42.14777" lon="1.15752">
        <ele>1027.2</ele>
        <time>2019-02-12T12:51:49Z</time>
      </trkpt>
      <trkpt lat="42.14772" lon="1.15767">
        <ele>1030.9</ele>
        <time>2019-02-12T12:51:56Z</time>
      </trkpt>
      <trkpt lat="42.14773" lon="1.15779">
        <ele>1031.5</ele>
        <time>2019-02-12T12:52:02Z</time>
      </trkpt>
      <trkpt lat="42.14768" lon="1.15793">
        <ele>1034.7</ele>
        <time>2019-02-12T12:52:08Z</time>
      </trkpt>
      <trkpt lat="42.14753" lon="1.15795">
        <ele>1040.8</ele>
        <time>2019-02-12T12:52:17Z</time>
      </trkpt>
      <trkpt lat="42.14751" lon="1.15821">
        <ele>1043.4</ele>
        <time>2019-02-12T12:52:28Z</time>
      </trkpt>
      <trkpt lat="42.14748" lon="1.15845">
        <ele>1045.6</ele>
        <time>2019-02-12T12:52:38Z</time>
      </trkpt>
      <trkpt lat="42.14729" lon="1.15884">
        <ele>1051.5</ele>
        <time>2019-02-12T12:52:58Z</time>
      </trkpt>
      <trkpt lat="42.14715" lon="1.15897">
        <ele>1052.6</ele>
        <time>2019-02-12T12:53:08Z</time>
      </trkpt>
      <trkpt lat="42.14705" lon="1.15893">
        <ele>1056.9</ele>
        <time>2019-02-12T12:53:14Z</time>
      </trkpt>
      <trkpt lat="42.147" lon="1.15874">
        <ele>1063.9</ele>
        <time>2019-02-12T12:53:22Z</time>
      </trkpt>
      <trkpt lat="42.14693" lon="1.15845">
        <ele>1064.6</ele>
        <time>2019-02-12T12:53:35Z</time>
      </trkpt>
      <trkpt lat="42.14689" lon="1.15825">
        <ele>1064.6</ele>
        <time>2019-02-12T12:53:44Z</time>
      </trkpt>
      <trkpt lat="42.14682" lon="1.1581">
        <ele>1065.7</ele>
        <time>2019-02-12T12:53:52Z</time>
      </trkpt>
      <trkpt lat="42.14673" lon="1.15789">
        <ele>1066.8</ele>
        <time>2019-02-12T12:54:02Z</time>
      </trkpt>
      <trkpt lat="42.14657" lon="1.1577">
        <ele>1068.6</ele>
        <time>2019-02-12T12:54:14Z</time>
      </trkpt>
      <trkpt lat="42.14645" lon="1.15762">
        <ele>1070.9</ele>
        <time>2019-02-12T12:54:22Z</time>
      </trkpt>
      <trkpt lat="42.14633" lon="1.15777">
        <ele>1074.8</ele>
        <time>2019-02-12T12:54:31Z</time>
      </trkpt>
      <trkpt lat="42.14608" lon="1.1579">
        <ele>1072.1</ele>
        <time>2019-02-12T12:54:47Z</time>
      </trkpt>
      <trkpt lat="42.14594" lon="1.15786">
        <ele>1067.3</ele>
        <time>2019-02-12T12:54:55Z</time>
      </trkpt>
      <trkpt lat="42.14582" lon="1.15778">
        <ele>1062.9</ele>
        <time>2019-02-12T12:55:03Z</time>
      </trkpt>
      <trkpt lat="42.14573" lon="1.15772">
        <ele>1060</ele>
        <time>2019-02-12T12:55:08Z</time>
      </trkpt>
      <trkpt lat="42.14569" lon="1.15788">
        <ele>1059.2</ele>
        <time>2019-02-12T12:55:15Z</time>
      </trkpt>
      <trkpt lat="42.14562" lon="1.15796">
        <ele>1056.7</ele>
        <time>2019-02-12T12:55:20Z</time>
      </trkpt>
      <trkpt lat="42.1456" lon="1.15784">
        <ele>1056</ele>
        <time>2019-02-12T12:55:25Z</time>
      </trkpt>
      <trkpt lat="42.14555" lon="1.15767">
        <ele>1054.1</ele>
        <time>2019-02-12T12:55:33Z</time>
      </trkpt>
      <trkpt lat="42.14553" lon="1.15753">
        <ele>1053.3</ele>
        <time>2019-02-12T12:55:39Z</time>
      </trkpt>
      <trkpt lat="42.14557" lon="1.15736">
        <ele>1054.5</ele>
        <time>2019-02-12T12:55:47Z</time>
      </trkpt>
      <trkpt lat="42.14557" lon="1.15719">
        <ele>1054.1</ele>
        <time>2019-02-12T12:55:54Z</time>
      </trkpt>
      <trkpt lat="42.14561" lon="1.15699">
        <ele>1056.5</ele>
        <time>2019-02-12T12:56:03Z</time>
      </trkpt>
      <trkpt lat="42.14564" lon="1.15678">
        <ele>1060.4</ele>
        <time>2019-02-12T12:56:12Z</time>
      </trkpt>
      <trkpt lat="42.14562" lon="1.15659">
        <ele>1063.4</ele>
        <time>2019-02-12T12:56:20Z</time>
      </trkpt>
      <trkpt lat="42.14561" lon="1.15632">
        <ele>1067.8</ele>
        <time>2019-02-12T12:56:32Z</time>
      </trkpt>
      <trkpt lat="42.14557" lon="1.15597">
        <ele>1076.3</ele>
        <time>2019-02-12T12:56:47Z</time>
      </trkpt>
      <trkpt lat="42.14552" lon="1.15597">
        <ele>1077</ele>
        <time>2019-02-12T12:56:50Z</time>
      </trkpt>
      <trkpt lat="42.14543" lon="1.15595">
        <ele>1078.2</ele>
        <time>2019-02-12T12:56:55Z</time>
      </trkpt>
      <trkpt lat="42.14538" lon="1.15598">
        <ele>1077.6</ele>
        <time>2019-02-12T12:56:58Z</time>
      </trkpt>
      <trkpt lat="42.14535" lon="1.15596">
        <ele>1078.2</ele>
        <time>2019-02-12T12:57:00Z</time>
      </trkpt>
      <trkpt lat="42.14526" lon="1.15591">
        <ele>1079.8</ele>
        <time>2019-02-12T12:57:05Z</time>
      </trkpt>
      <trkpt lat="42.14516" lon="1.15585">
        <ele>1082</ele>
        <time>2019-02-12T12:57:12Z</time>
      </trkpt>
      <trkpt lat="42.14505" lon="1.15581">
        <ele>1083.6</ele>
        <time>2019-02-12T12:57:18Z</time>
      </trkpt>
      <trkpt lat="42.14499" lon="1.15577">
        <ele>1085.5</ele>
        <time>2019-02-12T12:57:22Z</time>
      </trkpt>
      <trkpt lat="42.14487" lon="1.1558">
        <ele>1084.7</ele>
        <time>2019-02-12T12:57:29Z</time>
      </trkpt>
      <trkpt lat="42.14472" lon="1.15574">
        <ele>1087.7</ele>
        <time>2019-02-12T12:57:38Z</time>
      </trkpt>
      <trkpt lat="42.14467" lon="1.1557">
        <ele>1090</ele>
        <time>2019-02-12T12:57:41Z</time>
      </trkpt>
      <trkpt lat="42.14456" lon="1.15572">
        <ele>1090.4</ele>
        <time>2019-02-12T12:57:48Z</time>
      </trkpt>
      <trkpt lat="42.14434" lon="1.15572">
        <ele>1100.1</ele>
        <time>2019-02-12T12:58:00Z</time>
      </trkpt>
      <trkpt lat="42.14422" lon="1.15575">
        <ele>1104.5</ele>
        <time>2019-02-12T12:58:07Z</time>
      </trkpt>
      <trkpt lat="42.14411" lon="1.15576">
        <ele>1108.9</ele>
        <time>2019-02-12T12:58:14Z</time>
      </trkpt>
      <trkpt lat="42.14405" lon="1.15574">
        <ele>1112.1</ele>
        <time>2019-02-12T12:58:17Z</time>
      </trkpt>
      <trkpt lat="42.14394" lon="1.15575">
        <ele>1116.4</ele>
        <time>2019-02-12T12:58:23Z</time>
      </trkpt>
      <trkpt lat="42.14394" lon="1.1558">
        <ele>1114.4</ele>
        <time>2019-02-12T12:58:25Z</time>
      </trkpt>
      <trkpt lat="42.14388" lon="1.15595">
        <ele>1110.2</ele>
        <time>2019-02-12T12:58:32Z</time>
      </trkpt>
      <trkpt lat="42.14383" lon="1.15608">
        <ele>1107.2</ele>
        <time>2019-02-12T12:58:38Z</time>
      </trkpt>
      <trkpt lat="42.14368" lon="1.1562">
        <ele>1108.7</ele>
        <time>2019-02-12T12:58:48Z</time>
      </trkpt>
      <trkpt lat="42.14352" lon="1.15629">
        <ele>1112</ele>
        <time>2019-02-12T12:58:59Z</time>
      </trkpt>
      <trkpt lat="42.14339" lon="1.15642">
        <ele>1111</ele>
        <time>2019-02-12T12:59:08Z</time>
      </trkpt>
      <trkpt lat="42.14325" lon="1.15661">
        <ele>1106.7</ele>
        <time>2019-02-12T12:59:19Z</time>
      </trkpt>
      <trkpt lat="42.14312" lon="1.15671">
        <ele>1107.7</ele>
        <time>2019-02-12T12:59:28Z</time>
      </trkpt>
      <trkpt lat="42.14314" lon="1.15684">
        <ele>1099.7</ele>
        <time>2019-02-12T12:59:33Z</time>
      </trkpt>
      <trkpt lat="42.14318" lon="1.15687">
        <ele>1096.3</ele>
        <time>2019-02-12T12:59:36Z</time>
      </trkpt>
      <trkpt lat="42.14327" lon="1.15686">
        <ele>1092.5</ele>
        <time>2019-02-12T12:59:41Z</time>
      </trkpt>
      <trkpt lat="42.14339" lon="1.15693">
        <ele>1083</ele>
        <time>2019-02-12T12:59:48Z</time>
      </trkpt>
      <trkpt lat="42.14361" lon="1.1569">
        <ele>1074.4</ele>
        <time>2019-02-12T13:00:01Z</time>
      </trkpt>
      <trkpt lat="42.14377" lon="1.15692">
        <ele>1066.4</ele>
        <time>2019-02-12T13:00:10Z</time>
      </trkpt>
      <trkpt lat="42.1438" lon="1.15692">
        <ele>1065.1</ele>
        <time>2019-02-12T13:00:12Z</time>
      </trkpt>
      <trkpt lat="42.14378" lon="1.15696">
        <ele>1063.5</ele>
        <time>2019-02-12T13:00:14Z</time>
      </trkpt>
      <trkpt lat="42.14374" lon="1.15702">
        <ele>1061.6</ele>
        <time>2019-02-12T13:00:17Z</time>
      </trkpt>
      <trkpt lat="42.14379" lon="1.15709">
        <ele>1056.3</ele>
        <time>2019-02-12T13:00:21Z</time>
      </trkpt>
      <trkpt lat="42.14392" lon="1.15708">
        <ele>1051.3</ele>
        <time>2019-02-12T13:00:29Z</time>
      </trkpt>
      <trkpt lat="42.14392" lon="1.15713">
        <ele>1049.5</ele>
        <time>2019-02-12T13:00:31Z</time>
      </trkpt>
      <trkpt lat="42.14386" lon="1.15721">
        <ele>1048.5</ele>
        <time>2019-02-12T13:00:36Z</time>
      </trkpt>
      <trkpt lat="42.14375" lon="1.15739">
        <ele>1043.9</ele>
        <time>2019-02-12T13:00:45Z</time>
      </trkpt>
      <trkpt lat="42.14369" lon="1.15738">
        <ele>1046.7</ele>
        <time>2019-02-12T13:00:49Z</time>
      </trkpt>
      <trkpt lat="42.14364" lon="1.1575">
        <ele>1043.6</ele>
        <time>2019-02-12T13:00:55Z</time>
      </trkpt>
      <trkpt lat="42.1437" lon="1.15759">
        <ele>1036.9</ele>
        <time>2019-02-12T13:01:00Z</time>
      </trkpt>
      <trkpt lat="42.14375" lon="1.15765">
        <ele>1032.3</ele>
        <time>2019-02-12T13:01:04Z</time>
      </trkpt>
      <trkpt lat="42.14373" lon="1.15772">
        <ele>1029.8</ele>
        <time>2019-02-12T13:01:07Z</time>
      </trkpt>
      <trkpt lat="42.14375" lon="1.15784">
        <ele>1023.6</ele>
        <time>2019-02-12T13:01:12Z</time>
      </trkpt>
      <trkpt lat="42.14387" lon="1.15782">
        <ele>1022.6</ele>
        <time>2019-02-12T13:01:19Z</time>
      </trkpt>
      <trkpt lat="42.14401" lon="1.15775">
        <ele>1023.2</ele>
        <time>2019-02-12T13:01:28Z</time>
      </trkpt>
      <trkpt lat="42.14401" lon="1.15791">
        <ele>1017.2</ele>
        <time>2019-02-12T13:01:35Z</time>
      </trkpt>
      <trkpt lat="42.14403" lon="1.15806">
        <ele>1013.6</ele>
        <time>2019-02-12T13:01:41Z</time>
      </trkpt>
      <trkpt lat="42.14404" lon="1.15819">
        <ele>1010.4</ele>
        <time>2019-02-12T13:01:46Z</time>
      </trkpt>
      <trkpt lat="42.14399" lon="1.15841">
        <ele>1005.5</ele>
        <time>2019-02-12T13:01:56Z</time>
      </trkpt>
      <trkpt lat="42.14397" lon="1.15853">
        <ele>1002.5</ele>
        <time>2019-02-12T13:02:02Z</time>
      </trkpt>
      <trkpt lat="42.14395" lon="1.15881">
        <ele>995.9</ele>
        <time>2019-02-12T13:02:14Z</time>
      </trkpt>
      <trkpt lat="42.14409" lon="1.15905">
        <ele>991.5</ele>
        <time>2019-02-12T13:02:27Z</time>
      </trkpt>
      <trkpt lat="42.14419" lon="1.15926">
        <ele>988.1</ele>
        <time>2019-02-12T13:02:37Z</time>
      </trkpt>
      <trkpt lat="42.14422" lon="1.15943">
        <ele>984.9</ele>
        <time>2019-02-12T13:02:44Z</time>
      </trkpt>
      <trkpt lat="42.14423" lon="1.15957">
        <ele>982.3</ele>
        <time>2019-02-12T13:02:50Z</time>
      </trkpt>
      <trkpt lat="42.14437" lon="1.15981">
        <ele>978.1</ele>
        <time>2019-02-12T13:03:03Z</time>
      </trkpt>
      <trkpt lat="42.14446" lon="1.15999">
        <ele>974.4</ele>
        <time>2019-02-12T13:03:12Z</time>
      </trkpt>
      <trkpt lat="42.14452" lon="1.16017">
        <ele>970.2</ele>
        <time>2019-02-12T13:03:21Z</time>
      </trkpt>
      <trkpt lat="42.14463" lon="1.16025">
        <ele>970</ele>
        <time>2019-02-12T13:03:28Z</time>
      </trkpt>
      <trkpt lat="42.14487" lon="1.16038">
        <ele>972.4</ele>
        <time>2019-02-12T13:03:43Z</time>
      </trkpt>
      <trkpt lat="42.14511" lon="1.16045">
        <ele>975.9</ele>
        <time>2019-02-12T13:03:57Z</time>
      </trkpt>
      <trkpt lat="42.14522" lon="1.16057">
        <ele>973.2</ele>
        <time>2019-02-12T13:04:05Z</time>
      </trkpt>
      <trkpt lat="42.1453" lon="1.16066">
        <ele>970.7</ele>
        <time>2019-02-12T13:04:11Z</time>
      </trkpt>
      <trkpt lat="42.14539" lon="1.16071">
        <ele>970.2</ele>
        <time>2019-02-12T13:04:16Z</time>
      </trkpt>
      <trkpt lat="42.14548" lon="1.16076">
        <ele>968.6</ele>
        <time>2019-02-12T13:04:22Z</time>
      </trkpt>
      <trkpt lat="42.14553" lon="1.1608">
        <ele>966.2</ele>
        <time>2019-02-12T13:04:25Z</time>
      </trkpt>
      <trkpt lat="42.14542" lon="1.16087">
        <ele>963.3</ele>
        <time>2019-02-12T13:04:33Z</time>
      </trkpt>
      <trkpt lat="42.14533" lon="1.16077">
        <ele>966.3</ele>
        <time>2019-02-12T13:04:39Z</time>
      </trkpt>
      <trkpt lat="42.14515" lon="1.16073">
        <ele>965.2</ele>
        <time>2019-02-12T13:04:49Z</time>
      </trkpt>
      <trkpt lat="42.1449" lon="1.16063">
        <ele>964</ele>
        <time>2019-02-12T13:05:04Z</time>
      </trkpt>
      <trkpt lat="42.14468" lon="1.16062">
        <ele>959.7</ele>
        <time>2019-02-12T13:05:17Z</time>
      </trkpt>
      <trkpt lat="42.14447" lon="1.16072">
        <ele>954.6</ele>
        <time>2019-02-12T13:05:30Z</time>
      </trkpt>
      <trkpt lat="42.14422" lon="1.16067">
        <ele>955.7</ele>
        <time>2019-02-12T13:05:44Z</time>
      </trkpt>
      <trkpt lat="42.14398" lon="1.16055">
        <ele>959</ele>
        <time>2019-02-12T13:05:59Z</time>
      </trkpt>
      <trkpt lat="42.14408" lon="1.16076">
        <ele>953</ele>
        <time>2019-02-12T13:06:09Z</time>
      </trkpt>
      <trkpt lat="42.14413" lon="1.16094">
        <ele>948.2</ele>
        <time>2019-02-12T13:06:17Z</time>
      </trkpt>
      <trkpt lat="42.14404" lon="1.16093">
        <ele>948.3</ele>
        <time>2019-02-12T13:06:22Z</time>
      </trkpt>
      <trkpt lat="42.1439" lon="1.16087">
        <ele>950.2</ele>
        <time>2019-02-12T13:06:31Z</time>
      </trkpt>
      <trkpt lat="42.14382" lon="1.16082">
        <ele>951.6</ele>
        <time>2019-02-12T13:06:36Z</time>
      </trkpt>
      <trkpt lat="42.14378" lon="1.16094">
        <ele>948.3</ele>
        <time>2019-02-12T13:06:41Z</time>
      </trkpt>
      <trkpt lat="42.14378" lon="1.16112">
        <ele>943.5</ele>
        <time>2019-02-12T13:06:49Z</time>
      </trkpt>
      <trkpt lat="42.14388" lon="1.1614">
        <ele>935.8</ele>
        <time>2019-02-12T13:07:02Z</time>
      </trkpt>
      <trkpt lat="42.14387" lon="1.1617">
        <ele>928.2</ele>
        <time>2019-02-12T13:07:15Z</time>
      </trkpt>
      <trkpt lat="42.14399" lon="1.1618">
        <ele>924.9</ele>
        <time>2019-02-12T13:07:23Z</time>
      </trkpt>
      <trkpt lat="42.14479" lon="1.16179">
        <ele>922.2</ele>
        <time>2019-02-12T13:08:09Z</time>
      </trkpt>
      <trkpt lat="42.145" lon="1.16189">
        <ele>919</ele>
        <time>2019-02-12T13:08:22Z</time>
      </trkpt>
      <trkpt lat="42.14541" lon="1.16184">
        <ele>921.2</ele>
        <time>2019-02-12T13:08:45Z</time>
      </trkpt>
      <trkpt lat="42.14564" lon="1.16181">
        <ele>921</ele>
        <time>2019-02-12T13:08:58Z</time>
      </trkpt>
      <trkpt lat="42.14594" lon="1.16153">
        <ele>930.9</ele>
        <time>2019-02-12T13:09:19Z</time>
      </trkpt>
      <trkpt lat="42.1462" lon="1.16148">
        <ele>931.7</ele>
        <time>2019-02-12T13:09:34Z</time>
      </trkpt>
      <trkpt lat="42.14676" lon="1.1616">
        <ele>912.9</ele>
        <time>2019-02-12T13:10:07Z</time>
      </trkpt>
      <trkpt lat="42.1469" lon="1.16161">
        <ele>909</ele>
        <time>2019-02-12T13:10:15Z</time>
      </trkpt>
      <trkpt lat="42.14703" lon="1.16166">
        <ele>903.5</ele>
        <time>2019-02-12T13:10:23Z</time>
      </trkpt>
      <trkpt lat="42.1472" lon="1.16163">
        <ele>903.6</ele>
        <time>2019-02-12T13:10:32Z</time>
      </trkpt>
      <trkpt lat="42.14734" lon="1.16162">
        <ele>904.1</ele>
        <time>2019-02-12T13:10:40Z</time>
      </trkpt>
      <trkpt lat="42.14746" lon="1.16165">
        <ele>903.2</ele>
        <time>2019-02-12T13:10:48Z</time>
      </trkpt>
      <trkpt lat="42.1476" lon="1.16183">
        <ele>897.5</ele>
        <time>2019-02-12T13:10:58Z</time>
      </trkpt>
      <trkpt lat="42.14774" lon="1.16206">
        <ele>889.8</ele>
        <time>2019-02-12T13:11:11Z</time>
      </trkpt>
      <trkpt lat="42.14788" lon="1.16215">
        <ele>891.3</ele>
        <time>2019-02-12T13:11:20Z</time>
      </trkpt>
      <trkpt lat="42.14796" lon="1.16233">
        <ele>895.8</ele>
        <time>2019-02-12T13:11:29Z</time>
      </trkpt>
      <trkpt lat="42.14803" lon="1.16255">
        <ele>901.2</ele>
        <time>2019-02-12T13:11:39Z</time>
      </trkpt>
      <trkpt lat="42.14824" lon="1.16267">
        <ele>906.2</ele>
        <time>2019-02-12T13:11:52Z</time>
      </trkpt>
      <trkpt lat="42.14848" lon="1.16313">
        <ele>916.3</ele>
        <time>2019-02-12T13:12:16Z</time>
      </trkpt>
      <trkpt lat="42.14843" lon="1.16344">
        <ele>921.4</ele>
        <time>2019-02-12T13:12:29Z</time>
      </trkpt>
      <trkpt lat="42.14831" lon="1.16389">
        <ele>929.9</ele>
        <time>2019-02-12T13:12:49Z</time>
      </trkpt>
      <trkpt lat="42.14815" lon="1.16418">
        <ele>937.5</ele>
        <time>2019-02-12T13:13:05Z</time>
      </trkpt>
      <trkpt lat="42.14798" lon="1.16437">
        <ele>945.6</ele>
        <time>2019-02-12T13:13:18Z</time>
      </trkpt>
      <trkpt lat="42.14795" lon="1.16465">
        <ele>951.2</ele>
        <time>2019-02-12T13:13:29Z</time>
      </trkpt>
      <trkpt lat="42.14797" lon="1.1649">
        <ele>951.9</ele>
        <time>2019-02-12T13:13:40Z</time>
      </trkpt>
      <trkpt lat="42.14803" lon="1.16508">
        <ele>950.7</ele>
        <time>2019-02-12T13:13:49Z</time>
      </trkpt>
      <trkpt lat="42.14811" lon="1.16522">
        <ele>949</ele>
        <time>2019-02-12T13:13:56Z</time>
      </trkpt>
      <trkpt lat="42.14819" lon="1.16531">
        <ele>947.1</ele>
        <time>2019-02-12T13:14:02Z</time>
      </trkpt>
      <trkpt lat="42.14823" lon="1.16544">
        <ele>946.8</ele>
        <time>2019-02-12T13:14:08Z</time>
      </trkpt>
      <trkpt lat="42.14818" lon="1.16555">
        <ele>948.6</ele>
        <time>2019-02-12T13:14:13Z</time>
      </trkpt>
      <trkpt lat="42.1481" lon="1.16571">
        <ele>951.6</ele>
        <time>2019-02-12T13:14:21Z</time>
      </trkpt>
      <trkpt lat="42.148" lon="1.16563">
        <ele>954.5</ele>
        <time>2019-02-12T13:14:28Z</time>
      </trkpt>
      <trkpt lat="42.14789" lon="1.16532">
        <ele>955.9</ele>
        <time>2019-02-12T13:14:43Z</time>
      </trkpt>
      <trkpt lat="42.1477" lon="1.16495">
        <ele>953.8</ele>
        <time>2019-02-12T13:15:02Z</time>
      </trkpt>
      <trkpt lat="42.1476" lon="1.16466">
        <ele>949.5</ele>
        <time>2019-02-12T13:15:15Z</time>
      </trkpt>
      <trkpt lat="42.14752" lon="1.16455">
        <ele>946.3</ele>
        <time>2019-02-12T13:15:22Z</time>
      </trkpt>
      <trkpt lat="42.14732" lon="1.16454">
        <ele>943.5</ele>
        <time>2019-02-12T13:15:34Z</time>
      </trkpt>
      <trkpt lat="42.14721" lon="1.16446">
        <ele>940.1</ele>
        <time>2019-02-12T13:15:40Z</time>
      </trkpt>
      <trkpt lat="42.14714" lon="1.16431">
        <ele>935.1</ele>
        <time>2019-02-12T13:15:48Z</time>
      </trkpt>
      <trkpt lat="42.14691" lon="1.16445">
        <ele>931.4</ele>
        <time>2019-02-12T13:16:03Z</time>
      </trkpt>
      <trkpt lat="42.14678" lon="1.1645">
        <ele>927.5</ele>
        <time>2019-02-12T13:16:10Z</time>
      </trkpt>
      <trkpt lat="42.14665" lon="1.16445">
        <ele>920.9</ele>
        <time>2019-02-12T13:16:18Z</time>
      </trkpt>
      <trkpt lat="42.14653" lon="1.16456">
        <ele>919</ele>
        <time>2019-02-12T13:16:26Z</time>
      </trkpt>
      <trkpt lat="42.14631" lon="1.16488">
        <ele>918.6</ele>
        <time>2019-02-12T13:16:45Z</time>
      </trkpt>
      <trkpt lat="42.14611" lon="1.16513">
        <ele>917.5</ele>
        <time>2019-02-12T13:17:00Z</time>
      </trkpt>
      <trkpt lat="42.14587" lon="1.16526">
        <ele>912.2</ele>
        <time>2019-02-12T13:17:15Z</time>
      </trkpt>
      <trkpt lat="42.14577" lon="1.16521">
        <ele>907</ele>
        <time>2019-02-12T13:17:22Z</time>
      </trkpt>
      <trkpt lat="42.14554" lon="1.16515">
        <ele>897.4</ele>
        <time>2019-02-12T13:17:35Z</time>
      </trkpt>
      <trkpt lat="42.14547" lon="1.16513">
        <ele>894.1</ele>
        <time>2019-02-12T13:17:39Z</time>
      </trkpt>
      <trkpt lat="42.14534" lon="1.16514">
        <ele>892.1</ele>
        <time>2019-02-12T13:17:46Z</time>
      </trkpt>
      <trkpt lat="42.14517" lon="1.16525">
        <ele>893.4</ele>
        <time>2019-02-12T13:17:57Z</time>
      </trkpt>
      <trkpt lat="42.14492" lon="1.16545">
        <ele>896.4</ele>
        <time>2019-02-12T13:18:14Z</time>
      </trkpt>
      <trkpt lat="42.1448" lon="1.16549">
        <ele>896.7</ele>
        <time>2019-02-12T13:18:21Z</time>
      </trkpt>
      <trkpt lat="42.14469" lon="1.1654">
        <ele>893.5</ele>
        <time>2019-02-12T13:18:28Z</time>
      </trkpt>
      <trkpt lat="42.14459" lon="1.1654">
        <ele>892.6</ele>
        <time>2019-02-12T13:18:34Z</time>
      </trkpt>
      <trkpt lat="42.1445" lon="1.16538">
        <ele>892.7</ele>
        <time>2019-02-12T13:18:39Z</time>
      </trkpt>
      <trkpt lat="42.14445" lon="1.16534">
        <ele>891.9</ele>
        <time>2019-02-12T13:18:43Z</time>
      </trkpt>
      <trkpt lat="42.14437" lon="1.16534">
        <ele>892.3</ele>
        <time>2019-02-12T13:18:47Z</time>
      </trkpt>
      <trkpt lat="42.14426" lon="1.16548">
        <ele>896.4</ele>
        <time>2019-02-12T13:18:55Z</time>
      </trkpt>
      <trkpt lat="42.14408" lon="1.1657">
        <ele>904.6</ele>
        <time>2019-02-12T13:19:10Z</time>
      </trkpt>
      <trkpt lat="42.14399" lon="1.16587">
        <ele>911</ele>
        <time>2019-02-12T13:19:18Z</time>
      </trkpt>
      <trkpt lat="42.14399" lon="1.16595">
        <ele>913.7</ele>
        <time>2019-02-12T13:19:22Z</time>
      </trkpt>
      <trkpt lat="42.14405" lon="1.16596">
        <ele>913.4</ele>
        <time>2019-02-12T13:19:25Z</time>
      </trkpt>
      <trkpt lat="42.14407" lon="1.16612">
        <ele>918.2</ele>
        <time>2019-02-12T13:19:32Z</time>
      </trkpt>
      <trkpt lat="42.14401" lon="1.1662">
        <ele>921.6</ele>
        <time>2019-02-12T13:19:37Z</time>
      </trkpt>
      <trkpt lat="42.14402" lon="1.16634">
        <ele>925.9</ele>
        <time>2019-02-12T13:19:43Z</time>
      </trkpt>
      <trkpt lat="42.14407" lon="1.1664">
        <ele>927.2</ele>
        <time>2019-02-12T13:19:46Z</time>
      </trkpt>
      <trkpt lat="42.14408" lon="1.16652">
        <ele>930.9</ele>
        <time>2019-02-12T13:19:51Z</time>
      </trkpt>
      <trkpt lat="42.144" lon="1.16667">
        <ele>936.6</ele>
        <time>2019-02-12T13:19:59Z</time>
      </trkpt>
      <trkpt lat="42.14392" lon="1.1668">
        <ele>941.7</ele>
        <time>2019-02-12T13:20:07Z</time>
      </trkpt>
      <trkpt lat="42.14384" lon="1.16688">
        <ele>944.8</ele>
        <time>2019-02-12T13:20:12Z</time>
      </trkpt>
      <trkpt lat="42.14378" lon="1.16701">
        <ele>949.6</ele>
        <time>2019-02-12T13:20:19Z</time>
      </trkpt>
      <trkpt lat="42.14376" lon="1.16711">
        <ele>952.6</ele>
        <time>2019-02-12T13:20:23Z</time>
      </trkpt>
      <trkpt lat="42.1435" lon="1.16735">
        <ele>953</ele>
        <time>2019-02-12T13:20:41Z</time>
      </trkpt>
      <trkpt lat="42.14332" lon="1.16726">
        <ele>948.2</ele>
        <time>2019-02-12T13:20:52Z</time>
      </trkpt>
      <trkpt lat="42.1432" lon="1.1672">
        <ele>944.7</ele>
        <time>2019-02-12T13:20:59Z</time>
      </trkpt>
      <trkpt lat="42.14315" lon="1.16728">
        <ele>945.6</ele>
        <time>2019-02-12T13:21:04Z</time>
      </trkpt>
      <trkpt lat="42.14311" lon="1.16741">
        <ele>947.9</ele>
        <time>2019-02-12T13:21:10Z</time>
      </trkpt>
      <trkpt lat="42.14314" lon="1.16754">
        <ele>951.1</ele>
        <time>2019-02-12T13:21:15Z</time>
      </trkpt>
      <trkpt lat="42.14319" lon="1.16767">
        <ele>954.8</ele>
        <time>2019-02-12T13:21:22Z</time>
      </trkpt>
      <trkpt lat="42.14325" lon="1.16784">
        <ele>959.4</ele>
        <time>2019-02-12T13:21:29Z</time>
      </trkpt>
      <trkpt lat="42.14335" lon="1.16799">
        <ele>962.9</ele>
        <time>2019-02-12T13:21:38Z</time>
      </trkpt>
      <trkpt lat="42.1436" lon="1.1681">
        <ele>967.2</ele>
        <time>2019-02-12T13:21:53Z</time>
      </trkpt>
      <trkpt lat="42.14376" lon="1.16819">
        <ele>969.8</ele>
        <time>2019-02-12T13:22:04Z</time>
      </trkpt>
      <trkpt lat="42.1439" lon="1.16816">
        <ele>969.7</ele>
        <time>2019-02-12T13:22:11Z</time>
      </trkpt>
      <trkpt lat="42.14398" lon="1.16831">
        <ele>971.1</ele>
        <time>2019-02-12T13:22:20Z</time>
      </trkpt>
      <trkpt lat="42.14407" lon="1.16857">
        <ele>974.1</ele>
        <time>2019-02-12T13:22:32Z</time>
      </trkpt>
      <trkpt lat="42.14419" lon="1.1686">
        <ele>975.9</ele>
        <time>2019-02-12T13:22:39Z</time>
      </trkpt>
      <trkpt lat="42.14435" lon="1.16863">
        <ele>978.4</ele>
        <time>2019-02-12T13:22:48Z</time>
      </trkpt>
      <trkpt lat="42.14445" lon="1.16869">
        <ele>980.8</ele>
        <time>2019-02-12T13:22:54Z</time>
      </trkpt>
      <trkpt lat="42.14443" lon="1.16886">
        <ele>982.6</ele>
        <time>2019-02-12T13:23:02Z</time>
      </trkpt>
      <trkpt lat="42.14437" lon="1.16907">
        <ele>983.6</ele>
        <time>2019-02-12T13:23:11Z</time>
      </trkpt>
      <trkpt lat="42.1444" lon="1.16943">
        <ele>987</ele>
        <time>2019-02-12T13:23:26Z</time>
      </trkpt>
      <trkpt lat="42.14449" lon="1.16969">
        <ele>990.9</ele>
        <time>2019-02-12T13:23:39Z</time>
      </trkpt>
      <trkpt lat="42.14459" lon="1.17001">
        <ele>994.9</ele>
        <time>2019-02-12T13:23:53Z</time>
      </trkpt>
      <trkpt lat="42.14461" lon="1.17027">
        <ele>998</ele>
        <time>2019-02-12T13:24:05Z</time>
      </trkpt>
      <trkpt lat="42.1445" lon="1.17052">
        <ele>1002</ele>
        <time>2019-02-12T13:24:17Z</time>
      </trkpt>
      <trkpt lat="42.14441" lon="1.17065">
        <ele>1007</ele>
        <time>2019-02-12T13:24:25Z</time>
      </trkpt>
      <trkpt lat="42.14433" lon="1.17066">
        <ele>1008</ele>
        <time>2019-02-12T13:24:29Z</time>
      </trkpt>
      <trkpt lat="42.14423" lon="1.17062">
        <ele>1007.2</ele>
        <time>2019-02-12T13:24:35Z</time>
      </trkpt>
      <trkpt lat="42.14403" lon="1.17063">
        <ele>1008.8</ele>
        <time>2019-02-12T13:24:47Z</time>
      </trkpt>
      <trkpt lat="42.14384" lon="1.17062">
        <ele>1009.7</ele>
        <time>2019-02-12T13:24:58Z</time>
      </trkpt>
      <trkpt lat="42.14374" lon="1.17064">
        <ele>1011.3</ele>
        <time>2019-02-12T13:25:04Z</time>
      </trkpt>
      <trkpt lat="42.14361" lon="1.17062">
        <ele>1012.3</ele>
        <time>2019-02-12T13:25:11Z</time>
      </trkpt>
      <trkpt lat="42.14344" lon="1.17054">
        <ele>1012.5</ele>
        <time>2019-02-12T13:25:21Z</time>
      </trkpt>
      <trkpt lat="42.14327" lon="1.17049">
        <ele>1013.9</ele>
        <time>2019-02-12T13:25:31Z</time>
      </trkpt>
      <trkpt lat="42.14306" lon="1.17045">
        <ele>1016.5</ele>
        <time>2019-02-12T13:25:43Z</time>
      </trkpt>
      <trkpt lat="42.14292" lon="1.17046">
        <ele>1019</ele>
        <time>2019-02-12T13:25:51Z</time>
      </trkpt>
      <trkpt lat="42.14275" lon="1.1704">
        <ele>1017.4</ele>
        <time>2019-02-12T13:26:01Z</time>
      </trkpt>
      <trkpt lat="42.14262" lon="1.17039">
        <ele>1017.3</ele>
        <time>2019-02-12T13:26:09Z</time>
      </trkpt>
      <trkpt lat="42.14245" lon="1.17045">
        <ele>1019.2</ele>
        <time>2019-02-12T13:26:19Z</time>
      </trkpt>
      <trkpt lat="42.14233" lon="1.17052">
        <ele>1020.6</ele>
        <time>2019-02-12T13:26:26Z</time>
      </trkpt>
      <trkpt lat="42.14223" lon="1.1706">
        <ele>1021.5</ele>
        <time>2019-02-12T13:26:33Z</time>
      </trkpt>
      <trkpt lat="42.14218" lon="1.17068">
        <ele>1022.4</ele>
        <time>2019-02-12T13:26:37Z</time>
      </trkpt>
      <trkpt lat="42.14221" lon="1.17077">
        <ele>1023.8</ele>
        <time>2019-02-12T13:26:41Z</time>
      </trkpt>
      <trkpt lat="42.14235" lon="1.17082">
        <ele>1025.5</ele>
        <time>2019-02-12T13:26:49Z</time>
      </trkpt>
      <trkpt lat="42.14247" lon="1.17081">
        <ele>1025.9</ele>
        <time>2019-02-12T13:26:56Z</time>
      </trkpt>
      <trkpt lat="42.14258" lon="1.17089">
        <ele>1028.1</ele>
        <time>2019-02-12T13:27:03Z</time>
      </trkpt>
      <trkpt lat="42.14272" lon="1.17096">
        <ele>1030.7</ele>
        <time>2019-02-12T13:27:12Z</time>
      </trkpt>
      <trkpt lat="42.14275" lon="1.17116">
        <ele>1035.8</ele>
        <time>2019-02-12T13:27:21Z</time>
      </trkpt>
      <trkpt lat="42.14278" lon="1.17143">
        <ele>1038.7</ele>
        <time>2019-02-12T13:27:32Z</time>
      </trkpt>
      <trkpt lat="42.14288" lon="1.1716">
        <ele>1040.8</ele>
        <time>2019-02-12T13:27:41Z</time>
      </trkpt>
      <trkpt lat="42.14289" lon="1.17184">
        <ele>1041.7</ele>
        <time>2019-02-12T13:27:52Z</time>
      </trkpt>
      <trkpt lat="42.14285" lon="1.17198">
        <ele>1041.5</ele>
        <time>2019-02-12T13:27:58Z</time>
      </trkpt>
      <trkpt lat="42.14252" lon="1.17225">
        <ele>1040.2</ele>
        <time>2019-02-12T13:28:20Z</time>
      </trkpt>
      <trkpt lat="42.1423" lon="1.17249">
        <ele>1042.9</ele>
        <time>2019-02-12T13:28:36Z</time>
      </trkpt>
      <trkpt lat="42.1421" lon="1.17283">
        <ele>1049.9</ele>
        <time>2019-02-12T13:28:55Z</time>
      </trkpt>
      <trkpt lat="42.14191" lon="1.1732">
        <ele>1055.1</ele>
        <time>2019-02-12T13:29:14Z</time>
      </trkpt>
      <trkpt lat="42.14175" lon="1.1735">
        <ele>1057.7</ele>
        <time>2019-02-12T13:29:29Z</time>
      </trkpt>
      <trkpt lat="42.14172" lon="1.17367">
        <ele>1060.1</ele>
        <time>2019-02-12T13:29:37Z</time>
      </trkpt>
      <trkpt lat="42.14174" lon="1.17374">
        <ele>1061.7</ele>
        <time>2019-02-12T13:29:40Z</time>
      </trkpt>
      <trkpt lat="42.14179" lon="1.17375">
        <ele>1062.9</ele>
        <time>2019-02-12T13:29:43Z</time>
      </trkpt>
      <trkpt lat="42.14189" lon="1.17371">
        <ele>1063.7</ele>
        <time>2019-02-12T13:29:49Z</time>
      </trkpt>
      <trkpt lat="42.14202" lon="1.1738">
        <ele>1066.4</ele>
        <time>2019-02-12T13:29:57Z</time>
      </trkpt>
      <trkpt lat="42.14208" lon="1.17375">
        <ele>1068</ele>
        <time>2019-02-12T13:30:01Z</time>
      </trkpt>
      <trkpt lat="42.14211" lon="1.17372">
        <ele>1067.9</ele>
        <time>2019-02-12T13:30:03Z</time>
      </trkpt>
      <trkpt lat="42.14211" lon="1.17359">
        <ele>1065.4</ele>
        <time>2019-02-12T13:30:09Z</time>
      </trkpt>
      <trkpt lat="42.14222" lon="1.17347">
        <ele>1064.6</ele>
        <time>2019-02-12T13:30:17Z</time>
      </trkpt>
      <trkpt lat="42.14249" lon="1.17343">
        <ele>1067.4</ele>
        <time>2019-02-12T13:30:33Z</time>
      </trkpt>
      <trkpt lat="42.14268" lon="1.1734">
        <ele>1069.1</ele>
        <time>2019-02-12T13:30:43Z</time>
      </trkpt>
      <trkpt lat="42.14287" lon="1.17346">
        <ele>1073.2</ele>
        <time>2019-02-12T13:30:55Z</time>
      </trkpt>
      <trkpt lat="42.14306" lon="1.17337">
        <ele>1074.7</ele>
        <time>2019-02-12T13:31:06Z</time>
      </trkpt>
      <trkpt lat="42.14325" lon="1.17325">
        <ele>1076</ele>
        <time>2019-02-12T13:31:18Z</time>
      </trkpt>
      <trkpt lat="42.14347" lon="1.1731">
        <ele>1076.7</ele>
        <time>2019-02-12T13:31:32Z</time>
      </trkpt>
      <trkpt lat="42.14362" lon="1.17289">
        <ele>1074.2</ele>
        <time>2019-02-12T13:31:45Z</time>
      </trkpt>
      <trkpt lat="42.14375" lon="1.17284">
        <ele>1075.3</ele>
        <time>2019-02-12T13:31:52Z</time>
      </trkpt>
      <trkpt lat="42.14381" lon="1.17288">
        <ele>1076.8</ele>
        <time>2019-02-12T13:31:56Z</time>
      </trkpt>
      <trkpt lat="42.14376" lon="1.173">
        <ele>1079.4</ele>
        <time>2019-02-12T13:32:02Z</time>
      </trkpt>
      <trkpt lat="42.14361" lon="1.17318">
        <ele>1081.4</ele>
        <time>2019-02-12T13:32:14Z</time>
      </trkpt>
      <trkpt lat="42.14349" lon="1.1734">
        <ele>1084.8</ele>
        <time>2019-02-12T13:32:25Z</time>
      </trkpt>
      <trkpt lat="42.14331" lon="1.1737">
        <ele>1088.3</ele>
        <time>2019-02-12T13:32:41Z</time>
      </trkpt>
      <trkpt lat="42.14331" lon="1.17388">
        <ele>1089.5</ele>
        <time>2019-02-12T13:32:49Z</time>
      </trkpt>
      <trkpt lat="42.14346" lon="1.17423">
        <ele>1094.5</ele>
        <time>2019-02-12T13:33:06Z</time>
      </trkpt>
      <trkpt lat="42.1435" lon="1.17461">
        <ele>1097.3</ele>
        <time>2019-02-12T13:33:22Z</time>
      </trkpt>
      <trkpt lat="42.14358" lon="1.17496">
        <ele>1099.4</ele>
        <time>2019-02-12T13:33:38Z</time>
      </trkpt>
      <trkpt lat="42.14386" lon="1.17545">
        <ele>1111.7</ele>
        <time>2019-02-12T13:34:04Z</time>
      </trkpt>
      <trkpt lat="42.14411" lon="1.17576">
        <ele>1119.3</ele>
        <time>2019-02-12T13:34:24Z</time>
      </trkpt>
      <trkpt lat="42.14437" lon="1.17602">
        <ele>1127.9</ele>
        <time>2019-02-12T13:34:42Z</time>
      </trkpt>
      <trkpt lat="42.14462" lon="1.1762">
        <ele>1137.1</ele>
        <time>2019-02-12T13:34:58Z</time>
      </trkpt>
      <trkpt lat="42.14493" lon="1.17621">
        <ele>1143.8</ele>
        <time>2019-02-12T13:35:16Z</time>
      </trkpt>
      <trkpt lat="42.14504" lon="1.17626">
        <ele>1145.1</ele>
        <time>2019-02-12T13:35:23Z</time>
      </trkpt>
      <trkpt lat="42.14517" lon="1.17621">
        <ele>1149.4</ele>
        <time>2019-02-12T13:35:31Z</time>
      </trkpt>
      <trkpt lat="42.14531" lon="1.17621">
        <ele>1152.5</ele>
        <time>2019-02-12T13:35:38Z</time>
      </trkpt>
      <trkpt lat="42.14548" lon="1.17633">
        <ele>1153.3</ele>
        <time>2019-02-12T13:35:49Z</time>
      </trkpt>
      <trkpt lat="42.14551" lon="1.17661">
        <ele>1148.2</ele>
        <time>2019-02-12T13:36:02Z</time>
      </trkpt>
      <trkpt lat="42.14556" lon="1.17678">
        <ele>1145.8</ele>
        <time>2019-02-12T13:36:09Z</time>
      </trkpt>
      <trkpt lat="42.14565" lon="1.17674">
        <ele>1148.2</ele>
        <time>2019-02-12T13:36:15Z</time>
      </trkpt>
      <trkpt lat="42.14567" lon="1.17651">
        <ele>1152.4</ele>
        <time>2019-02-12T13:36:24Z</time>
      </trkpt>
      <trkpt lat="42.14567" lon="1.17615">
        <ele>1158.8</ele>
        <time>2019-02-12T13:36:40Z</time>
      </trkpt>
      <trkpt lat="42.14564" lon="1.17596">
        <ele>1162.5</ele>
        <time>2019-02-12T13:36:48Z</time>
      </trkpt>
      <trkpt lat="42.14547" lon="1.17584">
        <ele>1163.7</ele>
        <time>2019-02-12T13:36:59Z</time>
      </trkpt>
      <trkpt lat="42.14511" lon="1.17585">
        <ele>1155.9</ele>
        <time>2019-02-12T13:37:19Z</time>
      </trkpt>
      <trkpt lat="42.14505" lon="1.17578">
        <ele>1156.1</ele>
        <time>2019-02-12T13:37:24Z</time>
      </trkpt>
      <trkpt lat="42.14522" lon="1.1757">
        <ele>1162.1</ele>
        <time>2019-02-12T13:37:34Z</time>
      </trkpt>
      <trkpt lat="42.14569" lon="1.17566">
        <ele>1169.1</ele>
        <time>2019-02-12T13:38:01Z</time>
      </trkpt>
      <trkpt lat="42.1459" lon="1.17576">
        <ele>1168.4</ele>
        <time>2019-02-12T13:38:14Z</time>
      </trkpt>
      <trkpt lat="42.146" lon="1.17603">
        <ele>1164.4</ele>
        <time>2019-02-12T13:38:27Z</time>
      </trkpt>
      <trkpt lat="42.1461" lon="1.17626">
        <ele>1161.4</ele>
        <time>2019-02-12T13:38:38Z</time>
      </trkpt>
      <trkpt lat="42.1462" lon="1.17646">
        <ele>1160.7</ele>
        <time>2019-02-12T13:38:48Z</time>
      </trkpt>
      <trkpt lat="42.14629" lon="1.17649">
        <ele>1161.3</ele>
        <time>2019-02-12T13:38:53Z</time>
      </trkpt>
      <trkpt lat="42.14638" lon="1.17674">
        <ele>1159.6</ele>
        <time>2019-02-12T13:39:05Z</time>
      </trkpt>
      <trkpt lat="42.14646" lon="1.17701">
        <ele>1157.6</ele>
        <time>2019-02-12T13:39:18Z</time>
      </trkpt>
      <trkpt lat="42.14642" lon="1.17726">
        <ele>1159.2</ele>
        <time>2019-02-12T13:39:28Z</time>
      </trkpt>
      <trkpt lat="42.14631" lon="1.17749">
        <ele>1162.3</ele>
        <time>2019-02-12T13:39:40Z</time>
      </trkpt>
      <trkpt lat="42.14617" lon="1.17761">
        <ele>1162.6</ele>
        <time>2019-02-12T13:39:50Z</time>
      </trkpt>
      <trkpt lat="42.14601" lon="1.17784">
        <ele>1164.3</ele>
        <time>2019-02-12T13:40:03Z</time>
      </trkpt>
      <trkpt lat="42.14586" lon="1.17818">
        <ele>1169.9</ele>
        <time>2019-02-12T13:40:20Z</time>
      </trkpt>
      <trkpt lat="42.14562" lon="1.1784">
        <ele>1173.9</ele>
        <time>2019-02-12T13:40:36Z</time>
      </trkpt>
      <trkpt lat="42.14532" lon="1.17845">
        <ele>1173.9</ele>
        <time>2019-02-12T13:40:54Z</time>
      </trkpt>
      <trkpt lat="42.14511" lon="1.17849">
        <ele>1173.9</ele>
        <time>2019-02-12T13:41:06Z</time>
      </trkpt>
      <trkpt lat="42.14506" lon="1.17851">
        <ele>1174.6</ele>
        <time>2019-02-12T13:41:09Z</time>
      </trkpt>
      <trkpt lat="42.14508" lon="1.17858">
        <ele>1177.6</ele>
        <time>2019-02-12T13:41:12Z</time>
      </trkpt>
      <trkpt lat="42.14532" lon="1.17872">
        <ele>1183.2</ele>
        <time>2019-02-12T13:41:27Z</time>
      </trkpt>
      <trkpt lat="42.14561" lon="1.17886">
        <ele>1187.5</ele>
        <time>2019-02-12T13:41:45Z</time>
      </trkpt>
      <trkpt lat="42.14587" lon="1.17891">
        <ele>1188.5</ele>
        <time>2019-02-12T13:42:00Z</time>
      </trkpt>
      <trkpt lat="42.14597" lon="1.17891">
        <ele>1188.4</ele>
        <time>2019-02-12T13:42:06Z</time>
      </trkpt>
      <trkpt lat="42.14617" lon="1.17908">
        <ele>1193</ele>
        <time>2019-02-12T13:42:19Z</time>
      </trkpt>
      <trkpt lat="42.14622" lon="1.17924">
        <ele>1197</ele>
        <time>2019-02-12T13:42:26Z</time>
      </trkpt>
      <trkpt lat="42.14612" lon="1.17935">
        <ele>1200.4</ele>
        <time>2019-02-12T13:42:34Z</time>
      </trkpt>
      <trkpt lat="42.14598" lon="1.17924">
        <ele>1198</ele>
        <time>2019-02-12T13:42:43Z</time>
      </trkpt>
      <trkpt lat="42.1458" lon="1.17937">
        <ele>1202.5</ele>
        <time>2019-02-12T13:42:54Z</time>
      </trkpt>
      <trkpt lat="42.14559" lon="1.17929">
        <ele>1201</ele>
        <time>2019-02-12T13:43:07Z</time>
      </trkpt>
      <trkpt lat="42.14548" lon="1.17934">
        <ele>1202.8</ele>
        <time>2019-02-12T13:43:14Z</time>
      </trkpt>
      <trkpt lat="42.14555" lon="1.17946">
        <ele>1206.4</ele>
        <time>2019-02-12T13:43:20Z</time>
      </trkpt>
      <trkpt lat="42.14581" lon="1.17958">
        <ele>1208.5</ele>
        <time>2019-02-12T13:43:36Z</time>
      </trkpt>
      <trkpt lat="42.14596" lon="1.1797">
        <ele>1211</ele>
        <time>2019-02-12T13:43:46Z</time>
      </trkpt>
      <trkpt lat="42.146" lon="1.17985">
        <ele>1215.2</ele>
        <time>2019-02-12T13:43:53Z</time>
      </trkpt>
      <trkpt lat="42.1459" lon="1.1801">
        <ele>1223</ele>
        <time>2019-02-12T13:44:05Z</time>
      </trkpt>
      <trkpt lat="42.14586" lon="1.1802">
        <ele>1226.3</ele>
        <time>2019-02-12T13:44:09Z</time>
      </trkpt>
      <trkpt lat="42.14588" lon="1.18078">
        <ele>1240.5</ele>
        <time>2019-02-12T13:44:34Z</time>
      </trkpt>
      <trkpt lat="42.14585" lon="1.18135">
        <ele>1252.3</ele>
        <time>2019-02-12T13:44:58Z</time>
      </trkpt>
      <trkpt lat="42.14579" lon="1.18179">
        <ele>1256.3</ele>
        <time>2019-02-12T13:45:17Z</time>
      </trkpt>
      <trkpt lat="42.14574" lon="1.18223">
        <ele>1258.2</ele>
        <time>2019-02-12T13:45:36Z</time>
      </trkpt>
      <trkpt lat="42.14575" lon="1.18245">
        <ele>1256.7</ele>
        <time>2019-02-12T13:45:45Z</time>
      </trkpt>
      <trkpt lat="42.14594" lon="1.18267">
        <ele>1252.7</ele>
        <time>2019-02-12T13:46:00Z</time>
      </trkpt>
      <trkpt lat="42.14603" lon="1.18285">
        <ele>1251.5</ele>
        <time>2019-02-12T13:46:09Z</time>
      </trkpt>
      <trkpt lat="42.14604" lon="1.1831">
        <ele>1251.1</ele>
        <time>2019-02-12T13:46:20Z</time>
      </trkpt>
      <trkpt lat="42.14605" lon="1.18311">
        <ele>1251.1</ele>
        <time>2019-02-12T13:46:20Z</time>
      </trkpt>
      <trkpt lat="42.14586" lon="1.18331">
        <ele>1250.9</ele>
        <time>2019-02-12T13:46:34Z</time>
      </trkpt>
      <trkpt lat="42.14564" lon="1.1835">
        <ele>1249.5</ele>
        <time>2019-02-12T13:46:49Z</time>
      </trkpt>
      <trkpt lat="42.1455" lon="1.18365">
        <ele>1247.7</ele>
        <time>2019-02-12T13:46:59Z</time>
      </trkpt>
      <trkpt lat="42.14541" lon="1.18382">
        <ele>1246.8</ele>
        <time>2019-02-12T13:47:08Z</time>
      </trkpt>
      <trkpt lat="42.14532" lon="1.18395">
        <ele>1248</ele>
        <time>2019-02-12T13:47:16Z</time>
      </trkpt>
      <trkpt lat="42.14519" lon="1.18397">
        <ele>1248.2</ele>
        <time>2019-02-12T13:47:23Z</time>
      </trkpt>
      <trkpt lat="42.145" lon="1.18387">
        <ele>1247</ele>
        <time>2019-02-12T13:47:35Z</time>
      </trkpt>
      <trkpt lat="42.14477" lon="1.18378">
        <ele>1245.5</ele>
        <time>2019-02-12T13:47:48Z</time>
      </trkpt>
      <trkpt lat="42.14461" lon="1.18373">
        <ele>1245.3</ele>
        <time>2019-02-12T13:47:58Z</time>
      </trkpt>
      <trkpt lat="42.14439" lon="1.18373">
        <ele>1243.6</ele>
        <time>2019-02-12T13:48:11Z</time>
      </trkpt>
      <trkpt lat="42.1442" lon="1.18372">
        <ele>1242.1</ele>
        <time>2019-02-12T13:48:21Z</time>
      </trkpt>
      <trkpt lat="42.14402" lon="1.18376">
        <ele>1240.5</ele>
        <time>2019-02-12T13:48:32Z</time>
      </trkpt>
      <trkpt lat="42.14372" lon="1.18382">
        <ele>1238.5</ele>
        <time>2019-02-12T13:48:49Z</time>
      </trkpt>
      <trkpt lat="42.14344" lon="1.18397">
        <ele>1236.7</ele>
        <time>2019-02-12T13:49:06Z</time>
      </trkpt>
      <trkpt lat="42.14321" lon="1.18416">
        <ele>1235.9</ele>
        <time>2019-02-12T13:49:22Z</time>
      </trkpt>
      <trkpt lat="42.14301" lon="1.18437">
        <ele>1235.7</ele>
        <time>2019-02-12T13:49:36Z</time>
      </trkpt>
      <trkpt lat="42.14282" lon="1.18459">
        <ele>1235.2</ele>
        <time>2019-02-12T13:49:51Z</time>
      </trkpt>
      <trkpt lat="42.14262" lon="1.18483">
        <ele>1232.7</ele>
        <time>2019-02-12T13:50:06Z</time>
      </trkpt>
      <trkpt lat="42.14241" lon="1.18499">
        <ele>1229.7</ele>
        <time>2019-02-12T13:50:20Z</time>
      </trkpt>
      <trkpt lat="42.14225" lon="1.18505">
        <ele>1227.3</ele>
        <time>2019-02-12T13:50:29Z</time>
      </trkpt>
      <trkpt lat="42.14207" lon="1.18517">
        <ele>1224.9</ele>
        <time>2019-02-12T13:50:41Z</time>
      </trkpt>
      <trkpt lat="42.14193" lon="1.18528">
        <ele>1223.4</ele>
        <time>2019-02-12T13:50:50Z</time>
      </trkpt>
      <trkpt lat="42.14176" lon="1.1856">
        <ele>1222.9</ele>
        <time>2019-02-12T13:51:07Z</time>
      </trkpt>
      <trkpt lat="42.14164" lon="1.18594">
        <ele>1223.4</ele>
        <time>2019-02-12T13:51:23Z</time>
      </trkpt>
      <trkpt lat="42.14154" lon="1.18634">
        <ele>1224.9</ele>
        <time>2019-02-12T13:51:40Z</time>
      </trkpt>
      <trkpt lat="42.14138" lon="1.18657">
        <ele>1224.7</ele>
        <time>2019-02-12T13:51:54Z</time>
      </trkpt>
      <trkpt lat="42.14119" lon="1.18685">
        <ele>1226.5</ele>
        <time>2019-02-12T13:52:10Z</time>
      </trkpt>
      <trkpt lat="42.14101" lon="1.18694">
        <ele>1228.6</ele>
        <time>2019-02-12T13:52:21Z</time>
      </trkpt>
      <trkpt lat="42.14077" lon="1.18711">
        <ele>1232.5</ele>
        <time>2019-02-12T13:52:37Z</time>
      </trkpt>
      <trkpt lat="42.14069" lon="1.18708">
        <ele>1232.4</ele>
        <time>2019-02-12T13:52:42Z</time>
      </trkpt>
      <trkpt lat="42.14052" lon="1.18715">
        <ele>1234.7</ele>
        <time>2019-02-12T13:52:52Z</time>
      </trkpt>
      <trkpt lat="42.14033" lon="1.18724">
        <ele>1237.1</ele>
        <time>2019-02-12T13:53:03Z</time>
      </trkpt>
      <trkpt lat="42.14011" lon="1.18735">
        <ele>1239.2</ele>
        <time>2019-02-12T13:53:17Z</time>
      </trkpt>
      <trkpt lat="42.14" lon="1.18741">
        <ele>1240.1</ele>
        <time>2019-02-12T13:53:23Z</time>
      </trkpt>
      <trkpt lat="42.13978" lon="1.18755">
        <ele>1242</ele>
        <time>2019-02-12T13:53:37Z</time>
      </trkpt>
      <trkpt lat="42.1396" lon="1.18768">
        <ele>1243.3</ele>
        <time>2019-02-12T13:53:49Z</time>
      </trkpt>
      <trkpt lat="42.13942" lon="1.18777">
        <ele>1242.4</ele>
        <time>2019-02-12T13:54:00Z</time>
      </trkpt>
      <trkpt lat="42.13928" lon="1.18793">
        <ele>1242.6</ele>
        <time>2019-02-12T13:54:10Z</time>
      </trkpt>
      <trkpt lat="42.13917" lon="1.18814">
        <ele>1244.2</ele>
        <time>2019-02-12T13:54:21Z</time>
      </trkpt>
      <trkpt lat="42.1391" lon="1.18835">
        <ele>1246.4</ele>
        <time>2019-02-12T13:54:31Z</time>
      </trkpt>
      <trkpt lat="42.13902" lon="1.18844">
        <ele>1246.7</ele>
        <time>2019-02-12T13:54:37Z</time>
      </trkpt>
      <trkpt lat="42.13885" lon="1.18851">
        <ele>1246.3</ele>
        <time>2019-02-12T13:54:47Z</time>
      </trkpt>
      <trkpt lat="42.13865" lon="1.18863">
        <ele>1245.9</ele>
        <time>2019-02-12T13:54:59Z</time>
      </trkpt>
      <trkpt lat="42.1385" lon="1.18874">
        <ele>1245.8</ele>
        <time>2019-02-12T13:55:09Z</time>
      </trkpt>
      <trkpt lat="42.13839" lon="1.18877">
        <ele>1245.1</ele>
        <time>2019-02-12T13:55:16Z</time>
      </trkpt>
      <trkpt lat="42.13827" lon="1.18883">
        <ele>1244.9</ele>
        <time>2019-02-12T13:55:23Z</time>
      </trkpt>
      <trkpt lat="42.13812" lon="1.18892">
        <ele>1244.6</ele>
        <time>2019-02-12T13:55:32Z</time>
      </trkpt>
      <trkpt lat="42.13799" lon="1.1889">
        <ele>1242.7</ele>
        <time>2019-02-12T13:55:40Z</time>
      </trkpt>
      <trkpt lat="42.1378" lon="1.18896">
        <ele>1242.4</ele>
        <time>2019-02-12T13:55:51Z</time>
      </trkpt>
      <trkpt lat="42.13763" lon="1.18907">
        <ele>1243.9</ele>
        <time>2019-02-12T13:56:02Z</time>
      </trkpt>
      <trkpt lat="42.13742" lon="1.1892">
        <ele>1245.5</ele>
        <time>2019-02-12T13:56:15Z</time>
      </trkpt>
      <trkpt lat="42.13732" lon="1.1892">
        <ele>1245.4</ele>
        <time>2019-02-12T13:56:21Z</time>
      </trkpt>
      <trkpt lat="42.13717" lon="1.18919">
        <ele>1244.3</ele>
        <time>2019-02-12T13:56:29Z</time>
      </trkpt>
      <trkpt lat="42.13692" lon="1.18916">
        <ele>1243.4</ele>
        <time>2019-02-12T13:56:43Z</time>
      </trkpt>
      <trkpt lat="42.13673" lon="1.18915">
        <ele>1243.4</ele>
        <time>2019-02-12T13:56:54Z</time>
      </trkpt>
      <trkpt lat="42.13651" lon="1.18909">
        <ele>1241.8</ele>
        <time>2019-02-12T13:57:07Z</time>
      </trkpt>
      <trkpt lat="42.13629" lon="1.18899">
        <ele>1239.4</ele>
        <time>2019-02-12T13:57:21Z</time>
      </trkpt>
      <trkpt lat="42.1362" lon="1.18895">
        <ele>1238.1</ele>
        <time>2019-02-12T13:57:26Z</time>
      </trkpt>
      <trkpt lat="42.1361" lon="1.18895">
        <ele>1237.6</ele>
        <time>2019-02-12T13:57:32Z</time>
      </trkpt>
      <trkpt lat="42.13595" lon="1.18895">
        <ele>1237</ele>
        <time>2019-02-12T13:57:40Z</time>
      </trkpt>
      <trkpt lat="42.13581" lon="1.18889">
        <ele>1235.1</ele>
        <time>2019-02-12T13:57:49Z</time>
      </trkpt>
      <trkpt lat="42.13568" lon="1.18888">
        <ele>1234.2</ele>
        <time>2019-02-12T13:57:56Z</time>
      </trkpt>
      <trkpt lat="42.13552" lon="1.18894">
        <ele>1234.9</ele>
        <time>2019-02-12T13:58:05Z</time>
      </trkpt>
      <trkpt lat="42.13539" lon="1.18899">
        <ele>1235.6</ele>
        <time>2019-02-12T13:58:13Z</time>
      </trkpt>
      <trkpt lat="42.13532" lon="1.18923">
        <ele>1240.4</ele>
        <time>2019-02-12T13:58:24Z</time>
      </trkpt>
      <trkpt lat="42.13524" lon="1.18928">
        <ele>1240.4</ele>
        <time>2019-02-12T13:58:29Z</time>
      </trkpt>
      <trkpt lat="42.13508" lon="1.18926">
        <ele>1238</ele>
        <time>2019-02-12T13:58:39Z</time>
      </trkpt>
      <trkpt lat="42.13496" lon="1.18926">
        <ele>1236.4</ele>
        <time>2019-02-12T13:58:45Z</time>
      </trkpt>
      <trkpt lat="42.13481" lon="1.18929">
        <ele>1235.3</ele>
        <time>2019-02-12T13:58:54Z</time>
      </trkpt>
      <trkpt lat="42.13467" lon="1.18936">
        <ele>1234.4</ele>
        <time>2019-02-12T13:59:02Z</time>
      </trkpt>
      <trkpt lat="42.13451" lon="1.18943">
        <ele>1234.1</ele>
        <time>2019-02-12T13:59:12Z</time>
      </trkpt>
      <trkpt lat="42.13437" lon="1.18952">
        <ele>1235.6</ele>
        <time>2019-02-12T13:59:21Z</time>
      </trkpt>
      <trkpt lat="42.13427" lon="1.18963">
        <ele>1238</ele>
        <time>2019-02-12T13:59:28Z</time>
      </trkpt>
      <trkpt lat="42.13411" lon="1.1897">
        <ele>1240.5</ele>
        <time>2019-02-12T13:59:38Z</time>
      </trkpt>
      <trkpt lat="42.13394" lon="1.18976">
        <ele>1242.9</ele>
        <time>2019-02-12T13:59:48Z</time>
      </trkpt>
      <trkpt lat="42.13385" lon="1.18979">
        <ele>1244</ele>
        <time>2019-02-12T13:59:53Z</time>
      </trkpt>
      <trkpt lat="42.13365" lon="1.18974">
        <ele>1241.7</ele>
        <time>2019-02-12T14:00:05Z</time>
      </trkpt>
      <trkpt lat="42.1335" lon="1.18977">
        <ele>1241.6</ele>
        <time>2019-02-12T14:00:14Z</time>
      </trkpt>
      <trkpt lat="42.13335" lon="1.18968">
        <ele>1237.3</ele>
        <time>2019-02-12T14:00:23Z</time>
      </trkpt>
      <trkpt lat="42.13321" lon="1.18948">
        <ele>1231.2</ele>
        <time>2019-02-12T14:00:35Z</time>
      </trkpt>
      <trkpt lat="42.13305" lon="1.18947">
        <ele>1229.5</ele>
        <time>2019-02-12T14:00:44Z</time>
      </trkpt>
      <trkpt lat="42.1329" lon="1.18947">
        <ele>1228.3</ele>
        <time>2019-02-12T14:00:52Z</time>
      </trkpt>
      <trkpt lat="42.13284" lon="1.18954">
        <ele>1229.5</ele>
        <time>2019-02-12T14:00:57Z</time>
      </trkpt>
      <trkpt lat="42.13274" lon="1.18971">
        <ele>1234.9</ele>
        <time>2019-02-12T14:01:06Z</time>
      </trkpt>
      <trkpt lat="42.1326" lon="1.1898">
        <ele>1238.4</ele>
        <time>2019-02-12T14:01:15Z</time>
      </trkpt>
      <trkpt lat="42.13247" lon="1.18989">
        <ele>1242</ele>
        <time>2019-02-12T14:01:23Z</time>
      </trkpt>
      <trkpt lat="42.13236" lon="1.18987">
        <ele>1241.6</ele>
        <time>2019-02-12T14:01:30Z</time>
      </trkpt>
      <trkpt lat="42.13221" lon="1.18985">
        <ele>1241.6</ele>
        <time>2019-02-12T14:01:38Z</time>
      </trkpt>
      <trkpt lat="42.13204" lon="1.18969">
        <ele>1236.5</ele>
        <time>2019-02-12T14:01:50Z</time>
      </trkpt>
      <trkpt lat="42.13194" lon="1.18971">
        <ele>1236.4</ele>
        <time>2019-02-12T14:01:56Z</time>
      </trkpt>
      <trkpt lat="42.1318" lon="1.18954">
        <ele>1229.9</ele>
        <time>2019-02-12T14:02:07Z</time>
      </trkpt>
      <trkpt lat="42.13167" lon="1.18945">
        <ele>1226.4</ele>
        <time>2019-02-12T14:02:15Z</time>
      </trkpt>
      <trkpt lat="42.13153" lon="1.18941">
        <ele>1224.3</ele>
        <time>2019-02-12T14:02:23Z</time>
      </trkpt>
      <trkpt lat="42.13141" lon="1.1894">
        <ele>1223.2</ele>
        <time>2019-02-12T14:02:30Z</time>
      </trkpt>
      <trkpt lat="42.13131" lon="1.18946">
        <ele>1224.1</ele>
        <time>2019-02-12T14:02:36Z</time>
      </trkpt>
      <trkpt lat="42.13117" lon="1.1896">
        <ele>1228</ele>
        <time>2019-02-12T14:02:46Z</time>
      </trkpt>
      <trkpt lat="42.13109" lon="1.18974">
        <ele>1233.5</ele>
        <time>2019-02-12T14:02:54Z</time>
      </trkpt>
      <trkpt lat="42.13101" lon="1.18981">
        <ele>1236.4</ele>
        <time>2019-02-12T14:02:59Z</time>
      </trkpt>
      <trkpt lat="42.13085" lon="1.18977">
        <ele>1235.9</ele>
        <time>2019-02-12T14:03:08Z</time>
      </trkpt>
      <trkpt lat="42.13074" lon="1.18973">
        <ele>1234.6</ele>
        <time>2019-02-12T14:03:15Z</time>
      </trkpt>
      <trkpt lat="42.13064" lon="1.18966">
        <ele>1232.6</ele>
        <time>2019-02-12T14:03:21Z</time>
      </trkpt>
      <trkpt lat="42.13054" lon="1.18961">
        <ele>1230.6</ele>
        <time>2019-02-12T14:03:28Z</time>
      </trkpt>
      <trkpt lat="42.13044" lon="1.18959">
        <ele>1230.4</ele>
        <time>2019-02-12T14:03:33Z</time>
      </trkpt>
      <trkpt lat="42.13033" lon="1.1896">
        <ele>1231.2</ele>
        <time>2019-02-12T14:03:40Z</time>
      </trkpt>
      <trkpt lat="42.13025" lon="1.18951">
        <ele>1228.6</ele>
        <time>2019-02-12T14:03:46Z</time>
      </trkpt>
      <trkpt lat="42.13018" lon="1.1894">
        <ele>1225.6</ele>
        <time>2019-02-12T14:03:52Z</time>
      </trkpt>
      <trkpt lat="42.13008" lon="1.18928">
        <ele>1222.9</ele>
        <time>2019-02-12T14:03:59Z</time>
      </trkpt>
      <trkpt lat="42.13001" lon="1.18933">
        <ele>1224.6</ele>
        <time>2019-02-12T14:04:04Z</time>
      </trkpt>
      <trkpt lat="42.12994" lon="1.18932">
        <ele>1224.9</ele>
        <time>2019-02-12T14:04:08Z</time>
      </trkpt>
      <trkpt lat="42.12987" lon="1.18923">
        <ele>1222.8</ele>
        <time>2019-02-12T14:04:13Z</time>
      </trkpt>
      <trkpt lat="42.12981" lon="1.18918">
        <ele>1222.1</ele>
        <time>2019-02-12T14:04:18Z</time>
      </trkpt>
      <trkpt lat="42.12976" lon="1.18922">
        <ele>1223.5</ele>
        <time>2019-02-12T14:04:21Z</time>
      </trkpt>
      <trkpt lat="42.12973" lon="1.18933">
        <ele>1226.7</ele>
        <time>2019-02-12T14:04:26Z</time>
      </trkpt>
      <trkpt lat="42.12963" lon="1.18936">
        <ele>1228</ele>
        <time>2019-02-12T14:04:31Z</time>
      </trkpt>
      <trkpt lat="42.12954" lon="1.1893">
        <ele>1227.8</ele>
        <time>2019-02-12T14:04:37Z</time>
      </trkpt>
      <trkpt lat="42.1295" lon="1.18922">
        <ele>1226.4</ele>
        <time>2019-02-12T14:04:41Z</time>
      </trkpt>
      <trkpt lat="42.12942" lon="1.1892">
        <ele>1227.8</ele>
        <time>2019-02-12T14:04:46Z</time>
      </trkpt>
      <trkpt lat="42.12936" lon="1.18921">
        <ele>1229.2</ele>
        <time>2019-02-12T14:04:49Z</time>
      </trkpt>
      <trkpt lat="42.12929" lon="1.18932">
        <ele>1232.4</ele>
        <time>2019-02-12T14:04:55Z</time>
      </trkpt>
      <trkpt lat="42.12923" lon="1.18933">
        <ele>1233.5</ele>
        <time>2019-02-12T14:04:59Z</time>
      </trkpt>
      <trkpt lat="42.12912" lon="1.18931">
        <ele>1235.2</ele>
        <time>2019-02-12T14:05:05Z</time>
      </trkpt>
      <trkpt lat="42.12901" lon="1.18926">
        <ele>1236.5</ele>
        <time>2019-02-12T14:05:12Z</time>
      </trkpt>
      <trkpt lat="42.12892" lon="1.18923">
        <ele>1237.9</ele>
        <time>2019-02-12T14:05:17Z</time>
      </trkpt>
      <trkpt lat="42.1288" lon="1.18924">
        <ele>1240.4</ele>
        <time>2019-02-12T14:05:24Z</time>
      </trkpt>
      <trkpt lat="42.12866" lon="1.1893">
        <ele>1244.4</ele>
        <time>2019-02-12T14:05:32Z</time>
      </trkpt>
      <trkpt lat="42.12857" lon="1.18933">
        <ele>1247.9</ele>
        <time>2019-02-12T14:05:38Z</time>
      </trkpt>
      <trkpt lat="42.12849" lon="1.18932">
        <ele>1250.3</ele>
        <time>2019-02-12T14:05:42Z</time>
      </trkpt>
      <trkpt lat="42.12839" lon="1.18936">
        <ele>1253.8</ele>
        <time>2019-02-12T14:05:48Z</time>
      </trkpt>
      <trkpt lat="42.12826" lon="1.18937">
        <ele>1258.2</ele>
        <time>2019-02-12T14:05:56Z</time>
      </trkpt>
      <trkpt lat="42.12819" lon="1.18937">
        <ele>1260.5</ele>
        <time>2019-02-12T14:06:00Z</time>
      </trkpt>
      <trkpt lat="42.1281" lon="1.18946">
        <ele>1264.1</ele>
        <time>2019-02-12T14:06:06Z</time>
      </trkpt>
      <trkpt lat="42.12803" lon="1.18946">
        <ele>1266.2</ele>
        <time>2019-02-12T14:06:10Z</time>
      </trkpt>
      <trkpt lat="42.12795" lon="1.18943">
        <ele>1268.7</ele>
        <time>2019-02-12T14:06:15Z</time>
      </trkpt>
      <trkpt lat="42.12795" lon="1.18928">
        <ele>1267.9</ele>
        <time>2019-02-12T14:06:21Z</time>
      </trkpt>
      <trkpt lat="42.12776" lon="1.18901">
        <ele>1266.4</ele>
        <time>2019-02-12T14:06:37Z</time>
      </trkpt>
      <trkpt lat="42.12743" lon="1.18855">
        <ele>1263.1</ele>
        <time>2019-02-12T14:07:04Z</time>
      </trkpt>
      <trkpt lat="42.12732" lon="1.18844">
        <ele>1262.6</ele>
        <time>2019-02-12T14:07:12Z</time>
      </trkpt>
      <trkpt lat="42.1272" lon="1.1884">
        <ele>1261.9</ele>
        <time>2019-02-12T14:07:19Z</time>
      </trkpt>
      <trkpt lat="42.12698" lon="1.18838">
        <ele>1259.3</ele>
        <time>2019-02-12T14:07:32Z</time>
      </trkpt>
      <trkpt lat="42.12672" lon="1.18841">
        <ele>1255.5</ele>
        <time>2019-02-12T14:07:46Z</time>
      </trkpt>
      <trkpt lat="42.12648" lon="1.18845">
        <ele>1251.8</ele>
        <time>2019-02-12T14:08:00Z</time>
      </trkpt>
      <trkpt lat="42.12625" lon="1.18848">
        <ele>1248.3</ele>
        <time>2019-02-12T14:08:14Z</time>
      </trkpt>
      <trkpt lat="42.12598" lon="1.18854">
        <ele>1242.3</ele>
        <time>2019-02-12T14:08:29Z</time>
      </trkpt>
      <trkpt lat="42.12584" lon="1.1885">
        <ele>1239.3</ele>
        <time>2019-02-12T14:08:37Z</time>
      </trkpt>
      <trkpt lat="42.1256" lon="1.18846">
        <ele>1233.8</ele>
        <time>2019-02-12T14:08:51Z</time>
      </trkpt>
      <trkpt lat="42.12538" lon="1.18841">
        <ele>1228.7</ele>
        <time>2019-02-12T14:09:04Z</time>
      </trkpt>
      <trkpt lat="42.1252" lon="1.18837">
        <ele>1223.4</ele>
        <time>2019-02-12T14:09:14Z</time>
      </trkpt>
      <trkpt lat="42.12504" lon="1.18835">
        <ele>1218.9</ele>
        <time>2019-02-12T14:09:24Z</time>
      </trkpt>
      <trkpt lat="42.125" lon="1.18832">
        <ele>1217.7</ele>
        <time>2019-02-12T14:09:26Z</time>
      </trkpt>
      <trkpt lat="42.12505" lon="1.18825">
        <ele>1218.9</ele>
        <time>2019-02-12T14:09:31Z</time>
      </trkpt>
      <trkpt lat="42.12531" lon="1.18813">
        <ele>1226.3</ele>
        <time>2019-02-12T14:09:47Z</time>
      </trkpt>
      <trkpt lat="42.12547" lon="1.18809">
        <ele>1230.3</ele>
        <time>2019-02-12T14:09:56Z</time>
      </trkpt>
      <trkpt lat="42.12564" lon="1.18812">
        <ele>1234.1</ele>
        <time>2019-02-12T14:10:06Z</time>
      </trkpt>
      <trkpt lat="42.1258" lon="1.18811">
        <ele>1237.6</ele>
        <time>2019-02-12T14:10:15Z</time>
      </trkpt>
      <trkpt lat="42.12587" lon="1.18806">
        <ele>1239</ele>
        <time>2019-02-12T14:10:19Z</time>
      </trkpt>
      <trkpt lat="42.12582" lon="1.18795">
        <ele>1237.9</ele>
        <time>2019-02-12T14:10:25Z</time>
      </trkpt>
      <trkpt lat="42.12567" lon="1.18782">
        <ele>1235.2</ele>
        <time>2019-02-12T14:10:35Z</time>
      </trkpt>
      <trkpt lat="42.12539" lon="1.18773">
        <ele>1229.7</ele>
        <time>2019-02-12T14:10:52Z</time>
      </trkpt>
      <trkpt lat="42.12508" lon="1.18755">
        <ele>1220.8</ele>
        <time>2019-02-12T14:11:11Z</time>
      </trkpt>
      <trkpt lat="42.12486" lon="1.18735">
        <ele>1213.2</ele>
        <time>2019-02-12T14:11:26Z</time>
      </trkpt>
      <trkpt lat="42.12467" lon="1.18706">
        <ele>1205.3</ele>
        <time>2019-02-12T14:11:42Z</time>
      </trkpt>
      <trkpt lat="42.12458" lon="1.18688">
        <ele>1201</ele>
        <time>2019-02-12T14:11:51Z</time>
      </trkpt>
      <trkpt lat="42.12451" lon="1.18676">
        <ele>1197.9</ele>
        <time>2019-02-12T14:11:58Z</time>
      </trkpt>
      <trkpt lat="42.12441" lon="1.18659">
        <ele>1192.9</ele>
        <time>2019-02-12T14:12:07Z</time>
      </trkpt>
      <trkpt lat="42.12436" lon="1.18655">
        <ele>1190.6</ele>
        <time>2019-02-12T14:12:11Z</time>
      </trkpt>
      <trkpt lat="42.12431" lon="1.18655">
        <ele>1188.6</ele>
        <time>2019-02-12T14:12:14Z</time>
      </trkpt>
      <trkpt lat="42.12431" lon="1.18667">
        <ele>1189.3</ele>
        <time>2019-02-12T14:12:19Z</time>
      </trkpt>
      <trkpt lat="42.12438" lon="1.18707">
        <ele>1194.2</ele>
        <time>2019-02-12T14:12:36Z</time>
      </trkpt>
      <trkpt lat="42.1244" lon="1.18729">
        <ele>1196.7</ele>
        <time>2019-02-12T14:12:46Z</time>
      </trkpt>
      <trkpt lat="42.12441" lon="1.18747">
        <ele>1198.5</ele>
        <time>2019-02-12T14:12:53Z</time>
      </trkpt>
      <trkpt lat="42.12434" lon="1.18752">
        <ele>1196.7</ele>
        <time>2019-02-12T14:12:58Z</time>
      </trkpt>
      <trkpt lat="42.12415" lon="1.1875">
        <ele>1191.4</ele>
        <time>2019-02-12T14:13:09Z</time>
      </trkpt>
      <trkpt lat="42.12377" lon="1.18753">
        <ele>1181.1</ele>
        <time>2019-02-12T14:13:31Z</time>
      </trkpt>
      <trkpt lat="42.12348" lon="1.1875">
        <ele>1175.7</ele>
        <time>2019-02-12T14:13:47Z</time>
      </trkpt>
      <trkpt lat="42.12326" lon="1.1875">
        <ele>1172.2</ele>
        <time>2019-02-12T14:14:00Z</time>
      </trkpt>
      <trkpt lat="42.12321" lon="1.18763">
        <ele>1174.4</ele>
        <time>2019-02-12T14:14:05Z</time>
      </trkpt>
      <trkpt lat="42.1233" lon="1.18787">
        <ele>1181.8</ele>
        <time>2019-02-12T14:14:17Z</time>
      </trkpt>
      <trkpt lat="42.12354" lon="1.18818">
        <ele>1183.4</ele>
        <time>2019-02-12T14:14:36Z</time>
      </trkpt>
      <trkpt lat="42.12367" lon="1.18881">
        <ele>1179.1</ele>
        <time>2019-02-12T14:15:03Z</time>
      </trkpt>
      <trkpt lat="42.12371" lon="1.18955">
        <ele>1170</ele>
        <time>2019-02-12T14:15:35Z</time>
      </trkpt>
      <trkpt lat="42.12368" lon="1.18995">
        <ele>1166</ele>
        <time>2019-02-12T14:15:52Z</time>
      </trkpt>
      <trkpt lat="42.12361" lon="1.18991">
        <ele>1163.2</ele>
        <time>2019-02-12T14:15:57Z</time>
      </trkpt>
      <trkpt lat="42.12351" lon="1.18973">
        <ele>1161</ele>
        <time>2019-02-12T14:16:06Z</time>
      </trkpt>
      <trkpt lat="42.12344" lon="1.18934">
        <ele>1163.9</ele>
        <time>2019-02-12T14:16:23Z</time>
      </trkpt>
      <trkpt lat="42.12337" lon="1.189">
        <ele>1167.4</ele>
        <time>2019-02-12T14:16:38Z</time>
      </trkpt>
      <trkpt lat="42.12328" lon="1.18889">
        <ele>1166.6</ele>
        <time>2019-02-12T14:16:45Z</time>
      </trkpt>
      <trkpt lat="42.12318" lon="1.18891">
        <ele>1163.2</ele>
        <time>2019-02-12T14:16:51Z</time>
      </trkpt>
      <trkpt lat="42.12316" lon="1.18917">
        <ele>1157.7</ele>
        <time>2019-02-12T14:17:02Z</time>
      </trkpt>
      <trkpt lat="42.12315" lon="1.18947">
        <ele>1151.6</ele>
        <time>2019-02-12T14:17:15Z</time>
      </trkpt>
      <trkpt lat="42.1231" lon="1.18976">
        <ele>1144.4</ele>
        <time>2019-02-12T14:17:27Z</time>
      </trkpt>
      <trkpt lat="42.12306" lon="1.18998">
        <ele>1138.9</ele>
        <time>2019-02-12T14:17:37Z</time>
      </trkpt>
      <trkpt lat="42.12305" lon="1.19022">
        <ele>1134.2</ele>
        <time>2019-02-12T14:17:47Z</time>
      </trkpt>
      <trkpt lat="42.12306" lon="1.19053">
        <ele>1130.7</ele>
        <time>2019-02-12T14:18:00Z</time>
      </trkpt>
      <trkpt lat="42.12302" lon="1.19071">
        <ele>1128.2</ele>
        <time>2019-02-12T14:18:08Z</time>
      </trkpt>
      <trkpt lat="42.12299" lon="1.19089">
        <ele>1126.1</ele>
        <time>2019-02-12T14:18:16Z</time>
      </trkpt>
      <trkpt lat="42.12295" lon="1.19114">
        <ele>1123.9</ele>
        <time>2019-02-12T14:18:27Z</time>
      </trkpt>
      <trkpt lat="42.12284" lon="1.19131">
        <ele>1119.5</ele>
        <time>2019-02-12T14:18:37Z</time>
      </trkpt>
      <trkpt lat="42.12268" lon="1.19144">
        <ele>1114.8</ele>
        <time>2019-02-12T14:18:47Z</time>
      </trkpt>
      <trkpt lat="42.12244" lon="1.19138">
        <ele>1106.8</ele>
        <time>2019-02-12T14:19:01Z</time>
      </trkpt>
      <trkpt lat="42.12227" lon="1.19135">
        <ele>1101.2</ele>
        <time>2019-02-12T14:19:11Z</time>
      </trkpt>
      <trkpt lat="42.12219" lon="1.19131">
        <ele>1098.1</ele>
        <time>2019-02-12T14:19:16Z</time>
      </trkpt>
      <trkpt lat="42.12218" lon="1.19117">
        <ele>1096.9</ele>
        <time>2019-02-12T14:19:22Z</time>
      </trkpt>
      <trkpt lat="42.1222" lon="1.19103">
        <ele>1097</ele>
        <time>2019-02-12T14:19:28Z</time>
      </trkpt>
      <trkpt lat="42.12213" lon="1.19097">
        <ele>1094.4</ele>
        <time>2019-02-12T14:19:33Z</time>
      </trkpt>
      <trkpt lat="42.12193" lon="1.19111">
        <ele>1088.8</ele>
        <time>2019-02-12T14:19:46Z</time>
      </trkpt>
      <trkpt lat="42.12161" lon="1.19139">
        <ele>1081.2</ele>
        <time>2019-02-12T14:20:08Z</time>
      </trkpt>
      <trkpt lat="42.12149" lon="1.19148">
        <ele>1078.6</ele>
        <time>2019-02-12T14:20:15Z</time>
      </trkpt>
      <trkpt lat="42.12129" lon="1.19169">
        <ele>1075</ele>
        <time>2019-02-12T14:20:30Z</time>
      </trkpt>
      <trkpt lat="42.12108" lon="1.19191">
        <ele>1071.5</ele>
        <time>2019-02-12T14:20:45Z</time>
      </trkpt>
      <trkpt lat="42.12103" lon="1.19206">
        <ele>1071.3</ele>
        <time>2019-02-12T14:20:52Z</time>
      </trkpt>
      <trkpt lat="42.12099" lon="1.19228">
        <ele>1069.6</ele>
        <time>2019-02-12T14:21:02Z</time>
      </trkpt>
      <trkpt lat="42.12095" lon="1.19235">
        <ele>1068</ele>
        <time>2019-02-12T14:21:06Z</time>
      </trkpt>
      <trkpt lat="42.12081" lon="1.19222">
        <ele>1064.7</ele>
        <time>2019-02-12T14:21:15Z</time>
      </trkpt>
      <trkpt lat="42.12065" lon="1.19208">
        <ele>1060.9</ele>
        <time>2019-02-12T14:21:26Z</time>
      </trkpt>
      <trkpt lat="42.12051" lon="1.1918">
        <ele>1055</ele>
        <time>2019-02-12T14:21:40Z</time>
      </trkpt>
      <trkpt lat="42.12033" lon="1.19172">
        <ele>1049.5</ele>
        <time>2019-02-12T14:21:51Z</time>
      </trkpt>
      <trkpt lat="42.12021" lon="1.19143">
        <ele>1044.4</ele>
        <time>2019-02-12T14:22:05Z</time>
      </trkpt>
      <trkpt lat="42.12018" lon="1.19113">
        <ele>1041.7</ele>
        <time>2019-02-12T14:22:18Z</time>
      </trkpt>
      <trkpt lat="42.12013" lon="1.19099">
        <ele>1039.7</ele>
        <time>2019-02-12T14:22:25Z</time>
      </trkpt>
      <trkpt lat="42.12021" lon="1.19071">
        <ele>1040.7</ele>
        <time>2019-02-12T14:22:38Z</time>
      </trkpt>
      <trkpt lat="42.12029" lon="1.19049">
        <ele>1041.9</ele>
        <time>2019-02-12T14:22:48Z</time>
      </trkpt>
      <trkpt lat="42.12038" lon="1.19034">
        <ele>1045.4</ele>
        <time>2019-02-12T14:22:56Z</time>
      </trkpt>
      <trkpt lat="42.12038" lon="1.19024">
        <ele>1046.9</ele>
        <time>2019-02-12T14:23:00Z</time>
      </trkpt>
      <trkpt lat="42.12028" lon="1.19023">
        <ele>1044.6</ele>
        <time>2019-02-12T14:23:05Z</time>
      </trkpt>
      <trkpt lat="42.12014" lon="1.1903">
        <ele>1039.4</ele>
        <time>2019-02-12T14:23:14Z</time>
      </trkpt>
      <trkpt lat="42.11993" lon="1.19029">
        <ele>1033.8</ele>
        <time>2019-02-12T14:23:27Z</time>
      </trkpt>
      <trkpt lat="42.11981" lon="1.19029">
        <ele>1030.5</ele>
        <time>2019-02-12T14:23:33Z</time>
      </trkpt>
      <trkpt lat="42.11958" lon="1.19021">
        <ele>1025.2</ele>
        <time>2019-02-12T14:23:47Z</time>
      </trkpt>
      <trkpt lat="42.1195" lon="1.1901">
        <ele>1024.7</ele>
        <time>2019-02-12T14:23:53Z</time>
      </trkpt>
      <trkpt lat="42.1195" lon="1.18996">
        <ele>1026</ele>
        <time>2019-02-12T14:23:59Z</time>
      </trkpt>
      <trkpt lat="42.1193" lon="1.18992">
        <ele>1021.3</ele>
        <time>2019-02-12T14:24:11Z</time>
      </trkpt>
      <trkpt lat="42.1191" lon="1.18987">
        <ele>1016.7</ele>
        <time>2019-02-12T14:24:22Z</time>
      </trkpt>
      <trkpt lat="42.1189" lon="1.18971">
        <ele>1012</ele>
        <time>2019-02-12T14:24:36Z</time>
      </trkpt>
      <trkpt lat="42.11873" lon="1.18948">
        <ele>1008.8</ele>
        <time>2019-02-12T14:24:50Z</time>
      </trkpt>
      <trkpt lat="42.11866" lon="1.18947">
        <ele>1009.5</ele>
        <time>2019-02-12T14:24:54Z</time>
      </trkpt>
      <trkpt lat="42.11863" lon="1.18956">
        <ele>1009.5</ele>
        <time>2019-02-12T14:24:58Z</time>
      </trkpt>
      <trkpt lat="42.11872" lon="1.18989">
        <ele>1008.3</ele>
        <time>2019-02-12T14:25:13Z</time>
      </trkpt>
      <trkpt lat="42.11878" lon="1.19008">
        <ele>1008</ele>
        <time>2019-02-12T14:25:22Z</time>
      </trkpt>
      <trkpt lat="42.11862" lon="1.1903">
        <ele>1011.4</ele>
        <time>2019-02-12T14:25:35Z</time>
      </trkpt>
      <trkpt lat="42.11857" lon="1.19049">
        <ele>1014.4</ele>
        <time>2019-02-12T14:25:43Z</time>
      </trkpt>
      <trkpt lat="42.11864" lon="1.19089">
        <ele>1016.2</ele>
        <time>2019-02-12T14:26:00Z</time>
      </trkpt>
      <trkpt lat="42.11865" lon="1.19111">
        <ele>1018</ele>
        <time>2019-02-12T14:26:10Z</time>
      </trkpt>
      <trkpt lat="42.11863" lon="1.19132">
        <ele>1022.2</ele>
        <time>2019-02-12T14:26:19Z</time>
      </trkpt>
      <trkpt lat="42.11866" lon="1.19152">
        <ele>1025.1</ele>
        <time>2019-02-12T14:26:27Z</time>
      </trkpt>
      <trkpt lat="42.11872" lon="1.19172">
        <ele>1025.6</ele>
        <time>2019-02-12T14:26:37Z</time>
      </trkpt>
      <trkpt lat="42.11873" lon="1.19187">
        <ele>1028.3</ele>
        <time>2019-02-12T14:26:43Z</time>
      </trkpt>
      <trkpt lat="42.11865" lon="1.19189">
        <ele>1033.5</ele>
        <time>2019-02-12T14:26:47Z</time>
      </trkpt>
      <trkpt lat="42.11855" lon="1.19169">
        <ele>1035.5</ele>
        <time>2019-02-12T14:26:58Z</time>
      </trkpt>
      <trkpt lat="42.11842" lon="1.19156">
        <ele>1040.3</ele>
        <time>2019-02-12T14:27:07Z</time>
      </trkpt>
      <trkpt lat="42.11833" lon="1.19134">
        <ele>1039.6</ele>
        <time>2019-02-12T14:27:18Z</time>
      </trkpt>
      <trkpt lat="42.11822" lon="1.19096">
        <ele>1037.4</ele>
        <time>2019-02-12T14:27:35Z</time>
      </trkpt>
      <trkpt lat="42.11811" lon="1.19091">
        <ele>1041.5</ele>
        <time>2019-02-12T14:27:42Z</time>
      </trkpt>
      <trkpt lat="42.1179" lon="1.19064">
        <ele>1044.4</ele>
        <time>2019-02-12T14:27:58Z</time>
      </trkpt>
      <trkpt lat="42.11769" lon="1.19055">
        <ele>1054.7</ele>
        <time>2019-02-12T14:28:11Z</time>
      </trkpt>
      <trkpt lat="42.11764" lon="1.19047">
        <ele>1054.9</ele>
        <time>2019-02-12T14:28:15Z</time>
      </trkpt>
      <trkpt lat="42.11758" lon="1.19016">
        <ele>1051.5</ele>
        <time>2019-02-12T14:28:29Z</time>
      </trkpt>
      <trkpt lat="42.11743" lon="1.18996">
        <ele>1055.5</ele>
        <time>2019-02-12T14:28:41Z</time>
      </trkpt>
      <trkpt lat="42.11727" lon="1.18969">
        <ele>1059.9</ele>
        <time>2019-02-12T14:28:56Z</time>
      </trkpt>
      <trkpt lat="42.11717" lon="1.18955">
        <ele>1062.5</ele>
        <time>2019-02-12T14:29:04Z</time>
      </trkpt>
      <trkpt lat="42.11703" lon="1.18946">
        <ele>1069.8</ele>
        <time>2019-02-12T14:29:12Z</time>
      </trkpt>
      <trkpt lat="42.11698" lon="1.18932">
        <ele>1070.1</ele>
        <time>2019-02-12T14:29:19Z</time>
      </trkpt>
      <trkpt lat="42.11703" lon="1.18899">
        <ele>1058.6</ele>
        <time>2019-02-12T14:29:33Z</time>
      </trkpt>
      <trkpt lat="42.11707" lon="1.18882">
        <ele>1051.6</ele>
        <time>2019-02-12T14:29:41Z</time>
      </trkpt>
      <trkpt lat="42.11705" lon="1.18856">
        <ele>1044.1</ele>
        <time>2019-02-12T14:29:52Z</time>
      </trkpt>
      <trkpt lat="42.11679" lon="1.18843">
        <ele>1057.6</ele>
        <time>2019-02-12T14:30:07Z</time>
      </trkpt>
      <trkpt lat="42.11647" lon="1.18827">
        <ele>1075.7</ele>
        <time>2019-02-12T14:30:27Z</time>
      </trkpt>
      <trkpt lat="42.11629" lon="1.18802">
        <ele>1079</ele>
        <time>2019-02-12T14:30:42Z</time>
      </trkpt>
      <trkpt lat="42.1162" lon="1.18778">
        <ele>1073.9</ele>
        <time>2019-02-12T14:30:53Z</time>
      </trkpt>
      <trkpt lat="42.11614" lon="1.18745">
        <ele>1062.8</ele>
        <time>2019-02-12T14:31:08Z</time>
      </trkpt>
      <trkpt lat="42.11609" lon="1.18717">
        <ele>1053.9</ele>
        <time>2019-02-12T14:31:20Z</time>
      </trkpt>
      <trkpt lat="42.11599" lon="1.18706">
        <ele>1053</ele>
        <time>2019-02-12T14:31:27Z</time>
      </trkpt>
      <trkpt lat="42.1158" lon="1.18695">
        <ele>1055.5</ele>
        <time>2019-02-12T14:31:39Z</time>
      </trkpt>
      <trkpt lat="42.11574" lon="1.18684">
        <ele>1053.3</ele>
        <time>2019-02-12T14:31:45Z</time>
      </trkpt>
      <trkpt lat="42.11556" lon="1.18684">
        <ele>1060.4</ele>
        <time>2019-02-12T14:31:55Z</time>
      </trkpt>
      <trkpt lat="42.11525" lon="1.18699">
        <ele>1075</ele>
        <time>2019-02-12T14:32:14Z</time>
      </trkpt>
      <trkpt lat="42.11509" lon="1.18697">
        <ele>1078.9</ele>
        <time>2019-02-12T14:32:23Z</time>
      </trkpt>
      <trkpt lat="42.11489" lon="1.18685">
        <ele>1080.7</ele>
        <time>2019-02-12T14:32:36Z</time>
      </trkpt>
      <trkpt lat="42.1148" lon="1.18674">
        <ele>1080.1</ele>
        <time>2019-02-12T14:32:43Z</time>
      </trkpt>
      <trkpt lat="42.11477" lon="1.18655">
        <ele>1074.6</ele>
        <time>2019-02-12T14:32:51Z</time>
      </trkpt>
      <trkpt lat="42.11463" lon="1.1864">
        <ele>1073.7</ele>
        <time>2019-02-12T14:33:01Z</time>
      </trkpt>
      <trkpt lat="42.11448" lon="1.18626">
        <ele>1073.2</ele>
        <time>2019-02-12T14:33:11Z</time>
      </trkpt>
      <trkpt lat="42.11426" lon="1.1863">
        <ele>1080.5</ele>
        <time>2019-02-12T14:33:24Z</time>
      </trkpt>
      <trkpt lat="42.11391" lon="1.18638">
        <ele>1092.3</ele>
        <time>2019-02-12T14:33:45Z</time>
      </trkpt>
      <trkpt lat="42.11373" lon="1.18638">
        <ele>1097.4</ele>
        <time>2019-02-12T14:33:55Z</time>
      </trkpt>
      <trkpt lat="42.11345" lon="1.18617">
        <ele>1098.9</ele>
        <time>2019-02-12T14:34:13Z</time>
      </trkpt>
      <trkpt lat="42.1131" lon="1.18594">
        <ele>1102.8</ele>
        <time>2019-02-12T14:34:35Z</time>
      </trkpt>
      <trkpt lat="42.1128" lon="1.18566">
        <ele>1097.1</ele>
        <time>2019-02-12T14:34:56Z</time>
      </trkpt>
      <trkpt lat="42.11261" lon="1.18546">
        <ele>1084.1</ele>
        <time>2019-02-12T14:35:10Z</time>
      </trkpt>
      <trkpt lat="42.11239" lon="1.18543">
        <ele>1075.9</ele>
        <time>2019-02-12T14:35:23Z</time>
      </trkpt>
      <trkpt lat="42.11224" lon="1.18551">
        <ele>1074.3</ele>
        <time>2019-02-12T14:35:32Z</time>
      </trkpt>
      <trkpt lat="42.11208" lon="1.18574">
        <ele>1078.3</ele>
        <time>2019-02-12T14:35:45Z</time>
      </trkpt>
      <trkpt lat="42.11196" lon="1.18598">
        <ele>1087.2</ele>
        <time>2019-02-12T14:35:58Z</time>
      </trkpt>
      <trkpt lat="42.11174" lon="1.18617">
        <ele>1092.2</ele>
        <time>2019-02-12T14:36:12Z</time>
      </trkpt>
      <trkpt lat="42.1115" lon="1.18647">
        <ele>1102.1</ele>
        <time>2019-02-12T14:36:31Z</time>
      </trkpt>
      <trkpt lat="42.11125" lon="1.18659">
        <ele>1103.8</ele>
        <time>2019-02-12T14:36:46Z</time>
      </trkpt>
      <trkpt lat="42.11093" lon="1.18679">
        <ele>1103.2</ele>
        <time>2019-02-12T14:37:06Z</time>
      </trkpt>
      <trkpt lat="42.11085" lon="1.1868">
        <ele>1100.9</ele>
        <time>2019-02-12T14:37:11Z</time>
      </trkpt>
      <trkpt lat="42.11072" lon="1.18698">
        <ele>1102.1</ele>
        <time>2019-02-12T14:37:22Z</time>
      </trkpt>
      <trkpt lat="42.11063" lon="1.18716">
        <ele>1102.1</ele>
        <time>2019-02-12T14:37:31Z</time>
      </trkpt>
      <trkpt lat="42.11069" lon="1.18738">
        <ele>1107.3</ele>
        <time>2019-02-12T14:37:41Z</time>
      </trkpt>
      <trkpt lat="42.11076" lon="1.18773">
        <ele>1114.8</ele>
        <time>2019-02-12T14:37:56Z</time>
      </trkpt>
      <trkpt lat="42.11063" lon="1.188">
        <ele>1112.3</ele>
        <time>2019-02-12T14:38:10Z</time>
      </trkpt>
      <trkpt lat="42.11063" lon="1.18814">
        <ele>1115.4</ele>
        <time>2019-02-12T14:38:16Z</time>
      </trkpt>
      <trkpt lat="42.11063" lon="1.18836">
        <ele>1120.2</ele>
        <time>2019-02-12T14:38:25Z</time>
      </trkpt>
      <trkpt lat="42.11068" lon="1.18863">
        <ele>1128</ele>
        <time>2019-02-12T14:38:37Z</time>
      </trkpt>
      <trkpt lat="42.11074" lon="1.18889">
        <ele>1135.8</ele>
        <time>2019-02-12T14:38:49Z</time>
      </trkpt>
      <trkpt lat="42.11069" lon="1.18902">
        <ele>1136.2</ele>
        <time>2019-02-12T14:38:55Z</time>
      </trkpt>
      <trkpt lat="42.11064" lon="1.18934">
        <ele>1140.5</ele>
        <time>2019-02-12T14:39:09Z</time>
      </trkpt>
      <trkpt lat="42.11065" lon="1.18943">
        <ele>1142.6</ele>
        <time>2019-02-12T14:39:12Z</time>
      </trkpt>
      <trkpt lat="42.11073" lon="1.18945">
        <ele>1145.2</ele>
        <time>2019-02-12T14:39:17Z</time>
      </trkpt>
      <trkpt lat="42.11078" lon="1.1893">
        <ele>1144.5</ele>
        <time>2019-02-12T14:39:24Z</time>
      </trkpt>
      <trkpt lat="42.11094" lon="1.18905">
        <ele>1146.2</ele>
        <time>2019-02-12T14:39:37Z</time>
      </trkpt>
      <trkpt lat="42.11153" lon="1.18821">
        <ele>1156.8</ele>
        <time>2019-02-12T14:40:27Z</time>
      </trkpt>
      <trkpt lat="42.11178" lon="1.1878">
        <ele>1157</ele>
        <time>2019-02-12T14:40:49Z</time>
      </trkpt>
      <trkpt lat="42.11185" lon="1.18767">
        <ele>1154.7</ele>
        <time>2019-02-12T14:40:56Z</time>
      </trkpt>
      <trkpt lat="42.11192" lon="1.18742">
        <ele>1148.4</ele>
        <time>2019-02-12T14:41:07Z</time>
      </trkpt>
      <trkpt lat="42.11197" lon="1.18735">
        <ele>1146.9</ele>
        <time>2019-02-12T14:41:11Z</time>
      </trkpt>
      <trkpt lat="42.11205" lon="1.18736">
        <ele>1149.2</ele>
        <time>2019-02-12T14:41:16Z</time>
      </trkpt>
      <trkpt lat="42.1121" lon="1.18753">
        <ele>1156</ele>
        <time>2019-02-12T14:41:24Z</time>
      </trkpt>
      <trkpt lat="42.11213" lon="1.1877">
        <ele>1162.4</ele>
        <time>2019-02-12T14:41:31Z</time>
      </trkpt>
      <trkpt lat="42.1122" lon="1.18789">
        <ele>1170.1</ele>
        <time>2019-02-12T14:41:40Z</time>
      </trkpt>
      <trkpt lat="42.11223" lon="1.18812">
        <ele>1174</ele>
        <time>2019-02-12T14:41:50Z</time>
      </trkpt>
      <trkpt lat="42.11224" lon="1.18833">
        <ele>1177</ele>
        <time>2019-02-12T14:41:59Z</time>
      </trkpt>
      <trkpt lat="42.11222" lon="1.18862">
        <ele>1180.5</ele>
        <time>2019-02-12T14:42:12Z</time>
      </trkpt>
      <trkpt lat="42.1122" lon="1.18889">
        <ele>1182.6</ele>
        <time>2019-02-12T14:42:23Z</time>
      </trkpt>
      <trkpt lat="42.11218" lon="1.18916">
        <ele>1183.8</ele>
        <time>2019-02-12T14:42:35Z</time>
      </trkpt>
      <trkpt lat="42.11217" lon="1.18943">
        <ele>1185.4</ele>
        <time>2019-02-12T14:42:46Z</time>
      </trkpt>
      <trkpt lat="42.11228" lon="1.18968">
        <ele>1188.7</ele>
        <time>2019-02-12T14:42:58Z</time>
      </trkpt>
      <trkpt lat="42.11253" lon="1.18985">
        <ele>1193.6</ele>
        <time>2019-02-12T14:43:14Z</time>
      </trkpt>
      <trkpt lat="42.11306" lon="1.19">
        <ele>1202</ele>
        <time>2019-02-12T14:43:45Z</time>
      </trkpt>
      <trkpt lat="42.11333" lon="1.19008">
        <ele>1205.4</ele>
        <time>2019-02-12T14:44:01Z</time>
      </trkpt>
      <trkpt lat="42.11364" lon="1.1902">
        <ele>1209.9</ele>
        <time>2019-02-12T14:44:19Z</time>
      </trkpt>
      <trkpt lat="42.11393" lon="1.19036">
        <ele>1213</ele>
        <time>2019-02-12T14:44:37Z</time>
      </trkpt>
      <trkpt lat="42.11409" lon="1.1906">
        <ele>1211.1</ele>
        <time>2019-02-12T14:44:51Z</time>
      </trkpt>
      <trkpt lat="42.11422" lon="1.19097">
        <ele>1207.1</ele>
        <time>2019-02-12T14:45:08Z</time>
      </trkpt>
      <trkpt lat="42.11437" lon="1.19129">
        <ele>1206.2</ele>
        <time>2019-02-12T14:45:24Z</time>
      </trkpt>
      <trkpt lat="42.1145" lon="1.19158">
        <ele>1206.6</ele>
        <time>2019-02-12T14:45:39Z</time>
      </trkpt>
      <trkpt lat="42.11454" lon="1.1919">
        <ele>1204.5</ele>
        <time>2019-02-12T14:45:53Z</time>
      </trkpt>
      <trkpt lat="42.11462" lon="1.19224">
        <ele>1205.1</ele>
        <time>2019-02-12T14:46:08Z</time>
      </trkpt>
      <trkpt lat="42.11468" lon="1.19252">
        <ele>1206.9</ele>
        <time>2019-02-12T14:46:20Z</time>
      </trkpt>
      <trkpt lat="42.11513" lon="1.19278">
        <ele>1215.5</ele>
        <time>2019-02-12T14:46:48Z</time>
      </trkpt>
      <trkpt lat="42.11543" lon="1.19297">
        <ele>1220.6</ele>
        <time>2019-02-12T14:47:07Z</time>
      </trkpt>
      <trkpt lat="42.11564" lon="1.19317">
        <ele>1219.5</ele>
        <time>2019-02-12T14:47:21Z</time>
      </trkpt>
      <trkpt lat="42.11584" lon="1.19332">
        <ele>1219.9</ele>
        <time>2019-02-12T14:47:35Z</time>
      </trkpt>
      <trkpt lat="42.11625" lon="1.19363">
        <ele>1224.4</ele>
        <time>2019-02-12T14:48:01Z</time>
      </trkpt>
      <trkpt lat="42.1167" lon="1.19406">
        <ele>1220.9</ele>
        <time>2019-02-12T14:48:33Z</time>
      </trkpt>
      <trkpt lat="42.11703" lon="1.19447">
        <ele>1223.5</ele>
        <time>2019-02-12T14:48:58Z</time>
      </trkpt>
      <trkpt lat="42.11713" lon="1.19467">
        <ele>1224</ele>
        <time>2019-02-12T14:49:09Z</time>
      </trkpt>
      <trkpt lat="42.11715" lon="1.19488">
        <ele>1222.8</ele>
        <time>2019-02-12T14:49:18Z</time>
      </trkpt>
      <trkpt lat="42.11728" lon="1.19533">
        <ele>1222.1</ele>
        <time>2019-02-12T14:49:38Z</time>
      </trkpt>
      <trkpt lat="42.11741" lon="1.19596">
        <ele>1226.3</ele>
        <time>2019-02-12T14:50:06Z</time>
      </trkpt>
      <trkpt lat="42.11742" lon="1.19643">
        <ele>1230</ele>
        <time>2019-02-12T14:50:26Z</time>
      </trkpt>
      <trkpt lat="42.1173" lon="1.19678">
        <ele>1232.8</ele>
        <time>2019-02-12T14:50:42Z</time>
      </trkpt>
      <trkpt lat="42.11711" lon="1.19709">
        <ele>1235.3</ele>
        <time>2019-02-12T14:51:00Z</time>
      </trkpt>
      <trkpt lat="42.11694" lon="1.1974">
        <ele>1237.3</ele>
        <time>2019-02-12T14:51:16Z</time>
      </trkpt>
      <trkpt lat="42.1169" lon="1.19766">
        <ele>1238.9</ele>
        <time>2019-02-12T14:51:27Z</time>
      </trkpt>
      <trkpt lat="42.11695" lon="1.19794">
        <ele>1240.8</ele>
        <time>2019-02-12T14:51:39Z</time>
      </trkpt>
      <trkpt lat="42.11702" lon="1.19808">
        <ele>1240.2</ele>
        <time>2019-02-12T14:51:46Z</time>
      </trkpt>
      <trkpt lat="42.1173" lon="1.19817">
        <ele>1240.3</ele>
        <time>2019-02-12T14:52:03Z</time>
      </trkpt>
      <trkpt lat="42.11761" lon="1.19824">
        <ele>1240.2</ele>
        <time>2019-02-12T14:52:21Z</time>
      </trkpt>
      <trkpt lat="42.11809" lon="1.19842">
        <ele>1239</ele>
        <time>2019-02-12T14:52:50Z</time>
      </trkpt>
      <trkpt lat="42.11869" lon="1.19848">
        <ele>1240.7</ele>
        <time>2019-02-12T14:53:24Z</time>
      </trkpt>
      <trkpt lat="42.11907" lon="1.19858">
        <ele>1236.5</ele>
        <time>2019-02-12T14:53:46Z</time>
      </trkpt>
      <trkpt lat="42.11922" lon="1.19859">
        <ele>1234.6</ele>
        <time>2019-02-12T14:53:55Z</time>
      </trkpt>
      <trkpt lat="42.11943" lon="1.1986">
        <ele>1232.2</ele>
        <time>2019-02-12T14:54:07Z</time>
      </trkpt>
      <trkpt lat="42.11972" lon="1.19883">
        <ele>1227.8</ele>
        <time>2019-02-12T14:54:26Z</time>
      </trkpt>
      <trkpt lat="42.11996" lon="1.19908">
        <ele>1223.9</ele>
        <time>2019-02-12T14:54:43Z</time>
      </trkpt>
      <trkpt lat="42.12" lon="1.19928">
        <ele>1222.5</ele>
        <time>2019-02-12T14:54:52Z</time>
      </trkpt>
      <trkpt lat="42.12001" lon="1.19945">
        <ele>1221.5</ele>
        <time>2019-02-12T14:54:59Z</time>
      </trkpt>
      <trkpt lat="42.12011" lon="1.19964">
        <ele>1220.6</ele>
        <time>2019-02-12T14:55:09Z</time>
      </trkpt>
      <trkpt lat="42.12013" lon="1.19977">
        <ele>1219.4</ele>
        <time>2019-02-12T14:55:15Z</time>
      </trkpt>
      <trkpt lat="42.12007" lon="1.19978">
        <ele>1218.7</ele>
        <time>2019-02-12T14:55:18Z</time>
      </trkpt>
      <trkpt lat="42.11996" lon="1.19963">
        <ele>1219.7</ele>
        <time>2019-02-12T14:55:28Z</time>
      </trkpt>
      <trkpt lat="42.11973" lon="1.19943">
        <ele>1220.7</ele>
        <time>2019-02-12T14:55:43Z</time>
      </trkpt>
      <trkpt lat="42.11956" lon="1.19931">
        <ele>1222</ele>
        <time>2019-02-12T14:55:54Z</time>
      </trkpt>
      <trkpt lat="42.11923" lon="1.19937">
        <ele>1221.8</ele>
        <time>2019-02-12T14:56:13Z</time>
      </trkpt>
      <trkpt lat="42.11864" lon="1.19964">
        <ele>1215.9</ele>
        <time>2019-02-12T14:56:49Z</time>
      </trkpt>
      <trkpt lat="42.11815" lon="1.19977">
        <ele>1212</ele>
        <time>2019-02-12T14:57:17Z</time>
      </trkpt>
      <trkpt lat="42.11782" lon="1.19986">
        <ele>1209.5</ele>
        <time>2019-02-12T14:57:36Z</time>
      </trkpt>
      <trkpt lat="42.11754" lon="1.19996">
        <ele>1207</ele>
        <time>2019-02-12T14:57:53Z</time>
      </trkpt>
      <trkpt lat="42.11744" lon="1.20005">
        <ele>1204.6</ele>
        <time>2019-02-12T14:58:00Z</time>
      </trkpt>
      <trkpt lat="42.1175" lon="1.20012">
        <ele>1202.8</ele>
        <time>2019-02-12T14:58:04Z</time>
      </trkpt>
      <trkpt lat="42.1179" lon="1.20035">
        <ele>1197.6</ele>
        <time>2019-02-12T14:58:29Z</time>
      </trkpt>
      <trkpt lat="42.11809" lon="1.20042">
        <ele>1196.8</ele>
        <time>2019-02-12T14:58:40Z</time>
      </trkpt>
      <trkpt lat="42.11813" lon="1.20062">
        <ele>1194.2</ele>
        <time>2019-02-12T14:58:49Z</time>
      </trkpt>
      <trkpt lat="42.11796" lon="1.20092">
        <ele>1188.6</ele>
        <time>2019-02-12T14:59:05Z</time>
      </trkpt>
      <trkpt lat="42.11762" lon="1.2012">
        <ele>1182.2</ele>
        <time>2019-02-12T14:59:28Z</time>
      </trkpt>
      <trkpt lat="42.11736" lon="1.20143">
        <ele>1178.7</ele>
        <time>2019-02-12T14:59:45Z</time>
      </trkpt>
      <trkpt lat="42.11739" lon="1.20119">
        <ele>1181.1</ele>
        <time>2019-02-12T14:59:56Z</time>
      </trkpt>
      <trkpt lat="42.11736" lon="1.20099">
        <ele>1184.7</ele>
        <time>2019-02-12T15:00:05Z</time>
      </trkpt>
      <trkpt lat="42.11715" lon="1.20086">
        <ele>1186.3</ele>
        <time>2019-02-12T15:00:18Z</time>
      </trkpt>
      <trkpt lat="42.11696" lon="1.20088">
        <ele>1184.9</ele>
        <time>2019-02-12T15:00:28Z</time>
      </trkpt>
      <trkpt lat="42.11633" lon="1.20101">
        <ele>1178.4</ele>
        <time>2019-02-12T15:01:05Z</time>
      </trkpt>
      <trkpt lat="42.11598" lon="1.20116">
        <ele>1172</ele>
        <time>2019-02-12T15:01:26Z</time>
      </trkpt>
      <trkpt lat="42.11567" lon="1.20123">
        <ele>1166.6</ele>
        <time>2019-02-12T15:01:44Z</time>
      </trkpt>
      <trkpt lat="42.11543" lon="1.20117">
        <ele>1164.7</ele>
        <time>2019-02-12T15:01:58Z</time>
      </trkpt>
      <trkpt lat="42.1153" lon="1.2009">
        <ele>1169.7</ele>
        <time>2019-02-12T15:02:12Z</time>
      </trkpt>
      <trkpt lat="42.11512" lon="1.20064">
        <ele>1175.4</ele>
        <time>2019-02-12T15:02:27Z</time>
      </trkpt>
      <trkpt lat="42.11498" lon="1.20051">
        <ele>1178.2</ele>
        <time>2019-02-12T15:02:36Z</time>
      </trkpt>
      <trkpt lat="42.11477" lon="1.20063">
        <ele>1177</ele>
        <time>2019-02-12T15:02:49Z</time>
      </trkpt>
      <trkpt lat="42.11427" lon="1.20115">
        <ele>1165.5</ele>
        <time>2019-02-12T15:03:25Z</time>
      </trkpt>
      <trkpt lat="42.11394" lon="1.20136">
        <ele>1159.8</ele>
        <time>2019-02-12T15:03:47Z</time>
      </trkpt>
      <trkpt lat="42.11366" lon="1.20137">
        <ele>1157.6</ele>
        <time>2019-02-12T15:04:02Z</time>
      </trkpt>
      <trkpt lat="42.11314" lon="1.2013">
        <ele>1152.7</ele>
        <time>2019-02-12T15:04:32Z</time>
      </trkpt>
      <trkpt lat="42.11261" lon="1.20125">
        <ele>1146.6</ele>
        <time>2019-02-12T15:05:02Z</time>
      </trkpt>
      <trkpt lat="42.11227" lon="1.2011">
        <ele>1144.3</ele>
        <time>2019-02-12T15:05:23Z</time>
      </trkpt>
      <trkpt lat="42.1119" lon="1.201">
        <ele>1141.9</ele>
        <time>2019-02-12T15:05:45Z</time>
      </trkpt>
      <trkpt lat="42.11145" lon="1.20085">
        <ele>1139.9</ele>
        <time>2019-02-12T15:06:11Z</time>
      </trkpt>
      <trkpt lat="42.11107" lon="1.20088">
        <ele>1135.5</ele>
        <time>2019-02-12T15:06:33Z</time>
      </trkpt>
      <trkpt lat="42.11077" lon="1.20094">
        <ele>1131.6</ele>
        <time>2019-02-12T15:06:50Z</time>
      </trkpt>
      <trkpt lat="42.10959" lon="1.20083">
        <ele>1123.1</ele>
        <time>2019-02-12T15:07:58Z</time>
      </trkpt>
      <trkpt lat="42.10896" lon="1.20085">
        <ele>1118.6</ele>
        <time>2019-02-12T15:08:34Z</time>
      </trkpt>
      <trkpt lat="42.1084" lon="1.20083">
        <ele>1113.4</ele>
        <time>2019-02-12T15:09:06Z</time>
      </trkpt>
      <trkpt lat="42.10769" lon="1.20053">
        <ele>1105.6</ele>
        <time>2019-02-12T15:09:48Z</time>
      </trkpt>
      <trkpt lat="42.10734" lon="1.2003">
        <ele>1101.4</ele>
        <time>2019-02-12T15:10:11Z</time>
      </trkpt>
      <trkpt lat="42.10686" lon="1.19988">
        <ele>1095.1</ele>
        <time>2019-02-12T15:10:43Z</time>
      </trkpt>
      <trkpt lat="42.10661" lon="1.19966">
        <ele>1091.3</ele>
        <time>2019-02-12T15:11:00Z</time>
      </trkpt>
      <trkpt lat="42.10648" lon="1.19949">
        <ele>1089.2</ele>
        <time>2019-02-12T15:11:11Z</time>
      </trkpt>
      <trkpt lat="42.10631" lon="1.19903">
        <ele>1087.2</ele>
        <time>2019-02-12T15:11:32Z</time>
      </trkpt>
      <trkpt lat="42.10608" lon="1.19798">
        <ele>1089.8</ele>
        <time>2019-02-12T15:12:19Z</time>
      </trkpt>
      <trkpt lat="42.1061" lon="1.19804">
        <ele>1089.4</ele>
        <time>2019-02-12T15:12:22Z</time>
      </trkpt>
      <trkpt lat="42.1059" lon="1.19905">
        <ele>1081.7</ele>
        <time>2019-02-12T15:13:06Z</time>
      </trkpt>
      <trkpt lat="42.10571" lon="1.19964">
        <ele>1073.6</ele>
        <time>2019-02-12T15:13:33Z</time>
      </trkpt>
      <trkpt lat="42.10559" lon="1.19996">
        <ele>1070</ele>
        <time>2019-02-12T15:13:48Z</time>
      </trkpt>
      <trkpt lat="42.10557" lon="1.20022">
        <ele>1068.7</ele>
        <time>2019-02-12T15:14:00Z</time>
      </trkpt>
      <trkpt lat="42.10565" lon="1.20067">
        <ele>1069.2</ele>
        <time>2019-02-12T15:14:19Z</time>
      </trkpt>
      <trkpt lat="42.10573" lon="1.20091">
        <ele>1070</ele>
        <time>2019-02-12T15:14:30Z</time>
      </trkpt>
      <trkpt lat="42.10573" lon="1.20121">
        <ele>1068.6</ele>
        <time>2019-02-12T15:14:43Z</time>
      </trkpt>
      <trkpt lat="42.10586" lon="1.20158">
        <ele>1068.7</ele>
        <time>2019-02-12T15:15:00Z</time>
      </trkpt>
      <trkpt lat="42.10579" lon="1.20202">
        <ele>1063.7</ele>
        <time>2019-02-12T15:15:20Z</time>
      </trkpt>
      <trkpt lat="42.10564" lon="1.2023">
        <ele>1060.3</ele>
        <time>2019-02-12T15:15:34Z</time>
      </trkpt>
      <trkpt lat="42.1055" lon="1.20258">
        <ele>1056.8</ele>
        <time>2019-02-12T15:15:48Z</time>
      </trkpt>
      <trkpt lat="42.10535" lon="1.20298">
        <ele>1053</ele>
        <time>2019-02-12T15:16:07Z</time>
      </trkpt>
      <trkpt lat="42.10512" lon="1.20335">
        <ele>1050.3</ele>
        <time>2019-02-12T15:16:28Z</time>
      </trkpt>
      <trkpt lat="42.10491" lon="1.20389">
        <ele>1050.8</ele>
        <time>2019-02-12T15:16:54Z</time>
      </trkpt>
      <trkpt lat="42.10489" lon="1.20429">
        <ele>1055.3</ele>
        <time>2019-02-12T15:17:11Z</time>
      </trkpt>
      <trkpt lat="42.10497" lon="1.20461">
        <ele>1059.9</ele>
        <time>2019-02-12T15:17:25Z</time>
      </trkpt>
      <trkpt lat="42.10518" lon="1.20486">
        <ele>1062.1</ele>
        <time>2019-02-12T15:17:41Z</time>
      </trkpt>
      <trkpt lat="42.10539" lon="1.20527">
        <ele>1063.4</ele>
        <time>2019-02-12T15:18:02Z</time>
      </trkpt>
      <trkpt lat="42.10563" lon="1.20583">
        <ele>1054.3</ele>
        <time>2019-02-12T15:18:30Z</time>
      </trkpt>
      <trkpt lat="42.10581" lon="1.20619">
        <ele>1046.5</ele>
        <time>2019-02-12T15:18:48Z</time>
      </trkpt>
      <trkpt lat="42.10582" lon="1.20645">
        <ele>1041.4</ele>
        <time>2019-02-12T15:18:59Z</time>
      </trkpt>
      <trkpt lat="42.10569" lon="1.20666">
        <ele>1035.6</ele>
        <time>2019-02-12T15:19:11Z</time>
      </trkpt>
      <trkpt lat="42.10549" lon="1.20677">
        <ele>1030.8</ele>
        <time>2019-02-12T15:19:23Z</time>
      </trkpt>
      <trkpt lat="42.10533" lon="1.20685">
        <ele>1026.7</ele>
        <time>2019-02-12T15:19:33Z</time>
      </trkpt>
      <trkpt lat="42.10539" lon="1.20719">
        <ele>1023.3</ele>
        <time>2019-02-12T15:19:48Z</time>
      </trkpt>
      <trkpt lat="42.10547" lon="1.20762">
        <ele>1027</ele>
        <time>2019-02-12T15:20:06Z</time>
      </trkpt>
      <trkpt lat="42.10552" lon="1.208">
        <ele>1030.4</ele>
        <time>2019-02-12T15:20:23Z</time>
      </trkpt>
      <trkpt lat="42.10559" lon="1.20846">
        <ele>1036.8</ele>
        <time>2019-02-12T15:20:43Z</time>
      </trkpt>
      <trkpt lat="42.10552" lon="1.20878">
        <ele>1041.1</ele>
        <time>2019-02-12T15:20:57Z</time>
      </trkpt>
      <trkpt lat="42.10531" lon="1.20895">
        <ele>1048.9</ele>
        <time>2019-02-12T15:21:11Z</time>
      </trkpt>
      <trkpt lat="42.10518" lon="1.20922">
        <ele>1058.7</ele>
        <time>2019-02-12T15:21:25Z</time>
      </trkpt>
      <trkpt lat="42.10505" lon="1.20968">
        <ele>1071.1</ele>
        <time>2019-02-12T15:21:46Z</time>
      </trkpt>
      <trkpt lat="42.10506" lon="1.21012">
        <ele>1073.2</ele>
        <time>2019-02-12T15:22:04Z</time>
      </trkpt>
      <trkpt lat="42.10501" lon="1.21052">
        <ele>1077.6</ele>
        <time>2019-02-12T15:22:21Z</time>
      </trkpt>
      <trkpt lat="42.10497" lon="1.21093">
        <ele>1082.4</ele>
        <time>2019-02-12T15:22:39Z</time>
      </trkpt>
      <trkpt lat="42.10482" lon="1.21126">
        <ele>1090</ele>
        <time>2019-02-12T15:22:55Z</time>
      </trkpt>
      <trkpt lat="42.10473" lon="1.21129">
        <ele>1093.3</ele>
        <time>2019-02-12T15:23:01Z</time>
      </trkpt>
      <trkpt lat="42.1046" lon="1.21103">
        <ele>1096.6</ele>
        <time>2019-02-12T15:23:14Z</time>
      </trkpt>
      <trkpt lat="42.10438" lon="1.2109">
        <ele>1102.5</ele>
        <time>2019-02-12T15:23:27Z</time>
      </trkpt>
      <trkpt lat="42.10416" lon="1.21077">
        <ele>1108.4</ele>
        <time>2019-02-12T15:23:41Z</time>
      </trkpt>
      <trkpt lat="42.10394" lon="1.21075">
        <ele>1115</ele>
        <time>2019-02-12T15:23:54Z</time>
      </trkpt>
      <trkpt lat="42.10388" lon="1.21092">
        <ele>1116.8</ele>
        <time>2019-02-12T15:24:02Z</time>
      </trkpt>
      <trkpt lat="42.10381" lon="1.21101">
        <ele>1119.1</ele>
        <time>2019-02-12T15:24:08Z</time>
      </trkpt>
      <trkpt lat="42.10366" lon="1.21093">
        <ele>1120.7</ele>
        <time>2019-02-12T15:24:17Z</time>
      </trkpt>
      <trkpt lat="42.1035" lon="1.21087">
        <ele>1120.4</ele>
        <time>2019-02-12T15:24:26Z</time>
      </trkpt>
      <trkpt lat="42.1034" lon="1.21094">
        <ele>1120.8</ele>
        <time>2019-02-12T15:24:33Z</time>
      </trkpt>
      <trkpt lat="42.10328" lon="1.21107">
        <ele>1121.4</ele>
        <time>2019-02-12T15:24:42Z</time>
      </trkpt>
      <trkpt lat="42.10325" lon="1.21127">
        <ele>1122.4</ele>
        <time>2019-02-12T15:24:50Z</time>
      </trkpt>
      <trkpt lat="42.10316" lon="1.2113">
        <ele>1123.1</ele>
        <time>2019-02-12T15:24:56Z</time>
      </trkpt>
      <trkpt lat="42.10318" lon="1.21146">
        <ele>1125.2</ele>
        <time>2019-02-12T15:25:03Z</time>
      </trkpt>
      <trkpt lat="42.1037" lon="1.21218">
        <ele>1122.1</ele>
        <time>2019-02-12T16:36:27Z</time>
      </trkpt>
      <trkpt lat="42.10367" lon="1.21207">
        <ele>1122</ele>
        <time>2019-02-12T16:36:32Z</time>
      </trkpt>
      <trkpt lat="42.10363" lon="1.21191">
        <ele>1124</ele>
        <time>2019-02-12T16:36:39Z</time>
      </trkpt>
      <trkpt lat="42.1036" lon="1.21179">
        <ele>1124.4</ele>
        <time>2019-02-12T16:36:44Z</time>
      </trkpt>
      <trkpt lat="42.10356" lon="1.2117">
        <ele>1125.8</ele>
        <time>2019-02-12T16:36:49Z</time>
      </trkpt>
      <trkpt lat="42.10353" lon="1.21158">
        <ele>1124.8</ele>
        <time>2019-02-12T16:36:54Z</time>
      </trkpt>
      <trkpt lat="42.10347" lon="1.21144">
        <ele>1127.3</ele>
        <time>2019-02-12T16:37:01Z</time>
      </trkpt>
      <trkpt lat="42.10337" lon="1.21141">
        <ele>1131.2</ele>
        <time>2019-02-12T16:37:07Z</time>
      </trkpt>
      <trkpt lat="42.10335" lon="1.21156">
        <ele>1133.7</ele>
        <time>2019-02-12T16:37:13Z</time>
      </trkpt>
      <trkpt lat="42.10335" lon="1.21178">
        <ele>1135.5</ele>
        <time>2019-02-12T16:37:22Z</time>
      </trkpt>
      <trkpt lat="42.10328" lon="1.21201">
        <ele>1137.5</ele>
        <time>2019-02-12T16:37:33Z</time>
      </trkpt>
      <trkpt lat="42.10318" lon="1.21195">
        <ele>1139.8</ele>
        <time>2019-02-12T16:37:39Z</time>
      </trkpt>
      <trkpt lat="42.10305" lon="1.212">
        <ele>1143.3</ele>
        <time>2019-02-12T16:37:47Z</time>
      </trkpt>
      <trkpt lat="42.10304" lon="1.21213">
        <ele>1142.6</ele>
        <time>2019-02-12T16:37:52Z</time>
      </trkpt>
      <trkpt lat="42.10305" lon="1.2123">
        <ele>1143.6</ele>
        <time>2019-02-12T16:38:00Z</time>
      </trkpt>
      <trkpt lat="42.10306" lon="1.21248">
        <ele>1145.1</ele>
        <time>2019-02-12T16:38:07Z</time>
      </trkpt>
      <trkpt lat="42.10303" lon="1.21265">
        <ele>1146.7</ele>
        <time>2019-02-12T16:38:14Z</time>
      </trkpt>
      <trkpt lat="42.10297" lon="1.2127">
        <ele>1148</ele>
        <time>2019-02-12T16:38:19Z</time>
      </trkpt>
      <trkpt lat="42.1029" lon="1.21262">
        <ele>1149.1</ele>
        <time>2019-02-12T16:38:24Z</time>
      </trkpt>
      <trkpt lat="42.1028" lon="1.21263">
        <ele>1149.1</ele>
        <time>2019-02-12T16:38:30Z</time>
      </trkpt>
      <trkpt lat="42.10284" lon="1.21277">
        <ele>1153.2</ele>
        <time>2019-02-12T16:38:36Z</time>
      </trkpt>
      <trkpt lat="42.10288" lon="1.21295">
        <ele>1156.6</ele>
        <time>2019-02-12T16:38:44Z</time>
      </trkpt>
      <trkpt lat="42.10282" lon="1.21304">
        <ele>1159.4</ele>
        <time>2019-02-12T16:38:50Z</time>
      </trkpt>
      <trkpt lat="42.10274" lon="1.21305">
        <ele>1161.4</ele>
        <time>2019-02-12T16:38:54Z</time>
      </trkpt>
      <trkpt lat="42.1028" lon="1.21325">
        <ele>1160</ele>
        <time>2019-02-12T16:39:03Z</time>
      </trkpt>
      <trkpt lat="42.10286" lon="1.21348">
        <ele>1163.4</ele>
        <time>2019-02-12T16:39:14Z</time>
      </trkpt>
      <trkpt lat="42.10284" lon="1.21368">
        <ele>1164.3</ele>
        <time>2019-02-12T16:39:22Z</time>
      </trkpt>
      <trkpt lat="42.10275" lon="1.21356">
        <ele>1165.9</ele>
        <time>2019-02-12T16:39:29Z</time>
      </trkpt>
      <trkpt lat="42.10264" lon="1.21353">
        <ele>1168.6</ele>
        <time>2019-02-12T16:39:35Z</time>
      </trkpt>
      <trkpt lat="42.10253" lon="1.21362">
        <ele>1169.7</ele>
        <time>2019-02-12T16:39:43Z</time>
      </trkpt>
      <trkpt lat="42.10241" lon="1.21379">
        <ele>1172.1</ele>
        <time>2019-02-12T16:39:53Z</time>
      </trkpt>
      <trkpt lat="42.10221" lon="1.21391">
        <ele>1175.9</ele>
        <time>2019-02-12T16:40:05Z</time>
      </trkpt>
      <trkpt lat="42.10194" lon="1.21386">
        <ele>1180.7</ele>
        <time>2019-02-12T16:40:21Z</time>
      </trkpt>
      <trkpt lat="42.1017" lon="1.21396">
        <ele>1183.1</ele>
        <time>2019-02-12T16:40:35Z</time>
      </trkpt>
      <trkpt lat="42.10143" lon="1.21401">
        <ele>1185.5</ele>
        <time>2019-02-12T16:40:51Z</time>
      </trkpt>
      <trkpt lat="42.1013" lon="1.2141">
        <ele>1187.8</ele>
        <time>2019-02-12T16:40:59Z</time>
      </trkpt>
      <trkpt lat="42.10111" lon="1.21432">
        <ele>1190.8</ele>
        <time>2019-02-12T16:41:13Z</time>
      </trkpt>
      <trkpt lat="42.10101" lon="1.2146">
        <ele>1194.1</ele>
        <time>2019-02-12T16:41:26Z</time>
      </trkpt>
      <trkpt lat="42.101" lon="1.2149">
        <ele>1196.4</ele>
        <time>2019-02-12T16:41:39Z</time>
      </trkpt>
      <trkpt lat="42.101" lon="1.21514">
        <ele>1196</ele>
        <time>2019-02-12T16:41:50Z</time>
      </trkpt>
      <trkpt lat="42.10098" lon="1.21535">
        <ele>1196.1</ele>
        <time>2019-02-12T16:41:58Z</time>
      </trkpt>
      <trkpt lat="42.10086" lon="1.21549">
        <ele>1197.1</ele>
        <time>2019-02-12T16:42:08Z</time>
      </trkpt>
      <trkpt lat="42.10076" lon="1.21564">
        <ele>1199.9</ele>
        <time>2019-02-12T16:42:16Z</time>
      </trkpt>
      <trkpt lat="42.1007" lon="1.21577">
        <ele>1201.9</ele>
        <time>2019-02-12T16:42:23Z</time>
      </trkpt>
      <trkpt lat="42.10068" lon="1.21594">
        <ele>1205.3</ele>
        <time>2019-02-12T16:42:30Z</time>
      </trkpt>
      <trkpt lat="42.10069" lon="1.2161">
        <ele>1207</ele>
        <time>2019-02-12T16:42:37Z</time>
      </trkpt>
      <trkpt lat="42.10071" lon="1.21632">
        <ele>1208.6</ele>
        <time>2019-02-12T16:42:46Z</time>
      </trkpt>
      <trkpt lat="42.10074" lon="1.21649">
        <ele>1209.4</ele>
        <time>2019-02-12T16:42:53Z</time>
      </trkpt>
      <trkpt lat="42.10077" lon="1.21665">
        <ele>1211.9</ele>
        <time>2019-02-12T16:43:00Z</time>
      </trkpt>
      <trkpt lat="42.10083" lon="1.2168">
        <ele>1213.5</ele>
        <time>2019-02-12T16:43:08Z</time>
      </trkpt>
      <trkpt lat="42.10088" lon="1.21698">
        <ele>1214.9</ele>
        <time>2019-02-12T16:43:16Z</time>
      </trkpt>
      <trkpt lat="42.10095" lon="1.21714">
        <ele>1212.9</ele>
        <time>2019-02-12T16:43:24Z</time>
      </trkpt>
      <trkpt lat="42.10101" lon="1.21728">
        <ele>1214.2</ele>
        <time>2019-02-12T16:43:31Z</time>
      </trkpt>
      <trkpt lat="42.10109" lon="1.2174">
        <ele>1214.3</ele>
        <time>2019-02-12T16:43:37Z</time>
      </trkpt>
      <trkpt lat="42.10115" lon="1.21758">
        <ele>1214.9</ele>
        <time>2019-02-12T16:43:46Z</time>
      </trkpt>
      <trkpt lat="42.10124" lon="1.21774">
        <ele>1211.5</ele>
        <time>2019-02-12T16:43:54Z</time>
      </trkpt>
      <trkpt lat="42.10127" lon="1.21787">
        <ele>1210.4</ele>
        <time>2019-02-12T16:44:00Z</time>
      </trkpt>
      <trkpt lat="42.10132" lon="1.21803">
        <ele>1211.4</ele>
        <time>2019-02-12T16:44:07Z</time>
      </trkpt>
      <trkpt lat="42.10139" lon="1.21819">
        <ele>1212.4</ele>
        <time>2019-02-12T16:44:15Z</time>
      </trkpt>
      <trkpt lat="42.10141" lon="1.21844">
        <ele>1214.3</ele>
        <time>2019-02-12T16:44:26Z</time>
      </trkpt>
      <trkpt lat="42.1015" lon="1.21866">
        <ele>1214.8</ele>
        <time>2019-02-12T16:44:37Z</time>
      </trkpt>
      <trkpt lat="42.10154" lon="1.21887">
        <ele>1214.9</ele>
        <time>2019-02-12T16:44:46Z</time>
      </trkpt>
      <trkpt lat="42.10155" lon="1.21924">
        <ele>1218.7</ele>
        <time>2019-02-12T16:45:02Z</time>
      </trkpt>
      <trkpt lat="42.10143" lon="1.21947">
        <ele>1221.5</ele>
        <time>2019-02-12T16:45:13Z</time>
      </trkpt>
      <trkpt lat="42.10129" lon="1.2195">
        <ele>1223.9</ele>
        <time>2019-02-12T16:45:21Z</time>
      </trkpt>
      <trkpt lat="42.10113" lon="1.21953">
        <ele>1226.2</ele>
        <time>2019-02-12T16:45:30Z</time>
      </trkpt>
      <trkpt lat="42.10093" lon="1.21959">
        <ele>1230.6</ele>
        <time>2019-02-12T16:45:42Z</time>
      </trkpt>
      <trkpt lat="42.10069" lon="1.21959">
        <ele>1232.6</ele>
        <time>2019-02-12T16:45:56Z</time>
      </trkpt>
      <trkpt lat="42.10055" lon="1.21965">
        <ele>1234.4</ele>
        <time>2019-02-12T16:46:04Z</time>
      </trkpt>
      <trkpt lat="42.10047" lon="1.21978">
        <ele>1234.4</ele>
        <time>2019-02-12T16:46:12Z</time>
      </trkpt>
      <trkpt lat="42.10035" lon="1.21997">
        <ele>1232.7</ele>
        <time>2019-02-12T16:46:22Z</time>
      </trkpt>
      <trkpt lat="42.1003" lon="1.22022">
        <ele>1232.7</ele>
        <time>2019-02-12T16:46:33Z</time>
      </trkpt>
      <trkpt lat="42.10024" lon="1.22037">
        <ele>1232.7</ele>
        <time>2019-02-12T16:46:40Z</time>
      </trkpt>
      <trkpt lat="42.10017" lon="1.2205">
        <ele>1235</ele>
        <time>2019-02-12T16:46:47Z</time>
      </trkpt>
      <trkpt lat="42.10013" lon="1.22066">
        <ele>1236.4</ele>
        <time>2019-02-12T16:46:54Z</time>
      </trkpt>
      <trkpt lat="42.10004" lon="1.22077">
        <ele>1239.9</ele>
        <time>2019-02-12T16:47:01Z</time>
      </trkpt>
      <trkpt lat="42.09991" lon="1.2208">
        <ele>1241.6</ele>
        <time>2019-02-12T16:47:09Z</time>
      </trkpt>
      <trkpt lat="42.09979" lon="1.22085">
        <ele>1243.7</ele>
        <time>2019-02-12T16:47:16Z</time>
      </trkpt>
      <trkpt lat="42.0997" lon="1.22092">
        <ele>1245.6</ele>
        <time>2019-02-12T16:47:22Z</time>
      </trkpt>
      <trkpt lat="42.09958" lon="1.22103">
        <ele>1247.4</ele>
        <time>2019-02-12T16:47:30Z</time>
      </trkpt>
      <trkpt lat="42.09946" lon="1.22109">
        <ele>1247.4</ele>
        <time>2019-02-12T16:47:38Z</time>
      </trkpt>
      <trkpt lat="42.09935" lon="1.22116">
        <ele>1249.8</ele>
        <time>2019-02-12T16:47:44Z</time>
      </trkpt>
      <trkpt lat="42.09926" lon="1.22121">
        <ele>1252.2</ele>
        <time>2019-02-12T16:47:50Z</time>
      </trkpt>
      <trkpt lat="42.09916" lon="1.2213">
        <ele>1256</ele>
        <time>2019-02-12T16:47:57Z</time>
      </trkpt>
      <trkpt lat="42.09906" lon="1.22141">
        <ele>1259</ele>
        <time>2019-02-12T16:48:04Z</time>
      </trkpt>
      <trkpt lat="42.09897" lon="1.22148">
        <ele>1261.9</ele>
        <time>2019-02-12T16:48:10Z</time>
      </trkpt>
      <trkpt lat="42.09879" lon="1.22162">
        <ele>1268.2</ele>
        <time>2019-02-12T16:48:22Z</time>
      </trkpt>
      <trkpt lat="42.09873" lon="1.22187">
        <ele>1271.1</ele>
        <time>2019-02-12T16:48:33Z</time>
      </trkpt>
      <trkpt lat="42.09869" lon="1.22212">
        <ele>1273.5</ele>
        <time>2019-02-12T16:48:44Z</time>
      </trkpt>
      <trkpt lat="42.09864" lon="1.22228">
        <ele>1273.8</ele>
        <time>2019-02-12T16:48:52Z</time>
      </trkpt>
      <trkpt lat="42.09863" lon="1.22242">
        <ele>1273</ele>
        <time>2019-02-12T16:48:58Z</time>
      </trkpt>
      <trkpt lat="42.09862" lon="1.22258">
        <ele>1271</ele>
        <time>2019-02-12T16:49:04Z</time>
      </trkpt>
      <trkpt lat="42.09862" lon="1.22272">
        <ele>1269.6</ele>
        <time>2019-02-12T16:49:10Z</time>
      </trkpt>
      <trkpt lat="42.09863" lon="1.22287">
        <ele>1267.3</ele>
        <time>2019-02-12T16:49:17Z</time>
      </trkpt>
      <trkpt lat="42.09863" lon="1.22301">
        <ele>1265.8</ele>
        <time>2019-02-12T16:49:23Z</time>
      </trkpt>
      <trkpt lat="42.09865" lon="1.22314">
        <ele>1263.9</ele>
        <time>2019-02-12T16:49:29Z</time>
      </trkpt>
      <trkpt lat="42.0987" lon="1.22328">
        <ele>1263.8</ele>
        <time>2019-02-12T16:49:35Z</time>
      </trkpt>
      <trkpt lat="42.09873" lon="1.22341">
        <ele>1261.5</ele>
        <time>2019-02-12T16:49:41Z</time>
      </trkpt>
      <trkpt lat="42.09875" lon="1.22354">
        <ele>1260.5</ele>
        <time>2019-02-12T16:49:46Z</time>
      </trkpt>
      <trkpt lat="42.0988" lon="1.2237">
        <ele>1260.5</ele>
        <time>2019-02-12T16:49:54Z</time>
      </trkpt>
      <trkpt lat="42.09878" lon="1.22387">
        <ele>1261.5</ele>
        <time>2019-02-12T16:50:01Z</time>
      </trkpt>
      <trkpt lat="42.09871" lon="1.22406">
        <ele>1263.4</ele>
        <time>2019-02-12T16:50:10Z</time>
      </trkpt>
      <trkpt lat="42.09861" lon="1.2241">
        <ele>1263.8</ele>
        <time>2019-02-12T16:50:16Z</time>
      </trkpt>
      <trkpt lat="42.0985" lon="1.22409">
        <ele>1264.8</ele>
        <time>2019-02-12T16:50:22Z</time>
      </trkpt>
      <trkpt lat="42.09838" lon="1.22411">
        <ele>1266.6</ele>
        <time>2019-02-12T16:50:29Z</time>
      </trkpt>
      <trkpt lat="42.09838" lon="1.2242">
        <ele>1267.3</ele>
        <time>2019-02-12T16:50:33Z</time>
      </trkpt>
      <trkpt lat="42.09833" lon="1.22433">
        <ele>1266.6</ele>
        <time>2019-02-12T16:50:39Z</time>
      </trkpt>
      <trkpt lat="42.09835" lon="1.22449">
        <ele>1266.3</ele>
        <time>2019-02-12T16:50:46Z</time>
      </trkpt>
      <trkpt lat="42.09835" lon="1.22464">
        <ele>1267.3</ele>
        <time>2019-02-12T16:50:52Z</time>
      </trkpt>
      <trkpt lat="42.09841" lon="1.22483">
        <ele>1270.1</ele>
        <time>2019-02-12T16:51:01Z</time>
      </trkpt>
      <trkpt lat="42.09833" lon="1.22501">
        <ele>1272.4</ele>
        <time>2019-02-12T16:51:10Z</time>
      </trkpt>
      <trkpt lat="42.09825" lon="1.22514">
        <ele>1274.4</ele>
        <time>2019-02-12T16:51:17Z</time>
      </trkpt>
      <trkpt lat="42.09818" lon="1.22526">
        <ele>1275.4</ele>
        <time>2019-02-12T16:51:23Z</time>
      </trkpt>
      <trkpt lat="42.09808" lon="1.22533">
        <ele>1277.2</ele>
        <time>2019-02-12T16:51:30Z</time>
      </trkpt>
      <trkpt lat="42.09804" lon="1.22543">
        <ele>1276.8</ele>
        <time>2019-02-12T16:51:35Z</time>
      </trkpt>
      <trkpt lat="42.09805" lon="1.22556">
        <ele>1274.8</ele>
        <time>2019-02-12T16:51:40Z</time>
      </trkpt>
      <trkpt lat="42.09811" lon="1.22567">
        <ele>1273.5</ele>
        <time>2019-02-12T16:51:46Z</time>
      </trkpt>
      <trkpt lat="42.09813" lon="1.22587">
        <ele>1274.9</ele>
        <time>2019-02-12T16:51:55Z</time>
      </trkpt>
      <trkpt lat="42.09816" lon="1.22601">
        <ele>1273.8</ele>
        <time>2019-02-12T16:52:01Z</time>
      </trkpt>
      <trkpt lat="42.09817" lon="1.22616">
        <ele>1273.9</ele>
        <time>2019-02-12T16:52:07Z</time>
      </trkpt>
      <trkpt lat="42.09818" lon="1.22633">
        <ele>1273</ele>
        <time>2019-02-12T16:52:15Z</time>
      </trkpt>
      <trkpt lat="42.09817" lon="1.22648">
        <ele>1272.4</ele>
        <time>2019-02-12T16:52:21Z</time>
      </trkpt>
      <trkpt lat="42.09817" lon="1.22662">
        <ele>1272.5</ele>
        <time>2019-02-12T16:52:27Z</time>
      </trkpt>
      <trkpt lat="42.09816" lon="1.22677">
        <ele>1274.4</ele>
        <time>2019-02-12T16:52:33Z</time>
      </trkpt>
      <trkpt lat="42.09809" lon="1.22691">
        <ele>1271</ele>
        <time>2019-02-12T16:52:40Z</time>
      </trkpt>
      <trkpt lat="42.09803" lon="1.22713">
        <ele>1267.7</ele>
        <time>2019-02-12T16:52:50Z</time>
      </trkpt>
      <trkpt lat="42.098" lon="1.22731">
        <ele>1266.7</ele>
        <time>2019-02-12T16:52:58Z</time>
      </trkpt>
      <trkpt lat="42.09795" lon="1.22745">
        <ele>1267.2</ele>
        <time>2019-02-12T16:53:05Z</time>
      </trkpt>
      <trkpt lat="42.09787" lon="1.22757">
        <ele>1266.6</ele>
        <time>2019-02-12T16:53:11Z</time>
      </trkpt>
      <trkpt lat="42.09781" lon="1.22764">
        <ele>1266.6</ele>
        <time>2019-02-12T16:53:16Z</time>
      </trkpt>
      <trkpt lat="42.09778" lon="1.22763">
        <ele>1264.3</ele>
        <time>2019-02-12T16:53:18Z</time>
      </trkpt>
      <trkpt lat="42.09776" lon="1.22751">
        <ele>1261.1</ele>
        <time>2019-02-12T16:53:23Z</time>
      </trkpt>
      <trkpt lat="42.09773" lon="1.22739">
        <ele>1258.1</ele>
        <time>2019-02-12T16:53:28Z</time>
      </trkpt>
      <trkpt lat="42.09772" lon="1.22726">
        <ele>1254.6</ele>
        <time>2019-02-12T16:53:34Z</time>
      </trkpt>
      <trkpt lat="42.09773" lon="1.2271">
        <ele>1253.2</ele>
        <time>2019-02-12T16:53:41Z</time>
      </trkpt>
      <trkpt lat="42.0977" lon="1.22694">
        <ele>1251.8</ele>
        <time>2019-02-12T16:53:47Z</time>
      </trkpt>
      <trkpt lat="42.09771" lon="1.22681">
        <ele>1249.9</ele>
        <time>2019-02-12T16:53:53Z</time>
      </trkpt>
      <trkpt lat="42.09767" lon="1.22668">
        <ele>1249.5</ele>
        <time>2019-02-12T16:53:59Z</time>
      </trkpt>
      <trkpt lat="42.09764" lon="1.22654">
        <ele>1249.8</ele>
        <time>2019-02-12T16:54:05Z</time>
      </trkpt>
      <trkpt lat="42.09756" lon="1.22643">
        <ele>1251.3</ele>
        <time>2019-02-12T16:54:11Z</time>
      </trkpt>
      <trkpt lat="42.09746" lon="1.22648">
        <ele>1251.3</ele>
        <time>2019-02-12T16:54:17Z</time>
      </trkpt>
      <trkpt lat="42.09735" lon="1.22654">
        <ele>1249.5</ele>
        <time>2019-02-12T16:54:24Z</time>
      </trkpt>
      <trkpt lat="42.09723" lon="1.22659">
        <ele>1246.5</ele>
        <time>2019-02-12T16:54:31Z</time>
      </trkpt>
      <trkpt lat="42.09715" lon="1.22663">
        <ele>1244.1</ele>
        <time>2019-02-12T16:54:36Z</time>
      </trkpt>
      <trkpt lat="42.09706" lon="1.22664">
        <ele>1241.2</ele>
        <time>2019-02-12T16:54:42Z</time>
      </trkpt>
      <trkpt lat="42.09695" lon="1.22663">
        <ele>1241.2</ele>
        <time>2019-02-12T16:54:48Z</time>
      </trkpt>
      <trkpt lat="42.09688" lon="1.22659">
        <ele>1241.2</ele>
        <time>2019-02-12T16:54:52Z</time>
      </trkpt>
      <trkpt lat="42.09677" lon="1.22657">
        <ele>1239.3</ele>
        <time>2019-02-12T16:54:58Z</time>
      </trkpt>
      <trkpt lat="42.09667" lon="1.22651">
        <ele>1238.9</ele>
        <time>2019-02-12T16:55:05Z</time>
      </trkpt>
      <trkpt lat="42.09658" lon="1.22644">
        <ele>1238.8</ele>
        <time>2019-02-12T16:55:11Z</time>
      </trkpt>
      <trkpt lat="42.0965" lon="1.22638">
        <ele>1237.5</ele>
        <time>2019-02-12T16:55:16Z</time>
      </trkpt>
      <trkpt lat="42.09642" lon="1.22633">
        <ele>1237.4</ele>
        <time>2019-02-12T16:55:21Z</time>
      </trkpt>
      <trkpt lat="42.09632" lon="1.2263">
        <ele>1234.4</ele>
        <time>2019-02-12T16:55:27Z</time>
      </trkpt>
      <trkpt lat="42.09636" lon="1.22638">
        <ele>1229.6</ele>
        <time>2019-02-12T16:55:31Z</time>
      </trkpt>
      <trkpt lat="42.09642" lon="1.22646">
        <ele>1227.3</ele>
        <time>2019-02-12T16:55:36Z</time>
      </trkpt>
      <trkpt lat="42.09631" lon="1.22643">
        <ele>1228.2</ele>
        <time>2019-02-12T16:55:42Z</time>
      </trkpt>
      <trkpt lat="42.09621" lon="1.22636">
        <ele>1224.8</ele>
        <time>2019-02-12T16:55:48Z</time>
      </trkpt>
      <trkpt lat="42.09612" lon="1.22634">
        <ele>1224.4</ele>
        <time>2019-02-12T16:55:54Z</time>
      </trkpt>
      <trkpt lat="42.09613" lon="1.22645">
        <ele>1222.5</ele>
        <time>2019-02-12T16:55:58Z</time>
      </trkpt>
      <trkpt lat="42.09619" lon="1.22655">
        <ele>1220.6</ele>
        <time>2019-02-12T16:56:04Z</time>
      </trkpt>
      <trkpt lat="42.09625" lon="1.22665">
        <ele>1217.6</ele>
        <time>2019-02-12T16:56:10Z</time>
      </trkpt>
      <trkpt lat="42.09633" lon="1.22675">
        <ele>1213.4</ele>
        <time>2019-02-12T16:56:16Z</time>
      </trkpt>
      <trkpt lat="42.09641" lon="1.22684">
        <ele>1211.5</ele>
        <time>2019-02-12T16:56:21Z</time>
      </trkpt>
      <trkpt lat="42.09646" lon="1.22695">
        <ele>1209</ele>
        <time>2019-02-12T16:56:27Z</time>
      </trkpt>
      <trkpt lat="42.09652" lon="1.22706">
        <ele>1208.1</ele>
        <time>2019-02-12T16:56:32Z</time>
      </trkpt>
      <trkpt lat="42.0966" lon="1.22715">
        <ele>1208.7</ele>
        <time>2019-02-12T16:56:39Z</time>
      </trkpt>
      <trkpt lat="42.09667" lon="1.22725">
        <ele>1208.1</ele>
        <time>2019-02-12T16:56:44Z</time>
      </trkpt>
      <trkpt lat="42.09664" lon="1.22735">
        <ele>1207.6</ele>
        <time>2019-02-12T16:56:49Z</time>
      </trkpt>
      <trkpt lat="42.09657" lon="1.22743">
        <ele>1208.6</ele>
        <time>2019-02-12T16:56:54Z</time>
      </trkpt>
      <trkpt lat="42.0965" lon="1.22753">
        <ele>1207</ele>
        <time>2019-02-12T16:57:00Z</time>
      </trkpt>
      <trkpt lat="42.09647" lon="1.22766">
        <ele>1203.8</ele>
        <time>2019-02-12T16:57:06Z</time>
      </trkpt>
      <trkpt lat="42.0965" lon="1.22778">
        <ele>1201.5</ele>
        <time>2019-02-12T16:57:11Z</time>
      </trkpt>
      <trkpt lat="42.09646" lon="1.22776">
        <ele>1199.1</ele>
        <time>2019-02-12T16:57:13Z</time>
      </trkpt>
      <trkpt lat="42.09638" lon="1.2277">
        <ele>1196.1</ele>
        <time>2019-02-12T16:57:18Z</time>
      </trkpt>
      <trkpt lat="42.09634" lon="1.22775">
        <ele>1194.1</ele>
        <time>2019-02-12T16:57:21Z</time>
      </trkpt>
      <trkpt lat="42.09637" lon="1.22788">
        <ele>1192.2</ele>
        <time>2019-02-12T16:57:27Z</time>
      </trkpt>
      <trkpt lat="42.09644" lon="1.22799">
        <ele>1192.2</ele>
        <time>2019-02-12T16:57:33Z</time>
      </trkpt>
      <trkpt lat="42.09649" lon="1.22813">
        <ele>1191.7</ele>
        <time>2019-02-12T16:57:40Z</time>
      </trkpt>
      <trkpt lat="42.09637" lon="1.22817">
        <ele>1193.2</ele>
        <time>2019-02-12T16:57:47Z</time>
      </trkpt>
      <trkpt lat="42.09631" lon="1.22816">
        <ele>1193.2</ele>
        <time>2019-02-12T16:57:50Z</time>
      </trkpt>
      <trkpt lat="42.09631" lon="1.22824">
        <ele>1191.3</ele>
        <time>2019-02-12T16:57:53Z</time>
      </trkpt>
      <trkpt lat="42.09623" lon="1.22822">
        <ele>1187.5</ele>
        <time>2019-02-12T16:57:58Z</time>
      </trkpt>
      <trkpt lat="42.09612" lon="1.22822">
        <ele>1182.1</ele>
        <time>2019-02-12T16:58:04Z</time>
      </trkpt>
      <trkpt lat="42.09603" lon="1.22822">
        <ele>1180.7</ele>
        <time>2019-02-12T16:58:09Z</time>
      </trkpt>
      <trkpt lat="42.09595" lon="1.2283">
        <ele>1179.7</ele>
        <time>2019-02-12T16:58:15Z</time>
      </trkpt>
      <trkpt lat="42.09588" lon="1.22838">
        <ele>1179.3</ele>
        <time>2019-02-12T16:58:20Z</time>
      </trkpt>
      <trkpt lat="42.0958" lon="1.22842">
        <ele>1177.8</ele>
        <time>2019-02-12T16:58:25Z</time>
      </trkpt>
      <trkpt lat="42.09577" lon="1.2285">
        <ele>1172.5</ele>
        <time>2019-02-12T16:58:29Z</time>
      </trkpt>
      <trkpt lat="42.09568" lon="1.22851">
        <ele>1170</ele>
        <time>2019-02-12T16:58:34Z</time>
      </trkpt>
      <trkpt lat="42.09559" lon="1.22848">
        <ele>1166.6</ele>
        <time>2019-02-12T16:58:39Z</time>
      </trkpt>
      <trkpt lat="42.09553" lon="1.22844">
        <ele>1163.8</ele>
        <time>2019-02-12T16:58:44Z</time>
      </trkpt>
      <trkpt lat="42.09545" lon="1.22835">
        <ele>1160.1</ele>
        <time>2019-02-12T16:58:49Z</time>
      </trkpt>
      <trkpt lat="42.09543" lon="1.22824">
        <ele>1156.7</ele>
        <time>2019-02-12T16:58:54Z</time>
      </trkpt>
      <trkpt lat="42.09539" lon="1.2281">
        <ele>1153.8</ele>
        <time>2019-02-12T16:59:00Z</time>
      </trkpt>
      <trkpt lat="42.09539" lon="1.22795">
        <ele>1153.3</ele>
        <time>2019-02-12T16:59:07Z</time>
      </trkpt>
      <trkpt lat="42.09535" lon="1.22784">
        <ele>1151.9</ele>
        <time>2019-02-12T16:59:12Z</time>
      </trkpt>
      <trkpt lat="42.0953" lon="1.22771">
        <ele>1151.4</ele>
        <time>2019-02-12T16:59:18Z</time>
      </trkpt>
      <trkpt lat="42.09532" lon="1.22757">
        <ele>1150.4</ele>
        <time>2019-02-12T16:59:25Z</time>
      </trkpt>
      <trkpt lat="42.09532" lon="1.22742">
        <ele>1149.5</ele>
        <time>2019-02-12T16:59:31Z</time>
      </trkpt>
      <trkpt lat="42.09537" lon="1.2273">
        <ele>1148.4</ele>
        <time>2019-02-12T16:59:36Z</time>
      </trkpt>
      <trkpt lat="42.09533" lon="1.22719">
        <ele>1148.4</ele>
        <time>2019-02-12T16:59:42Z</time>
      </trkpt>
      <trkpt lat="42.09529" lon="1.22707">
        <ele>1148</ele>
        <time>2019-02-12T16:59:47Z</time>
      </trkpt>
      <trkpt lat="42.09519" lon="1.22698">
        <ele>1148</ele>
        <time>2019-02-12T16:59:54Z</time>
      </trkpt>
      <trkpt lat="42.09512" lon="1.22687">
        <ele>1147.5</ele>
        <time>2019-02-12T17:00:00Z</time>
      </trkpt>
      <trkpt lat="42.09504" lon="1.22676">
        <ele>1147</ele>
        <time>2019-02-12T17:00:07Z</time>
      </trkpt>
      <trkpt lat="42.09493" lon="1.22669">
        <ele>1147</ele>
        <time>2019-02-12T17:00:13Z</time>
      </trkpt>
      <trkpt lat="42.09483" lon="1.22665">
        <ele>1147.1</ele>
        <time>2019-02-12T17:00:20Z</time>
      </trkpt>
      <trkpt lat="42.09472" lon="1.22659">
        <ele>1146.1</ele>
        <time>2019-02-12T17:00:27Z</time>
      </trkpt>
      <trkpt lat="42.09466" lon="1.22656">
        <ele>1145.6</ele>
        <time>2019-02-12T17:00:30Z</time>
      </trkpt>
      <trkpt lat="42.09455" lon="1.2265">
        <ele>1143.3</ele>
        <time>2019-02-12T17:00:37Z</time>
      </trkpt>
      <trkpt lat="42.09449" lon="1.22644">
        <ele>1140.9</ele>
        <time>2019-02-12T17:00:41Z</time>
      </trkpt>
      <trkpt lat="42.09445" lon="1.22638">
        <ele>1136</ele>
        <time>2019-02-12T17:00:45Z</time>
      </trkpt>
      <trkpt lat="42.09434" lon="1.22641">
        <ele>1134</ele>
        <time>2019-02-12T17:00:51Z</time>
      </trkpt>
      <trkpt lat="42.09424" lon="1.22648">
        <ele>1132.6</ele>
        <time>2019-02-12T17:00:58Z</time>
      </trkpt>
      <trkpt lat="42.09415" lon="1.22651">
        <ele>1130.2</ele>
        <time>2019-02-12T17:01:03Z</time>
      </trkpt>
      <trkpt lat="42.09407" lon="1.22657">
        <ele>1128.8</ele>
        <time>2019-02-12T17:01:08Z</time>
      </trkpt>
      <trkpt lat="42.09398" lon="1.22664">
        <ele>1127.2</ele>
        <time>2019-02-12T17:01:14Z</time>
      </trkpt>
      <trkpt lat="42.09389" lon="1.22663">
        <ele>1125.8</ele>
        <time>2019-02-12T17:01:19Z</time>
      </trkpt>
      <trkpt lat="42.09384" lon="1.22665">
        <ele>1122.4</ele>
        <time>2019-02-12T17:01:22Z</time>
      </trkpt>
      <trkpt lat="42.09389" lon="1.22673">
        <ele>1117.7</ele>
        <time>2019-02-12T17:01:27Z</time>
      </trkpt>
      <trkpt lat="42.09381" lon="1.22673">
        <ele>1115.8</ele>
        <time>2019-02-12T17:01:31Z</time>
      </trkpt>
      <trkpt lat="42.09371" lon="1.22673">
        <ele>1111</ele>
        <time>2019-02-12T17:01:37Z</time>
      </trkpt>
      <trkpt lat="42.09367" lon="1.22682">
        <ele>1106.6</ele>
        <time>2019-02-12T17:01:41Z</time>
      </trkpt>
      <trkpt lat="42.09361" lon="1.22687">
        <ele>1103.8</ele>
        <time>2019-02-12T17:01:46Z</time>
      </trkpt>
      <trkpt lat="42.09349" lon="1.22686">
        <ele>1099</ele>
        <time>2019-02-12T17:01:52Z</time>
      </trkpt>
      <trkpt lat="42.09347" lon="1.22693">
        <ele>1094.3</ele>
        <time>2019-02-12T17:01:55Z</time>
      </trkpt>
      <trkpt lat="42.09351" lon="1.22703">
        <ele>1091.8</ele>
        <time>2019-02-12T17:02:00Z</time>
      </trkpt>
      <trkpt lat="42.09351" lon="1.2271">
        <ele>1087.4</ele>
        <time>2019-02-12T17:02:03Z</time>
      </trkpt>
      <trkpt lat="42.09343" lon="1.22714">
        <ele>1084</ele>
        <time>2019-02-12T17:02:08Z</time>
      </trkpt>
      <trkpt lat="42.09339" lon="1.22721">
        <ele>1080.3</ele>
        <time>2019-02-12T17:02:11Z</time>
      </trkpt>
      <trkpt lat="42.09337" lon="1.22732">
        <ele>1078.2</ele>
        <time>2019-02-12T17:02:16Z</time>
      </trkpt>
      <trkpt lat="42.09344" lon="1.22741">
        <ele>1076.4</ele>
        <time>2019-02-12T17:02:22Z</time>
      </trkpt>
      <trkpt lat="42.09353" lon="1.2275">
        <ele>1073</ele>
        <time>2019-02-12T17:02:28Z</time>
      </trkpt>
      <trkpt lat="42.09365" lon="1.22754">
        <ele>1072</ele>
        <time>2019-02-12T17:02:35Z</time>
      </trkpt>
      <trkpt lat="42.09375" lon="1.22765">
        <ele>1073</ele>
        <time>2019-02-12T17:02:43Z</time>
      </trkpt>
      <trkpt lat="42.0939" lon="1.22776">
        <ele>1073.5</ele>
        <time>2019-02-12T17:02:52Z</time>
      </trkpt>
      <trkpt lat="42.09386" lon="1.22785">
        <ele>1073.1</ele>
        <time>2019-02-12T17:02:56Z</time>
      </trkpt>
      <trkpt lat="42.0938" lon="1.22797">
        <ele>1072.5</ele>
        <time>2019-02-12T17:03:02Z</time>
      </trkpt>
      <trkpt lat="42.0938" lon="1.22808">
        <ele>1071</ele>
        <time>2019-02-12T17:03:07Z</time>
      </trkpt>
      <trkpt lat="42.09384" lon="1.22819">
        <ele>1069.3</ele>
        <time>2019-02-12T17:03:13Z</time>
      </trkpt>
      <trkpt lat="42.0939" lon="1.22829">
        <ele>1067.2</ele>
        <time>2019-02-12T17:03:18Z</time>
      </trkpt>
      <trkpt lat="42.09396" lon="1.22839">
        <ele>1065.9</ele>
        <time>2019-02-12T17:03:23Z</time>
      </trkpt>
      <trkpt lat="42.09404" lon="1.22846">
        <ele>1065.8</ele>
        <time>2019-02-12T17:03:29Z</time>
      </trkpt>
      <trkpt lat="42.09404" lon="1.22863">
        <ele>1066.9</ele>
        <time>2019-02-12T17:03:36Z</time>
      </trkpt>
      <trkpt lat="42.09395" lon="1.22873">
        <ele>1066.8</ele>
        <time>2019-02-12T17:03:43Z</time>
      </trkpt>
      <trkpt lat="42.09387" lon="1.22879">
        <ele>1064.8</ele>
        <time>2019-02-12T17:03:48Z</time>
      </trkpt>
      <trkpt lat="42.09378" lon="1.22884">
        <ele>1062.5</ele>
        <time>2019-02-12T17:03:54Z</time>
      </trkpt>
      <trkpt lat="42.09369" lon="1.2289">
        <ele>1061.5</ele>
        <time>2019-02-12T17:03:59Z</time>
      </trkpt>
      <trkpt lat="42.0936" lon="1.22897">
        <ele>1060.1</ele>
        <time>2019-02-12T17:04:05Z</time>
      </trkpt>
      <trkpt lat="42.09352" lon="1.22904">
        <ele>1059.7</ele>
        <time>2019-02-12T17:04:11Z</time>
      </trkpt>
      <trkpt lat="42.09349" lon="1.22916">
        <ele>1057.3</ele>
        <time>2019-02-12T17:04:16Z</time>
      </trkpt>
      <trkpt lat="42.09345" lon="1.22929">
        <ele>1054.8</ele>
        <time>2019-02-12T17:04:22Z</time>
      </trkpt>
      <trkpt lat="42.09341" lon="1.22942">
        <ele>1052.8</ele>
        <time>2019-02-12T17:04:28Z</time>
      </trkpt>
      <trkpt lat="42.09339" lon="1.22954">
        <ele>1050.8</ele>
        <time>2019-02-12T17:04:34Z</time>
      </trkpt>
      <trkpt lat="42.09338" lon="1.22969">
        <ele>1048.4</ele>
        <time>2019-02-12T17:04:40Z</time>
      </trkpt>
      <trkpt lat="42.09338" lon="1.22981">
        <ele>1046</ele>
        <time>2019-02-12T17:04:45Z</time>
      </trkpt>
      <trkpt lat="42.09334" lon="1.22995">
        <ele>1044.6</ele>
        <time>2019-02-12T17:04:51Z</time>
      </trkpt>
      <trkpt lat="42.09332" lon="1.23009">
        <ele>1042.3</ele>
        <time>2019-02-12T17:04:57Z</time>
      </trkpt>
      <trkpt lat="42.09327" lon="1.23022">
        <ele>1041.3</ele>
        <time>2019-02-12T17:05:04Z</time>
      </trkpt>
      <trkpt lat="42.09319" lon="1.2303">
        <ele>1039.4</ele>
        <time>2019-02-12T17:05:09Z</time>
      </trkpt>
      <trkpt lat="42.09311" lon="1.23038">
        <ele>1036</ele>
        <time>2019-02-12T17:05:15Z</time>
      </trkpt>
      <trkpt lat="42.09305" lon="1.23047">
        <ele>1036</ele>
        <time>2019-02-12T17:05:20Z</time>
      </trkpt>
      <trkpt lat="42.093" lon="1.23056">
        <ele>1034.1</ele>
        <time>2019-02-12T17:05:25Z</time>
      </trkpt>
      <trkpt lat="42.09295" lon="1.23067">
        <ele>1033.7</ele>
        <time>2019-02-12T17:05:30Z</time>
      </trkpt>
      <trkpt lat="42.09291" lon="1.23079">
        <ele>1032.7</ele>
        <time>2019-02-12T17:05:36Z</time>
      </trkpt>
      <trkpt lat="42.09285" lon="1.23091">
        <ele>1030.6</ele>
        <time>2019-02-12T17:05:42Z</time>
      </trkpt>
      <trkpt lat="42.09281" lon="1.23102">
        <ele>1029.2</ele>
        <time>2019-02-12T17:05:47Z</time>
      </trkpt>
      <trkpt lat="42.09272" lon="1.23112">
        <ele>1029.2</ele>
        <time>2019-02-12T17:05:54Z</time>
      </trkpt>
      <trkpt lat="42.09262" lon="1.23112">
        <ele>1027.8</ele>
        <time>2019-02-12T17:05:59Z</time>
      </trkpt>
      <trkpt lat="42.09252" lon="1.23111">
        <ele>1027.4</ele>
        <time>2019-02-12T17:06:06Z</time>
      </trkpt>
      <trkpt lat="42.0924" lon="1.23109">
        <ele>1026.8</ele>
        <time>2019-02-12T17:06:12Z</time>
      </trkpt>
      <trkpt lat="42.09229" lon="1.23113">
        <ele>1027.4</ele>
        <time>2019-02-12T17:06:19Z</time>
      </trkpt>
      <trkpt lat="42.09219" lon="1.23119">
        <ele>1026.9</ele>
        <time>2019-02-12T17:06:25Z</time>
      </trkpt>
      <trkpt lat="42.0921" lon="1.23121">
        <ele>1024.1</ele>
        <time>2019-02-12T17:06:30Z</time>
      </trkpt>
      <trkpt lat="42.09202" lon="1.23125">
        <ele>1021.7</ele>
        <time>2019-02-12T17:06:35Z</time>
      </trkpt>
      <trkpt lat="42.09195" lon="1.23133">
        <ele>1019.6</ele>
        <time>2019-02-12T17:06:41Z</time>
      </trkpt>
      <trkpt lat="42.09188" lon="1.2314">
        <ele>1018.3</ele>
        <time>2019-02-12T17:06:45Z</time>
      </trkpt>
      <trkpt lat="42.09179" lon="1.23146">
        <ele>1017.2</ele>
        <time>2019-02-12T17:06:51Z</time>
      </trkpt>
      <trkpt lat="42.09169" lon="1.2315">
        <ele>1015.8</ele>
        <time>2019-02-12T17:06:57Z</time>
      </trkpt>
      <trkpt lat="42.0916" lon="1.23156">
        <ele>1012.8</ele>
        <time>2019-02-12T17:07:03Z</time>
      </trkpt>
      <trkpt lat="42.0915" lon="1.23158">
        <ele>1012</ele>
        <time>2019-02-12T17:07:08Z</time>
      </trkpt>
      <trkpt lat="42.09142" lon="1.23158">
        <ele>1011</ele>
        <time>2019-02-12T17:07:13Z</time>
      </trkpt>
      <trkpt lat="42.09134" lon="1.23164">
        <ele>1010.1</ele>
        <time>2019-02-12T17:07:18Z</time>
      </trkpt>
      <trkpt lat="42.09126" lon="1.23169">
        <ele>1008.1</ele>
        <time>2019-02-12T17:07:23Z</time>
      </trkpt>
      <trkpt lat="42.09117" lon="1.23175">
        <ele>1005.6</ele>
        <time>2019-02-12T17:07:29Z</time>
      </trkpt>
      <trkpt lat="42.09108" lon="1.23181">
        <ele>1005.3</ele>
        <time>2019-02-12T17:07:35Z</time>
      </trkpt>
      <trkpt lat="42.091" lon="1.23186">
        <ele>1003.8</ele>
        <time>2019-02-12T17:07:40Z</time>
      </trkpt>
      <trkpt lat="42.09092" lon="1.23194">
        <ele>1002.4</ele>
        <time>2019-02-12T17:07:45Z</time>
      </trkpt>
      <trkpt lat="42.09086" lon="1.23202">
        <ele>1000.8</ele>
        <time>2019-02-12T17:07:50Z</time>
      </trkpt>
      <trkpt lat="42.09077" lon="1.23208">
        <ele>1000</ele>
        <time>2019-02-12T17:07:56Z</time>
      </trkpt>
      <trkpt lat="42.0907" lon="1.23216">
        <ele>997.7</ele>
        <time>2019-02-12T17:08:01Z</time>
      </trkpt>
      <trkpt lat="42.09063" lon="1.23226">
        <ele>994.7</ele>
        <time>2019-02-12T17:08:07Z</time>
      </trkpt>
      <trkpt lat="42.09055" lon="1.2323">
        <ele>990.8</ele>
        <time>2019-02-12T17:08:12Z</time>
      </trkpt>
      <trkpt lat="42.09046" lon="1.23235">
        <ele>988.8</ele>
        <time>2019-02-12T17:08:18Z</time>
      </trkpt>
      <trkpt lat="42.09037" lon="1.2324">
        <ele>985.4</ele>
        <time>2019-02-12T17:08:23Z</time>
      </trkpt>
      <trkpt lat="42.09029" lon="1.23246">
        <ele>982.3</ele>
        <time>2019-02-12T17:08:28Z</time>
      </trkpt>
      <trkpt lat="42.09018" lon="1.23241">
        <ele>980.3</ele>
        <time>2019-02-12T17:08:35Z</time>
      </trkpt>
      <trkpt lat="42.09016" lon="1.23228">
        <ele>983</ele>
        <time>2019-02-12T17:08:41Z</time>
      </trkpt>
      <trkpt lat="42.09012" lon="1.23216">
        <ele>982.6</ele>
        <time>2019-02-12T17:08:46Z</time>
      </trkpt>
      <trkpt lat="42.09007" lon="1.2321">
        <ele>977.8</ele>
        <time>2019-02-12T17:08:50Z</time>
      </trkpt>
      <trkpt lat="42.08999" lon="1.23209">
        <ele>975.8</ele>
        <time>2019-02-12T17:08:54Z</time>
      </trkpt>
      <trkpt lat="42.08989" lon="1.23213">
        <ele>973</ele>
        <time>2019-02-12T17:09:00Z</time>
      </trkpt>
      <trkpt lat="42.08979" lon="1.23216">
        <ele>972.6</ele>
        <time>2019-02-12T17:09:06Z</time>
      </trkpt>
      <trkpt lat="42.08971" lon="1.23223">
        <ele>972.7</ele>
        <time>2019-02-12T17:09:11Z</time>
      </trkpt>
      <trkpt lat="42.08965" lon="1.23232">
        <ele>973.1</ele>
        <time>2019-02-12T17:09:17Z</time>
      </trkpt>
      <trkpt lat="42.08956" lon="1.2324">
        <ele>974.5</ele>
        <time>2019-02-12T17:09:23Z</time>
      </trkpt>
      <trkpt lat="42.08948" lon="1.2325">
        <ele>976.9</ele>
        <time>2019-02-12T17:09:29Z</time>
      </trkpt>
      <trkpt lat="42.08943" lon="1.23259">
        <ele>976.4</ele>
        <time>2019-02-12T17:09:34Z</time>
      </trkpt>
      <trkpt lat="42.08937" lon="1.2327">
        <ele>974.1</ele>
        <time>2019-02-12T17:09:40Z</time>
      </trkpt>
      <trkpt lat="42.0893" lon="1.23277">
        <ele>972.7</ele>
        <time>2019-02-12T17:09:45Z</time>
      </trkpt>
      <trkpt lat="42.08921" lon="1.23286">
        <ele>972</ele>
        <time>2019-02-12T17:09:51Z</time>
      </trkpt>
      <trkpt lat="42.08916" lon="1.23297">
        <ele>969.6</ele>
        <time>2019-02-12T17:09:57Z</time>
      </trkpt>
      <trkpt lat="42.08909" lon="1.23305">
        <ele>972</ele>
        <time>2019-02-12T17:10:02Z</time>
      </trkpt>
      <trkpt lat="42.08901" lon="1.23315">
        <ele>972.6</ele>
        <time>2019-02-12T17:10:08Z</time>
      </trkpt>
      <trkpt lat="42.08894" lon="1.23325">
        <ele>972</ele>
        <time>2019-02-12T17:10:14Z</time>
      </trkpt>
      <trkpt lat="42.08888" lon="1.23336">
        <ele>973.1</ele>
        <time>2019-02-12T17:10:20Z</time>
      </trkpt>
      <trkpt lat="42.08883" lon="1.23348">
        <ele>972.7</ele>
        <time>2019-02-12T17:10:25Z</time>
      </trkpt>
      <trkpt lat="42.08879" lon="1.23359">
        <ele>974.1</ele>
        <time>2019-02-12T17:10:31Z</time>
      </trkpt>
      <trkpt lat="42.0888" lon="1.23371">
        <ele>972.7</ele>
        <time>2019-02-12T17:10:36Z</time>
      </trkpt>
      <trkpt lat="42.08882" lon="1.23384">
        <ele>972.7</ele>
        <time>2019-02-12T17:10:41Z</time>
      </trkpt>
      <trkpt lat="42.08886" lon="1.23396">
        <ele>972.1</ele>
        <time>2019-02-12T17:10:47Z</time>
      </trkpt>
      <trkpt lat="42.0889" lon="1.23408">
        <ele>971.6</ele>
        <time>2019-02-12T17:10:53Z</time>
      </trkpt>
      <trkpt lat="42.08891" lon="1.2342">
        <ele>971</ele>
        <time>2019-02-12T17:10:58Z</time>
      </trkpt>
      <trkpt lat="42.08889" lon="1.23433">
        <ele>970.3</ele>
        <time>2019-02-12T17:11:03Z</time>
      </trkpt>
      <trkpt lat="42.08882" lon="1.23439">
        <ele>969.2</ele>
        <time>2019-02-12T17:11:08Z</time>
      </trkpt>
      <trkpt lat="42.08873" lon="1.23443">
        <ele>968.3</ele>
        <time>2019-02-12T17:11:14Z</time>
      </trkpt>
      <trkpt lat="42.08864" lon="1.23447">
        <ele>967.2</ele>
        <time>2019-02-12T17:11:19Z</time>
      </trkpt>
      <trkpt lat="42.08855" lon="1.23454">
        <ele>966.8</ele>
        <time>2019-02-12T17:11:25Z</time>
      </trkpt>
      <trkpt lat="42.08848" lon="1.23462">
        <ele>964.9</ele>
        <time>2019-02-12T17:11:31Z</time>
      </trkpt>
      <trkpt lat="42.08843" lon="1.23474">
        <ele>964.4</ele>
        <time>2019-02-12T17:11:36Z</time>
      </trkpt>
      <trkpt lat="42.08838" lon="1.23486">
        <ele>964.9</ele>
        <time>2019-02-12T17:11:42Z</time>
      </trkpt>
      <trkpt lat="42.08834" lon="1.23498">
        <ele>964.9</ele>
        <time>2019-02-12T17:11:48Z</time>
      </trkpt>
      <trkpt lat="42.08827" lon="1.23509">
        <ele>964.8</ele>
        <time>2019-02-12T17:11:54Z</time>
      </trkpt>
      <trkpt lat="42.0882" lon="1.23518">
        <ele>964.4</ele>
        <time>2019-02-12T17:11:59Z</time>
      </trkpt>
      <trkpt lat="42.08814" lon="1.23528">
        <ele>964.8</ele>
        <time>2019-02-12T17:12:05Z</time>
      </trkpt>
      <trkpt lat="42.08808" lon="1.23537">
        <ele>964.5</ele>
        <time>2019-02-12T17:12:10Z</time>
      </trkpt>
      <trkpt lat="42.08801" lon="1.23547">
        <ele>963.9</ele>
        <time>2019-02-12T17:12:16Z</time>
      </trkpt>
      <trkpt lat="42.08795" lon="1.23557">
        <ele>963.8</ele>
        <time>2019-02-12T17:12:21Z</time>
      </trkpt>
      <trkpt lat="42.08788" lon="1.23566">
        <ele>964.9</ele>
        <time>2019-02-12T17:12:27Z</time>
      </trkpt>
      <trkpt lat="42.08783" lon="1.23575">
        <ele>964.5</ele>
        <time>2019-02-12T17:12:32Z</time>
      </trkpt>
      <trkpt lat="42.08777" lon="1.23585">
        <ele>964.5</ele>
        <time>2019-02-12T17:12:37Z</time>
      </trkpt>
      <trkpt lat="42.0877" lon="1.23592">
        <ele>964.5</ele>
        <time>2019-02-12T17:12:42Z</time>
      </trkpt>
      <trkpt lat="42.08762" lon="1.23599">
        <ele>964.9</ele>
        <time>2019-02-12T17:12:47Z</time>
      </trkpt>
      <trkpt lat="42.08755" lon="1.23605">
        <ele>965.8</ele>
        <time>2019-02-12T17:12:52Z</time>
      </trkpt>
      <trkpt lat="42.08747" lon="1.23611">
        <ele>966.2</ele>
        <time>2019-02-12T17:12:57Z</time>
      </trkpt>
      <trkpt lat="42.08739" lon="1.23617">
        <ele>967.2</ele>
        <time>2019-02-12T17:13:03Z</time>
      </trkpt>
      <trkpt lat="42.0873" lon="1.23622">
        <ele>965.9</ele>
        <time>2019-02-12T17:13:08Z</time>
      </trkpt>
      <trkpt lat="42.08721" lon="1.23628">
        <ele>964.9</ele>
        <time>2019-02-12T17:13:14Z</time>
      </trkpt>
      <trkpt lat="42.08713" lon="1.23633">
        <ele>964.9</ele>
        <time>2019-02-12T17:13:19Z</time>
      </trkpt>
      <trkpt lat="42.08704" lon="1.23639">
        <ele>964.5</ele>
        <time>2019-02-12T17:13:25Z</time>
      </trkpt>
      <trkpt lat="42.08695" lon="1.23646">
        <ele>964.8</ele>
        <time>2019-02-12T17:13:31Z</time>
      </trkpt>
      <trkpt lat="42.08687" lon="1.23655">
        <ele>964.9</ele>
        <time>2019-02-12T17:13:36Z</time>
      </trkpt>
      <trkpt lat="42.08682" lon="1.23664">
        <ele>964.9</ele>
        <time>2019-02-12T17:13:41Z</time>
      </trkpt>
      <trkpt lat="42.08676" lon="1.23674">
        <ele>964.5</ele>
        <time>2019-02-12T17:13:47Z</time>
      </trkpt>
      <trkpt lat="42.0867" lon="1.23684">
        <ele>963.8</ele>
        <time>2019-02-12T17:13:52Z</time>
      </trkpt>
      <trkpt lat="42.08664" lon="1.23694">
        <ele>963.8</ele>
        <time>2019-02-12T17:13:58Z</time>
      </trkpt>
      <trkpt lat="42.08657" lon="1.23703">
        <ele>963.5</ele>
        <time>2019-02-12T17:14:03Z</time>
      </trkpt>
      <trkpt lat="42.08649" lon="1.23711">
        <ele>962.5</ele>
        <time>2019-02-12T17:14:09Z</time>
      </trkpt>
      <trkpt lat="42.08641" lon="1.23719">
        <ele>962</ele>
        <time>2019-02-12T17:14:14Z</time>
      </trkpt>
      <trkpt lat="42.08634" lon="1.23727">
        <ele>962</ele>
        <time>2019-02-12T17:14:20Z</time>
      </trkpt>
      <trkpt lat="42.08625" lon="1.23736">
        <ele>962.1</ele>
        <time>2019-02-12T17:14:26Z</time>
      </trkpt>
      <trkpt lat="42.08618" lon="1.23744">
        <ele>961.4</ele>
        <time>2019-02-12T17:14:31Z</time>
      </trkpt>
      <trkpt lat="42.08611" lon="1.23753">
        <ele>960.5</ele>
        <time>2019-02-12T17:14:37Z</time>
      </trkpt>
      <trkpt lat="42.08606" lon="1.23762">
        <ele>960.1</ele>
        <time>2019-02-12T17:14:42Z</time>
      </trkpt>
      <trkpt lat="42.086" lon="1.23773">
        <ele>960.1</ele>
        <time>2019-02-12T17:14:48Z</time>
      </trkpt>
      <trkpt lat="42.08593" lon="1.23783">
        <ele>959.6</ele>
        <time>2019-02-12T17:14:53Z</time>
      </trkpt>
      <trkpt lat="42.08586" lon="1.23791">
        <ele>959</ele>
        <time>2019-02-12T17:14:59Z</time>
      </trkpt>
      <trkpt lat="42.08577" lon="1.23799">
        <ele>959.1</ele>
        <time>2019-02-12T17:15:05Z</time>
      </trkpt>
      <trkpt lat="42.08568" lon="1.23805">
        <ele>958.6</ele>
        <time>2019-02-12T17:15:11Z</time>
      </trkpt>
      <trkpt lat="42.08559" lon="1.23808">
        <ele>958</ele>
        <time>2019-02-12T17:15:16Z</time>
      </trkpt>
      <trkpt lat="42.0855" lon="1.2381">
        <ele>957.7</ele>
        <time>2019-02-12T17:15:21Z</time>
      </trkpt>
      <trkpt lat="42.08546" lon="1.23815">
        <ele>956.3</ele>
        <time>2019-02-12T17:15:24Z</time>
      </trkpt>
      <trkpt lat="42.08556" lon="1.23819">
        <ele>955.7</ele>
        <time>2019-02-12T17:15:30Z</time>
      </trkpt>
      <trkpt lat="42.08567" lon="1.23818">
        <ele>954.9</ele>
        <time>2019-02-12T17:15:37Z</time>
      </trkpt>
      <trkpt lat="42.08577" lon="1.23816">
        <ele>955.2</ele>
        <time>2019-02-12T17:15:43Z</time>
      </trkpt>
      <trkpt lat="42.08587" lon="1.23813">
        <ele>955.2</ele>
        <time>2019-02-12T17:15:48Z</time>
      </trkpt>
      <trkpt lat="42.08597" lon="1.23809">
        <ele>955.6</ele>
        <time>2019-02-12T17:15:54Z</time>
      </trkpt>
      <trkpt lat="42.08607" lon="1.23805">
        <ele>953.8</ele>
        <time>2019-02-12T17:16:00Z</time>
      </trkpt>
      <trkpt lat="42.08617" lon="1.23801">
        <ele>952.5</ele>
        <time>2019-02-12T17:16:06Z</time>
      </trkpt>
      <trkpt lat="42.08625" lon="1.23798">
        <ele>951.4</ele>
        <time>2019-02-12T17:16:11Z</time>
      </trkpt>
      <trkpt lat="42.08635" lon="1.23795">
        <ele>951.9</ele>
        <time>2019-02-12T17:16:17Z</time>
      </trkpt>
      <trkpt lat="42.08644" lon="1.23789">
        <ele>952.9</ele>
        <time>2019-02-12T17:16:22Z</time>
      </trkpt>
      <trkpt lat="42.08651" lon="1.23784">
        <ele>953.9</ele>
        <time>2019-02-12T17:16:27Z</time>
      </trkpt>
      <trkpt lat="42.08657" lon="1.23773">
        <ele>955.3</ele>
        <time>2019-02-12T17:16:33Z</time>
      </trkpt>
      <trkpt lat="42.08665" lon="1.23762">
        <ele>954.9</ele>
        <time>2019-02-12T17:16:39Z</time>
      </trkpt>
      <trkpt lat="42.08673" lon="1.23753">
        <ele>955.6</ele>
        <time>2019-02-12T17:16:45Z</time>
      </trkpt>
      <trkpt lat="42.0868" lon="1.23744">
        <ele>956.2</ele>
        <time>2019-02-12T17:16:51Z</time>
      </trkpt>
      <trkpt lat="42.08687" lon="1.23736">
        <ele>957.2</ele>
        <time>2019-02-12T17:16:56Z</time>
      </trkpt>
      <trkpt lat="42.08695" lon="1.23729">
        <ele>957.6</ele>
        <time>2019-02-12T17:17:01Z</time>
      </trkpt>
      <trkpt lat="42.08704" lon="1.23721">
        <ele>957.3</ele>
        <time>2019-02-12T17:17:08Z</time>
      </trkpt>
      <trkpt lat="42.08714" lon="1.23718">
        <ele>957.6</ele>
        <time>2019-02-12T17:17:14Z</time>
      </trkpt>
      <trkpt lat="42.08726" lon="1.23713">
        <ele>957.6</ele>
        <time>2019-02-12T17:17:21Z</time>
      </trkpt>
      <trkpt lat="42.08736" lon="1.23708">
        <ele>959.1</ele>
        <time>2019-02-12T17:17:27Z</time>
      </trkpt>
      <trkpt lat="42.08745" lon="1.2371">
        <ele>960.4</ele>
        <time>2019-02-12T17:17:32Z</time>
      </trkpt>
      <trkpt lat="42.08753" lon="1.23715">
        <ele>961.1</ele>
        <time>2019-02-12T17:17:37Z</time>
      </trkpt>
      <trkpt lat="42.08763" lon="1.23717">
        <ele>961.5</ele>
        <time>2019-02-12T17:17:43Z</time>
      </trkpt>
      <trkpt lat="42.08771" lon="1.23719">
        <ele>964.5</ele>
        <time>2019-02-12T17:17:47Z</time>
      </trkpt>
      <trkpt lat="42.08782" lon="1.2372">
        <ele>963.4</ele>
        <time>2019-02-12T17:17:54Z</time>
      </trkpt>
      <trkpt lat="42.08792" lon="1.23712">
        <ele>962.4</ele>
        <time>2019-02-12T17:18:00Z</time>
      </trkpt>
      <trkpt lat="42.08799" lon="1.23703">
        <ele>961</ele>
        <time>2019-02-12T17:18:06Z</time>
      </trkpt>
      <trkpt lat="42.08807" lon="1.23695">
        <ele>959.7</ele>
        <time>2019-02-12T17:18:12Z</time>
      </trkpt>
      <trkpt lat="42.08815" lon="1.23688">
        <ele>958.1</ele>
        <time>2019-02-12T17:18:17Z</time>
      </trkpt>
      <trkpt lat="42.08822" lon="1.23682">
        <ele>957.7</ele>
        <time>2019-02-12T17:18:22Z</time>
      </trkpt>
      <trkpt lat="42.08831" lon="1.23676">
        <ele>957.2</ele>
        <time>2019-02-12T17:18:28Z</time>
      </trkpt>
      <trkpt lat="42.08841" lon="1.23673">
        <ele>957.3</ele>
        <time>2019-02-12T17:18:33Z</time>
      </trkpt>
      <trkpt lat="42.08849" lon="1.2367">
        <ele>957.2</ele>
        <time>2019-02-12T17:18:38Z</time>
      </trkpt>
      <trkpt lat="42.08858" lon="1.23668">
        <ele>956.7</ele>
        <time>2019-02-12T17:18:43Z</time>
      </trkpt>
      <trkpt lat="42.08867" lon="1.23669">
        <ele>956.2</ele>
        <time>2019-02-12T17:18:49Z</time>
      </trkpt>
      <trkpt lat="42.08875" lon="1.23677">
        <ele>955.6</ele>
        <time>2019-02-12T17:18:54Z</time>
      </trkpt>
      <trkpt lat="42.08879" lon="1.2369">
        <ele>954.2</ele>
        <time>2019-02-12T17:19:00Z</time>
      </trkpt>
      <trkpt lat="42.08877" lon="1.237">
        <ele>953.2</ele>
        <time>2019-02-12T17:19:05Z</time>
      </trkpt>
      <trkpt lat="42.08877" lon="1.23713">
        <ele>952.9</ele>
        <time>2019-02-12T17:19:10Z</time>
      </trkpt>
      <trkpt lat="42.08875" lon="1.23727">
        <ele>953.9</ele>
        <time>2019-02-12T17:19:16Z</time>
      </trkpt>
      <trkpt lat="42.08872" lon="1.2374">
        <ele>954.9</ele>
        <time>2019-02-12T17:19:22Z</time>
      </trkpt>
      <trkpt lat="42.0887" lon="1.23752">
        <ele>956.2</ele>
        <time>2019-02-12T17:19:27Z</time>
      </trkpt>
      <trkpt lat="42.08874" lon="1.23762">
        <ele>957.2</ele>
        <time>2019-02-12T17:19:32Z</time>
      </trkpt>
      <trkpt lat="42.08879" lon="1.23774">
        <ele>957.3</ele>
        <time>2019-02-12T17:19:38Z</time>
      </trkpt>
      <trkpt lat="42.0888" lon="1.23788">
        <ele>957.6</ele>
        <time>2019-02-12T17:19:44Z</time>
      </trkpt>
      <trkpt lat="42.08882" lon="1.23801">
        <ele>957.6</ele>
        <time>2019-02-12T17:19:49Z</time>
      </trkpt>
      <trkpt lat="42.08887" lon="1.23814">
        <ele>957.6</ele>
        <time>2019-02-12T17:19:55Z</time>
      </trkpt>
      <trkpt lat="42.08895" lon="1.23822">
        <ele>957.6</ele>
        <time>2019-02-12T17:20:01Z</time>
      </trkpt>
      <trkpt lat="42.08906" lon="1.23826">
        <ele>957.6</ele>
        <time>2019-02-12T17:20:08Z</time>
      </trkpt>
      <trkpt lat="42.08914" lon="1.23832">
        <ele>958.1</ele>
        <time>2019-02-12T17:20:13Z</time>
      </trkpt>
      <trkpt lat="42.08923" lon="1.23838">
        <ele>959.6</ele>
        <time>2019-02-12T17:20:18Z</time>
      </trkpt>
      <trkpt lat="42.08932" lon="1.23843">
        <ele>959.7</ele>
        <time>2019-02-12T17:20:24Z</time>
      </trkpt>
      <trkpt lat="42.0894" lon="1.23849">
        <ele>959</ele>
        <time>2019-02-12T17:20:29Z</time>
      </trkpt>
      <trkpt lat="42.08949" lon="1.23857">
        <ele>958</ele>
        <time>2019-02-12T17:20:35Z</time>
      </trkpt>
      <trkpt lat="42.08957" lon="1.23864">
        <ele>957.6</ele>
        <time>2019-02-12T17:20:41Z</time>
      </trkpt>
      <trkpt lat="42.08965" lon="1.23872">
        <ele>957.7</ele>
        <time>2019-02-12T17:20:47Z</time>
      </trkpt>
      <trkpt lat="42.0897" lon="1.23883">
        <ele>957.3</ele>
        <time>2019-02-12T17:20:52Z</time>
      </trkpt>
      <trkpt lat="42.08969" lon="1.23897">
        <ele>957.3</ele>
        <time>2019-02-12T17:20:58Z</time>
      </trkpt>
      <trkpt lat="42.08964" lon="1.23909">
        <ele>955.6</ele>
        <time>2019-02-12T17:21:04Z</time>
      </trkpt>
      <trkpt lat="42.0896" lon="1.23922">
        <ele>954.8</ele>
        <time>2019-02-12T17:21:10Z</time>
      </trkpt>
      <trkpt lat="42.0896" lon="1.23935">
        <ele>957.2</ele>
        <time>2019-02-12T17:21:15Z</time>
      </trkpt>
      <trkpt lat="42.08964" lon="1.23948">
        <ele>957.2</ele>
        <time>2019-02-12T17:21:21Z</time>
      </trkpt>
      <trkpt lat="42.08971" lon="1.23949">
        <ele>957.7</ele>
        <time>2019-02-12T17:21:26Z</time>
      </trkpt>
      <trkpt lat="42.0898" lon="1.23944">
        <ele>960.1</ele>
        <time>2019-02-12T17:21:31Z</time>
      </trkpt>
      <trkpt lat="42.08989" lon="1.23948">
        <ele>960.1</ele>
        <time>2019-02-12T17:21:37Z</time>
      </trkpt>
      <trkpt lat="42.0899" lon="1.2396">
        <ele>962.1</ele>
        <time>2019-02-12T17:21:42Z</time>
      </trkpt>
      <trkpt lat="42.08989" lon="1.23973">
        <ele>962.1</ele>
        <time>2019-02-12T17:21:48Z</time>
      </trkpt>
      <trkpt lat="42.08988" lon="1.23987">
        <ele>961.5</ele>
        <time>2019-02-12T17:21:54Z</time>
      </trkpt>
      <trkpt lat="42.08986" lon="1.24">
        <ele>961</ele>
        <time>2019-02-12T17:21:59Z</time>
      </trkpt>
      <trkpt lat="42.08983" lon="1.24012">
        <ele>961</ele>
        <time>2019-02-12T17:22:05Z</time>
      </trkpt>
      <trkpt lat="42.08974" lon="1.24019">
        <ele>961</ele>
        <time>2019-02-12T17:22:11Z</time>
      </trkpt>
      <trkpt lat="42.08965" lon="1.24025">
        <ele>961</ele>
        <time>2019-02-12T17:22:16Z</time>
      </trkpt>
      <trkpt lat="42.08955" lon="1.24028">
        <ele>962</ele>
        <time>2019-02-12T17:22:22Z</time>
      </trkpt>
      <trkpt lat="42.08946" lon="1.24034">
        <ele>962.8</ele>
        <time>2019-02-12T17:22:28Z</time>
      </trkpt>
      <trkpt lat="42.08939" lon="1.24043">
        <ele>962.1</ele>
        <time>2019-02-12T17:22:34Z</time>
      </trkpt>
      <trkpt lat="42.08933" lon="1.24053">
        <ele>961.1</ele>
        <time>2019-02-12T17:22:39Z</time>
      </trkpt>
      <trkpt lat="42.08924" lon="1.2406">
        <ele>962.1</ele>
        <time>2019-02-12T17:22:45Z</time>
      </trkpt>
      <trkpt lat="42.08915" lon="1.24068">
        <ele>964.4</ele>
        <time>2019-02-12T17:22:51Z</time>
      </trkpt>
      <trkpt lat="42.08906" lon="1.2407">
        <ele>966.2</ele>
        <time>2019-02-12T17:22:56Z</time>
      </trkpt>
      <trkpt lat="42.08897" lon="1.24071">
        <ele>967.2</ele>
        <time>2019-02-12T17:23:01Z</time>
      </trkpt>
      <trkpt lat="42.08888" lon="1.24074">
        <ele>966.8</ele>
        <time>2019-02-12T17:23:07Z</time>
      </trkpt>
      <trkpt lat="42.0888" lon="1.24081">
        <ele>967.8</ele>
        <time>2019-02-12T17:23:12Z</time>
      </trkpt>
      <trkpt lat="42.08871" lon="1.24086">
        <ele>967.8</ele>
        <time>2019-02-12T17:23:18Z</time>
      </trkpt>
      <trkpt lat="42.08862" lon="1.2409">
        <ele>969.3</ele>
        <time>2019-02-12T17:23:23Z</time>
      </trkpt>
      <trkpt lat="42.08852" lon="1.24093">
        <ele>968.6</ele>
        <time>2019-02-12T17:23:29Z</time>
      </trkpt>
      <trkpt lat="42.08842" lon="1.24098">
        <ele>969.7</ele>
        <time>2019-02-12T17:23:35Z</time>
      </trkpt>
      <trkpt lat="42.08832" lon="1.24105">
        <ele>969.7</ele>
        <time>2019-02-12T17:23:42Z</time>
      </trkpt>
      <trkpt lat="42.08823" lon="1.2411">
        <ele>969.6</ele>
        <time>2019-02-12T17:23:48Z</time>
      </trkpt>
      <trkpt lat="42.08815" lon="1.24118">
        <ele>969.7</ele>
        <time>2019-02-12T17:23:53Z</time>
      </trkpt>
      <trkpt lat="42.08807" lon="1.24125">
        <ele>970.7</ele>
        <time>2019-02-12T17:23:59Z</time>
      </trkpt>
      <trkpt lat="42.08799" lon="1.24134">
        <ele>969.3</ele>
        <time>2019-02-12T17:24:04Z</time>
      </trkpt>
      <trkpt lat="42.08791" lon="1.24142">
        <ele>968.6</ele>
        <time>2019-02-12T17:24:10Z</time>
      </trkpt>
      <trkpt lat="42.0878" lon="1.24151">
        <ele>971</ele>
        <time>2019-02-12T17:24:18Z</time>
      </trkpt>
      <trkpt lat="42.08769" lon="1.24162">
        <ele>972.7</ele>
        <time>2019-02-12T17:24:25Z</time>
      </trkpt>
      <trkpt lat="42.08758" lon="1.24166">
        <ele>975.5</ele>
        <time>2019-02-12T17:24:32Z</time>
      </trkpt>
      <trkpt lat="42.08748" lon="1.24172">
        <ele>975.8</ele>
        <time>2019-02-12T17:24:38Z</time>
      </trkpt>
      <trkpt lat="42.08738" lon="1.24176">
        <ele>973.4</ele>
        <time>2019-02-12T17:24:44Z</time>
      </trkpt>
      <trkpt lat="42.08729" lon="1.24183">
        <ele>972.7</ele>
        <time>2019-02-12T17:24:50Z</time>
      </trkpt>
      <trkpt lat="42.08723" lon="1.24192">
        <ele>970.2</ele>
        <time>2019-02-12T17:24:55Z</time>
      </trkpt>
      <trkpt lat="42.08719" lon="1.24205">
        <ele>971.7</ele>
        <time>2019-02-12T17:25:01Z</time>
      </trkpt>
      <trkpt lat="42.08715" lon="1.24219">
        <ele>972.7</ele>
        <time>2019-02-12T17:25:07Z</time>
      </trkpt>
      <trkpt lat="42.08713" lon="1.24232">
        <ele>972.7</ele>
        <time>2019-02-12T17:25:13Z</time>
      </trkpt>
      <trkpt lat="42.08712" lon="1.24247">
        <ele>972.6</ele>
        <time>2019-02-12T17:25:19Z</time>
      </trkpt>
      <trkpt lat="42.08706" lon="1.24259">
        <ele>971.6</ele>
        <time>2019-02-12T17:25:25Z</time>
      </trkpt>
      <trkpt lat="42.08703" lon="1.24271">
        <ele>970.2</ele>
        <time>2019-02-12T17:25:31Z</time>
      </trkpt>
      <trkpt lat="42.08698" lon="1.24282">
        <ele>967.8</ele>
        <time>2019-02-12T17:25:37Z</time>
      </trkpt>
      <trkpt lat="42.08688" lon="1.24291">
        <ele>968.7</ele>
        <time>2019-02-12T17:25:43Z</time>
      </trkpt>
      <trkpt lat="42.08678" lon="1.24295">
        <ele>966.9</ele>
        <time>2019-02-12T17:25:49Z</time>
      </trkpt>
      <trkpt lat="42.0867" lon="1.24304">
        <ele>965.5</ele>
        <time>2019-02-12T17:25:55Z</time>
      </trkpt>
      <trkpt lat="42.08663" lon="1.24315">
        <ele>961.4</ele>
        <time>2019-02-12T17:26:01Z</time>
      </trkpt>
      <trkpt lat="42.08659" lon="1.24328">
        <ele>960</ele>
        <time>2019-02-12T17:26:07Z</time>
      </trkpt>
      <trkpt lat="42.08651" lon="1.24336">
        <ele>960</ele>
        <time>2019-02-12T17:26:13Z</time>
      </trkpt>
      <trkpt lat="42.08643" lon="1.24339">
        <ele>959.6</ele>
        <time>2019-02-12T17:26:18Z</time>
      </trkpt>
      <trkpt lat="42.08635" lon="1.24347">
        <ele>958.6</ele>
        <time>2019-02-12T17:26:24Z</time>
      </trkpt>
      <trkpt lat="42.08625" lon="1.24355">
        <ele>958</ele>
        <time>2019-02-12T17:26:30Z</time>
      </trkpt>
      <trkpt lat="42.0862" lon="1.2437">
        <ele>957.3</ele>
        <time>2019-02-12T17:26:37Z</time>
      </trkpt>
      <trkpt lat="42.08613" lon="1.24382">
        <ele>953.8</ele>
        <time>2019-02-12T17:26:44Z</time>
      </trkpt>
      <trkpt lat="42.08606" lon="1.24395">
        <ele>950.1</ele>
        <time>2019-02-12T17:26:50Z</time>
      </trkpt>
      <trkpt lat="42.08601" lon="1.24405">
        <ele>949</ele>
        <time>2019-02-12T17:26:56Z</time>
      </trkpt>
      <trkpt lat="42.08588" lon="1.24415">
        <ele>948.1</ele>
        <time>2019-02-12T17:27:04Z</time>
      </trkpt>
      <trkpt lat="42.0858" lon="1.24424">
        <ele>949.1</ele>
        <time>2019-02-12T17:27:10Z</time>
      </trkpt>
      <trkpt lat="42.08571" lon="1.24438">
        <ele>947</ele>
        <time>2019-02-12T17:27:18Z</time>
      </trkpt>
      <trkpt lat="42.08566" lon="1.24454">
        <ele>947.1</ele>
        <time>2019-02-12T17:27:25Z</time>
      </trkpt>
      <trkpt lat="42.08559" lon="1.24463">
        <ele>946.7</ele>
        <time>2019-02-12T17:27:31Z</time>
      </trkpt>
      <trkpt lat="42.08548" lon="1.24475">
        <ele>945.2</ele>
        <time>2019-02-12T17:27:39Z</time>
      </trkpt>
      <trkpt lat="42.0854" lon="1.24485">
        <ele>942.8</ele>
        <time>2019-02-12T17:27:45Z</time>
      </trkpt>
      <trkpt lat="42.08531" lon="1.24491">
        <ele>939.9</ele>
        <time>2019-02-12T17:27:51Z</time>
      </trkpt>
      <trkpt lat="42.08523" lon="1.24503">
        <ele>937</ele>
        <time>2019-02-12T17:27:58Z</time>
      </trkpt>
      <trkpt lat="42.08519" lon="1.24516">
        <ele>933.7</ele>
        <time>2019-02-12T17:28:04Z</time>
      </trkpt>
      <trkpt lat="42.08511" lon="1.24522">
        <ele>931.3</ele>
        <time>2019-02-12T17:28:09Z</time>
      </trkpt>
      <trkpt lat="42.08501" lon="1.24529">
        <ele>931.3</ele>
        <time>2019-02-12T17:28:15Z</time>
      </trkpt>
      <trkpt lat="42.0849" lon="1.24535">
        <ele>927.5</ele>
        <time>2019-02-12T17:28:22Z</time>
      </trkpt>
      <trkpt lat="42.08482" lon="1.24547">
        <ele>923.4</ele>
        <time>2019-02-12T17:28:29Z</time>
      </trkpt>
      <trkpt lat="42.08478" lon="1.24557">
        <ele>922.1</ele>
        <time>2019-02-12T17:28:34Z</time>
      </trkpt>
      <trkpt lat="42.08469" lon="1.24564">
        <ele>918.6</ele>
        <time>2019-02-12T17:28:40Z</time>
      </trkpt>
      <trkpt lat="42.0846" lon="1.24571">
        <ele>917.8</ele>
        <time>2019-02-12T17:28:46Z</time>
      </trkpt>
      <trkpt lat="42.08452" lon="1.24575">
        <ele>915.8</ele>
        <time>2019-02-12T17:28:50Z</time>
      </trkpt>
      <trkpt lat="42.08445" lon="1.2457">
        <ele>913.9</ele>
        <time>2019-02-12T17:28:55Z</time>
      </trkpt>
      <trkpt lat="42.08435" lon="1.24571">
        <ele>910.1</ele>
        <time>2019-02-12T17:29:01Z</time>
      </trkpt>
      <trkpt lat="42.08425" lon="1.24581">
        <ele>906.3</ele>
        <time>2019-02-12T17:29:08Z</time>
      </trkpt>
      <trkpt lat="42.08419" lon="1.2459">
        <ele>903.8</ele>
        <time>2019-02-12T17:29:13Z</time>
      </trkpt>
      <trkpt lat="42.08409" lon="1.24599">
        <ele>905.3</ele>
        <time>2019-02-12T17:29:20Z</time>
      </trkpt>
      <trkpt lat="42.08401" lon="1.2461">
        <ele>906.3</ele>
        <time>2019-02-12T17:29:26Z</time>
      </trkpt>
      <trkpt lat="42.08399" lon="1.24622">
        <ele>906.7</ele>
        <time>2019-02-12T17:29:32Z</time>
      </trkpt>
      <trkpt lat="42.0839" lon="1.24631">
        <ele>908.6</ele>
        <time>2019-02-12T17:29:38Z</time>
      </trkpt>
      <trkpt lat="42.08385" lon="1.24641">
        <ele>910</ele>
        <time>2019-02-12T17:29:43Z</time>
      </trkpt>
      <trkpt lat="42.08383" lon="1.24655">
        <ele>913</ele>
        <time>2019-02-12T17:29:49Z</time>
      </trkpt>
      <trkpt lat="42.08378" lon="1.24673">
        <ele>915.8</ele>
        <time>2019-02-12T17:29:57Z</time>
      </trkpt>
      <trkpt lat="42.08362" lon="1.24682">
        <ele>917.3</ele>
        <time>2019-02-12T17:30:07Z</time>
      </trkpt>
      <trkpt lat="42.08345" lon="1.2469">
        <ele>920.3</ele>
        <time>2019-02-12T17:30:18Z</time>
      </trkpt>
      <trkpt lat="42.08335" lon="1.247">
        <ele>922</ele>
        <time>2019-02-12T17:30:25Z</time>
      </trkpt>
      <trkpt lat="42.08325" lon="1.2471">
        <ele>924.5</ele>
        <time>2019-02-12T17:30:32Z</time>
      </trkpt>
      <trkpt lat="42.08315" lon="1.24727">
        <ele>927.8</ele>
        <time>2019-02-12T17:30:41Z</time>
      </trkpt>
      <trkpt lat="42.08304" lon="1.24736">
        <ele>928.8</ele>
        <time>2019-02-12T17:30:48Z</time>
      </trkpt>
      <trkpt lat="42.083" lon="1.24751">
        <ele>928.3</ele>
        <time>2019-02-12T17:30:55Z</time>
      </trkpt>
      <trkpt lat="42.0829" lon="1.24763">
        <ele>930.2</ele>
        <time>2019-02-12T17:31:02Z</time>
      </trkpt>
      <trkpt lat="42.08284" lon="1.24776">
        <ele>931.3</ele>
        <time>2019-02-12T17:31:09Z</time>
      </trkpt>
      <trkpt lat="42.08274" lon="1.24785">
        <ele>932.2</ele>
        <time>2019-02-12T17:31:16Z</time>
      </trkpt>
      <trkpt lat="42.08265" lon="1.248">
        <ele>930.6</ele>
        <time>2019-02-12T17:31:25Z</time>
      </trkpt>
      <trkpt lat="42.08259" lon="1.24812">
        <ele>929.3</ele>
        <time>2019-02-12T17:31:30Z</time>
      </trkpt>
      <trkpt lat="42.08253" lon="1.24821">
        <ele>928.2</ele>
        <time>2019-02-12T17:31:36Z</time>
      </trkpt>
      <trkpt lat="42.08244" lon="1.24829">
        <ele>927.4</ele>
        <time>2019-02-12T17:31:42Z</time>
      </trkpt>
      <trkpt lat="42.08239" lon="1.2484">
        <ele>927.8</ele>
        <time>2019-02-12T17:31:47Z</time>
      </trkpt>
      <trkpt lat="42.08236" lon="1.2485">
        <ele>925.4</ele>
        <time>2019-02-12T17:31:52Z</time>
      </trkpt>
      <trkpt lat="42.08231" lon="1.24861">
        <ele>923.1</ele>
        <time>2019-02-12T17:31:57Z</time>
      </trkpt>
      <trkpt lat="42.08227" lon="1.24872">
        <ele>920.6</ele>
        <time>2019-02-12T17:32:02Z</time>
      </trkpt>
      <trkpt lat="42.08224" lon="1.24883">
        <ele>919.2</ele>
        <time>2019-02-12T17:32:07Z</time>
      </trkpt>
      <trkpt lat="42.08217" lon="1.24895">
        <ele>918.2</ele>
        <time>2019-02-12T17:32:13Z</time>
      </trkpt>
      <trkpt lat="42.0821" lon="1.24904">
        <ele>916.2</ele>
        <time>2019-02-12T17:32:19Z</time>
      </trkpt>
      <trkpt lat="42.08206" lon="1.24914">
        <ele>914.8</ele>
        <time>2019-02-12T17:32:24Z</time>
      </trkpt>
      <trkpt lat="42.08199" lon="1.24924">
        <ele>912.4</ele>
        <time>2019-02-12T17:32:30Z</time>
      </trkpt>
      <trkpt lat="42.08191" lon="1.24932">
        <ele>911.5</ele>
        <time>2019-02-12T17:32:35Z</time>
      </trkpt>
      <trkpt lat="42.08185" lon="1.24938">
        <ele>909</ele>
        <time>2019-02-12T17:32:40Z</time>
      </trkpt>
      <trkpt lat="42.08176" lon="1.24947">
        <ele>907.6</ele>
        <time>2019-02-12T17:32:46Z</time>
      </trkpt>
      <trkpt lat="42.08166" lon="1.24953">
        <ele>907.2</ele>
        <time>2019-02-12T17:32:52Z</time>
      </trkpt>
      <trkpt lat="42.0816" lon="1.2496">
        <ele>906.7</ele>
        <time>2019-02-12T17:32:57Z</time>
      </trkpt>
      <trkpt lat="42.08153" lon="1.24966">
        <ele>906.2</ele>
        <time>2019-02-12T17:33:02Z</time>
      </trkpt>
      <trkpt lat="42.08145" lon="1.24975">
        <ele>906.3</ele>
        <time>2019-02-12T17:33:08Z</time>
      </trkpt>
      <trkpt lat="42.08137" lon="1.24985">
        <ele>907.6</ele>
        <time>2019-02-12T17:33:14Z</time>
      </trkpt>
      <trkpt lat="42.08124" lon="1.24996">
        <ele>909.6</ele>
        <time>2019-02-12T17:33:23Z</time>
      </trkpt>
      <trkpt lat="42.08115" lon="1.25007">
        <ele>910</ele>
        <time>2019-02-12T17:33:29Z</time>
      </trkpt>
      <trkpt lat="42.08107" lon="1.25012">
        <ele>912.4</ele>
        <time>2019-02-12T17:33:35Z</time>
      </trkpt>
      <trkpt lat="42.08099" lon="1.25022">
        <ele>914.8</ele>
        <time>2019-02-12T17:33:41Z</time>
      </trkpt>
      <trkpt lat="42.08091" lon="1.25033">
        <ele>916.3</ele>
        <time>2019-02-12T17:33:47Z</time>
      </trkpt>
      <trkpt lat="42.08084" lon="1.2504">
        <ele>916.8</ele>
        <time>2019-02-12T17:33:52Z</time>
      </trkpt>
      <trkpt lat="42.08078" lon="1.25049">
        <ele>917.2</ele>
        <time>2019-02-12T17:33:58Z</time>
      </trkpt>
      <trkpt lat="42.0807" lon="1.25056">
        <ele>917.9</ele>
        <time>2019-02-12T17:34:03Z</time>
      </trkpt>
      <trkpt lat="42.08063" lon="1.25064">
        <ele>917.9</ele>
        <time>2019-02-12T17:34:08Z</time>
      </trkpt>
      <trkpt lat="42.08058" lon="1.25073">
        <ele>916.9</ele>
        <time>2019-02-12T17:34:13Z</time>
      </trkpt>
      <trkpt lat="42.08051" lon="1.25084">
        <ele>914.5</ele>
        <time>2019-02-12T17:34:19Z</time>
      </trkpt>
      <trkpt lat="42.08046" lon="1.25092">
        <ele>912</ele>
        <time>2019-02-12T17:34:24Z</time>
      </trkpt>
      <trkpt lat="42.08039" lon="1.25101">
        <ele>913.4</ele>
        <time>2019-02-12T17:34:29Z</time>
      </trkpt>
      <trkpt lat="42.08034" lon="1.25112">
        <ele>912.1</ele>
        <time>2019-02-12T17:34:34Z</time>
      </trkpt>
      <trkpt lat="42.08029" lon="1.2512">
        <ele>909.6</ele>
        <time>2019-02-12T17:34:39Z</time>
      </trkpt>
      <trkpt lat="42.08026" lon="1.25132">
        <ele>908.7</ele>
        <time>2019-02-12T17:34:44Z</time>
      </trkpt>
      <trkpt lat="42.08021" lon="1.25143">
        <ele>909.1</ele>
        <time>2019-02-12T17:34:50Z</time>
      </trkpt>
      <trkpt lat="42.08014" lon="1.25154">
        <ele>910.6</ele>
        <time>2019-02-12T17:34:56Z</time>
      </trkpt>
      <trkpt lat="42.08008" lon="1.25164">
        <ele>910.7</ele>
        <time>2019-02-12T17:35:01Z</time>
      </trkpt>
      <trkpt lat="42.08006" lon="1.25177">
        <ele>910</ele>
        <time>2019-02-12T17:35:07Z</time>
      </trkpt>
      <trkpt lat="42.08003" lon="1.25189">
        <ele>911.1</ele>
        <time>2019-02-12T17:35:12Z</time>
      </trkpt>
      <trkpt lat="42.08" lon="1.25199">
        <ele>913.1</ele>
        <time>2019-02-12T17:35:17Z</time>
      </trkpt>
      <trkpt lat="42.0799" lon="1.25207">
        <ele>915.8</ele>
        <time>2019-02-12T17:35:23Z</time>
      </trkpt>
      <trkpt lat="42.07982" lon="1.25218">
        <ele>917.2</ele>
        <time>2019-02-12T17:35:30Z</time>
      </trkpt>
      <trkpt lat="42.07974" lon="1.25227">
        <ele>917.3</ele>
        <time>2019-02-12T17:35:36Z</time>
      </trkpt>
      <trkpt lat="42.07968" lon="1.25236">
        <ele>917.3</ele>
        <time>2019-02-12T17:35:41Z</time>
      </trkpt>
      <trkpt lat="42.07961" lon="1.25246">
        <ele>917.3</ele>
        <time>2019-02-12T17:35:47Z</time>
      </trkpt>
      <trkpt lat="42.07954" lon="1.25254">
        <ele>915.9</ele>
        <time>2019-02-12T17:35:52Z</time>
      </trkpt>
      <trkpt lat="42.07947" lon="1.25264">
        <ele>913.4</ele>
        <time>2019-02-12T17:35:58Z</time>
      </trkpt>
      <trkpt lat="42.07938" lon="1.25274">
        <ele>912.4</ele>
        <time>2019-02-12T17:36:05Z</time>
      </trkpt>
      <trkpt lat="42.07932" lon="1.25281">
        <ele>913.1</ele>
        <time>2019-02-12T17:36:09Z</time>
      </trkpt>
      <trkpt lat="42.07925" lon="1.25289">
        <ele>911.4</ele>
        <time>2019-02-12T17:36:15Z</time>
      </trkpt>
      <trkpt lat="42.07918" lon="1.25297">
        <ele>912.4</ele>
        <time>2019-02-12T17:36:20Z</time>
      </trkpt>
      <trkpt lat="42.07911" lon="1.25306">
        <ele>913.4</ele>
        <time>2019-02-12T17:36:25Z</time>
      </trkpt>
      <trkpt lat="42.07905" lon="1.25314">
        <ele>914.4</ele>
        <time>2019-02-12T17:36:30Z</time>
      </trkpt>
      <trkpt lat="42.07896" lon="1.25319">
        <ele>914.9</ele>
        <time>2019-02-12T17:36:35Z</time>
      </trkpt>
      <trkpt lat="42.07887" lon="1.25322">
        <ele>914.9</ele>
        <time>2019-02-12T17:36:41Z</time>
      </trkpt>
      <trkpt lat="42.07878" lon="1.25324">
        <ele>914.8</ele>
        <time>2019-02-12T17:36:46Z</time>
      </trkpt>
      <trkpt lat="42.07868" lon="1.25329">
        <ele>915.5</ele>
        <time>2019-02-12T17:36:52Z</time>
      </trkpt>
      <trkpt lat="42.07861" lon="1.25336">
        <ele>915.9</ele>
        <time>2019-02-12T17:36:57Z</time>
      </trkpt>
      <trkpt lat="42.07855" lon="1.25346">
        <ele>911.1</ele>
        <time>2019-02-12T17:37:02Z</time>
      </trkpt>
      <trkpt lat="42.07852" lon="1.25356">
        <ele>906.2</ele>
        <time>2019-02-12T17:37:07Z</time>
      </trkpt>
      <trkpt lat="42.0785" lon="1.2537">
        <ele>907.6</ele>
        <time>2019-02-12T17:37:13Z</time>
      </trkpt>
      <trkpt lat="42.07847" lon="1.25382">
        <ele>907.2</ele>
        <time>2019-02-12T17:37:18Z</time>
      </trkpt>
      <trkpt lat="42.07846" lon="1.25392">
        <ele>907.2</ele>
        <time>2019-02-12T17:37:23Z</time>
      </trkpt>
      <trkpt lat="42.07842" lon="1.25406">
        <ele>908.2</ele>
        <time>2019-02-12T17:37:29Z</time>
      </trkpt>
      <trkpt lat="42.07837" lon="1.25417">
        <ele>907.7</ele>
        <time>2019-02-12T17:37:34Z</time>
      </trkpt>
      <trkpt lat="42.07832" lon="1.25428">
        <ele>908.3</ele>
        <time>2019-02-12T17:37:40Z</time>
      </trkpt>
      <trkpt lat="42.07826" lon="1.2544">
        <ele>908.3</ele>
        <time>2019-02-12T17:37:46Z</time>
      </trkpt>
      <trkpt lat="42.0782" lon="1.25453">
        <ele>907.6</ele>
        <time>2019-02-12T17:37:53Z</time>
      </trkpt>
      <trkpt lat="42.07813" lon="1.25461">
        <ele>906.7</ele>
        <time>2019-02-12T17:37:58Z</time>
      </trkpt>
      <trkpt lat="42.07812" lon="1.25472">
        <ele>905.2</ele>
        <time>2019-02-12T17:38:03Z</time>
      </trkpt>
      <trkpt lat="42.07808" lon="1.25486">
        <ele>903.9</ele>
        <time>2019-02-12T17:38:09Z</time>
      </trkpt>
      <trkpt lat="42.07808" lon="1.255">
        <ele>903.8</ele>
        <time>2019-02-12T17:38:15Z</time>
      </trkpt>
      <trkpt lat="42.0781" lon="1.2551">
        <ele>903.9</ele>
        <time>2019-02-12T17:38:19Z</time>
      </trkpt>
      <trkpt lat="42.07811" lon="1.2552">
        <ele>899</ele>
        <time>2019-02-12T17:38:24Z</time>
      </trkpt>
      <trkpt lat="42.07815" lon="1.25535">
        <ele>897.6</ele>
        <time>2019-02-12T17:38:30Z</time>
      </trkpt>
      <trkpt lat="42.07818" lon="1.25548">
        <ele>896.1</ele>
        <time>2019-02-12T17:38:36Z</time>
      </trkpt>
      <trkpt lat="42.07817" lon="1.25561">
        <ele>895.6</ele>
        <time>2019-02-12T17:38:41Z</time>
      </trkpt>
      <trkpt lat="42.07825" lon="1.2557">
        <ele>893.7</ele>
        <time>2019-02-12T17:38:47Z</time>
      </trkpt>
      <trkpt lat="42.0783" lon="1.25581">
        <ele>893.6</ele>
        <time>2019-02-12T17:38:53Z</time>
      </trkpt>
      <trkpt lat="42.07831" lon="1.25596">
        <ele>894.6</ele>
        <time>2019-02-12T17:38:59Z</time>
      </trkpt>
      <trkpt lat="42.07829" lon="1.25612">
        <ele>895.7</ele>
        <time>2019-02-12T17:39:06Z</time>
      </trkpt>
      <trkpt lat="42.0783" lon="1.25624">
        <ele>897.6</ele>
        <time>2019-02-12T17:39:11Z</time>
      </trkpt>
      <trkpt lat="42.07827" lon="1.25637">
        <ele>899.4</ele>
        <time>2019-02-12T17:39:17Z</time>
      </trkpt>
      <trkpt lat="42.07823" lon="1.25648">
        <ele>901.8</ele>
        <time>2019-02-12T17:39:22Z</time>
      </trkpt>
      <trkpt lat="42.07818" lon="1.25661">
        <ele>905.2</ele>
        <time>2019-02-12T17:39:29Z</time>
      </trkpt>
      <trkpt lat="42.07832" lon="1.25667">
        <ele>907.2</ele>
        <time>2019-02-12T17:39:37Z</time>
      </trkpt>
      <trkpt lat="42.07838" lon="1.25684">
        <ele>907.2</ele>
        <time>2019-02-12T17:39:45Z</time>
      </trkpt>
      <trkpt lat="42.07846" lon="1.2569">
        <ele>908.7</ele>
        <time>2019-02-12T17:39:50Z</time>
      </trkpt>
      <trkpt lat="42.07854" lon="1.25702">
        <ele>910.6</ele>
        <time>2019-02-12T17:39:57Z</time>
      </trkpt>
      <trkpt lat="42.07862" lon="1.25715">
        <ele>911.4</ele>
        <time>2019-02-12T17:40:05Z</time>
      </trkpt>
      <trkpt lat="42.07871" lon="1.25722">
        <ele>912.4</ele>
        <time>2019-02-12T17:40:10Z</time>
      </trkpt>
      <trkpt lat="42.07879" lon="1.25731">
        <ele>913.1</ele>
        <time>2019-02-12T17:40:16Z</time>
      </trkpt>
      <trkpt lat="42.0789" lon="1.25739">
        <ele>912</ele>
        <time>2019-02-12T17:40:24Z</time>
      </trkpt>
      <trkpt lat="42.07901" lon="1.25749">
        <ele>911.1</ele>
        <time>2019-02-12T17:40:31Z</time>
      </trkpt>
      <trkpt lat="42.07906" lon="1.25759">
        <ele>909.6</ele>
        <time>2019-02-12T17:40:36Z</time>
      </trkpt>
      <trkpt lat="42.07906" lon="1.25771">
        <ele>910</ele>
        <time>2019-02-12T17:40:41Z</time>
      </trkpt>
      <trkpt lat="42.07905" lon="1.25783">
        <ele>907.6</ele>
        <time>2019-02-12T17:40:46Z</time>
      </trkpt>
      <trkpt lat="42.07899" lon="1.25795">
        <ele>908.2</ele>
        <time>2019-02-12T17:40:53Z</time>
      </trkpt>
      <trkpt lat="42.07895" lon="1.25807">
        <ele>908.2</ele>
        <time>2019-02-12T17:40:58Z</time>
      </trkpt>
      <trkpt lat="42.07893" lon="1.25822">
        <ele>911.4</ele>
        <time>2019-02-12T17:41:04Z</time>
      </trkpt>
      <trkpt lat="42.07888" lon="1.25839">
        <ele>914.9</ele>
        <time>2019-02-12T17:41:12Z</time>
      </trkpt>
      <trkpt lat="42.07891" lon="1.25859">
        <ele>917.8</ele>
        <time>2019-02-12T17:41:21Z</time>
      </trkpt>
      <trkpt lat="42.0789" lon="1.25874">
        <ele>919.2</ele>
        <time>2019-02-12T17:41:27Z</time>
      </trkpt>
      <trkpt lat="42.07896" lon="1.25888">
        <ele>921.1</ele>
        <time>2019-02-12T17:41:34Z</time>
      </trkpt>
      <trkpt lat="42.07896" lon="1.25902">
        <ele>922.1</ele>
        <time>2019-02-12T17:41:40Z</time>
      </trkpt>
      <trkpt lat="42.079" lon="1.25918">
        <ele>924.4</ele>
        <time>2019-02-12T17:41:47Z</time>
      </trkpt>
      <trkpt lat="42.07903" lon="1.25934">
        <ele>924.4</ele>
        <time>2019-02-12T17:41:54Z</time>
      </trkpt>
      <trkpt lat="42.07903" lon="1.25947">
        <ele>925.4</ele>
        <time>2019-02-12T17:41:59Z</time>
      </trkpt>
      <trkpt lat="42.07898" lon="1.25956">
        <ele>918.7</ele>
        <time>2019-02-12T17:42:04Z</time>
      </trkpt>
      <trkpt lat="42.07887" lon="1.25959">
        <ele>913.4</ele>
        <time>2019-02-12T17:42:10Z</time>
      </trkpt>
      <trkpt lat="42.07865" lon="1.25961">
        <ele>912.5</ele>
        <time>2019-02-12T17:42:23Z</time>
      </trkpt>
      <trkpt lat="42.0785" lon="1.25968">
        <ele>911.5</ele>
        <time>2019-02-12T17:42:32Z</time>
      </trkpt>
      <trkpt lat="42.07836" lon="1.25973">
        <ele>911</ele>
        <time>2019-02-12T17:42:41Z</time>
      </trkpt>
      <trkpt lat="42.07823" lon="1.25974">
        <ele>910.6</ele>
        <time>2019-02-12T17:42:48Z</time>
      </trkpt>
      <trkpt lat="42.07808" lon="1.25967">
        <ele>909</ele>
        <time>2019-02-12T17:42:57Z</time>
      </trkpt>
      <trkpt lat="42.07796" lon="1.25963">
        <ele>909.1</ele>
        <time>2019-02-12T17:43:04Z</time>
      </trkpt>
      <trkpt lat="42.07784" lon="1.25957">
        <ele>910</ele>
        <time>2019-02-12T17:43:12Z</time>
      </trkpt>
      <trkpt lat="42.07769" lon="1.2595">
        <ele>911</ele>
        <time>2019-02-12T17:43:21Z</time>
      </trkpt>
      <trkpt lat="42.07763" lon="1.25961">
        <ele>909</ele>
        <time>2019-02-12T17:43:26Z</time>
      </trkpt>
      <trkpt lat="42.07757" lon="1.25968">
        <ele>909</ele>
        <time>2019-02-12T17:43:31Z</time>
      </trkpt>
      <trkpt lat="42.07752" lon="1.25977">
        <ele>906.3</ele>
        <time>2019-02-12T17:43:36Z</time>
      </trkpt>
      <trkpt lat="42.07743" lon="1.25982">
        <ele>903.2</ele>
        <time>2019-02-12T17:43:41Z</time>
      </trkpt>
      <trkpt lat="42.07728" lon="1.25985">
        <ele>903.9</ele>
        <time>2019-02-12T17:43:50Z</time>
      </trkpt>
      <trkpt lat="42.0771" lon="1.25997">
        <ele>905.7</ele>
        <time>2019-02-12T17:44:01Z</time>
      </trkpt>
      <trkpt lat="42.07707" lon="1.26021">
        <ele>904.3</ele>
        <time>2019-02-12T17:44:12Z</time>
      </trkpt>
      <trkpt lat="42.07709" lon="1.26027">
        <ele>902.8</ele>
        <time>2019-02-12T17:44:15Z</time>
      </trkpt>
      <trkpt lat="42.07713" lon="1.26042">
        <ele>900.1</ele>
        <time>2019-02-12T17:44:22Z</time>
      </trkpt>
      <trkpt lat="42.07715" lon="1.26055">
        <ele>897.7</ele>
        <time>2019-02-12T17:44:27Z</time>
      </trkpt>
      <trkpt lat="42.07718" lon="1.26068">
        <ele>896.6</ele>
        <time>2019-02-12T17:44:33Z</time>
      </trkpt>
      <trkpt lat="42.07716" lon="1.26086">
        <ele>895.2</ele>
        <time>2019-02-12T17:44:41Z</time>
      </trkpt>
      <trkpt lat="42.07715" lon="1.26103">
        <ele>894.7</ele>
        <time>2019-02-12T17:44:48Z</time>
      </trkpt>
      <trkpt lat="42.07717" lon="1.26119">
        <ele>893.6</ele>
        <time>2019-02-12T17:44:55Z</time>
      </trkpt>
      <trkpt lat="42.07716" lon="1.26131">
        <ele>891.2</ele>
        <time>2019-02-12T17:45:00Z</time>
      </trkpt>
      <trkpt lat="42.07709" lon="1.26141">
        <ele>891.3</ele>
        <time>2019-02-12T17:45:06Z</time>
      </trkpt>
      <trkpt lat="42.07702" lon="1.26152">
        <ele>890.8</ele>
        <time>2019-02-12T17:45:12Z</time>
      </trkpt>
      <trkpt lat="42.07717" lon="1.26176">
        <ele>897.7</ele>
        <time>2019-02-12T17:45:26Z</time>
      </trkpt>
      <trkpt lat="42.07733" lon="1.26186">
        <ele>898.5</ele>
        <time>2019-02-12T17:45:35Z</time>
      </trkpt>
      <trkpt lat="42.07744" lon="1.26195">
        <ele>893.7</ele>
        <time>2019-02-12T17:45:43Z</time>
      </trkpt>
      <trkpt lat="42.07754" lon="1.26203">
        <ele>889.4</ele>
        <time>2019-02-12T17:45:50Z</time>
      </trkpt>
      <trkpt lat="42.07764" lon="1.26213">
        <ele>886.4</ele>
        <time>2019-02-12T17:45:57Z</time>
      </trkpt>
      <trkpt lat="42.07769" lon="1.26221">
        <ele>883.6</ele>
        <time>2019-02-12T17:46:01Z</time>
      </trkpt>
      <trkpt lat="42.07774" lon="1.26232">
        <ele>879.8</ele>
        <time>2019-02-12T17:46:07Z</time>
      </trkpt>
      <trkpt lat="42.07777" lon="1.26247">
        <ele>876.4</ele>
        <time>2019-02-12T17:46:13Z</time>
      </trkpt>
      <trkpt lat="42.07777" lon="1.26263">
        <ele>873.4</ele>
        <time>2019-02-12T17:46:20Z</time>
      </trkpt>
      <trkpt lat="42.07774" lon="1.26282">
        <ele>875.1</ele>
        <time>2019-02-12T17:46:28Z</time>
      </trkpt>
      <trkpt lat="42.07769" lon="1.26294">
        <ele>874.1</ele>
        <time>2019-02-12T17:46:34Z</time>
      </trkpt>
      <trkpt lat="42.07761" lon="1.26303">
        <ele>873.5</ele>
        <time>2019-02-12T17:46:40Z</time>
      </trkpt>
      <trkpt lat="42.07754" lon="1.26311">
        <ele>870.3</ele>
        <time>2019-02-12T17:46:45Z</time>
      </trkpt>
      <trkpt lat="42.07748" lon="1.26319">
        <ele>865.5</ele>
        <time>2019-02-12T17:46:50Z</time>
      </trkpt>
      <trkpt lat="42.07743" lon="1.26332">
        <ele>861.5</ele>
        <time>2019-02-12T17:46:56Z</time>
      </trkpt>
      <trkpt lat="42.07743" lon="1.2635">
        <ele>860</ele>
        <time>2019-02-12T17:47:04Z</time>
      </trkpt>
      <trkpt lat="42.07743" lon="1.26365">
        <ele>861</ele>
        <time>2019-02-12T17:47:10Z</time>
      </trkpt>
      <trkpt lat="42.07738" lon="1.26375">
        <ele>862.1</ele>
        <time>2019-02-12T17:47:15Z</time>
      </trkpt>
      <trkpt lat="42.07733" lon="1.26385">
        <ele>861</ele>
        <time>2019-02-12T17:47:20Z</time>
      </trkpt>
      <trkpt lat="42.07726" lon="1.26395">
        <ele>862.1</ele>
        <time>2019-02-12T17:47:26Z</time>
      </trkpt>
      <trkpt lat="42.07717" lon="1.26402">
        <ele>861.4</ele>
        <time>2019-02-12T17:47:32Z</time>
      </trkpt>
      <trkpt lat="42.07708" lon="1.26403">
        <ele>862.1</ele>
        <time>2019-02-12T17:47:37Z</time>
      </trkpt>
      <trkpt lat="42.07699" lon="1.264">
        <ele>862.5</ele>
        <time>2019-02-12T17:47:42Z</time>
      </trkpt>
      <trkpt lat="42.07691" lon="1.26393">
        <ele>863.4</ele>
        <time>2019-02-12T17:47:48Z</time>
      </trkpt>
      <trkpt lat="42.07683" lon="1.26384">
        <ele>863.4</ele>
        <time>2019-02-12T17:47:54Z</time>
      </trkpt>
      <trkpt lat="42.07676" lon="1.26375">
        <ele>863.8</ele>
        <time>2019-02-12T17:48:00Z</time>
      </trkpt>
      <trkpt lat="42.07669" lon="1.26365">
        <ele>862.4</ele>
        <time>2019-02-12T17:48:06Z</time>
      </trkpt>
      <trkpt lat="42.07663" lon="1.2635">
        <ele>863.8</ele>
        <time>2019-02-12T17:48:12Z</time>
      </trkpt>
      <trkpt lat="42.07656" lon="1.26341">
        <ele>863.4</ele>
        <time>2019-02-12T17:48:18Z</time>
      </trkpt>
      <trkpt lat="42.07647" lon="1.26329">
        <ele>863.8</ele>
        <time>2019-02-12T17:48:26Z</time>
      </trkpt>
      <trkpt lat="42.07641" lon="1.26312">
        <ele>863.1</ele>
        <time>2019-02-12T17:48:33Z</time>
      </trkpt>
      <trkpt lat="42.0763" lon="1.26301">
        <ele>863.1</ele>
        <time>2019-02-12T17:48:41Z</time>
      </trkpt>
      <trkpt lat="42.07622" lon="1.26293">
        <ele>863</ele>
        <time>2019-02-12T17:48:47Z</time>
      </trkpt>
      <trkpt lat="42.07616" lon="1.26282">
        <ele>862.5</ele>
        <time>2019-02-12T17:48:53Z</time>
      </trkpt>
      <trkpt lat="42.07611" lon="1.26266">
        <ele>861.4</ele>
        <time>2019-02-12T17:49:00Z</time>
      </trkpt>
      <trkpt lat="42.07602" lon="1.26257">
        <ele>861.5</ele>
        <time>2019-02-12T17:49:06Z</time>
      </trkpt>
      <trkpt lat="42.07594" lon="1.26251">
        <ele>862.1</ele>
        <time>2019-02-12T17:49:12Z</time>
      </trkpt>
      <trkpt lat="42.07588" lon="1.26245">
        <ele>863.8</ele>
        <time>2019-02-12T17:49:16Z</time>
      </trkpt>
      <trkpt lat="42.07574" lon="1.26244">
        <ele>864.4</ele>
        <time>2019-02-12T17:49:24Z</time>
      </trkpt>
      <trkpt lat="42.0756" lon="1.26244">
        <ele>867.2</ele>
        <time>2019-02-12T17:49:32Z</time>
      </trkpt>
      <trkpt lat="42.07552" lon="1.26239">
        <ele>869.3</ele>
        <time>2019-02-12T17:49:37Z</time>
      </trkpt>
      <trkpt lat="42.07538" lon="1.26241">
        <ele>872</ele>
        <time>2019-02-12T17:49:45Z</time>
      </trkpt>
      <trkpt lat="42.0753" lon="1.26256">
        <ele>872.1</ele>
        <time>2019-02-12T17:49:53Z</time>
      </trkpt>
      <trkpt lat="42.07526" lon="1.26268">
        <ele>869.2</ele>
        <time>2019-02-12T17:49:59Z</time>
      </trkpt>
      <trkpt lat="42.07525" lon="1.26282">
        <ele>868.6</ele>
        <time>2019-02-12T17:50:05Z</time>
      </trkpt>
      <trkpt lat="42.07522" lon="1.26296">
        <ele>869.2</ele>
        <time>2019-02-12T17:50:11Z</time>
      </trkpt>
      <trkpt lat="42.07518" lon="1.26308">
        <ele>865.8</ele>
        <time>2019-02-12T17:50:16Z</time>
      </trkpt>
      <trkpt lat="42.07512" lon="1.26321">
        <ele>864.9</ele>
        <time>2019-02-12T17:50:23Z</time>
      </trkpt>
      <trkpt lat="42.07507" lon="1.26335">
        <ele>866.2</ele>
        <time>2019-02-12T17:50:30Z</time>
      </trkpt>
      <trkpt lat="42.07503" lon="1.26349">
        <ele>867.2</ele>
        <time>2019-02-12T17:50:35Z</time>
      </trkpt>
      <trkpt lat="42.07501" lon="1.26361">
        <ele>868.3</ele>
        <time>2019-02-12T17:50:41Z</time>
      </trkpt>
      <trkpt lat="42.07498" lon="1.26372">
        <ele>867.3</ele>
        <time>2019-02-12T17:50:46Z</time>
      </trkpt>
      <trkpt lat="42.07492" lon="1.26382">
        <ele>866.8</ele>
        <time>2019-02-12T17:50:51Z</time>
      </trkpt>
      <trkpt lat="42.07483" lon="1.26389">
        <ele>865.8</ele>
        <time>2019-02-12T17:50:57Z</time>
      </trkpt>
      <trkpt lat="42.07473" lon="1.26388">
        <ele>860</ele>
        <time>2019-02-12T17:51:03Z</time>
      </trkpt>
      <trkpt lat="42.0746" lon="1.26389">
        <ele>854.9</ele>
        <time>2019-02-12T17:51:11Z</time>
      </trkpt>
      <trkpt lat="42.07446" lon="1.26396">
        <ele>851.5</ele>
        <time>2019-02-12T17:51:19Z</time>
      </trkpt>
      <trkpt lat="42.07438" lon="1.26406">
        <ele>850.1</ele>
        <time>2019-02-12T17:51:25Z</time>
      </trkpt>
      <trkpt lat="42.07427" lon="1.26416">
        <ele>851.1</ele>
        <time>2019-02-12T17:51:33Z</time>
      </trkpt>
      <trkpt lat="42.07417" lon="1.26421">
        <ele>849.4</ele>
        <time>2019-02-12T17:51:39Z</time>
      </trkpt>
      <trkpt lat="42.07408" lon="1.26423">
        <ele>849</ele>
        <time>2019-02-12T17:51:44Z</time>
      </trkpt>
      <trkpt lat="42.07398" lon="1.26424">
        <ele>850.4</ele>
        <time>2019-02-12T17:51:50Z</time>
      </trkpt>
      <trkpt lat="42.07388" lon="1.2642">
        <ele>851</ele>
        <time>2019-02-12T17:51:56Z</time>
      </trkpt>
      <trkpt lat="42.0738" lon="1.26411">
        <ele>852.5</ele>
        <time>2019-02-12T17:52:02Z</time>
      </trkpt>
      <trkpt lat="42.07372" lon="1.26404">
        <ele>854.3</ele>
        <time>2019-02-12T17:52:07Z</time>
      </trkpt>
      <trkpt lat="42.07366" lon="1.26394">
        <ele>855.8</ele>
        <time>2019-02-12T17:52:13Z</time>
      </trkpt>
      <trkpt lat="42.07357" lon="1.26385">
        <ele>853.9</ele>
        <time>2019-02-12T17:52:19Z</time>
      </trkpt>
      <trkpt lat="42.07349" lon="1.26378">
        <ele>854.9</ele>
        <time>2019-02-12T17:52:25Z</time>
      </trkpt>
      <trkpt lat="42.07342" lon="1.26369">
        <ele>854.2</ele>
        <time>2019-02-12T17:52:30Z</time>
      </trkpt>
      <trkpt lat="42.07334" lon="1.2636">
        <ele>851.9</ele>
        <time>2019-02-12T17:52:36Z</time>
      </trkpt>
      <trkpt lat="42.07327" lon="1.26352">
        <ele>851</ele>
        <time>2019-02-12T17:52:42Z</time>
      </trkpt>
      <trkpt lat="42.07316" lon="1.2635">
        <ele>848</ele>
        <time>2019-02-12T17:52:48Z</time>
      </trkpt>
      <trkpt lat="42.07306" lon="1.26354">
        <ele>845.2</ele>
        <time>2019-02-12T17:52:54Z</time>
      </trkpt>
      <trkpt lat="42.07297" lon="1.26349">
        <ele>842.2</ele>
        <time>2019-02-12T17:52:59Z</time>
      </trkpt>
      <trkpt lat="42.07288" lon="1.26343">
        <ele>842.9</ele>
        <time>2019-02-12T17:53:05Z</time>
      </trkpt>
      <trkpt lat="42.0728" lon="1.26337">
        <ele>841.3</ele>
        <time>2019-02-12T17:53:10Z</time>
      </trkpt>
      <trkpt lat="42.07271" lon="1.26332">
        <ele>840.4</ele>
        <time>2019-02-12T17:53:16Z</time>
      </trkpt>
      <trkpt lat="42.07263" lon="1.26326">
        <ele>839.4</ele>
        <time>2019-02-12T17:53:21Z</time>
      </trkpt>
      <trkpt lat="42.07254" lon="1.26325">
        <ele>837</ele>
        <time>2019-02-12T17:53:26Z</time>
      </trkpt>
      <trkpt lat="42.07244" lon="1.26322">
        <ele>832.7</ele>
        <time>2019-02-12T17:53:32Z</time>
      </trkpt>
      <trkpt lat="42.07236" lon="1.26316">
        <ele>830.9</ele>
        <time>2019-02-12T17:53:37Z</time>
      </trkpt>
      <trkpt lat="42.07227" lon="1.26309">
        <ele>826.8</ele>
        <time>2019-02-12T17:53:43Z</time>
      </trkpt>
      <trkpt lat="42.07217" lon="1.26312">
        <ele>825.4</ele>
        <time>2019-02-12T17:53:49Z</time>
      </trkpt>
      <trkpt lat="42.07209" lon="1.26321">
        <ele>823.6</ele>
        <time>2019-02-12T17:53:55Z</time>
      </trkpt>
      <trkpt lat="42.07203" lon="1.2633">
        <ele>821.2</ele>
        <time>2019-02-12T17:54:00Z</time>
      </trkpt>
      <trkpt lat="42.07198" lon="1.2634">
        <ele>820.2</ele>
        <time>2019-02-12T17:54:05Z</time>
      </trkpt>
      <trkpt lat="42.07192" lon="1.26349">
        <ele>819.6</ele>
        <time>2019-02-12T17:54:11Z</time>
      </trkpt>
      <trkpt lat="42.07183" lon="1.26358">
        <ele>816.2</ele>
        <time>2019-02-12T17:54:17Z</time>
      </trkpt>
      <trkpt lat="42.07175" lon="1.26365">
        <ele>815.5</ele>
        <time>2019-02-12T17:54:22Z</time>
      </trkpt>
      <trkpt lat="42.07167" lon="1.26371">
        <ele>816.3</ele>
        <time>2019-02-12T17:54:28Z</time>
      </trkpt>
      <trkpt lat="42.07157" lon="1.26374">
        <ele>817.2</ele>
        <time>2019-02-12T17:54:33Z</time>
      </trkpt>
      <trkpt lat="42.07149" lon="1.26376">
        <ele>819.7</ele>
        <time>2019-02-12T17:54:38Z</time>
      </trkpt>
      <trkpt lat="42.0714" lon="1.26381">
        <ele>822</ele>
        <time>2019-02-12T17:54:44Z</time>
      </trkpt>
      <trkpt lat="42.0713" lon="1.26385">
        <ele>823</ele>
        <time>2019-02-12T17:54:50Z</time>
      </trkpt>
      <trkpt lat="42.0712" lon="1.26387">
        <ele>822.1</ele>
        <time>2019-02-12T17:54:55Z</time>
      </trkpt>
      <trkpt lat="42.07111" lon="1.2639">
        <ele>820.7</ele>
        <time>2019-02-12T17:55:01Z</time>
      </trkpt>
      <trkpt lat="42.07102" lon="1.26391">
        <ele>818.3</ele>
        <time>2019-02-12T17:55:06Z</time>
      </trkpt>
      <trkpt lat="42.07092" lon="1.26395">
        <ele>813.5</ele>
        <time>2019-02-12T17:55:12Z</time>
      </trkpt>
      <trkpt lat="42.07083" lon="1.26396">
        <ele>810.1</ele>
        <time>2019-02-12T17:55:17Z</time>
      </trkpt>
      <trkpt lat="42.07073" lon="1.26394">
        <ele>807.6</ele>
        <time>2019-02-12T17:55:23Z</time>
      </trkpt>
      <trkpt lat="42.07064" lon="1.26395">
        <ele>805.8</ele>
        <time>2019-02-12T17:55:28Z</time>
      </trkpt>
      <trkpt lat="42.07054" lon="1.26396">
        <ele>805.8</ele>
        <time>2019-02-12T17:55:34Z</time>
      </trkpt>
      <trkpt lat="42.07046" lon="1.26395">
        <ele>804.9</ele>
        <time>2019-02-12T17:55:38Z</time>
      </trkpt>
      <trkpt lat="42.07037" lon="1.2639">
        <ele>801.4</ele>
        <time>2019-02-12T17:55:44Z</time>
      </trkpt>
      <trkpt lat="42.07028" lon="1.26391">
        <ele>798.6</ele>
        <time>2019-02-12T17:55:49Z</time>
      </trkpt>
      <trkpt lat="42.07019" lon="1.26396">
        <ele>798.7</ele>
        <time>2019-02-12T17:55:55Z</time>
      </trkpt>
      <trkpt lat="42.0701" lon="1.26399">
        <ele>798.1</ele>
        <time>2019-02-12T17:56:00Z</time>
      </trkpt>
      <trkpt lat="42.07" lon="1.26404">
        <ele>797.7</ele>
        <time>2019-02-12T17:56:06Z</time>
      </trkpt>
      <trkpt lat="42.06989" lon="1.26406">
        <ele>795.6</ele>
        <time>2019-02-12T17:56:12Z</time>
      </trkpt>
      <trkpt lat="42.06981" lon="1.2641">
        <ele>792.9</ele>
        <time>2019-02-12T17:56:17Z</time>
      </trkpt>
      <trkpt lat="42.06974" lon="1.26415">
        <ele>791.4</ele>
        <time>2019-02-12T17:56:22Z</time>
      </trkpt>
      <trkpt lat="42.06964" lon="1.26419">
        <ele>790.8</ele>
        <time>2019-02-12T17:56:28Z</time>
      </trkpt>
      <trkpt lat="42.06957" lon="1.26413">
        <ele>790.4</ele>
        <time>2019-02-12T17:56:33Z</time>
      </trkpt>
      <trkpt lat="42.06949" lon="1.26406">
        <ele>786.5</ele>
        <time>2019-02-12T17:56:38Z</time>
      </trkpt>
      <trkpt lat="42.06942" lon="1.26401">
        <ele>782.6</ele>
        <time>2019-02-12T17:56:43Z</time>
      </trkpt>
      <trkpt lat="42.06942" lon="1.26393">
        <ele>780.2</ele>
        <time>2019-02-12T17:56:46Z</time>
      </trkpt>
      <trkpt lat="42.06952" lon="1.26387">
        <ele>779.2</ele>
        <time>2019-02-12T17:56:53Z</time>
      </trkpt>
      <trkpt lat="42.06962" lon="1.26378">
        <ele>777.9</ele>
        <time>2019-02-12T17:56:59Z</time>
      </trkpt>
      <trkpt lat="42.0697" lon="1.26367">
        <ele>776.5</ele>
        <time>2019-02-12T17:57:06Z</time>
      </trkpt>
      <trkpt lat="42.0698" lon="1.26359">
        <ele>775.4</ele>
        <time>2019-02-12T17:57:13Z</time>
      </trkpt>
      <trkpt lat="42.06987" lon="1.26344">
        <ele>772.6</ele>
        <time>2019-02-12T17:57:20Z</time>
      </trkpt>
      <trkpt lat="42.06987" lon="1.26327">
        <ele>770.6</ele>
        <time>2019-02-12T17:57:27Z</time>
      </trkpt>
      <trkpt lat="42.06994" lon="1.26318">
        <ele>771.3</ele>
        <time>2019-02-12T17:57:33Z</time>
      </trkpt>
      <trkpt lat="42.07001" lon="1.2631">
        <ele>769.6</ele>
        <time>2019-02-12T17:57:38Z</time>
      </trkpt>
      <trkpt lat="42.07006" lon="1.26302">
        <ele>768.9</ele>
        <time>2019-02-12T17:57:43Z</time>
      </trkpt>
      <trkpt lat="42.07013" lon="1.26289">
        <ele>766.8</ele>
        <time>2019-02-12T17:57:49Z</time>
      </trkpt>
      <trkpt lat="42.07016" lon="1.26277">
        <ele>764.8</ele>
        <time>2019-02-12T17:57:54Z</time>
      </trkpt>
      <trkpt lat="42.07024" lon="1.26273">
        <ele>764.9</ele>
        <time>2019-02-12T17:58:00Z</time>
      </trkpt>
      <trkpt lat="42.07028" lon="1.2626">
        <ele>764.4</ele>
        <time>2019-02-12T17:58:06Z</time>
      </trkpt>
      <trkpt lat="42.07034" lon="1.26249">
        <ele>763.4</ele>
        <time>2019-02-12T17:58:12Z</time>
      </trkpt>
      <trkpt lat="42.07028" lon="1.26234">
        <ele>763</ele>
        <time>2019-02-12T17:58:18Z</time>
      </trkpt>
      <trkpt lat="42.07026" lon="1.26219">
        <ele>762.1</ele>
        <time>2019-02-12T17:58:25Z</time>
      </trkpt>
      <trkpt lat="42.0702" lon="1.26204">
        <ele>759.7</ele>
        <time>2019-02-12T17:58:32Z</time>
      </trkpt>
      <trkpt lat="42.07018" lon="1.26191">
        <ele>757.6</ele>
        <time>2019-02-12T17:58:38Z</time>
      </trkpt>
      <trkpt lat="42.07016" lon="1.26177">
        <ele>755.2</ele>
        <time>2019-02-12T17:58:44Z</time>
      </trkpt>
      <trkpt lat="42.07009" lon="1.26161">
        <ele>755.8</ele>
        <time>2019-02-12T17:58:52Z</time>
      </trkpt>
      <trkpt lat="42.07009" lon="1.26148">
        <ele>757.2</ele>
        <time>2019-02-12T17:58:57Z</time>
      </trkpt>
      <trkpt lat="42.07009" lon="1.26134">
        <ele>758.2</ele>
        <time>2019-02-12T17:59:03Z</time>
      </trkpt>
      <trkpt lat="42.07009" lon="1.2612">
        <ele>758.7</ele>
        <time>2019-02-12T17:59:09Z</time>
      </trkpt>
      <trkpt lat="42.07007" lon="1.26106">
        <ele>759.7</ele>
        <time>2019-02-12T17:59:15Z</time>
      </trkpt>
      <trkpt lat="42.07005" lon="1.26092">
        <ele>759.7</ele>
        <time>2019-02-12T17:59:21Z</time>
      </trkpt>
      <trkpt lat="42.07005" lon="1.26077">
        <ele>759.7</ele>
        <time>2019-02-12T17:59:28Z</time>
      </trkpt>
      <trkpt lat="42.07005" lon="1.26064">
        <ele>760</ele>
        <time>2019-02-12T17:59:33Z</time>
      </trkpt>
      <trkpt lat="42.07011" lon="1.26053">
        <ele>760.1</ele>
        <time>2019-02-12T17:59:39Z</time>
      </trkpt>
      <trkpt lat="42.07016" lon="1.26039">
        <ele>759.6</ele>
        <time>2019-02-12T17:59:45Z</time>
      </trkpt>
      <trkpt lat="42.07019" lon="1.26027">
        <ele>758.7</ele>
        <time>2019-02-12T17:59:51Z</time>
      </trkpt>
      <trkpt lat="42.07023" lon="1.2601">
        <ele>757.2</ele>
        <time>2019-02-12T17:59:58Z</time>
      </trkpt>
      <trkpt lat="42.07023" lon="1.25996">
        <ele>755.8</ele>
        <time>2019-02-12T18:00:04Z</time>
      </trkpt>
      <trkpt lat="42.07017" lon="1.25978">
        <ele>753.4</ele>
        <time>2019-02-12T18:00:13Z</time>
      </trkpt>
      <trkpt lat="42.07015" lon="1.25964">
        <ele>751</ele>
        <time>2019-02-12T18:00:19Z</time>
      </trkpt>
      <trkpt lat="42.07012" lon="1.25953">
        <ele>749</ele>
        <time>2019-02-12T18:00:24Z</time>
      </trkpt>
      <trkpt lat="42.07003" lon="1.25957">
        <ele>746.6</ele>
        <time>2019-02-12T18:00:29Z</time>
      </trkpt>
      <trkpt lat="42.07" lon="1.25969">
        <ele>744.3</ele>
        <time>2019-02-12T18:00:34Z</time>
      </trkpt>
      <trkpt lat="42.07002" lon="1.25981">
        <ele>741.8</ele>
        <time>2019-02-12T18:00:40Z</time>
      </trkpt>
      <trkpt lat="42.07001" lon="1.26">
        <ele>738</ele>
        <time>2019-02-12T18:00:48Z</time>
      </trkpt>
      <trkpt lat="42.06991" lon="1.26015">
        <ele>734.2</ele>
        <time>2019-02-12T18:00:56Z</time>
      </trkpt>
      <trkpt lat="42.06982" lon="1.26027">
        <ele>732.3</ele>
        <time>2019-02-12T18:01:03Z</time>
      </trkpt>
      <trkpt lat="42.06978" lon="1.26039">
        <ele>728.8</ele>
        <time>2019-02-12T18:01:09Z</time>
      </trkpt>
      <trkpt lat="42.06973" lon="1.26052">
        <ele>725.4</ele>
        <time>2019-02-12T18:01:15Z</time>
      </trkpt>
      <trkpt lat="42.06975" lon="1.2607">
        <ele>722</ele>
        <time>2019-02-12T18:01:23Z</time>
      </trkpt>
      <trkpt lat="42.06973" lon="1.26081">
        <ele>720.6</ele>
        <time>2019-02-12T18:01:27Z</time>
      </trkpt>
      <trkpt lat="42.06976" lon="1.26097">
        <ele>717.3</ele>
        <time>2019-02-12T18:01:35Z</time>
      </trkpt>
      <trkpt lat="42.06975" lon="1.26111">
        <ele>714.5</ele>
        <time>2019-02-12T18:01:41Z</time>
      </trkpt>
      <trkpt lat="42.06974" lon="1.26127">
        <ele>715.4</ele>
        <time>2019-02-12T18:01:47Z</time>
      </trkpt>
      <trkpt lat="42.06972" lon="1.26143">
        <ele>717.9</ele>
        <time>2019-02-12T18:01:54Z</time>
      </trkpt>
      <trkpt lat="42.06975" lon="1.26159">
        <ele>718.9</ele>
        <time>2019-02-12T18:02:01Z</time>
      </trkpt>
      <trkpt lat="42.06976" lon="1.26172">
        <ele>722.6</ele>
        <time>2019-02-12T18:02:07Z</time>
      </trkpt>
      <trkpt lat="42.06978" lon="1.2619">
        <ele>724.1</ele>
        <time>2019-02-12T18:02:15Z</time>
      </trkpt>
      <trkpt lat="42.06982" lon="1.26204">
        <ele>726</ele>
        <time>2019-02-12T18:02:21Z</time>
      </trkpt>
      <trkpt lat="42.06982" lon="1.26221">
        <ele>727.8</ele>
        <time>2019-02-12T18:02:28Z</time>
      </trkpt>
      <trkpt lat="42.06971" lon="1.26228">
        <ele>729.2</ele>
        <time>2019-02-12T18:02:35Z</time>
      </trkpt>
      <trkpt lat="42.06952" lon="1.26229">
        <ele>731.3</ele>
        <time>2019-02-12T18:02:46Z</time>
      </trkpt>
      <trkpt lat="42.06939" lon="1.26229">
        <ele>731.8</ele>
        <time>2019-02-12T18:02:53Z</time>
      </trkpt>
      <trkpt lat="42.06927" lon="1.26232">
        <ele>734.3</ele>
        <time>2019-02-12T18:03:00Z</time>
      </trkpt>
      <trkpt lat="42.06917" lon="1.26231">
        <ele>735.1</ele>
        <time>2019-02-12T18:03:06Z</time>
      </trkpt>
      <trkpt lat="42.06908" lon="1.26225">
        <ele>734.7</ele>
        <time>2019-02-12T18:03:12Z</time>
      </trkpt>
      <trkpt lat="42.06898" lon="1.26219">
        <ele>734.3</ele>
        <time>2019-02-12T18:03:18Z</time>
      </trkpt>
      <trkpt lat="42.06889" lon="1.26214">
        <ele>732.6</ele>
        <time>2019-02-12T18:03:23Z</time>
      </trkpt>
      <trkpt lat="42.06878" lon="1.26203">
        <ele>731.2</ele>
        <time>2019-02-12T18:03:31Z</time>
      </trkpt>
      <trkpt lat="42.06871" lon="1.26196">
        <ele>730.8</ele>
        <time>2019-02-12T18:03:36Z</time>
      </trkpt>
      <trkpt lat="42.06856" lon="1.26181">
        <ele>731.2</ele>
        <time>2019-02-12T18:03:47Z</time>
      </trkpt>
      <trkpt lat="42.06844" lon="1.26183">
        <ele>730.8</ele>
        <time>2019-02-12T18:03:54Z</time>
      </trkpt>
      <trkpt lat="42.06834" lon="1.26191">
        <ele>729.8</ele>
        <time>2019-02-12T18:04:01Z</time>
      </trkpt>
      <trkpt lat="42.06821" lon="1.26193">
        <ele>729.9</ele>
        <time>2019-02-12T18:04:08Z</time>
      </trkpt>
      <trkpt lat="42.06811" lon="1.26193">
        <ele>729.9</ele>
        <time>2019-02-12T18:04:14Z</time>
      </trkpt>
      <trkpt lat="42.068" lon="1.26191">
        <ele>729.2</ele>
        <time>2019-02-12T18:04:20Z</time>
      </trkpt>
      <trkpt lat="42.06793" lon="1.26186">
        <ele>726.5</ele>
        <time>2019-02-12T18:04:25Z</time>
      </trkpt>
      <trkpt lat="42.06787" lon="1.26175">
        <ele>724.1</ele>
        <time>2019-02-12T18:04:30Z</time>
      </trkpt>
      <trkpt lat="42.06772" lon="1.26162">
        <ele>719.2</ele>
        <time>2019-02-12T18:04:40Z</time>
      </trkpt>
      <trkpt lat="42.06765" lon="1.26143">
        <ele>718.3</ele>
        <time>2019-02-12T18:04:50Z</time>
      </trkpt>
      <trkpt lat="42.06754" lon="1.26123">
        <ele>720.2</ele>
        <time>2019-02-12T18:05:00Z</time>
      </trkpt>
      <trkpt lat="42.06744" lon="1.26115">
        <ele>721.2</ele>
        <time>2019-02-12T18:05:07Z</time>
      </trkpt>
      <trkpt lat="42.06734" lon="1.26112">
        <ele>721.2</ele>
        <time>2019-02-12T18:05:13Z</time>
      </trkpt>
      <trkpt lat="42.06724" lon="1.26119">
        <ele>720.2</ele>
        <time>2019-02-12T18:05:19Z</time>
      </trkpt>
      <trkpt lat="42.06721" lon="1.26134">
        <ele>718.2</ele>
        <time>2019-02-12T18:05:26Z</time>
      </trkpt>
      <trkpt lat="42.06719" lon="1.26151">
        <ele>715.4</ele>
        <time>2019-02-12T18:05:33Z</time>
      </trkpt>
      <trkpt lat="42.0671" lon="1.26164">
        <ele>712.4</ele>
        <time>2019-02-12T18:05:40Z</time>
      </trkpt>
      <trkpt lat="42.06707" lon="1.26179">
        <ele>709.6</ele>
        <time>2019-02-12T18:05:47Z</time>
      </trkpt>
      <trkpt lat="42.06696" lon="1.26191">
        <ele>705.2</ele>
        <time>2019-02-12T18:05:55Z</time>
      </trkpt>
      <trkpt lat="42.0668" lon="1.26187">
        <ele>702.5</ele>
        <time>2019-02-12T18:06:04Z</time>
      </trkpt>
      <trkpt lat="42.06674" lon="1.26176">
        <ele>699.1</ele>
        <time>2019-02-12T18:06:10Z</time>
      </trkpt>
      <trkpt lat="42.06659" lon="1.26159">
        <ele>695.3</ele>
        <time>2019-02-12T18:06:22Z</time>
      </trkpt>
      <trkpt lat="42.0665" lon="1.2615">
        <ele>693.2</ele>
        <time>2019-02-12T18:06:28Z</time>
      </trkpt>
      <trkpt lat="42.06639" lon="1.26144">
        <ele>690.4</ele>
        <time>2019-02-12T18:06:35Z</time>
      </trkpt>
      <trkpt lat="42.06632" lon="1.26136">
        <ele>688.5</ele>
        <time>2019-02-12T18:06:40Z</time>
      </trkpt>
      <trkpt lat="42.06622" lon="1.26123">
        <ele>686</ele>
        <time>2019-02-12T18:06:48Z</time>
      </trkpt>
      <trkpt lat="42.06615" lon="1.26109">
        <ele>683.7</ele>
        <time>2019-02-12T18:06:55Z</time>
      </trkpt>
      <trkpt lat="42.06609" lon="1.26098">
        <ele>679.8</ele>
        <time>2019-02-12T18:07:01Z</time>
      </trkpt>
      <trkpt lat="42.06599" lon="1.26091">
        <ele>677</ele>
        <time>2019-02-12T18:07:07Z</time>
      </trkpt>
      <trkpt lat="42.06594" lon="1.26073">
        <ele>676.1</ele>
        <time>2019-02-12T18:07:15Z</time>
      </trkpt>
      <trkpt lat="42.06586" lon="1.26055">
        <ele>673.6</ele>
        <time>2019-02-12T18:07:24Z</time>
      </trkpt>
      <trkpt lat="42.06587" lon="1.26037">
        <ele>672</ele>
        <time>2019-02-12T18:07:32Z</time>
      </trkpt>
      <trkpt lat="42.06581" lon="1.26024">
        <ele>670.7</ele>
        <time>2019-02-12T18:07:38Z</time>
      </trkpt>
      <trkpt lat="42.06579" lon="1.26007">
        <ele>668.2</ele>
        <time>2019-02-12T18:07:46Z</time>
      </trkpt>
      <trkpt lat="42.06573" lon="1.25993">
        <ele>667.2</ele>
        <time>2019-02-12T18:07:53Z</time>
      </trkpt>
      <trkpt lat="42.06568" lon="1.25981">
        <ele>664.1</ele>
        <time>2019-02-12T18:07:58Z</time>
      </trkpt>
      <trkpt lat="42.06559" lon="1.25975">
        <ele>660.1</ele>
        <time>2019-02-12T18:08:04Z</time>
      </trkpt>
      <trkpt lat="42.06553" lon="1.25957">
        <ele>661</ele>
        <time>2019-02-12T18:08:12Z</time>
      </trkpt>
      <trkpt lat="42.06551" lon="1.25943">
        <ele>659.6</ele>
        <time>2019-02-12T18:08:19Z</time>
      </trkpt>
      <trkpt lat="42.06538" lon="1.25944">
        <ele>657.3</ele>
        <time>2019-02-12T18:08:26Z</time>
      </trkpt>
      <trkpt lat="42.06525" lon="1.25936">
        <ele>653.5</ele>
        <time>2019-02-12T18:08:34Z</time>
      </trkpt>
      <trkpt lat="42.06516" lon="1.25926">
        <ele>651.1</ele>
        <time>2019-02-12T18:08:41Z</time>
      </trkpt>
      <trkpt lat="42.0651" lon="1.25916">
        <ele>648.7</ele>
        <time>2019-02-12T18:08:46Z</time>
      </trkpt>
      <trkpt lat="42.06501" lon="1.25904">
        <ele>646.3</ele>
        <time>2019-02-12T18:08:53Z</time>
      </trkpt>
      <trkpt lat="42.06512" lon="1.25894">
        <ele>643.2</ele>
        <time>2019-02-12T18:09:01Z</time>
      </trkpt>
      <trkpt lat="42.06524" lon="1.25899">
        <ele>640.4</ele>
        <time>2019-02-12T18:09:08Z</time>
      </trkpt>
      <trkpt lat="42.06523" lon="1.25887">
        <ele>637.5</ele>
        <time>2019-02-12T18:09:14Z</time>
      </trkpt>
      <trkpt lat="42.06517" lon="1.25877">
        <ele>634.6</ele>
        <time>2019-02-12T18:09:19Z</time>
      </trkpt>
      <trkpt lat="42.06495" lon="1.25862">
        <ele>639.9</ele>
        <time>2019-02-12T18:09:33Z</time>
      </trkpt>
      <trkpt lat="42.06489" lon="1.25868">
        <ele>647.2</ele>
        <time>2019-02-12T18:09:37Z</time>
      </trkpt>
      <trkpt lat="42.06483" lon="1.25871">
        <ele>647.2</ele>
        <time>2019-02-12T18:09:41Z</time>
      </trkpt>
      <trkpt lat="42.06472" lon="1.25872">
        <ele>647.7</ele>
        <time>2019-02-12T18:09:47Z</time>
      </trkpt>
      <trkpt lat="42.06462" lon="1.25874">
        <ele>649.6</ele>
        <time>2019-02-12T18:09:53Z</time>
      </trkpt>
      <trkpt lat="42.06451" lon="1.25875">
        <ele>650.1</ele>
        <time>2019-02-12T18:09:59Z</time>
      </trkpt>
      <trkpt lat="42.06442" lon="1.25879">
        <ele>650.4</ele>
        <time>2019-02-12T18:10:05Z</time>
      </trkpt>
      <trkpt lat="42.06434" lon="1.25887">
        <ele>651.4</ele>
        <time>2019-02-12T18:10:10Z</time>
      </trkpt>
      <trkpt lat="42.06425" lon="1.25894">
        <ele>652.4</ele>
        <time>2019-02-12T18:10:16Z</time>
      </trkpt>
      <trkpt lat="42.06416" lon="1.25901">
        <ele>654.8</ele>
        <time>2019-02-12T18:10:22Z</time>
      </trkpt>
      <trkpt lat="42.06407" lon="1.25909">
        <ele>657.7</ele>
        <time>2019-02-12T18:10:28Z</time>
      </trkpt>
      <trkpt lat="42.064" lon="1.25913">
        <ele>655.8</ele>
        <time>2019-02-12T18:10:33Z</time>
      </trkpt>
      <trkpt lat="42.06391" lon="1.25914">
        <ele>650.1</ele>
        <time>2019-02-12T18:10:38Z</time>
      </trkpt>
      <trkpt lat="42.06382" lon="1.25916">
        <ele>646.2</ele>
        <time>2019-02-12T18:10:43Z</time>
      </trkpt>
      <trkpt lat="42.06373" lon="1.25919">
        <ele>642.9</ele>
        <time>2019-02-12T18:10:49Z</time>
      </trkpt>
      <trkpt lat="42.06364" lon="1.25922">
        <ele>641.5</ele>
        <time>2019-02-12T18:10:53Z</time>
      </trkpt>
      <trkpt lat="42.06355" lon="1.25923">
        <ele>639.9</ele>
        <time>2019-02-12T18:10:59Z</time>
      </trkpt>
      <trkpt lat="42.06346" lon="1.25925">
        <ele>638.1</ele>
        <time>2019-02-12T18:11:04Z</time>
      </trkpt>
      <trkpt lat="42.06337" lon="1.25923">
        <ele>638</ele>
        <time>2019-02-12T18:11:09Z</time>
      </trkpt>
      <trkpt lat="42.06331" lon="1.25916">
        <ele>635</ele>
        <time>2019-02-12T18:11:14Z</time>
      </trkpt>
      <trkpt lat="42.06329" lon="1.25902">
        <ele>632.6</ele>
        <time>2019-02-12T18:11:20Z</time>
      </trkpt>
      <trkpt lat="42.06331" lon="1.2589">
        <ele>632.6</ele>
        <time>2019-02-12T18:11:25Z</time>
      </trkpt>
      <trkpt lat="42.0633" lon="1.25878">
        <ele>632.6</ele>
        <time>2019-02-12T18:11:30Z</time>
      </trkpt>
      <trkpt lat="42.06328" lon="1.25866">
        <ele>632.2</ele>
        <time>2019-02-12T18:11:35Z</time>
      </trkpt>
      <trkpt lat="42.06323" lon="1.25856">
        <ele>629.5</ele>
        <time>2019-02-12T18:11:41Z</time>
      </trkpt>
      <trkpt lat="42.06318" lon="1.25846">
        <ele>627.8</ele>
        <time>2019-02-12T18:11:46Z</time>
      </trkpt>
      <trkpt lat="42.0631" lon="1.25839">
        <ele>626</ele>
        <time>2019-02-12T18:11:51Z</time>
      </trkpt>
      <trkpt lat="42.06302" lon="1.25827">
        <ele>624.7</ele>
        <time>2019-02-12T18:11:58Z</time>
      </trkpt>
      <trkpt lat="42.06291" lon="1.25818">
        <ele>625</ele>
        <time>2019-02-12T18:12:06Z</time>
      </trkpt>
      <trkpt lat="42.06281" lon="1.25812">
        <ele>624</ele>
        <time>2019-02-12T18:12:12Z</time>
      </trkpt>
      <trkpt lat="42.0627" lon="1.25814">
        <ele>621.2</ele>
        <time>2019-02-12T18:12:18Z</time>
      </trkpt>
      <trkpt lat="42.06263" lon="1.25822">
        <ele>616.8</ele>
        <time>2019-02-12T18:12:23Z</time>
      </trkpt>
      <trkpt lat="42.06259" lon="1.25834">
        <ele>613.4</ele>
        <time>2019-02-12T18:12:29Z</time>
      </trkpt>
      <trkpt lat="42.0625" lon="1.25847">
        <ele>616.8</ele>
        <time>2019-02-12T18:12:36Z</time>
      </trkpt>
      <trkpt lat="42.06239" lon="1.25856">
        <ele>617.8</ele>
        <time>2019-02-12T18:12:44Z</time>
      </trkpt>
      <trkpt lat="42.06227" lon="1.2586">
        <ele>616.5</ele>
        <time>2019-02-12T18:12:51Z</time>
      </trkpt>
      <trkpt lat="42.06218" lon="1.25862">
        <ele>615.5</ele>
        <time>2019-02-12T18:12:56Z</time>
      </trkpt>
      <trkpt lat="42.06208" lon="1.25868">
        <ele>614</ele>
        <time>2019-02-12T18:13:02Z</time>
      </trkpt>
      <trkpt lat="42.06198" lon="1.25867">
        <ele>611.7</ele>
        <time>2019-02-12T18:13:08Z</time>
      </trkpt>
      <trkpt lat="42.06189" lon="1.25873">
        <ele>612.1</ele>
        <time>2019-02-12T18:13:14Z</time>
      </trkpt>
      <trkpt lat="42.06181" lon="1.25875">
        <ele>612.4</ele>
        <time>2019-02-12T18:13:18Z</time>
      </trkpt>
      <trkpt lat="42.06169" lon="1.25873">
        <ele>611</ele>
        <time>2019-02-12T18:13:25Z</time>
      </trkpt>
      <trkpt lat="42.06161" lon="1.25874">
        <ele>609.3</ele>
        <time>2019-02-12T18:13:30Z</time>
      </trkpt>
      <trkpt lat="42.06152" lon="1.25871">
        <ele>607.7</ele>
        <time>2019-02-12T18:13:35Z</time>
      </trkpt>
      <trkpt lat="42.06142" lon="1.25869">
        <ele>606.8</ele>
        <time>2019-02-12T18:13:41Z</time>
      </trkpt>
      <trkpt lat="42.06132" lon="1.25871">
        <ele>609.2</ele>
        <time>2019-02-12T18:13:46Z</time>
      </trkpt>
      <trkpt lat="42.06123" lon="1.25873">
        <ele>610</ele>
        <time>2019-02-12T18:13:52Z</time>
      </trkpt>
      <trkpt lat="42.06112" lon="1.2588">
        <ele>612.5</ele>
        <time>2019-02-12T18:13:59Z</time>
      </trkpt>
      <trkpt lat="42.06105" lon="1.25889">
        <ele>612</ele>
        <time>2019-02-12T18:14:04Z</time>
      </trkpt>
      <trkpt lat="42.06107" lon="1.25903">
        <ele>611.6</ele>
        <time>2019-02-12T18:14:10Z</time>
      </trkpt>
      <trkpt lat="42.06109" lon="1.25917">
        <ele>611.7</ele>
        <time>2019-02-12T18:14:16Z</time>
      </trkpt>
      <trkpt lat="42.06106" lon="1.25929">
        <ele>613</ele>
        <time>2019-02-12T18:14:22Z</time>
      </trkpt>
      <trkpt lat="42.061" lon="1.2594">
        <ele>615</ele>
        <time>2019-02-12T18:14:27Z</time>
      </trkpt>
      <trkpt lat="42.06094" lon="1.25948">
        <ele>617.4</ele>
        <time>2019-02-12T18:14:33Z</time>
      </trkpt>
      <trkpt lat="42.06086" lon="1.25957">
        <ele>618.8</ele>
        <time>2019-02-12T18:14:38Z</time>
      </trkpt>
      <trkpt lat="42.06082" lon="1.25968">
        <ele>619.9</ele>
        <time>2019-02-12T18:14:44Z</time>
      </trkpt>
      <trkpt lat="42.06081" lon="1.25982">
        <ele>620.2</ele>
        <time>2019-02-12T18:14:50Z</time>
      </trkpt>
      <trkpt lat="42.06079" lon="1.25993">
        <ele>620.2</ele>
        <time>2019-02-12T18:14:54Z</time>
      </trkpt>
      <trkpt lat="42.06073" lon="1.26001">
        <ele>618.8</ele>
        <time>2019-02-12T18:14:59Z</time>
      </trkpt>
      <trkpt lat="42.06063" lon="1.26008">
        <ele>617.8</ele>
        <time>2019-02-12T18:15:05Z</time>
      </trkpt>
      <trkpt lat="42.06053" lon="1.26014">
        <ele>619.2</ele>
        <time>2019-02-12T18:15:12Z</time>
      </trkpt>
      <trkpt lat="42.06044" lon="1.26018">
        <ele>618.3</ele>
        <time>2019-02-12T18:15:17Z</time>
      </trkpt>
      <trkpt lat="42.06035" lon="1.26023">
        <ele>617.8</ele>
        <time>2019-02-12T18:15:23Z</time>
      </trkpt>
      <trkpt lat="42.0603" lon="1.26033">
        <ele>617.4</ele>
        <time>2019-02-12T18:15:28Z</time>
      </trkpt>
      <trkpt lat="42.06021" lon="1.26038">
        <ele>616.8</ele>
        <time>2019-02-12T18:15:34Z</time>
      </trkpt>
      <trkpt lat="42.06012" lon="1.26045">
        <ele>615.8</ele>
        <time>2019-02-12T18:15:39Z</time>
      </trkpt>
      <trkpt lat="42.06004" lon="1.2605">
        <ele>614.5</ele>
        <time>2019-02-12T18:15:44Z</time>
      </trkpt>
      <trkpt lat="42.06" lon="1.2606">
        <ele>613.1</ele>
        <time>2019-02-12T18:15:49Z</time>
      </trkpt>
      <trkpt lat="42.06" lon="1.26073">
        <ele>612.5</ele>
        <time>2019-02-12T18:15:55Z</time>
      </trkpt>
      <trkpt lat="42.05996" lon="1.26085">
        <ele>611</ele>
        <time>2019-02-12T18:16:00Z</time>
      </trkpt>
      <trkpt lat="42.05989" lon="1.26094">
        <ele>609.3</ele>
        <time>2019-02-12T18:16:06Z</time>
      </trkpt>
      <trkpt lat="42.05981" lon="1.26102">
        <ele>608.6</ele>
        <time>2019-02-12T18:16:11Z</time>
      </trkpt>
      <trkpt lat="42.05974" lon="1.26109">
        <ele>606.2</ele>
        <time>2019-02-12T18:16:16Z</time>
      </trkpt>
      <trkpt lat="42.05966" lon="1.26115">
        <ele>604.4</ele>
        <time>2019-02-12T18:16:22Z</time>
      </trkpt>
      <trkpt lat="42.0596" lon="1.26124">
        <ele>604.4</ele>
        <time>2019-02-12T18:16:26Z</time>
      </trkpt>
      <trkpt lat="42.05952" lon="1.26131">
        <ele>602.4</ele>
        <time>2019-02-12T18:16:32Z</time>
      </trkpt>
      <trkpt lat="42.05943" lon="1.2614">
        <ele>603.9</ele>
        <time>2019-02-12T18:16:38Z</time>
      </trkpt>
      <trkpt lat="42.05934" lon="1.26147">
        <ele>604.4</ele>
        <time>2019-02-12T18:16:44Z</time>
      </trkpt>
      <trkpt lat="42.05924" lon="1.26152">
        <ele>605.9</ele>
        <time>2019-02-12T18:16:51Z</time>
      </trkpt>
      <trkpt lat="42.05916" lon="1.26159">
        <ele>607.6</ele>
        <time>2019-02-12T18:16:56Z</time>
      </trkpt>
      <trkpt lat="42.05908" lon="1.26167">
        <ele>607.6</ele>
        <time>2019-02-12T18:17:02Z</time>
      </trkpt>
      <trkpt lat="42.059" lon="1.26174">
        <ele>605.8</ele>
        <time>2019-02-12T18:17:07Z</time>
      </trkpt>
      <trkpt lat="42.05893" lon="1.26183">
        <ele>604.5</ele>
        <time>2019-02-12T18:17:12Z</time>
      </trkpt>
      <trkpt lat="42.05889" lon="1.26192">
        <ele>603.8</ele>
        <time>2019-02-12T18:17:17Z</time>
      </trkpt>
      <trkpt lat="42.05883" lon="1.262">
        <ele>604.4</ele>
        <time>2019-02-12T18:17:22Z</time>
      </trkpt>
      <trkpt lat="42.05873" lon="1.26207">
        <ele>603.4</ele>
        <time>2019-02-12T18:17:28Z</time>
      </trkpt>
      <trkpt lat="42.05867" lon="1.26216">
        <ele>605.3</ele>
        <time>2019-02-12T18:17:34Z</time>
      </trkpt>
      <trkpt lat="42.05859" lon="1.26225">
        <ele>606.8</ele>
        <time>2019-02-12T18:17:39Z</time>
      </trkpt>
      <trkpt lat="42.0585" lon="1.26231">
        <ele>607.7</ele>
        <time>2019-02-12T18:17:45Z</time>
      </trkpt>
      <trkpt lat="42.05841" lon="1.26237">
        <ele>607.6</ele>
        <time>2019-02-12T18:17:51Z</time>
      </trkpt>
      <trkpt lat="42.05831" lon="1.26243">
        <ele>608.6</ele>
        <time>2019-02-12T18:17:57Z</time>
      </trkpt>
      <trkpt lat="42.05823" lon="1.26252">
        <ele>608.2</ele>
        <time>2019-02-12T18:18:03Z</time>
      </trkpt>
      <trkpt lat="42.05815" lon="1.26258">
        <ele>607.3</ele>
        <time>2019-02-12T18:18:08Z</time>
      </trkpt>
      <trkpt lat="42.05813" lon="1.26268">
        <ele>605.9</ele>
        <time>2019-02-12T18:18:13Z</time>
      </trkpt>
      <trkpt lat="42.05811" lon="1.26282">
        <ele>604.4</ele>
        <time>2019-02-12T18:18:19Z</time>
      </trkpt>
      <trkpt lat="42.05805" lon="1.26296">
        <ele>601.4</ele>
        <time>2019-02-12T18:18:26Z</time>
      </trkpt>
      <trkpt lat="42.05807" lon="1.26312">
        <ele>602</ele>
        <time>2019-02-12T18:18:32Z</time>
      </trkpt>
      <trkpt lat="42.05805" lon="1.26325">
        <ele>601.5</ele>
        <time>2019-02-12T18:18:38Z</time>
      </trkpt>
      <trkpt lat="42.05802" lon="1.26339">
        <ele>601.4</ele>
        <time>2019-02-12T18:18:44Z</time>
      </trkpt>
      <trkpt lat="42.058" lon="1.2635">
        <ele>599</ele>
        <time>2019-02-12T18:18:49Z</time>
      </trkpt>
      <trkpt lat="42.058" lon="1.2636">
        <ele>596.3</ele>
        <time>2019-02-12T18:18:53Z</time>
      </trkpt>
      <trkpt lat="42.05808" lon="1.26367">
        <ele>594.3</ele>
        <time>2019-02-12T18:18:59Z</time>
      </trkpt>
      <trkpt lat="42.05817" lon="1.26361">
        <ele>591.5</ele>
        <time>2019-02-12T18:19:04Z</time>
      </trkpt>
      <trkpt lat="42.05817" lon="1.26348">
        <ele>587.6</ele>
        <time>2019-02-12T18:19:10Z</time>
      </trkpt>
      <trkpt lat="42.05815" lon="1.26334">
        <ele>582.6</ele>
        <time>2019-02-12T18:19:16Z</time>
      </trkpt>
      <trkpt lat="42.05813" lon="1.26322">
        <ele>578.8</ele>
        <time>2019-02-12T18:19:21Z</time>
      </trkpt>
      <trkpt lat="42.05814" lon="1.26311">
        <ele>576.4</ele>
        <time>2019-02-12T18:19:26Z</time>
      </trkpt>
      <trkpt lat="42.05828" lon="1.26297">
        <ele>575</ele>
        <time>2019-02-12T18:19:36Z</time>
      </trkpt>
      <trkpt lat="42.05837" lon="1.26289">
        <ele>575</ele>
        <time>2019-02-12T18:19:42Z</time>
      </trkpt>
      <trkpt lat="42.05846" lon="1.26283">
        <ele>575.1</ele>
        <time>2019-02-12T18:19:48Z</time>
      </trkpt>
      <trkpt lat="42.05858" lon="1.26284">
        <ele>577.1</ele>
        <time>2019-02-12T18:19:55Z</time>
      </trkpt>
      <trkpt lat="42.05866" lon="1.26282">
        <ele>576.1</ele>
        <time>2019-02-12T18:19:59Z</time>
      </trkpt>
      <trkpt lat="42.05875" lon="1.26283">
        <ele>576</ele>
        <time>2019-02-12T18:20:04Z</time>
      </trkpt>
      <trkpt lat="42.05879" lon="1.26291">
        <ele>577.4</ele>
        <time>2019-02-12T18:20:08Z</time>
      </trkpt>
      <trkpt lat="42.05876" lon="1.26297">
        <ele>577.9</ele>
        <time>2019-02-12T18:20:11Z</time>
      </trkpt>
      <trkpt lat="42.05867" lon="1.263">
        <ele>577.5</ele>
        <time>2019-02-12T18:20:17Z</time>
      </trkpt>
      <trkpt lat="42.05859" lon="1.26307">
        <ele>577.5</ele>
        <time>2019-02-12T18:20:22Z</time>
      </trkpt>
      <trkpt lat="42.05857" lon="1.26324">
        <ele>576.4</ele>
        <time>2019-02-12T18:20:29Z</time>
      </trkpt>
      <trkpt lat="42.0586" lon="1.26337">
        <ele>576.4</ele>
        <time>2019-02-12T18:20:35Z</time>
      </trkpt>
      <trkpt lat="42.05864" lon="1.26348">
        <ele>577.8</ele>
        <time>2019-02-12T18:20:41Z</time>
      </trkpt>
      <trkpt lat="42.05869" lon="1.26359">
        <ele>578.5</ele>
        <time>2019-02-12T18:20:46Z</time>
      </trkpt>
      <trkpt lat="42.05874" lon="1.26371">
        <ele>579.8</ele>
        <time>2019-02-12T18:20:52Z</time>
      </trkpt>
      <trkpt lat="42.05876" lon="1.26384">
        <ele>583.3</ele>
        <time>2019-02-12T18:20:57Z</time>
      </trkpt>
      <trkpt lat="42.05877" lon="1.26399">
        <ele>586</ele>
        <time>2019-02-12T18:21:04Z</time>
      </trkpt>
      <trkpt lat="42.05879" lon="1.2641">
        <ele>587.6</ele>
        <time>2019-02-12T18:21:09Z</time>
      </trkpt>
      <trkpt lat="42.05877" lon="1.26422">
        <ele>590.8</ele>
        <time>2019-02-12T18:21:14Z</time>
      </trkpt>
      <trkpt lat="42.0587" lon="1.2643">
        <ele>593.3</ele>
        <time>2019-02-12T18:21:19Z</time>
      </trkpt>
      <trkpt lat="42.05862" lon="1.26442">
        <ele>594.2</ele>
        <time>2019-02-12T18:21:26Z</time>
      </trkpt>
      <trkpt lat="42.05853" lon="1.26452">
        <ele>594.2</ele>
        <time>2019-02-12T18:21:33Z</time>
      </trkpt>
      <trkpt lat="42.0585" lon="1.26462">
        <ele>593.2</ele>
        <time>2019-02-12T18:21:37Z</time>
      </trkpt>
      <trkpt lat="42.05851" lon="1.26477">
        <ele>590.4</ele>
        <time>2019-02-12T18:21:43Z</time>
      </trkpt>
      <trkpt lat="42.05849" lon="1.26492">
        <ele>586</ele>
        <time>2019-02-12T18:21:50Z</time>
      </trkpt>
      <trkpt lat="42.05851" lon="1.26508">
        <ele>580.9</ele>
        <time>2019-02-12T18:21:57Z</time>
      </trkpt>
      <trkpt lat="42.0585" lon="1.26518">
        <ele>577.8</ele>
        <time>2019-02-12T18:22:01Z</time>
      </trkpt>
      <trkpt lat="42.05849" lon="1.26533">
        <ele>575.4</ele>
        <time>2019-02-12T18:22:07Z</time>
      </trkpt>
      <trkpt lat="42.05853" lon="1.26546">
        <ele>573</ele>
        <time>2019-02-12T18:22:13Z</time>
      </trkpt>
      <trkpt lat="42.05857" lon="1.26558">
        <ele>569.9</ele>
        <time>2019-02-12T18:22:19Z</time>
      </trkpt>
      <trkpt lat="42.05862" lon="1.26572">
        <ele>569.8</ele>
        <time>2019-02-12T18:22:25Z</time>
      </trkpt>
      <trkpt lat="42.05871" lon="1.26585">
        <ele>569.8</ele>
        <time>2019-02-12T18:22:33Z</time>
      </trkpt>
      <trkpt lat="42.05878" lon="1.26599">
        <ele>570.2</ele>
        <time>2019-02-12T18:22:40Z</time>
      </trkpt>
      <trkpt lat="42.05879" lon="1.26619">
        <ele>571.2</ele>
        <time>2019-02-12T18:22:48Z</time>
      </trkpt>
      <trkpt lat="42.05881" lon="1.26631">
        <ele>571.3</ele>
        <time>2019-02-12T18:22:54Z</time>
      </trkpt>
      <trkpt lat="42.05884" lon="1.26646">
        <ele>570.7</ele>
        <time>2019-02-12T18:23:00Z</time>
      </trkpt>
      <trkpt lat="42.05886" lon="1.26662">
        <ele>570.2</ele>
        <time>2019-02-12T18:23:07Z</time>
      </trkpt>
      <trkpt lat="42.05886" lon="1.26678">
        <ele>570.2</ele>
        <time>2019-02-12T18:23:14Z</time>
      </trkpt>
      <trkpt lat="42.05877" lon="1.26692">
        <ele>573.7</ele>
        <time>2019-02-12T18:23:22Z</time>
      </trkpt>
      <trkpt lat="42.0587" lon="1.26704">
        <ele>574.1</ele>
        <time>2019-02-12T18:23:28Z</time>
      </trkpt>
      <trkpt lat="42.05863" lon="1.26717">
        <ele>574</ele>
        <time>2019-02-12T18:23:35Z</time>
      </trkpt>
      <trkpt lat="42.05859" lon="1.26741">
        <ele>572.6</ele>
        <time>2019-02-12T18:23:45Z</time>
      </trkpt>
      <trkpt lat="42.05862" lon="1.26728">
        <ele>572.6</ele>
        <time>2019-02-12T18:23:51Z</time>
      </trkpt>
      <trkpt lat="42.05858" lon="1.26742">
        <ele>571.2</ele>
        <time>2019-02-12T18:23:57Z</time>
      </trkpt>
      <trkpt lat="42.05861" lon="1.26754">
        <ele>570.6</ele>
        <time>2019-02-12T18:24:03Z</time>
      </trkpt>
      <trkpt lat="42.05872" lon="1.26762">
        <ele>570.6</ele>
        <time>2019-02-12T18:24:10Z</time>
      </trkpt>
      <trkpt lat="42.05875" lon="1.26772">
        <ele>568.2</ele>
        <time>2019-02-12T18:24:14Z</time>
      </trkpt>
      <trkpt lat="42.05882" lon="1.26781">
        <ele>567.5</ele>
        <time>2019-02-12T18:24:20Z</time>
      </trkpt>
      <trkpt lat="42.05887" lon="1.26794">
        <ele>565.8</ele>
        <time>2019-02-12T18:24:26Z</time>
      </trkpt>
      <trkpt lat="42.05892" lon="1.26802">
        <ele>566.5</ele>
        <time>2019-02-12T18:24:30Z</time>
      </trkpt>
      <trkpt lat="42.05895" lon="1.26813">
        <ele>566.5</ele>
        <time>2019-02-12T18:24:36Z</time>
      </trkpt>
      <trkpt lat="42.05902" lon="1.26824">
        <ele>566.5</ele>
        <time>2019-02-12T18:24:42Z</time>
      </trkpt>
      <trkpt lat="42.05906" lon="1.26836">
        <ele>567.4</ele>
        <time>2019-02-12T18:24:47Z</time>
      </trkpt>
      <trkpt lat="42.05913" lon="1.26848">
        <ele>567.8</ele>
        <time>2019-02-12T18:24:54Z</time>
      </trkpt>
      <trkpt lat="42.05919" lon="1.26859">
        <ele>567.8</ele>
        <time>2019-02-12T18:25:00Z</time>
      </trkpt>
      <trkpt lat="42.05924" lon="1.26872">
        <ele>568.8</ele>
        <time>2019-02-12T18:25:06Z</time>
      </trkpt>
      <trkpt lat="42.05927" lon="1.26884">
        <ele>567.9</ele>
        <time>2019-02-12T18:25:11Z</time>
      </trkpt>
      <trkpt lat="42.05931" lon="1.26894">
        <ele>569.2</ele>
        <time>2019-02-12T18:25:16Z</time>
      </trkpt>
      <trkpt lat="42.05939" lon="1.26903">
        <ele>569.9</ele>
        <time>2019-02-12T18:25:22Z</time>
      </trkpt>
      <trkpt lat="42.05946" lon="1.26911">
        <ele>571.3</ele>
        <time>2019-02-12T18:25:27Z</time>
      </trkpt>
      <trkpt lat="42.05951" lon="1.26922">
        <ele>571.6</ele>
        <time>2019-02-12T18:25:33Z</time>
      </trkpt>
      <trkpt lat="42.05958" lon="1.26932">
        <ele>572.2</ele>
        <time>2019-02-12T18:25:38Z</time>
      </trkpt>
      <trkpt lat="42.05964" lon="1.26941">
        <ele>572.2</ele>
        <time>2019-02-12T18:25:44Z</time>
      </trkpt>
      <trkpt lat="42.0597" lon="1.26952">
        <ele>572.3</ele>
        <time>2019-02-12T18:25:49Z</time>
      </trkpt>
      <trkpt lat="42.05975" lon="1.26961">
        <ele>571.7</ele>
        <time>2019-02-12T18:25:54Z</time>
      </trkpt>
      <trkpt lat="42.05981" lon="1.26972">
        <ele>570.6</ele>
        <time>2019-02-12T18:26:00Z</time>
      </trkpt>
      <trkpt lat="42.05989" lon="1.26984">
        <ele>570.6</ele>
        <time>2019-02-12T18:26:07Z</time>
      </trkpt>
      <trkpt lat="42.05994" lon="1.26993">
        <ele>568.2</ele>
        <time>2019-02-12T18:26:12Z</time>
      </trkpt>
      <trkpt lat="42.06002" lon="1.27">
        <ele>569.3</ele>
        <time>2019-02-12T18:26:17Z</time>
      </trkpt>
      <trkpt lat="42.0601" lon="1.27005">
        <ele>569.9</ele>
        <time>2019-02-12T18:26:22Z</time>
      </trkpt>
      <trkpt lat="42.06021" lon="1.27007">
        <ele>570.6</ele>
        <time>2019-02-12T18:26:29Z</time>
      </trkpt>
      <trkpt lat="42.06034" lon="1.26994">
        <ele>571.7</ele>
        <time>2019-02-12T18:26:38Z</time>
      </trkpt>
      <trkpt lat="42.06044" lon="1.2699">
        <ele>571.7</ele>
        <time>2019-02-12T18:26:44Z</time>
      </trkpt>
      <trkpt lat="42.0605" lon="1.27">
        <ele>570.3</ele>
        <time>2019-02-12T18:26:49Z</time>
      </trkpt>
      <trkpt lat="42.06055" lon="1.27009">
        <ele>570.2</ele>
        <time>2019-02-12T18:26:54Z</time>
      </trkpt>
      <trkpt lat="42.06064" lon="1.27016">
        <ele>570.2</ele>
        <time>2019-02-12T18:27:00Z</time>
      </trkpt>
      <trkpt lat="42.06074" lon="1.27025">
        <ele>570.6</ele>
        <time>2019-02-12T18:27:07Z</time>
      </trkpt>
      <trkpt lat="42.06079" lon="1.27036">
        <ele>568.8</ele>
        <time>2019-02-12T18:27:12Z</time>
      </trkpt>
      <trkpt lat="42.06086" lon="1.27046">
        <ele>569.9</ele>
        <time>2019-02-12T18:27:18Z</time>
      </trkpt>
      <trkpt lat="42.06094" lon="1.27053">
        <ele>570.7</ele>
        <time>2019-02-12T18:27:23Z</time>
      </trkpt>
      <trkpt lat="42.06102" lon="1.27064">
        <ele>572.2</ele>
        <time>2019-02-12T18:27:30Z</time>
      </trkpt>
      <trkpt lat="42.06109" lon="1.27074">
        <ele>573.6</ele>
        <time>2019-02-12T18:27:36Z</time>
      </trkpt>
      <trkpt lat="42.06117" lon="1.27086">
        <ele>575</ele>
        <time>2019-02-12T18:27:43Z</time>
      </trkpt>
      <trkpt lat="42.06123" lon="1.27091">
        <ele>575.1</ele>
        <time>2019-02-12T18:27:47Z</time>
      </trkpt>
      <trkpt lat="42.06129" lon="1.27102">
        <ele>574.6</ele>
        <time>2019-02-12T18:27:53Z</time>
      </trkpt>
      <trkpt lat="42.06135" lon="1.2711">
        <ele>573.7</ele>
        <time>2019-02-12T18:27:58Z</time>
      </trkpt>
      <trkpt lat="42.06144" lon="1.27111">
        <ele>573.1</ele>
        <time>2019-02-12T18:28:03Z</time>
      </trkpt>
      <trkpt lat="42.06154" lon="1.27107">
        <ele>574</ele>
        <time>2019-02-12T18:28:09Z</time>
      </trkpt>
      <trkpt lat="42.06162" lon="1.27098">
        <ele>575</ele>
        <time>2019-02-12T18:28:15Z</time>
      </trkpt>
      <trkpt lat="42.0617" lon="1.27088">
        <ele>576.4</ele>
        <time>2019-02-12T18:28:21Z</time>
      </trkpt>
      <trkpt lat="42.0618" lon="1.27078">
        <ele>578.4</ele>
        <time>2019-02-12T18:28:28Z</time>
      </trkpt>
      <trkpt lat="42.06192" lon="1.27076">
        <ele>578.9</ele>
        <time>2019-02-12T18:28:35Z</time>
      </trkpt>
      <trkpt lat="42.06203" lon="1.2708">
        <ele>581.3</ele>
        <time>2019-02-12T18:28:41Z</time>
      </trkpt>
      <trkpt lat="42.06215" lon="1.27084">
        <ele>582.3</ele>
        <time>2019-02-12T18:28:48Z</time>
      </trkpt>
      <trkpt lat="42.06227" lon="1.27086">
        <ele>576.5</ele>
        <time>2019-02-12T18:28:55Z</time>
      </trkpt>
      <trkpt lat="42.06239" lon="1.27083">
        <ele>575.1</ele>
        <time>2019-02-12T18:29:03Z</time>
      </trkpt>
      <trkpt lat="42.06249" lon="1.2708">
        <ele>578.4</ele>
        <time>2019-02-12T18:29:08Z</time>
      </trkpt>
      <trkpt lat="42.0626" lon="1.27075">
        <ele>583.2</ele>
        <time>2019-02-12T18:29:15Z</time>
      </trkpt>
      <trkpt lat="42.06273" lon="1.27074">
        <ele>584.2</ele>
        <time>2019-02-12T18:29:22Z</time>
      </trkpt>
      <trkpt lat="42.06281" lon="1.27074">
        <ele>586.6</ele>
        <time>2019-02-12T18:29:27Z</time>
      </trkpt>
      <trkpt lat="42.06291" lon="1.27076">
        <ele>589</ele>
        <time>2019-02-12T18:29:33Z</time>
      </trkpt>
      <trkpt lat="42.06302" lon="1.27075">
        <ele>587</ele>
        <time>2019-02-12T18:29:39Z</time>
      </trkpt>
      <trkpt lat="42.06313" lon="1.27074">
        <ele>591.8</ele>
        <time>2019-02-12T18:29:45Z</time>
      </trkpt>
      <trkpt lat="42.06325" lon="1.27075">
        <ele>594.8</ele>
        <time>2019-02-12T18:29:52Z</time>
      </trkpt>
      <trkpt lat="42.06337" lon="1.27067">
        <ele>592.9</ele>
        <time>2019-02-12T18:30:00Z</time>
      </trkpt>
      <trkpt lat="42.06349" lon="1.27074">
        <ele>596.6</ele>
        <time>2019-02-12T18:30:07Z</time>
      </trkpt>
      <trkpt lat="42.06356" lon="1.27087">
        <ele>598.1</ele>
        <time>2019-02-12T18:30:14Z</time>
      </trkpt>
      <trkpt lat="42.06365" lon="1.27094">
        <ele>598.7</ele>
        <time>2019-02-12T18:30:20Z</time>
      </trkpt>
      <trkpt lat="42.06376" lon="1.27102">
        <ele>598.6</ele>
        <time>2019-02-12T18:30:27Z</time>
      </trkpt>
      <trkpt lat="42.06385" lon="1.27107">
        <ele>601</ele>
        <time>2019-02-12T18:30:33Z</time>
      </trkpt>
      <trkpt lat="42.06398" lon="1.27114">
        <ele>601.4</ele>
        <time>2019-02-12T18:30:41Z</time>
      </trkpt>
      <trkpt lat="42.06411" lon="1.27119">
        <ele>600.4</ele>
        <time>2019-02-12T18:30:48Z</time>
      </trkpt>
      <trkpt lat="42.0642" lon="1.27126">
        <ele>599</ele>
        <time>2019-02-12T18:30:54Z</time>
      </trkpt>
      <trkpt lat="42.0643" lon="1.27131">
        <ele>597.3</ele>
        <time>2019-02-12T18:31:00Z</time>
      </trkpt>
      <trkpt lat="42.06441" lon="1.27142">
        <ele>598.1</ele>
        <time>2019-02-12T18:31:08Z</time>
      </trkpt>
      <trkpt lat="42.06449" lon="1.2715">
        <ele>597.2</ele>
        <time>2019-02-12T18:31:14Z</time>
      </trkpt>
      <trkpt lat="42.06458" lon="1.27158">
        <ele>597.7</ele>
        <time>2019-02-12T18:31:20Z</time>
      </trkpt>
      <trkpt lat="42.06467" lon="1.27164">
        <ele>598.6</ele>
        <time>2019-02-12T18:31:26Z</time>
      </trkpt>
      <trkpt lat="42.06475" lon="1.27167">
        <ele>596.7</ele>
        <time>2019-02-12T18:31:30Z</time>
      </trkpt>
      <trkpt lat="42.06485" lon="1.27172">
        <ele>594.8</ele>
        <time>2019-02-12T18:31:36Z</time>
      </trkpt>
      <trkpt lat="42.06497" lon="1.27174">
        <ele>591.4</ele>
        <time>2019-02-12T18:31:43Z</time>
      </trkpt>
      <trkpt lat="42.06507" lon="1.27177">
        <ele>590</ele>
        <time>2019-02-12T18:31:49Z</time>
      </trkpt>
      <trkpt lat="42.06517" lon="1.27178">
        <ele>588.1</ele>
        <time>2019-02-12T18:31:55Z</time>
      </trkpt>
      <trkpt lat="42.06527" lon="1.2718">
        <ele>589.5</ele>
        <time>2019-02-12T18:32:01Z</time>
      </trkpt>
      <trkpt lat="42.06537" lon="1.27179">
        <ele>590.8</ele>
        <time>2019-02-12T18:32:07Z</time>
      </trkpt>
      <trkpt lat="42.06549" lon="1.27183">
        <ele>593.2</ele>
        <time>2019-02-12T18:32:13Z</time>
      </trkpt>
      <trkpt lat="42.06559" lon="1.27183">
        <ele>592.9</ele>
        <time>2019-02-12T18:32:19Z</time>
      </trkpt>
      <trkpt lat="42.06571" lon="1.27177">
        <ele>592.4</ele>
        <time>2019-02-12T18:32:27Z</time>
      </trkpt>
      <trkpt lat="42.06583" lon="1.27184">
        <ele>593.8</ele>
        <time>2019-02-12T18:32:34Z</time>
      </trkpt>
      <trkpt lat="42.06592" lon="1.27185">
        <ele>592.9</ele>
        <time>2019-02-12T18:32:39Z</time>
      </trkpt>
      <trkpt lat="42.06601" lon="1.27185">
        <ele>593.2</ele>
        <time>2019-02-12T18:32:45Z</time>
      </trkpt>
      <trkpt lat="42.06613" lon="1.27186">
        <ele>594.2</ele>
        <time>2019-02-12T18:32:51Z</time>
      </trkpt>
      <trkpt lat="42.0662" lon="1.27178">
        <ele>596.6</ele>
        <time>2019-02-12T18:32:56Z</time>
      </trkpt>
      <trkpt lat="42.0663" lon="1.27172">
        <ele>599.7</ele>
        <time>2019-02-12T18:33:03Z</time>
      </trkpt>
      <trkpt lat="42.0664" lon="1.27175">
        <ele>601.1</ele>
        <time>2019-02-12T18:33:09Z</time>
      </trkpt>
      <trkpt lat="42.06651" lon="1.27173">
        <ele>604.9</ele>
        <time>2019-02-12T18:33:15Z</time>
      </trkpt>
      <trkpt lat="42.06667" lon="1.27176">
        <ele>603.5</ele>
        <time>2019-02-12T18:33:24Z</time>
      </trkpt>
      <trkpt lat="42.06676" lon="1.2718">
        <ele>604.8</ele>
        <time>2019-02-12T18:33:30Z</time>
      </trkpt>
      <trkpt lat="42.06687" lon="1.27187">
        <ele>606.2</ele>
        <time>2019-02-12T18:33:37Z</time>
      </trkpt>
      <trkpt lat="42.06695" lon="1.27192">
        <ele>606.9</ele>
        <time>2019-02-12T18:33:42Z</time>
      </trkpt>
      <trkpt lat="42.06704" lon="1.27195">
        <ele>605.3</ele>
        <time>2019-02-12T18:33:47Z</time>
      </trkpt>
      <trkpt lat="42.06713" lon="1.27199">
        <ele>604.4</ele>
        <time>2019-02-12T18:33:52Z</time>
      </trkpt>
      <trkpt lat="42.06725" lon="1.272">
        <ele>603.4</ele>
        <time>2019-02-12T18:33:59Z</time>
      </trkpt>
      <trkpt lat="42.06736" lon="1.27197">
        <ele>599</ele>
        <time>2019-02-12T18:34:05Z</time>
      </trkpt>
      <trkpt lat="42.06746" lon="1.27199">
        <ele>600.5</ele>
        <time>2019-02-12T18:34:11Z</time>
      </trkpt>
      <trkpt lat="42.0676" lon="1.27208">
        <ele>601</ele>
        <time>2019-02-12T18:34:20Z</time>
      </trkpt>
      <trkpt lat="42.06773" lon="1.27212">
        <ele>600.5</ele>
        <time>2019-02-12T18:34:28Z</time>
      </trkpt>
      <trkpt lat="42.0678" lon="1.27204">
        <ele>598.1</ele>
        <time>2019-02-12T18:34:33Z</time>
      </trkpt>
      <trkpt lat="42.06788" lon="1.27197">
        <ele>597.3</ele>
        <time>2019-02-12T18:34:38Z</time>
      </trkpt>
      <trkpt lat="42.06798" lon="1.27186">
        <ele>593.9</ele>
        <time>2019-02-12T18:34:46Z</time>
      </trkpt>
      <trkpt lat="42.06806" lon="1.27191">
        <ele>593.8</ele>
        <time>2019-02-12T18:34:51Z</time>
      </trkpt>
      <trkpt lat="42.06808" lon="1.27205">
        <ele>593.8</ele>
        <time>2019-02-12T18:34:57Z</time>
      </trkpt>
      <trkpt lat="42.06807" lon="1.27216">
        <ele>594.3</ele>
        <time>2019-02-12T18:35:02Z</time>
      </trkpt>
      <trkpt lat="42.06803" lon="1.27234">
        <ele>595.2</ele>
        <time>2019-02-12T18:35:10Z</time>
      </trkpt>
      <trkpt lat="42.06808" lon="1.2725">
        <ele>594.2</ele>
        <time>2019-02-12T18:35:18Z</time>
      </trkpt>
      <trkpt lat="42.06814" lon="1.27262">
        <ele>595.2</ele>
        <time>2019-02-12T18:35:23Z</time>
      </trkpt>
      <trkpt lat="42.06823" lon="1.27273">
        <ele>596.7</ele>
        <time>2019-02-12T18:35:31Z</time>
      </trkpt>
      <trkpt lat="42.0683" lon="1.2729">
        <ele>598.1</ele>
        <time>2019-02-12T18:35:39Z</time>
      </trkpt>
      <trkpt lat="42.06835" lon="1.27306">
        <ele>598.1</ele>
        <time>2019-02-12T18:35:46Z</time>
      </trkpt>
      <trkpt lat="42.06841" lon="1.27319">
        <ele>598.7</ele>
        <time>2019-02-12T18:35:53Z</time>
      </trkpt>
      <trkpt lat="42.06848" lon="1.27333">
        <ele>600.1</ele>
        <time>2019-02-12T18:36:00Z</time>
      </trkpt>
      <trkpt lat="42.06856" lon="1.27347">
        <ele>600.5</ele>
        <time>2019-02-12T18:36:07Z</time>
      </trkpt>
      <trkpt lat="42.06863" lon="1.27364">
        <ele>602.1</ele>
        <time>2019-02-12T18:36:15Z</time>
      </trkpt>
      <trkpt lat="42.06877" lon="1.27368">
        <ele>602.4</ele>
        <time>2019-02-12T18:36:23Z</time>
      </trkpt>
      <trkpt lat="42.0689" lon="1.27379">
        <ele>602.4</ele>
        <time>2019-02-12T18:36:32Z</time>
      </trkpt>
      <trkpt lat="42.06901" lon="1.27387">
        <ele>599</ele>
        <time>2019-02-12T18:36:40Z</time>
      </trkpt>
      <trkpt lat="42.06915" lon="1.27394">
        <ele>597.6</ele>
        <time>2019-02-12T18:36:48Z</time>
      </trkpt>
      <trkpt lat="42.06925" lon="1.27405">
        <ele>598.1</ele>
        <time>2019-02-12T18:36:55Z</time>
      </trkpt>
      <trkpt lat="42.06934" lon="1.27415">
        <ele>597.6</ele>
        <time>2019-02-12T18:37:02Z</time>
      </trkpt>
      <trkpt lat="42.06942" lon="1.27428">
        <ele>597.6</ele>
        <time>2019-02-12T18:37:09Z</time>
      </trkpt>
      <trkpt lat="42.06957" lon="1.27436">
        <ele>597.2</ele>
        <time>2019-02-12T18:37:18Z</time>
      </trkpt>
      <trkpt lat="42.06966" lon="1.27445">
        <ele>598</ele>
        <time>2019-02-12T18:37:25Z</time>
      </trkpt>
      <trkpt lat="42.06973" lon="1.27456">
        <ele>596.6</ele>
        <time>2019-02-12T18:37:31Z</time>
      </trkpt>
      <trkpt lat="42.06985" lon="1.27466">
        <ele>598.1</ele>
        <time>2019-02-12T18:37:39Z</time>
      </trkpt>
      <trkpt lat="42.06992" lon="1.27473">
        <ele>600.5</ele>
        <time>2019-02-12T18:37:44Z</time>
      </trkpt>
      <trkpt lat="42.07006" lon="1.27475">
        <ele>598.6</ele>
        <time>2019-02-12T18:37:52Z</time>
      </trkpt>
      <trkpt lat="42.07022" lon="1.2748">
        <ele>597.6</ele>
        <time>2019-02-12T18:38:01Z</time>
      </trkpt>
      <trkpt lat="42.07034" lon="1.27487">
        <ele>597.7</ele>
        <time>2019-02-12T18:38:09Z</time>
      </trkpt>
      <trkpt lat="42.07045" lon="1.27493">
        <ele>596.6</ele>
        <time>2019-02-12T18:38:16Z</time>
      </trkpt>
      <trkpt lat="42.07056" lon="1.27496">
        <ele>594.9</ele>
        <time>2019-02-12T18:38:22Z</time>
      </trkpt>
      <trkpt lat="42.07067" lon="1.27498">
        <ele>590.8</ele>
        <time>2019-02-12T18:38:28Z</time>
      </trkpt>
      <trkpt lat="42.07078" lon="1.27504">
        <ele>587</ele>
        <time>2019-02-12T18:38:35Z</time>
      </trkpt>
      <trkpt lat="42.07089" lon="1.27512">
        <ele>586</ele>
        <time>2019-02-12T18:38:42Z</time>
      </trkpt>
      <trkpt lat="42.07102" lon="1.27521">
        <ele>584.3</ele>
        <time>2019-02-12T18:38:51Z</time>
      </trkpt>
      <trkpt lat="42.07111" lon="1.27534">
        <ele>582.7</ele>
        <time>2019-02-12T18:38:58Z</time>
      </trkpt>
      <trkpt lat="42.07115" lon="1.27546">
        <ele>583.2</ele>
        <time>2019-02-12T18:39:04Z</time>
      </trkpt>
      <trkpt lat="42.07108" lon="1.27557">
        <ele>581.8</ele>
        <time>2019-02-12T18:39:10Z</time>
      </trkpt>
      <trkpt lat="42.071" lon="1.27567">
        <ele>579.8</ele>
        <time>2019-02-12T18:39:16Z</time>
      </trkpt>
      <trkpt lat="42.07092" lon="1.2758">
        <ele>579.8</ele>
        <time>2019-02-12T18:39:23Z</time>
      </trkpt>
      <trkpt lat="42.07085" lon="1.2759">
        <ele>580.3</ele>
        <time>2019-02-12T18:39:29Z</time>
      </trkpt>
      <trkpt lat="42.07078" lon="1.27603">
        <ele>580.9</ele>
        <time>2019-02-12T18:39:36Z</time>
      </trkpt>
      <trkpt lat="42.0707" lon="1.27614">
        <ele>578.8</ele>
        <time>2019-02-12T18:39:42Z</time>
      </trkpt>
      <trkpt lat="42.07061" lon="1.27625">
        <ele>580.3</ele>
        <time>2019-02-12T18:39:49Z</time>
      </trkpt>
      <trkpt lat="42.07053" lon="1.27633">
        <ele>577.8</ele>
        <time>2019-02-12T18:39:55Z</time>
      </trkpt>
      <trkpt lat="42.07044" lon="1.27643">
        <ele>578.5</ele>
        <time>2019-02-12T18:40:01Z</time>
      </trkpt>
      <trkpt lat="42.07037" lon="1.27656">
        <ele>579.9</ele>
        <time>2019-02-12T18:40:08Z</time>
      </trkpt>
      <trkpt lat="42.0703" lon="1.27664">
        <ele>578.5</ele>
        <time>2019-02-12T18:40:14Z</time>
      </trkpt>
      <trkpt lat="42.07024" lon="1.27673">
        <ele>578.8</ele>
        <time>2019-02-12T18:40:19Z</time>
      </trkpt>
      <trkpt lat="42.07017" lon="1.27686">
        <ele>577</ele>
        <time>2019-02-12T18:40:25Z</time>
      </trkpt>
      <trkpt lat="42.0701" lon="1.27696">
        <ele>575.4</ele>
        <time>2019-02-12T18:40:31Z</time>
      </trkpt>
      <trkpt lat="42.07001" lon="1.27707">
        <ele>574.7</ele>
        <time>2019-02-12T18:40:38Z</time>
      </trkpt>
      <trkpt lat="42.0699" lon="1.2772">
        <ele>576.4</ele>
        <time>2019-02-12T18:40:46Z</time>
      </trkpt>
      <trkpt lat="42.06981" lon="1.27729">
        <ele>577</ele>
        <time>2019-02-12T18:40:53Z</time>
      </trkpt>
      <trkpt lat="42.06976" lon="1.27738">
        <ele>575.1</ele>
        <time>2019-02-12T18:40:58Z</time>
      </trkpt>
      <trkpt lat="42.06968" lon="1.27748">
        <ele>573.1</ele>
        <time>2019-02-12T18:41:04Z</time>
      </trkpt>
      <trkpt lat="42.06961" lon="1.27756">
        <ele>574.1</ele>
        <time>2019-02-12T18:41:09Z</time>
      </trkpt>
      <trkpt lat="42.06957" lon="1.27769">
        <ele>572.7</ele>
        <time>2019-02-12T18:41:15Z</time>
      </trkpt>
      <trkpt lat="42.06951" lon="1.27779">
        <ele>572.3</ele>
        <time>2019-02-12T18:41:21Z</time>
      </trkpt>
      <trkpt lat="42.06949" lon="1.27789">
        <ele>570.6</ele>
        <time>2019-02-12T18:41:25Z</time>
      </trkpt>
      <trkpt lat="42.06949" lon="1.27804">
        <ele>567.4</ele>
        <time>2019-02-12T18:41:31Z</time>
      </trkpt>
      <trkpt lat="42.06948" lon="1.27815">
        <ele>567.5</ele>
        <time>2019-02-12T18:41:36Z</time>
      </trkpt>
      <trkpt lat="42.06948" lon="1.27826">
        <ele>567.9</ele>
        <time>2019-02-12T18:41:41Z</time>
      </trkpt>
      <trkpt lat="42.06949" lon="1.27838">
        <ele>569.3</ele>
        <time>2019-02-12T18:41:46Z</time>
      </trkpt>
      <trkpt lat="42.0695" lon="1.27851">
        <ele>571.6</ele>
        <time>2019-02-12T18:41:51Z</time>
      </trkpt>
      <trkpt lat="42.0695" lon="1.27863">
        <ele>573</ele>
        <time>2019-02-12T18:41:56Z</time>
      </trkpt>
      <trkpt lat="42.06947" lon="1.27876">
        <ele>573.7</ele>
        <time>2019-02-12T18:42:02Z</time>
      </trkpt>
      <trkpt lat="42.06944" lon="1.27886">
        <ele>574.1</ele>
        <time>2019-02-12T18:42:07Z</time>
      </trkpt>
      <trkpt lat="42.06939" lon="1.27896">
        <ele>575.1</ele>
        <time>2019-02-12T18:42:12Z</time>
      </trkpt>
      <trkpt lat="42.06933" lon="1.27908">
        <ele>574.6</ele>
        <time>2019-02-12T18:42:18Z</time>
      </trkpt>
      <trkpt lat="42.06928" lon="1.27919">
        <ele>574.6</ele>
        <time>2019-02-12T18:42:24Z</time>
      </trkpt>
      <trkpt lat="42.06924" lon="1.2793">
        <ele>572.6</ele>
        <time>2019-02-12T18:42:29Z</time>
      </trkpt>
      <trkpt lat="42.06921" lon="1.27939">
        <ele>570.7</ele>
        <time>2019-02-12T18:42:33Z</time>
      </trkpt>
      <trkpt lat="42.06919" lon="1.27949">
        <ele>570.3</ele>
        <time>2019-02-12T18:42:37Z</time>
      </trkpt>
      <trkpt lat="42.06913" lon="1.27959">
        <ele>569.2</ele>
        <time>2019-02-12T18:42:43Z</time>
      </trkpt>
      <trkpt lat="42.06909" lon="1.27971">
        <ele>566.8</ele>
        <time>2019-02-12T18:42:48Z</time>
      </trkpt>
      <trkpt lat="42.06904" lon="1.27981">
        <ele>565.9</ele>
        <time>2019-02-12T18:42:53Z</time>
      </trkpt>
      <trkpt lat="42.06899" lon="1.27993">
        <ele>565.4</ele>
        <time>2019-02-12T18:42:59Z</time>
      </trkpt>
      <trkpt lat="42.06893" lon="1.28006">
        <ele>562.7</ele>
        <time>2019-02-12T18:43:06Z</time>
      </trkpt>
      <trkpt lat="42.0689" lon="1.28017">
        <ele>559.2</ele>
        <time>2019-02-12T18:43:11Z</time>
      </trkpt>
      <trkpt lat="42.06885" lon="1.28029">
        <ele>557.2</ele>
        <time>2019-02-12T18:43:17Z</time>
      </trkpt>
      <trkpt lat="42.06882" lon="1.28041">
        <ele>555.8</ele>
        <time>2019-02-12T18:43:22Z</time>
      </trkpt>
      <trkpt lat="42.06879" lon="1.28053">
        <ele>554.4</ele>
        <time>2019-02-12T18:43:27Z</time>
      </trkpt>
      <trkpt lat="42.06875" lon="1.28063">
        <ele>552</ele>
        <time>2019-02-12T18:43:32Z</time>
      </trkpt>
      <trkpt lat="42.06873" lon="1.28077">
        <ele>551.1</ele>
        <time>2019-02-12T18:43:38Z</time>
      </trkpt>
      <trkpt lat="42.06872" lon="1.28087">
        <ele>550.4</ele>
        <time>2019-02-12T18:43:43Z</time>
      </trkpt>
      <trkpt lat="42.06868" lon="1.28103">
        <ele>550.4</ele>
        <time>2019-02-12T18:43:49Z</time>
      </trkpt>
      <trkpt lat="42.06863" lon="1.28117">
        <ele>549.6</ele>
        <time>2019-02-12T18:43:56Z</time>
      </trkpt>
      <trkpt lat="42.06859" lon="1.2813">
        <ele>550.1</ele>
        <time>2019-02-12T18:44:03Z</time>
      </trkpt>
      <trkpt lat="42.06857" lon="1.28143">
        <ele>549.6</ele>
        <time>2019-02-12T18:44:08Z</time>
      </trkpt>
      <trkpt lat="42.06859" lon="1.28154">
        <ele>548.7</ele>
        <time>2019-02-12T18:44:13Z</time>
      </trkpt>
      <trkpt lat="42.0686" lon="1.28166">
        <ele>547.2</ele>
        <time>2019-02-12T18:44:18Z</time>
      </trkpt>
      <trkpt lat="42.06863" lon="1.28178">
        <ele>546.6</ele>
        <time>2019-02-12T18:44:23Z</time>
      </trkpt>
      <trkpt lat="42.06866" lon="1.28189">
        <ele>546.2</ele>
        <time>2019-02-12T18:44:28Z</time>
      </trkpt>
      <trkpt lat="42.06861" lon="1.28205">
        <ele>543.9</ele>
        <time>2019-02-12T18:44:35Z</time>
      </trkpt>
      <trkpt lat="42.06858" lon="1.28221">
        <ele>543.2</ele>
        <time>2019-02-12T18:44:43Z</time>
      </trkpt>
      <trkpt lat="42.06855" lon="1.28234">
        <ele>544.3</ele>
        <time>2019-02-12T18:44:48Z</time>
      </trkpt>
      <trkpt lat="42.06852" lon="1.28246">
        <ele>543.8</ele>
        <time>2019-02-12T18:44:54Z</time>
      </trkpt>
      <trkpt lat="42.06848" lon="1.28256">
        <ele>544.3</ele>
        <time>2019-02-12T18:44:59Z</time>
      </trkpt>
      <trkpt lat="42.06844" lon="1.28267">
        <ele>543.8</ele>
        <time>2019-02-12T18:45:04Z</time>
      </trkpt>
      <trkpt lat="42.06841" lon="1.28279">
        <ele>543.3</ele>
        <time>2019-02-12T18:45:09Z</time>
      </trkpt>
      <trkpt lat="42.06838" lon="1.28288">
        <ele>543.3</ele>
        <time>2019-02-12T18:45:13Z</time>
      </trkpt>
      <trkpt lat="42.06834" lon="1.283">
        <ele>543.9</ele>
        <time>2019-02-12T18:45:19Z</time>
      </trkpt>
      <trkpt lat="42.06828" lon="1.28313">
        <ele>543.2</ele>
        <time>2019-02-12T18:45:25Z</time>
      </trkpt>
      <trkpt lat="42.06823" lon="1.28324">
        <ele>541.8</ele>
        <time>2019-02-12T18:45:31Z</time>
      </trkpt>
      <trkpt lat="42.0682" lon="1.28333">
        <ele>540.9</ele>
        <time>2019-02-12T18:45:35Z</time>
      </trkpt>
      <trkpt lat="42.06815" lon="1.28346">
        <ele>541.5</ele>
        <time>2019-02-12T18:45:41Z</time>
      </trkpt>
      <trkpt lat="42.06812" lon="1.28355">
        <ele>537</ele>
        <time>2019-02-12T18:45:45Z</time>
      </trkpt>
      <trkpt lat="42.06809" lon="1.28366">
        <ele>534.6</ele>
        <time>2019-02-12T18:45:50Z</time>
      </trkpt>
      <trkpt lat="42.06805" lon="1.28379">
        <ele>530.8</ele>
        <time>2019-02-12T18:45:56Z</time>
      </trkpt>
      <trkpt lat="42.068" lon="1.28391">
        <ele>527.5</ele>
        <time>2019-02-12T18:46:02Z</time>
      </trkpt>
      <trkpt lat="42.06798" lon="1.28402">
        <ele>523.7</ele>
        <time>2019-02-12T18:46:07Z</time>
      </trkpt>
      <trkpt lat="42.06795" lon="1.28413">
        <ele>522.3</ele>
        <time>2019-02-12T18:46:12Z</time>
      </trkpt>
      <trkpt lat="42.06791" lon="1.28427">
        <ele>520.2</ele>
        <time>2019-02-12T18:46:18Z</time>
      </trkpt>
      <trkpt lat="42.06786" lon="1.28438">
        <ele>519.2</ele>
        <time>2019-02-12T18:46:24Z</time>
      </trkpt>
      <trkpt lat="42.06783" lon="1.28451">
        <ele>517.4</ele>
        <time>2019-02-12T18:46:29Z</time>
      </trkpt>
      <trkpt lat="42.0678" lon="1.28462">
        <ele>516.9</ele>
        <time>2019-02-12T18:46:34Z</time>
      </trkpt>
      <trkpt lat="42.06775" lon="1.28471">
        <ele>516.8</ele>
        <time>2019-02-12T18:46:39Z</time>
      </trkpt>
      <trkpt lat="42.0677" lon="1.28483">
        <ele>517.9</ele>
        <time>2019-02-12T18:46:45Z</time>
      </trkpt>
      <trkpt lat="42.06761" lon="1.28496">
        <ele>518.2</ele>
        <time>2019-02-12T18:46:53Z</time>
      </trkpt>
      <trkpt lat="42.06755" lon="1.28507">
        <ele>521.3</ele>
        <time>2019-02-12T18:46:58Z</time>
      </trkpt>
      <trkpt lat="42.06749" lon="1.28516">
        <ele>522.7</ele>
        <time>2019-02-12T18:47:03Z</time>
      </trkpt>
      <trkpt lat="42.06743" lon="1.28528">
        <ele>522.7</ele>
        <time>2019-02-12T18:47:10Z</time>
      </trkpt>
      <trkpt lat="42.06736" lon="1.28536">
        <ele>522.3</ele>
        <time>2019-02-12T18:47:15Z</time>
      </trkpt>
      <trkpt lat="42.06729" lon="1.28545">
        <ele>522.6</ele>
        <time>2019-02-12T18:47:20Z</time>
      </trkpt>
      <trkpt lat="42.06723" lon="1.28554">
        <ele>524</ele>
        <time>2019-02-12T18:47:26Z</time>
      </trkpt>
      <trkpt lat="42.06717" lon="1.28564">
        <ele>524</ele>
        <time>2019-02-12T18:47:31Z</time>
      </trkpt>
      <trkpt lat="42.06712" lon="1.28573">
        <ele>521.2</ele>
        <time>2019-02-12T18:47:36Z</time>
      </trkpt>
      <trkpt lat="42.06705" lon="1.28583">
        <ele>520.2</ele>
        <time>2019-02-12T18:47:42Z</time>
      </trkpt>
      <trkpt lat="42.06699" lon="1.28593">
        <ele>519.9</ele>
        <time>2019-02-12T18:47:47Z</time>
      </trkpt>
      <trkpt lat="42.06693" lon="1.28603">
        <ele>519.9</ele>
        <time>2019-02-12T18:47:53Z</time>
      </trkpt>
      <trkpt lat="42.06685" lon="1.28614">
        <ele>520.3</ele>
        <time>2019-02-12T18:47:59Z</time>
      </trkpt>
      <trkpt lat="42.0668" lon="1.28626">
        <ele>520.2</ele>
        <time>2019-02-12T18:48:05Z</time>
      </trkpt>
      <trkpt lat="42.06675" lon="1.28637">
        <ele>520.3</ele>
        <time>2019-02-12T18:48:10Z</time>
      </trkpt>
      <trkpt lat="42.06669" lon="1.28648">
        <ele>518.9</ele>
        <time>2019-02-12T18:48:16Z</time>
      </trkpt>
      <trkpt lat="42.06664" lon="1.28659">
        <ele>517.4</ele>
        <time>2019-02-12T18:48:21Z</time>
      </trkpt>
      <trkpt lat="42.0666" lon="1.28669">
        <ele>518.2</ele>
        <time>2019-02-12T18:48:26Z</time>
      </trkpt>
      <trkpt lat="42.06655" lon="1.2868">
        <ele>518.2</ele>
        <time>2019-02-12T18:48:32Z</time>
      </trkpt>
      <trkpt lat="42.06649" lon="1.28691">
        <ele>518.3</ele>
        <time>2019-02-12T18:48:38Z</time>
      </trkpt>
      <trkpt lat="42.06644" lon="1.28702">
        <ele>516.9</ele>
        <time>2019-02-12T18:48:43Z</time>
      </trkpt>
      <trkpt lat="42.0664" lon="1.28714">
        <ele>516.5</ele>
        <time>2019-02-12T18:48:48Z</time>
      </trkpt>
      <trkpt lat="42.06636" lon="1.28724">
        <ele>515.4</ele>
        <time>2019-02-12T18:48:54Z</time>
      </trkpt>
      <trkpt lat="42.06632" lon="1.28736">
        <ele>513.5</ele>
        <time>2019-02-12T18:48:59Z</time>
      </trkpt>
      <trkpt lat="42.06628" lon="1.28746">
        <ele>512.6</ele>
        <time>2019-02-12T18:49:04Z</time>
      </trkpt>
      <trkpt lat="42.06623" lon="1.28757">
        <ele>511.6</ele>
        <time>2019-02-12T18:49:09Z</time>
      </trkpt>
      <trkpt lat="42.06617" lon="1.28766">
        <ele>510.2</ele>
        <time>2019-02-12T18:49:14Z</time>
      </trkpt>
      <trkpt lat="42.06612" lon="1.28778">
        <ele>509.7</ele>
        <time>2019-02-12T18:49:20Z</time>
      </trkpt>
      <trkpt lat="42.06607" lon="1.28786">
        <ele>509.6</ele>
        <time>2019-02-12T18:49:25Z</time>
      </trkpt>
      <trkpt lat="42.06602" lon="1.28797">
        <ele>507.8</ele>
        <time>2019-02-12T18:49:30Z</time>
      </trkpt>
      <trkpt lat="42.06597" lon="1.28807">
        <ele>507.8</ele>
        <time>2019-02-12T18:49:35Z</time>
      </trkpt>
      <trkpt lat="42.06589" lon="1.28818">
        <ele>502.1</ele>
        <time>2019-02-12T18:49:42Z</time>
      </trkpt>
      <trkpt lat="42.06583" lon="1.28829">
        <ele>499.6</ele>
        <time>2019-02-12T18:49:48Z</time>
      </trkpt>
      <trkpt lat="42.06578" lon="1.28839">
        <ele>495.7</ele>
        <time>2019-02-12T18:49:53Z</time>
      </trkpt>
      <trkpt lat="42.06573" lon="1.28848">
        <ele>493.9</ele>
        <time>2019-02-12T18:49:57Z</time>
      </trkpt>
      <trkpt lat="42.06567" lon="1.28859">
        <ele>491.4</ele>
        <time>2019-02-12T18:50:03Z</time>
      </trkpt>
      <trkpt lat="42.06561" lon="1.28869">
        <ele>489.1</ele>
        <time>2019-02-12T18:50:09Z</time>
      </trkpt>
      <trkpt lat="42.06553" lon="1.2888">
        <ele>488.1</ele>
        <time>2019-02-12T18:50:15Z</time>
      </trkpt>
      <trkpt lat="42.06546" lon="1.28888">
        <ele>486.6</ele>
        <time>2019-02-12T18:50:20Z</time>
      </trkpt>
      <trkpt lat="42.06538" lon="1.28896">
        <ele>485.6</ele>
        <time>2019-02-12T18:50:26Z</time>
      </trkpt>
      <trkpt lat="42.06531" lon="1.28905">
        <ele>484.6</ele>
        <time>2019-02-12T18:50:32Z</time>
      </trkpt>
      <trkpt lat="42.06526" lon="1.28919">
        <ele>484.3</ele>
        <time>2019-02-12T18:50:38Z</time>
      </trkpt>
      <trkpt lat="42.06519" lon="1.28931">
        <ele>484.3</ele>
        <time>2019-02-12T18:50:45Z</time>
      </trkpt>
      <trkpt lat="42.06515" lon="1.2894">
        <ele>483.7</ele>
        <time>2019-02-12T18:50:49Z</time>
      </trkpt>
      <trkpt lat="42.0651" lon="1.2895">
        <ele>483.7</ele>
        <time>2019-02-12T18:50:54Z</time>
      </trkpt>
      <trkpt lat="42.06504" lon="1.2896">
        <ele>485.3</ele>
        <time>2019-02-12T18:51:00Z</time>
      </trkpt>
      <trkpt lat="42.06495" lon="1.28974">
        <ele>484.7</ele>
        <time>2019-02-12T18:51:08Z</time>
      </trkpt>
      <trkpt lat="42.06491" lon="1.28983">
        <ele>482.9</ele>
        <time>2019-02-12T18:51:12Z</time>
      </trkpt>
      <trkpt lat="42.06486" lon="1.28994">
        <ele>482.2</ele>
        <time>2019-02-12T18:51:17Z</time>
      </trkpt>
      <trkpt lat="42.0648" lon="1.29005">
        <ele>481.3</ele>
        <time>2019-02-12T18:51:23Z</time>
      </trkpt>
      <trkpt lat="42.06477" lon="1.29018">
        <ele>480.4</ele>
        <time>2019-02-12T18:51:29Z</time>
      </trkpt>
      <trkpt lat="42.0647" lon="1.29033">
        <ele>481.2</ele>
        <time>2019-02-12T18:51:37Z</time>
      </trkpt>
      <trkpt lat="42.06465" lon="1.29047">
        <ele>483.2</ele>
        <time>2019-02-12T18:51:43Z</time>
      </trkpt>
      <trkpt lat="42.06464" lon="1.29058">
        <ele>483.6</ele>
        <time>2019-02-12T18:51:48Z</time>
      </trkpt>
      <trkpt lat="42.0646" lon="1.29071">
        <ele>484.6</ele>
        <time>2019-02-12T18:51:54Z</time>
      </trkpt>
      <trkpt lat="42.06455" lon="1.29084">
        <ele>484.6</ele>
        <time>2019-02-12T18:52:00Z</time>
      </trkpt>
      <trkpt lat="42.06451" lon="1.29095">
        <ele>485.3</ele>
        <time>2019-02-12T18:52:05Z</time>
      </trkpt>
      <trkpt lat="42.06449" lon="1.29106">
        <ele>487.7</ele>
        <time>2019-02-12T18:52:10Z</time>
      </trkpt>
      <trkpt lat="42.06445" lon="1.29119">
        <ele>487.7</ele>
        <time>2019-02-12T18:52:16Z</time>
      </trkpt>
      <trkpt lat="42.06441" lon="1.29132">
        <ele>485.2</ele>
        <time>2019-02-12T18:52:22Z</time>
      </trkpt>
      <trkpt lat="42.06437" lon="1.29149">
        <ele>485.3</ele>
        <time>2019-02-12T18:52:30Z</time>
      </trkpt>
      <trkpt lat="42.06432" lon="1.29164">
        <ele>484.6</ele>
        <time>2019-02-12T18:52:37Z</time>
      </trkpt>
      <trkpt lat="42.06433" lon="1.29177">
        <ele>484.2</ele>
        <time>2019-02-12T18:52:42Z</time>
      </trkpt>
      <trkpt lat="42.06433" lon="1.2919">
        <ele>482.8</ele>
        <time>2019-02-12T18:52:48Z</time>
      </trkpt>
      <trkpt lat="42.06436" lon="1.29195">
        <ele>478.4</ele>
        <time>2019-02-12T18:52:51Z</time>
      </trkpt>
      <trkpt lat="42.06442" lon="1.29194">
        <ele>476.1</ele>
        <time>2019-02-12T18:52:54Z</time>
      </trkpt>
      <trkpt lat="42.06442" lon="1.29209">
        <ele>472.6</ele>
        <time>2019-02-12T18:53:00Z</time>
      </trkpt>
      <trkpt lat="42.06443" lon="1.29221">
        <ele>472.3</ele>
        <time>2019-02-12T18:53:05Z</time>
      </trkpt>
      <trkpt lat="42.06447" lon="1.29233">
        <ele>468.8</ele>
        <time>2019-02-12T18:53:11Z</time>
      </trkpt>
      <trkpt lat="42.06451" lon="1.29242">
        <ele>467.5</ele>
        <time>2019-02-12T18:53:16Z</time>
      </trkpt>
      <trkpt lat="42.06446" lon="1.29256">
        <ele>466.4</ele>
        <time>2019-02-12T18:53:23Z</time>
      </trkpt>
      <trkpt lat="42.06442" lon="1.29269">
        <ele>465.1</ele>
        <time>2019-02-12T18:53:28Z</time>
      </trkpt>
      <trkpt lat="42.06439" lon="1.29282">
        <ele>462.6</ele>
        <time>2019-02-12T18:53:34Z</time>
      </trkpt>
      <trkpt lat="42.06438" lon="1.29296">
        <ele>461</ele>
        <time>2019-02-12T18:53:40Z</time>
      </trkpt>
      <trkpt lat="42.06437" lon="1.29313">
        <ele>460.2</ele>
        <time>2019-02-12T18:53:47Z</time>
      </trkpt>
      <trkpt lat="42.06435" lon="1.29327">
        <ele>459.3</ele>
        <time>2019-02-12T18:53:54Z</time>
      </trkpt>
      <trkpt lat="42.06428" lon="1.29336">
        <ele>458.3</ele>
        <time>2019-02-12T18:53:59Z</time>
      </trkpt>
      <trkpt lat="42.06424" lon="1.29353">
        <ele>460.2</ele>
        <time>2019-02-12T18:54:07Z</time>
      </trkpt>
      <trkpt lat="42.06417" lon="1.29361">
        <ele>459.7</ele>
        <time>2019-02-12T18:54:12Z</time>
      </trkpt>
      <trkpt lat="42.06413" lon="1.29381">
        <ele>458.6</ele>
        <time>2019-02-12T18:54:20Z</time>
      </trkpt>
      <trkpt lat="42.06403" lon="1.29401">
        <ele>457.9</ele>
        <time>2019-02-12T18:54:31Z</time>
      </trkpt>
      <trkpt lat="42.06403" lon="1.29417">
        <ele>456.8</ele>
        <time>2019-02-12T18:54:37Z</time>
      </trkpt>
      <trkpt lat="42.06399" lon="1.29431">
        <ele>455.5</ele>
        <time>2019-02-12T18:54:44Z</time>
      </trkpt>
      <trkpt lat="42.06398" lon="1.29446">
        <ele>453.8</ele>
        <time>2019-02-12T18:54:50Z</time>
      </trkpt>
      <trkpt lat="42.06391" lon="1.29459">
        <ele>453.4</ele>
        <time>2019-02-12T18:54:57Z</time>
      </trkpt>
      <trkpt lat="42.06383" lon="1.29473">
        <ele>452</ele>
        <time>2019-02-12T18:55:04Z</time>
      </trkpt>
      <trkpt lat="42.06381" lon="1.29483">
        <ele>451</ele>
        <time>2019-02-12T18:55:09Z</time>
      </trkpt>
      <trkpt lat="42.0638" lon="1.29495">
        <ele>449.1</ele>
        <time>2019-02-12T18:55:14Z</time>
      </trkpt>
      <trkpt lat="42.06386" lon="1.29506">
        <ele>448.3</ele>
        <time>2019-02-12T18:55:19Z</time>
      </trkpt>
      <trkpt lat="42.06381" lon="1.29519">
        <ele>447.7</ele>
        <time>2019-02-12T18:55:25Z</time>
      </trkpt>
      <trkpt lat="42.06377" lon="1.29528">
        <ele>447.7</ele>
        <time>2019-02-12T18:55:30Z</time>
      </trkpt>
      <trkpt lat="42.0637" lon="1.29538">
        <ele>445.3</ele>
        <time>2019-02-12T18:55:36Z</time>
      </trkpt>
      <trkpt lat="42.06371" lon="1.29552">
        <ele>443.5</ele>
        <time>2019-02-12T18:55:42Z</time>
      </trkpt>
      <trkpt lat="42.06378" lon="1.29563">
        <ele>441.8</ele>
        <time>2019-02-12T18:55:48Z</time>
      </trkpt>
      <trkpt lat="42.06384" lon="1.29572">
        <ele>441.8</ele>
        <time>2019-02-12T18:55:53Z</time>
      </trkpt>
      <trkpt lat="42.06392" lon="1.29578">
        <ele>437</ele>
        <time>2019-02-12T18:55:58Z</time>
      </trkpt>
      <trkpt lat="42.06396" lon="1.2959">
        <ele>436</ele>
        <time>2019-02-12T18:56:04Z</time>
      </trkpt>
      <trkpt lat="42.064" lon="1.296">
        <ele>435.2</ele>
        <time>2019-02-12T18:56:08Z</time>
      </trkpt>
      <trkpt lat="42.06407" lon="1.29609">
        <ele>435.3</ele>
        <time>2019-02-12T18:56:14Z</time>
      </trkpt>
      <trkpt lat="42.06416" lon="1.29609">
        <ele>434.3</ele>
        <time>2019-02-12T18:56:20Z</time>
      </trkpt>
      <trkpt lat="42.06426" lon="1.29607">
        <ele>431.3</ele>
        <time>2019-02-12T18:56:25Z</time>
      </trkpt>
      <trkpt lat="42.06436" lon="1.29606">
        <ele>429.5</ele>
        <time>2019-02-12T18:56:31Z</time>
      </trkpt>
      <trkpt lat="42.06445" lon="1.2961">
        <ele>430.9</ele>
        <time>2019-02-12T18:56:37Z</time>
      </trkpt>
      <trkpt lat="42.0645" lon="1.2962">
        <ele>431.3</ele>
        <time>2019-02-12T18:56:41Z</time>
      </trkpt>
      <trkpt lat="42.06451" lon="1.29629">
        <ele>430.9</ele>
        <time>2019-02-12T18:56:46Z</time>
      </trkpt>
      <trkpt lat="42.06456" lon="1.29643">
        <ele>432.2</ele>
        <time>2019-02-12T18:56:52Z</time>
      </trkpt>
      <trkpt lat="42.0646" lon="1.29655">
        <ele>431.8</ele>
        <time>2019-02-12T18:56:58Z</time>
      </trkpt>
      <trkpt lat="42.06464" lon="1.29667">
        <ele>430.8</ele>
        <time>2019-02-12T18:57:03Z</time>
      </trkpt>
      <trkpt lat="42.06468" lon="1.29679">
        <ele>429.9</ele>
        <time>2019-02-12T18:57:09Z</time>
      </trkpt>
      <trkpt lat="42.06474" lon="1.2969">
        <ele>428.9</ele>
        <time>2019-02-12T18:57:15Z</time>
      </trkpt>
      <trkpt lat="42.06478" lon="1.29701">
        <ele>428.4</ele>
        <time>2019-02-12T18:57:20Z</time>
      </trkpt>
      <trkpt lat="42.06482" lon="1.29712">
        <ele>427.4</ele>
        <time>2019-02-12T18:57:25Z</time>
      </trkpt>
      <trkpt lat="42.06485" lon="1.29724">
        <ele>425.7</ele>
        <time>2019-02-12T18:57:30Z</time>
      </trkpt>
      <trkpt lat="42.06492" lon="1.29734">
        <ele>424.6</ele>
        <time>2019-02-12T18:57:36Z</time>
      </trkpt>
      <trkpt lat="42.06501" lon="1.29739">
        <ele>424</ele>
        <time>2019-02-12T18:57:42Z</time>
      </trkpt>
      <trkpt lat="42.06509" lon="1.29747">
        <ele>423.2</ele>
        <time>2019-02-12T18:57:48Z</time>
      </trkpt>
      <trkpt lat="42.06519" lon="1.29753">
        <ele>422.2</ele>
        <time>2019-02-12T18:57:53Z</time>
      </trkpt>
      <trkpt lat="42.06527" lon="1.2976">
        <ele>422.2</ele>
        <time>2019-02-12T18:57:59Z</time>
      </trkpt>
      <trkpt lat="42.06534" lon="1.2977">
        <ele>422.2</ele>
        <time>2019-02-12T18:58:05Z</time>
      </trkpt>
      <trkpt lat="42.06539" lon="1.29781">
        <ele>421.7</ele>
        <time>2019-02-12T18:58:10Z</time>
      </trkpt>
      <trkpt lat="42.06541" lon="1.29794">
        <ele>421.3</ele>
        <time>2019-02-12T18:58:16Z</time>
      </trkpt>
      <trkpt lat="42.0654" lon="1.29806">
        <ele>421.3</ele>
        <time>2019-02-12T18:58:21Z</time>
      </trkpt>
      <trkpt lat="42.06535" lon="1.29818">
        <ele>421.7</ele>
        <time>2019-02-12T18:58:27Z</time>
      </trkpt>
      <trkpt lat="42.0653" lon="1.2983">
        <ele>422.3</ele>
        <time>2019-02-12T18:58:32Z</time>
      </trkpt>
      <trkpt lat="42.06526" lon="1.29841">
        <ele>422.2</ele>
        <time>2019-02-12T18:58:38Z</time>
      </trkpt>
      <trkpt lat="42.06524" lon="1.29853">
        <ele>423.3</ele>
        <time>2019-02-12T18:58:43Z</time>
      </trkpt>
      <trkpt lat="42.06524" lon="1.29866">
        <ele>424</ele>
        <time>2019-02-12T18:58:49Z</time>
      </trkpt>
      <trkpt lat="42.06526" lon="1.29879">
        <ele>423.6</ele>
        <time>2019-02-12T18:58:54Z</time>
      </trkpt>
      <trkpt lat="42.06528" lon="1.29892">
        <ele>424</ele>
        <time>2019-02-12T18:59:00Z</time>
      </trkpt>
      <trkpt lat="42.0653" lon="1.29905">
        <ele>423.7</ele>
        <time>2019-02-12T18:59:06Z</time>
      </trkpt>
      <trkpt lat="42.06531" lon="1.29918">
        <ele>424.6</ele>
        <time>2019-02-12T18:59:11Z</time>
      </trkpt>
      <trkpt lat="42.06533" lon="1.2993">
        <ele>424.7</ele>
        <time>2019-02-12T18:59:16Z</time>
      </trkpt>
      <trkpt lat="42.06534" lon="1.29943">
        <ele>424.7</ele>
        <time>2019-02-12T18:59:22Z</time>
      </trkpt>
      <trkpt lat="42.06536" lon="1.29955">
        <ele>424.6</ele>
        <time>2019-02-12T18:59:27Z</time>
      </trkpt>
      <trkpt lat="42.06538" lon="1.29967">
        <ele>424</ele>
        <time>2019-02-12T18:59:32Z</time>
      </trkpt>
      <trkpt lat="42.06539" lon="1.29979">
        <ele>424.7</ele>
        <time>2019-02-12T18:59:37Z</time>
      </trkpt>
      <trkpt lat="42.06541" lon="1.29991">
        <ele>423.6</ele>
        <time>2019-02-12T18:59:42Z</time>
      </trkpt>
      <trkpt lat="42.06543" lon="1.30002">
        <ele>424</ele>
        <time>2019-02-12T18:59:47Z</time>
      </trkpt>
      <trkpt lat="42.06544" lon="1.30016">
        <ele>424</ele>
        <time>2019-02-12T18:59:53Z</time>
      </trkpt>
      <trkpt lat="42.06545" lon="1.30028">
        <ele>424.6</ele>
        <time>2019-02-12T18:59:58Z</time>
      </trkpt>
      <trkpt lat="42.06546" lon="1.3004">
        <ele>425.1</ele>
        <time>2019-02-12T19:00:04Z</time>
      </trkpt>
      <trkpt lat="42.06548" lon="1.30053">
        <ele>425.7</ele>
        <time>2019-02-12T19:00:09Z</time>
      </trkpt>
      <trkpt lat="42.0655" lon="1.30067">
        <ele>425</ele>
        <time>2019-02-12T19:00:15Z</time>
      </trkpt>
      <trkpt lat="42.06552" lon="1.30079">
        <ele>425.1</ele>
        <time>2019-02-12T19:00:20Z</time>
      </trkpt>
      <trkpt lat="42.06553" lon="1.30091">
        <ele>426.1</ele>
        <time>2019-02-12T19:00:25Z</time>
      </trkpt>
      <trkpt lat="42.06555" lon="1.30103">
        <ele>425.7</ele>
        <time>2019-02-12T19:00:31Z</time>
      </trkpt>
      <trkpt lat="42.06557" lon="1.30116">
        <ele>425</ele>
        <time>2019-02-12T19:00:36Z</time>
      </trkpt>
      <trkpt lat="42.06559" lon="1.30128">
        <ele>424.6</ele>
        <time>2019-02-12T19:00:42Z</time>
      </trkpt>
      <trkpt lat="42.06561" lon="1.30141">
        <ele>424.7</ele>
        <time>2019-02-12T19:00:47Z</time>
      </trkpt>
      <trkpt lat="42.06562" lon="1.30153">
        <ele>423.6</ele>
        <time>2019-02-12T19:00:53Z</time>
      </trkpt>
      <trkpt lat="42.06564" lon="1.30167">
        <ele>422.6</ele>
        <time>2019-02-12T19:00:58Z</time>
      </trkpt>
      <trkpt lat="42.06565" lon="1.30178">
        <ele>423.3</ele>
        <time>2019-02-12T19:01:03Z</time>
      </trkpt>
      <trkpt lat="42.06568" lon="1.30191">
        <ele>424.7</ele>
        <time>2019-02-12T19:01:09Z</time>
      </trkpt>
      <trkpt lat="42.0657" lon="1.30203">
        <ele>425.1</ele>
        <time>2019-02-12T19:01:14Z</time>
      </trkpt>
      <trkpt lat="42.06571" lon="1.30216">
        <ele>424</ele>
        <time>2019-02-12T19:01:20Z</time>
      </trkpt>
      <trkpt lat="42.06573" lon="1.30229">
        <ele>424.1</ele>
        <time>2019-02-12T19:01:25Z</time>
      </trkpt>
      <trkpt lat="42.06574" lon="1.30242">
        <ele>424.1</ele>
        <time>2019-02-12T19:01:31Z</time>
      </trkpt>
      <trkpt lat="42.06577" lon="1.30255">
        <ele>424.7</ele>
        <time>2019-02-12T19:01:36Z</time>
      </trkpt>
      <trkpt lat="42.06578" lon="1.30268">
        <ele>424.1</ele>
        <time>2019-02-12T19:01:42Z</time>
      </trkpt>
      <trkpt lat="42.0658" lon="1.30282">
        <ele>423.7</ele>
        <time>2019-02-12T19:01:48Z</time>
      </trkpt>
      <trkpt lat="42.06582" lon="1.30294">
        <ele>423.2</ele>
        <time>2019-02-12T19:01:53Z</time>
      </trkpt>
      <trkpt lat="42.06583" lon="1.30306">
        <ele>423.6</ele>
        <time>2019-02-12T19:01:58Z</time>
      </trkpt>
      <trkpt lat="42.06585" lon="1.30318">
        <ele>423.6</ele>
        <time>2019-02-12T19:02:04Z</time>
      </trkpt>
      <trkpt lat="42.06587" lon="1.30332">
        <ele>423.7</ele>
        <time>2019-02-12T19:02:10Z</time>
      </trkpt>
      <trkpt lat="42.06589" lon="1.30346">
        <ele>423.6</ele>
        <time>2019-02-12T19:02:16Z</time>
      </trkpt>
      <trkpt lat="42.0659" lon="1.30358">
        <ele>424.1</ele>
        <time>2019-02-12T19:02:21Z</time>
      </trkpt>
      <trkpt lat="42.06591" lon="1.3037">
        <ele>423.7</ele>
        <time>2019-02-12T19:02:26Z</time>
      </trkpt>
      <trkpt lat="42.06593" lon="1.30384">
        <ele>423.3</ele>
        <time>2019-02-12T19:02:32Z</time>
      </trkpt>
      <trkpt lat="42.06594" lon="1.30396">
        <ele>422.7</ele>
        <time>2019-02-12T19:02:37Z</time>
      </trkpt>
      <trkpt lat="42.06596" lon="1.3041">
        <ele>421.6</ele>
        <time>2019-02-12T19:02:43Z</time>
      </trkpt>
      <trkpt lat="42.06601" lon="1.30419">
        <ele>421.6</ele>
        <time>2019-02-12T19:02:48Z</time>
      </trkpt>
      <trkpt lat="42.06608" lon="1.30428">
        <ele>421.2</ele>
        <time>2019-02-12T19:02:54Z</time>
      </trkpt>
      <trkpt lat="42.06615" lon="1.30435">
        <ele>421.2</ele>
        <time>2019-02-12T19:02:59Z</time>
      </trkpt>
      <trkpt lat="42.06624" lon="1.30443">
        <ele>421.3</ele>
        <time>2019-02-12T19:03:05Z</time>
      </trkpt>
      <trkpt lat="42.06632" lon="1.30449">
        <ele>420.8</ele>
        <time>2019-02-12T19:03:10Z</time>
      </trkpt>
      <trkpt lat="42.0664" lon="1.30457">
        <ele>420.9</ele>
        <time>2019-02-12T19:03:16Z</time>
      </trkpt>
      <trkpt lat="42.06646" lon="1.30467">
        <ele>421.2</ele>
        <time>2019-02-12T19:03:21Z</time>
      </trkpt>
      <trkpt lat="42.06645" lon="1.30479">
        <ele>421.6</ele>
        <time>2019-02-12T19:03:26Z</time>
      </trkpt>
      <trkpt lat="42.06638" lon="1.3049">
        <ele>423.2</ele>
        <time>2019-02-12T19:03:32Z</time>
      </trkpt>
      <trkpt lat="42.06632" lon="1.30499">
        <ele>426</ele>
        <time>2019-02-12T19:03:38Z</time>
      </trkpt>
      <trkpt lat="42.06625" lon="1.30509">
        <ele>426</ele>
        <time>2019-02-12T19:03:43Z</time>
      </trkpt>
      <trkpt lat="42.06618" lon="1.30519">
        <ele>426.5</ele>
        <time>2019-02-12T19:03:49Z</time>
      </trkpt>
      <trkpt lat="42.0661" lon="1.30527">
        <ele>426.4</ele>
        <time>2019-02-12T19:03:55Z</time>
      </trkpt>
      <trkpt lat="42.06602" lon="1.30536">
        <ele>428.4</ele>
        <time>2019-02-12T19:04:01Z</time>
      </trkpt>
      <trkpt lat="42.06595" lon="1.30545">
        <ele>428</ele>
        <time>2019-02-12T19:04:06Z</time>
      </trkpt>
      <trkpt lat="42.06589" lon="1.30555">
        <ele>428.1</ele>
        <time>2019-02-12T19:04:12Z</time>
      </trkpt>
      <trkpt lat="42.0659" lon="1.30566">
        <ele>427</ele>
        <time>2019-02-12T19:04:17Z</time>
      </trkpt>
      <trkpt lat="42.06596" lon="1.30576">
        <ele>427.1</ele>
        <time>2019-02-12T19:04:22Z</time>
      </trkpt>
      <trkpt lat="42.06601" lon="1.30587">
        <ele>427.1</ele>
        <time>2019-02-12T19:04:27Z</time>
      </trkpt>
      <trkpt lat="42.06606" lon="1.30597">
        <ele>428.5</ele>
        <time>2019-02-12T19:04:33Z</time>
      </trkpt>
      <trkpt lat="42.0661" lon="1.30609">
        <ele>429.5</ele>
        <time>2019-02-12T19:04:38Z</time>
      </trkpt>
      <trkpt lat="42.06613" lon="1.3062">
        <ele>428.9</ele>
        <time>2019-02-12T19:04:43Z</time>
      </trkpt>
      <trkpt lat="42.06618" lon="1.30631">
        <ele>428.9</ele>
        <time>2019-02-12T19:04:49Z</time>
      </trkpt>
      <trkpt lat="42.06625" lon="1.30641">
        <ele>428.8</ele>
        <time>2019-02-12T19:04:54Z</time>
      </trkpt>
      <trkpt lat="42.0663" lon="1.30652">
        <ele>428.4</ele>
        <time>2019-02-12T19:05:00Z</time>
      </trkpt>
      <trkpt lat="42.06634" lon="1.30664">
        <ele>428.1</ele>
        <time>2019-02-12T19:05:05Z</time>
      </trkpt>
      <trkpt lat="42.06638" lon="1.30677">
        <ele>428.1</ele>
        <time>2019-02-12T19:05:12Z</time>
      </trkpt>
      <trkpt lat="42.06642" lon="1.30688">
        <ele>427.4</ele>
        <time>2019-02-12T19:05:17Z</time>
      </trkpt>
      <trkpt lat="42.06646" lon="1.30699">
        <ele>427.5</ele>
        <time>2019-02-12T19:05:22Z</time>
      </trkpt>
      <trkpt lat="42.0665" lon="1.30711">
        <ele>427.5</ele>
        <time>2019-02-12T19:05:28Z</time>
      </trkpt>
      <trkpt lat="42.06654" lon="1.30723">
        <ele>427.5</ele>
        <time>2019-02-12T19:05:33Z</time>
      </trkpt>
      <trkpt lat="42.06658" lon="1.30735">
        <ele>427.5</ele>
        <time>2019-02-12T19:05:39Z</time>
      </trkpt>
      <trkpt lat="42.06662" lon="1.30745">
        <ele>427.1</ele>
        <time>2019-02-12T19:05:44Z</time>
      </trkpt>
      <trkpt lat="42.06666" lon="1.30757">
        <ele>426.5</ele>
        <time>2019-02-12T19:05:49Z</time>
      </trkpt>
      <trkpt lat="42.06669" lon="1.30769">
        <ele>426.4</ele>
        <time>2019-02-12T19:05:54Z</time>
      </trkpt>
      <trkpt lat="42.06672" lon="1.30781">
        <ele>426.4</ele>
        <time>2019-02-12T19:06:00Z</time>
      </trkpt>
      <trkpt lat="42.06676" lon="1.30792">
        <ele>426.5</ele>
        <time>2019-02-12T19:06:05Z</time>
      </trkpt>
      <trkpt lat="42.06681" lon="1.30803">
        <ele>427</ele>
        <time>2019-02-12T19:06:11Z</time>
      </trkpt>
      <trkpt lat="42.06686" lon="1.30815">
        <ele>427.4</ele>
        <time>2019-02-12T19:06:16Z</time>
      </trkpt>
      <trkpt lat="42.0669" lon="1.30825">
        <ele>427.1</ele>
        <time>2019-02-12T19:06:21Z</time>
      </trkpt>
      <trkpt lat="42.06695" lon="1.30836">
        <ele>427.4</ele>
        <time>2019-02-12T19:06:26Z</time>
      </trkpt>
      <trkpt lat="42.06698" lon="1.30847">
        <ele>427.1</ele>
        <time>2019-02-12T19:06:32Z</time>
      </trkpt>
      <trkpt lat="42.06703" lon="1.30856">
        <ele>427.1</ele>
        <time>2019-02-12T19:06:36Z</time>
      </trkpt>
      <trkpt lat="42.06709" lon="1.30865">
        <ele>428.8</ele>
        <time>2019-02-12T19:06:42Z</time>
      </trkpt>
      <trkpt lat="42.06716" lon="1.30875">
        <ele>429.9</ele>
        <time>2019-02-12T19:06:47Z</time>
      </trkpt>
      <trkpt lat="42.06722" lon="1.30885">
        <ele>430.4</ele>
        <time>2019-02-12T19:06:53Z</time>
      </trkpt>
      <trkpt lat="42.06727" lon="1.30895">
        <ele>429.8</ele>
        <time>2019-02-12T19:06:58Z</time>
      </trkpt>
      <trkpt lat="42.06733" lon="1.30905">
        <ele>429.9</ele>
        <time>2019-02-12T19:07:03Z</time>
      </trkpt>
      <trkpt lat="42.06738" lon="1.30917">
        <ele>430.4</ele>
        <time>2019-02-12T19:07:09Z</time>
      </trkpt>
      <trkpt lat="42.06741" lon="1.30929">
        <ele>431.2</ele>
        <time>2019-02-12T19:07:15Z</time>
      </trkpt>
      <trkpt lat="42.06743" lon="1.30942">
        <ele>431.9</ele>
        <time>2019-02-12T19:07:20Z</time>
      </trkpt>
      <trkpt lat="42.06746" lon="1.30952">
        <ele>431.9</ele>
        <time>2019-02-12T19:07:25Z</time>
      </trkpt>
      <trkpt lat="42.06748" lon="1.30965">
        <ele>431.9</ele>
        <time>2019-02-12T19:07:31Z</time>
      </trkpt>
      <trkpt lat="42.06749" lon="1.30981">
        <ele>432.3</ele>
        <time>2019-02-12T19:07:37Z</time>
      </trkpt>
      <trkpt lat="42.06744" lon="1.30992">
        <ele>431.8</ele>
        <time>2019-02-12T19:07:43Z</time>
      </trkpt>
      <trkpt lat="42.06735" lon="1.30995">
        <ele>432.2</ele>
        <time>2019-02-12T19:07:48Z</time>
      </trkpt>
      <trkpt lat="42.06726" lon="1.30998">
        <ele>432.8</ele>
        <time>2019-02-12T19:07:53Z</time>
      </trkpt>
      <trkpt lat="42.06716" lon="1.31">
        <ele>434.2</ele>
        <time>2019-02-12T19:07:59Z</time>
      </trkpt>
      <trkpt lat="42.06707" lon="1.31003">
        <ele>433.7</ele>
        <time>2019-02-12T19:08:05Z</time>
      </trkpt>
      <trkpt lat="42.06699" lon="1.31009">
        <ele>435.7</ele>
        <time>2019-02-12T19:08:10Z</time>
      </trkpt>
      <trkpt lat="42.06701" lon="1.31023">
        <ele>434.2</ele>
        <time>2019-02-12T19:08:16Z</time>
      </trkpt>
      <trkpt lat="42.06703" lon="1.31036">
        <ele>430.8</ele>
        <time>2019-02-12T19:08:22Z</time>
      </trkpt>
      <trkpt lat="42.06705" lon="1.31048">
        <ele>431.8</ele>
        <time>2019-02-12T19:08:27Z</time>
      </trkpt>
      <trkpt lat="42.06708" lon="1.3106">
        <ele>431.8</ele>
        <time>2019-02-12T19:08:32Z</time>
      </trkpt>
      <trkpt lat="42.06714" lon="1.31073">
        <ele>427.4</ele>
        <time>2019-02-12T19:08:39Z</time>
      </trkpt>
      <trkpt lat="42.06719" lon="1.3109">
        <ele>424.7</ele>
        <time>2019-02-12T19:08:46Z</time>
      </trkpt>
      <trkpt lat="42.06722" lon="1.31107">
        <ele>424.6</ele>
        <time>2019-02-12T19:08:54Z</time>
      </trkpt>
      <trkpt lat="42.06719" lon="1.31121">
        <ele>424.6</ele>
        <time>2019-02-12T19:09:00Z</time>
      </trkpt>
      <trkpt lat="42.0671" lon="1.31123">
        <ele>424</ele>
        <time>2019-02-12T19:09:05Z</time>
      </trkpt>
      <trkpt lat="42.06699" lon="1.31131">
        <ele>424.1</ele>
        <time>2019-02-12T19:09:12Z</time>
      </trkpt>
      <trkpt lat="42.06685" lon="1.31136">
        <ele>427</ele>
        <time>2019-02-12T19:09:20Z</time>
      </trkpt>
      <trkpt lat="42.06676" lon="1.31147">
        <ele>428.4</ele>
        <time>2019-02-12T19:09:27Z</time>
      </trkpt>
      <trkpt lat="42.06666" lon="1.31158">
        <ele>431.3</ele>
        <time>2019-02-12T19:09:35Z</time>
      </trkpt>
      <trkpt lat="42.06663" lon="1.31171">
        <ele>429.9</ele>
        <time>2019-02-12T19:09:40Z</time>
      </trkpt>
      <trkpt lat="42.06659" lon="1.31183">
        <ele>430.9</ele>
        <time>2019-02-12T19:09:46Z</time>
      </trkpt>
      <trkpt lat="42.06655" lon="1.31195">
        <ele>431.2</ele>
        <time>2019-02-12T19:09:51Z</time>
      </trkpt>
      <trkpt lat="42.06651" lon="1.31206">
        <ele>431.2</ele>
        <time>2019-02-12T19:09:57Z</time>
      </trkpt>
      <trkpt lat="42.06646" lon="1.31218">
        <ele>432.9</ele>
        <time>2019-02-12T19:10:03Z</time>
      </trkpt>
      <trkpt lat="42.06642" lon="1.3123">
        <ele>433.6</ele>
        <time>2019-02-12T19:10:08Z</time>
      </trkpt>
      <trkpt lat="42.06636" lon="1.31242">
        <ele>434.2</ele>
        <time>2019-02-12T19:10:14Z</time>
      </trkpt>
      <trkpt lat="42.06636" lon="1.31255">
        <ele>436.1</ele>
        <time>2019-02-12T19:10:20Z</time>
      </trkpt>
      <trkpt lat="42.0664" lon="1.31268">
        <ele>437.6</ele>
        <time>2019-02-12T19:10:26Z</time>
      </trkpt>
      <trkpt lat="42.06638" lon="1.31286">
        <ele>439.1</ele>
        <time>2019-02-12T19:10:33Z</time>
      </trkpt>
      <trkpt lat="42.06641" lon="1.31299">
        <ele>440.5</ele>
        <time>2019-02-12T19:10:39Z</time>
      </trkpt>
      <trkpt lat="42.06641" lon="1.31315">
        <ele>441.8</ele>
        <time>2019-02-12T19:10:46Z</time>
      </trkpt>
      <trkpt lat="42.06642" lon="1.31328">
        <ele>443.5</ele>
        <time>2019-02-12T19:10:52Z</time>
      </trkpt>
      <trkpt lat="42.06646" lon="1.31341">
        <ele>444.3</ele>
        <time>2019-02-12T19:10:58Z</time>
      </trkpt>
      <trkpt lat="42.06646" lon="1.31361">
        <ele>446.2</ele>
        <time>2019-02-12T19:11:06Z</time>
      </trkpt>
      <trkpt lat="42.06655" lon="1.31387">
        <ele>455.5</ele>
        <time>2019-02-12T19:11:19Z</time>
      </trkpt>
      <trkpt lat="42.06665" lon="1.31387">
        <ele>459.2</ele>
        <time>2019-02-12T19:11:24Z</time>
      </trkpt>
      <trkpt lat="42.06678" lon="1.31382">
        <ele>461.6</ele>
        <time>2019-02-12T19:11:32Z</time>
      </trkpt>
      <trkpt lat="42.06692" lon="1.3139">
        <ele>463.5</ele>
        <time>2019-02-12T19:11:41Z</time>
      </trkpt>
      <trkpt lat="42.0669" lon="1.314">
        <ele>465.4</ele>
        <time>2019-02-12T19:11:45Z</time>
      </trkpt>
      <trkpt lat="42.0668" lon="1.31407">
        <ele>466.9</ele>
        <time>2019-02-12T19:11:52Z</time>
      </trkpt>
      <trkpt lat="42.06668" lon="1.31411">
        <ele>468.3</ele>
        <time>2019-02-12T19:11:59Z</time>
      </trkpt>
      <trkpt lat="42.06659" lon="1.31418">
        <ele>470.3</ele>
        <time>2019-02-12T19:12:05Z</time>
      </trkpt>
      <trkpt lat="42.06648" lon="1.31414">
        <ele>472.3</ele>
        <time>2019-02-12T19:12:11Z</time>
      </trkpt>
      <trkpt lat="42.06637" lon="1.31417">
        <ele>474.7</ele>
        <time>2019-02-12T19:12:18Z</time>
      </trkpt>
      <trkpt lat="42.06626" lon="1.31416">
        <ele>477</ele>
        <time>2019-02-12T19:12:24Z</time>
      </trkpt>
      <trkpt lat="42.06617" lon="1.31419">
        <ele>479.5</ele>
        <time>2019-02-12T19:12:30Z</time>
      </trkpt>
      <trkpt lat="42.06607" lon="1.31427">
        <ele>481.8</ele>
        <time>2019-02-12T19:12:36Z</time>
      </trkpt>
      <trkpt lat="42.06597" lon="1.3143">
        <ele>483.6</ele>
        <time>2019-02-12T19:12:42Z</time>
      </trkpt>
      <trkpt lat="42.06587" lon="1.31432">
        <ele>486.7</ele>
        <time>2019-02-12T19:12:48Z</time>
      </trkpt>
      <trkpt lat="42.0658" lon="1.31446">
        <ele>489.5</ele>
        <time>2019-02-12T19:12:55Z</time>
      </trkpt>
      <trkpt lat="42.06577" lon="1.31456">
        <ele>489.5</ele>
        <time>2019-02-12T19:12:59Z</time>
      </trkpt>
      <trkpt lat="42.06568" lon="1.31466">
        <ele>490.5</ele>
        <time>2019-02-12T19:13:06Z</time>
      </trkpt>
      <trkpt lat="42.06568" lon="1.31485">
        <ele>490.1</ele>
        <time>2019-02-12T19:13:14Z</time>
      </trkpt>
      <trkpt lat="42.06564" lon="1.31493">
        <ele>490.8</ele>
        <time>2019-02-12T19:13:18Z</time>
      </trkpt>
      <trkpt lat="42.06555" lon="1.31504">
        <ele>491.9</ele>
        <time>2019-02-12T19:13:25Z</time>
      </trkpt>
      <trkpt lat="42.06552" lon="1.31515">
        <ele>492.9</ele>
        <time>2019-02-12T19:13:30Z</time>
      </trkpt>
      <trkpt lat="42.06563" lon="1.31531">
        <ele>485.2</ele>
        <time>2019-02-12T19:13:39Z</time>
      </trkpt>
      <trkpt lat="42.06566" lon="1.31535">
        <ele>478.8</ele>
        <time>2019-02-12T19:13:42Z</time>
      </trkpt>
      <trkpt lat="42.06574" lon="1.31546">
        <ele>475</ele>
        <time>2019-02-12T19:13:48Z</time>
      </trkpt>
      <trkpt lat="42.06581" lon="1.31557">
        <ele>472.3</ele>
        <time>2019-02-12T19:13:54Z</time>
      </trkpt>
      <trkpt lat="42.06586" lon="1.31568">
        <ele>471.6</ele>
        <time>2019-02-12T19:14:00Z</time>
      </trkpt>
      <trkpt lat="42.06593" lon="1.31577">
        <ele>470.2</ele>
        <time>2019-02-12T19:14:05Z</time>
      </trkpt>
      <trkpt lat="42.06601" lon="1.31584">
        <ele>469.2</ele>
        <time>2019-02-12T19:14:11Z</time>
      </trkpt>
      <trkpt lat="42.0661" lon="1.31588">
        <ele>469.2</ele>
        <time>2019-02-12T19:14:16Z</time>
      </trkpt>
      <trkpt lat="42.06618" lon="1.3159">
        <ele>468.9</ele>
        <time>2019-02-12T19:14:21Z</time>
      </trkpt>
      <trkpt lat="42.06625" lon="1.31582">
        <ele>467.9</ele>
        <time>2019-02-12T19:14:27Z</time>
      </trkpt>
      <trkpt lat="42.06632" lon="1.31571">
        <ele>469.9</ele>
        <time>2019-02-12T19:14:33Z</time>
      </trkpt>
      <trkpt lat="42.06635" lon="1.31559">
        <ele>468.8</ele>
        <time>2019-02-12T19:14:38Z</time>
      </trkpt>
      <trkpt lat="42.06639" lon="1.31546">
        <ele>468.2</ele>
        <time>2019-02-12T19:14:44Z</time>
      </trkpt>
      <trkpt lat="42.06646" lon="1.31541">
        <ele>466.4</ele>
        <time>2019-02-12T19:14:48Z</time>
      </trkpt>
      <trkpt lat="42.06654" lon="1.31542">
        <ele>465.1</ele>
        <time>2019-02-12T19:14:53Z</time>
      </trkpt>
      <trkpt lat="42.06665" lon="1.31542">
        <ele>467.5</ele>
        <time>2019-02-12T19:14:59Z</time>
      </trkpt>
      <trkpt lat="42.06679" lon="1.31547">
        <ele>468.3</ele>
        <time>2019-02-12T19:15:07Z</time>
      </trkpt>
      <trkpt lat="42.06695" lon="1.3155">
        <ele>465.1</ele>
        <time>2019-02-12T19:15:17Z</time>
      </trkpt>
      <trkpt lat="42.06706" lon="1.31555">
        <ele>464</ele>
        <time>2019-02-12T19:15:23Z</time>
      </trkpt>
      <trkpt lat="42.0671" lon="1.31566">
        <ele>463.5</ele>
        <time>2019-02-12T19:15:29Z</time>
      </trkpt>
      <trkpt lat="42.06705" lon="1.3158">
        <ele>467.5</ele>
        <time>2019-02-12T19:15:35Z</time>
      </trkpt>
      <trkpt lat="42.0669" lon="1.31593">
        <ele>463.4</ele>
        <time>2019-02-12T19:15:46Z</time>
      </trkpt>
      <trkpt lat="42.06681" lon="1.3161">
        <ele>463.1</ele>
        <time>2019-02-12T19:15:55Z</time>
      </trkpt>
      <trkpt lat="42.06672" lon="1.31629">
        <ele>462.6</ele>
        <time>2019-02-12T19:16:04Z</time>
      </trkpt>
      <trkpt lat="42.06692" lon="1.31594">
        <ele>462</ele>
        <time>2019-02-12T19:16:22Z</time>
      </trkpt>
      <trkpt lat="42.06704" lon="1.31585">
        <ele>461.6</ele>
        <time>2019-02-12T19:16:30Z</time>
      </trkpt>
    </trkseg>
  </trk>
</gpx>